<?xml version='1.0' encoding='UTF-8'?><gpx version="1.1" creator="JPX - https://github.com/jenetics/jpx" xmlns="http://www.topografix.com/GPX/1/1"><trk><trkseg><trkpt lat="44.04762771890383" lon="7.916058923460339"><ele>263.0</ele><time>2026-05-03T07:50:33.002Z</time></trkpt><trkpt lat="44.047686377774745" lon="7.915974821427655"><ele>263.0</ele><time>2026-05-03T07:50:38.001Z</time></trkpt><trkpt lat="44.047741712708124" lon="7.915915060042354"><ele>263.0</ele><time>2026-05-03T07:50:39.001Z</time></trkpt><trkpt lat="44.04782724164076" lon="7.915826303382218"><ele>263.0</ele><time>2026-05-03T07:50:40.001Z</time></trkpt><trkpt lat="44.04791994522798" lon="7.915767228756443"><ele>263.0</ele><time>2026-05-03T07:50:41.001Z</time></trkpt><trkpt lat="44.048004582907225" lon="7.91574352750297"><ele>263.0</ele><time>2026-05-03T07:50:42.001Z</time></trkpt><trkpt lat="44.048084703651554" lon="7.915751213303121"><ele>263.0</ele><time>2026-05-03T07:50:43Z</time></trkpt><trkpt lat="44.04815278124847" lon="7.9158727011191194"><ele>263.0</ele><time>2026-05-03T07:50:44Z</time></trkpt><trkpt lat="44.048184842340454" lon="7.916016529802762"><ele>263.0</ele><time>2026-05-03T07:50:45Z</time></trkpt><trkpt lat="44.04821543831458" lon="7.916130748637087"><ele>263.0</ele><time>2026-05-03T07:50:46Z</time></trkpt><trkpt lat="44.04828288590521" lon="7.916187680535604"><ele>263.0</ele><time>2026-05-03T07:50:47Z</time></trkpt><trkpt lat="44.04835928864723" lon="7.916182258273148"><ele>264.8</ele><time>2026-05-03T07:50:48Z</time></trkpt><trkpt lat="44.0484400379643" lon="7.9161165265498665"><ele>266.6</ele><time>2026-05-03T07:50:49Z</time></trkpt><trkpt lat="44.048542777716186" lon="7.916072672493085"><ele>268.4</ele><time>2026-05-03T07:50:50Z</time></trkpt><trkpt lat="44.0486421496368" lon="7.916013543828729"><ele>270.2</ele><time>2026-05-03T07:50:51Z</time></trkpt><trkpt lat="44.04872838346002" lon="7.915963130201823"><ele>272.0</ele><time>2026-05-03T07:50:52Z</time></trkpt><trkpt lat="44.04881225447564" lon="7.915914097914082"><ele>272.6</ele><time>2026-05-03T07:50:53Z</time></trkpt><trkpt lat="44.048897722594255" lon="7.915840595869523"><ele>273.2</ele><time>2026-05-03T07:50:54Z</time></trkpt><trkpt lat="44.04898836938855" lon="7.915790542533041"><ele>273.8</ele><time>2026-05-03T07:50:55Z</time></trkpt><trkpt lat="44.049085742425376" lon="7.915738909245211"><ele>274.4</ele><time>2026-05-03T07:50:56Z</time></trkpt><trkpt lat="44.04918510080997" lon="7.915681853168575"><ele>275.0</ele><time>2026-05-03T07:50:57Z</time></trkpt><trkpt lat="44.04927530014229" lon="7.915633319254321"><ele>275.0</ele><time>2026-05-03T07:50:58Z</time></trkpt><trkpt lat="44.0493452661403" lon="7.915599007521628"><ele>275.0</ele><time>2026-05-03T07:50:58.999Z</time></trkpt><trkpt lat="44.04943079189922" lon="7.915582844661413"><ele>275.0</ele><time>2026-05-03T07:50:59.999Z</time></trkpt><trkpt lat="44.04951395949263" lon="7.915626785669238"><ele>275.0</ele><time>2026-05-03T07:51:00.999Z</time></trkpt><trkpt lat="44.04961304382779" lon="7.915635729673756"><ele>275.0</ele><time>2026-05-03T07:51:01.999Z</time></trkpt><trkpt lat="44.04971860899109" lon="7.915665324154186"><ele>275.0</ele><time>2026-05-03T07:51:02.999Z</time></trkpt><trkpt lat="44.0498363612797" lon="7.915709695569195"><ele>275.0</ele><time>2026-05-03T07:51:03.999Z</time></trkpt><trkpt lat="44.04993665752334" lon="7.915711658087294"><ele>275.0</ele><time>2026-05-03T07:51:04.999Z</time></trkpt><trkpt lat="44.05004414657162" lon="7.915713468698931"><ele>275.0</ele><time>2026-05-03T07:51:05.999Z</time></trkpt><trkpt lat="44.05014757864607" lon="7.915708126621698"><ele>275.0</ele><time>2026-05-03T07:51:06.999Z</time></trkpt><trkpt lat="44.05024644853618" lon="7.915702160948016"><ele>275.8</ele><time>2026-05-03T07:51:07.999Z</time></trkpt><trkpt lat="44.05034383958827" lon="7.915702047155263"><ele>276.6</ele><time>2026-05-03T07:51:08.999Z</time></trkpt><trkpt lat="44.050453848473865" lon="7.915677532975619"><ele>277.4</ele><time>2026-05-03T07:51:09.999Z</time></trkpt><trkpt lat="44.050558866308904" lon="7.915644970838082"><ele>278.2</ele><time>2026-05-03T07:51:10.999Z</time></trkpt><trkpt lat="44.05066656119119" lon="7.915623736743932"><ele>279.0</ele><time>2026-05-03T07:51:11.999Z</time></trkpt><trkpt lat="44.050773528547" lon="7.915594910764719"><ele>280.8</ele><time>2026-05-03T07:51:12.999Z</time></trkpt><trkpt lat="44.050882913614906" lon="7.915558120599091"><ele>282.59999999999997</ele><time>2026-05-03T07:51:13.999Z</time></trkpt><trkpt lat="44.050989552521116" lon="7.915512579158549"><ele>284.4</ele><time>2026-05-03T07:51:14.999Z</time></trkpt><trkpt lat="44.05109211629222" lon="7.915474094495913"><ele>286.2</ele><time>2026-05-03T07:51:15.999Z</time></trkpt><trkpt lat="44.051182166706916" lon="7.915440064136886"><ele>288.0</ele><time>2026-05-03T07:51:16.999Z</time></trkpt><trkpt lat="44.05126490020522" lon="7.915405931062708"><ele>288.0</ele><time>2026-05-03T07:51:17.999Z</time></trkpt><trkpt lat="44.05134623717331" lon="7.9153754023980385"><ele>288.0</ele><time>2026-05-03T07:51:18.999Z</time></trkpt><trkpt lat="44.05144795683298" lon="7.915327680466601"><ele>288.0</ele><time>2026-05-03T07:51:19.999Z</time></trkpt><trkpt lat="44.0515638935959" lon="7.915277233868869"><ele>288.0</ele><time>2026-05-03T07:51:20.999Z</time></trkpt><trkpt lat="44.0516814130543" lon="7.915220786686956"><ele>288.0</ele><time>2026-05-03T07:51:21.999Z</time></trkpt><trkpt lat="44.05180081750684" lon="7.9151755961519905"><ele>291.0</ele><time>2026-05-03T07:51:22.999Z</time></trkpt><trkpt lat="44.05192072099349" lon="7.915133051412545"><ele>294.0</ele><time>2026-05-03T07:51:23.999Z</time></trkpt><trkpt lat="44.05204488042216" lon="7.915083809483371"><ele>297.0</ele><time>2026-05-03T07:51:24.999Z</time></trkpt><trkpt lat="44.05216762690957" lon="7.915023373773549"><ele>300.0</ele><time>2026-05-03T07:51:25.999Z</time></trkpt><trkpt lat="44.0522732761678" lon="7.914973902070627"><ele>296.2</ele><time>2026-05-03T07:51:26.999Z</time></trkpt><trkpt lat="44.05237167089853" lon="7.914935959096027"><ele>292.4</ele><time>2026-05-03T07:51:27.999Z</time></trkpt><trkpt lat="44.052456244529345" lon="7.914906818264015"><ele>288.6</ele><time>2026-05-03T07:51:28.999Z</time></trkpt><trkpt lat="44.052540669132554" lon="7.914869241258869"><ele>284.8</ele><time>2026-05-03T07:51:29.999Z</time></trkpt><trkpt lat="44.05264740402064" lon="7.914833793038548"><ele>281.0</ele><time>2026-05-03T07:51:30.999Z</time></trkpt><trkpt lat="44.05275754025425" lon="7.914789946557428"><ele>281.0</ele><time>2026-05-03T07:51:31.999Z</time></trkpt><trkpt lat="44.05287168402984" lon="7.914721534889693"><ele>281.0</ele><time>2026-05-03T07:51:32.999Z</time></trkpt><trkpt lat="44.05298066906605" lon="7.914635613979776"><ele>281.0</ele><time>2026-05-03T07:51:33.999Z</time></trkpt><trkpt lat="44.05310180340611" lon="7.91459648021954"><ele>281.0</ele><time>2026-05-03T07:51:34.999Z</time></trkpt><trkpt lat="44.05322334519925" lon="7.91454247754189"><ele>284.5</ele><time>2026-05-03T07:51:35.999Z</time></trkpt><trkpt lat="44.05335252059196" lon="7.914515169586494"><ele>288.0</ele><time>2026-05-03T07:51:36.999Z</time></trkpt><trkpt lat="44.053468897406354" lon="7.9144942552930235"><ele>291.5</ele><time>2026-05-03T07:51:37.999Z</time></trkpt><trkpt lat="44.05357260523821" lon="7.914491289200595"><ele>295.0</ele><time>2026-05-03T07:51:38.999Z</time></trkpt><trkpt lat="44.053672978285825" lon="7.914507939640491"><ele>295.0</ele><time>2026-05-03T07:51:39.999Z</time></trkpt><trkpt lat="44.05374949672925" lon="7.9146324425142"><ele>295.0</ele><time>2026-05-03T07:51:40.998Z</time></trkpt><trkpt lat="44.053835339585476" lon="7.91473002709489"><ele>295.0</ele><time>2026-05-03T07:51:41.998Z</time></trkpt><trkpt lat="44.05392804014582" lon="7.914832117622659"><ele>295.0</ele><time>2026-05-03T07:51:42.998Z</time></trkpt><trkpt lat="44.05402417744425" lon="7.914938298719389"><ele>293.75</ele><time>2026-05-03T07:51:43.998Z</time></trkpt><trkpt lat="44.05412429553169" lon="7.915037068352613"><ele>292.5</ele><time>2026-05-03T07:51:44.998Z</time></trkpt><trkpt lat="44.0542321579142" lon="7.91512262477975"><ele>291.25</ele><time>2026-05-03T07:51:45.998Z</time></trkpt><trkpt lat="44.05435046138805" lon="7.915198889872822"><ele>290.0</ele><time>2026-05-03T07:51:46.998Z</time></trkpt><trkpt lat="44.0544728965086" lon="7.915257561926332"><ele>299.5</ele><time>2026-05-03T07:51:47.998Z</time></trkpt><trkpt lat="44.05459946827983" lon="7.915309791457141"><ele>309.0</ele><time>2026-05-03T07:51:48.998Z</time></trkpt><trkpt lat="44.05470342099133" lon="7.9153517078649145"><ele>318.5</ele><time>2026-05-03T07:51:49.998Z</time></trkpt><trkpt lat="44.054802952913775" lon="7.915384048003508"><ele>328.0</ele><time>2026-05-03T07:51:50.998Z</time></trkpt><trkpt lat="44.05492794014503" lon="7.915351390273921"><ele>325.5</ele><time>2026-05-03T07:51:51.998Z</time></trkpt><trkpt lat="44.055052177345026" lon="7.9153587505762095"><ele>323.0</ele><time>2026-05-03T07:51:52.998Z</time></trkpt><trkpt lat="44.05517078497528" lon="7.915340303664391"><ele>320.5</ele><time>2026-05-03T07:51:53.998Z</time></trkpt><trkpt lat="44.05530431524246" lon="7.915302865419533"><ele>318.0</ele><time>2026-05-03T07:51:54.998Z</time></trkpt><trkpt lat="44.05541866906279" lon="7.915213307434483"><ele>318.0</ele><time>2026-05-03T07:51:55.998Z</time></trkpt><trkpt lat="44.05553421819743" lon="7.915107230937935"><ele>318.0</ele><time>2026-05-03T07:51:56.998Z</time></trkpt><trkpt lat="44.05563581640545" lon="7.914999367108553"><ele>318.0</ele><time>2026-05-03T07:51:57.998Z</time></trkpt><trkpt lat="44.055727632192585" lon="7.914890117494786"><ele>318.0</ele><time>2026-05-03T07:51:58.998Z</time></trkpt><trkpt lat="44.05581242662972" lon="7.91476371858107"><ele>311.25</ele><time>2026-05-03T07:51:59.998Z</time></trkpt><trkpt lat="44.0559044906832" lon="7.914654531948698"><ele>304.5</ele><time>2026-05-03T07:52:00.998Z</time></trkpt><trkpt lat="44.05599380654825" lon="7.914550550102733"><ele>297.75</ele><time>2026-05-03T07:52:01.998Z</time></trkpt><trkpt lat="44.0560885565211" lon="7.914454344047299"><ele>291.0</ele><time>2026-05-03T07:52:02.998Z</time></trkpt><trkpt lat="44.05618125319381" lon="7.9143488781791875"><ele>291.0</ele><time>2026-05-03T07:52:03.998Z</time></trkpt><trkpt lat="44.05626501637648" lon="7.9142394713195605"><ele>291.0</ele><time>2026-05-03T07:52:04.998Z</time></trkpt><trkpt lat="44.056343712141185" lon="7.914151624625427"><ele>291.0</ele><time>2026-05-03T07:52:05.998Z</time></trkpt><trkpt lat="44.056418826894785" lon="7.914070074412283"><ele>291.0</ele><time>2026-05-03T07:52:06.998Z</time></trkpt><trkpt lat="44.0564758601557" lon="7.914018282992154"><ele>291.0</ele><time>2026-05-03T07:52:07.998Z</time></trkpt><trkpt lat="44.05656073598698" lon="7.913986162536766"><ele>290.0</ele><time>2026-05-03T07:52:08.998Z</time></trkpt><trkpt lat="44.05665461280254" lon="7.913968756863245"><ele>289.0</ele><time>2026-05-03T07:52:09.998Z</time></trkpt><trkpt lat="44.05674178887191" lon="7.914022052228259"><ele>288.0</ele><time>2026-05-03T07:52:10.998Z</time></trkpt><trkpt lat="44.05679874513613" lon="7.914081381934296"><ele>287.0</ele><time>2026-05-03T07:52:11.999Z</time></trkpt><trkpt lat="44.05687075583591" lon="7.9141527616565535"><ele>286.0</ele><time>2026-05-03T07:52:13Z</time></trkpt><trkpt lat="44.056951250143506" lon="7.914235842079683"><ele>286.0</ele><time>2026-05-03T07:52:14Z</time></trkpt><trkpt lat="44.05704793448501" lon="7.9143033725534275"><ele>286.0</ele><time>2026-05-03T07:52:15Z</time></trkpt><trkpt lat="44.05713719782333" lon="7.914347867557244"><ele>286.0</ele><time>2026-05-03T07:52:16Z</time></trkpt><trkpt lat="44.057227290237236" lon="7.914319715871159"><ele>286.0</ele><time>2026-05-03T07:52:17Z</time></trkpt><trkpt lat="44.057316139244406" lon="7.914233762354819"><ele>286.0</ele><time>2026-05-03T07:52:18Z</time></trkpt><trkpt lat="44.05740260667496" lon="7.914127431470154"><ele>286.6</ele><time>2026-05-03T07:52:19Z</time></trkpt><trkpt lat="44.05750006729792" lon="7.914044280199925"><ele>287.20000000000005</ele><time>2026-05-03T07:52:20Z</time></trkpt><trkpt lat="44.05759570483894" lon="7.913964533703853"><ele>287.79999999999995</ele><time>2026-05-03T07:52:21Z</time></trkpt><trkpt lat="44.05767616223848" lon="7.913905094883716"><ele>288.4</ele><time>2026-05-03T07:52:22Z</time></trkpt><trkpt lat="44.05776437556184" lon="7.913848375825573"><ele>289.0</ele><time>2026-05-03T07:52:23Z</time></trkpt><trkpt lat="44.05786364290249" lon="7.913776779177889"><ele>289.0</ele><time>2026-05-03T07:52:24Z</time></trkpt><trkpt lat="44.057964437827486" lon="7.913702650737704"><ele>289.0</ele><time>2026-05-03T07:52:25Z</time></trkpt><trkpt lat="44.05806640044872" lon="7.913627115952801"><ele>289.0</ele><time>2026-05-03T07:52:26Z</time></trkpt><trkpt lat="44.05816969056786" lon="7.913552552550224"><ele>289.0</ele><time>2026-05-03T07:52:27Z</time></trkpt><trkpt lat="44.05827073957642" lon="7.913482031085896"><ele>290.2</ele><time>2026-05-03T07:52:28Z</time></trkpt><trkpt lat="44.058369477515186" lon="7.913414589534386"><ele>291.4</ele><time>2026-05-03T07:52:29Z</time></trkpt><trkpt lat="44.05846566840893" lon="7.9133448370043435"><ele>292.6</ele><time>2026-05-03T07:52:30Z</time></trkpt><trkpt lat="44.05856301512221" lon="7.913271789111663"><ele>293.8</ele><time>2026-05-03T07:52:31Z</time></trkpt><trkpt lat="44.0586587993535" lon="7.91320874429202"><ele>295.0</ele><time>2026-05-03T07:52:32Z</time></trkpt><trkpt lat="44.05875364928391" lon="7.913145110035288"><ele>295.2</ele><time>2026-05-03T07:52:33Z</time></trkpt><trkpt lat="44.058844298292136" lon="7.913076261205085"><ele>295.4</ele><time>2026-05-03T07:52:34Z</time></trkpt><trkpt lat="44.05893930114001" lon="7.913006036064409"><ele>295.6</ele><time>2026-05-03T07:52:35Z</time></trkpt><trkpt lat="44.059034580113924" lon="7.9129391452046045"><ele>295.8</ele><time>2026-05-03T07:52:36Z</time></trkpt><trkpt lat="44.05912929525846" lon="7.91287332862489"><ele>296.0</ele><time>2026-05-03T07:52:37Z</time></trkpt><trkpt lat="44.05923146651934" lon="7.912819353488995"><ele>296.6</ele><time>2026-05-03T07:52:38Z</time></trkpt><trkpt lat="44.05933908658236" lon="7.9127766913118"><ele>297.20000000000005</ele><time>2026-05-03T07:52:39Z</time></trkpt><trkpt lat="44.059449407477494" lon="7.91274334799744"><ele>297.79999999999995</ele><time>2026-05-03T07:52:40Z</time></trkpt><trkpt lat="44.059558587230846" lon="7.912708947155974"><ele>298.4</ele><time>2026-05-03T07:52:41Z</time></trkpt><trkpt lat="44.05966719583045" lon="7.912667409776567"><ele>299.0</ele><time>2026-05-03T07:52:42Z</time></trkpt><trkpt lat="44.05977806746284" lon="7.912632169446642"><ele>299.0</ele><time>2026-05-03T07:52:43Z</time></trkpt><trkpt lat="44.05988554939428" lon="7.912593582072549"><ele>299.0</ele><time>2026-05-03T07:52:44Z</time></trkpt><trkpt lat="44.059995607981435" lon="7.91255538763865"><ele>299.0</ele><time>2026-05-03T07:52:45Z</time></trkpt><trkpt lat="44.06010384680175" lon="7.912521518841121"><ele>299.0</ele><time>2026-05-03T07:52:46Z</time></trkpt><trkpt lat="44.06020771932748" lon="7.91248025273672"><ele>299.0</ele><time>2026-05-03T07:52:47Z</time></trkpt><trkpt lat="44.06031955345375" lon="7.9124404374953"><ele>300.8</ele><time>2026-05-03T07:52:48Z</time></trkpt><trkpt lat="44.06042885445656" lon="7.912404318637961"><ele>302.59999999999997</ele><time>2026-05-03T07:52:49Z</time></trkpt><trkpt lat="44.06053101303724" lon="7.912370034062816"><ele>304.4</ele><time>2026-05-03T07:52:50Z</time></trkpt><trkpt lat="44.0606361750982" lon="7.912328433311154"><ele>306.2</ele><time>2026-05-03T07:52:51Z</time></trkpt><trkpt lat="44.06074192188291" lon="7.91229479550287"><ele>308.0</ele><time>2026-05-03T07:52:52Z</time></trkpt><trkpt lat="44.06084749567667" lon="7.912253396514737"><ele>308.0</ele><time>2026-05-03T07:52:53Z</time></trkpt><trkpt lat="44.060959239071586" lon="7.91221471016671"><ele>308.0</ele><time>2026-05-03T07:52:54Z</time></trkpt><trkpt lat="44.06107210238912" lon="7.912172704403277"><ele>308.0</ele><time>2026-05-03T07:52:55Z</time></trkpt><trkpt lat="44.06118908546852" lon="7.912128580192624"><ele>308.0</ele><time>2026-05-03T07:52:56Z</time></trkpt><trkpt lat="44.06130233775953" lon="7.912082733249841"><ele>308.0</ele><time>2026-05-03T07:52:57Z</time></trkpt><trkpt lat="44.06141576473608" lon="7.91206024909192"><ele>308.0</ele><time>2026-05-03T07:52:58Z</time></trkpt><trkpt lat="44.06153080797499" lon="7.912032564567541"><ele>308.0</ele><time>2026-05-03T07:52:59Z</time></trkpt><trkpt lat="44.0616444593826" lon="7.912012362078442"><ele>308.0</ele><time>2026-05-03T07:53:00Z</time></trkpt><trkpt lat="44.06175451740502" lon="7.9119813837254895"><ele>309.0</ele><time>2026-05-03T07:53:01Z</time></trkpt><trkpt lat="44.061867487034576" lon="7.911933011078583"><ele>310.0</ele><time>2026-05-03T07:53:02Z</time></trkpt><trkpt lat="44.06197436565434" lon="7.911863696615173"><ele>311.0</ele><time>2026-05-03T07:53:02.999Z</time></trkpt><trkpt lat="44.06207606922534" lon="7.911787497501118"><ele>312.0</ele><time>2026-05-03T07:53:03.999Z</time></trkpt><trkpt lat="44.062178955491916" lon="7.91173801292753"><ele>316.0</ele><time>2026-05-03T07:53:04.999Z</time></trkpt><trkpt lat="44.0622846189224" lon="7.911713744453736"><ele>320.0</ele><time>2026-05-03T07:53:05.999Z</time></trkpt><trkpt lat="44.06238837652838" lon="7.911698141098522"><ele>324.0</ele><time>2026-05-03T07:53:06.999Z</time></trkpt><trkpt lat="44.062487337668045" lon="7.911688245296858"><ele>328.0</ele><time>2026-05-03T07:53:07.999Z</time></trkpt><trkpt lat="44.06258578126899" lon="7.911636407296685"><ele>332.0</ele><time>2026-05-03T07:53:08.999Z</time></trkpt><trkpt lat="44.062673854544045" lon="7.911552308968231"><ele>332.0</ele><time>2026-05-03T07:53:09.999Z</time></trkpt><trkpt lat="44.06275958810995" lon="7.911470270783293"><ele>332.0</ele><time>2026-05-03T07:53:10.999Z</time></trkpt><trkpt lat="44.06285397517825" lon="7.9114471984290455"><ele>332.0</ele><time>2026-05-03T07:53:11.999Z</time></trkpt><trkpt lat="44.062933514770975" lon="7.911469946772434"><ele>332.0</ele><time>2026-05-03T07:53:12.999Z</time></trkpt><trkpt lat="44.06299920147032" lon="7.911535127618583"><ele>332.0</ele><time>2026-05-03T07:53:13.999Z</time></trkpt><trkpt lat="44.063045425188854" lon="7.911651783378386"><ele>331.40000000000003</ele><time>2026-05-03T07:53:14.999Z</time></trkpt><trkpt lat="44.063101903301934" lon="7.911766609021736"><ele>330.8</ele><time>2026-05-03T07:53:15.999Z</time></trkpt><trkpt lat="44.06318544354958" lon="7.911852802262001"><ele>330.2</ele><time>2026-05-03T07:53:16.999Z</time></trkpt><trkpt lat="44.063290126984064" lon="7.91193066881781"><ele>329.6</ele><time>2026-05-03T07:53:17.999Z</time></trkpt><trkpt lat="44.063385899492" lon="7.912026956825528"><ele>329.0</ele><time>2026-05-03T07:53:18.999Z</time></trkpt><trkpt lat="44.06348416993822" lon="7.912135517236818"><ele>329.0</ele><time>2026-05-03T07:53:19.999Z</time></trkpt><trkpt lat="44.063571553829696" lon="7.912256757546217"><ele>329.0</ele><time>2026-05-03T07:53:20.999Z</time></trkpt><trkpt lat="44.0636502183803" lon="7.912377990124882"><ele>329.0</ele><time>2026-05-03T07:53:21.999Z</time></trkpt><trkpt lat="44.06371952206253" lon="7.9124780901679985"><ele>329.0</ele><time>2026-05-03T07:53:22.999Z</time></trkpt><trkpt lat="44.06379895524277" lon="7.912556763038645"><ele>329.0</ele><time>2026-05-03T07:53:23.999Z</time></trkpt><trkpt lat="44.06389129266344" lon="7.912603201560049"><ele>332.75</ele><time>2026-05-03T07:53:24.999Z</time></trkpt><trkpt lat="44.06400044492677" lon="7.912604808048797"><ele>336.5</ele><time>2026-05-03T07:53:25.999Z</time></trkpt><trkpt lat="44.06412226655278" lon="7.912609993970995"><ele>340.25</ele><time>2026-05-03T07:53:26.999Z</time></trkpt><trkpt lat="44.064234964999656" lon="7.912604849543405"><ele>344.0</ele><time>2026-05-03T07:53:27.999Z</time></trkpt><trkpt lat="44.06436252954369" lon="7.912526713894118"><ele>344.0</ele><time>2026-05-03T07:53:28.999Z</time></trkpt><trkpt lat="44.064453707784175" lon="7.912480549349461"><ele>344.0</ele><time>2026-05-03T07:53:29.999Z</time></trkpt><trkpt lat="44.06456245201377" lon="7.912486703613953"><ele>344.0</ele><time>2026-05-03T07:53:30.999Z</time></trkpt><trkpt lat="44.06467089414077" lon="7.912488084189797"><ele>344.0</ele><time>2026-05-03T07:53:31.999Z</time></trkpt><trkpt lat="44.06479156032958" lon="7.912452501386529"><ele>344.0</ele><time>2026-05-03T07:53:32.999Z</time></trkpt><trkpt lat="44.064898400547996" lon="7.9124229040095875"><ele>346.4</ele><time>2026-05-03T07:53:33.999Z</time></trkpt><trkpt lat="44.06501446491418" lon="7.912404474747789"><ele>348.79999999999995</ele><time>2026-05-03T07:53:34.999Z</time></trkpt><trkpt lat="44.06512186687913" lon="7.912377115106011"><ele>351.20000000000005</ele><time>2026-05-03T07:53:35.999Z</time></trkpt><trkpt lat="44.06521581622708" lon="7.91235233773909"><ele>353.6</ele><time>2026-05-03T07:53:36.999Z</time></trkpt><trkpt lat="44.065314067570554" lon="7.912328410184499"><ele>356.0</ele><time>2026-05-03T07:53:37.999Z</time></trkpt><trkpt lat="44.06541176797541" lon="7.912298067974381"><ele>356.0</ele><time>2026-05-03T07:53:38.999Z</time></trkpt><trkpt lat="44.06550769234945" lon="7.912272572670672"><ele>356.0</ele><time>2026-05-03T07:53:39.999Z</time></trkpt><trkpt lat="44.06560363852211" lon="7.91225295803871"><ele>356.0</ele><time>2026-05-03T07:53:40.999Z</time></trkpt><trkpt lat="44.06570263453087" lon="7.912250879084001"><ele>356.0</ele><time>2026-05-03T07:53:41.999Z</time></trkpt><trkpt lat="44.06579630926034" lon="7.912287225763212"><ele>356.0</ele><time>2026-05-03T07:53:42.999Z</time></trkpt><trkpt lat="44.06589397568399" lon="7.912341565182886"><ele>356.0</ele><time>2026-05-03T07:53:43.999Z</time></trkpt><trkpt lat="44.06598806404076" lon="7.912396978235671"><ele>356.0</ele><time>2026-05-03T07:53:44.999Z</time></trkpt><trkpt lat="44.06608875072561" lon="7.9124407819002816"><ele>356.0</ele><time>2026-05-03T07:53:45.999Z</time></trkpt><trkpt lat="44.06619449524652" lon="7.912464343681099"><ele>356.0</ele><time>2026-05-03T07:53:46.999Z</time></trkpt><trkpt lat="44.06630343739207" lon="7.91247188851774"><ele>356.0</ele><time>2026-05-03T07:53:47.999Z</time></trkpt><trkpt lat="44.066412649067715" lon="7.912457399328711"><ele>356.0</ele><time>2026-05-03T07:53:48.999Z</time></trkpt><trkpt lat="44.06651716957865" lon="7.912424333181232"><ele>356.0</ele><time>2026-05-03T07:53:49.999Z</time></trkpt><trkpt lat="44.066624925144694" lon="7.912402622320565"><ele>356.0</ele><time>2026-05-03T07:53:50.999Z</time></trkpt><trkpt lat="44.06673427388197" lon="7.912388288566916"><ele>356.0</ele><time>2026-05-03T07:53:51.999Z</time></trkpt><trkpt lat="44.06685666698407" lon="7.912380458894346"><ele>356.0</ele><time>2026-05-03T07:53:52.999Z</time></trkpt><trkpt lat="44.06695430274374" lon="7.912377539388449"><ele>357.20000000000005</ele><time>2026-05-03T07:53:53.999Z</time></trkpt><trkpt lat="44.067037051134236" lon="7.91242691589978"><ele>358.40000000000003</ele><time>2026-05-03T07:53:54.999Z</time></trkpt><trkpt lat="44.067099223602874" lon="7.912508960656403"><ele>359.6</ele><time>2026-05-03T07:53:55.999Z</time></trkpt><trkpt lat="44.06718863334653" lon="7.912573351322222"><ele>360.8</ele><time>2026-05-03T07:53:56.999Z</time></trkpt><trkpt lat="44.06726082039895" lon="7.912662545018201"><ele>362.0</ele><time>2026-05-03T07:53:57.999Z</time></trkpt><trkpt lat="44.06732082580504" lon="7.912777018803789"><ele>362.0</ele><time>2026-05-03T07:53:58.999Z</time></trkpt><trkpt lat="44.06739721052755" lon="7.9128450558123005"><ele>362.0</ele><time>2026-05-03T07:53:59.999Z</time></trkpt><trkpt lat="44.06749478916244" lon="7.912885152003273"><ele>362.0</ele><time>2026-05-03T07:54:00.999Z</time></trkpt><trkpt lat="44.06762519741045" lon="7.912858829071844"><ele>362.0</ele><time>2026-05-03T07:54:01.999Z</time></trkpt><trkpt lat="44.06774219544761" lon="7.912840402926516"><ele>362.0</ele><time>2026-05-03T07:54:02.999Z</time></trkpt><trkpt lat="44.06786056622867" lon="7.912803594705717"><ele>362.25</ele><time>2026-05-03T07:54:03.999Z</time></trkpt><trkpt lat="44.068000352539585" lon="7.91274967797956"><ele>362.5</ele><time>2026-05-03T07:54:04.999Z</time></trkpt><trkpt lat="44.06812474550611" lon="7.912781090647571"><ele>362.75</ele><time>2026-05-03T07:54:05.999Z</time></trkpt><trkpt lat="44.068250305661486" lon="7.912782384156065"><ele>363.0</ele><time>2026-05-03T07:54:06.999Z</time></trkpt><trkpt lat="44.06836394308847" lon="7.912786288611586"><ele>364.25</ele><time>2026-05-03T07:54:07.999Z</time></trkpt><trkpt lat="44.068480121776524" lon="7.912791749420284"><ele>365.5</ele><time>2026-05-03T07:54:08.999Z</time></trkpt><trkpt lat="44.06859457262834" lon="7.912779925788626"><ele>366.75</ele><time>2026-05-03T07:54:09.999Z</time></trkpt><trkpt lat="44.06870278851829" lon="7.91277031055909"><ele>368.0</ele><time>2026-05-03T07:54:10.999Z</time></trkpt><trkpt lat="44.06881392145622" lon="7.912733660241571"><ele>368.0</ele><time>2026-05-03T07:54:11.999Z</time></trkpt><trkpt lat="44.068912737809775" lon="7.912693044517744"><ele>368.0</ele><time>2026-05-03T07:54:12.999Z</time></trkpt><trkpt lat="44.06900603879068" lon="7.912673338397329"><ele>368.0</ele><time>2026-05-03T07:54:13.999Z</time></trkpt><trkpt lat="44.069110091732746" lon="7.912674170911837"><ele>368.0</ele><time>2026-05-03T07:54:14.999Z</time></trkpt><trkpt lat="44.06919803880704" lon="7.912683072115702"><ele>368.0</ele><time>2026-05-03T07:54:15.999Z</time></trkpt><trkpt lat="44.06929563323772" lon="7.91268415348383"><ele>368.4</ele><time>2026-05-03T07:54:16.999Z</time></trkpt><trkpt lat="44.06939137053731" lon="7.9127033780732114"><ele>368.79999999999995</ele><time>2026-05-03T07:54:18Z</time></trkpt><trkpt lat="44.06949172206805" lon="7.912721903219042"><ele>369.2</ele><time>2026-05-03T07:54:19Z</time></trkpt><trkpt lat="44.0695845430869" lon="7.9127722983738"><ele>369.6</ele><time>2026-05-03T07:54:20Z</time></trkpt><trkpt lat="44.06964416815908" lon="7.912868965902082"><ele>370.0</ele><time>2026-05-03T07:54:21Z</time></trkpt><trkpt lat="44.06972321176408" lon="7.912955473064351"><ele>370.0</ele><time>2026-05-03T07:54:22Z</time></trkpt><trkpt lat="44.06981934062072" lon="7.913012158124597"><ele>370.0</ele><time>2026-05-03T07:54:23Z</time></trkpt><trkpt lat="44.069899133360835" lon="7.91310015212518"><ele>370.0</ele><time>2026-05-03T07:54:24Z</time></trkpt><trkpt lat="44.069957493021676" lon="7.9131979718195256"><ele>370.0</ele><time>2026-05-03T07:54:25Z</time></trkpt><trkpt lat="44.07001678068799" lon="7.913302892656036"><ele>370.0</ele><time>2026-05-03T07:54:26Z</time></trkpt><trkpt lat="44.070072383291006" lon="7.913400296776096"><ele>371.4</ele><time>2026-05-03T07:54:27Z</time></trkpt><trkpt lat="44.070150023320004" lon="7.913470103804698"><ele>372.8</ele><time>2026-05-03T07:54:28Z</time></trkpt><trkpt lat="44.07024152592633" lon="7.913536021336377"><ele>374.20000000000005</ele><time>2026-05-03T07:54:29Z</time></trkpt><trkpt lat="44.070331595101756" lon="7.9136027349387845"><ele>375.6</ele><time>2026-05-03T07:54:30Z</time></trkpt><trkpt lat="44.07042535066287" lon="7.913660652010085"><ele>377.0</ele><time>2026-05-03T07:54:31Z</time></trkpt><trkpt lat="44.070526899041724" lon="7.913691008280686"><ele>377.0</ele><time>2026-05-03T07:54:32Z</time></trkpt><trkpt lat="44.070637070027146" lon="7.913706460033279"><ele>377.0</ele><time>2026-05-03T07:54:33Z</time></trkpt><trkpt lat="44.07073904780224" lon="7.913730669325769"><ele>377.0</ele><time>2026-05-03T07:54:34Z</time></trkpt><trkpt lat="44.07085117206275" lon="7.913774718636033"><ele>377.0</ele><time>2026-05-03T07:54:35Z</time></trkpt><trkpt lat="44.07096019302645" lon="7.913819885954432"><ele>377.0</ele><time>2026-05-03T07:54:36Z</time></trkpt><trkpt lat="44.071068652831954" lon="7.913859592789165"><ele>379.8</ele><time>2026-05-03T07:54:37Z</time></trkpt><trkpt lat="44.07118143777822" lon="7.9138886259647565"><ele>382.6</ele><time>2026-05-03T07:54:38Z</time></trkpt><trkpt lat="44.07129894147301" lon="7.913913982901923"><ele>385.40000000000003</ele><time>2026-05-03T07:54:39Z</time></trkpt><trkpt lat="44.07140826926893" lon="7.913936041442151"><ele>388.20000000000005</ele><time>2026-05-03T07:54:40Z</time></trkpt><trkpt lat="44.07150881604997" lon="7.9139685378799305"><ele>391.0</ele><time>2026-05-03T07:54:41Z</time></trkpt><trkpt lat="44.07161842408946" lon="7.914007683850508"><ele>392.8</ele><time>2026-05-03T07:54:42Z</time></trkpt><trkpt lat="44.07171848626082" lon="7.914052729016951"><ele>394.6</ele><time>2026-05-03T07:54:43Z</time></trkpt><trkpt lat="44.07181541757271" lon="7.9140769392133095"><ele>396.4</ele><time>2026-05-03T07:54:44Z</time></trkpt><trkpt lat="44.07190881456419" lon="7.914114427409414"><ele>398.2</ele><time>2026-05-03T07:54:45Z</time></trkpt><trkpt lat="44.072010408930595" lon="7.914146366149288"><ele>400.0</ele><time>2026-05-03T07:54:46Z</time></trkpt><trkpt lat="44.072099843206296" lon="7.914174482053713"><ele>400.0</ele><time>2026-05-03T07:54:47Z</time></trkpt><trkpt lat="44.07222916251672" lon="7.913981359001056"><ele>400.0</ele><time>2026-05-03T07:54:48Z</time></trkpt><trkpt lat="44.07233240332783" lon="7.913964010461917"><ele>400.0</ele><time>2026-05-03T07:54:49Z</time></trkpt><trkpt lat="44.072439390667505" lon="7.91396631080442"><ele>400.0</ele><time>2026-05-03T07:54:50Z</time></trkpt><trkpt lat="44.072553451695" lon="7.9139562594728385"><ele>402.75</ele><time>2026-05-03T07:54:51Z</time></trkpt><trkpt lat="44.07266883842943" lon="7.913945086040095"><ele>405.5</ele><time>2026-05-03T07:54:52Z</time></trkpt><trkpt lat="44.07278332436916" lon="7.913967122744534"><ele>408.25</ele><time>2026-05-03T07:54:53Z</time></trkpt><trkpt lat="44.07289660371973" lon="7.914001641414132"><ele>411.0</ele><time>2026-05-03T07:54:54Z</time></trkpt><trkpt lat="44.073007911191326" lon="7.914047261551275"><ele>411.0</ele><time>2026-05-03T07:54:55Z</time></trkpt><trkpt lat="44.07312450131844" lon="7.914082143255088"><ele>411.0</ele><time>2026-05-03T07:54:56Z</time></trkpt><trkpt lat="44.07323605118329" lon="7.914124134474106"><ele>411.0</ele><time>2026-05-03T07:54:57Z</time></trkpt><trkpt lat="44.07333727737607" lon="7.9142003176991205"><ele>411.0</ele><time>2026-05-03T07:54:58Z</time></trkpt><trkpt lat="44.07341243594857" lon="7.914322352257399"><ele>410.6</ele><time>2026-05-03T07:54:59Z</time></trkpt><trkpt lat="44.073454560528766" lon="7.914461488377861"><ele>410.20000000000005</ele><time>2026-05-03T07:55:00Z</time></trkpt><trkpt lat="44.07347959036096" lon="7.9146014338129715"><ele>409.79999999999995</ele><time>2026-05-03T07:55:01Z</time></trkpt><trkpt lat="44.07350196196119" lon="7.91474098231366"><ele>409.4</ele><time>2026-05-03T07:55:02Z</time></trkpt><trkpt lat="44.073548776607936" lon="7.914861523311212"><ele>409.0</ele><time>2026-05-03T07:55:03Z</time></trkpt><trkpt lat="44.07363886039947" lon="7.914935219762269"><ele>409.0</ele><time>2026-05-03T07:55:04Z</time></trkpt><trkpt lat="44.073744106974196" lon="7.914976142362286"><ele>409.0</ele><time>2026-05-03T07:55:05Z</time></trkpt><trkpt lat="44.0738532968225" lon="7.915004839162939"><ele>409.0</ele><time>2026-05-03T07:55:06Z</time></trkpt><trkpt lat="44.07396370802817" lon="7.915040720186539"><ele>409.0</ele><time>2026-05-03T07:55:06.999Z</time></trkpt><trkpt lat="44.074059917156475" lon="7.91509722337169"><ele>409.0</ele><time>2026-05-03T07:55:07.999Z</time></trkpt><trkpt lat="44.074154590565904" lon="7.915155915368716"><ele>407.2</ele><time>2026-05-03T07:55:08.999Z</time></trkpt><trkpt lat="44.074249348639704" lon="7.91518274848607"><ele>405.4</ele><time>2026-05-03T07:55:09.999Z</time></trkpt><trkpt lat="44.07434972934514" lon="7.9151549478857985"><ele>403.6</ele><time>2026-05-03T07:55:10.999Z</time></trkpt><trkpt lat="44.07444269177221" lon="7.915089543064437"><ele>401.8</ele><time>2026-05-03T07:55:11.999Z</time></trkpt><trkpt lat="44.07453072522277" lon="7.915008373883015"><ele>400.0</ele><time>2026-05-03T07:55:12.999Z</time></trkpt><trkpt lat="44.0746115361433" lon="7.914910996897336"><ele>404.6</ele><time>2026-05-03T07:55:13.999Z</time></trkpt><trkpt lat="44.07469428843634" lon="7.914813289850462"><ele>409.2</ele><time>2026-05-03T07:55:14.999Z</time></trkpt><trkpt lat="44.07477286179476" lon="7.914703182034197"><ele>413.79999999999995</ele><time>2026-05-03T07:55:15.999Z</time></trkpt><trkpt lat="44.074854168092095" lon="7.91460515047983"><ele>418.4</ele><time>2026-05-03T07:55:16.999Z</time></trkpt><trkpt lat="44.07492877997289" lon="7.914514148849234"><ele>423.0</ele><time>2026-05-03T07:55:17.999Z</time></trkpt><trkpt lat="44.0750072490706" lon="7.914436911341255"><ele>423.0</ele><time>2026-05-03T07:55:18.999Z</time></trkpt><trkpt lat="44.07511135283159" lon="7.91441817132588"><ele>423.0</ele><time>2026-05-03T07:55:19.999Z</time></trkpt><trkpt lat="44.075228562022964" lon="7.914425628923194"><ele>423.0</ele><time>2026-05-03T07:55:20.999Z</time></trkpt><trkpt lat="44.07534117890765" lon="7.914388453000512"><ele>423.0</ele><time>2026-05-03T07:55:21.999Z</time></trkpt><trkpt lat="44.07544351186711" lon="7.914304486327788"><ele>427.0</ele><time>2026-05-03T07:55:22.999Z</time></trkpt><trkpt lat="44.07550517462001" lon="7.91417319078531"><ele>431.0</ele><time>2026-05-03T07:55:23.999Z</time></trkpt><trkpt lat="44.07558535458218" lon="7.914099769048818"><ele>434.99999999999994</ele><time>2026-05-03T07:55:24.999Z</time></trkpt><trkpt lat="44.075683398661475" lon="7.9140436197426824"><ele>439.0</ele><time>2026-05-03T07:55:25.999Z</time></trkpt><trkpt lat="44.07579235146695" lon="7.914012464246122"><ele>443.0</ele><time>2026-05-03T07:55:26.999Z</time></trkpt><trkpt lat="44.075899587874495" lon="7.913992884865856"><ele>443.0</ele><time>2026-05-03T07:55:27.999Z</time></trkpt><trkpt lat="44.076006790271535" lon="7.913990672437189"><ele>443.0</ele><time>2026-05-03T07:55:28.999Z</time></trkpt><trkpt lat="44.076117963736806" lon="7.913992509810143"><ele>443.0</ele><time>2026-05-03T07:55:29.999Z</time></trkpt><trkpt lat="44.07623901078617" lon="7.913973635311322"><ele>443.0</ele><time>2026-05-03T07:55:30.999Z</time></trkpt><trkpt lat="44.07635421615445" lon="7.9139498140906195"><ele>443.0</ele><time>2026-05-03T07:55:31.999Z</time></trkpt><trkpt lat="44.07647373029988" lon="7.913923473409853"><ele>443.0</ele><time>2026-05-03T07:55:32.999Z</time></trkpt><trkpt lat="44.07659198245654" lon="7.913880521635591"><ele>443.0</ele><time>2026-05-03T07:55:33.999Z</time></trkpt><trkpt lat="44.07671750247455" lon="7.913850907307856"><ele>443.0</ele><time>2026-05-03T07:55:34.999Z</time></trkpt><trkpt lat="44.07682573183022" lon="7.9138514100111506"><ele>442.79999999999995</ele><time>2026-05-03T07:55:35.999Z</time></trkpt><trkpt lat="44.076917159988795" lon="7.91384130511776"><ele>442.59999999999997</ele><time>2026-05-03T07:55:36.999Z</time></trkpt><trkpt lat="44.07700807703659" lon="7.913796409976757"><ele>442.40000000000003</ele><time>2026-05-03T07:55:37.999Z</time></trkpt><trkpt lat="44.07708636702652" lon="7.913699589593929"><ele>442.20000000000005</ele><time>2026-05-03T07:55:38.999Z</time></trkpt><trkpt lat="44.077151764161876" lon="7.913559066607988"><ele>442.0</ele><time>2026-05-03T07:55:39.999Z</time></trkpt><trkpt lat="44.077231212426085" lon="7.913439416110207"><ele>445.0</ele><time>2026-05-03T07:55:40.999Z</time></trkpt><trkpt lat="44.077289478690254" lon="7.9133348511743815"><ele>448.00000000000006</ele><time>2026-05-03T07:55:41.999Z</time></trkpt><trkpt lat="44.07734136856457" lon="7.913231361112706"><ele>451.00000000000006</ele><time>2026-05-03T07:55:42.999Z</time></trkpt><trkpt lat="44.07739316401628" lon="7.913106141217337"><ele>454.0</ele><time>2026-05-03T07:55:43.999Z</time></trkpt><trkpt lat="44.07744389037289" lon="7.912986970167414"><ele>457.0</ele><time>2026-05-03T07:55:44.999Z</time></trkpt><trkpt lat="44.07752004112916" lon="7.912900024860518"><ele>457.00000000000006</ele><time>2026-05-03T07:55:45.999Z</time></trkpt><trkpt lat="44.077593524349645" lon="7.912826548134097"><ele>457.0</ele><time>2026-05-03T07:55:46.999Z</time></trkpt><trkpt lat="44.07767010212322" lon="7.912770763660849"><ele>457.0</ele><time>2026-05-03T07:55:47.999Z</time></trkpt><trkpt lat="44.077752718579156" lon="7.912742372828007"><ele>457.0</ele><time>2026-05-03T07:55:48.999Z</time></trkpt><trkpt lat="44.07783484597942" lon="7.912751930334571"><ele>457.00000000000006</ele><time>2026-05-03T07:55:49.999Z</time></trkpt><trkpt lat="44.077908341725596" lon="7.91276751152309"><ele>457.0</ele><time>2026-05-03T07:55:50.999Z</time></trkpt><trkpt lat="44.077982630053285" lon="7.912781992585367"><ele>457.0</ele><time>2026-05-03T07:55:51.999Z</time></trkpt><trkpt lat="44.078066868670554" lon="7.91279576220364"><ele>457.00000000000006</ele><time>2026-05-03T07:55:52.999Z</time></trkpt><trkpt lat="44.078130769854326" lon="7.9128376987954905"><ele>457.00000000000006</ele><time>2026-05-03T07:55:53.999Z</time></trkpt><trkpt lat="44.078202574242106" lon="7.912981973342626"><ele>457.0</ele><time>2026-05-03T07:55:55.999Z</time></trkpt><trkpt lat="44.07819463766147" lon="7.913100363867911"><ele>457.0</ele><time>2026-05-03T07:55:56.999Z</time></trkpt><trkpt lat="44.07816719696157" lon="7.913239224082357"><ele>457.0</ele><time>2026-05-03T07:55:57.999Z</time></trkpt><trkpt lat="44.07813934500421" lon="7.91338005500402"><ele>457.0</ele><time>2026-05-03T07:55:58.999Z</time></trkpt><trkpt lat="44.07810425202254" lon="7.913524626802215"><ele>457.0</ele><time>2026-05-03T07:55:59.999Z</time></trkpt><trkpt lat="44.078088486299656" lon="7.913681912339768"><ele>457.0</ele><time>2026-05-03T07:56:00.999Z</time></trkpt><trkpt lat="44.07813205362349" lon="7.913852258120974"><ele>458.5</ele><time>2026-05-03T07:56:01.999Z</time></trkpt><trkpt lat="44.07822843256148" lon="7.913988834030966"><ele>460.0</ele><time>2026-05-03T07:56:02.999Z</time></trkpt><trkpt lat="44.078347815277056" lon="7.914063154139644"><ele>461.5</ele><time>2026-05-03T07:56:03.999Z</time></trkpt><trkpt lat="44.07846876724789" lon="7.914104545679079"><ele>463.0</ele><time>2026-05-03T07:56:04.999Z</time></trkpt><trkpt lat="44.07858108946294" lon="7.914132954505267"><ele>463.0</ele><time>2026-05-03T07:56:05.999Z</time></trkpt><trkpt lat="44.07867248968027" lon="7.914159072580356"><ele>462.99999999999994</ele><time>2026-05-03T07:56:06.999Z</time></trkpt><trkpt lat="44.078769977162665" lon="7.914178343381191"><ele>462.99999999999994</ele><time>2026-05-03T07:56:07.999Z</time></trkpt><trkpt lat="44.078882074687236" lon="7.914168847175706"><ele>463.0</ele><time>2026-05-03T07:56:08.999Z</time></trkpt><trkpt lat="44.079002698352106" lon="7.914144278972955"><ele>463.0</ele><time>2026-05-03T07:56:09.999Z</time></trkpt><trkpt lat="44.079120090682785" lon="7.914115576014322"><ele>466.5</ele><time>2026-05-03T07:56:10.999Z</time></trkpt><trkpt lat="44.079240046899386" lon="7.914101436697203"><ele>470.0</ele><time>2026-05-03T07:56:11.999Z</time></trkpt><trkpt lat="44.0793522645296" lon="7.914081113718217"><ele>473.5</ele><time>2026-05-03T07:56:12.999Z</time></trkpt><trkpt lat="44.07946627268479" lon="7.914046914633561"><ele>477.0</ele><time>2026-05-03T07:56:13.999Z</time></trkpt><trkpt lat="44.07957544310624" lon="7.914015976319609"><ele>477.0</ele><time>2026-05-03T07:56:14.999Z</time></trkpt><trkpt lat="44.07965568119225" lon="7.913989146271963"><ele>477.0</ele><time>2026-05-03T07:56:15.999Z</time></trkpt><trkpt lat="44.07974982028339" lon="7.913948815051892"><ele>477.0</ele><time>2026-05-03T07:56:16.999Z</time></trkpt><trkpt lat="44.0798356686826" lon="7.913920799622058"><ele>477.0</ele><time>2026-05-03T07:56:17.999Z</time></trkpt><trkpt lat="44.079906405804415" lon="7.91387284583514"><ele>477.0</ele><time>2026-05-03T07:56:18.999Z</time></trkpt><trkpt lat="44.07997257066592" lon="7.913823903322224"><ele>477.0</ele><time>2026-05-03T07:56:19.999Z</time></trkpt><trkpt lat="44.08002475628895" lon="7.913760289647932"><ele>477.0</ele><time>2026-05-03T07:56:20.999Z</time></trkpt><trkpt lat="44.08008480346327" lon="7.913705012483194"><ele>477.0</ele><time>2026-05-03T07:56:21.999Z</time></trkpt><trkpt lat="44.08015817889972" lon="7.913599833817002"><ele>477.0</ele><time>2026-05-03T07:56:24Z</time></trkpt><trkpt lat="44.08009219963153" lon="7.913496247319107"><ele>477.0</ele><time>2026-05-03T07:56:26Z</time></trkpt><trkpt lat="44.08002507848762" lon="7.913527546718518"><ele>477.0</ele><time>2026-05-03T07:56:27Z</time></trkpt><trkpt lat="44.079970201899265" lon="7.913604662966676"><ele>477.0</ele><time>2026-05-03T07:56:28Z</time></trkpt><trkpt lat="44.07991993181801" lon="7.913682248417792"><ele>477.0</ele><time>2026-05-03T07:56:29Z</time></trkpt><trkpt lat="44.079819948717336" lon="7.913730968489222"><ele>477.00000000000006</ele><time>2026-05-03T07:56:30Z</time></trkpt><trkpt lat="44.079733491605516" lon="7.91372529604586"><ele>477.00000000000006</ele><time>2026-05-03T07:56:31Z</time></trkpt><trkpt lat="44.079653417640515" lon="7.9136621280132475"><ele>477.0</ele><time>2026-05-03T07:56:32Z</time></trkpt><trkpt lat="44.0795707388966" lon="7.913646147243027"><ele>477.0</ele><time>2026-05-03T07:56:33Z</time></trkpt><trkpt lat="44.07947884126562" lon="7.913634101068935"><ele>477.0</ele><time>2026-05-03T07:56:34Z</time></trkpt><trkpt lat="44.07938966791109" lon="7.913650571218039"><ele>477.0</ele><time>2026-05-03T07:56:35Z</time></trkpt><trkpt lat="44.07929648632946" lon="7.9136651331739865"><ele>477.0</ele><time>2026-05-03T07:56:36Z</time></trkpt><trkpt lat="44.079196150985496" lon="7.913694712250499"><ele>477.0</ele><time>2026-05-03T07:56:37Z</time></trkpt><trkpt lat="44.07911312862409" lon="7.9137149725209355"><ele>477.0</ele><time>2026-05-03T07:56:38Z</time></trkpt><trkpt lat="44.07904728367748" lon="7.913721362561723"><ele>477.0</ele><time>2026-05-03T07:56:39Z</time></trkpt><trkpt lat="44.07899620976574" lon="7.91360408633368"><ele>477.0</ele><time>2026-05-03T07:56:42Z</time></trkpt><trkpt lat="44.079080003034285" lon="7.913517644059276"><ele>477.0</ele><time>2026-05-03T07:56:44Z</time></trkpt><trkpt lat="44.079144508209964" lon="7.913524076788226"><ele>477.0</ele><time>2026-05-03T07:56:45Z</time></trkpt><trkpt lat="44.07922171474134" lon="7.913506616522173"><ele>477.0</ele><time>2026-05-03T07:56:46Z</time></trkpt><trkpt lat="44.07930982405111" lon="7.913466419173527"><ele>477.0</ele><time>2026-05-03T07:56:47Z</time></trkpt><trkpt lat="44.07939727227595" lon="7.913419792922852"><ele>477.0</ele><time>2026-05-03T07:56:48Z</time></trkpt><trkpt lat="44.0794569172037" lon="7.913372414513768"><ele>480.5</ele><time>2026-05-03T07:56:49Z</time></trkpt><trkpt lat="44.079509006512836" lon="7.913317508739476"><ele>484.0</ele><time>2026-05-03T07:56:50Z</time></trkpt><trkpt lat="44.07958610183854" lon="7.913272998005155"><ele>487.5</ele><time>2026-05-03T07:56:51Z</time></trkpt><trkpt lat="44.079654384633145" lon="7.913162118302914"><ele>491.0</ele><time>2026-05-03T07:56:53Z</time></trkpt><trkpt lat="44.079605952540085" lon="7.913035167101109"><ele>494.5</ele><time>2026-05-03T07:56:55Z</time></trkpt><trkpt lat="44.07953866893525" lon="7.913030767070002"><ele>498.0</ele><time>2026-05-03T07:56:56Z</time></trkpt><trkpt lat="44.0794457535218" lon="7.913099114373699"><ele>498.0</ele><time>2026-05-03T07:56:57Z</time></trkpt><trkpt lat="44.079369829768666" lon="7.91318840270871"><ele>497.99999999999994</ele><time>2026-05-03T07:56:58Z</time></trkpt><trkpt lat="44.07929065348289" lon="7.913230789819642"><ele>497.99999999999994</ele><time>2026-05-03T07:56:59Z</time></trkpt><trkpt lat="44.07914068896672" lon="7.913192692127839"><ele>498.0</ele><time>2026-05-03T07:57:01Z</time></trkpt><trkpt lat="44.07905771981866" lon="7.913138457820311"><ele>498.0</ele><time>2026-05-03T07:57:02Z</time></trkpt><trkpt lat="44.07899548369745" lon="7.913023176931285"><ele>495.0</ele><time>2026-05-03T07:57:03Z</time></trkpt><trkpt lat="44.07897294901707" lon="7.912887855223958"><ele>491.99999999999994</ele><time>2026-05-03T07:57:04Z</time></trkpt><trkpt lat="44.07896980176311" lon="7.91274170578853"><ele>488.99999999999994</ele><time>2026-05-03T07:57:05Z</time></trkpt><trkpt lat="44.07893959337661" lon="7.912601578191772"><ele>486.0</ele><time>2026-05-03T07:57:06Z</time></trkpt><trkpt lat="44.07891185834271" lon="7.9124591830912046"><ele>483.0</ele><time>2026-05-03T07:57:07Z</time></trkpt><trkpt lat="44.078882664738856" lon="7.912313177301585"><ele>483.0</ele><time>2026-05-03T07:57:08Z</time></trkpt><trkpt lat="44.07885518670245" lon="7.912171185107211"><ele>482.99999999999994</ele><time>2026-05-03T07:57:09Z</time></trkpt><trkpt lat="44.078828447317576" lon="7.91203137428781"><ele>482.99999999999994</ele><time>2026-05-03T07:57:10Z</time></trkpt><trkpt lat="44.07880843425566" lon="7.911895703712644"><ele>483.0</ele><time>2026-05-03T07:57:11Z</time></trkpt><trkpt lat="44.078794899639966" lon="7.911772241185482"><ele>483.0</ele><time>2026-05-03T07:57:12Z</time></trkpt><trkpt lat="44.078797184212426" lon="7.911644095071458"><ele>486.59999999999997</ele><time>2026-05-03T07:57:13Z</time></trkpt><trkpt lat="44.07883000508423" lon="7.9115318283035885"><ele>490.19999999999993</ele><time>2026-05-03T07:57:13.999Z</time></trkpt><trkpt lat="44.07886713297055" lon="7.911437934200913"><ele>493.8</ele><time>2026-05-03T07:57:14.999Z</time></trkpt><trkpt lat="44.07884223010242" lon="7.911258997725635"><ele>497.4</ele><time>2026-05-03T07:57:16.999Z</time></trkpt><trkpt lat="44.078778713284535" lon="7.911174649061059"><ele>501.0</ele><time>2026-05-03T07:57:17.999Z</time></trkpt><trkpt lat="44.078697262909905" lon="7.911094443875055"><ele>501.0</ele><time>2026-05-03T07:57:18.999Z</time></trkpt><trkpt lat="44.078573012935955" lon="7.911090212624685"><ele>501.0</ele><time>2026-05-03T07:57:19.999Z</time></trkpt><trkpt lat="44.078438188287116" lon="7.911104269443033"><ele>501.0</ele><time>2026-05-03T07:57:20.999Z</time></trkpt><trkpt lat="44.07831626416231" lon="7.911135310200241"><ele>501.0</ele><time>2026-05-03T07:57:21.999Z</time></trkpt><trkpt lat="44.07820752483015" lon="7.911182741806368"><ele>501.20000000000005</ele><time>2026-05-03T07:57:22.999Z</time></trkpt><trkpt lat="44.078104415043654" lon="7.911227050997991"><ele>501.40000000000003</ele><time>2026-05-03T07:57:23.999Z</time></trkpt><trkpt lat="44.078008421683066" lon="7.9112619597759215"><ele>501.6</ele><time>2026-05-03T07:57:24.999Z</time></trkpt><trkpt lat="44.07792542394912" lon="7.911287300074117"><ele>501.8</ele><time>2026-05-03T07:57:25.999Z</time></trkpt><trkpt lat="44.0778344268746" lon="7.911302449046255"><ele>502.0</ele><time>2026-05-03T07:57:26.999Z</time></trkpt><trkpt lat="44.077737336046404" lon="7.911308684324437"><ele>502.0</ele><time>2026-05-03T07:57:27.999Z</time></trkpt><trkpt lat="44.0776350826833" lon="7.911303486281472"><ele>502.00000000000006</ele><time>2026-05-03T07:57:28.999Z</time></trkpt><trkpt lat="44.07752894067113" lon="7.911292578488816"><ele>502.00000000000006</ele><time>2026-05-03T07:57:29.999Z</time></trkpt><trkpt lat="44.07741622201472" lon="7.91128033700276"><ele>502.0</ele><time>2026-05-03T07:57:30.999Z</time></trkpt><trkpt lat="44.07730055599364" lon="7.911265228728902"><ele>502.0</ele><time>2026-05-03T07:57:31.999Z</time></trkpt><trkpt lat="44.077186648792434" lon="7.911239053824257"><ele>504.0</ele><time>2026-05-03T07:57:32.999Z</time></trkpt><trkpt lat="44.07707911865578" lon="7.911196049835926"><ele>506.00000000000006</ele><time>2026-05-03T07:57:33.999Z</time></trkpt><trkpt lat="44.07698127380381" lon="7.911144160538209"><ele>508.00000000000006</ele><time>2026-05-03T07:57:34.999Z</time></trkpt><trkpt lat="44.07688422505996" lon="7.911102363220635"><ele>510.0</ele><time>2026-05-03T07:57:35.999Z</time></trkpt><trkpt lat="44.07679855272415" lon="7.911113180541954"><ele>512.0</ele><time>2026-05-03T07:57:36.999Z</time></trkpt><trkpt lat="44.07672094372546" lon="7.911215727726781"><ele>512.0</ele><time>2026-05-03T07:57:37.999Z</time></trkpt><trkpt lat="44.07662381990927" lon="7.911279177605232"><ele>512.0</ele><time>2026-05-03T07:57:38.999Z</time></trkpt><trkpt lat="44.07652197638087" lon="7.911327790552678"><ele>512.0</ele><time>2026-05-03T07:57:39.999Z</time></trkpt><trkpt lat="44.0764280439296" lon="7.911370070665098"><ele>512.0</ele><time>2026-05-03T07:57:40.999Z</time></trkpt><trkpt lat="44.07635528158125" lon="7.911401147090936"><ele>512.0</ele><time>2026-05-03T07:57:41.999Z</time></trkpt><trkpt lat="44.07623635006864" lon="7.911434510866923"><ele>515.8000000000001</ele><time>2026-05-03T07:57:43.999Z</time></trkpt><trkpt lat="44.07615053271486" lon="7.911327889451322"><ele>519.6</ele><time>2026-05-03T07:57:45.999Z</time></trkpt><trkpt lat="44.076144619975004" lon="7.911236494804947"><ele>523.4000000000001</ele><time>2026-05-03T07:57:46.999Z</time></trkpt><trkpt lat="44.07616732883535" lon="7.9111434743704505"><ele>527.2</ele><time>2026-05-03T07:57:47.999Z</time></trkpt><trkpt lat="44.07624357823257" lon="7.911070827383036"><ele>531.0</ele><time>2026-05-03T07:57:48.999Z</time></trkpt><trkpt lat="44.076343232265046" lon="7.911021721815515"><ele>531.0</ele><time>2026-05-03T07:57:49.999Z</time></trkpt><trkpt lat="44.0764596500973" lon="7.910952711633838"><ele>531.0</ele><time>2026-05-03T07:57:50.999Z</time></trkpt><trkpt lat="44.07656529712604" lon="7.910875583360119"><ele>531.0</ele><time>2026-05-03T07:57:51.999Z</time></trkpt><trkpt lat="44.076642484582884" lon="7.910753623702703"><ele>531.0</ele><time>2026-05-03T07:57:52.999Z</time></trkpt><trkpt lat="44.07669493643633" lon="7.910641203219399"><ele>532.0</ele><time>2026-05-03T07:57:53.999Z</time></trkpt><trkpt lat="44.07675140156099" lon="7.910563771554713"><ele>533.0</ele><time>2026-05-03T07:57:54.999Z</time></trkpt><trkpt lat="44.076838382648944" lon="7.910532820882615"><ele>534.0</ele><time>2026-05-03T07:57:55.999Z</time></trkpt><trkpt lat="44.0769431623442" lon="7.910548905468009"><ele>535.0</ele><time>2026-05-03T07:57:56.999Z</time></trkpt><trkpt lat="44.07704409043466" lon="7.910559341633171"><ele>536.0</ele><time>2026-05-03T07:57:57.999Z</time></trkpt><trkpt lat="44.07713409012807" lon="7.910543368328107"><ele>536.0</ele><time>2026-05-03T07:57:58.999Z</time></trkpt><trkpt lat="44.07723581024386" lon="7.910547828836892"><ele>536.0</ele><time>2026-05-03T07:57:59.999Z</time></trkpt><trkpt lat="44.0773499408987" lon="7.910550935655298"><ele>536.0</ele><time>2026-05-03T07:58:00.999Z</time></trkpt><trkpt lat="44.077463673701125" lon="7.910553684465227"><ele>536.0</ele><time>2026-05-03T07:58:01.999Z</time></trkpt><trkpt lat="44.07757664795523" lon="7.910558174687138"><ele>536.0</ele><time>2026-05-03T07:58:02.999Z</time></trkpt><trkpt lat="44.077684261416486" lon="7.910569279126935"><ele>535.25</ele><time>2026-05-03T07:58:03.999Z</time></trkpt><trkpt lat="44.077797799108716" lon="7.910578361642607"><ele>534.5</ele><time>2026-05-03T07:58:04.999Z</time></trkpt><trkpt lat="44.07791896045628" lon="7.910561301906408"><ele>533.75</ele><time>2026-05-03T07:58:05.999Z</time></trkpt><trkpt lat="44.07804357574143" lon="7.910529263924571"><ele>533.0</ele><time>2026-05-03T07:58:06.999Z</time></trkpt><trkpt lat="44.078174467011294" lon="7.910507025574405"><ele>532.8</ele><time>2026-05-03T07:58:07.999Z</time></trkpt><trkpt lat="44.0782885518294" lon="7.910451032605967"><ele>532.5999999999999</ele><time>2026-05-03T07:58:08.999Z</time></trkpt><trkpt lat="44.07838650047986" lon="7.9103968696627645"><ele>532.4000000000001</ele><time>2026-05-03T07:58:09.999Z</time></trkpt><trkpt lat="44.07846061536369" lon="7.910365122607991"><ele>532.2</ele><time>2026-05-03T07:58:10.999Z</time></trkpt><trkpt lat="44.07854488389287" lon="7.910327998624545"><ele>532.0</ele><time>2026-05-03T07:58:11.999Z</time></trkpt><trkpt lat="44.078605941775265" lon="7.91024859104801"><ele>532.0</ele><time>2026-05-03T07:58:12.999Z</time></trkpt><trkpt lat="44.07864756433242" lon="7.910141095758825"><ele>532.0</ele><time>2026-05-03T07:58:13.999Z</time></trkpt><trkpt lat="44.078640758556936" lon="7.909989657421688"><ele>532.0</ele><time>2026-05-03T07:58:14.999Z</time></trkpt><trkpt lat="44.07864493265494" lon="7.909832136620222"><ele>532.0</ele><time>2026-05-03T07:58:15.999Z</time></trkpt><trkpt lat="44.07868484820014" lon="7.909698169998335"><ele>532.0</ele><time>2026-05-03T07:58:16.999Z</time></trkpt><trkpt lat="44.07875203843456" lon="7.909582619303202"><ele>538.4</ele><time>2026-05-03T07:58:17.999Z</time></trkpt><trkpt lat="44.07883772918092" lon="7.909483697086728"><ele>544.8000000000001</ele><time>2026-05-03T07:58:18.999Z</time></trkpt><trkpt lat="44.078928712480405" lon="7.90939496804107"><ele>551.2</ele><time>2026-05-03T07:58:19.999Z</time></trkpt><trkpt lat="44.07900379293785" lon="7.909300810431482"><ele>557.6</ele><time>2026-05-03T07:58:20.999Z</time></trkpt><trkpt lat="44.079059713138236" lon="7.909196752580754"><ele>564.0</ele><time>2026-05-03T07:58:21.999Z</time></trkpt><trkpt lat="44.07910646568019" lon="7.909117635268867"><ele>564.2</ele><time>2026-05-03T07:58:22.999Z</time></trkpt><trkpt lat="44.079205562402315" lon="7.909036770957845"><ele>564.4</ele><time>2026-05-03T07:58:24.999Z</time></trkpt><trkpt lat="44.0792752016333" lon="7.909035796114377"><ele>564.6</ele><time>2026-05-03T07:58:25.999Z</time></trkpt><trkpt lat="44.079343255391734" lon="7.9090518368211855"><ele>564.8</ele><time>2026-05-03T07:58:26.999Z</time></trkpt><trkpt lat="44.079389789214154" lon="7.909160912270044"><ele>565.0</ele><time>2026-05-03T07:58:27.999Z</time></trkpt><trkpt lat="44.07935049914958" lon="7.9093113259795"><ele>562.6666666666667</ele><time>2026-05-03T07:58:28.999Z</time></trkpt><trkpt lat="44.079335197692515" lon="7.909421856914905"><ele>560.3333333333334</ele><time>2026-05-03T07:58:30Z</time></trkpt><trkpt lat="44.07934303984184" lon="7.909537920520586"><ele>558.0</ele><time>2026-05-03T07:58:31Z</time></trkpt><trkpt lat="44.07938956888307" lon="7.9096216489647"><ele>555.6666666666666</ele><time>2026-05-03T07:58:32Z</time></trkpt><trkpt lat="44.079486785540276" lon="7.909645765822809"><ele>553.3333333333333</ele><time>2026-05-03T07:58:33Z</time></trkpt><trkpt lat="44.079584942817476" lon="7.909703312302395"><ele>551.0</ele><time>2026-05-03T07:58:34Z</time></trkpt><trkpt lat="44.07968406028287" lon="7.909745325927747"><ele>551.0</ele><time>2026-05-03T07:58:35Z</time></trkpt><trkpt lat="44.079764262810066" lon="7.909783117280254"><ele>551.0</ele><time>2026-05-03T07:58:36Z</time></trkpt><trkpt lat="44.079847185858355" lon="7.909789559344106"><ele>551.0</ele><time>2026-05-03T07:58:37Z</time></trkpt><trkpt lat="44.079938656466325" lon="7.909747527435445"><ele>551.0</ele><time>2026-05-03T07:58:38Z</time></trkpt><trkpt lat="44.0800205409323" lon="7.909669190531977"><ele>551.0</ele><time>2026-05-03T07:58:39Z</time></trkpt><trkpt lat="44.08010398293046" lon="7.909575050200362"><ele>552.2</ele><time>2026-05-03T07:58:40Z</time></trkpt><trkpt lat="44.0801832971205" lon="7.909489290504625"><ele>553.4000000000001</ele><time>2026-05-03T07:58:41Z</time></trkpt><trkpt lat="44.080264891333755" lon="7.909414483433594"><ele>554.6</ele><time>2026-05-03T07:58:42Z</time></trkpt><trkpt lat="44.08034307696586" lon="7.909342427267522"><ele>555.8000000000001</ele><time>2026-05-03T07:58:43Z</time></trkpt><trkpt lat="44.08042040213805" lon="7.909267266111622"><ele>557.0</ele><time>2026-05-03T07:58:44Z</time></trkpt><trkpt lat="44.08049600317239" lon="7.909194264701033"><ele>559.0</ele><time>2026-05-03T07:58:45Z</time></trkpt><trkpt lat="44.08056367895872" lon="7.909133823014793"><ele>561.0</ele><time>2026-05-03T07:58:46Z</time></trkpt><trkpt lat="44.08068582374244" lon="7.909068358341387"><ele>563.0</ele><time>2026-05-03T07:58:48Z</time></trkpt><trkpt lat="44.08076055278216" lon="7.909072336593769"><ele>565.0</ele><time>2026-05-03T07:58:49Z</time></trkpt><trkpt lat="44.08083505135342" lon="7.909090069206892"><ele>567.0</ele><time>2026-05-03T07:58:50Z</time></trkpt><trkpt lat="44.08089786045187" lon="7.909104971947193"><ele>569.0</ele><time>2026-05-03T07:58:51Z</time></trkpt><trkpt lat="44.080989558652426" lon="7.90901393037647"><ele>569.0</ele><time>2026-05-03T07:58:53Z</time></trkpt><trkpt lat="44.08099790616703" lon="7.908915657583228"><ele>569.0</ele><time>2026-05-03T07:58:54Z</time></trkpt><trkpt lat="44.08089607202981" lon="7.908774615150086"><ele>569.0</ele><time>2026-05-03T07:58:56Z</time></trkpt><trkpt lat="44.080802033229034" lon="7.908750801541237"><ele>569.0</ele><time>2026-05-03T07:58:57Z</time></trkpt><trkpt lat="44.08071490413972" lon="7.908712512608656"><ele>569.0</ele><time>2026-05-03T07:58:58Z</time></trkpt><trkpt lat="44.080608583571156" lon="7.908666544384183"><ele>569.0</ele><time>2026-05-03T07:58:59Z</time></trkpt><trkpt lat="44.08051210138922" lon="7.908626301751328"><ele>569.0</ele><time>2026-05-03T07:59:00Z</time></trkpt><trkpt lat="44.08041381367897" lon="7.908589457782166"><ele>569.0</ele><time>2026-05-03T07:59:01Z</time></trkpt><trkpt lat="44.08031837491312" lon="7.908553794303436"><ele>569.0</ele><time>2026-05-03T07:59:02Z</time></trkpt><trkpt lat="44.080223666377016" lon="7.908520717593163"><ele>569.0</ele><time>2026-05-03T07:59:03Z</time></trkpt><trkpt lat="44.08013343450278" lon="7.9084897148398605"><ele>569.0</ele><time>2026-05-03T07:59:04Z</time></trkpt><trkpt lat="44.08004522468738" lon="7.908473519782167"><ele>569.0</ele><time>2026-05-03T07:59:05Z</time></trkpt><trkpt lat="44.07996189967248" lon="7.908462112195192"><ele>569.0</ele><time>2026-05-03T07:59:06Z</time></trkpt><trkpt lat="44.07986483232184" lon="7.9084027957150385"><ele>569.0</ele><time>2026-05-03T07:59:08Z</time></trkpt><trkpt lat="44.07984292031167" lon="7.908287768000493"><ele>569.0</ele><time>2026-05-03T07:59:10Z</time></trkpt><trkpt lat="44.07991664068659" lon="7.908213669620624"><ele>573.4</ele><time>2026-05-03T07:59:12Z</time></trkpt><trkpt lat="44.08000856461087" lon="7.908241382100839"><ele>577.8</ele><time>2026-05-03T07:59:13Z</time></trkpt><trkpt lat="44.08010887996278" lon="7.908238128530906"><ele>582.2</ele><time>2026-05-03T07:59:14Z</time></trkpt><trkpt lat="44.08020360300685" lon="7.908235581049538"><ele>586.6</ele><time>2026-05-03T07:59:15Z</time></trkpt><trkpt lat="44.080301708211195" lon="7.908229047553157"><ele>591.0</ele><time>2026-05-03T07:59:16Z</time></trkpt><trkpt lat="44.08038523764358" lon="7.908214170838576"><ele>591.0</ele><time>2026-05-03T07:59:17Z</time></trkpt><trkpt lat="44.080476805303476" lon="7.9081845692036286"><ele>591.0</ele><time>2026-05-03T07:59:18Z</time></trkpt><trkpt lat="44.08055409789424" lon="7.90814861343401"><ele>591.0</ele><time>2026-05-03T07:59:19Z</time></trkpt><trkpt lat="44.08063501038322" lon="7.90810585099951"><ele>591.0</ele><time>2026-05-03T07:59:20Z</time></trkpt><trkpt lat="44.08071955815442" lon="7.908078993735714"><ele>591.0</ele><time>2026-05-03T07:59:21Z</time></trkpt><trkpt lat="44.080807299530946" lon="7.90802053071782"><ele>591.0</ele><time>2026-05-03T07:59:22Z</time></trkpt><trkpt lat="44.080907731058275" lon="7.907977293185225"><ele>592.2</ele><time>2026-05-03T07:59:23Z</time></trkpt><trkpt lat="44.081014322452354" lon="7.907970931183913"><ele>593.4000000000001</ele><time>2026-05-03T07:59:24Z</time></trkpt><trkpt lat="44.08111903578329" lon="7.907990983037034"><ele>594.6</ele><time>2026-05-03T07:59:25Z</time></trkpt><trkpt lat="44.08123090027622" lon="7.907987316142846"><ele>595.8000000000001</ele><time>2026-05-03T07:59:25.999Z</time></trkpt><trkpt lat="44.081335838205895" lon="7.908026642248134"><ele>597.0</ele><time>2026-05-03T07:59:26.999Z</time></trkpt><trkpt lat="44.081437117553506" lon="7.908045807441504"><ele>597.0</ele><time>2026-05-03T07:59:27.999Z</time></trkpt><trkpt lat="44.081531766913294" lon="7.908050939989583"><ele>597.0</ele><time>2026-05-03T07:59:28.999Z</time></trkpt><trkpt lat="44.08159683222669" lon="7.908064968138169"><ele>597.0</ele><time>2026-05-03T07:59:29.999Z</time></trkpt><trkpt lat="44.0816629154461" lon="7.9081593006703095"><ele>597.0</ele><time>2026-05-03T07:59:31.999Z</time></trkpt><trkpt lat="44.08172195999998" lon="7.908097878509407"><ele>597.0</ele><time>2026-05-03T07:59:34.999Z</time></trkpt><trkpt lat="44.081663096256825" lon="7.908041472806933"><ele>597.0</ele><time>2026-05-03T07:59:36.999Z</time></trkpt><trkpt lat="44.08156293929279" lon="7.907992306680782"><ele>597.0</ele><time>2026-05-03T07:59:39.999Z</time></trkpt><trkpt lat="44.081511073823506" lon="7.9079091816778515"><ele>597.0</ele><time>2026-05-03T07:59:40.999Z</time></trkpt><trkpt lat="44.08144672484663" lon="7.907856021335829"><ele>597.0</ele><time>2026-05-03T07:59:41.999Z</time></trkpt><trkpt lat="44.08138946013052" lon="7.907802190681561"><ele>597.0</ele><time>2026-05-03T07:59:42.999Z</time></trkpt><trkpt lat="44.081334331413444" lon="7.9077501467618365"><ele>597.0</ele><time>2026-05-03T07:59:43.999Z</time></trkpt><trkpt lat="44.081228308413145" lon="7.907666318699174"><ele>597.0</ele><time>2026-05-03T07:59:45.999Z</time></trkpt><trkpt lat="44.081168783738775" lon="7.907627384791925"><ele>600.1666666666666</ele><time>2026-05-03T07:59:46.999Z</time></trkpt><trkpt lat="44.08104829367088" lon="7.907565971789895"><ele>603.3333333333334</ele><time>2026-05-03T07:59:48.999Z</time></trkpt><trkpt lat="44.08096995713717" lon="7.907548234621268"><ele>606.5</ele><time>2026-05-03T07:59:49.999Z</time></trkpt><trkpt lat="44.080892456936105" lon="7.907532646977959"><ele>609.6666666666667</ele><time>2026-05-03T07:59:50.999Z</time></trkpt><trkpt lat="44.08080935089986" lon="7.90753395929146"><ele>612.8333333333334</ele><time>2026-05-03T07:59:51.999Z</time></trkpt><trkpt lat="44.080730643758535" lon="7.907547874817847"><ele>616.0</ele><time>2026-05-03T07:59:52.999Z</time></trkpt><trkpt lat="44.08065508405179" lon="7.907561234544096"><ele>616.0</ele><time>2026-05-03T07:59:53.999Z</time></trkpt><trkpt lat="44.08057011808023" lon="7.907566909639624"><ele>616.0</ele><time>2026-05-03T07:59:54.999Z</time></trkpt><trkpt lat="44.08048067794349" lon="7.907571515704134"><ele>616.0</ele><time>2026-05-03T07:59:55.999Z</time></trkpt><trkpt lat="44.08043728118172" lon="7.907430034236603"><ele>616.0</ele><time>2026-05-03T08:00:00.999Z</time></trkpt><trkpt lat="44.08054360879068" lon="7.907492898367582"><ele>616.0</ele><time>2026-05-03T08:00:01.999Z</time></trkpt><trkpt lat="44.080624695771974" lon="7.907479036487943"><ele>616.0</ele><time>2026-05-03T08:00:02.999Z</time></trkpt><trkpt lat="44.08069392463161" lon="7.907444600403753"><ele>616.0</ele><time>2026-05-03T08:00:03.999Z</time></trkpt><trkpt lat="44.08076329120636" lon="7.90739400300016"><ele>616.0</ele><time>2026-05-03T08:00:04.999Z</time></trkpt><trkpt lat="44.08084936965414" lon="7.907334127683959"><ele>616.0</ele><time>2026-05-03T08:00:05.999Z</time></trkpt><trkpt lat="44.08093491322045" lon="7.907272868690007"><ele>616.0</ele><time>2026-05-03T08:00:06.999Z</time></trkpt><trkpt lat="44.08101480962306" lon="7.907246103728374"><ele>616.0</ele><time>2026-05-03T08:00:07.999Z</time></trkpt><trkpt lat="44.0811034988754" lon="7.907217171877299"><ele>616.5</ele><time>2026-05-03T08:00:08.999Z</time></trkpt><trkpt lat="44.08117601123826" lon="7.907192887551304"><ele>617.0</ele><time>2026-05-03T08:00:09.999Z</time></trkpt><trkpt lat="44.08126876859376" lon="7.9071595576395355"><ele>617.5</ele><time>2026-05-03T08:00:10.999Z</time></trkpt><trkpt lat="44.08136502131025" lon="7.907124971758929"><ele>618.0</ele><time>2026-05-03T08:00:11.999Z</time></trkpt><trkpt lat="44.081454858452425" lon="7.907100245263487"><ele>618.5</ele><time>2026-05-03T08:00:12.999Z</time></trkpt><trkpt lat="44.081539116394175" lon="7.907086375469981"><ele>619.0</ele><time>2026-05-03T08:00:13.999Z</time></trkpt><trkpt lat="44.0816205762968" lon="7.907063995840045"><ele>620.6</ele><time>2026-05-03T08:00:14.999Z</time></trkpt><trkpt lat="44.08170235777683" lon="7.907106428373914"><ele>622.2</ele><time>2026-05-03T08:00:15.999Z</time></trkpt><trkpt lat="44.0817894142944" lon="7.907159042842299"><ele>623.8000000000001</ele><time>2026-05-03T08:00:16.999Z</time></trkpt><trkpt lat="44.08187921936951" lon="7.9072176725553"><ele>625.4</ele><time>2026-05-03T08:00:17.999Z</time></trkpt><trkpt lat="44.08195976565243" lon="7.907257114242607"><ele>627.0</ele><time>2026-05-03T08:00:18.999Z</time></trkpt><trkpt lat="44.08204827324743" lon="7.907278591975801"><ele>627.0</ele><time>2026-05-03T08:00:19.999Z</time></trkpt><trkpt lat="44.082153273677775" lon="7.907306772030737"><ele>627.0</ele><time>2026-05-03T08:00:20.999Z</time></trkpt><trkpt lat="44.082247363570715" lon="7.9073403475585575"><ele>627.0</ele><time>2026-05-03T08:00:21.999Z</time></trkpt><trkpt lat="44.08235384255533" lon="7.907359022766964"><ele>627.0</ele><time>2026-05-03T08:00:22.999Z</time></trkpt><trkpt lat="44.08246175831623" lon="7.907348204902117"><ele>627.0</ele><time>2026-05-03T08:00:23.999Z</time></trkpt><trkpt lat="44.08255493341152" lon="7.90735406932599"><ele>627.6666666666666</ele><time>2026-05-03T08:00:24.999Z</time></trkpt><trkpt lat="44.08261764868847" lon="7.907382727628729"><ele>628.3333333333334</ele><time>2026-05-03T08:00:25.999Z</time></trkpt><trkpt lat="44.08268438270353" lon="7.907495721475741"><ele>629.0</ele><time>2026-05-03T08:00:27.999Z</time></trkpt><trkpt lat="44.0826870202982" lon="7.9076135666169"><ele>629.6666666666667</ele><time>2026-05-03T08:00:28.999Z</time></trkpt><trkpt lat="44.08269446911283" lon="7.9077463742809995"><ele>630.3333333333334</ele><time>2026-05-03T08:00:29.999Z</time></trkpt><trkpt lat="44.08269434861089" lon="7.907863998180401"><ele>631.0</ele><time>2026-05-03T08:00:30.999Z</time></trkpt><trkpt lat="44.082730430918296" lon="7.907977193562018"><ele>631.0</ele><time>2026-05-03T08:00:31.999Z</time></trkpt><trkpt lat="44.082720094046906" lon="7.908080612303717"><ele>631.0</ele><time>2026-05-03T08:00:32.999Z</time></trkpt><trkpt lat="44.08292471773672" lon="7.908146745262867"><ele>631.0</ele><time>2026-05-03T08:00:34.999Z</time></trkpt><trkpt lat="44.083027431985286" lon="7.908146837462394"><ele>631.0</ele><time>2026-05-03T08:00:36Z</time></trkpt><trkpt lat="44.08314156135979" lon="7.908175926376895"><ele>631.0</ele><time>2026-05-03T08:00:37Z</time></trkpt><trkpt lat="44.08324781948911" lon="7.908232856256724"><ele>631.0</ele><time>2026-05-03T08:00:38Z</time></trkpt><trkpt lat="44.083309903795275" lon="7.90832339212781"><ele>631.0</ele><time>2026-05-03T08:00:39Z</time></trkpt><trkpt lat="44.08335474932806" lon="7.908428874872718"><ele>631.0</ele><time>2026-05-03T08:00:40Z</time></trkpt><trkpt lat="44.083408783961175" lon="7.908516894933136"><ele>631.0</ele><time>2026-05-03T08:00:41Z</time></trkpt><trkpt lat="44.083486705609296" lon="7.908560359702753"><ele>631.4</ele><time>2026-05-03T08:00:42Z</time></trkpt><trkpt lat="44.08355982507917" lon="7.908559150179782"><ele>631.8</ele><time>2026-05-03T08:00:43Z</time></trkpt><trkpt lat="44.08363148645565" lon="7.908499574644204"><ele>632.1999999999999</ele><time>2026-05-03T08:00:44Z</time></trkpt><trkpt lat="44.08369865586563" lon="7.9084138115999965"><ele>632.6</ele><time>2026-05-03T08:00:45Z</time></trkpt><trkpt lat="44.083757701477396" lon="7.908289284337751"><ele>633.0</ele><time>2026-05-03T08:00:46Z</time></trkpt><trkpt lat="44.0838144270418" lon="7.908142757767778"><ele>639.25</ele><time>2026-05-03T08:00:47Z</time></trkpt><trkpt lat="44.083883757570646" lon="7.908013353395055"><ele>645.5</ele><time>2026-05-03T08:00:48Z</time></trkpt><trkpt lat="44.08396599781753" lon="7.907909079061582"><ele>651.75</ele><time>2026-05-03T08:00:49Z</time></trkpt><trkpt lat="44.084074790284134" lon="7.907829735829342"><ele>658.0</ele><time>2026-05-03T08:00:50Z</time></trkpt><trkpt lat="44.084182921690875" lon="7.9077025302952"><ele>662.4</ele><time>2026-05-03T08:00:51Z</time></trkpt><trkpt lat="44.08426941434433" lon="7.907573387802229"><ele>666.8</ele><time>2026-05-03T08:00:52Z</time></trkpt><trkpt lat="44.08434251869318" lon="7.9074922377572"><ele>671.2</ele><time>2026-05-03T08:00:53Z</time></trkpt><trkpt lat="44.084424781610785" lon="7.907457771418308"><ele>675.6</ele><time>2026-05-03T08:00:54Z</time></trkpt><trkpt lat="44.08448662663373" lon="7.907438823700505"><ele>680.0</ele><time>2026-05-03T08:00:55Z</time></trkpt><trkpt lat="44.084502949470114" lon="7.9072657987687975"><ele>680.0</ele><time>2026-05-03T08:00:57Z</time></trkpt><trkpt lat="44.08444312341269" lon="7.90719067015855"><ele>680.0</ele><time>2026-05-03T08:00:58Z</time></trkpt><trkpt lat="44.08436133059324" lon="7.907174248721577"><ele>680.0</ele><time>2026-05-03T08:00:59Z</time></trkpt><trkpt lat="44.08428411254668" lon="7.907222543899132"><ele>680.0</ele><time>2026-05-03T08:01:00Z</time></trkpt><trkpt lat="44.0842108201534" lon="7.907330262436487"><ele>680.0</ele><time>2026-05-03T08:01:01Z</time></trkpt><trkpt lat="44.08413965703714" lon="7.907417106663502"><ele>680.0</ele><time>2026-05-03T08:01:02Z</time></trkpt><trkpt lat="44.084042703158524" lon="7.907513692955621"><ele>678.4</ele><time>2026-05-03T08:01:03Z</time></trkpt><trkpt lat="44.08393101749792" lon="7.907562650918866"><ele>676.8</ele><time>2026-05-03T08:01:04Z</time></trkpt><trkpt lat="44.08382235083993" lon="7.907581192447032"><ele>675.2</ele><time>2026-05-03T08:01:05Z</time></trkpt><trkpt lat="44.083713104281166" lon="7.907596492977449"><ele>673.6</ele><time>2026-05-03T08:01:06Z</time></trkpt><trkpt lat="44.08364738922423" lon="7.907603210922957"><ele>672.0</ele><time>2026-05-03T08:01:07Z</time></trkpt><trkpt lat="44.08363939844602" lon="7.907504822381633"><ele>672.0</ele><time>2026-05-03T08:01:09Z</time></trkpt><trkpt lat="44.08373668866764" lon="7.907391714899417"><ele>672.0</ele><time>2026-05-03T08:01:11Z</time></trkpt><trkpt lat="44.08381269236249" lon="7.907343092429567"><ele>672.0</ele><time>2026-05-03T08:01:12Z</time></trkpt><trkpt lat="44.08389072930458" lon="7.907297329290862"><ele>672.0</ele><time>2026-05-03T08:01:13Z</time></trkpt><trkpt lat="44.08395623611518" lon="7.9072211187890105"><ele>672.0</ele><time>2026-05-03T08:01:14Z</time></trkpt><trkpt lat="44.084014389013" lon="7.907116057319901"><ele>672.0</ele><time>2026-05-03T08:01:15Z</time></trkpt><trkpt lat="44.08405127227151" lon="7.906991331273863"><ele>672.0</ele><time>2026-05-03T08:01:16Z</time></trkpt><trkpt lat="44.08407230460239" lon="7.9068168271328005"><ele>672.0</ele><time>2026-05-03T08:01:17Z</time></trkpt><trkpt lat="44.08409410671147" lon="7.906630104948202"><ele>672.0</ele><time>2026-05-03T08:01:18Z</time></trkpt><trkpt lat="44.08411349086916" lon="7.906450900620076"><ele>676.0</ele><time>2026-05-03T08:01:19Z</time></trkpt><trkpt lat="44.08413841100907" lon="7.906329846105911"><ele>680.0</ele><time>2026-05-03T08:01:20Z</time></trkpt><trkpt lat="44.08418508262652" lon="7.90622174412645"><ele>684.0</ele><time>2026-05-03T08:01:21Z</time></trkpt><trkpt lat="44.08426002784478" lon="7.906111523712327"><ele>688.0</ele><time>2026-05-03T08:01:22Z</time></trkpt><trkpt lat="44.08431217517516" lon="7.905998225379663"><ele>692.0</ele><time>2026-05-03T08:01:23Z</time></trkpt><trkpt lat="44.08438085929479" lon="7.905902817964831"><ele>694.4000000000001</ele><time>2026-05-03T08:01:23.999Z</time></trkpt><trkpt lat="44.08443440488802" lon="7.905794650821073"><ele>696.8000000000001</ele><time>2026-05-03T08:01:24.999Z</time></trkpt><trkpt lat="44.084459778027274" lon="7.905642615623534"><ele>699.2</ele><time>2026-05-03T08:01:25.999Z</time></trkpt><trkpt lat="44.084466193990586" lon="7.905467970404014"><ele>701.6</ele><time>2026-05-03T08:01:26.999Z</time></trkpt><trkpt lat="44.084492641620926" lon="7.905365670816917"><ele>704.0</ele><time>2026-05-03T08:01:27.999Z</time></trkpt><trkpt lat="44.08457982054303" lon="7.905337650709974"><ele>704.0</ele><time>2026-05-03T08:01:29.999Z</time></trkpt><trkpt lat="44.084651227547305" lon="7.905436546379451"><ele>704.0</ele><time>2026-05-03T08:01:30.999Z</time></trkpt><trkpt lat="44.084735485032986" lon="7.905564391715332"><ele>704.0</ele><time>2026-05-03T08:01:31.999Z</time></trkpt><trkpt lat="44.08482037074271" lon="7.905695711356602"><ele>704.0</ele><time>2026-05-03T08:01:32.999Z</time></trkpt><trkpt lat="44.084913682950464" lon="7.905806092708002"><ele>704.8333333333333</ele><time>2026-05-03T08:01:33.999Z</time></trkpt><trkpt lat="44.0849756153576" lon="7.9058906219788945"><ele>705.6666666666666</ele><time>2026-05-03T08:01:34.999Z</time></trkpt><trkpt lat="44.08503826147935" lon="7.905956417638232"><ele>706.5</ele><time>2026-05-03T08:01:35.999Z</time></trkpt><trkpt lat="44.08510861848492" lon="7.905965538070728"><ele>707.3333333333334</ele><time>2026-05-03T08:01:36.999Z</time></trkpt><trkpt lat="44.08517667765125" lon="7.905900171070991"><ele>708.1666666666667</ele><time>2026-05-03T08:01:37.999Z</time></trkpt><trkpt lat="44.08521609176518" lon="7.905804848259374"><ele>709.0</ele><time>2026-05-03T08:01:38.999Z</time></trkpt><trkpt lat="44.08523516565686" lon="7.905695157221925"><ele>709.0</ele><time>2026-05-03T08:01:39.999Z</time></trkpt><trkpt lat="44.08524427577462" lon="7.905605048684881"><ele>709.0</ele><time>2026-05-03T08:01:40.999Z</time></trkpt><trkpt lat="44.08524698944411" lon="7.905513591559287"><ele>709.0</ele><time>2026-05-03T08:01:41.999Z</time></trkpt><trkpt lat="44.08528446484687" lon="7.905404416776504"><ele>709.0</ele><time>2026-05-03T08:01:44.999Z</time></trkpt><trkpt lat="44.0853128317928" lon="7.905286423694559"><ele>709.0</ele><time>2026-05-03T08:01:46.999Z</time></trkpt><trkpt lat="44.085330729120926" lon="7.905166752120273"><ele>709.0</ele><time>2026-05-03T08:01:48.999Z</time></trkpt><trkpt lat="44.08536218004114" lon="7.905010545810593"><ele>712.2</ele><time>2026-05-03T08:01:50.999Z</time></trkpt><trkpt lat="44.08537564793798" lon="7.904919544299678"><ele>715.4000000000001</ele><time>2026-05-03T08:01:51.999Z</time></trkpt><trkpt lat="44.08539214741117" lon="7.90481842629925"><ele>718.6</ele><time>2026-05-03T08:01:52.999Z</time></trkpt><trkpt lat="44.0854001475142" lon="7.90469817528358"><ele>721.8</ele><time>2026-05-03T08:01:53.999Z</time></trkpt><trkpt lat="44.08541689643365" lon="7.904536541046485"><ele>725.0</ele><time>2026-05-03T08:01:54.999Z</time></trkpt><trkpt lat="44.0854653229327" lon="7.904379509547463"><ele>728.4</ele><time>2026-05-03T08:01:55.999Z</time></trkpt><trkpt lat="44.08552009454782" lon="7.904236019583029"><ele>731.8</ele><time>2026-05-03T08:01:56.999Z</time></trkpt><trkpt lat="44.08555490847778" lon="7.904108481425643"><ele>735.2</ele><time>2026-05-03T08:01:57.999Z</time></trkpt><trkpt lat="44.085606444085215" lon="7.903959727416014"><ele>738.6</ele><time>2026-05-03T08:01:58.999Z</time></trkpt><trkpt lat="44.08565009396664" lon="7.903846664200708"><ele>742.0</ele><time>2026-05-03T08:01:59.999Z</time></trkpt><trkpt lat="44.08571586270521" lon="7.903744589377049"><ele>743.2</ele><time>2026-05-03T08:02:00.999Z</time></trkpt><trkpt lat="44.085792326285194" lon="7.903637452104921"><ele>744.4000000000001</ele><time>2026-05-03T08:02:01.999Z</time></trkpt><trkpt lat="44.0858737542126" lon="7.903546520432989"><ele>745.5999999999999</ele><time>2026-05-03T08:02:02.999Z</time></trkpt><trkpt lat="44.08594651818041" lon="7.903460890841275"><ele>746.8</ele><time>2026-05-03T08:02:03.999Z</time></trkpt><trkpt lat="44.086012750032346" lon="7.903375417826303"><ele>748.0</ele><time>2026-05-03T08:02:04.999Z</time></trkpt><trkpt lat="44.08608313580703" lon="7.90330443971536"><ele>748.0</ele><time>2026-05-03T08:02:05.999Z</time></trkpt><trkpt lat="44.08616033670588" lon="7.903261334066864"><ele>748.0</ele><time>2026-05-03T08:02:06.999Z</time></trkpt><trkpt lat="44.086242975317305" lon="7.903233726855348"><ele>748.0</ele><time>2026-05-03T08:02:07.999Z</time></trkpt><trkpt lat="44.08632980187022" lon="7.9032104602775854"><ele>748.0</ele><time>2026-05-03T08:02:08.999Z</time></trkpt><trkpt lat="44.08640273650478" lon="7.9031524793737775"><ele>748.0</ele><time>2026-05-03T08:02:09.999Z</time></trkpt><trkpt lat="44.08647798715863" lon="7.903052906718897"><ele>748.0</ele><time>2026-05-03T08:02:10.999Z</time></trkpt><trkpt lat="44.086542089706086" lon="7.902915068505245"><ele>748.2</ele><time>2026-05-03T08:02:11.999Z</time></trkpt><trkpt lat="44.086619205365544" lon="7.902784195033622"><ele>748.4</ele><time>2026-05-03T08:02:12.999Z</time></trkpt><trkpt lat="44.08669406738273" lon="7.90266168528499"><ele>748.6</ele><time>2026-05-03T08:02:13.999Z</time></trkpt><trkpt lat="44.086762540576615" lon="7.902532736698379"><ele>748.8000000000001</ele><time>2026-05-03T08:02:14.999Z</time></trkpt><trkpt lat="44.08681154502903" lon="7.902418118621106"><ele>749.0</ele><time>2026-05-03T08:02:15.999Z</time></trkpt><trkpt lat="44.08686370346145" lon="7.90230931443757"><ele>749.0</ele><time>2026-05-03T08:02:16.999Z</time></trkpt><trkpt lat="44.08690466353229" lon="7.902211686286588"><ele>749.0</ele><time>2026-05-03T08:02:17.999Z</time></trkpt><trkpt lat="44.08693548228778" lon="7.902094368829661"><ele>749.0</ele><time>2026-05-03T08:02:18.999Z</time></trkpt><trkpt lat="44.08693812918709" lon="7.901958306024812"><ele>749.0</ele><time>2026-05-03T08:02:19.999Z</time></trkpt><trkpt lat="44.08692837292237" lon="7.9018131454091325"><ele>749.0</ele><time>2026-05-03T08:02:20.999Z</time></trkpt><trkpt lat="44.086918602258145" lon="7.901671294937148"><ele>752.1666666666666</ele><time>2026-05-03T08:02:21.999Z</time></trkpt><trkpt lat="44.086912231051826" lon="7.901535607690762"><ele>755.3333333333333</ele><time>2026-05-03T08:02:22.999Z</time></trkpt><trkpt lat="44.08690623669838" lon="7.901398831797287"><ele>758.5</ele><time>2026-05-03T08:02:23.999Z</time></trkpt><trkpt lat="44.08690977022001" lon="7.901275114150817"><ele>761.6666666666666</ele><time>2026-05-03T08:02:24.999Z</time></trkpt><trkpt lat="44.086921423542584" lon="7.9011839911435"><ele>764.8333333333334</ele><time>2026-05-03T08:02:25.999Z</time></trkpt><trkpt lat="44.08698101478659" lon="7.90109291768364"><ele>768.0</ele><time>2026-05-03T08:02:27.999Z</time></trkpt><trkpt lat="44.08704070358968" lon="7.901060150950293"><ele>768.0</ele><time>2026-05-03T08:02:28.999Z</time></trkpt><trkpt lat="44.087109115436924" lon="7.901027249635034"><ele>768.0</ele><time>2026-05-03T08:02:29.999Z</time></trkpt><trkpt lat="44.08716442377193" lon="7.900956879909899"><ele>768.0</ele><time>2026-05-03T08:02:30.999Z</time></trkpt><trkpt lat="44.08716129334325" lon="7.9008585498834085"><ele>768.0</ele><time>2026-05-03T08:02:31.999Z</time></trkpt><trkpt lat="44.08711318713034" lon="7.900760921274079"><ele>768.0</ele><time>2026-05-03T08:02:32.999Z</time></trkpt><trkpt lat="44.08703358235528" lon="7.900648681704929"><ele>768.0</ele><time>2026-05-03T08:02:33.999Z</time></trkpt><trkpt lat="44.08696234414824" lon="7.900534216816033"><ele>770.6666666666666</ele><time>2026-05-03T08:02:34.999Z</time></trkpt><trkpt lat="44.086911909801586" lon="7.900433466223889"><ele>773.3333333333333</ele><time>2026-05-03T08:02:35.999Z</time></trkpt><trkpt lat="44.086878715649945" lon="7.900355514907695"><ele>776.0</ele><time>2026-05-03T08:02:36.999Z</time></trkpt><trkpt lat="44.086847483441865" lon="7.900273096022154"><ele>778.6666666666666</ele><time>2026-05-03T08:02:37.999Z</time></trkpt><trkpt lat="44.08680124371286" lon="7.900203613354615"><ele>781.3333333333333</ele><time>2026-05-03T08:02:38.999Z</time></trkpt><trkpt lat="44.08680602431576" lon="7.9000414314822525"><ele>784.0</ele><time>2026-05-03T08:02:40.999Z</time></trkpt><trkpt lat="44.08684794887516" lon="7.8999252664120885"><ele>785.4999999999999</ele><time>2026-05-03T08:02:42Z</time></trkpt><trkpt lat="44.08690516680739" lon="7.899830191832368"><ele>787.0</ele><time>2026-05-03T08:02:43Z</time></trkpt><trkpt lat="44.086974237708965" lon="7.899760496381398"><ele>788.5</ele><time>2026-05-03T08:02:44Z</time></trkpt><trkpt lat="44.08706391463742" lon="7.899737329252973"><ele>790.0</ele><time>2026-05-03T08:02:45Z</time></trkpt><trkpt lat="44.08714393391468" lon="7.899704864191695"><ele>791.4999999999999</ele><time>2026-05-03T08:02:46Z</time></trkpt><trkpt lat="44.08720657051604" lon="7.899637989444563"><ele>793.0</ele><time>2026-05-03T08:02:47Z</time></trkpt><trkpt lat="44.08725553480821" lon="7.899553678324639"><ele>792.9999999999999</ele><time>2026-05-03T08:02:48Z</time></trkpt><trkpt lat="44.08728942670377" lon="7.8994500538596775"><ele>793.0</ele><time>2026-05-03T08:02:49Z</time></trkpt><trkpt lat="44.08732115022647" lon="7.899335991087314"><ele>793.0</ele><time>2026-05-03T08:02:50Z</time></trkpt><trkpt lat="44.08735196424877" lon="7.89921728935823"><ele>793.0</ele><time>2026-05-03T08:02:51Z</time></trkpt><trkpt lat="44.08740495548555" lon="7.899141050569494"><ele>792.9999999999999</ele><time>2026-05-03T08:02:52Z</time></trkpt><trkpt lat="44.08745472319377" lon="7.899074713885068"><ele>793.0</ele><time>2026-05-03T08:02:53Z</time></trkpt><trkpt lat="44.08754741239743" lon="7.898963039775258"><ele>792.8333333333333</ele><time>2026-05-03T08:02:55Z</time></trkpt><trkpt lat="44.08756533323512" lon="7.898862969402907"><ele>792.6666666666666</ele><time>2026-05-03T08:02:56Z</time></trkpt><trkpt lat="44.08754523749891" lon="7.898731195993872"><ele>792.5</ele><time>2026-05-03T08:02:57Z</time></trkpt><trkpt lat="44.08753070011262" lon="7.898612966112805"><ele>792.3333333333333</ele><time>2026-05-03T08:02:58Z</time></trkpt><trkpt lat="44.08752618704053" lon="7.898489047723823"><ele>792.1666666666666</ele><time>2026-05-03T08:02:59Z</time></trkpt><trkpt lat="44.087537779975" lon="7.898395154296429"><ele>792.0</ele><time>2026-05-03T08:03:00Z</time></trkpt><trkpt lat="44.08755961933492" lon="7.89830885803611"><ele>792.0</ele><time>2026-05-03T08:03:01Z</time></trkpt><trkpt lat="44.0875979596605" lon="7.8982278440473905"><ele>792.0</ele><time>2026-05-03T08:03:02Z</time></trkpt><trkpt lat="44.0876713639478" lon="7.898164257425537"><ele>792.0</ele><time>2026-05-03T08:03:03Z</time></trkpt><trkpt lat="44.08775142862007" lon="7.8981078261748285"><ele>792.0</ele><time>2026-05-03T08:03:04Z</time></trkpt><trkpt lat="44.087828554117685" lon="7.898043894494547"><ele>792.0</ele><time>2026-05-03T08:03:05Z</time></trkpt><trkpt lat="44.08787503947465" lon="7.897972046941752"><ele>792.0</ele><time>2026-05-03T08:03:06Z</time></trkpt><trkpt lat="44.08788341675157" lon="7.897834910184563"><ele>792.0</ele><time>2026-05-03T08:03:07Z</time></trkpt><trkpt lat="44.08788923298474" lon="7.897683207247992"><ele>792.0</ele><time>2026-05-03T08:03:08Z</time></trkpt><trkpt lat="44.08788770347218" lon="7.897542133919567"><ele>792.0</ele><time>2026-05-03T08:03:09Z</time></trkpt><trkpt lat="44.08786713141726" lon="7.897411045316425"><ele>792.0</ele><time>2026-05-03T08:03:10Z</time></trkpt><trkpt lat="44.087823315993454" lon="7.897333487408254"><ele>792.0</ele><time>2026-05-03T08:03:11Z</time></trkpt><trkpt lat="44.087797747714944" lon="7.89719996794759"><ele>796.2</ele><time>2026-05-03T08:03:13Z</time></trkpt><trkpt lat="44.08788028238172" lon="7.897079600362368"><ele>800.4000000000001</ele><time>2026-05-03T08:03:15Z</time></trkpt><trkpt lat="44.08794740503376" lon="7.896948840590208"><ele>804.5999999999999</ele><time>2026-05-03T08:03:16Z</time></trkpt><trkpt lat="44.08797648654498" lon="7.896829261735016"><ele>808.8</ele><time>2026-05-03T08:03:17Z</time></trkpt><trkpt lat="44.08805694588891" lon="7.896813909804928"><ele>813.0</ele><time>2026-05-03T08:03:19Z</time></trkpt><trkpt lat="44.08812744344805" lon="7.896779275998559"><ele>813.0</ele><time>2026-05-03T08:03:20Z</time></trkpt><trkpt lat="44.08820831890738" lon="7.8967749811972485"><ele>813.0</ele><time>2026-05-03T08:03:21Z</time></trkpt><trkpt lat="44.08827334269827" lon="7.896739123365719"><ele>813.0</ele><time>2026-05-03T08:03:22Z</time></trkpt><trkpt lat="44.08836301968943" lon="7.8966592635811255"><ele>813.0</ele><time>2026-05-03T08:03:23Z</time></trkpt><trkpt lat="44.08843467504209" lon="7.896542381654468"><ele>813.0</ele><time>2026-05-03T08:03:24Z</time></trkpt><trkpt lat="44.088509697455216" lon="7.896414328334671"><ele>813.8</ele><time>2026-05-03T08:03:25Z</time></trkpt><trkpt lat="44.088573591244455" lon="7.896274730577791"><ele>814.5999999999999</ele><time>2026-05-03T08:03:26Z</time></trkpt><trkpt lat="44.08863635551086" lon="7.896160085600834"><ele>815.4000000000001</ele><time>2026-05-03T08:03:27Z</time></trkpt><trkpt lat="44.088687257571166" lon="7.896049031127164"><ele>816.2</ele><time>2026-05-03T08:03:28Z</time></trkpt><trkpt lat="44.088698107606454" lon="7.89591086480394"><ele>817.0</ele><time>2026-05-03T08:03:29Z</time></trkpt><trkpt lat="44.088691116349175" lon="7.895773418375476"><ele>816.9999999999999</ele><time>2026-05-03T08:03:30Z</time></trkpt><trkpt lat="44.08865916879642" lon="7.895652904021266"><ele>817.0</ele><time>2026-05-03T08:03:31Z</time></trkpt><trkpt lat="44.08862320775622" lon="7.895555201183073"><ele>817.0</ele><time>2026-05-03T08:03:32Z</time></trkpt><trkpt lat="44.08862709812934" lon="7.89546431025372"><ele>817.0</ele><time>2026-05-03T08:03:33Z</time></trkpt><trkpt lat="44.088673247348055" lon="7.895370367189581"><ele>816.9999999999999</ele><time>2026-05-03T08:03:33.999Z</time></trkpt><trkpt lat="44.088748546495516" lon="7.8952689379913314"><ele>817.0</ele><time>2026-05-03T08:03:34.999Z</time></trkpt><trkpt lat="44.08885861139234" lon="7.89520266942924"><ele>817.0</ele><time>2026-05-03T08:03:35.999Z</time></trkpt><trkpt lat="44.08896705413392" lon="7.895152389274748"><ele>817.0</ele><time>2026-05-03T08:03:36.999Z</time></trkpt><trkpt lat="44.08908463585907" lon="7.895099881093401"><ele>817.0</ele><time>2026-05-03T08:03:37.999Z</time></trkpt><trkpt lat="44.08916653566084" lon="7.894980911003756"><ele>817.0</ele><time>2026-05-03T08:03:38.999Z</time></trkpt><trkpt lat="44.08924030905243" lon="7.89482441319928"><ele>821.75</ele><time>2026-05-03T08:03:39.999Z</time></trkpt><trkpt lat="44.08931432390754" lon="7.894683881991031"><ele>826.5</ele><time>2026-05-03T08:03:40.999Z</time></trkpt><trkpt lat="44.08936453711208" lon="7.894552440637232"><ele>831.25</ele><time>2026-05-03T08:03:41.999Z</time></trkpt><trkpt lat="44.089390571574754" lon="7.894389030525146"><ele>836.0</ele><time>2026-05-03T08:03:42.999Z</time></trkpt><trkpt lat="44.08940696550627" lon="7.894237793690817"><ele>836.0</ele><time>2026-05-03T08:03:43.999Z</time></trkpt><trkpt lat="44.08945631926454" lon="7.894143501523794"><ele>836.0</ele><time>2026-05-03T08:03:44.999Z</time></trkpt><trkpt lat="44.089530604873005" lon="7.89407119487258"><ele>836.0</ele><time>2026-05-03T08:03:45.999Z</time></trkpt><trkpt lat="44.08960972587596" lon="7.893983686298279"><ele>836.0</ele><time>2026-05-03T08:03:46.999Z</time></trkpt><trkpt lat="44.089690899862454" lon="7.89389003127672"><ele>836.0</ele><time>2026-05-03T08:03:47.999Z</time></trkpt><trkpt lat="44.08974754255202" lon="7.8937674442324814"><ele>836.0</ele><time>2026-05-03T08:03:48.999Z</time></trkpt><trkpt lat="44.089793983543345" lon="7.89360701375098"><ele>836.0</ele><time>2026-05-03T08:03:49.999Z</time></trkpt><trkpt lat="44.08982397061828" lon="7.893446070738184"><ele>836.0</ele><time>2026-05-03T08:03:50.999Z</time></trkpt><trkpt lat="44.08983511261803" lon="7.893336183221803"><ele>836.0</ele><time>2026-05-03T08:03:51.999Z</time></trkpt><trkpt lat="44.089827503861535" lon="7.893245485348212"><ele>836.0</ele><time>2026-05-03T08:03:52.999Z</time></trkpt><trkpt lat="44.08979806818652" lon="7.893131012263982"><ele>842.0</ele><time>2026-05-03T08:03:53.999Z</time></trkpt><trkpt lat="44.089747366238925" lon="7.893001662793282"><ele>848.0</ele><time>2026-05-03T08:03:54.999Z</time></trkpt><trkpt lat="44.089718702026445" lon="7.892915534845692"><ele>853.9999999999999</ele><time>2026-05-03T08:03:55.999Z</time></trkpt><trkpt lat="44.08973613408888" lon="7.89281509901899"><ele>860.0</ele><time>2026-05-03T08:03:57.999Z</time></trkpt><trkpt lat="44.08981627912216" lon="7.892742595139037"><ele>866.0</ele><time>2026-05-03T08:03:58.999Z</time></trkpt><trkpt lat="44.08992418839691" lon="7.892720577577251"><ele>861.1999999999999</ele><time>2026-05-03T08:03:59.999Z</time></trkpt><trkpt lat="44.09002200550798" lon="7.892711786915917"><ele>856.3999999999999</ele><time>2026-05-03T08:04:00.999Z</time></trkpt><trkpt lat="44.09011022220576" lon="7.892702131002015"><ele>851.6</ele><time>2026-05-03T08:04:01.999Z</time></trkpt><trkpt lat="44.090187949745975" lon="7.8926206615069745"><ele>846.8</ele><time>2026-05-03T08:04:02.999Z</time></trkpt><trkpt lat="44.09025920280982" lon="7.892553222182677"><ele>842.0</ele><time>2026-05-03T08:04:03.999Z</time></trkpt><trkpt lat="44.09035023522803" lon="7.892487085612934"><ele>842.0</ele><time>2026-05-03T08:04:05.999Z</time></trkpt><trkpt lat="44.09046733568337" lon="7.892534730799688"><ele>842.0</ele><time>2026-05-03T08:04:07.999Z</time></trkpt><trkpt lat="44.090500888420735" lon="7.892624147528156"><ele>842.0</ele><time>2026-05-03T08:04:08.999Z</time></trkpt><trkpt lat="44.09053507930551" lon="7.892757706457799"><ele>842.0</ele><time>2026-05-03T08:04:09.999Z</time></trkpt><trkpt lat="44.09054879160393" lon="7.892887207331439"><ele>842.0</ele><time>2026-05-03T08:04:10.999Z</time></trkpt><trkpt lat="44.09058310656709" lon="7.893008866823202"><ele>837.8</ele><time>2026-05-03T08:04:11.999Z</time></trkpt><trkpt lat="44.09062413392794" lon="7.893132859686792"><ele>833.6</ele><time>2026-05-03T08:04:12.999Z</time></trkpt><trkpt lat="44.090683632649394" lon="7.893249396422355"><ele>829.4</ele><time>2026-05-03T08:04:13.999Z</time></trkpt><trkpt lat="44.090768039717155" lon="7.893368491147646"><ele>825.1999999999999</ele><time>2026-05-03T08:04:14.999Z</time></trkpt><trkpt lat="44.090848509455235" lon="7.893485342874049"><ele>821.0</ele><time>2026-05-03T08:04:15.999Z</time></trkpt><trkpt lat="44.09089111979464" lon="7.893577133964353"><ele>819.1999999999999</ele><time>2026-05-03T08:04:16.999Z</time></trkpt><trkpt lat="44.09091082649734" lon="7.89368264370294"><ele>817.4</ele><time>2026-05-03T08:04:17.999Z</time></trkpt><trkpt lat="44.09092981727997" lon="7.893811732118248"><ele>815.6</ele><time>2026-05-03T08:04:18.999Z</time></trkpt><trkpt lat="44.09095931985447" lon="7.89392924643259"><ele>813.8</ele><time>2026-05-03T08:04:19.999Z</time></trkpt><trkpt lat="44.09096601419964" lon="7.894067381195678"><ele>812.0</ele><time>2026-05-03T08:04:20.999Z</time></trkpt><trkpt lat="44.09103851700554" lon="7.894169173930234"><ele>812.0</ele><time>2026-05-03T08:04:21.999Z</time></trkpt><trkpt lat="44.09113295650677" lon="7.894219484953734"><ele>812.0</ele><time>2026-05-03T08:04:22.999Z</time></trkpt><trkpt lat="44.09123103017823" lon="7.894214793533764"><ele>812.0</ele><time>2026-05-03T08:04:23.999Z</time></trkpt><trkpt lat="44.09134140374504" lon="7.894179819646094"><ele>812.0</ele><time>2026-05-03T08:04:24.999Z</time></trkpt><trkpt lat="44.091461666750085" lon="7.894087181427606"><ele>812.0</ele><time>2026-05-03T08:04:25.999Z</time></trkpt><trkpt lat="44.091548669343645" lon="7.89400557577942"><ele>812.0</ele><time>2026-05-03T08:04:26.999Z</time></trkpt><trkpt lat="44.09164494737598" lon="7.894001046239224"><ele>812.0</ele><time>2026-05-03T08:04:28.999Z</time></trkpt><trkpt lat="44.091741083616824" lon="7.894130965062646"><ele>812.0</ele><time>2026-05-03T08:04:30.999Z</time></trkpt><trkpt lat="44.09178277400333" lon="7.894252363796447"><ele>812.0</ele><time>2026-05-03T08:04:31.999Z</time></trkpt><trkpt lat="44.09181347457859" lon="7.894388387055942"><ele>814.2</ele><time>2026-05-03T08:04:32.999Z</time></trkpt><trkpt lat="44.09186033461043" lon="7.894500286536186"><ele>816.4000000000001</ele><time>2026-05-03T08:04:33.999Z</time></trkpt><trkpt lat="44.09191275554299" lon="7.89459202863919"><ele>818.5999999999999</ele><time>2026-05-03T08:04:34.999Z</time></trkpt><trkpt lat="44.09198511442001" lon="7.894704096742231"><ele>820.8</ele><time>2026-05-03T08:04:35.999Z</time></trkpt><trkpt lat="44.09206649365458" lon="7.894786289293585"><ele>823.0</ele><time>2026-05-03T08:04:36.999Z</time></trkpt><trkpt lat="44.09213876460296" lon="7.894821551834705"><ele>822.9999999999999</ele><time>2026-05-03T08:04:37.999Z</time></trkpt><trkpt lat="44.09220990236489" lon="7.894854009243481"><ele>823.0</ele><time>2026-05-03T08:04:40.999Z</time></trkpt><trkpt lat="44.09228412678461" lon="7.894890001846932"><ele>823.0</ele><time>2026-05-03T08:05:09Z</time></trkpt><trkpt lat="44.092335988456384" lon="7.894817801173434"><ele>823.0</ele><time>2026-05-03T08:05:12Z</time></trkpt><trkpt lat="44.09241737501182" lon="7.894736345496045"><ele>822.9999999999999</ele><time>2026-05-03T08:05:14Z</time></trkpt><trkpt lat="44.092473275505995" lon="7.894627289877781"><ele>823.0</ele><time>2026-05-03T08:05:16Z</time></trkpt><trkpt lat="44.092525786211084" lon="7.894562949174656"><ele>822.9999999999999</ele><time>2026-05-03T08:05:18Z</time></trkpt><trkpt lat="44.092461833168514" lon="7.894518354061468"><ele>823.0</ele><time>2026-05-03T08:05:23Z</time></trkpt><trkpt lat="44.09239211031494" lon="7.8944408952508285"><ele>823.0</ele><time>2026-05-03T08:05:30Z</time></trkpt><trkpt lat="44.09239913327728" lon="7.894311979565029"><ele>823.0</ele><time>2026-05-03T08:05:33Z</time></trkpt><trkpt lat="44.09243414851664" lon="7.8942067372243"><ele>822.9999999999999</ele><time>2026-05-03T08:05:35Z</time></trkpt><trkpt lat="44.092489544589405" lon="7.894155810075562"><ele>823.0</ele><time>2026-05-03T08:05:37Z</time></trkpt><trkpt lat="44.0925649944636" lon="7.894133948421912"><ele>829.1666666666666</ele><time>2026-05-03T08:05:39.999Z</time></trkpt><trkpt lat="44.092639681129434" lon="7.894081415036364"><ele>835.3333333333333</ele><time>2026-05-03T08:05:41.999Z</time></trkpt><trkpt lat="44.09268989821916" lon="7.893986808401523"><ele>841.5</ele><time>2026-05-03T08:05:44.999Z</time></trkpt><trkpt lat="44.09269613298139" lon="7.893899267882142"><ele>847.6666666666667</ele><time>2026-05-03T08:05:46.999Z</time></trkpt><trkpt lat="44.09272505018125" lon="7.8938173549664725"><ele>853.8333333333334</ele><time>2026-05-03T08:05:48.999Z</time></trkpt><trkpt lat="44.0927894280638" lon="7.893709041231471"><ele>860.0</ele><time>2026-05-03T08:05:51.999Z</time></trkpt><trkpt lat="44.0928373408488" lon="7.893607456586959"><ele>860.0000000000001</ele><time>2026-05-03T08:05:53.999Z</time></trkpt><trkpt lat="44.09285572956881" lon="7.893458394610048"><ele>860.0</ele><time>2026-05-03T08:05:55.999Z</time></trkpt><trkpt lat="44.09285721921141" lon="7.893361089255841"><ele>860.0</ele><time>2026-05-03T08:05:56.999Z</time></trkpt><trkpt lat="44.09285251904044" lon="7.893272817424386"><ele>860.0</ele><time>2026-05-03T08:05:57.999Z</time></trkpt><trkpt lat="44.09285528980984" lon="7.893179046643089"><ele>860.0000000000001</ele><time>2026-05-03T08:05:58.999Z</time></trkpt><trkpt lat="44.09287457990582" lon="7.893080766582301"><ele>860.0</ele><time>2026-05-03T08:06:00.999Z</time></trkpt><trkpt lat="44.092931253957204" lon="7.893022848598829"><ele>861.6666666666667</ele><time>2026-05-03T08:06:03.999Z</time></trkpt><trkpt lat="44.09300260312814" lon="7.892974065689079"><ele>863.3333333333334</ele><time>2026-05-03T08:06:06.999Z</time></trkpt><trkpt lat="44.09306455923511" lon="7.892940231575256"><ele>865.0</ele><time>2026-05-03T08:06:08.999Z</time></trkpt><trkpt lat="44.09309125840117" lon="7.892829537291952"><ele>866.6666666666667</ele><time>2026-05-03T08:06:12.999Z</time></trkpt><trkpt lat="44.09310469800813" lon="7.8927345027279285"><ele>868.3333333333334</ele><time>2026-05-03T08:06:15.999Z</time></trkpt><trkpt lat="44.0931646939453" lon="7.892629271696913"><ele>870.0</ele><time>2026-05-03T08:06:18.999Z</time></trkpt><trkpt lat="44.09323036576111" lon="7.892557903656125"><ele>872.6666666666666</ele><time>2026-05-03T08:06:21.999Z</time></trkpt><trkpt lat="44.093287267500294" lon="7.892488616292574"><ele>875.3333333333333</ele><time>2026-05-03T08:06:23.999Z</time></trkpt><trkpt lat="44.09340564649164" lon="7.8924722483553245"><ele>878.0</ele><time>2026-05-03T08:06:27.999Z</time></trkpt><trkpt lat="44.09345260927854" lon="7.892402126713519"><ele>880.6666666666666</ele><time>2026-05-03T08:06:36.999Z</time></trkpt><trkpt lat="44.09351762731159" lon="7.892357633486339"><ele>883.3333333333333</ele><time>2026-05-03T08:06:47.999Z</time></trkpt><trkpt lat="44.09356508235276" lon="7.892292048998305"><ele>886.0</ele><time>2026-05-03T08:06:54Z</time></trkpt><trkpt lat="44.093618039527705" lon="7.892234003220474"><ele>885.9999999999999</ele><time>2026-05-03T08:06:55Z</time></trkpt><trkpt lat="44.09368514748304" lon="7.892231974616774"><ele>886.0</ele><time>2026-05-03T08:06:57Z</time></trkpt><trkpt lat="44.093753203605765" lon="7.892213163783111"><ele>886.0</ele><time>2026-05-03T08:07:01Z</time></trkpt><trkpt lat="44.09381582805904" lon="7.89216999734684"><ele>886.0</ele><time>2026-05-03T08:07:03Z</time></trkpt><trkpt lat="44.09390902982118" lon="7.892197189136743"><ele>885.9999999999999</ele><time>2026-05-03T08:07:16Z</time></trkpt><trkpt lat="44.093927166734815" lon="7.892111265748457"><ele>886.0</ele><time>2026-05-03T08:09:10Z</time></trkpt><trkpt lat="44.09400357535993" lon="7.8919927218759165"><ele>885.9999999999999</ele><time>2026-05-03T08:09:46Z</time></trkpt><trkpt lat="44.094027752816494" lon="7.891878999975251"><ele>886.0</ele><time>2026-05-03T08:09:51Z</time></trkpt><trkpt lat="44.09407484756108" lon="7.89180731035466"><ele>886.0</ele><time>2026-05-03T08:09:54.999Z</time></trkpt><trkpt lat="44.09404302274847" lon="7.891716638750515"><ele>886.0</ele><time>2026-05-03T08:09:57.999Z</time></trkpt><trkpt lat="44.09411372330272" lon="7.891625946668124"><ele>885.9999999999999</ele><time>2026-05-03T08:10:00.999Z</time></trkpt><trkpt lat="44.09419270104521" lon="7.891624033395562"><ele>886.0</ele><time>2026-05-03T08:10:04.999Z</time></trkpt><trkpt lat="44.094254189174364" lon="7.891554898341425"><ele>890.6666666666666</ele><time>2026-05-03T08:10:07.999Z</time></trkpt><trkpt lat="44.094374888424355" lon="7.89148646445375"><ele>895.3333333333333</ele><time>2026-05-03T08:10:21.999Z</time></trkpt><trkpt lat="44.094460940406734" lon="7.891491193989876"><ele>900.0</ele><time>2026-05-03T08:10:23.999Z</time></trkpt><trkpt lat="44.09452534202849" lon="7.891509435729434"><ele>904.6666666666667</ele><time>2026-05-03T08:10:26.999Z</time></trkpt><trkpt lat="44.09455542960796" lon="7.891414048951577"><ele>909.3333333333334</ele><time>2026-05-03T08:10:33.999Z</time></trkpt><trkpt lat="44.09460379129156" lon="7.891351917622331"><ele>914.0</ele><time>2026-05-03T08:10:36.999Z</time></trkpt><trkpt lat="44.09469268028337" lon="7.89132682749724"><ele>914.0</ele><time>2026-05-03T08:10:38.999Z</time></trkpt><trkpt lat="44.0947750134051" lon="7.891240913039349"><ele>914.0000000000001</ele><time>2026-05-03T08:10:41.999Z</time></trkpt><trkpt lat="44.09485122230256" lon="7.891220468931162"><ele>914.0000000000001</ele><time>2026-05-03T08:10:43.999Z</time></trkpt><trkpt lat="44.09484141057614" lon="7.891091265707819"><ele>914.0</ele><time>2026-05-03T08:10:53.999Z</time></trkpt><trkpt lat="44.09488257483843" lon="7.89094685709817"><ele>914.0</ele><time>2026-05-03T08:10:57.999Z</time></trkpt><trkpt lat="44.09494313974828" lon="7.890837356046113"><ele>917.8333333333334</ele><time>2026-05-03T08:10:59.999Z</time></trkpt><trkpt lat="44.09500269534038" lon="7.890796956921816"><ele>921.6666666666667</ele><time>2026-05-03T08:11:00.999Z</time></trkpt><trkpt lat="44.094954449543394" lon="7.89069934657147"><ele>925.5</ele><time>2026-05-03T08:11:03.999Z</time></trkpt><trkpt lat="44.094958746386254" lon="7.890582053174123"><ele>929.3333333333333</ele><time>2026-05-03T08:11:06Z</time></trkpt><trkpt lat="44.09499362733266" lon="7.8904506043291045"><ele>933.1666666666666</ele><time>2026-05-03T08:11:08Z</time></trkpt><trkpt lat="44.09505112895899" lon="7.890390839731561"><ele>937.0</ele><time>2026-05-03T08:11:10Z</time></trkpt><trkpt lat="44.095115148881185" lon="7.89025171641077"><ele>936.9999999999999</ele><time>2026-05-03T08:11:12Z</time></trkpt><trkpt lat="44.095149103280704" lon="7.890165592829235"><ele>937.0</ele><time>2026-05-03T08:11:13Z</time></trkpt><trkpt lat="44.09524446116295" lon="7.890047032284164"><ele>937.0</ele><time>2026-05-03T08:11:15Z</time></trkpt><trkpt lat="44.09528441545156" lon="7.889953106590843"><ele>937.0</ele><time>2026-05-03T08:11:16Z</time></trkpt><trkpt lat="44.09533851708783" lon="7.889856789580561"><ele>936.9999999999999</ele><time>2026-05-03T08:11:18Z</time></trkpt><trkpt lat="44.09540985468984" lon="7.889813662682051"><ele>937.0</ele><time>2026-05-03T08:11:20Z</time></trkpt><trkpt lat="44.09544466970764" lon="7.8897036643675165"><ele>938.0</ele><time>2026-05-03T08:11:22Z</time></trkpt><trkpt lat="44.095454648599855" lon="7.889607441044002"><ele>939.0</ele><time>2026-05-03T08:11:24Z</time></trkpt><trkpt lat="44.0955186177559" lon="7.889631366896414"><ele>940.0</ele><time>2026-05-03T08:11:27Z</time></trkpt><trkpt lat="44.0955826300703" lon="7.889607191892999"><ele>941.0</ele><time>2026-05-03T08:11:29Z</time></trkpt><trkpt lat="44.09562111262531" lon="7.889515810902713"><ele>942.0</ele><time>2026-05-03T08:11:31Z</time></trkpt><trkpt lat="44.095630578196776" lon="7.8894210919810925"><ele>943.0</ele><time>2026-05-03T08:11:46Z</time></trkpt><trkpt lat="44.09568113997175" lon="7.889326711274254"><ele>944.0</ele><time>2026-05-03T08:11:52Z</time></trkpt><trkpt lat="44.09572973020994" lon="7.8892179502774615"><ele>948.4000000000001</ele><time>2026-05-03T08:11:54Z</time></trkpt><trkpt lat="44.09583468253464" lon="7.889101513781454"><ele>952.8000000000001</ele><time>2026-05-03T08:11:56Z</time></trkpt><trkpt lat="44.095869462434564" lon="7.889011929325384"><ele>957.1999999999999</ele><time>2026-05-03T08:11:57Z</time></trkpt><trkpt lat="44.09590080998661" lon="7.888922229083145"><ele>961.5999999999999</ele><time>2026-05-03T08:11:58Z</time></trkpt><trkpt lat="44.0959478420741" lon="7.888819710503312"><ele>966.0</ele><time>2026-05-03T08:11:59Z</time></trkpt><trkpt lat="44.096015447624296" lon="7.888733139738542"><ele>966.0</ele><time>2026-05-03T08:12:00Z</time></trkpt><trkpt lat="44.09608576350886" lon="7.888633559325889"><ele>966.0</ele><time>2026-05-03T08:12:01Z</time></trkpt><trkpt lat="44.09615790357261" lon="7.888539425340385"><ele>966.0</ele><time>2026-05-03T08:12:02Z</time></trkpt><trkpt lat="44.09621336215395" lon="7.888483625000614"><ele>966.0</ele><time>2026-05-03T08:12:03Z</time></trkpt><trkpt lat="44.096266461531755" lon="7.888425432021343"><ele>966.0</ele><time>2026-05-03T08:12:03.999Z</time></trkpt><trkpt lat="44.09631311304335" lon="7.888337804419403"><ele>966.0</ele><time>2026-05-03T08:12:05.999Z</time></trkpt><trkpt lat="44.09633996373766" lon="7.888258319439183"><ele>967.0</ele><time>2026-05-03T08:12:08.999Z</time></trkpt><trkpt lat="44.09636660874142" lon="7.888171943252105"><ele>967.9999999999999</ele><time>2026-05-03T08:12:10.999Z</time></trkpt><trkpt lat="44.09641632419197" lon="7.888111120765635"><ele>968.9999999999999</ele><time>2026-05-03T08:12:11.999Z</time></trkpt><trkpt lat="44.09654540132997" lon="7.888110179997914"><ele>970.0</ele><time>2026-05-03T08:12:13.999Z</time></trkpt><trkpt lat="44.096610352941326" lon="7.887997555170497"><ele>971.0</ele><time>2026-05-03T08:12:15.999Z</time></trkpt><trkpt lat="44.09662972128144" lon="7.887880468934881"><ele>972.8</ele><time>2026-05-03T08:12:18.999Z</time></trkpt><trkpt lat="44.096690721522016" lon="7.887799073290425"><ele>974.5999999999999</ele><time>2026-05-03T08:12:20.999Z</time></trkpt><trkpt lat="44.096767844378974" lon="7.887755616748598"><ele>976.4</ele><time>2026-05-03T08:12:22.999Z</time></trkpt><trkpt lat="44.09685406062049" lon="7.887760776922858"><ele>978.2</ele><time>2026-05-03T08:12:27.999Z</time></trkpt><trkpt lat="44.09698185859763" lon="7.887681307979146"><ele>980.0</ele><time>2026-05-03T08:12:30.999Z</time></trkpt><trkpt lat="44.09704195599141" lon="7.887620312242839"><ele>982.1666666666667</ele><time>2026-05-03T08:12:32.999Z</time></trkpt><trkpt lat="44.09709375753974" lon="7.88755572943353"><ele>984.3333333333334</ele><time>2026-05-03T08:12:35.999Z</time></trkpt><trkpt lat="44.097143268007514" lon="7.887448044359413"><ele>986.5</ele><time>2026-05-03T08:12:38.999Z</time></trkpt><trkpt lat="44.09722922794083" lon="7.8873643936618"><ele>988.6666666666667</ele><time>2026-05-03T08:12:40.999Z</time></trkpt><trkpt lat="44.097207642407355" lon="7.887279304555906"><ele>990.8333333333334</ele><time>2026-05-03T08:20:28.999Z</time></trkpt><trkpt lat="44.097281212691954" lon="7.8873133922798875"><ele>993.0</ele><time>2026-05-03T08:23:32.999Z</time></trkpt><trkpt lat="44.09724876119141" lon="7.887221029083128"><ele>993.0</ele><time>2026-05-03T08:24:08Z</time></trkpt><trkpt lat="44.097190716428585" lon="7.8872924470128405"><ele>993.0</ele><time>2026-05-03T08:25:57Z</time></trkpt><trkpt lat="44.09725689807381" lon="7.887226476745469"><ele>993.0</ele><time>2026-05-03T08:26:18Z</time></trkpt><trkpt lat="44.09732104512249" lon="7.887239761868349"><ele>993.0</ele><time>2026-05-03T08:26:36Z</time></trkpt><trkpt lat="44.09723748946182" lon="7.88722905945345"><ele>993.0</ele><time>2026-05-03T08:26:38.999Z</time></trkpt><trkpt lat="44.097165424961936" lon="7.887189192464058"><ele>993.0</ele><time>2026-05-03T08:26:40.999Z</time></trkpt><trkpt lat="44.09717894865619" lon="7.887093323902195"><ele>993.0</ele><time>2026-05-03T08:26:44.999Z</time></trkpt><trkpt lat="44.09719549175567" lon="7.886979988034765"><ele>993.0</ele><time>2026-05-03T08:26:47.999Z</time></trkpt><trkpt lat="44.09715881427337" lon="7.886907183948746"><ele>993.0</ele><time>2026-05-03T08:26:49.999Z</time></trkpt><trkpt lat="44.0971832566862" lon="7.886824074960612"><ele>993.0</ele><time>2026-05-03T08:26:53.999Z</time></trkpt><trkpt lat="44.097223094814375" lon="7.886730270451656"><ele>993.0</ele><time>2026-05-03T08:26:56.999Z</time></trkpt><trkpt lat="44.09725837948045" lon="7.886616176281824"><ele>993.0</ele><time>2026-05-03T08:26:59.999Z</time></trkpt><trkpt lat="44.09730522547531" lon="7.886541070497543"><ele>995.5</ele><time>2026-05-03T08:27:01.999Z</time></trkpt><trkpt lat="44.097305564270705" lon="7.886382164110634"><ele>998.0</ele><time>2026-05-03T08:27:04.999Z</time></trkpt><trkpt lat="44.09729321360895" lon="7.886284926508754"><ele>1000.5</ele><time>2026-05-03T08:27:05.999Z</time></trkpt><trkpt lat="44.09728013994153" lon="7.886150688071924"><ele>1003.0</ele><time>2026-05-03T08:27:07.999Z</time></trkpt><trkpt lat="44.09733819782427" lon="7.886076461143844"><ele>1005.5</ele><time>2026-05-03T08:27:10.999Z</time></trkpt><trkpt lat="44.09738123703747" lon="7.8859793728102066"><ele>1008.0</ele><time>2026-05-03T08:27:13.999Z</time></trkpt><trkpt lat="44.09745929970319" lon="7.8859645852106475"><ele>1010.4</ele><time>2026-05-03T08:27:15.999Z</time></trkpt><trkpt lat="44.09751769642192" lon="7.88602516153685"><ele>1012.8</ele><time>2026-05-03T08:27:17.999Z</time></trkpt><trkpt lat="44.09764596557756" lon="7.886014353678711"><ele>1015.2</ele><time>2026-05-03T08:27:20.999Z</time></trkpt><trkpt lat="44.097704044120626" lon="7.885890347204284"><ele>1017.6</ele><time>2026-05-03T08:27:22.999Z</time></trkpt><trkpt lat="44.09773668540482" lon="7.8857668455197425"><ele>1020.0</ele><time>2026-05-03T08:27:24.999Z</time></trkpt><trkpt lat="44.09781327331681" lon="7.885632579295322"><ele>1022.0</ele><time>2026-05-03T08:27:26.999Z</time></trkpt><trkpt lat="44.0978697173221" lon="7.8855337953065305"><ele>1024.0</ele><time>2026-05-03T08:27:27.999Z</time></trkpt><trkpt lat="44.0979152042027" lon="7.885421551321476"><ele>1026.0</ele><time>2026-05-03T08:27:28.999Z</time></trkpt><trkpt lat="44.09796798786389" lon="7.885335506100835"><ele>1028.0</ele><time>2026-05-03T08:27:29.999Z</time></trkpt><trkpt lat="44.09802171276718" lon="7.885260629025658"><ele>1030.0</ele><time>2026-05-03T08:27:31.999Z</time></trkpt><trkpt lat="44.097979741208626" lon="7.885159110633821"><ele>1032.0</ele><time>2026-05-03T08:27:35.999Z</time></trkpt><trkpt lat="44.09803934329549" lon="7.885047106323393"><ele>1034.4</ele><time>2026-05-03T08:27:38.999Z</time></trkpt><trkpt lat="44.098046235531214" lon="7.884955627686318"><ele>1036.8000000000002</ele><time>2026-05-03T08:27:41.999Z</time></trkpt><trkpt lat="44.097979467400734" lon="7.884867099352717"><ele>1039.2</ele><time>2026-05-03T08:30:06Z</time></trkpt><trkpt lat="44.09788860396172" lon="7.884765706697611"><ele>1041.6000000000001</ele><time>2026-05-03T08:30:07Z</time></trkpt><trkpt lat="44.09778056473167" lon="7.884658036931396"><ele>1044.0</ele><time>2026-05-03T08:30:08Z</time></trkpt><trkpt lat="44.09774112019789" lon="7.8844800365939145"><ele>1044.0</ele><time>2026-05-03T08:30:09Z</time></trkpt><trkpt lat="44.09766499026946" lon="7.884417618932229"><ele>1044.0</ele><time>2026-05-03T08:30:10Z</time></trkpt><trkpt lat="44.097588063046686" lon="7.884357987664701"><ele>1044.0</ele><time>2026-05-03T08:30:11Z</time></trkpt><trkpt lat="44.097504886184915" lon="7.88430107153364"><ele>1044.0</ele><time>2026-05-03T08:30:12Z</time></trkpt><trkpt lat="44.09741842020666" lon="7.88425566623209"><ele>1044.0</ele><time>2026-05-03T08:30:13Z</time></trkpt><trkpt lat="44.09732909034913" lon="7.8842182399862475"><ele>1046.0</ele><time>2026-05-03T08:30:14Z</time></trkpt><trkpt lat="44.097228735888166" lon="7.884195104856402"><ele>1048.0</ele><time>2026-05-03T08:30:15Z</time></trkpt><trkpt lat="44.0971302569831" lon="7.884183039182262"><ele>1050.0</ele><time>2026-05-03T08:30:16Z</time></trkpt><trkpt lat="44.09703391636283" lon="7.884176465968912"><ele>1052.0</ele><time>2026-05-03T08:30:17Z</time></trkpt><trkpt lat="44.09694252924031" lon="7.8841718672560965"><ele>1054.0</ele><time>2026-05-03T08:30:18Z</time></trkpt><trkpt lat="44.09685563698546" lon="7.884166447731736"><ele>1054.0</ele><time>2026-05-03T08:30:19Z</time></trkpt><trkpt lat="44.09677586458153" lon="7.884156162409853"><ele>1054.0</ele><time>2026-05-03T08:30:20Z</time></trkpt><trkpt lat="44.09669674189957" lon="7.8841422324368"><ele>1054.0</ele><time>2026-05-03T08:30:21Z</time></trkpt><trkpt lat="44.096615859123624" lon="7.884125980665855"><ele>1054.0</ele><time>2026-05-03T08:30:22Z</time></trkpt><trkpt lat="44.09653506620539" lon="7.884109746927911"><ele>1054.0</ele><time>2026-05-03T08:30:23Z</time></trkpt><trkpt lat="44.09645076962195" lon="7.884095033703389"><ele>1054.0</ele><time>2026-05-03T08:30:24Z</time></trkpt><trkpt lat="44.096359356496635" lon="7.884093800239861"><ele>1054.8</ele><time>2026-05-03T08:30:25Z</time></trkpt><trkpt lat="44.096266073206316" lon="7.8841108075093285"><ele>1055.6000000000001</ele><time>2026-05-03T08:30:26Z</time></trkpt><trkpt lat="44.09618037781845" lon="7.88414930974749"><ele>1056.4</ele><time>2026-05-03T08:30:27Z</time></trkpt><trkpt lat="44.0960884822756" lon="7.8842048027402365"><ele>1057.2</ele><time>2026-05-03T08:30:28Z</time></trkpt><trkpt lat="44.09599770614493" lon="7.884251931960384"><ele>1058.0</ele><time>2026-05-03T08:30:29Z</time></trkpt><trkpt lat="44.09591440412345" lon="7.884303145786146"><ele>1057.8333333333335</ele><time>2026-05-03T08:30:30Z</time></trkpt><trkpt lat="44.09585110048697" lon="7.884338883897714"><ele>1057.6666666666667</ele><time>2026-05-03T08:30:31Z</time></trkpt><trkpt lat="44.095748712999665" lon="7.884350000245661"><ele>1057.5</ele><time>2026-05-03T08:30:33Z</time></trkpt><trkpt lat="44.095661319134926" lon="7.884241080882958"><ele>1057.3333333333333</ele><time>2026-05-03T08:30:35Z</time></trkpt><trkpt lat="44.09561444634463" lon="7.884155517119111"><ele>1057.1666666666665</ele><time>2026-05-03T08:30:36Z</time></trkpt><trkpt lat="44.09556626687392" lon="7.884067194494409"><ele>1057.0</ele><time>2026-05-03T08:30:37Z</time></trkpt><trkpt lat="44.09551091255814" lon="7.883987955984155"><ele>1057.6666666666665</ele><time>2026-05-03T08:30:38Z</time></trkpt><trkpt lat="44.095453831589474" lon="7.883917391213576"><ele>1058.3333333333333</ele><time>2026-05-03T08:30:39Z</time></trkpt><trkpt lat="44.095404172478595" lon="7.883837848833897"><ele>1059.0</ele><time>2026-05-03T08:30:40Z</time></trkpt><trkpt lat="44.095357499314005" lon="7.883764458948976"><ele>1059.6666666666667</ele><time>2026-05-03T08:30:41Z</time></trkpt><trkpt lat="44.09528195914315" lon="7.883635564338243"><ele>1060.3333333333335</ele><time>2026-05-03T08:30:43Z</time></trkpt><trkpt lat="44.095232130185465" lon="7.883540698879476"><ele>1061.0</ele><time>2026-05-03T08:30:44Z</time></trkpt><trkpt lat="44.09516054809262" lon="7.883399893193894"><ele>1061.8333333333335</ele><time>2026-05-03T08:30:46Z</time></trkpt><trkpt lat="44.09511717728675" lon="7.8833043225400266"><ele>1062.6666666666667</ele><time>2026-05-03T08:30:47Z</time></trkpt><trkpt lat="44.095082814237735" lon="7.883215070258165"><ele>1063.5</ele><time>2026-05-03T08:30:48Z</time></trkpt><trkpt lat="44.09505452990965" lon="7.883080824226162"><ele>1064.3333333333333</ele><time>2026-05-03T08:30:50Z</time></trkpt><trkpt lat="44.095052325200484" lon="7.882970972508791"><ele>1065.1666666666665</ele><time>2026-05-03T08:30:51Z</time></trkpt><trkpt lat="44.09504790702061" lon="7.882850415983298"><ele>1066.0</ele><time>2026-05-03T08:30:52Z</time></trkpt><trkpt lat="44.09506933053316" lon="7.882730432932055"><ele>1066.0</ele><time>2026-05-03T08:30:53Z</time></trkpt><trkpt lat="44.095076320277734" lon="7.882627228898025"><ele>1066.0</ele><time>2026-05-03T08:30:53.999Z</time></trkpt><trkpt lat="44.09507730841559" lon="7.882532276958052"><ele>1066.0</ele><time>2026-05-03T08:30:54.999Z</time></trkpt><trkpt lat="44.09508162175836" lon="7.882414091889582"><ele>1066.0</ele><time>2026-05-03T08:30:55.999Z</time></trkpt><trkpt lat="44.09507764501115" lon="7.8822757618029"><ele>1066.0</ele><time>2026-05-03T08:30:56.999Z</time></trkpt><trkpt lat="44.095050847221636" lon="7.882131994261567"><ele>1066.0</ele><time>2026-05-03T08:30:57.999Z</time></trkpt><trkpt lat="44.095033361722884" lon="7.8820024073240225"><ele>1065.0</ele><time>2026-05-03T08:30:58.999Z</time></trkpt><trkpt lat="44.09501649762273" lon="7.881886742996906"><ele>1064.0</ele><time>2026-05-03T08:30:59.999Z</time></trkpt><trkpt lat="44.0949985781411" lon="7.881721381441102"><ele>1063.0</ele><time>2026-05-03T08:31:01.999Z</time></trkpt><trkpt lat="44.09502814758696" lon="7.881575315176724"><ele>1062.0</ele><time>2026-05-03T08:31:03.999Z</time></trkpt><trkpt lat="44.09512998009816" lon="7.881508651617607"><ele>1061.0</ele><time>2026-05-03T08:31:05.999Z</time></trkpt><trkpt lat="44.095191196279906" lon="7.881457045654976"><ele>1059.0</ele><time>2026-05-03T08:31:07.999Z</time></trkpt><trkpt lat="44.09526994227876" lon="7.881376830918393"><ele>1057.0</ele><time>2026-05-03T08:31:20.999Z</time></trkpt><trkpt lat="44.09547268590275" lon="7.8816016778723"><ele>1055.0</ele><time>2026-05-03T08:31:21.999Z</time></trkpt><trkpt lat="44.095577225978396" lon="7.881655301875798"><ele>1055.0</ele><time>2026-05-03T08:31:22.999Z</time></trkpt><trkpt lat="44.09568444742864" lon="7.8817122016376056"><ele>1055.0</ele><time>2026-05-03T08:31:23.999Z</time></trkpt><trkpt lat="44.09579388246377" lon="7.881766324130003"><ele>1055.0</ele><time>2026-05-03T08:31:24.999Z</time></trkpt><trkpt lat="44.09591408558676" lon="7.881843755950161"><ele>1055.0</ele><time>2026-05-03T08:31:25.999Z</time></trkpt><trkpt lat="44.096025409609595" lon="7.881897850105176"><ele>1060.4</ele><time>2026-05-03T08:31:26.999Z</time></trkpt><trkpt lat="44.096122540568764" lon="7.881916455831901"><ele>1065.8</ele><time>2026-05-03T08:31:27.999Z</time></trkpt><trkpt lat="44.096231304955936" lon="7.881959122120203"><ele>1071.2</ele><time>2026-05-03T08:31:28.999Z</time></trkpt><trkpt lat="44.09634417632233" lon="7.88200707748932"><ele>1076.6</ele><time>2026-05-03T08:31:29.999Z</time></trkpt><trkpt lat="44.096431666349105" lon="7.882031467990227"><ele>1082.0</ele><time>2026-05-03T08:31:30.999Z</time></trkpt><trkpt lat="44.09650037982193" lon="7.882041907497751"><ele>1082.0</ele><time>2026-05-03T08:31:31.999Z</time></trkpt><trkpt lat="44.09658562635308" lon="7.8820174228879125"><ele>1082.0</ele><time>2026-05-03T08:31:32.999Z</time></trkpt><trkpt lat="44.0966687814374" lon="7.881961950140174"><ele>1082.0</ele><time>2026-05-03T08:31:33.999Z</time></trkpt><trkpt lat="44.096756855341624" lon="7.881927709247528"><ele>1082.0</ele><time>2026-05-03T08:31:34.999Z</time></trkpt><trkpt lat="44.096848930027896" lon="7.881890462311995"><ele>1082.0</ele><time>2026-05-03T08:31:35.999Z</time></trkpt><trkpt lat="44.096961608734574" lon="7.88186752166037"><ele>1083.8333333333335</ele><time>2026-05-03T08:31:36.999Z</time></trkpt><trkpt lat="44.09705066072377" lon="7.881841352440564"><ele>1085.6666666666667</ele><time>2026-05-03T08:31:37.999Z</time></trkpt><trkpt lat="44.097111960834994" lon="7.881794334683959"><ele>1087.5</ele><time>2026-05-03T08:31:38.999Z</time></trkpt><trkpt lat="44.097169911561465" lon="7.8817378121740225"><ele>1089.3333333333333</ele><time>2026-05-03T08:31:39.999Z</time></trkpt><trkpt lat="44.09721626976366" lon="7.8816341867716595"><ele>1091.1666666666665</ele><time>2026-05-03T08:31:40.999Z</time></trkpt><trkpt lat="44.09725329340072" lon="7.881503463160615"><ele>1093.0</ele><time>2026-05-03T08:31:41.999Z</time></trkpt><trkpt lat="44.09727646483493" lon="7.881353076692317"><ele>1087.8</ele><time>2026-05-03T08:31:42.999Z</time></trkpt><trkpt lat="44.09728270595516" lon="7.881211407499267"><ele>1082.6</ele><time>2026-05-03T08:31:43.999Z</time></trkpt><trkpt lat="44.09728713640095" lon="7.881056087289066"><ele>1077.4</ele><time>2026-05-03T08:31:44.999Z</time></trkpt><trkpt lat="44.09731015455518" lon="7.8809052628285"><ele>1072.2</ele><time>2026-05-03T08:31:45.999Z</time></trkpt><trkpt lat="44.097345153161406" lon="7.880781194742093"><ele>1067.0</ele><time>2026-05-03T08:31:46.999Z</time></trkpt><trkpt lat="44.097387877412324" lon="7.880676609856731"><ele>1070.5</ele><time>2026-05-03T08:31:47.999Z</time></trkpt><trkpt lat="44.09743915283433" lon="7.880610566617479"><ele>1074.0</ele><time>2026-05-03T08:31:48.999Z</time></trkpt><trkpt lat="44.09754031433521" lon="7.880578573844914"><ele>1077.5</ele><time>2026-05-03T08:31:50.999Z</time></trkpt><trkpt lat="44.09760781926288" lon="7.880596177795403"><ele>1081.0</ele><time>2026-05-03T08:31:51.999Z</time></trkpt><trkpt lat="44.09767815108079" lon="7.880635950702134"><ele>1084.5</ele><time>2026-05-03T08:31:52.999Z</time></trkpt><trkpt lat="44.09775259329175" lon="7.88068903978346"><ele>1088.0</ele><time>2026-05-03T08:31:53.999Z</time></trkpt><trkpt lat="44.097839030843176" lon="7.880766007148622"><ele>1088.0</ele><time>2026-05-03T08:31:54.999Z</time></trkpt><trkpt lat="44.0979107556323" lon="7.880867498880987"><ele>1088.0</ele><time>2026-05-03T08:31:55.999Z</time></trkpt><trkpt lat="44.097946659835365" lon="7.881003575443953"><ele>1088.0</ele><time>2026-05-03T08:31:56.999Z</time></trkpt><trkpt lat="44.09800880814182" lon="7.881160303822276"><ele>1088.0</ele><time>2026-05-03T08:31:57.999Z</time></trkpt><trkpt lat="44.098061215245" lon="7.88131023718175"><ele>1090.0</ele><time>2026-05-03T08:31:58.999Z</time></trkpt><trkpt lat="44.09810786543115" lon="7.881426045873594"><ele>1092.0</ele><time>2026-05-03T08:31:59.999Z</time></trkpt><trkpt lat="44.09818826198605" lon="7.881545207562738"><ele>1094.0</ele><time>2026-05-03T08:32:00.999Z</time></trkpt><trkpt lat="44.09826797690412" lon="7.881674427761148"><ele>1096.0</ele><time>2026-05-03T08:32:01.999Z</time></trkpt><trkpt lat="44.098363048386496" lon="7.881796453673873"><ele>1101.6</ele><time>2026-05-03T08:32:02.999Z</time></trkpt><trkpt lat="44.09843639757952" lon="7.881910871107305"><ele>1107.1999999999998</ele><time>2026-05-03T08:32:03.999Z</time></trkpt><trkpt lat="44.09852520503039" lon="7.881990635091091"><ele>1112.8000000000002</ele><time>2026-05-03T08:32:04.999Z</time></trkpt><trkpt lat="44.09862608533601" lon="7.882054397227629"><ele>1118.4</ele><time>2026-05-03T08:32:06Z</time></trkpt><trkpt lat="44.09871368444617" lon="7.88209002711302"><ele>1124.0</ele><time>2026-05-03T08:32:07Z</time></trkpt><trkpt lat="44.09881790544985" lon="7.882100199967332"><ele>1124.0</ele><time>2026-05-03T08:32:08Z</time></trkpt><trkpt lat="44.098924218160924" lon="7.882087425161752"><ele>1124.0</ele><time>2026-05-03T08:32:09Z</time></trkpt><trkpt lat="44.098992413500206" lon="7.882094073679711"><ele>1124.0</ele><time>2026-05-03T08:32:10Z</time></trkpt><trkpt lat="44.09907060607112" lon="7.882129832600698"><ele>1124.0</ele><time>2026-05-03T08:32:11Z</time></trkpt><trkpt lat="44.09915294442643" lon="7.882224766738784"><ele>1124.0</ele><time>2026-05-03T08:32:12Z</time></trkpt><trkpt lat="44.09921301791013" lon="7.882355438160485"><ele>1123.75</ele><time>2026-05-03T08:32:13Z</time></trkpt><trkpt lat="44.099301069653436" lon="7.882478486550685"><ele>1123.5</ele><time>2026-05-03T08:32:14Z</time></trkpt><trkpt lat="44.09937444195437" lon="7.882594736674518"><ele>1123.25</ele><time>2026-05-03T08:32:15Z</time></trkpt><trkpt lat="44.09943995496767" lon="7.882728441182198"><ele>1123.0</ele><time>2026-05-03T08:32:16Z</time></trkpt><trkpt lat="44.09949218946725" lon="7.882874714253901"><ele>1123.0</ele><time>2026-05-03T08:32:17Z</time></trkpt><trkpt lat="44.099560982366015" lon="7.8830040007283575"><ele>1123.0</ele><time>2026-05-03T08:32:18Z</time></trkpt><trkpt lat="44.09963471679809" lon="7.883128886423184"><ele>1123.0</ele><time>2026-05-03T08:32:19Z</time></trkpt><trkpt lat="44.09969936451969" lon="7.883268091018449"><ele>1123.0</ele><time>2026-05-03T08:32:20Z</time></trkpt><trkpt lat="44.09975019186138" lon="7.8833751988993015"><ele>1123.0</ele><time>2026-05-03T08:32:21Z</time></trkpt><trkpt lat="44.09983113000515" lon="7.883469525722515"><ele>1124.4</ele><time>2026-05-03T08:32:22Z</time></trkpt><trkpt lat="44.09992422004351" lon="7.8835185602592235"><ele>1125.8</ele><time>2026-05-03T08:32:23Z</time></trkpt><trkpt lat="44.10000021411096" lon="7.883588005546501"><ele>1127.2</ele><time>2026-05-03T08:32:24Z</time></trkpt><trkpt lat="44.10007979894081" lon="7.883660575564951"><ele>1128.6</ele><time>2026-05-03T08:32:25Z</time></trkpt><trkpt lat="44.10018961372063" lon="7.883663788895141"><ele>1130.0</ele><time>2026-05-03T08:32:26Z</time></trkpt><trkpt lat="44.100299884151134" lon="7.883672758536899"><ele>1130.0</ele><time>2026-05-03T08:32:27Z</time></trkpt><trkpt lat="44.10041910608508" lon="7.8836919267384555"><ele>1130.0</ele><time>2026-05-03T08:32:28Z</time></trkpt><trkpt lat="44.10051556275133" lon="7.883677061004777"><ele>1130.0</ele><time>2026-05-03T08:32:29Z</time></trkpt><trkpt lat="44.10061726140324" lon="7.883659510884134"><ele>1130.0</ele><time>2026-05-03T08:32:30Z</time></trkpt><trkpt lat="44.10071657855117" lon="7.88363130249303"><ele>1130.0</ele><time>2026-05-03T08:32:31Z</time></trkpt><trkpt lat="44.10082376078055" lon="7.883585213112388"><ele>1134.2</ele><time>2026-05-03T08:32:32Z</time></trkpt><trkpt lat="44.100921971912555" lon="7.883565995932656"><ele>1138.4</ele><time>2026-05-03T08:32:33Z</time></trkpt><trkpt lat="44.10103504867184" lon="7.883566477855549"><ele>1142.6</ele><time>2026-05-03T08:32:34Z</time></trkpt><trkpt lat="44.10114188489427" lon="7.883561555268948"><ele>1146.8</ele><time>2026-05-03T08:32:35Z</time></trkpt><trkpt lat="44.10124666928917" lon="7.8835721851063365"><ele>1151.0</ele><time>2026-05-03T08:32:36Z</time></trkpt><trkpt lat="44.10133767129522" lon="7.883572352454197"><ele>1151.0</ele><time>2026-05-03T08:32:37Z</time></trkpt><trkpt lat="44.101419591663294" lon="7.883574655576249"><ele>1151.0</ele><time>2026-05-03T08:32:38Z</time></trkpt><trkpt lat="44.101505297453485" lon="7.883571922306968"><ele>1151.0</ele><time>2026-05-03T08:32:39Z</time></trkpt><trkpt lat="44.101590195706095" lon="7.8835663099744435"><ele>1151.0</ele><time>2026-05-03T08:32:40Z</time></trkpt><trkpt lat="44.10165833227974" lon="7.883558295481667"><ele>1151.0</ele><time>2026-05-03T08:32:41Z</time></trkpt><trkpt lat="44.10174627432919" lon="7.883518429301422"><ele>1151.0</ele><time>2026-05-03T08:32:43Z</time></trkpt><trkpt lat="44.10183948257971" lon="7.883470428854989"><ele>1151.3333333333335</ele><time>2026-05-03T08:32:46Z</time></trkpt><trkpt lat="44.101887997282056" lon="7.883408552351347"><ele>1151.6666666666667</ele><time>2026-05-03T08:32:49Z</time></trkpt><trkpt lat="44.101956518712605" lon="7.883440081579098"><ele>1152.0</ele><time>2026-05-03T08:32:51Z</time></trkpt><trkpt lat="44.10231893427441" lon="7.883480295575784"><ele>1156.2</ele><time>2026-05-03T08:32:54Z</time></trkpt><trkpt lat="44.1023947777713" lon="7.88355125612805"><ele>1160.4</ele><time>2026-05-03T08:32:55Z</time></trkpt><trkpt lat="44.10248666754387" lon="7.883614622100234"><ele>1164.6</ele><time>2026-05-03T08:32:55.999Z</time></trkpt><trkpt lat="44.10259152852476" lon="7.883725358318309"><ele>1168.8</ele><time>2026-05-03T08:32:56.999Z</time></trkpt><trkpt lat="44.102641845873926" lon="7.883824706063779"><ele>1173.0</ele><time>2026-05-03T08:32:57.999Z</time></trkpt><trkpt lat="44.10269408879347" lon="7.883917715865252"><ele>1174.4</ele><time>2026-05-03T08:32:58.999Z</time></trkpt><trkpt lat="44.102763854914535" lon="7.884031519553382"><ele>1175.8</ele><time>2026-05-03T08:32:59.999Z</time></trkpt><trkpt lat="44.102838972749666" lon="7.884165507346659"><ele>1177.2</ele><time>2026-05-03T08:33:00.999Z</time></trkpt><trkpt lat="44.102903048173815" lon="7.884232542151963"><ele>1178.6</ele><time>2026-05-03T08:33:01.999Z</time></trkpt><trkpt lat="44.10298508448127" lon="7.884372788798138"><ele>1180.0</ele><time>2026-05-03T08:33:02.999Z</time></trkpt><trkpt lat="44.10305866121081" lon="7.884481559500515"><ele>1180.0</ele><time>2026-05-03T08:33:03.999Z</time></trkpt><trkpt lat="44.10311920438127" lon="7.884579069180501"><ele>1180.0</ele><time>2026-05-03T08:33:04.999Z</time></trkpt><trkpt lat="44.10317994877866" lon="7.884674222053946"><ele>1180.0</ele><time>2026-05-03T08:33:05.999Z</time></trkpt><trkpt lat="44.103252576940015" lon="7.88479147714758"><ele>1180.0</ele><time>2026-05-03T08:33:06.999Z</time></trkpt><trkpt lat="44.103326042040436" lon="7.884891307982282"><ele>1180.0</ele><time>2026-05-03T08:33:07.999Z</time></trkpt><trkpt lat="44.10338812709236" lon="7.884963092484248"><ele>1180.6666666666665</ele><time>2026-05-03T08:33:08.999Z</time></trkpt><trkpt lat="44.103448641725" lon="7.885041394081902"><ele>1181.3333333333333</ele><time>2026-05-03T08:33:09.999Z</time></trkpt><trkpt lat="44.10353129333109" lon="7.885103598277545"><ele>1182.0</ele><time>2026-05-03T08:33:10.999Z</time></trkpt><trkpt lat="44.10359073757539" lon="7.885194424423835"><ele>1182.6666666666667</ele><time>2026-05-03T08:33:11.999Z</time></trkpt><trkpt lat="44.10366346980419" lon="7.885298498215398"><ele>1183.3333333333335</ele><time>2026-05-03T08:33:12.999Z</time></trkpt><trkpt lat="44.10372307756585" lon="7.885349434890004"><ele>1184.0</ele><time>2026-05-03T08:33:13.999Z</time></trkpt><trkpt lat="44.10382816650695" lon="7.885408268484386"><ele>1184.0</ele><time>2026-05-03T08:33:15.999Z</time></trkpt><trkpt lat="44.103962863013265" lon="7.885426916818084"><ele>1184.0</ele><time>2026-05-03T08:33:17.999Z</time></trkpt><trkpt lat="44.10404545799216" lon="7.885455934216471"><ele>1184.0</ele><time>2026-05-03T08:33:18.999Z</time></trkpt><trkpt lat="44.10412072625661" lon="7.885479089201136"><ele>1184.0</ele><time>2026-05-03T08:33:19.999Z</time></trkpt><trkpt lat="44.10418459475534" lon="7.885489712319387"><ele>1184.0</ele><time>2026-05-03T08:33:20.999Z</time></trkpt><trkpt lat="44.10425157777411" lon="7.885504864299818"><ele>1184.0</ele><time>2026-05-03T08:33:21.999Z</time></trkpt><trkpt lat="44.10434295495674" lon="7.885521612042377"><ele>1187.6000000000001</ele><time>2026-05-03T08:33:22.999Z</time></trkpt><trkpt lat="44.10443166503172" lon="7.885548461739318"><ele>1191.2</ele><time>2026-05-03T08:33:23.999Z</time></trkpt><trkpt lat="44.10451392701298" lon="7.885562268498417"><ele>1194.8000000000002</ele><time>2026-05-03T08:33:24.999Z</time></trkpt><trkpt lat="44.10460327785149" lon="7.885600380958617"><ele>1198.4</ele><time>2026-05-03T08:33:26.999Z</time></trkpt><trkpt lat="44.10461463938789" lon="7.885794627894408"><ele>1202.0</ele><time>2026-05-03T08:33:28.999Z</time></trkpt><trkpt lat="44.10461095295045" lon="7.885924353743484"><ele>1201.1666666666667</ele><time>2026-05-03T08:33:29.999Z</time></trkpt><trkpt lat="44.10463174408105" lon="7.886043785100752"><ele>1200.3333333333335</ele><time>2026-05-03T08:33:30.999Z</time></trkpt><trkpt lat="44.1046577757763" lon="7.886150935036426"><ele>1199.5</ele><time>2026-05-03T08:33:31.999Z</time></trkpt><trkpt lat="44.104685694075435" lon="7.886269019423016"><ele>1198.6666666666667</ele><time>2026-05-03T08:33:32.999Z</time></trkpt><trkpt lat="44.10470941606714" lon="7.886393455040621"><ele>1197.8333333333333</ele><time>2026-05-03T08:33:33.999Z</time></trkpt><trkpt lat="44.104719806551685" lon="7.886490386692865"><ele>1197.0</ele><time>2026-05-03T08:33:34.999Z</time></trkpt><trkpt lat="44.10472630802246" lon="7.886584073825787"><ele>1197.0</ele><time>2026-05-03T08:33:35.999Z</time></trkpt><trkpt lat="44.10472898955375" lon="7.88667668037825"><ele>1197.0</ele><time>2026-05-03T08:33:36.999Z</time></trkpt><trkpt lat="44.104724221105805" lon="7.886799003828957"><ele>1197.0</ele><time>2026-05-03T08:33:38.999Z</time></trkpt><trkpt lat="44.10475305556922" lon="7.886925724007546"><ele>1197.0</ele><time>2026-05-03T08:36:26Z</time></trkpt><trkpt lat="44.10476640730224" lon="7.887019050557106"><ele>1197.0</ele><time>2026-05-03T08:36:28Z</time></trkpt><trkpt lat="44.104785146995916" lon="7.887146128400262"><ele>1197.0</ele><time>2026-05-03T08:36:37Z</time></trkpt><trkpt lat="44.10477676236813" lon="7.887243308977778"><ele>1194.6666666666667</ele><time>2026-05-03T08:36:39Z</time></trkpt><trkpt lat="44.104783629743736" lon="7.8873624352879075"><ele>1192.3333333333333</ele><time>2026-05-03T08:36:41Z</time></trkpt><trkpt lat="44.104810893837914" lon="7.887463061353594"><ele>1190.0</ele><time>2026-05-03T08:36:46Z</time></trkpt><trkpt lat="44.10482427103928" lon="7.887564942808424"><ele>1187.6666666666665</ele><time>2026-05-03T08:36:52Z</time></trkpt><trkpt lat="44.104829850118016" lon="7.887661983418937"><ele>1185.3333333333333</ele><time>2026-05-03T08:36:57Z</time></trkpt><trkpt lat="44.104840823620115" lon="7.887771714216552"><ele>1183.0</ele><time>2026-05-03T08:37:12Z</time></trkpt><trkpt lat="44.10484866533219" lon="7.887860965937703"><ele>1182.857142857143</ele><time>2026-05-03T08:37:19.999Z</time></trkpt><trkpt lat="44.10485752354015" lon="7.887969292281413"><ele>1182.7142857142858</ele><time>2026-05-03T08:37:24.999Z</time></trkpt><trkpt lat="44.104877641109645" lon="7.888065390849676"><ele>1182.5714285714284</ele><time>2026-05-03T08:37:27.999Z</time></trkpt><trkpt lat="44.10490818913672" lon="7.888169197750733"><ele>1182.4285714285716</ele><time>2026-05-03T08:37:30.999Z</time></trkpt><trkpt lat="44.10492961115263" lon="7.88825984425537"><ele>1182.2857142857142</ele><time>2026-05-03T08:37:33.999Z</time></trkpt><trkpt lat="44.10497178797113" lon="7.888351591024342"><ele>1182.142857142857</ele><time>2026-05-03T08:37:36.999Z</time></trkpt><trkpt lat="44.1049783106376" lon="7.888441400699094"><ele>1182.0</ele><time>2026-05-03T08:37:38.999Z</time></trkpt><trkpt lat="44.10500906320963" lon="7.888519672571426"><ele>1179.4</ele><time>2026-05-03T08:37:39.999Z</time></trkpt><trkpt lat="44.10506652011554" lon="7.88861326150136"><ele>1176.8000000000002</ele><time>2026-05-03T08:37:40.999Z</time></trkpt><trkpt lat="44.105095876123094" lon="7.888725872787626"><ele>1174.2</ele><time>2026-05-03T08:37:42.999Z</time></trkpt><trkpt lat="44.10515376873177" lon="7.888802644985595"><ele>1171.6000000000001</ele><time>2026-05-03T08:37:44.999Z</time></trkpt><trkpt lat="44.1052108123092" lon="7.888944713141526"><ele>1169.0</ele><time>2026-05-03T08:37:46.999Z</time></trkpt><trkpt lat="44.10527127688997" lon="7.889067543369433"><ele>1169.0</ele><time>2026-05-03T08:37:48.999Z</time></trkpt><trkpt lat="44.10533024020633" lon="7.889190311883108"><ele>1169.0</ele><time>2026-05-03T08:37:50.999Z</time></trkpt><trkpt lat="44.10537061411975" lon="7.889258284870737"><ele>1169.0</ele><time>2026-05-03T08:37:51.999Z</time></trkpt><trkpt lat="44.10543260100899" lon="7.889362052436051"><ele>1169.0</ele><time>2026-05-03T08:37:53.999Z</time></trkpt><trkpt lat="44.10546129519706" lon="7.889480432861892"><ele>1169.0</ele><time>2026-05-03T08:37:55.999Z</time></trkpt><trkpt lat="44.10548969166386" lon="7.889577080931659"><ele>1169.0</ele><time>2026-05-03T08:37:57.999Z</time></trkpt><trkpt lat="44.10550521718159" lon="7.889701584709715"><ele>1168.2</ele><time>2026-05-03T08:37:59.999Z</time></trkpt><trkpt lat="44.10556014981558" lon="7.8898505440263635"><ele>1167.4</ele><time>2026-05-03T08:38:01.999Z</time></trkpt><trkpt lat="44.1056263187645" lon="7.889965735303285"><ele>1166.6</ele><time>2026-05-03T08:38:03.999Z</time></trkpt><trkpt lat="44.10564717043619" lon="7.890093885313661"><ele>1165.8</ele><time>2026-05-03T08:38:05.999Z</time></trkpt><trkpt lat="44.10565615738636" lon="7.890211582209451"><ele>1165.0</ele><time>2026-05-03T08:38:07.999Z</time></trkpt><trkpt lat="44.10569019952465" lon="7.890294733896298"><ele>1163.0</ele><time>2026-05-03T08:38:09.999Z</time></trkpt><trkpt lat="44.10572226638574" lon="7.890430073975282"><ele>1161.0</ele><time>2026-05-03T08:38:11.999Z</time></trkpt><trkpt lat="44.105749101910355" lon="7.890525604901405"><ele>1159.0</ele><time>2026-05-03T08:38:12.999Z</time></trkpt><trkpt lat="44.10578975965668" lon="7.890630787624272"><ele>1157.0</ele><time>2026-05-03T08:38:13.999Z</time></trkpt><trkpt lat="44.1058165007861" lon="7.890735955500246"><ele>1155.0</ele><time>2026-05-03T08:38:14.999Z</time></trkpt><trkpt lat="44.10581829220254" lon="7.890903257091807"><ele>1159.6666666666667</ele><time>2026-05-03T08:38:16.999Z</time></trkpt><trkpt lat="44.105804951459845" lon="7.891049013066621"><ele>1164.3333333333333</ele><time>2026-05-03T08:38:18.999Z</time></trkpt><trkpt lat="44.10581988143855" lon="7.891229357591288"><ele>1169.0</ele><time>2026-05-03T08:38:20.999Z</time></trkpt><trkpt lat="44.105821184033985" lon="7.891321970945855"><ele>1173.6666666666665</ele><time>2026-05-03T08:38:21.999Z</time></trkpt><trkpt lat="44.10584061332935" lon="7.891412901443596"><ele>1178.3333333333333</ele><time>2026-05-03T08:38:22.999Z</time></trkpt><trkpt lat="44.105854710366906" lon="7.8915108041107125"><ele>1183.0</ele><time>2026-05-03T08:38:24Z</time></trkpt><trkpt lat="44.105850941540005" lon="7.891609373853306"><ele>1183.0</ele><time>2026-05-03T08:38:25Z</time></trkpt><trkpt lat="44.10583630947333" lon="7.891700788236889"><ele>1183.0</ele><time>2026-05-03T08:38:26Z</time></trkpt><trkpt lat="44.10578432873502" lon="7.891815874004126"><ele>1183.0</ele><time>2026-05-03T08:38:28Z</time></trkpt><trkpt lat="44.10580764064199" lon="7.891936936502771"><ele>1183.0</ele><time>2026-05-03T08:38:31Z</time></trkpt><trkpt lat="44.10582634255251" lon="7.892095623515247"><ele>1183.0</ele><time>2026-05-03T08:38:33Z</time></trkpt><trkpt lat="44.105839476610136" lon="7.892234013854245"><ele>1183.3333333333333</ele><time>2026-05-03T08:38:35Z</time></trkpt><trkpt lat="44.10587892426285" lon="7.892354719776911"><ele>1183.6666666666665</ele><time>2026-05-03T08:38:37Z</time></trkpt><trkpt lat="44.105882680810936" lon="7.892451467547074"><ele>1184.0</ele><time>2026-05-03T08:38:39Z</time></trkpt><trkpt lat="44.10584376225434" lon="7.892563470079741"><ele>1184.3333333333333</ele><time>2026-05-03T08:38:42Z</time></trkpt><trkpt lat="44.105815644354394" lon="7.892648639606266"><ele>1184.6666666666667</ele><time>2026-05-03T08:38:45Z</time></trkpt><trkpt lat="44.10578655392703" lon="7.892741331760404"><ele>1185.0</ele><time>2026-05-03T08:38:47Z</time></trkpt><trkpt lat="44.1057607217565" lon="7.892866364019989"><ele>1177.8333333333333</ele><time>2026-05-03T08:38:50Z</time></trkpt><trkpt lat="44.105743276987766" lon="7.8929653675952975"><ele>1170.6666666666667</ele><time>2026-05-03T08:38:53Z</time></trkpt><trkpt lat="44.10571310011336" lon="7.893106926038994"><ele>1163.5</ele><time>2026-05-03T08:38:55Z</time></trkpt><trkpt lat="44.10570008354065" lon="7.893199854631386"><ele>1156.3333333333335</ele><time>2026-05-03T08:38:57Z</time></trkpt><trkpt lat="44.105693834683066" lon="7.893288361651284"><ele>1149.1666666666667</ele><time>2026-05-03T08:38:59Z</time></trkpt><trkpt lat="44.1056649328327" lon="7.893390310626034"><ele>1142.0</ele><time>2026-05-03T08:39:02Z</time></trkpt><trkpt lat="44.105631819821184" lon="7.893493712061929"><ele>1141.3333333333335</ele><time>2026-05-03T08:39:03Z</time></trkpt><trkpt lat="44.10559150254817" lon="7.893593902040188"><ele>1140.6666666666667</ele><time>2026-05-03T08:39:27.999Z</time></trkpt><trkpt lat="44.10554058477029" lon="7.893676579585061"><ele>1140.0</ele><time>2026-05-03T08:39:29.999Z</time></trkpt><trkpt lat="44.10550776745654" lon="7.893778835752035"><ele>1139.3333333333333</ele><time>2026-05-03T08:39:31.999Z</time></trkpt><trkpt lat="44.10545985848196" lon="7.893881197149449"><ele>1138.6666666666665</ele><time>2026-05-03T08:39:34.999Z</time></trkpt><trkpt lat="44.10547941969839" lon="7.894040347147247"><ele>1138.0</ele><time>2026-05-03T08:39:36.999Z</time></trkpt><trkpt lat="44.105497846937254" lon="7.894125317529283"><ele>1138.0</ele><time>2026-05-03T08:39:37.999Z</time></trkpt><trkpt lat="44.10550022087311" lon="7.894213506327407"><ele>1138.0</ele><time>2026-05-03T08:39:38.999Z</time></trkpt><trkpt lat="44.10551474393792" lon="7.894342991832822"><ele>1138.0</ele><time>2026-05-03T08:39:40.999Z</time></trkpt><trkpt lat="44.10552899151303" lon="7.894447492679154"><ele>1138.0</ele><time>2026-05-03T08:39:42.999Z</time></trkpt><trkpt lat="44.105538045461365" lon="7.894568465078485"><ele>1138.0</ele><time>2026-05-03T08:39:44.999Z</time></trkpt><trkpt lat="44.105530911904374" lon="7.894662619520165"><ele>1138.0</ele><time>2026-05-03T08:39:45.999Z</time></trkpt><trkpt lat="44.105510737916205" lon="7.894759132507051"><ele>1137.2</ele><time>2026-05-03T08:39:46.999Z</time></trkpt><trkpt lat="44.105501863409884" lon="7.894924958426235"><ele>1136.4</ele><time>2026-05-03T08:39:48.999Z</time></trkpt><trkpt lat="44.10548924512424" lon="7.895012117175173"><ele>1135.6000000000001</ele><time>2026-05-03T08:39:49.999Z</time></trkpt><trkpt lat="44.105435737549506" lon="7.895176260045636"><ele>1134.8</ele><time>2026-05-03T08:39:51.999Z</time></trkpt><trkpt lat="44.10540475926703" lon="7.895283790643132"><ele>1134.0</ele><time>2026-05-03T08:39:52.999Z</time></trkpt><trkpt lat="44.105380177446094" lon="7.8953935404553555"><ele>1133.3333333333333</ele><time>2026-05-03T08:39:53.999Z</time></trkpt><trkpt lat="44.105362876375644" lon="7.895505259596445"><ele>1132.6666666666667</ele><time>2026-05-03T08:39:54.999Z</time></trkpt><trkpt lat="44.1053516225951" lon="7.8955970533520885"><ele>1132.0</ele><time>2026-05-03T08:39:55.999Z</time></trkpt><trkpt lat="44.10535763785622" lon="7.895701080913599"><ele>1131.3333333333335</ele><time>2026-05-03T08:39:56.999Z</time></trkpt><trkpt lat="44.105372620975636" lon="7.8958317345890725"><ele>1130.6666666666667</ele><time>2026-05-03T08:39:57.999Z</time></trkpt><trkpt lat="44.10537433214271" lon="7.895949378551956"><ele>1130.0</ele><time>2026-05-03T08:39:58.999Z</time></trkpt><trkpt lat="44.10536050684222" lon="7.896060773421621"><ele>1129.1666666666667</ele><time>2026-05-03T08:39:59.999Z</time></trkpt><trkpt lat="44.10533978060668" lon="7.89617366287214"><ele>1128.3333333333335</ele><time>2026-05-03T08:40:00.999Z</time></trkpt><trkpt lat="44.10531679671948" lon="7.896287718901069"><ele>1127.5</ele><time>2026-05-03T08:40:01.999Z</time></trkpt><trkpt lat="44.105283057592395" lon="7.896393748683714"><ele>1126.6666666666667</ele><time>2026-05-03T08:40:03.999Z</time></trkpt><trkpt lat="44.1052820604547" lon="7.896524689092444"><ele>1125.8333333333333</ele><time>2026-05-03T08:40:05.999Z</time></trkpt><trkpt lat="44.10528602860594" lon="7.8966323011706185"><ele>1125.0</ele><time>2026-05-03T08:40:06.999Z</time></trkpt><trkpt lat="44.10528928125539" lon="7.896742334044375"><ele>1123.1666666666667</ele><time>2026-05-03T08:40:07.999Z</time></trkpt><trkpt lat="44.105285234585885" lon="7.896833414849715"><ele>1121.3333333333333</ele><time>2026-05-03T08:40:08.999Z</time></trkpt><trkpt lat="44.10523832656676" lon="7.896995027186759"><ele>1119.5</ele><time>2026-05-03T08:40:10.999Z</time></trkpt><trkpt lat="44.10520152934877" lon="7.897072769200018"><ele>1117.6666666666665</ele><time>2026-05-03T08:40:11.999Z</time></trkpt><trkpt lat="44.10515767685183" lon="7.897145384446604"><ele>1115.8333333333333</ele><time>2026-05-03T08:40:12.999Z</time></trkpt><trkpt lat="44.10512002406012" lon="7.897218448219818"><ele>1114.0</ele><time>2026-05-03T08:40:13.999Z</time></trkpt><trkpt lat="44.105098337497694" lon="7.89734922609092"><ele>1114.0</ele><time>2026-05-03T08:40:15.999Z</time></trkpt><trkpt lat="44.10505781094073" lon="7.897426672783714"><ele>1114.0</ele><time>2026-05-03T08:40:20.999Z</time></trkpt><trkpt lat="44.10505072453066" lon="7.897522559948491"><ele>1114.0</ele><time>2026-05-03T08:40:44Z</time></trkpt><trkpt lat="44.105079927133524" lon="7.897607339394856"><ele>1114.0</ele><time>2026-05-03T08:40:48Z</time></trkpt><trkpt lat="44.10513089916183" lon="7.897716528226827"><ele>1114.0</ele><time>2026-05-03T08:40:52Z</time></trkpt><trkpt lat="44.10518388957323" lon="7.897772252036279"><ele>1114.0</ele><time>2026-05-03T08:40:54Z</time></trkpt><trkpt lat="44.105233367709126" lon="7.897845011790483"><ele>1114.0</ele><time>2026-05-03T08:40:56Z</time></trkpt><trkpt lat="44.10530703610618" lon="7.8979370623154415"><ele>1109.0</ele><time>2026-05-03T08:40:59Z</time></trkpt><trkpt lat="44.10537399757828" lon="7.898028980521382"><ele>1104.0</ele><time>2026-05-03T08:41:01Z</time></trkpt><trkpt lat="44.10543716891633" lon="7.898202471418168"><ele>1099.0</ele><time>2026-05-03T08:41:03Z</time></trkpt><trkpt lat="44.105469509459674" lon="7.898303438142261"><ele>1094.0</ele><time>2026-05-03T08:41:04Z</time></trkpt><trkpt lat="44.10550270639063" lon="7.898387657673507"><ele>1089.0</ele><time>2026-05-03T08:41:05Z</time></trkpt><trkpt lat="44.10555482701272" lon="7.89849072548599"><ele>1090.8333333333333</ele><time>2026-05-03T08:41:07Z</time></trkpt><trkpt lat="44.1055820251525" lon="7.898573460996922"><ele>1092.6666666666667</ele><time>2026-05-03T08:41:09Z</time></trkpt><trkpt lat="44.1056491620643" lon="7.898561472314998"><ele>1094.5</ele><time>2026-05-03T08:41:15Z</time></trkpt><trkpt lat="44.105695438574195" lon="7.898685242394139"><ele>1096.3333333333335</ele><time>2026-05-03T08:43:30Z</time></trkpt><trkpt lat="44.10576085332912" lon="7.898764977755505"><ele>1098.1666666666667</ele><time>2026-05-03T08:43:32Z</time></trkpt><trkpt lat="44.105834659601335" lon="7.898849359291587"><ele>1100.0</ele><time>2026-05-03T08:43:34Z</time></trkpt><trkpt lat="44.105903863542466" lon="7.898973895957622"><ele>1100.0</ele><time>2026-05-03T08:43:35.999Z</time></trkpt><trkpt lat="44.10594536606834" lon="7.899042137290631"><ele>1100.0</ele><time>2026-05-03T08:43:36.999Z</time></trkpt><trkpt lat="44.10602217107634" lon="7.8991616918444905"><ele>1100.0</ele><time>2026-05-03T08:43:38.999Z</time></trkpt><trkpt lat="44.10608664908585" lon="7.899271995383263"><ele>1100.0</ele><time>2026-05-03T08:43:40.999Z</time></trkpt><trkpt lat="44.10614115842139" lon="7.899328382262137"><ele>1100.0</ele><time>2026-05-03T08:43:41.999Z</time></trkpt><trkpt lat="44.10619644043711" lon="7.899392725269468"><ele>1100.0</ele><time>2026-05-03T08:43:42.999Z</time></trkpt><trkpt lat="44.10625198422274" lon="7.899460464680132"><ele>1100.5</ele><time>2026-05-03T08:43:43.999Z</time></trkpt><trkpt lat="44.10630390537443" lon="7.899526534658407"><ele>1101.0</ele><time>2026-05-03T08:43:44.999Z</time></trkpt><trkpt lat="44.106357260888" lon="7.899594945268332"><ele>1101.5</ele><time>2026-05-03T08:43:45.999Z</time></trkpt><trkpt lat="44.106401529423216" lon="7.899661281550461"><ele>1102.0</ele><time>2026-05-03T08:43:46.999Z</time></trkpt><trkpt lat="44.10644618444247" lon="7.899729063941288"><ele>1102.5</ele><time>2026-05-03T08:43:47.999Z</time></trkpt><trkpt lat="44.10652061505143" lon="7.899858218535363"><ele>1103.0</ele><time>2026-05-03T08:43:49.999Z</time></trkpt><trkpt lat="44.106555651562" lon="7.899996542058227"><ele>1110.0</ele><time>2026-05-03T08:43:51.999Z</time></trkpt><trkpt lat="44.10660216972275" lon="7.900092369716284"><ele>1117.0</ele><time>2026-05-03T08:43:53.999Z</time></trkpt><trkpt lat="44.106678088283964" lon="7.900228557822877"><ele>1124.0</ele><time>2026-05-03T08:43:55.999Z</time></trkpt><trkpt lat="44.106693163449435" lon="7.900370540214415"><ele>1131.0</ele><time>2026-05-03T08:43:57.999Z</time></trkpt><trkpt lat="44.10668328694886" lon="7.900458822165398"><ele>1138.0</ele><time>2026-05-03T08:43:58.999Z</time></trkpt><trkpt lat="44.10669701672026" lon="7.900714748539824"><ele>1138.0</ele><time>2026-05-03T08:44:00.999Z</time></trkpt><trkpt lat="44.10670937042037" lon="7.900854632849187"><ele>1138.0</ele><time>2026-05-03T08:44:01.999Z</time></trkpt><trkpt lat="44.106725992202556" lon="7.900955819475305"><ele>1138.0</ele><time>2026-05-03T08:44:02.999Z</time></trkpt><trkpt lat="44.106729988767846" lon="7.90109020387627"><ele>1138.0</ele><time>2026-05-03T08:44:03.999Z</time></trkpt><trkpt lat="44.1067390724825" lon="7.901228457683371"><ele>1138.0</ele><time>2026-05-03T08:44:04.999Z</time></trkpt><trkpt lat="44.10674774990379" lon="7.901348906390665"><ele>1138.0</ele><time>2026-05-03T08:44:05.999Z</time></trkpt><trkpt lat="44.10677064576865" lon="7.901532294919237"><ele>1138.0</ele><time>2026-05-03T08:44:07.999Z</time></trkpt><trkpt lat="44.106782790798256" lon="7.901625952599838"><ele>1138.0</ele><time>2026-05-03T08:44:08.999Z</time></trkpt><trkpt lat="44.106791740120464" lon="7.901734091816314"><ele>1138.0</ele><time>2026-05-03T08:44:09.999Z</time></trkpt><trkpt lat="44.106803161501524" lon="7.90184893926833"><ele>1138.0</ele><time>2026-05-03T08:44:10.999Z</time></trkpt><trkpt lat="44.106827751880985" lon="7.901969269709814"><ele>1137.1666666666665</ele><time>2026-05-03T08:44:11.999Z</time></trkpt><trkpt lat="44.106864864351905" lon="7.902085566339708"><ele>1136.3333333333333</ele><time>2026-05-03T08:44:12.999Z</time></trkpt><trkpt lat="44.10691196826218" lon="7.9021869480021385"><ele>1135.5</ele><time>2026-05-03T08:44:13.999Z</time></trkpt><trkpt lat="44.10694791793442" lon="7.902262076122491"><ele>1134.6666666666667</ele><time>2026-05-03T08:44:14.999Z</time></trkpt><trkpt lat="44.10698405942669" lon="7.9023371521900065"><ele>1133.8333333333335</ele><time>2026-05-03T08:44:15.999Z</time></trkpt><trkpt lat="44.10702567807985" lon="7.9024044310207975"><ele>1133.0</ele><time>2026-05-03T08:44:16.999Z</time></trkpt><trkpt lat="44.10707814201608" lon="7.902496766209421"><ele>1133.0</ele><time>2026-05-03T08:44:18.999Z</time></trkpt><trkpt lat="44.107134472472765" lon="7.902564446133719"><ele>1133.0</ele><time>2026-05-03T08:44:21.999Z</time></trkpt><trkpt lat="44.10720127890265" lon="7.902647890666841"><ele>1133.0</ele><time>2026-05-03T08:44:24.999Z</time></trkpt><trkpt lat="44.10724531681163" lon="7.902717721985053"><ele>1133.0</ele><time>2026-05-03T08:44:26.999Z</time></trkpt><trkpt lat="44.107312961036776" lon="7.902823191567383"><ele>1133.0</ele><time>2026-05-03T08:44:28.999Z</time></trkpt><trkpt lat="44.10738222127399" lon="7.902923060977896"><ele>1133.0</ele><time>2026-05-03T08:44:30.999Z</time></trkpt><trkpt lat="44.10746754089571" lon="7.903036060093994"><ele>1139.4</ele><time>2026-05-03T08:44:32.999Z</time></trkpt><trkpt lat="44.10755778257535" lon="7.903156846506322"><ele>1145.8</ele><time>2026-05-03T08:44:34.999Z</time></trkpt><trkpt lat="44.107650790405984" lon="7.903269374549611"><ele>1152.2</ele><time>2026-05-03T08:44:36.999Z</time></trkpt><trkpt lat="44.10771122990394" lon="7.903323975850779"><ele>1158.6</ele><time>2026-05-03T08:44:37.999Z</time></trkpt><trkpt lat="44.107763018076874" lon="7.9033750434521055"><ele>1165.0</ele><time>2026-05-03T08:44:38.999Z</time></trkpt><trkpt lat="44.10785021937884" lon="7.903475185397867"><ele>1165.0</ele><time>2026-05-03T08:44:40.999Z</time></trkpt><trkpt lat="44.10794481109679" lon="7.903565879958582"><ele>1165.0</ele><time>2026-05-03T08:44:43Z</time></trkpt><trkpt lat="44.108049701088646" lon="7.90367286799112"><ele>1165.0</ele><time>2026-05-03T08:44:45Z</time></trkpt><trkpt lat="44.10811954470308" lon="7.903735248687358"><ele>1165.0</ele><time>2026-05-03T08:44:46Z</time></trkpt><trkpt lat="44.108202360701334" lon="7.903810300527115"><ele>1165.0</ele><time>2026-05-03T08:44:47Z</time></trkpt><trkpt lat="44.108279182393076" lon="7.903883002761035"><ele>1168.6</ele><time>2026-05-03T08:44:48Z</time></trkpt><trkpt lat="44.10836196492441" lon="7.903941071446681"><ele>1172.2</ele><time>2026-05-03T08:44:49Z</time></trkpt><trkpt lat="44.108446777429435" lon="7.904046285422997"><ele>1175.8</ele><time>2026-05-03T08:44:51Z</time></trkpt><trkpt lat="44.1084913154109" lon="7.9041563245494695"><ele>1179.4</ele><time>2026-05-03T08:44:54Z</time></trkpt><trkpt lat="44.10851702208046" lon="7.904261197961986"><ele>1183.0</ele><time>2026-05-03T08:44:55Z</time></trkpt><trkpt lat="44.10851608729723" lon="7.904408020947044"><ele>1183.0</ele><time>2026-05-03T08:44:57Z</time></trkpt><trkpt lat="44.10852126513716" lon="7.904501624804895"><ele>1183.0</ele><time>2026-05-03T08:44:58Z</time></trkpt><trkpt lat="44.10851434932282" lon="7.904663609069817"><ele>1183.0</ele><time>2026-05-03T08:45:00Z</time></trkpt><trkpt lat="44.10850567887171" lon="7.904834822580396"><ele>1183.0</ele><time>2026-05-03T08:45:02Z</time></trkpt><trkpt lat="44.108503318429115" lon="7.905008905119927"><ele>1183.0</ele><time>2026-05-03T08:45:04Z</time></trkpt><trkpt lat="44.10850070756852" lon="7.905097223054897"><ele>1180.2</ele><time>2026-05-03T08:45:05Z</time></trkpt><trkpt lat="44.10849525206865" lon="7.905254273779794"><ele>1177.4</ele><time>2026-05-03T08:45:07Z</time></trkpt><trkpt lat="44.10849630067955" lon="7.905395261978943"><ele>1174.6000000000001</ele><time>2026-05-03T08:45:09Z</time></trkpt><trkpt lat="44.1085053255616" lon="7.905518237204245"><ele>1171.8</ele><time>2026-05-03T08:45:11Z</time></trkpt><trkpt lat="44.10851565925881" lon="7.905629233345167"><ele>1169.0</ele><time>2026-05-03T08:45:13Z</time></trkpt><trkpt lat="44.1085262232623" lon="7.905761232358372"><ele>1169.0</ele><time>2026-05-03T08:45:15Z</time></trkpt><trkpt lat="44.10851903768282" lon="7.905869996532717"><ele>1169.0</ele><time>2026-05-03T08:45:16Z</time></trkpt><trkpt lat="44.10851775204552" lon="7.906004057423577"><ele>1169.0</ele><time>2026-05-03T08:45:18Z</time></trkpt><trkpt lat="44.10854557771505" lon="7.9061235287283935"><ele>1169.0</ele><time>2026-05-03T08:45:35.999Z</time></trkpt><trkpt lat="44.10855841276135" lon="7.906235670308684"><ele>1169.0</ele><time>2026-05-03T08:45:36.999Z</time></trkpt><trkpt lat="44.10857233536642" lon="7.906327564404264"><ele>1169.0</ele><time>2026-05-03T08:45:37.999Z</time></trkpt><trkpt lat="44.108590234894514" lon="7.906422984414356"><ele>1170.0</ele><time>2026-05-03T08:45:38.999Z</time></trkpt><trkpt lat="44.10861363225388" lon="7.906521346729908"><ele>1171.0</ele><time>2026-05-03T08:45:39.999Z</time></trkpt><trkpt lat="44.1086140779851" lon="7.906620159579157"><ele>1172.0</ele><time>2026-05-03T08:45:40.999Z</time></trkpt><trkpt lat="44.10861077868676" lon="7.906708124384166"><ele>1173.0</ele><time>2026-05-03T08:45:41.999Z</time></trkpt><trkpt lat="44.108629228527754" lon="7.90686342512463"><ele>1174.0</ele><time>2026-05-03T08:45:43.999Z</time></trkpt><trkpt lat="44.10864888152537" lon="7.907014463199029"><ele>1175.0</ele><time>2026-05-03T08:45:45.999Z</time></trkpt><trkpt lat="44.10867952928966" lon="7.9071322671524"><ele>1180.2</ele><time>2026-05-03T08:45:47.999Z</time></trkpt><trkpt lat="44.10871120815642" lon="7.907258207728592"><ele>1185.4</ele><time>2026-05-03T08:45:49.999Z</time></trkpt><trkpt lat="44.10873772191513" lon="7.907386846519047"><ele>1190.6</ele><time>2026-05-03T08:45:51.999Z</time></trkpt><trkpt lat="44.10874489233657" lon="7.907540347746108"><ele>1195.8</ele><time>2026-05-03T08:45:53.999Z</time></trkpt><trkpt lat="44.108724080205356" lon="7.907699269001782"><ele>1201.0</ele><time>2026-05-03T08:45:55.999Z</time></trkpt><trkpt lat="44.108677512352614" lon="7.907829462859155"><ele>1204.3999999999999</ele><time>2026-05-03T08:45:57.999Z</time></trkpt><trkpt lat="44.10861364074897" lon="7.907936146208467"><ele>1207.8</ele><time>2026-05-03T08:45:59.999Z</time></trkpt><trkpt lat="44.10858711883393" lon="7.908059660350751"><ele>1211.1999999999998</ele><time>2026-05-03T08:46:52Z</time></trkpt><trkpt lat="44.108533169257825" lon="7.908137521154878"><ele>1214.6</ele><time>2026-05-03T08:46:53Z</time></trkpt><trkpt lat="44.108461022914234" lon="7.908248316284207"><ele>1218.0</ele><time>2026-05-03T08:46:54Z</time></trkpt><trkpt lat="44.108379980986804" lon="7.908378481454872"><ele>1218.2</ele><time>2026-05-03T08:46:55Z</time></trkpt><trkpt lat="44.10831676571087" lon="7.908470642405194"><ele>1218.4</ele><time>2026-05-03T08:46:56Z</time></trkpt><trkpt lat="44.108227674616025" lon="7.908599812125007"><ele>1218.6000000000001</ele><time>2026-05-03T08:46:58Z</time></trkpt><trkpt lat="44.108191910401324" lon="7.908690080653362"><ele>1218.8</ele><time>2026-05-03T08:46:59Z</time></trkpt><trkpt lat="44.10817156746874" lon="7.908791119381631"><ele>1219.0</ele><time>2026-05-03T08:47:00Z</time></trkpt><trkpt lat="44.108172482306976" lon="7.9089062446218685"><ele>1218.0</ele><time>2026-05-03T08:47:01Z</time></trkpt><trkpt lat="44.10818563672628" lon="7.909015582040008"><ele>1217.0</ele><time>2026-05-03T08:47:02Z</time></trkpt><trkpt lat="44.10820209397471" lon="7.909111703026138"><ele>1216.0</ele><time>2026-05-03T08:47:03Z</time></trkpt><trkpt lat="44.10821871485402" lon="7.9092060516968274"><ele>1215.0</ele><time>2026-05-03T08:47:04Z</time></trkpt><trkpt lat="44.10822459024286" lon="7.90930932531029"><ele>1214.0</ele><time>2026-05-03T08:47:05Z</time></trkpt><trkpt lat="44.10822753325509" lon="7.909405275688844"><ele>1213.0</ele><time>2026-05-03T08:47:06Z</time></trkpt><trkpt lat="44.10825848461128" lon="7.909589269182361"><ele>1213.0</ele><time>2026-05-03T08:47:08Z</time></trkpt><trkpt lat="44.108291809321216" lon="7.909683493282532"><ele>1213.0</ele><time>2026-05-03T08:47:09Z</time></trkpt><trkpt lat="44.108311540802866" lon="7.9097841968542495"><ele>1213.0</ele><time>2026-05-03T08:47:10Z</time></trkpt><trkpt lat="44.108331741409465" lon="7.909886455293973"><ele>1213.0</ele><time>2026-05-03T08:47:11Z</time></trkpt><trkpt lat="44.108354013909135" lon="7.909988189228524"><ele>1213.0</ele><time>2026-05-03T08:47:12Z</time></trkpt><trkpt lat="44.10837050086073" lon="7.910098123347106"><ele>1213.0</ele><time>2026-05-03T08:47:13Z</time></trkpt><trkpt lat="44.1083898218486" lon="7.910205368116943"><ele>1212.3333333333333</ele><time>2026-05-03T08:47:14Z</time></trkpt><trkpt lat="44.10840992709285" lon="7.910315204169048"><ele>1211.6666666666665</ele><time>2026-05-03T08:47:15Z</time></trkpt><trkpt lat="44.10843591905586" lon="7.910426157650649"><ele>1211.0</ele><time>2026-05-03T08:47:16Z</time></trkpt><trkpt lat="44.108464185334775" lon="7.910536779760127"><ele>1210.3333333333333</ele><time>2026-05-03T08:47:17Z</time></trkpt><trkpt lat="44.108496623792114" lon="7.910643870062269"><ele>1209.6666666666667</ele><time>2026-05-03T08:47:18Z</time></trkpt><trkpt lat="44.10853133061749" lon="7.910747650900473"><ele>1209.0</ele><time>2026-05-03T08:47:19Z</time></trkpt><trkpt lat="44.1085716492745" lon="7.910842501376824"><ele>1208.3333333333333</ele><time>2026-05-03T08:47:20Z</time></trkpt><trkpt lat="44.10861114946204" lon="7.910938049519878"><ele>1207.6666666666667</ele><time>2026-05-03T08:47:21Z</time></trkpt><trkpt lat="44.10865810520407" lon="7.911030401189295"><ele>1207.0</ele><time>2026-05-03T08:47:22Z</time></trkpt><trkpt lat="44.1087073768642" lon="7.911129867941663"><ele>1206.3333333333335</ele><time>2026-05-03T08:47:23Z</time></trkpt><trkpt lat="44.10874996763327" lon="7.911226193697715"><ele>1205.6666666666667</ele><time>2026-05-03T08:47:24Z</time></trkpt><trkpt lat="44.108790954285325" lon="7.91131783006385"><ele>1205.0</ele><time>2026-05-03T08:47:25Z</time></trkpt><trkpt lat="44.10883594133851" lon="7.911416671544889"><ele>1205.0</ele><time>2026-05-03T08:47:26Z</time></trkpt><trkpt lat="44.10887142611629" lon="7.911529984666445"><ele>1205.0</ele><time>2026-05-03T08:47:27Z</time></trkpt><trkpt lat="44.10889691943047" lon="7.911679802914221"><ele>1205.0</ele><time>2026-05-03T08:47:28Z</time></trkpt><trkpt lat="44.1089311188301" lon="7.911822419779716"><ele>1205.0</ele><time>2026-05-03T08:47:29Z</time></trkpt><trkpt lat="44.1089633632727" lon="7.911946759658745"><ele>1205.0</ele><time>2026-05-03T08:47:30Z</time></trkpt><trkpt lat="44.10899457971085" lon="7.912066270102556"><ele>1204.2</ele><time>2026-05-03T08:47:31Z</time></trkpt><trkpt lat="44.10903343814449" lon="7.912189257210861"><ele>1203.4</ele><time>2026-05-03T08:47:32Z</time></trkpt><trkpt lat="44.109082359069404" lon="7.912310408081577"><ele>1202.6</ele><time>2026-05-03T08:47:33Z</time></trkpt><trkpt lat="44.10913620964116" lon="7.912427285572032"><ele>1201.8</ele><time>2026-05-03T08:47:34Z</time></trkpt><trkpt lat="44.109189861294226" lon="7.912529744081358"><ele>1201.0</ele><time>2026-05-03T08:47:35Z</time></trkpt><trkpt lat="44.109250656756494" lon="7.91262787532894"><ele>1207.1666666666665</ele><time>2026-05-03T08:47:36Z</time></trkpt><trkpt lat="44.109287973803816" lon="7.9127486914193765"><ele>1213.3333333333333</ele><time>2026-05-03T08:47:37Z</time></trkpt><trkpt lat="44.1093200663866" lon="7.912850984996796"><ele>1219.5</ele><time>2026-05-03T08:47:38Z</time></trkpt><trkpt lat="44.10933497226265" lon="7.912966328784574"><ele>1225.6666666666667</ele><time>2026-05-03T08:47:39Z</time></trkpt><trkpt lat="44.10932865065806" lon="7.913076921846891"><ele>1231.8333333333335</ele><time>2026-05-03T08:47:40Z</time></trkpt><trkpt lat="44.10931917029349" lon="7.913192292391027"><ele>1238.0</ele><time>2026-05-03T08:47:41Z</time></trkpt><trkpt lat="44.10931854124988" lon="7.913313069990857"><ele>1238.0</ele><time>2026-05-03T08:47:41.999Z</time></trkpt><trkpt lat="44.10932504160174" lon="7.913427235236913"><ele>1238.0</ele><time>2026-05-03T08:47:42.999Z</time></trkpt><trkpt lat="44.109340697219" lon="7.913546841295176"><ele>1238.0</ele><time>2026-05-03T08:47:43.999Z</time></trkpt><trkpt lat="44.10936567161974" lon="7.91365077943393"><ele>1238.0</ele><time>2026-05-03T08:47:44.999Z</time></trkpt><trkpt lat="44.109387815842936" lon="7.913757997805103"><ele>1238.0</ele><time>2026-05-03T08:47:45.999Z</time></trkpt><trkpt lat="44.10939023311321" lon="7.913857710535695"><ele>1238.0</ele><time>2026-05-03T08:47:46.999Z</time></trkpt><trkpt lat="44.10937208887468" lon="7.913942733308905"><ele>1238.0</ele><time>2026-05-03T08:47:47.999Z</time></trkpt><trkpt lat="44.109345655859435" lon="7.914026658160949"><ele>1238.0</ele><time>2026-05-03T08:47:48.999Z</time></trkpt><trkpt lat="44.10932911842187" lon="7.914117101441029"><ele>1238.0</ele><time>2026-05-03T08:47:49.999Z</time></trkpt><trkpt lat="44.10931123257645" lon="7.914225550859198"><ele>1238.0</ele><time>2026-05-03T08:47:50.999Z</time></trkpt><trkpt lat="44.109290348821034" lon="7.914327535169851"><ele>1238.0</ele><time>2026-05-03T08:47:51.999Z</time></trkpt><trkpt lat="44.10927530502093" lon="7.914433663789866"><ele>1238.0</ele><time>2026-05-03T08:47:52.999Z</time></trkpt><trkpt lat="44.10926094882313" lon="7.914548767593387"><ele>1237.8333333333335</ele><time>2026-05-03T08:47:53.999Z</time></trkpt><trkpt lat="44.109241148173155" lon="7.914661925702868"><ele>1237.6666666666667</ele><time>2026-05-03T08:47:54.999Z</time></trkpt><trkpt lat="44.109222740205624" lon="7.9147767328243965"><ele>1237.5</ele><time>2026-05-03T08:47:55.999Z</time></trkpt><trkpt lat="44.10921147029007" lon="7.914871164179658"><ele>1237.3333333333333</ele><time>2026-05-03T08:47:56.999Z</time></trkpt><trkpt lat="44.10918497878128" lon="7.914970550256002"><ele>1237.1666666666665</ele><time>2026-05-03T08:47:57.999Z</time></trkpt><trkpt lat="44.10916522034142" lon="7.91506556825458"><ele>1237.0</ele><time>2026-05-03T08:47:58.999Z</time></trkpt><trkpt lat="44.109150316654166" lon="7.915165668556795"><ele>1238.5</ele><time>2026-05-03T08:47:59.999Z</time></trkpt><trkpt lat="44.109154429772644" lon="7.915262307937777"><ele>1240.0</ele><time>2026-05-03T08:48:00.999Z</time></trkpt><trkpt lat="44.10917223217798" lon="7.915371235641146"><ele>1241.5</ele><time>2026-05-03T08:48:01.999Z</time></trkpt><trkpt lat="44.10919150519113" lon="7.915471927746938"><ele>1243.0</ele><time>2026-05-03T08:48:02.999Z</time></trkpt><trkpt lat="44.10921365788486" lon="7.915578204135242"><ele>1244.5</ele><time>2026-05-03T08:48:03.999Z</time></trkpt><trkpt lat="44.10924369533884" lon="7.915681589547809"><ele>1246.0</ele><time>2026-05-03T08:48:04.999Z</time></trkpt><trkpt lat="44.109270694803854" lon="7.915801611874444"><ele>1246.8</ele><time>2026-05-03T08:48:05.999Z</time></trkpt><trkpt lat="44.109286517289945" lon="7.915924329120473"><ele>1247.6</ele><time>2026-05-03T08:48:06.999Z</time></trkpt><trkpt lat="44.10927249091301" lon="7.916041275355869"><ele>1248.4</ele><time>2026-05-03T08:48:07.999Z</time></trkpt><trkpt lat="44.10923948871032" lon="7.916176167766843"><ele>1249.2</ele><time>2026-05-03T08:48:08.999Z</time></trkpt><trkpt lat="44.10920393180831" lon="7.916298345722079"><ele>1250.0</ele><time>2026-05-03T08:48:09.999Z</time></trkpt><trkpt lat="44.10917203142481" lon="7.91640906741948"><ele>1250.0</ele><time>2026-05-03T08:48:10.999Z</time></trkpt><trkpt lat="44.10914660173418" lon="7.916527223328853"><ele>1250.0</ele><time>2026-05-03T08:48:11.999Z</time></trkpt><trkpt lat="44.109126008408076" lon="7.916667386188974"><ele>1250.0</ele><time>2026-05-03T08:48:12.999Z</time></trkpt><trkpt lat="44.10910723685745" lon="7.91681117754572"><ele>1250.0</ele><time>2026-05-03T08:48:13.999Z</time></trkpt><trkpt lat="44.10909480589184" lon="7.916931860643588"><ele>1250.0</ele><time>2026-05-03T08:48:14.999Z</time></trkpt><trkpt lat="44.10906673462645" lon="7.917102559146578"><ele>1247.2</ele><time>2026-05-03T08:48:16.999Z</time></trkpt><trkpt lat="44.10904689097844" lon="7.917221317013205"><ele>1244.4</ele><time>2026-05-03T08:48:17.999Z</time></trkpt><trkpt lat="44.10900950147237" lon="7.917355822190307"><ele>1241.6</ele><time>2026-05-03T08:48:18.999Z</time></trkpt><trkpt lat="44.10897932486178" lon="7.917499671380034"><ele>1238.8</ele><time>2026-05-03T08:48:19.999Z</time></trkpt><trkpt lat="44.10895763115821" lon="7.917624749628176"><ele>1236.0</ele><time>2026-05-03T08:48:20.999Z</time></trkpt><trkpt lat="44.10894179635921" lon="7.917735891765794"><ele>1236.0</ele><time>2026-05-03T08:48:21.999Z</time></trkpt><trkpt lat="44.10893231905173" lon="7.917843053668764"><ele>1236.0</ele><time>2026-05-03T08:48:22.999Z</time></trkpt><trkpt lat="44.10893832553064" lon="7.917979741480888"><ele>1236.0</ele><time>2026-05-03T08:48:24.999Z</time></trkpt><trkpt lat="44.1089309117303" lon="7.918096316393492"><ele>1236.0</ele><time>2026-05-03T08:48:29.999Z</time></trkpt><trkpt lat="44.10891008401593" lon="7.918200101561222"><ele>1236.0</ele><time>2026-05-03T08:48:38.999Z</time></trkpt><trkpt lat="44.10894462929414" lon="7.918296034641383"><ele>1236.0</ele><time>2026-05-03T08:48:41.999Z</time></trkpt><trkpt lat="44.10898154747701" lon="7.918440813585073"><ele>1237.6666666666667</ele><time>2026-05-03T08:48:43.999Z</time></trkpt><trkpt lat="44.108996885317595" lon="7.918542993087683"><ele>1239.3333333333333</ele><time>2026-05-03T08:48:44.999Z</time></trkpt><trkpt lat="44.10902081063811" lon="7.918660023158202"><ele>1241.0</ele><time>2026-05-03T08:48:45.999Z</time></trkpt><trkpt lat="44.10904163858001" lon="7.918798794993096"><ele>1242.6666666666665</ele><time>2026-05-03T08:48:46.999Z</time></trkpt><trkpt lat="44.10905421589831" lon="7.91892947630976"><ele>1244.3333333333333</ele><time>2026-05-03T08:48:47.999Z</time></trkpt><trkpt lat="44.109053587202666" lon="7.919041195750558"><ele>1246.0</ele><time>2026-05-03T08:48:48.999Z</time></trkpt><trkpt lat="44.109048939330826" lon="7.919144839328504"><ele>1247.0</ele><time>2026-05-03T08:48:49.999Z</time></trkpt><trkpt lat="44.1090359761883" lon="7.919237645903602"><ele>1248.0</ele><time>2026-05-03T08:48:50.999Z</time></trkpt><trkpt lat="44.108972371161954" lon="7.919371968209901"><ele>1249.0</ele><time>2026-05-03T08:48:52.999Z</time></trkpt><trkpt lat="44.10890652217466" lon="7.9195083462330595"><ele>1250.0</ele><time>2026-05-03T08:48:55Z</time></trkpt><trkpt lat="44.108871108245175" lon="7.919582774336546"><ele>1251.0</ele><time>2026-05-03T08:48:56Z</time></trkpt><trkpt lat="44.10883109359992" lon="7.919667798111578"><ele>1252.0</ele><time>2026-05-03T08:48:57Z</time></trkpt><trkpt lat="44.10878429212651" lon="7.919781315050898"><ele>1252.0</ele><time>2026-05-03T08:48:58Z</time></trkpt><trkpt lat="44.10875008898734" lon="7.919898864542843"><ele>1252.0</ele><time>2026-05-03T08:48:59Z</time></trkpt><trkpt lat="44.10873717913941" lon="7.919995320195911"><ele>1252.0</ele><time>2026-05-03T08:49:00Z</time></trkpt><trkpt lat="44.1087311592743" lon="7.920158385156223"><ele>1252.0</ele><time>2026-05-03T08:49:02Z</time></trkpt><trkpt lat="44.1087181473237" lon="7.920253646369776"><ele>1252.0</ele><time>2026-05-03T08:49:04Z</time></trkpt><trkpt lat="44.10868234454224" lon="7.920415936452299"><ele>1254.0</ele><time>2026-05-03T08:54:25.999Z</time></trkpt><trkpt lat="44.108649783448726" lon="7.920561061391354"><ele>1256.0</ele><time>2026-05-03T08:54:27.999Z</time></trkpt><trkpt lat="44.108607869678536" lon="7.920701166148843"><ele>1258.0</ele><time>2026-05-03T08:54:29.999Z</time></trkpt><trkpt lat="44.108587464672894" lon="7.920805163592968"><ele>1260.0</ele><time>2026-05-03T08:54:31.999Z</time></trkpt><trkpt lat="44.10853450098461" lon="7.9208676389377475"><ele>1262.0</ele><time>2026-05-03T08:54:37.999Z</time></trkpt><trkpt lat="44.10853946598855" lon="7.920973526149744"><ele>1264.0</ele><time>2026-05-03T08:54:43.999Z</time></trkpt><trkpt lat="44.108603252526066" lon="7.920993318016074"><ele>1267.0</ele><time>2026-05-03T08:54:48.999Z</time></trkpt><trkpt lat="44.10867305394788" lon="7.920945185861113"><ele>1270.0</ele><time>2026-05-03T08:54:51.999Z</time></trkpt><trkpt lat="44.108762806696454" lon="7.920991722563191"><ele>1273.0</ele><time>2026-05-03T08:54:54.999Z</time></trkpt><trkpt lat="44.108794521034525" lon="7.921095700553638"><ele>1276.0</ele><time>2026-05-03T08:54:56.999Z</time></trkpt><trkpt lat="44.108843342433985" lon="7.921176643102277"><ele>1279.0</ele><time>2026-05-03T08:54:58.999Z</time></trkpt><trkpt lat="44.108906976256485" lon="7.921296605905286"><ele>1282.0</ele><time>2026-05-03T08:55:00.999Z</time></trkpt><trkpt lat="44.108965828700256" lon="7.921428243457471"><ele>1282.0</ele><time>2026-05-03T08:55:02.999Z</time></trkpt><trkpt lat="44.10902918246213" lon="7.92157487259755"><ele>1282.0</ele><time>2026-05-03T08:55:04.999Z</time></trkpt><trkpt lat="44.10910535856377" lon="7.921681876545689"><ele>1282.0</ele><time>2026-05-03T08:55:06.999Z</time></trkpt><trkpt lat="44.10918500006194" lon="7.921798775739147"><ele>1282.0</ele><time>2026-05-03T08:55:08.999Z</time></trkpt><trkpt lat="44.10922929623823" lon="7.921925284694456"><ele>1282.0</ele><time>2026-05-03T08:55:10.999Z</time></trkpt><trkpt lat="44.10929260521815" lon="7.921952659056208"><ele>1287.8</ele><time>2026-05-03T08:55:13Z</time></trkpt><trkpt lat="44.10938134268457" lon="7.92204837183694"><ele>1293.6</ele><time>2026-05-03T08:55:15Z</time></trkpt><trkpt lat="44.1094412597823" lon="7.922185620921889"><ele>1299.3999999999999</ele><time>2026-05-03T08:55:17Z</time></trkpt><trkpt lat="44.10949092495674" lon="7.922319112844607"><ele>1305.1999999999998</ele><time>2026-05-03T08:55:19Z</time></trkpt><trkpt lat="44.10952829034212" lon="7.9224425767806705"><ele>1311.0</ele><time>2026-05-03T08:55:21Z</time></trkpt><trkpt lat="44.109552132924975" lon="7.922553061147808"><ele>1313.3333333333333</ele><time>2026-05-03T08:55:23Z</time></trkpt><trkpt lat="44.10957735732144" lon="7.922710694759336"><ele>1315.6666666666667</ele><time>2026-05-03T08:55:25Z</time></trkpt><trkpt lat="44.10959442251361" lon="7.922807855142897"><ele>1318.0</ele><time>2026-05-03T08:55:27Z</time></trkpt><trkpt lat="44.10957307093077" lon="7.922935142646132"><ele>1320.3333333333335</ele><time>2026-05-03T08:55:29Z</time></trkpt><trkpt lat="44.10951409031291" lon="7.923012733892806"><ele>1322.6666666666667</ele><time>2026-05-03T08:55:31Z</time></trkpt><trkpt lat="44.10946255596314" lon="7.92306519726293"><ele>1325.0</ele><time>2026-05-03T08:55:33Z</time></trkpt><trkpt lat="44.109477165535736" lon="7.923206923029422"><ele>1325.0</ele><time>2026-05-03T08:55:35Z</time></trkpt><trkpt lat="44.109461488294826" lon="7.923343367638856"><ele>1325.0</ele><time>2026-05-03T08:55:37Z</time></trkpt><trkpt lat="44.1094092212472" lon="7.923409982302565"><ele>1325.0</ele><time>2026-05-03T08:55:39Z</time></trkpt><trkpt lat="44.10946875833099" lon="7.923490239217785"><ele>1325.0</ele><time>2026-05-03T08:55:41Z</time></trkpt><trkpt lat="44.109459926328206" lon="7.92361880207668"><ele>1325.0</ele><time>2026-05-03T08:55:45Z</time></trkpt><trkpt lat="44.10950894110145" lon="7.9236953317632475"><ele>1325.0</ele><time>2026-05-03T08:55:48Z</time></trkpt><trkpt lat="44.109480411971866" lon="7.923809806271944"><ele>1327.6</ele><time>2026-05-03T08:55:51Z</time></trkpt><trkpt lat="44.10949065251345" lon="7.923925791382903"><ele>1330.2</ele><time>2026-05-03T08:55:54Z</time></trkpt><trkpt lat="44.10944542519919" lon="7.923995697934651"><ele>1332.8000000000002</ele><time>2026-05-03T08:55:56Z</time></trkpt><trkpt lat="44.10954679248871" lon="7.924073210423389"><ele>1335.4</ele><time>2026-05-03T08:55:58Z</time></trkpt><trkpt lat="44.10961741515903" lon="7.92418796335756"><ele>1338.0</ele><time>2026-05-03T08:56:00Z</time></trkpt><trkpt lat="44.10969256870408" lon="7.92420794595809"><ele>1338.0</ele><time>2026-05-03T08:56:02Z</time></trkpt><trkpt lat="44.10979871234606" lon="7.924150377048769"><ele>1338.0</ele><time>2026-05-03T08:56:04Z</time></trkpt><trkpt lat="44.10987650513577" lon="7.924194122443719"><ele>1338.0</ele><time>2026-05-03T08:56:07Z</time></trkpt><trkpt lat="44.1099700609126" lon="7.924223620617377"><ele>1338.0</ele><time>2026-05-03T08:56:09Z</time></trkpt><trkpt lat="44.110034077067404" lon="7.924296656586125"><ele>1338.0</ele><time>2026-05-03T08:56:10.999Z</time></trkpt><trkpt lat="44.11011295144927" lon="7.924322248711199"><ele>1341.6666666666667</ele><time>2026-05-03T08:56:14.999Z</time></trkpt><trkpt lat="44.11017502868635" lon="7.924372647100173"><ele>1345.3333333333333</ele><time>2026-05-03T08:56:31.999Z</time></trkpt><trkpt lat="44.1102664139888" lon="7.924457451289344"><ele>1349.0</ele><time>2026-05-03T08:56:33.999Z</time></trkpt><trkpt lat="44.110325062173345" lon="7.924532001813779"><ele>1352.6666666666665</ele><time>2026-05-03T08:56:35.999Z</time></trkpt><trkpt lat="44.11039209971259" lon="7.924500846955295"><ele>1356.3333333333333</ele><time>2026-05-03T08:56:37.999Z</time></trkpt><trkpt lat="44.11046044398006" lon="7.924491745118682"><ele>1360.0</ele><time>2026-05-03T08:56:40.999Z</time></trkpt><trkpt lat="44.11049386747816" lon="7.924619180030248"><ele>1360.0</ele><time>2026-05-03T08:56:43.999Z</time></trkpt><trkpt lat="44.11046168036141" lon="7.92470328602545"><ele>1360.0</ele><time>2026-05-03T08:56:45.999Z</time></trkpt><trkpt lat="44.11058510938987" lon="7.924757313212792"><ele>1360.0</ele><time>2026-05-03T08:57:40Z</time></trkpt><trkpt lat="44.110521156478995" lon="7.924756523767312"><ele>1360.0</ele><time>2026-05-03T08:57:54Z</time></trkpt><trkpt lat="44.110480674124524" lon="7.924681283716099"><ele>1360.0</ele><time>2026-05-03T08:58:10Z</time></trkpt><trkpt lat="44.11049170894157" lon="7.924844266649874"><ele>1360.0</ele><time>2026-05-03T09:01:08.999Z</time></trkpt><trkpt lat="44.110410042602574" lon="7.924810958512958"><ele>1360.0</ele><time>2026-05-03T09:01:20.999Z</time></trkpt><trkpt lat="44.11031991874698" lon="7.924799012652059"><ele>1360.0</ele><time>2026-05-03T09:01:23.999Z</time></trkpt><trkpt lat="44.11024380165267" lon="7.924761683371822"><ele>1360.0</ele><time>2026-05-03T09:01:25.999Z</time></trkpt><trkpt lat="44.11015974881793" lon="7.924721165891955"><ele>1360.0</ele><time>2026-05-03T09:01:27.999Z</time></trkpt><trkpt lat="44.110066338429014" lon="7.924707531276064"><ele>1360.0</ele><time>2026-05-03T09:01:30Z</time></trkpt><trkpt lat="44.10997592006374" lon="7.924687234981385"><ele>1360.0</ele><time>2026-05-03T09:01:32Z</time></trkpt><trkpt lat="44.10990552825649" lon="7.924656080334001"><ele>1356.8</ele><time>2026-05-03T09:01:34Z</time></trkpt><trkpt lat="44.10979136190546" lon="7.924680725455122"><ele>1353.6</ele><time>2026-05-03T09:01:36Z</time></trkpt><trkpt lat="44.109694896436324" lon="7.9247085381354365"><ele>1350.4</ele><time>2026-05-03T09:01:38Z</time></trkpt><trkpt lat="44.109602748684246" lon="7.92467448287798"><ele>1347.2</ele><time>2026-05-03T09:01:40Z</time></trkpt><trkpt lat="44.10949268385992" lon="7.924705512515733"><ele>1344.0</ele><time>2026-05-03T09:01:42Z</time></trkpt><trkpt lat="44.10941645405254" lon="7.924672378512505"><ele>1344.0</ele><time>2026-05-03T09:01:43Z</time></trkpt><trkpt lat="44.10934995910965" lon="7.924604319892855"><ele>1344.0</ele><time>2026-05-03T09:01:44Z</time></trkpt><trkpt lat="44.10924933822357" lon="7.924569697719708"><ele>1344.0</ele><time>2026-05-03T09:01:46Z</time></trkpt><trkpt lat="44.10914872262514" lon="7.924559000152468"><ele>1344.0</ele><time>2026-05-03T09:01:48Z</time></trkpt><trkpt lat="44.10906401341217" lon="7.924592313728774"><ele>1344.0</ele><time>2026-05-03T09:01:50Z</time></trkpt><trkpt lat="44.108992564431766" lon="7.924633119660693"><ele>1340.1666666666667</ele><time>2026-05-03T09:01:53Z</time></trkpt><trkpt lat="44.108968764793545" lon="7.924727860038524"><ele>1336.3333333333333</ele><time>2026-05-03T09:01:56Z</time></trkpt><trkpt lat="44.10900393094216" lon="7.924880415569684"><ele>1332.5</ele><time>2026-05-03T09:01:58Z</time></trkpt><trkpt lat="44.10903355949175" lon="7.924979273900918"><ele>1328.6666666666665</ele><time>2026-05-03T09:02:00Z</time></trkpt><trkpt lat="44.10895846416189" lon="7.924988883396203"><ele>1324.8333333333333</ele><time>2026-05-03T09:02:02Z</time></trkpt><trkpt lat="44.108883442456865" lon="7.9249936152476925"><ele>1321.0</ele><time>2026-05-03T09:02:03Z</time></trkpt><trkpt lat="44.108794408275365" lon="7.924971128302105"><ele>1321.0</ele><time>2026-05-03T09:02:04Z</time></trkpt><trkpt lat="44.108696450914366" lon="7.924959920235126"><ele>1321.0</ele><time>2026-05-03T09:02:05Z</time></trkpt><trkpt lat="44.10859294529773" lon="7.924945783367838"><ele>1321.0</ele><time>2026-05-03T09:02:06Z</time></trkpt><trkpt lat="44.10848842461475" lon="7.924909903294547"><ele>1321.0</ele><time>2026-05-03T09:02:07Z</time></trkpt><trkpt lat="44.108400073382164" lon="7.924841577584263"><ele>1321.0</ele><time>2026-05-03T09:02:08Z</time></trkpt><trkpt lat="44.108335337650644" lon="7.924738884161874"><ele>1321.0</ele><time>2026-05-03T09:02:09Z</time></trkpt><trkpt lat="44.10831103581556" lon="7.9246099366561245"><ele>1321.0</ele><time>2026-05-03T09:02:10Z</time></trkpt><trkpt lat="44.10831959346558" lon="7.924464373813151"><ele>1321.0</ele><time>2026-05-03T09:02:11Z</time></trkpt><trkpt lat="44.1083567951758" lon="7.924309224876879"><ele>1321.0</ele><time>2026-05-03T09:02:12Z</time></trkpt><trkpt lat="44.10838779729437" lon="7.924149321192405"><ele>1321.0</ele><time>2026-05-03T09:02:13Z</time></trkpt><trkpt lat="44.108415546472635" lon="7.923971059865974"><ele>1321.25</ele><time>2026-05-03T09:02:14Z</time></trkpt><trkpt lat="44.108439980474564" lon="7.923796066584674"><ele>1321.5</ele><time>2026-05-03T09:02:15Z</time></trkpt><trkpt lat="44.10847005628148" lon="7.923622469978015"><ele>1321.75</ele><time>2026-05-03T09:02:16Z</time></trkpt><trkpt lat="44.10849640589624" lon="7.923464636068704"><ele>1322.0</ele><time>2026-05-03T09:02:17Z</time></trkpt><trkpt lat="44.10852377786926" lon="7.923313481549212"><ele>1320.1999999999998</ele><time>2026-05-03T09:02:18Z</time></trkpt><trkpt lat="44.108561775842304" lon="7.923177715723593"><ele>1318.4</ele><time>2026-05-03T09:02:19Z</time></trkpt><trkpt lat="44.10862168677471" lon="7.923052814811938"><ele>1316.6</ele><time>2026-05-03T09:02:20Z</time></trkpt><trkpt lat="44.10870420068792" lon="7.922948138235446"><ele>1314.8000000000002</ele><time>2026-05-03T09:02:20.999Z</time></trkpt><trkpt lat="44.10879388331486" lon="7.922859106654893"><ele>1313.0</ele><time>2026-05-03T09:02:21.999Z</time></trkpt><trkpt lat="44.10889220896324" lon="7.922781139012288"><ele>1313.0</ele><time>2026-05-03T09:02:22.999Z</time></trkpt><trkpt lat="44.108988520865495" lon="7.922716555704546"><ele>1313.0</ele><time>2026-05-03T09:02:23.999Z</time></trkpt><trkpt lat="44.10907376572669" lon="7.922688299109304"><ele>1313.0</ele><time>2026-05-03T09:02:24.999Z</time></trkpt><trkpt lat="44.10916365709305" lon="7.922702863874033"><ele>1313.0</ele><time>2026-05-03T09:02:25.999Z</time></trkpt><trkpt lat="44.109234476334095" lon="7.922801797372064"><ele>1313.0</ele><time>2026-05-03T09:02:26.999Z</time></trkpt><trkpt lat="44.109319514940154" lon="7.92286546979723"><ele>1312.6666666666667</ele><time>2026-05-03T09:02:27.999Z</time></trkpt><trkpt lat="44.109382327842845" lon="7.922921169015981"><ele>1312.3333333333335</ele><time>2026-05-03T09:02:28.999Z</time></trkpt><trkpt lat="44.10944666387108" lon="7.922907196569684"><ele>1312.0</ele><time>2026-05-03T09:02:29.999Z</time></trkpt><trkpt lat="44.10950157206119" lon="7.922847127369741"><ele>1311.6666666666667</ele><time>2026-05-03T09:02:30.999Z</time></trkpt><trkpt lat="44.10953352311828" lon="7.922753646895086"><ele>1311.3333333333333</ele><time>2026-05-03T09:02:31.999Z</time></trkpt><trkpt lat="44.109512238098716" lon="7.922626600306229"><ele>1311.0</ele><time>2026-05-03T09:02:32.999Z</time></trkpt><trkpt lat="44.109461900694676" lon="7.922491761815706"><ele>1311.0</ele><time>2026-05-03T09:02:33.999Z</time></trkpt><trkpt lat="44.10935062219797" lon="7.922413128707843"><ele>1311.0</ele><time>2026-05-03T09:02:34.999Z</time></trkpt><trkpt lat="44.10922998534754" lon="7.92239768913317"><ele>1311.0</ele><time>2026-05-03T09:02:35.999Z</time></trkpt><trkpt lat="44.10910862286618" lon="7.922379598010364"><ele>1311.0</ele><time>2026-05-03T09:02:36.999Z</time></trkpt><trkpt lat="44.10898746231932" lon="7.922375927600304"><ele>1311.5</ele><time>2026-05-03T09:02:37.999Z</time></trkpt><trkpt lat="44.10886896582114" lon="7.922394204314056"><ele>1312.0</ele><time>2026-05-03T09:02:38.999Z</time></trkpt><trkpt lat="44.10875195628626" lon="7.922440739937913"><ele>1312.5</ele><time>2026-05-03T09:02:39.999Z</time></trkpt><trkpt lat="44.108639164584105" lon="7.922512746103395"><ele>1313.0</ele><time>2026-05-03T09:02:40.999Z</time></trkpt><trkpt lat="44.108526018364856" lon="7.922590745129481"><ele>1313.0</ele><time>2026-05-03T09:02:41.999Z</time></trkpt><trkpt lat="44.10840993935579" lon="7.9226706502344335"><ele>1313.0</ele><time>2026-05-03T09:02:42.999Z</time></trkpt><trkpt lat="44.108289031788516" lon="7.9227341593353255"><ele>1313.0</ele><time>2026-05-03T09:02:43.999Z</time></trkpt><trkpt lat="44.10816303340932" lon="7.922789048117559"><ele>1313.0</ele><time>2026-05-03T09:02:44.999Z</time></trkpt><trkpt lat="44.10803286099539" lon="7.922833477041952"><ele>1306.25</ele><time>2026-05-03T09:02:45.999Z</time></trkpt><trkpt lat="44.10790837772457" lon="7.922874593687124"><ele>1299.5</ele><time>2026-05-03T09:02:46.999Z</time></trkpt><trkpt lat="44.10779754811267" lon="7.922934679627879"><ele>1292.75</ele><time>2026-05-03T09:02:47.999Z</time></trkpt><trkpt lat="44.10770561001703" lon="7.923019438122391"><ele>1286.0</ele><time>2026-05-03T09:02:48.999Z</time></trkpt><trkpt lat="44.10766768656105" lon="7.923164307631399"><ele>1286.0</ele><time>2026-05-03T09:02:49.999Z</time></trkpt><trkpt lat="44.10760643401635" lon="7.923230347678878"><ele>1286.0</ele><time>2026-05-03T09:02:50.999Z</time></trkpt><trkpt lat="44.107507871083655" lon="7.923257684588547"><ele>1286.0</ele><time>2026-05-03T09:02:52.999Z</time></trkpt><trkpt lat="44.10747418494503" lon="7.9231693090477355"><ele>1286.0</ele><time>2026-05-03T09:02:53.999Z</time></trkpt><trkpt lat="44.10750929019802" lon="7.923047707765773"><ele>1286.0</ele><time>2026-05-03T09:02:54.999Z</time></trkpt><trkpt lat="44.107580093977454" lon="7.922953308863131"><ele>1286.0</ele><time>2026-05-03T09:02:55.999Z</time></trkpt><trkpt lat="44.10766517895438" lon="7.922867097724065"><ele>1286.0</ele><time>2026-05-03T09:02:56.999Z</time></trkpt><trkpt lat="44.10774185709399" lon="7.922762373552925"><ele>1286.0</ele><time>2026-05-03T09:02:57.999Z</time></trkpt><trkpt lat="44.10780905283112" lon="7.922639251621363"><ele>1286.0</ele><time>2026-05-03T09:02:58.999Z</time></trkpt><trkpt lat="44.107872318235444" lon="7.9225018224700445"><ele>1286.0</ele><time>2026-05-03T09:02:59.999Z</time></trkpt><trkpt lat="44.10793737008461" lon="7.922348527062684"><ele>1283.75</ele><time>2026-05-03T09:03:00.999Z</time></trkpt><trkpt lat="44.10799863794966" lon="7.922184289639969"><ele>1281.5</ele><time>2026-05-03T09:03:01.999Z</time></trkpt><trkpt lat="44.10805624206044" lon="7.922033667607712"><ele>1279.25</ele><time>2026-05-03T09:03:02.999Z</time></trkpt><trkpt lat="44.10810944118695" lon="7.921893240677026"><ele>1277.0</ele><time>2026-05-03T09:03:03.999Z</time></trkpt><trkpt lat="44.10816440416107" lon="7.921754338774265"><ele>1278.0</ele><time>2026-05-03T09:03:04.999Z</time></trkpt><trkpt lat="44.10822080683347" lon="7.921616591728774"><ele>1279.0</ele><time>2026-05-03T09:03:05.999Z</time></trkpt><trkpt lat="44.10827280392518" lon="7.9214824964355195"><ele>1280.0</ele><time>2026-05-03T09:03:06.999Z</time></trkpt><trkpt lat="44.108324915004516" lon="7.92136028645186"><ele>1281.0</ele><time>2026-05-03T09:03:07.999Z</time></trkpt><trkpt lat="44.10837982332665" lon="7.921243937701749"><ele>1282.0</ele><time>2026-05-03T09:03:08.999Z</time></trkpt><trkpt lat="44.108431992294115" lon="7.921152932505978"><ele>1282.0</ele><time>2026-05-03T09:03:09.999Z</time></trkpt><trkpt lat="44.10850088507249" lon="7.921048254321188"><ele>1282.0</ele><time>2026-05-03T09:03:11.999Z</time></trkpt><trkpt lat="44.10856644902716" lon="7.920944770695949"><ele>1282.0</ele><time>2026-05-03T09:03:32.999Z</time></trkpt><trkpt lat="44.10863681263849" lon="7.920893565586448"><ele>1282.0</ele><time>2026-05-03T09:03:34.999Z</time></trkpt><trkpt lat="44.10876481825166" lon="7.920861499794776"><ele>1282.0</ele><time>2026-05-03T09:03:37Z</time></trkpt><trkpt lat="44.1088359126092" lon="7.92090346350766"><ele>1282.0</ele><time>2026-05-03T09:03:38Z</time></trkpt><trkpt lat="44.10889987853981" lon="7.920968762266843"><ele>1282.0</ele><time>2026-05-03T09:03:39Z</time></trkpt><trkpt lat="44.10895432282981" lon="7.921029241811563"><ele>1282.0</ele><time>2026-05-03T09:03:40Z</time></trkpt><trkpt lat="44.10902724461563" lon="7.92110990923008"><ele>1282.0</ele><time>2026-05-03T09:03:41Z</time></trkpt><trkpt lat="44.109092583435874" lon="7.921182084491693"><ele>1282.0</ele><time>2026-05-03T09:03:42Z</time></trkpt><trkpt lat="44.109169645411605" lon="7.921266531129731"><ele>1282.0</ele><time>2026-05-03T09:03:43Z</time></trkpt><trkpt lat="44.10923758750241" lon="7.9213402359355785"><ele>1284.0</ele><time>2026-05-03T09:03:44Z</time></trkpt><trkpt lat="44.10934013717714" lon="7.921446419875827"><ele>1286.0</ele><time>2026-05-03T09:03:46Z</time></trkpt><trkpt lat="44.10942770861588" lon="7.92152311456249"><ele>1288.0</ele><time>2026-05-03T09:03:48Z</time></trkpt><trkpt lat="44.10933273226769" lon="7.921996157107936"><ele>1292.6000000000001</ele><time>2026-05-03T09:03:50Z</time></trkpt><trkpt lat="44.10939471079193" lon="7.922090014532654"><ele>1297.2</ele><time>2026-05-03T09:03:51Z</time></trkpt><trkpt lat="44.10945491070031" lon="7.922250331696197"><ele>1301.8</ele><time>2026-05-03T09:03:53Z</time></trkpt><trkpt lat="44.10948338836639" lon="7.9223540349545365"><ele>1306.4</ele><time>2026-05-03T09:03:54Z</time></trkpt><trkpt lat="44.109527689891436" lon="7.922454028226159"><ele>1311.0</ele><time>2026-05-03T09:03:55Z</time></trkpt><trkpt lat="44.10957209798131" lon="7.922518613680629"><ele>1313.8</ele><time>2026-05-03T09:03:56Z</time></trkpt><trkpt lat="44.10958869724005" lon="7.922671775929956"><ele>1316.6</ele><time>2026-05-03T09:03:58Z</time></trkpt><trkpt lat="44.10960632362374" lon="7.922770856460467"><ele>1319.4</ele><time>2026-05-03T09:03:59Z</time></trkpt><trkpt lat="44.10959624673437" lon="7.922871225809436"><ele>1322.2</ele><time>2026-05-03T09:04:01Z</time></trkpt><trkpt lat="44.10953521075355" lon="7.922977743053098"><ele>1325.0</ele><time>2026-05-03T09:04:03Z</time></trkpt><trkpt lat="44.109459526998606" lon="7.923081587015545"><ele>1325.0</ele><time>2026-05-03T09:04:05Z</time></trkpt><trkpt lat="44.1094876381313" lon="7.923230648529178"><ele>1325.0</ele><time>2026-05-03T09:04:07Z</time></trkpt><trkpt lat="44.1094388099643" lon="7.923317197260874"><ele>1325.0</ele><time>2026-05-03T09:04:08Z</time></trkpt><trkpt lat="44.109375528699665" lon="7.923400443455269"><ele>1325.0</ele><time>2026-05-03T09:04:09Z</time></trkpt><trkpt lat="44.10943971583548" lon="7.923471624548074"><ele>1325.0</ele><time>2026-05-03T09:04:11Z</time></trkpt><trkpt lat="44.1094478908959" lon="7.9235764833650375"><ele>1325.0</ele><time>2026-05-03T09:04:15Z</time></trkpt><trkpt lat="44.10949257727735" lon="7.923648905215295"><ele>1327.6</ele><time>2026-05-03T09:04:16Z</time></trkpt><trkpt lat="44.10954238625857" lon="7.923712979416022"><ele>1330.2</ele><time>2026-05-03T09:04:17Z</time></trkpt><trkpt lat="44.109509888675994" lon="7.923851118991661"><ele>1332.8000000000002</ele><time>2026-05-03T09:04:20Z</time></trkpt><trkpt lat="44.10945725105399" lon="7.923918593028149"><ele>1335.4</ele><time>2026-05-03T09:04:21Z</time></trkpt><trkpt lat="44.10941424327711" lon="7.9240224291868895"><ele>1338.0</ele><time>2026-05-03T09:04:24Z</time></trkpt><trkpt lat="44.10952040109072" lon="7.924121491328995"><ele>1338.0</ele><time>2026-05-03T09:04:26Z</time></trkpt><trkpt lat="44.109571005085996" lon="7.924177588109876"><ele>1338.0</ele><time>2026-05-03T09:04:27Z</time></trkpt><trkpt lat="44.10966646789239" lon="7.924214182044284"><ele>1338.0</ele><time>2026-05-03T09:04:28.999Z</time></trkpt><trkpt lat="44.10980519515454" lon="7.924165753872025"><ele>1338.0</ele><time>2026-05-03T09:04:30.999Z</time></trkpt><trkpt lat="44.109892208674545" lon="7.9241648452292095"><ele>1338.0</ele><time>2026-05-03T09:04:32.999Z</time></trkpt><trkpt lat="44.10996253181523" lon="7.92425245803632"><ele>1342.4</ele><time>2026-05-03T09:04:34.999Z</time></trkpt><trkpt lat="44.11005698600821" lon="7.924269660705847"><ele>1346.8000000000002</ele><time>2026-05-03T09:04:36.999Z</time></trkpt><trkpt lat="44.11013658605651" lon="7.924330908598992"><ele>1351.2</ele><time>2026-05-03T09:04:37.999Z</time></trkpt><trkpt lat="44.1102140699045" lon="7.924382088103364"><ele>1355.6</ele><time>2026-05-03T09:04:38.999Z</time></trkpt><trkpt lat="44.11029848809181" lon="7.92445810802412"><ele>1360.0</ele><time>2026-05-03T09:04:40.999Z</time></trkpt><trkpt lat="44.110361731437145" lon="7.924571618325524"><ele>1360.0</ele><time>2026-05-03T09:04:42.999Z</time></trkpt><trkpt lat="44.110422143542436" lon="7.9245123757642615"><ele>1360.0</ele><time>2026-05-03T09:04:46.999Z</time></trkpt><trkpt lat="44.11048900261359" lon="7.924567117598967"><ele>1360.0</ele><time>2026-05-03T09:04:48.999Z</time></trkpt><trkpt lat="44.110482802808406" lon="7.924671306012194"><ele>1360.0</ele><time>2026-05-03T09:04:50.999Z</time></trkpt><trkpt lat="44.11045577836092" lon="7.924777910672589"><ele>1360.0</ele><time>2026-05-03T09:04:52.999Z</time></trkpt><trkpt lat="44.1104021504117" lon="7.924731610159453"><ele>1360.0</ele><time>2026-05-03T09:05:45Z</time></trkpt><trkpt lat="44.11044415822641" lon="7.924809571434062"><ele>1360.0</ele><time>2026-05-03T09:07:02.999Z</time></trkpt><trkpt lat="44.110443887535624" lon="7.924716509014846"><ele>1360.0</ele><time>2026-05-03T09:07:21.999Z</time></trkpt><trkpt lat="44.11037488996309" lon="7.9247485123144825"><ele>1360.0</ele><time>2026-05-03T09:07:46.999Z</time></trkpt><trkpt lat="44.11030112030156" lon="7.92474284482433"><ele>1360.0</ele><time>2026-05-03T09:07:51.999Z</time></trkpt><trkpt lat="44.110234348296956" lon="7.924751164813139"><ele>1360.0</ele><time>2026-05-03T09:07:55.999Z</time></trkpt><trkpt lat="44.10995533228303" lon="7.924592904753912"><ele>1360.0</ele><time>2026-05-03T09:08:15.999Z</time></trkpt><trkpt lat="44.110015029315385" lon="7.924643578961565"><ele>1360.0</ele><time>2026-05-03T09:08:30.999Z</time></trkpt><trkpt lat="44.11037895366932" lon="7.924657110132207"><ele>1360.0</ele><time>2026-05-03T09:08:39.999Z</time></trkpt><trkpt lat="44.11043434069856" lon="7.924816475794423"><ele>1360.0</ele><time>2026-05-03T09:08:50.999Z</time></trkpt><trkpt lat="44.11054830655444" lon="7.924718275501254"><ele>1360.0</ele><time>2026-05-03T09:13:14.999Z</time></trkpt><trkpt lat="44.11053154360894" lon="7.924827050047025"><ele>1360.0</ele><time>2026-05-03T09:13:51.999Z</time></trkpt><trkpt lat="44.110464128118636" lon="7.924801084160494"><ele>1360.0</ele><time>2026-05-03T09:17:22.999Z</time></trkpt><trkpt lat="44.110310065246324" lon="7.924756262414805"><ele>1360.0</ele><time>2026-05-03T09:17:24.999Z</time></trkpt><trkpt lat="44.11020516423594" lon="7.924720180889536"><ele>1360.0</ele><time>2026-05-03T09:17:25.999Z</time></trkpt><trkpt lat="44.11010520559659" lon="7.92468549154024"><ele>1360.0</ele><time>2026-05-03T09:17:26.999Z</time></trkpt><trkpt lat="44.109999272971756" lon="7.924671921099473"><ele>1360.0</ele><time>2026-05-03T09:17:27.999Z</time></trkpt><trkpt lat="44.10987720925695" lon="7.924662823841186"><ele>1360.0</ele><time>2026-05-03T09:17:28.999Z</time></trkpt><trkpt lat="44.10978599740753" lon="7.924688595779012"><ele>1360.0</ele><time>2026-05-03T09:17:29.999Z</time></trkpt><trkpt lat="44.10971917576862" lon="7.924703163483214"><ele>1357.7142857142858</ele><time>2026-05-03T09:17:30.999Z</time></trkpt><trkpt lat="44.109649273697016" lon="7.9247225139479855"><ele>1355.4285714285713</ele><time>2026-05-03T09:17:32.999Z</time></trkpt><trkpt lat="44.109580928832315" lon="7.924734290203909"><ele>1353.142857142857</ele><time>2026-05-03T09:17:37.999Z</time></trkpt><trkpt lat="44.109542164617416" lon="7.924804256937546"><ele>1350.857142857143</ele><time>2026-05-03T09:17:40.999Z</time></trkpt><trkpt lat="44.10952323146828" lon="7.924888334095921"><ele>1348.5714285714284</ele><time>2026-05-03T09:17:42.999Z</time></trkpt><trkpt lat="44.109450929719245" lon="7.924933392508827"><ele>1346.2857142857142</ele><time>2026-05-03T09:18:18Z</time></trkpt><trkpt lat="44.109514919562116" lon="7.92501784684726"><ele>1344.0</ele><time>2026-05-03T09:18:20Z</time></trkpt><trkpt lat="44.109610121766806" lon="7.925097713863025"><ele>1343.6666666666667</ele><time>2026-05-03T09:18:22Z</time></trkpt><trkpt lat="44.10968805937106" lon="7.925179712132483"><ele>1343.3333333333333</ele><time>2026-05-03T09:18:24Z</time></trkpt><trkpt lat="44.10974964815011" lon="7.925246809464422"><ele>1343.0</ele><time>2026-05-03T09:18:26Z</time></trkpt><trkpt lat="44.10980760667507" lon="7.9253237038942865"><ele>1342.6666666666665</ele><time>2026-05-03T09:18:28Z</time></trkpt><trkpt lat="44.109886009053895" lon="7.925407796567144"><ele>1342.3333333333333</ele><time>2026-05-03T09:18:30Z</time></trkpt><trkpt lat="44.10995445298481" lon="7.925461665145993"><ele>1342.0</ele><time>2026-05-03T09:18:33Z</time></trkpt><trkpt lat="44.1100160269075" lon="7.925529641987535"><ele>1347.3999999999999</ele><time>2026-05-03T09:18:35Z</time></trkpt><trkpt lat="44.11011887400673" lon="7.925558209272602"><ele>1352.8</ele><time>2026-05-03T09:18:37Z</time></trkpt><trkpt lat="44.1101970725041" lon="7.925589009354384"><ele>1358.2</ele><time>2026-05-03T09:18:38Z</time></trkpt><trkpt lat="44.11029575377732" lon="7.925616762876219"><ele>1363.6</ele><time>2026-05-03T09:18:39Z</time></trkpt><trkpt lat="44.1104051880159" lon="7.925636596008757"><ele>1369.0</ele><time>2026-05-03T09:18:40Z</time></trkpt><trkpt lat="44.11050678534953" lon="7.925658596754648"><ele>1369.0</ele><time>2026-05-03T09:18:41Z</time></trkpt><trkpt lat="44.11058895770913" lon="7.925678846122413"><ele>1369.0</ele><time>2026-05-03T09:18:42Z</time></trkpt><trkpt lat="44.110681770772715" lon="7.925696827907404"><ele>1369.0</ele><time>2026-05-03T09:18:43Z</time></trkpt><trkpt lat="44.11078365204365" lon="7.925744015928022"><ele>1369.0</ele><time>2026-05-03T09:18:44Z</time></trkpt><trkpt lat="44.11089794980485" lon="7.925784029065272"><ele>1369.0</ele><time>2026-05-03T09:18:45Z</time></trkpt><trkpt lat="44.11100041703969" lon="7.925807329669361"><ele>1373.1666666666665</ele><time>2026-05-03T09:18:46Z</time></trkpt><trkpt lat="44.11109619807691" lon="7.9258140177265"><ele>1377.3333333333333</ele><time>2026-05-03T09:18:47Z</time></trkpt><trkpt lat="44.111176017075884" lon="7.925834162145557"><ele>1381.5</ele><time>2026-05-03T09:18:48Z</time></trkpt><trkpt lat="44.111262346339544" lon="7.925856716957284"><ele>1385.6666666666667</ele><time>2026-05-03T09:18:49Z</time></trkpt><trkpt lat="44.11135165282496" lon="7.925880049968624"><ele>1389.8333333333335</ele><time>2026-05-03T09:18:50Z</time></trkpt><trkpt lat="44.111430536329436" lon="7.9258732805802214"><ele>1394.0</ele><time>2026-05-03T09:18:51Z</time></trkpt><trkpt lat="44.111514748725824" lon="7.925896955414303"><ele>1396.6666666666667</ele><time>2026-05-03T09:18:52Z</time></trkpt><trkpt lat="44.111602050269596" lon="7.92594207603532"><ele>1399.3333333333335</ele><time>2026-05-03T09:18:53Z</time></trkpt><trkpt lat="44.11169716604203" lon="7.92598410864724"><ele>1402.0</ele><time>2026-05-03T09:18:54Z</time></trkpt><trkpt lat="44.1117608948492" lon="7.926023145008639"><ele>1404.6666666666667</ele><time>2026-05-03T09:18:55Z</time></trkpt><trkpt lat="44.11181537129704" lon="7.926077065138129"><ele>1407.3333333333333</ele><time>2026-05-03T09:18:57Z</time></trkpt><trkpt lat="44.11189709142749" lon="7.926093239081213"><ele>1410.0</ele><time>2026-05-03T09:20:43Z</time></trkpt><trkpt lat="44.11194904920916" lon="7.9260425837187976"><ele>1410.0</ele><time>2026-05-03T09:20:44Z</time></trkpt><trkpt lat="44.112024946746715" lon="7.925981977882096"><ele>1410.0</ele><time>2026-05-03T09:20:45Z</time></trkpt><trkpt lat="44.112132888774305" lon="7.92590405729429"><ele>1410.0</ele><time>2026-05-03T09:20:46Z</time></trkpt><trkpt lat="44.11223472596851" lon="7.925850657627553"><ele>1410.0</ele><time>2026-05-03T09:20:47Z</time></trkpt><trkpt lat="44.112304720692485" lon="7.925827779139041"><ele>1410.0</ele><time>2026-05-03T09:20:48Z</time></trkpt><trkpt lat="44.11237673741387" lon="7.925803422746349"><ele>1412.4</ele><time>2026-05-03T09:20:49Z</time></trkpt><trkpt lat="44.11244929541974" lon="7.925795420018869"><ele>1414.8</ele><time>2026-05-03T09:20:50Z</time></trkpt><trkpt lat="44.11254650175282" lon="7.9257880334553485"><ele>1417.1999999999998</ele><time>2026-05-03T09:20:51Z</time></trkpt><trkpt lat="44.11264832667456" lon="7.925764384293149"><ele>1419.6</ele><time>2026-05-03T09:20:52Z</time></trkpt><trkpt lat="44.1127619269777" lon="7.925730279668481"><ele>1422.0</ele><time>2026-05-03T09:20:53Z</time></trkpt><trkpt lat="44.11286303973022" lon="7.925703755216438"><ele>1422.0</ele><time>2026-05-03T09:20:54Z</time></trkpt><trkpt lat="44.11293828319317" lon="7.925703078274201"><ele>1422.0</ele><time>2026-05-03T09:20:55Z</time></trkpt><trkpt lat="44.11299895067921" lon="7.925669671227594"><ele>1422.0</ele><time>2026-05-03T09:20:57Z</time></trkpt><trkpt lat="44.11306360937112" lon="7.925563857666664"><ele>1422.0</ele><time>2026-05-03T09:21:01Z</time></trkpt><trkpt lat="44.11318960996391" lon="7.925472519647216"><ele>1422.0</ele><time>2026-05-03T09:21:03Z</time></trkpt><trkpt lat="44.11329667754895" lon="7.925373377291438"><ele>1422.6666666666667</ele><time>2026-05-03T09:21:04Z</time></trkpt><trkpt lat="44.11341857268871" lon="7.92526900555873"><ele>1423.3333333333335</ele><time>2026-05-03T09:21:05Z</time></trkpt><trkpt lat="44.11354431922114" lon="7.925149274525264"><ele>1424.0</ele><time>2026-05-03T09:21:06Z</time></trkpt><trkpt lat="44.113677022113045" lon="7.925015833153891"><ele>1424.0</ele><time>2026-05-03T09:21:07Z</time></trkpt><trkpt lat="44.113788497145784" lon="7.924901011231046"><ele>1424.0</ele><time>2026-05-03T09:21:08Z</time></trkpt><trkpt lat="44.113858613979346" lon="7.92481080046528"><ele>1424.0</ele><time>2026-05-03T09:21:09Z</time></trkpt><trkpt lat="44.1139217471913" lon="7.9247325378116855"><ele>1424.0</ele><time>2026-05-03T09:21:10Z</time></trkpt><trkpt lat="44.11398314741253" lon="7.924639349044779"><ele>1424.0</ele><time>2026-05-03T09:21:11Z</time></trkpt><trkpt lat="44.11405234837318" lon="7.924558737653764"><ele>1426.0</ele><time>2026-05-03T09:21:12Z</time></trkpt><trkpt lat="44.114128985208716" lon="7.924469082983786"><ele>1428.0</ele><time>2026-05-03T09:21:13Z</time></trkpt><trkpt lat="44.114195504282414" lon="7.924380872056352"><ele>1430.0</ele><time>2026-05-03T09:21:14Z</time></trkpt><trkpt lat="44.114243576972626" lon="7.924290160569585"><ele>1432.0</ele><time>2026-05-03T09:21:15Z</time></trkpt><trkpt lat="44.11427820918829" lon="7.924183153955587"><ele>1434.0</ele><time>2026-05-03T09:21:16Z</time></trkpt><trkpt lat="44.114316699158316" lon="7.924087162484746"><ele>1436.0</ele><time>2026-05-03T09:21:17Z</time></trkpt><trkpt lat="44.11435413506421" lon="7.923986315876525"><ele>1436.0</ele><time>2026-05-03T09:21:18Z</time></trkpt><trkpt lat="44.11438947090469" lon="7.923896739784577"><ele>1436.0</ele><time>2026-05-03T09:21:19Z</time></trkpt><trkpt lat="44.114435353442964" lon="7.923787685925041"><ele>1436.0</ele><time>2026-05-03T09:21:20.999Z</time></trkpt><trkpt lat="44.11446612376995" lon="7.92370605493292"><ele>1436.0</ele><time>2026-05-03T09:21:23.999Z</time></trkpt><trkpt lat="44.1145207698115" lon="7.923634459334953"><ele>1436.0</ele><time>2026-05-03T09:21:26.999Z</time></trkpt><trkpt lat="44.11459036433285" lon="7.923684588531349"><ele>1436.0</ele><time>2026-05-03T09:21:30.999Z</time></trkpt><trkpt lat="44.114656021365725" lon="7.923689612912951"><ele>1436.0</ele><time>2026-05-03T09:21:33.999Z</time></trkpt><trkpt lat="44.114722144279135" lon="7.923708813018384"><ele>1436.0</ele><time>2026-05-03T09:21:41.999Z</time></trkpt><trkpt lat="44.11479371251606" lon="7.923759049271054"><ele>1436.0</ele><time>2026-05-03T09:21:44.999Z</time></trkpt><trkpt lat="44.1148701621604" lon="7.923799262305103"><ele>1436.0</ele><time>2026-05-03T09:21:47.999Z</time></trkpt><trkpt lat="44.114936561617114" lon="7.923788572681327"><ele>1436.0</ele><time>2026-05-03T09:21:50.999Z</time></trkpt><trkpt lat="44.11499786246598" lon="7.923815339004803"><ele>1436.0</ele><time>2026-05-03T09:21:53.999Z</time></trkpt><trkpt lat="44.11507943993749" lon="7.923798804149834"><ele>1436.0</ele><time>2026-05-03T09:21:55.999Z</time></trkpt><trkpt lat="44.115168305223804" lon="7.923778566769514"><ele>1439.1666666666667</ele><time>2026-05-03T09:21:57.999Z</time></trkpt><trkpt lat="44.11526195333096" lon="7.923776503033539"><ele>1442.3333333333335</ele><time>2026-05-03T09:21:59.999Z</time></trkpt><trkpt lat="44.11533247079358" lon="7.923716586264319"><ele>1445.5</ele><time>2026-05-03T09:22:01.999Z</time></trkpt><trkpt lat="44.11540651379554" lon="7.923652433361149"><ele>1448.6666666666667</ele><time>2026-05-03T09:22:03.999Z</time></trkpt><trkpt lat="44.11548450948415" lon="7.923565874448928"><ele>1451.8333333333333</ele><time>2026-05-03T09:22:05.999Z</time></trkpt><trkpt lat="44.11555721525528" lon="7.923522610436954"><ele>1455.0</ele><time>2026-05-03T09:22:07.999Z</time></trkpt><trkpt lat="44.11562517241764" lon="7.923503747979067"><ele>1455.0</ele><time>2026-05-03T09:22:10.999Z</time></trkpt><trkpt lat="44.11569379729659" lon="7.923425051730984"><ele>1455.0</ele><time>2026-05-03T09:22:12.999Z</time></trkpt><trkpt lat="44.11576658990023" lon="7.923343112827861"><ele>1455.0</ele><time>2026-05-03T09:22:14.999Z</time></trkpt><trkpt lat="44.115839934592344" lon="7.923272441223017"><ele>1455.0</ele><time>2026-05-03T09:22:16.999Z</time></trkpt><trkpt lat="44.11590505171209" lon="7.923194829740384"><ele>1455.0</ele><time>2026-05-03T09:22:18.999Z</time></trkpt><trkpt lat="44.11597624526495" lon="7.923109395789168"><ele>1449.3333333333333</ele><time>2026-05-03T09:22:20.999Z</time></trkpt><trkpt lat="44.116041279668735" lon="7.923044235155337"><ele>1443.6666666666667</ele><time>2026-05-03T09:22:24.999Z</time></trkpt><trkpt lat="44.115978052097134" lon="7.922990104969729"><ele>1438.0</ele><time>2026-05-03T09:22:28.999Z</time></trkpt><trkpt lat="44.11591491402431" lon="7.922968134071143"><ele>1432.3333333333335</ele><time>2026-05-03T09:22:32Z</time></trkpt><trkpt lat="44.11599817791177" lon="7.922882248802692"><ele>1426.6666666666667</ele><time>2026-05-03T09:22:36Z</time></trkpt><trkpt lat="44.11609161609031" lon="7.922855949403374"><ele>1421.0</ele><time>2026-05-03T09:22:38Z</time></trkpt><trkpt lat="44.11617793844217" lon="7.922763060243349"><ele>1421.0</ele><time>2026-05-03T09:22:42Z</time></trkpt><trkpt lat="44.116245000122454" lon="7.92273826180926"><ele>1421.0</ele><time>2026-05-03T09:22:47Z</time></trkpt><trkpt lat="44.11618158170597" lon="7.922718967097272"><ele>1421.0</ele><time>2026-05-03T09:22:52Z</time></trkpt><trkpt lat="44.11611886193647" lon="7.922670744079034"><ele>1421.0</ele><time>2026-05-03T09:22:55Z</time></trkpt><trkpt lat="44.11606775581925" lon="7.9225944330135345"><ele>1421.0</ele><time>2026-05-03T09:22:57Z</time></trkpt><trkpt lat="44.11601603432602" lon="7.922536419907392"><ele>1421.0</ele><time>2026-05-03T09:22:59Z</time></trkpt><trkpt lat="44.11593914743355" lon="7.922462787564562"><ele>1421.0</ele><time>2026-05-03T09:23:01Z</time></trkpt><trkpt lat="44.115900455853044" lon="7.922371946884578"><ele>1415.5</ele><time>2026-05-03T09:23:07Z</time></trkpt><trkpt lat="44.115822883133895" lon="7.9223038069548"><ele>1410.0</ele><time>2026-05-03T09:23:10Z</time></trkpt><trkpt lat="44.11577605424915" lon="7.922205579940747"><ele>1404.5</ele><time>2026-05-03T09:23:13Z</time></trkpt><trkpt lat="44.11568530546936" lon="7.922213111245958"><ele>1399.0</ele><time>2026-05-03T09:23:15Z</time></trkpt><trkpt lat="44.115602446785594" lon="7.922177779161552"><ele>1393.5</ele><time>2026-05-03T09:23:18Z</time></trkpt><trkpt lat="44.11553255057254" lon="7.922171723057752"><ele>1388.0</ele><time>2026-05-03T09:23:21Z</time></trkpt><trkpt lat="44.11546766771356" lon="7.922168316631279"><ele>1385.5714285714287</ele><time>2026-05-03T09:23:23Z</time></trkpt><trkpt lat="44.11537645904699" lon="7.922199355603121"><ele>1383.142857142857</ele><time>2026-05-03T09:23:26.999Z</time></trkpt><trkpt lat="44.11530788740792" lon="7.922183125356859"><ele>1380.7142857142858</ele><time>2026-05-03T09:23:28.999Z</time></trkpt><trkpt lat="44.11523998181133" lon="7.922177040758826"><ele>1378.2857142857142</ele><time>2026-05-03T09:23:31.999Z</time></trkpt><trkpt lat="44.11516784063229" lon="7.922215146528379"><ele>1375.857142857143</ele><time>2026-05-03T09:23:34.999Z</time></trkpt><trkpt lat="44.115111743981" lon="7.922164383560315"><ele>1373.4285714285713</ele><time>2026-05-03T09:23:37.999Z</time></trkpt><trkpt lat="44.11512007122238" lon="7.92207203243601"><ele>1371.0</ele><time>2026-05-03T09:23:39.999Z</time></trkpt><trkpt lat="44.11516679995644" lon="7.921996533375445"><ele>1371.0</ele><time>2026-05-03T09:23:43.999Z</time></trkpt><trkpt lat="44.115228776153366" lon="7.921870568924522"><ele>1371.0</ele><time>2026-05-03T09:23:47.999Z</time></trkpt><trkpt lat="44.11536804368152" lon="7.921769652794276"><ele>1371.0</ele><time>2026-05-03T09:23:48.999Z</time></trkpt><trkpt lat="44.11541247812607" lon="7.9217074546098045"><ele>1371.0</ele><time>2026-05-03T09:23:49.999Z</time></trkpt><trkpt lat="44.11547877357541" lon="7.921645357587015"><ele>1371.0</ele><time>2026-05-03T09:23:51.999Z</time></trkpt><trkpt lat="44.11556663478623" lon="7.921682497947898"><ele>1374.4</ele><time>2026-05-03T09:23:53.999Z</time></trkpt><trkpt lat="44.1156370000178" lon="7.921700533072607"><ele>1377.8</ele><time>2026-05-03T09:23:55.999Z</time></trkpt><trkpt lat="44.11570637397677" lon="7.921699926953864"><ele>1381.2</ele><time>2026-05-03T09:23:56.999Z</time></trkpt><trkpt lat="44.11580168691077" lon="7.9216976950019395"><ele>1384.6000000000001</ele><time>2026-05-03T09:23:58.999Z</time></trkpt><trkpt lat="44.11591794003397" lon="7.9217067349928625"><ele>1388.0</ele><time>2026-05-03T09:24:00.999Z</time></trkpt><trkpt lat="44.11600977904085" lon="7.921764619261258"><ele>1388.0</ele><time>2026-05-03T09:24:02.999Z</time></trkpt><trkpt lat="44.11611033235025" lon="7.921781974418517"><ele>1388.0</ele><time>2026-05-03T09:24:04.999Z</time></trkpt><trkpt lat="44.116174084929675" lon="7.921768712272017"><ele>1388.0</ele><time>2026-05-03T09:24:06.999Z</time></trkpt><trkpt lat="44.11610772859843" lon="7.921780154734379"><ele>1388.0</ele><time>2026-05-03T09:24:08.999Z</time></trkpt><trkpt lat="44.11613920170861" lon="7.921862214770415"><ele>1388.0</ele><time>2026-05-03T09:24:44Z</time></trkpt><trkpt lat="44.11617742402106" lon="7.921937849682771"><ele>1388.0</ele><time>2026-05-03T09:24:50Z</time></trkpt><trkpt lat="44.116115881891616" lon="7.9218246154473055"><ele>1388.0</ele><time>2026-05-03T09:25:01Z</time></trkpt><trkpt lat="44.11619934027333" lon="7.921813611914096"><ele>1388.0</ele><time>2026-05-03T09:25:22Z</time></trkpt><trkpt lat="44.11628363879214" lon="7.921820080356829"><ele>1388.0</ele><time>2026-05-03T09:25:23Z</time></trkpt><trkpt lat="44.1163710399127" lon="7.921794585644566"><ele>1388.0</ele><time>2026-05-03T09:25:24Z</time></trkpt><trkpt lat="44.11645468719251" lon="7.9218025616733305"><ele>1388.0</ele><time>2026-05-03T09:25:25Z</time></trkpt><trkpt lat="44.11652377697128" lon="7.9217736213182395"><ele>1388.0</ele><time>2026-05-03T09:25:26Z</time></trkpt><trkpt lat="44.11659678753299" lon="7.921742166208618"><ele>1388.8333333333335</ele><time>2026-05-03T09:25:27Z</time></trkpt><trkpt lat="44.11669715130559" lon="7.921755239723245"><ele>1389.6666666666667</ele><time>2026-05-03T09:25:28Z</time></trkpt><trkpt lat="44.1167801028416" lon="7.921727010287207"><ele>1390.5</ele><time>2026-05-03T09:25:29Z</time></trkpt><trkpt lat="44.116868042438334" lon="7.921687525581456"><ele>1391.3333333333333</ele><time>2026-05-03T09:25:30Z</time></trkpt><trkpt lat="44.11694595916185" lon="7.9216417152189305"><ele>1392.1666666666665</ele><time>2026-05-03T09:25:31Z</time></trkpt><trkpt lat="44.11701891905485" lon="7.921602797124005"><ele>1393.0</ele><time>2026-05-03T09:25:32Z</time></trkpt><trkpt lat="44.11709053505569" lon="7.921561669547585"><ele>1385.8333333333333</ele><time>2026-05-03T09:25:33Z</time></trkpt><trkpt lat="44.11715709653877" lon="7.921509176911411"><ele>1378.6666666666665</ele><time>2026-05-03T09:25:34Z</time></trkpt><trkpt lat="44.11723287821725" lon="7.921449589028011"><ele>1371.5</ele><time>2026-05-03T09:25:34.999Z</time></trkpt><trkpt lat="44.11730105595229" lon="7.921383584370084"><ele>1364.3333333333333</ele><time>2026-05-03T09:25:35.999Z</time></trkpt><trkpt lat="44.11736910723704" lon="7.921344736577734"><ele>1357.1666666666667</ele><time>2026-05-03T09:25:36.999Z</time></trkpt><trkpt lat="44.117446122739224" lon="7.921294622083337"><ele>1350.0</ele><time>2026-05-03T09:25:37.999Z</time></trkpt><trkpt lat="44.11752245048836" lon="7.921224140324822"><ele>1350.0</ele><time>2026-05-03T09:25:38.999Z</time></trkpt><trkpt lat="44.117611802313974" lon="7.9211620158466305"><ele>1350.0</ele><time>2026-05-03T09:25:39.999Z</time></trkpt><trkpt lat="44.11769015581186" lon="7.921102994991578"><ele>1350.0</ele><time>2026-05-03T09:25:40.999Z</time></trkpt><trkpt lat="44.117767214041564" lon="7.921040474510324"><ele>1350.0</ele><time>2026-05-03T09:25:41.999Z</time></trkpt><trkpt lat="44.11783432510141" lon="7.920965201524645"><ele>1350.0</ele><time>2026-05-03T09:25:42.999Z</time></trkpt><trkpt lat="44.11788392585076" lon="7.920895231117882"><ele>1350.0</ele><time>2026-05-03T09:25:43.999Z</time></trkpt><trkpt lat="44.11792989500522" lon="7.920810284106566"><ele>1347.6</ele><time>2026-05-03T09:25:44.999Z</time></trkpt><trkpt lat="44.11797558194988" lon="7.920718915421198"><ele>1345.2</ele><time>2026-05-03T09:25:45.999Z</time></trkpt><trkpt lat="44.1180549055515" lon="7.920676218792311"><ele>1342.8000000000002</ele><time>2026-05-03T09:25:46.999Z</time></trkpt><trkpt lat="44.11817726174847" lon="7.9206444703035"><ele>1340.4</ele><time>2026-05-03T09:25:48.999Z</time></trkpt><trkpt lat="44.118261518431396" lon="7.920653289926771"><ele>1338.0</ele><time>2026-05-03T09:25:49.999Z</time></trkpt><trkpt lat="44.11834681250211" lon="7.920636840813909"><ele>1338.0</ele><time>2026-05-03T09:25:50.999Z</time></trkpt><trkpt lat="44.1184234522363" lon="7.920644326194246"><ele>1338.0</ele><time>2026-05-03T09:25:51.999Z</time></trkpt><trkpt lat="44.118491226766096" lon="7.920603327483215"><ele>1338.0</ele><time>2026-05-03T09:25:52.999Z</time></trkpt><trkpt lat="44.118551803958574" lon="7.920524848003592"><ele>1338.0</ele><time>2026-05-03T09:25:53.999Z</time></trkpt><trkpt lat="44.118617785056884" lon="7.920407404297575"><ele>1338.0</ele><time>2026-05-03T09:25:54.999Z</time></trkpt><trkpt lat="44.118699406530894" lon="7.920272936971568"><ele>1338.0</ele><time>2026-05-03T09:25:55.999Z</time></trkpt><trkpt lat="44.118758497416735" lon="7.920176906151364"><ele>1338.0</ele><time>2026-05-03T09:25:56.999Z</time></trkpt><trkpt lat="44.11880795381432" lon="7.920112267633715"><ele>1338.0</ele><time>2026-05-03T09:25:57.999Z</time></trkpt><trkpt lat="44.118858733660026" lon="7.9200392128278505"><ele>1338.0</ele><time>2026-05-03T09:25:58.999Z</time></trkpt><trkpt lat="44.11894500992779" lon="7.920011416730028"><ele>1338.0</ele><time>2026-05-03T09:25:59.999Z</time></trkpt><trkpt lat="44.11902860650642" lon="7.919944020979007"><ele>1338.0</ele><time>2026-05-03T09:26:00.999Z</time></trkpt><trkpt lat="44.11914444431332" lon="7.919903655560442"><ele>1335.0</ele><time>2026-05-03T09:26:01.999Z</time></trkpt><trkpt lat="44.119246297985896" lon="7.919838252204833"><ele>1332.0</ele><time>2026-05-03T09:26:02.999Z</time></trkpt><trkpt lat="44.11937313896897" lon="7.919758585936513"><ele>1329.0</ele><time>2026-05-03T09:26:03.999Z</time></trkpt><trkpt lat="44.119491643901235" lon="7.919713489357583"><ele>1326.0</ele><time>2026-05-03T09:26:04.999Z</time></trkpt><trkpt lat="44.11956428917934" lon="7.919656944687596"><ele>1326.0</ele><time>2026-05-03T09:26:05.999Z</time></trkpt><trkpt lat="44.119620950032434" lon="7.919579626847894"><ele>1326.0</ele><time>2026-05-03T09:26:06.999Z</time></trkpt><trkpt lat="44.11965566745942" lon="7.91948103148561"><ele>1326.0</ele><time>2026-05-03T09:26:07.999Z</time></trkpt><trkpt lat="44.11969266953953" lon="7.919388919930926"><ele>1326.0</ele><time>2026-05-03T09:26:08.999Z</time></trkpt><trkpt lat="44.119704885288115" lon="7.919280570804363"><ele>1326.0</ele><time>2026-05-03T09:26:09.999Z</time></trkpt><trkpt lat="44.119771622796236" lon="7.919190296237699"><ele>1326.0</ele><time>2026-05-03T09:26:11.999Z</time></trkpt><trkpt lat="44.119821716429804" lon="7.919302082286528"><ele>1326.0</ele><time>2026-05-03T09:26:22.999Z</time></trkpt><trkpt lat="44.11985241314509" lon="7.919428300192007"><ele>1326.0</ele><time>2026-05-03T09:26:24.999Z</time></trkpt><trkpt lat="44.11987653850157" lon="7.9195129595791895"><ele>1326.0</ele><time>2026-05-03T09:26:25.999Z</time></trkpt><trkpt lat="44.11990312244939" lon="7.919675216392839"><ele>1326.0</ele><time>2026-05-03T09:26:27.999Z</time></trkpt><trkpt lat="44.119914800859014" lon="7.919773829079619"><ele>1326.0</ele><time>2026-05-03T09:26:28.999Z</time></trkpt><trkpt lat="44.11994105511948" lon="7.919907338909924"><ele>1326.1666666666667</ele><time>2026-05-03T09:26:29.999Z</time></trkpt><trkpt lat="44.119964265264066" lon="7.920031577780913"><ele>1326.3333333333333</ele><time>2026-05-03T09:26:30.999Z</time></trkpt><trkpt lat="44.119979766612346" lon="7.920146953684977"><ele>1326.5</ele><time>2026-05-03T09:26:31.999Z</time></trkpt><trkpt lat="44.11999245009324" lon="7.920254821254268"><ele>1326.6666666666665</ele><time>2026-05-03T09:26:32.999Z</time></trkpt><trkpt lat="44.12002387167598" lon="7.920355016044607"><ele>1326.8333333333333</ele><time>2026-05-03T09:26:33.999Z</time></trkpt><trkpt lat="44.120054535036886" lon="7.920439149632403"><ele>1327.0</ele><time>2026-05-03T09:26:34.999Z</time></trkpt><trkpt lat="44.12011539020407" lon="7.920501188176575"><ele>1327.0</ele><time>2026-05-03T09:26:35.999Z</time></trkpt><trkpt lat="44.120195849102025" lon="7.920506772241727"><ele>1327.0</ele><time>2026-05-03T09:26:36.999Z</time></trkpt><trkpt lat="44.12025789053966" lon="7.920531586949041"><ele>1327.0</ele><time>2026-05-03T09:26:37.999Z</time></trkpt><trkpt lat="44.120386423239516" lon="7.9205855359611785"><ele>1327.0</ele><time>2026-05-03T09:26:39.999Z</time></trkpt><trkpt lat="44.120453431644506" lon="7.9206531954360075"><ele>1327.0</ele><time>2026-05-03T09:26:40.999Z</time></trkpt><trkpt lat="44.12052661043111" lon="7.920720684844506"><ele>1327.0</ele><time>2026-05-03T09:26:42Z</time></trkpt><trkpt lat="44.12058180156533" lon="7.920783926076205"><ele>1327.0</ele><time>2026-05-03T09:26:43Z</time></trkpt><trkpt lat="44.120642091100166" lon="7.920873773308469"><ele>1327.0</ele><time>2026-05-03T09:26:44Z</time></trkpt><trkpt lat="44.12067410858046" lon="7.92097350541792"><ele>1327.0</ele><time>2026-05-03T09:26:45Z</time></trkpt><trkpt lat="44.12072051817728" lon="7.921064541562779"><ele>1327.0</ele><time>2026-05-03T09:26:46Z</time></trkpt><trkpt lat="44.120774539171734" lon="7.921135332031948"><ele>1327.0</ele><time>2026-05-03T09:26:47Z</time></trkpt><trkpt lat="44.12081947196904" lon="7.921209525663241"><ele>1324.5</ele><time>2026-05-03T09:26:48Z</time></trkpt><trkpt lat="44.12086351232106" lon="7.9212777985531915"><ele>1322.0</ele><time>2026-05-03T09:26:49Z</time></trkpt><trkpt lat="44.12091627533165" lon="7.92134032576543"><ele>1319.5</ele><time>2026-05-03T09:26:50Z</time></trkpt><trkpt lat="44.12099910121374" lon="7.921373426745726"><ele>1317.0</ele><time>2026-05-03T09:26:51Z</time></trkpt><trkpt lat="44.121079401876344" lon="7.921411573565483"><ele>1314.5</ele><time>2026-05-03T09:26:52Z</time></trkpt><trkpt lat="44.121124409806555" lon="7.921501435183994"><ele>1312.0</ele><time>2026-05-03T09:26:53Z</time></trkpt><trkpt lat="44.121166223697195" lon="7.921606988417516"><ele>1312.0</ele><time>2026-05-03T09:26:54Z</time></trkpt><trkpt lat="44.12122234410518" lon="7.921676999842987"><ele>1312.0</ele><time>2026-05-03T09:26:55Z</time></trkpt><trkpt lat="44.12124818626341" lon="7.921770325493574"><ele>1312.0</ele><time>2026-05-03T09:26:56Z</time></trkpt><trkpt lat="44.12126026050006" lon="7.921876345051752"><ele>1312.0</ele><time>2026-05-03T09:26:57Z</time></trkpt><trkpt lat="44.121260014628405" lon="7.9219845656599945"><ele>1312.0</ele><time>2026-05-03T09:26:59Z</time></trkpt><trkpt lat="44.12131009263095" lon="7.922073285712799"><ele>1312.0</ele><time>2026-05-03T09:27:00Z</time></trkpt><trkpt lat="44.121382495991085" lon="7.922106946126325"><ele>1308.1999999999998</ele><time>2026-05-03T09:27:01Z</time></trkpt><trkpt lat="44.121466782273174" lon="7.922125480779889"><ele>1304.4</ele><time>2026-05-03T09:27:02Z</time></trkpt><trkpt lat="44.12156688897744" lon="7.922175245033278"><ele>1300.6</ele><time>2026-05-03T09:27:03Z</time></trkpt><trkpt lat="44.1216263679121" lon="7.922221167700659"><ele>1296.8000000000002</ele><time>2026-05-03T09:27:04Z</time></trkpt><trkpt lat="44.121689633159974" lon="7.922324286124143"><ele>1293.0</ele><time>2026-05-03T09:27:05Z</time></trkpt><trkpt lat="44.12175797231822" lon="7.922438256295848"><ele>1297.8000000000002</ele><time>2026-05-03T09:27:06Z</time></trkpt><trkpt lat="44.121812598240695" lon="7.922586112812239"><ele>1302.6</ele><time>2026-05-03T09:27:07Z</time></trkpt><trkpt lat="44.12187289611257" lon="7.922713352266406"><ele>1307.4</ele><time>2026-05-03T09:27:08Z</time></trkpt><trkpt lat="44.12191306576629" lon="7.9228149134564845"><ele>1312.1999999999998</ele><time>2026-05-03T09:27:09Z</time></trkpt><trkpt lat="44.12194577758113" lon="7.922901763221157"><ele>1317.0</ele><time>2026-05-03T09:27:10Z</time></trkpt><trkpt lat="44.12198222638521" lon="7.922997666541694"><ele>1317.0</ele><time>2026-05-03T09:27:11Z</time></trkpt><trkpt lat="44.12200425340864" lon="7.923092065048865"><ele>1317.0</ele><time>2026-05-03T09:27:12Z</time></trkpt><trkpt lat="44.12202355472277" lon="7.923224272419938"><ele>1317.0</ele><time>2026-05-03T09:27:14Z</time></trkpt><trkpt lat="44.12209895577951" lon="7.923263210237664"><ele>1317.0</ele><time>2026-05-03T09:27:16Z</time></trkpt><trkpt lat="44.1221565480903" lon="7.92320364541799"><ele>1317.0</ele><time>2026-05-03T09:27:19Z</time></trkpt><trkpt lat="44.12225243661827" lon="7.923188060011194"><ele>1317.0</ele><time>2026-05-03T09:27:21Z</time></trkpt><trkpt lat="44.12231052128551" lon="7.923226236314843"><ele>1317.0</ele><time>2026-05-03T09:27:22Z</time></trkpt><trkpt lat="44.1223875042006" lon="7.92329505214148"><ele>1317.0</ele><time>2026-05-03T09:27:23Z</time></trkpt><trkpt lat="44.12246082333213" lon="7.923407363184136"><ele>1317.0</ele><time>2026-05-03T09:27:24Z</time></trkpt><trkpt lat="44.12252110829405" lon="7.923439308620811"><ele>1317.0</ele><time>2026-05-03T09:27:25Z</time></trkpt><trkpt lat="44.12262899226499" lon="7.923494348404777"><ele>1317.0</ele><time>2026-05-03T09:27:27Z</time></trkpt><trkpt lat="44.122699855699324" lon="7.923571462015582"><ele>1314.8333333333333</ele><time>2026-05-03T09:27:28Z</time></trkpt><trkpt lat="44.12275303949294" lon="7.923627339255216"><ele>1312.6666666666667</ele><time>2026-05-03T09:27:29Z</time></trkpt><trkpt lat="44.12280944100817" lon="7.9236666892508225"><ele>1310.5</ele><time>2026-05-03T09:27:30Z</time></trkpt><trkpt lat="44.12287591472081" lon="7.923683735468038"><ele>1308.3333333333335</ele><time>2026-05-03T09:27:31Z</time></trkpt><trkpt lat="44.122942212083494" lon="7.923692219812267"><ele>1306.1666666666667</ele><time>2026-05-03T09:27:32Z</time></trkpt><trkpt lat="44.123039554325615" lon="7.92372928540622"><ele>1304.0</ele><time>2026-05-03T09:27:34Z</time></trkpt><trkpt lat="44.123127371524916" lon="7.923881800725594"><ele>1304.0</ele><time>2026-05-03T09:27:35.999Z</time></trkpt><trkpt lat="44.12316477934342" lon="7.92395505237191"><ele>1304.0</ele><time>2026-05-03T09:27:36.999Z</time></trkpt><trkpt lat="44.12322021020143" lon="7.924042567002122"><ele>1304.0</ele><time>2026-05-03T09:27:37.999Z</time></trkpt><trkpt lat="44.123261690870834" lon="7.924191571188762"><ele>1304.0</ele><time>2026-05-03T09:27:39.999Z</time></trkpt><trkpt lat="44.12336864272304" lon="7.924311100309217"><ele>1304.0</ele><time>2026-05-03T09:27:41.999Z</time></trkpt><trkpt lat="44.123446192409844" lon="7.924347180560174"><ele>1300.2</ele><time>2026-05-03T09:27:42.999Z</time></trkpt><trkpt lat="44.12354592021558" lon="7.924322927505137"><ele>1296.4</ele><time>2026-05-03T09:27:44.999Z</time></trkpt><trkpt lat="44.123637448370005" lon="7.9243804272097345"><ele>1292.6</ele><time>2026-05-03T09:27:45.999Z</time></trkpt><trkpt lat="44.123711681779895" lon="7.924464807278039"><ele>1288.8</ele><time>2026-05-03T09:27:46.999Z</time></trkpt><trkpt lat="44.12377809401048" lon="7.924538764531266"><ele>1285.0</ele><time>2026-05-03T09:27:47.999Z</time></trkpt><trkpt lat="44.12383517521002" lon="7.924599427888081"><ele>1285.0</ele><time>2026-05-03T09:27:48.999Z</time></trkpt><trkpt lat="44.12387682592699" lon="7.924693228431587"><ele>1285.0</ele><time>2026-05-03T09:27:49.999Z</time></trkpt><trkpt lat="44.12392213298558" lon="7.924809963634638"><ele>1285.0</ele><time>2026-05-03T09:27:50.999Z</time></trkpt><trkpt lat="44.123949771722195" lon="7.9249129441784625"><ele>1285.0</ele><time>2026-05-03T09:27:51.999Z</time></trkpt><trkpt lat="44.12401163450906" lon="7.92503824534866"><ele>1285.0</ele><time>2026-05-03T09:27:53.999Z</time></trkpt><trkpt lat="44.124079371849604" lon="7.925112681046359"><ele>1285.0</ele><time>2026-05-03T09:27:54.999Z</time></trkpt><trkpt lat="44.12412959705464" lon="7.925219275177956"><ele>1281.6</ele><time>2026-05-03T09:27:56.999Z</time></trkpt><trkpt lat="44.1241407389003" lon="7.925305868292526"><ele>1278.2</ele><time>2026-05-03T09:27:58.999Z</time></trkpt><trkpt lat="44.12421886690047" lon="7.925306276134602"><ele>1274.8</ele><time>2026-05-03T09:28:03.999Z</time></trkpt><trkpt lat="44.124387699977916" lon="7.9252865902687715"><ele>1271.4</ele><time>2026-05-03T09:28:05.999Z</time></trkpt><trkpt lat="44.124475553821206" lon="7.9253121386441405"><ele>1268.0</ele><time>2026-05-03T09:28:08.999Z</time></trkpt><trkpt lat="44.1245443544624" lon="7.925306525333607"><ele>1268.0</ele><time>2026-05-03T09:28:10.999Z</time></trkpt><trkpt lat="44.12461855360298" lon="7.9252712200221085"><ele>1268.0</ele><time>2026-05-03T09:28:11.999Z</time></trkpt><trkpt lat="44.12504277028396" lon="7.925262399644325"><ele>1262.75</ele><time>2026-05-03T09:28:13.999Z</time></trkpt><trkpt lat="44.125115568474435" lon="7.925279804786087"><ele>1257.5</ele><time>2026-05-03T09:28:14.999Z</time></trkpt><trkpt lat="44.12528892151304" lon="7.925250430351817"><ele>1252.25</ele><time>2026-05-03T09:28:16.999Z</time></trkpt><trkpt lat="44.12537392954627" lon="7.925307016671478"><ele>1247.0</ele><time>2026-05-03T09:28:17.999Z</time></trkpt><trkpt lat="44.1254807871017" lon="7.925387521466227"><ele>1247.0</ele><time>2026-05-03T09:28:18.999Z</time></trkpt><trkpt lat="44.12556779192903" lon="7.925442603307117"><ele>1247.0</ele><time>2026-05-03T09:28:19.999Z</time></trkpt><trkpt lat="44.12563285153182" lon="7.925449781180915"><ele>1247.0</ele><time>2026-05-03T09:28:20.999Z</time></trkpt><trkpt lat="44.12571609635863" lon="7.9254932031374095"><ele>1247.0</ele><time>2026-05-03T09:28:21.999Z</time></trkpt><trkpt lat="44.125798878682666" lon="7.925552811131504"><ele>1247.0</ele><time>2026-05-03T09:28:22.999Z</time></trkpt><trkpt lat="44.12591101789274" lon="7.925576675332775"><ele>1243.8333333333335</ele><time>2026-05-03T09:28:23.999Z</time></trkpt><trkpt lat="44.126010085486655" lon="7.925593275589279"><ele>1240.6666666666667</ele><time>2026-05-03T09:28:24.999Z</time></trkpt><trkpt lat="44.12610115151078" lon="7.925604173780099"><ele>1237.5</ele><time>2026-05-03T09:28:25.999Z</time></trkpt><trkpt lat="44.12617167233418" lon="7.925610316993834"><ele>1234.3333333333333</ele><time>2026-05-03T09:28:26.999Z</time></trkpt><trkpt lat="44.126236416180944" lon="7.925638942764288"><ele>1231.1666666666665</ele><time>2026-05-03T09:28:27.999Z</time></trkpt><trkpt lat="44.126308051373194" lon="7.925609984087502"><ele>1228.0</ele><time>2026-05-03T09:28:28.999Z</time></trkpt><trkpt lat="44.126403561982535" lon="7.92561923588677"><ele>1228.0</ele><time>2026-05-03T09:28:29.999Z</time></trkpt><trkpt lat="44.12648154201647" lon="7.925668894584573"><ele>1228.0</ele><time>2026-05-03T09:28:30.999Z</time></trkpt><trkpt lat="44.126565490492666" lon="7.925728284268005"><ele>1228.0</ele><time>2026-05-03T09:28:31.999Z</time></trkpt><trkpt lat="44.126631609364054" lon="7.925809409947363"><ele>1228.0</ele><time>2026-05-03T09:28:32.999Z</time></trkpt><trkpt lat="44.12679390941658" lon="7.925819890390711"><ele>1228.0</ele><time>2026-05-03T09:28:34.999Z</time></trkpt><trkpt lat="44.12688115296379" lon="7.925801160402923"><ele>1228.5</ele><time>2026-05-03T09:28:36.999Z</time></trkpt><trkpt lat="44.126952299557665" lon="7.925862045293039"><ele>1229.0</ele><time>2026-05-03T09:28:38.999Z</time></trkpt><trkpt lat="44.12700310520605" lon="7.925937208176449"><ele>1229.5</ele><time>2026-05-03T09:28:39.999Z</time></trkpt><trkpt lat="44.12704637311964" lon="7.926054142964465"><ele>1230.0</ele><time>2026-05-03T09:28:40.999Z</time></trkpt><trkpt lat="44.12710755708095" lon="7.926123879467836"><ele>1230.5</ele><time>2026-05-03T09:28:41.999Z</time></trkpt><trkpt lat="44.127199435490276" lon="7.926200061115014"><ele>1231.0</ele><time>2026-05-03T09:28:43.999Z</time></trkpt><trkpt lat="44.127254775631606" lon="7.92630504555031"><ele>1231.0</ele><time>2026-05-03T09:28:45.999Z</time></trkpt><trkpt lat="44.127326279586995" lon="7.926274073323758"><ele>1231.0</ele><time>2026-05-03T09:28:50Z</time></trkpt><trkpt lat="44.1273918453556" lon="7.926283199721113"><ele>1231.0</ele><time>2026-05-03T09:28:53Z</time></trkpt><trkpt lat="44.12776076685871" lon="7.926369939914791"><ele>1226.3333333333333</ele><time>2026-05-03T09:28:56Z</time></trkpt><trkpt lat="44.12784785525976" lon="7.926497367127478"><ele>1221.6666666666665</ele><time>2026-05-03T09:28:57Z</time></trkpt><trkpt lat="44.127895267309285" lon="7.92657776727936"><ele>1217.0</ele><time>2026-05-03T09:28:58Z</time></trkpt><trkpt lat="44.12794104484651" lon="7.926673774542045"><ele>1212.3333333333333</ele><time>2026-05-03T09:28:59Z</time></trkpt><trkpt lat="44.12801733164577" lon="7.926707143691357"><ele>1207.6666666666667</ele><time>2026-05-03T09:29:01Z</time></trkpt><trkpt lat="44.12808465913049" lon="7.926712938630349"><ele>1203.0</ele><time>2026-05-03T09:29:02Z</time></trkpt><trkpt lat="44.12817855012366" lon="7.926650887958729"><ele>1203.0</ele><time>2026-05-03T09:29:03Z</time></trkpt><trkpt lat="44.128244766927565" lon="7.926634596575197"><ele>1203.0</ele><time>2026-05-03T09:29:04Z</time></trkpt><trkpt lat="44.12822374914711" lon="7.9264265269049385"><ele>1203.0</ele><time>2026-05-03T09:29:05Z</time></trkpt><trkpt lat="44.128333807742784" lon="7.9264548894213736"><ele>1203.0</ele><time>2026-05-03T09:29:06Z</time></trkpt><trkpt lat="44.128431162146164" lon="7.926425033870447"><ele>1203.0</ele><time>2026-05-03T09:29:07Z</time></trkpt><trkpt lat="44.12854129805915" lon="7.926402844424679"><ele>1200.8</ele><time>2026-05-03T09:29:08Z</time></trkpt><trkpt lat="44.1286326882805" lon="7.926367600595212"><ele>1198.6</ele><time>2026-05-03T09:29:09Z</time></trkpt><trkpt lat="44.128741834071135" lon="7.926333379459428"><ele>1196.4</ele><time>2026-05-03T09:29:10Z</time></trkpt><trkpt lat="44.12885506791474" lon="7.926273924270511"><ele>1194.2</ele><time>2026-05-03T09:29:11Z</time></trkpt><trkpt lat="44.128934009332504" lon="7.926215375105944"><ele>1192.0</ele><time>2026-05-03T09:29:12Z</time></trkpt><trkpt lat="44.12904504856958" lon="7.9261757106205275"><ele>1193.5</ele><time>2026-05-03T09:29:13Z</time></trkpt><trkpt lat="44.12914643843266" lon="7.926115931889781"><ele>1195.0</ele><time>2026-05-03T09:29:14Z</time></trkpt><trkpt lat="44.12921226797306" lon="7.926074419348919"><ele>1196.5</ele><time>2026-05-03T09:29:15Z</time></trkpt><trkpt lat="44.12929089739147" lon="7.926033148664059"><ele>1198.0</ele><time>2026-05-03T09:29:16Z</time></trkpt><trkpt lat="44.12936433141668" lon="7.9260081957694215"><ele>1199.5</ele><time>2026-05-03T09:29:17Z</time></trkpt><trkpt lat="44.12946224241755" lon="7.9260399937071675"><ele>1201.0</ele><time>2026-05-03T09:29:18Z</time></trkpt><trkpt lat="44.12953025327913" lon="7.9260671043011275"><ele>1201.0</ele><time>2026-05-03T09:29:19Z</time></trkpt><trkpt lat="44.129627037194446" lon="7.925954809144744"><ele>1201.0</ele><time>2026-05-03T09:29:21Z</time></trkpt><trkpt lat="44.12973445580302" lon="7.925883161707231"><ele>1201.0</ele><time>2026-05-03T09:29:23Z</time></trkpt><trkpt lat="44.12981279786852" lon="7.92582204978742"><ele>1201.0</ele><time>2026-05-03T09:29:25Z</time></trkpt><trkpt lat="44.12984104155013" lon="7.925738002277042"><ele>1201.0</ele><time>2026-05-03T09:29:26Z</time></trkpt><trkpt lat="44.129876355373995" lon="7.925646893668004"><ele>1197.3333333333333</ele><time>2026-05-03T09:29:27Z</time></trkpt><trkpt lat="44.12994256907293" lon="7.925529543148753"><ele>1193.6666666666665</ele><time>2026-05-03T09:29:29Z</time></trkpt><trkpt lat="44.13003157841433" lon="7.925408999066195"><ele>1190.0</ele><time>2026-05-03T09:29:31Z</time></trkpt><trkpt lat="44.1300793558786" lon="7.925342543915513"><ele>1186.3333333333333</ele><time>2026-05-03T09:29:32Z</time></trkpt><trkpt lat="44.13012333418865" lon="7.9252746247532855"><ele>1182.6666666666667</ele><time>2026-05-03T09:29:33Z</time></trkpt><trkpt lat="44.13018345969736" lon="7.925242681097402"><ele>1179.0</ele><time>2026-05-03T09:29:34Z</time></trkpt><trkpt lat="44.130258285011244" lon="7.925170238454247"><ele>1173.75</ele><time>2026-05-03T09:29:36Z</time></trkpt><trkpt lat="44.13018659692399" lon="7.924992498372201"><ele>1168.5</ele><time>2026-05-03T09:29:38Z</time></trkpt><trkpt lat="44.130130882943554" lon="7.92484262485818"><ele>1163.25</ele><time>2026-05-03T09:29:39Z</time></trkpt><trkpt lat="44.13008129225371" lon="7.924769219126932"><ele>1158.0</ele><time>2026-05-03T09:29:40Z</time></trkpt><trkpt lat="44.13003636148602" lon="7.924627252732064"><ele>1158.0</ele><time>2026-05-03T09:29:40.999Z</time></trkpt><trkpt lat="44.13004070842099" lon="7.9245263384212175"><ele>1158.0</ele><time>2026-05-03T09:29:41.999Z</time></trkpt><trkpt lat="44.13003795706684" lon="7.924392429527608"><ele>1158.0</ele><time>2026-05-03T09:29:42.999Z</time></trkpt><trkpt lat="44.130025431483915" lon="7.9243020631200904"><ele>1158.0</ele><time>2026-05-03T09:29:43.999Z</time></trkpt><trkpt lat="44.130004897318734" lon="7.924185905950584"><ele>1158.0</ele><time>2026-05-03T09:29:44.999Z</time></trkpt><trkpt lat="44.12993293523773" lon="7.9240354554316985"><ele>1151.3333333333333</ele><time>2026-05-03T09:29:46.999Z</time></trkpt><trkpt lat="44.12988466295633" lon="7.923971740621467"><ele>1144.6666666666667</ele><time>2026-05-03T09:29:47.999Z</time></trkpt><trkpt lat="44.12983748721057" lon="7.923910861197239"><ele>1138.0</ele><time>2026-05-03T09:29:48.999Z</time></trkpt><trkpt lat="44.12981505350421" lon="7.923802467146654"><ele>1131.3333333333335</ele><time>2026-05-03T09:29:49.999Z</time></trkpt><trkpt lat="44.12978675414426" lon="7.923674879285472"><ele>1124.6666666666667</ele><time>2026-05-03T09:29:50.999Z</time></trkpt><trkpt lat="44.12974782612215" lon="7.923572178922266"><ele>1118.0</ele><time>2026-05-03T09:29:51.999Z</time></trkpt><trkpt lat="44.12974762945898" lon="7.923469897952575"><ele>1117.1666666666667</ele><time>2026-05-03T09:29:52.999Z</time></trkpt><trkpt lat="44.129759462752794" lon="7.923357467870342"><ele>1116.3333333333335</ele><time>2026-05-03T09:29:53.999Z</time></trkpt><trkpt lat="44.12977934504447" lon="7.92324814220968"><ele>1115.5</ele><time>2026-05-03T09:29:55.999Z</time></trkpt><trkpt lat="44.1297929731474" lon="7.923138079610059"><ele>1114.6666666666667</ele><time>2026-05-03T09:29:58.999Z</time></trkpt><trkpt lat="44.129778413438565" lon="7.923034459132435"><ele>1113.8333333333333</ele><time>2026-05-03T09:30:01.999Z</time></trkpt><trkpt lat="44.12976913475451" lon="7.922946659160779"><ele>1113.0</ele><time>2026-05-03T09:30:03.999Z</time></trkpt><trkpt lat="44.12976910244584" lon="7.922830903883571"><ele>1113.0</ele><time>2026-05-03T09:30:05.999Z</time></trkpt><trkpt lat="44.129771161574936" lon="7.922680913939153"><ele>1113.0</ele><time>2026-05-03T09:30:07.999Z</time></trkpt><trkpt lat="44.12975369446789" lon="7.922587004590934"><ele>1113.0</ele><time>2026-05-03T09:30:09.999Z</time></trkpt><trkpt lat="44.1297923097179" lon="7.922476794508813"><ele>1113.0</ele><time>2026-05-03T09:30:11.999Z</time></trkpt><trkpt lat="44.12982880977966" lon="7.922388732868462"><ele>1113.0</ele><time>2026-05-03T09:30:13.999Z</time></trkpt><trkpt lat="44.1298594040269" lon="7.922284050602966"><ele>1113.0</ele><time>2026-05-03T09:30:15.999Z</time></trkpt><trkpt lat="44.12990160109165" lon="7.922206177208951"><ele>1112.6666666666667</ele><time>2026-05-03T09:36:04.999Z</time></trkpt><trkpt lat="44.12994612563153" lon="7.922143343977435"><ele>1112.3333333333333</ele><time>2026-05-03T09:36:33.999Z</time></trkpt><trkpt lat="44.12990859328521" lon="7.922063483058893"><ele>1112.0</ele><time>2026-05-03T09:37:59Z</time></trkpt><trkpt lat="44.12987795304809" lon="7.922201649238982"><ele>1111.6666666666665</ele><time>2026-05-03T09:39:15.999Z</time></trkpt><trkpt lat="44.129927353769304" lon="7.922131981580454"><ele>1111.3333333333333</ele><time>2026-05-03T09:42:02Z</time></trkpt><trkpt lat="44.129983489340596" lon="7.92207598945739"><ele>1111.0</ele><time>2026-05-03T09:42:05Z</time></trkpt><trkpt lat="44.13005316777141" lon="7.9220164170907745"><ele>1111.3999999999999</ele><time>2026-05-03T09:42:08Z</time></trkpt><trkpt lat="44.13010757090397" lon="7.921957730349491"><ele>1111.8</ele><time>2026-05-03T09:42:10Z</time></trkpt><trkpt lat="44.13015213654129" lon="7.921884341499696"><ele>1112.1999999999998</ele><time>2026-05-03T09:42:13Z</time></trkpt><trkpt lat="44.13025340126639" lon="7.9216461226171235"><ele>1112.6</ele><time>2026-05-03T09:42:15Z</time></trkpt><trkpt lat="44.13032505014864" lon="7.921535956050625"><ele>1113.0</ele><time>2026-05-03T09:42:16Z</time></trkpt><trkpt lat="44.1304512649314" lon="7.921490185587946"><ele>1113.0</ele><time>2026-05-03T09:42:18Z</time></trkpt><trkpt lat="44.13051276728048" lon="7.921406896991569"><ele>1113.0</ele><time>2026-05-03T09:42:21Z</time></trkpt><trkpt lat="44.130579526461645" lon="7.9213161514489565"><ele>1113.0</ele><time>2026-05-03T09:42:23Z</time></trkpt><trkpt lat="44.130636204571665" lon="7.921237125687165"><ele>1113.0</ele><time>2026-05-03T09:42:24.999Z</time></trkpt><trkpt lat="44.13069679795153" lon="7.921145935764041"><ele>1113.0</ele><time>2026-05-03T09:42:26.999Z</time></trkpt><trkpt lat="44.130756595127785" lon="7.921050810771548"><ele>1113.0</ele><time>2026-05-03T09:42:28.999Z</time></trkpt><trkpt lat="44.130844737534666" lon="7.9208654068610524"><ele>1113.0</ele><time>2026-05-03T09:42:30.999Z</time></trkpt><trkpt lat="44.13065807010411" lon="7.920933816880429"><ele>1113.0</ele><time>2026-05-03T09:42:31.999Z</time></trkpt><trkpt lat="44.130557952768186" lon="7.920973831645376"><ele>1113.0</ele><time>2026-05-03T09:42:33.999Z</time></trkpt><trkpt lat="44.130468372191686" lon="7.921028504365306"><ele>1113.0</ele><time>2026-05-03T09:42:35.999Z</time></trkpt><trkpt lat="44.130397413323394" lon="7.921074693803006"><ele>1113.0</ele><time>2026-05-03T09:42:36.999Z</time></trkpt><trkpt lat="44.13028812329856" lon="7.921145683654196"><ele>1113.0</ele><time>2026-05-03T09:42:38.999Z</time></trkpt><trkpt lat="44.1302226200078" lon="7.921189975187956"><ele>1113.0</ele><time>2026-05-03T09:42:40.999Z</time></trkpt><trkpt lat="44.130129458346936" lon="7.921261803310192"><ele>1113.0</ele><time>2026-05-03T09:42:43.999Z</time></trkpt><trkpt lat="44.130055837446285" lon="7.921328296580119"><ele>1113.0</ele><time>2026-05-03T09:42:45.999Z</time></trkpt><trkpt lat="44.130010863144335" lon="7.921250882061768"><ele>1113.0</ele><time>2026-05-03T09:42:49.999Z</time></trkpt><trkpt lat="44.13004752921768" lon="7.921171008896601"><ele>1113.0</ele><time>2026-05-03T09:42:50.999Z</time></trkpt><trkpt lat="44.13011416274002" lon="7.921080909837097"><ele>1113.0</ele><time>2026-05-03T09:42:51.999Z</time></trkpt><trkpt lat="44.13017957134723" lon="7.920982561833767"><ele>1113.0</ele><time>2026-05-03T09:42:52.999Z</time></trkpt><trkpt lat="44.13023999230566" lon="7.920898477606669"><ele>1113.0</ele><time>2026-05-03T09:42:53.999Z</time></trkpt><trkpt lat="44.130300621978044" lon="7.9208176026977215"><ele>1113.0</ele><time>2026-05-03T09:42:54.999Z</time></trkpt><trkpt lat="44.130376192070564" lon="7.9207456552090365"><ele>1106.8</ele><time>2026-05-03T09:42:55.999Z</time></trkpt><trkpt lat="44.13044368382361" lon="7.920665751261833"><ele>1100.6</ele><time>2026-05-03T09:42:56.999Z</time></trkpt><trkpt lat="44.130492698684385" lon="7.920601077622876"><ele>1094.4</ele><time>2026-05-03T09:42:57.999Z</time></trkpt><trkpt lat="44.130528998002575" lon="7.920525111774591"><ele>1088.2</ele><time>2026-05-03T09:42:58.999Z</time></trkpt><trkpt lat="44.130522346867295" lon="7.9203774112900165"><ele>1082.0</ele><time>2026-05-03T09:42:59.999Z</time></trkpt><trkpt lat="44.13044534551765" lon="7.92022269288545"><ele>1078.6</ele><time>2026-05-03T09:43:00.999Z</time></trkpt><trkpt lat="44.13041120110043" lon="7.920064158153767"><ele>1075.2</ele><time>2026-05-03T09:43:01.999Z</time></trkpt><trkpt lat="44.1303816913698" lon="7.919909111491059"><ele>1071.8</ele><time>2026-05-03T09:43:02.999Z</time></trkpt><trkpt lat="44.13033037775536" lon="7.919781693604906"><ele>1068.4</ele><time>2026-05-03T09:43:03.999Z</time></trkpt><trkpt lat="44.13031549576201" lon="7.919656137543899"><ele>1065.0</ele><time>2026-05-03T09:43:04.999Z</time></trkpt><trkpt lat="44.13031035546298" lon="7.919561139254358"><ele>1065.0</ele><time>2026-05-03T09:43:05.999Z</time></trkpt><trkpt lat="44.13030948485595" lon="7.919391143355556"><ele>1065.0</ele><time>2026-05-03T09:43:07.999Z</time></trkpt><trkpt lat="44.13031335128432" lon="7.919261923632145"><ele>1065.0</ele><time>2026-05-03T09:43:08.999Z</time></trkpt><trkpt lat="44.13032051386058" lon="7.919153226919884"><ele>1065.0</ele><time>2026-05-03T09:43:09.999Z</time></trkpt><trkpt lat="44.13033171926347" lon="7.919021247887115"><ele>1065.0</ele><time>2026-05-03T09:43:10.999Z</time></trkpt><trkpt lat="44.13034360638733" lon="7.918920992819444"><ele>1063.0</ele><time>2026-05-03T09:43:11.999Z</time></trkpt><trkpt lat="44.1303556355586" lon="7.918793771068552"><ele>1061.0</ele><time>2026-05-03T09:43:12.999Z</time></trkpt><trkpt lat="44.13039107348986" lon="7.91870551064208"><ele>1059.0</ele><time>2026-05-03T09:43:13.999Z</time></trkpt><trkpt lat="44.130444939113055" lon="7.918599825782736"><ele>1057.0</ele><time>2026-05-03T09:43:14.999Z</time></trkpt><trkpt lat="44.13050672874695" lon="7.918549666873269"><ele>1055.0</ele><time>2026-05-03T09:43:15.999Z</time></trkpt><trkpt lat="44.13063616709965" lon="7.918487680864477"><ele>1055.0</ele><time>2026-05-03T09:43:17.999Z</time></trkpt><trkpt lat="44.130705221053844" lon="7.91845280475575"><ele>1055.0</ele><time>2026-05-03T09:43:18.999Z</time></trkpt><trkpt lat="44.130822495473694" lon="7.91840990912437"><ele>1055.0</ele><time>2026-05-03T09:43:20.999Z</time></trkpt><trkpt lat="44.13097248418013" lon="7.918379786584937"><ele>1055.0</ele><time>2026-05-03T09:43:21.999Z</time></trkpt><trkpt lat="44.131085882568215" lon="7.918370998925038"><ele>1057.0</ele><time>2026-05-03T09:43:22.999Z</time></trkpt><trkpt lat="44.131199020542184" lon="7.918367829528059"><ele>1059.0</ele><time>2026-05-03T09:43:23.999Z</time></trkpt><trkpt lat="44.131306104846246" lon="7.918364464399308"><ele>1061.0</ele><time>2026-05-03T09:43:24.999Z</time></trkpt><trkpt lat="44.13140345410396" lon="7.91836079853618"><ele>1063.0</ele><time>2026-05-03T09:43:25.999Z</time></trkpt><trkpt lat="44.131489993635604" lon="7.918349507082016"><ele>1065.0</ele><time>2026-05-03T09:43:26.999Z</time></trkpt><trkpt lat="44.13158345643676" lon="7.918320534330488"><ele>1065.6</ele><time>2026-05-03T09:43:27.999Z</time></trkpt><trkpt lat="44.13168147712389" lon="7.918264436607884"><ele>1066.2</ele><time>2026-05-03T09:43:28.999Z</time></trkpt><trkpt lat="44.13176238557945" lon="7.918225730607676"><ele>1066.8</ele><time>2026-05-03T09:43:30Z</time></trkpt><trkpt lat="44.1318546434835" lon="7.918176721060582"><ele>1067.4</ele><time>2026-05-03T09:43:31Z</time></trkpt><trkpt lat="44.13193025233461" lon="7.9181121802758065"><ele>1068.0</ele><time>2026-05-03T09:43:32Z</time></trkpt><trkpt lat="44.131988931274066" lon="7.917959608420055"><ele>1068.0</ele><time>2026-05-03T09:43:33Z</time></trkpt><trkpt lat="44.13202531001502" lon="7.9178336082477685"><ele>1068.0</ele><time>2026-05-03T09:43:34Z</time></trkpt><trkpt lat="44.132034073063885" lon="7.917674324889313"><ele>1068.0</ele><time>2026-05-03T09:43:35Z</time></trkpt><trkpt lat="44.131996940981836" lon="7.917508096140093"><ele>1068.0</ele><time>2026-05-03T09:43:36Z</time></trkpt><trkpt lat="44.13201700785969" lon="7.9173817962165725"><ele>1068.0</ele><time>2026-05-03T09:43:37Z</time></trkpt><trkpt lat="44.13204961050423" lon="7.9172400744832565"><ele>1061.8</ele><time>2026-05-03T09:43:38Z</time></trkpt><trkpt lat="44.13207590162732" lon="7.917083589921446"><ele>1055.6</ele><time>2026-05-03T09:43:39Z</time></trkpt><trkpt lat="44.132083742003026" lon="7.916944661711394"><ele>1049.4</ele><time>2026-05-03T09:43:40Z</time></trkpt><trkpt lat="44.132060204645306" lon="7.916792427914326"><ele>1043.2</ele><time>2026-05-03T09:43:41Z</time></trkpt><trkpt lat="44.132039132198194" lon="7.91662601549712"><ele>1037.0</ele><time>2026-05-03T09:43:42Z</time></trkpt><trkpt lat="44.13201949250929" lon="7.916462605860319"><ele>1033.0</ele><time>2026-05-03T09:43:43Z</time></trkpt><trkpt lat="44.13199433147969" lon="7.916286398240139"><ele>1029.0</ele><time>2026-05-03T09:43:44Z</time></trkpt><trkpt lat="44.13197803984456" lon="7.91610531533411"><ele>1025.0</ele><time>2026-05-03T09:43:45Z</time></trkpt><trkpt lat="44.13197216988909" lon="7.915948154525638"><ele>1021.0</ele><time>2026-05-03T09:43:46Z</time></trkpt><trkpt lat="44.131984793106746" lon="7.915803099994521"><ele>1020.1999999999999</ele><time>2026-05-03T09:43:47Z</time></trkpt><trkpt lat="44.13200396594944" lon="7.915656592499779"><ele>1019.3999999999999</ele><time>2026-05-03T09:43:48Z</time></trkpt><trkpt lat="44.132025695503984" lon="7.915540925627263"><ele>1018.6</ele><time>2026-05-03T09:43:49Z</time></trkpt><trkpt lat="44.13205575607244" lon="7.915418363195654"><ele>1017.8</ele><time>2026-05-03T09:43:50Z</time></trkpt><trkpt lat="44.132065276411645" lon="7.91530711878486"><ele>1017.0</ele><time>2026-05-03T09:43:51Z</time></trkpt><trkpt lat="44.1320364802098" lon="7.915191173954025"><ele>1017.0</ele><time>2026-05-03T09:43:52Z</time></trkpt><trkpt lat="44.131961872167636" lon="7.915115808639746"><ele>1017.0</ele><time>2026-05-03T09:43:53Z</time></trkpt><trkpt lat="44.13192386893647" lon="7.915015420383072"><ele>1017.0</ele><time>2026-05-03T09:43:55Z</time></trkpt><trkpt lat="44.1318924966543" lon="7.914924104934317"><ele>1017.0</ele><time>2026-05-03T09:43:57Z</time></trkpt><trkpt lat="44.13185150185233" lon="7.914802630218323"><ele>1017.0</ele><time>2026-05-03T09:43:59Z</time></trkpt><trkpt lat="44.13182223285696" lon="7.914706685573175"><ele>1017.0</ele><time>2026-05-03T09:44:00Z</time></trkpt><trkpt lat="44.13179974321112" lon="7.914606360195876"><ele>1016.1666666666666</ele><time>2026-05-03T09:44:01Z</time></trkpt><trkpt lat="44.13178832574779" lon="7.914516466265883"><ele>1015.3333333333333</ele><time>2026-05-03T09:44:02Z</time></trkpt><trkpt lat="44.13183332673634" lon="7.914435039932913"><ele>1014.5</ele><time>2026-05-03T09:44:03Z</time></trkpt><trkpt lat="44.13190191348726" lon="7.914370609906577"><ele>1013.6666666666666</ele><time>2026-05-03T09:44:04Z</time></trkpt><trkpt lat="44.131994143408164" lon="7.9143152300183015"><ele>1012.8333333333333</ele><time>2026-05-03T09:44:05Z</time></trkpt><trkpt lat="44.1320975073768" lon="7.9142526349728906"><ele>1012.0</ele><time>2026-05-03T09:44:06Z</time></trkpt><trkpt lat="44.13219801336981" lon="7.914180081471714"><ele>1011.0</ele><time>2026-05-03T09:44:07Z</time></trkpt><trkpt lat="44.132288596411165" lon="7.914115785629837"><ele>1010.0</ele><time>2026-05-03T09:44:08Z</time></trkpt><trkpt lat="44.13235549245384" lon="7.914053074169329"><ele>1009.0</ele><time>2026-05-03T09:44:09Z</time></trkpt><trkpt lat="44.13240528905507" lon="7.913971156394536"><ele>1008.0</ele><time>2026-05-03T09:44:10Z</time></trkpt><trkpt lat="44.13241285384377" lon="7.9138232656166085"><ele>1007.0</ele><time>2026-05-03T09:44:11Z</time></trkpt><trkpt lat="44.132427034213144" lon="7.913674809289384"><ele>1008.4000000000001</ele><time>2026-05-03T09:44:12Z</time></trkpt><trkpt lat="44.132426870062" lon="7.91353588039171"><ele>1009.8000000000001</ele><time>2026-05-03T09:44:13Z</time></trkpt><trkpt lat="44.13242643465316" lon="7.9134068241123945"><ele>1011.2</ele><time>2026-05-03T09:44:14Z</time></trkpt><trkpt lat="44.13242509948674" lon="7.913285280832311"><ele>1012.6</ele><time>2026-05-03T09:44:15Z</time></trkpt><trkpt lat="44.132420986378705" lon="7.9131590728608225"><ele>1014.0</ele><time>2026-05-03T09:44:16Z</time></trkpt><trkpt lat="44.13242187311157" lon="7.9130408757291635"><ele>1014.0</ele><time>2026-05-03T09:44:17Z</time></trkpt><trkpt lat="44.13244266635617" lon="7.912931419555066"><ele>1014.0000000000001</ele><time>2026-05-03T09:44:18Z</time></trkpt><trkpt lat="44.13247921617831" lon="7.912801764464521"><ele>1014.0000000000001</ele><time>2026-05-03T09:44:19Z</time></trkpt><trkpt lat="44.13252121415664" lon="7.912663227754937"><ele>1014.0</ele><time>2026-05-03T09:44:20Z</time></trkpt><trkpt lat="44.13257282685344" lon="7.912550584581792"><ele>1014.0</ele><time>2026-05-03T09:44:21Z</time></trkpt><trkpt lat="44.13264369748453" lon="7.912439862490773"><ele>1010.2</ele><time>2026-05-03T09:44:22Z</time></trkpt><trkpt lat="44.13272268025037" lon="7.912321969742888"><ele>1006.4000000000001</ele><time>2026-05-03T09:44:23Z</time></trkpt><trkpt lat="44.13280273034811" lon="7.912205236483511"><ele>1002.6</ele><time>2026-05-03T09:44:24Z</time></trkpt><trkpt lat="44.13288135245243" lon="7.912096098525558"><ele>998.8</ele><time>2026-05-03T09:44:25Z</time></trkpt><trkpt lat="44.132963155358155" lon="7.912002165207476"><ele>995.0</ele><time>2026-05-03T09:44:26Z</time></trkpt><trkpt lat="44.13304175160836" lon="7.911886733349655"><ele>995.0</ele><time>2026-05-03T09:44:27Z</time></trkpt><trkpt lat="44.13313222533822" lon="7.911755597832314"><ele>995.0</ele><time>2026-05-03T09:44:28Z</time></trkpt><trkpt lat="44.133225322189766" lon="7.91158921584597"><ele>995.0</ele><time>2026-05-03T09:44:29Z</time></trkpt><trkpt lat="44.13330880804648" lon="7.911423168070537"><ele>995.0</ele><time>2026-05-03T09:44:29.999Z</time></trkpt><trkpt lat="44.13338485897696" lon="7.911262379247692"><ele>996.0</ele><time>2026-05-03T09:44:30.999Z</time></trkpt><trkpt lat="44.13345872340583" lon="7.911096645391265"><ele>997.0</ele><time>2026-05-03T09:44:31.999Z</time></trkpt><trkpt lat="44.13351090259407" lon="7.91090365648555"><ele>998.0</ele><time>2026-05-03T09:44:32.999Z</time></trkpt><trkpt lat="44.13354957532293" lon="7.910727982299925"><ele>999.0</ele><time>2026-05-03T09:44:33.999Z</time></trkpt><trkpt lat="44.13361190798904" lon="7.910560427418201"><ele>991.75</ele><time>2026-05-03T09:44:34.999Z</time></trkpt><trkpt lat="44.1336794648381" lon="7.910384443142712"><ele>984.5</ele><time>2026-05-03T09:44:35.999Z</time></trkpt><trkpt lat="44.13374746941537" lon="7.910208072905082"><ele>977.25</ele><time>2026-05-03T09:44:36.999Z</time></trkpt><trkpt lat="44.133808583732154" lon="7.910058035885716"><ele>970.0</ele><time>2026-05-03T09:44:37.999Z</time></trkpt><trkpt lat="44.133867836308106" lon="7.909946267192527"><ele>972.8</ele><time>2026-05-03T09:44:38.999Z</time></trkpt><trkpt lat="44.133934592316194" lon="7.90985638509648"><ele>975.6</ele><time>2026-05-03T09:44:39.999Z</time></trkpt><trkpt lat="44.133991300758446" lon="7.909758994760978"><ele>978.4000000000001</ele><time>2026-05-03T09:44:40.999Z</time></trkpt><trkpt lat="44.13405517743775" lon="7.90966373404402"><ele>981.2</ele><time>2026-05-03T09:44:41.999Z</time></trkpt><trkpt lat="44.134161767731754" lon="7.90964122119938"><ele>984.0</ele><time>2026-05-03T09:44:42.999Z</time></trkpt><trkpt lat="44.13427190225055" lon="7.909574168179753"><ele>984.0</ele><time>2026-05-03T09:44:43.999Z</time></trkpt><trkpt lat="44.134362963924275" lon="7.909495013354433"><ele>984.0000000000001</ele><time>2026-05-03T09:44:44.999Z</time></trkpt><trkpt lat="44.13443095352761" lon="7.9094250172534855"><ele>984.0000000000001</ele><time>2026-05-03T09:44:45.999Z</time></trkpt><trkpt lat="44.13452006390161" lon="7.909370673899462"><ele>984.0</ele><time>2026-05-03T09:44:47.999Z</time></trkpt><trkpt lat="44.13461651862919" lon="7.909326513702086"><ele>984.0</ele><time>2026-05-03T09:44:49.999Z</time></trkpt><trkpt lat="44.13472181005995" lon="7.909273906677414"><ele>980.8333333333334</ele><time>2026-05-03T09:44:51.999Z</time></trkpt><trkpt lat="44.13478910168272" lon="7.909238292139945"><ele>977.6666666666667</ele><time>2026-05-03T09:44:52.999Z</time></trkpt><trkpt lat="44.13486777859738" lon="7.909194654856813"><ele>974.5</ele><time>2026-05-03T09:44:53.999Z</time></trkpt><trkpt lat="44.13493885735758" lon="7.909129383230198"><ele>971.3333333333334</ele><time>2026-05-03T09:44:54.999Z</time></trkpt><trkpt lat="44.13500250937146" lon="7.909061031033831"><ele>968.1666666666667</ele><time>2026-05-03T09:44:55.999Z</time></trkpt><trkpt lat="44.13506076581243" lon="7.908993740534762"><ele>965.0</ele><time>2026-05-03T09:44:56.999Z</time></trkpt><trkpt lat="44.13512053469019" lon="7.908925442593418"><ele>965.0000000000001</ele><time>2026-05-03T09:44:57.999Z</time></trkpt><trkpt lat="44.13517564783134" lon="7.908868239458778"><ele>965.0</ele><time>2026-05-03T09:44:58.999Z</time></trkpt><trkpt lat="44.13523731407853" lon="7.908816943167494"><ele>965.0</ele><time>2026-05-03T09:44:59.999Z</time></trkpt><trkpt lat="44.135302537009785" lon="7.908751475543956"><ele>965.0</ele><time>2026-05-03T09:45:00.999Z</time></trkpt><trkpt lat="44.13536216992959" lon="7.908687266326379"><ele>965.0000000000001</ele><time>2026-05-03T09:45:01.999Z</time></trkpt><trkpt lat="44.13542232035303" lon="7.908619146099156"><ele>965.0</ele><time>2026-05-03T09:45:02.999Z</time></trkpt><trkpt lat="44.13547379152568" lon="7.90853528649421"><ele>965.0</ele><time>2026-05-03T09:45:03.999Z</time></trkpt><trkpt lat="44.135544142047735" lon="7.9084936925918665"><ele>965.0</ele><time>2026-05-03T09:45:04.999Z</time></trkpt><trkpt lat="44.13559016240874" lon="7.9084272383903365"><ele>965.0</ele><time>2026-05-03T09:45:05.999Z</time></trkpt><trkpt lat="44.135642440141915" lon="7.908373056608285"><ele>965.0</ele><time>2026-05-03T09:45:06.999Z</time></trkpt><trkpt lat="44.135696108530155" lon="7.908316227574644"><ele>965.0</ele><time>2026-05-03T09:45:07.999Z</time></trkpt><trkpt lat="44.1357335921" lon="7.908224062465486"><ele>965.0</ele><time>2026-05-03T09:45:08.999Z</time></trkpt><trkpt lat="44.135767251585214" lon="7.908147285456412"><ele>965.0</ele><time>2026-05-03T09:45:09.999Z</time></trkpt><trkpt lat="44.13584307051616" lon="7.908035768316238"><ele>963.1666666666667</ele><time>2026-05-03T09:45:11.999Z</time></trkpt><trkpt lat="44.13591119156298" lon="7.908019755474598"><ele>961.3333333333334</ele><time>2026-05-03T09:45:12.999Z</time></trkpt><trkpt lat="44.135992108148194" lon="7.908001045433105"><ele>959.5</ele><time>2026-05-03T09:45:13.999Z</time></trkpt><trkpt lat="44.136083519604966" lon="7.907979292503257"><ele>957.6666666666667</ele><time>2026-05-03T09:45:14.999Z</time></trkpt><trkpt lat="44.136172565068435" lon="7.907954510924158"><ele>955.8333333333334</ele><time>2026-05-03T09:45:15.999Z</time></trkpt><trkpt lat="44.13625214269809" lon="7.907937256229467"><ele>954.0</ele><time>2026-05-03T09:45:16.999Z</time></trkpt><trkpt lat="44.13633766485551" lon="7.907927952734017"><ele>954.0</ele><time>2026-05-03T09:45:17.999Z</time></trkpt><trkpt lat="44.13642606048165" lon="7.907923684814354"><ele>954.0</ele><time>2026-05-03T09:45:18.999Z</time></trkpt><trkpt lat="44.136510399587785" lon="7.907934491764455"><ele>954.0</ele><time>2026-05-03T09:45:19.999Z</time></trkpt><trkpt lat="44.13658598392624" lon="7.907944534885174"><ele>954.0</ele><time>2026-05-03T09:45:20.999Z</time></trkpt><trkpt lat="44.13666538250551" lon="7.907924053456693"><ele>954.0</ele><time>2026-05-03T09:45:21.999Z</time></trkpt><trkpt lat="44.136743069824405" lon="7.907880016735224"><ele>954.0</ele><time>2026-05-03T09:45:22.999Z</time></trkpt><trkpt lat="44.13682610570234" lon="7.907831778148684"><ele>952.3333333333334</ele><time>2026-05-03T09:45:23.999Z</time></trkpt><trkpt lat="44.13690980204037" lon="7.907795040292043"><ele>950.6666666666667</ele><time>2026-05-03T09:45:24.999Z</time></trkpt><trkpt lat="44.13697972550288" lon="7.907742733872183"><ele>949.0</ele><time>2026-05-03T09:45:25.999Z</time></trkpt><trkpt lat="44.137052161730175" lon="7.9076993884613405"><ele>947.3333333333334</ele><time>2026-05-03T09:45:26.999Z</time></trkpt><trkpt lat="44.137119204842335" lon="7.907580506904936"><ele>945.6666666666667</ele><time>2026-05-03T09:45:28.999Z</time></trkpt><trkpt lat="44.13718484949066" lon="7.907577713003956"><ele>944.0</ele><time>2026-05-03T09:45:30.999Z</time></trkpt><trkpt lat="44.13717054995797" lon="7.907735753058211"><ele>944.0</ele><time>2026-05-03T09:45:32.999Z</time></trkpt><trkpt lat="44.13710072342573" lon="7.907850866652688"><ele>944.0000000000001</ele><time>2026-05-03T09:45:33.999Z</time></trkpt><trkpt lat="44.13706067151805" lon="7.907977355769109"><ele>944.0000000000001</ele><time>2026-05-03T09:45:34.999Z</time></trkpt><trkpt lat="44.13700661850631" lon="7.908113450676661"><ele>944.0</ele><time>2026-05-03T09:45:36Z</time></trkpt><trkpt lat="44.13695319454056" lon="7.908237352880306"><ele>944.0</ele><time>2026-05-03T09:45:37Z</time></trkpt><trkpt lat="44.136901155854304" lon="7.908353456297451"><ele>941.0</ele><time>2026-05-03T09:45:38Z</time></trkpt><trkpt lat="44.13685493556364" lon="7.908474715532301"><ele>938.0000000000001</ele><time>2026-05-03T09:45:39Z</time></trkpt><trkpt lat="44.136816760452085" lon="7.908611946074887"><ele>935.0000000000001</ele><time>2026-05-03T09:45:40Z</time></trkpt><trkpt lat="44.136776624143955" lon="7.908761439987448"><ele>932.0</ele><time>2026-05-03T09:45:41Z</time></trkpt><trkpt lat="44.136742866542306" lon="7.908931409240749"><ele>929.0</ele><time>2026-05-03T09:45:42Z</time></trkpt><trkpt lat="44.13671371789393" lon="7.909093973102914"><ele>926.8000000000001</ele><time>2026-05-03T09:45:43Z</time></trkpt><trkpt lat="44.13670039768982" lon="7.9092621863051855"><ele>924.6000000000001</ele><time>2026-05-03T09:45:44Z</time></trkpt><trkpt lat="44.13669029890335" lon="7.9094196982732035"><ele>922.4</ele><time>2026-05-03T09:45:45Z</time></trkpt><trkpt lat="44.136704553943" lon="7.9095598298328085"><ele>920.2</ele><time>2026-05-03T09:45:46Z</time></trkpt><trkpt lat="44.136704313488565" lon="7.909703368790673"><ele>918.0</ele><time>2026-05-03T09:45:47Z</time></trkpt><trkpt lat="44.136677570574236" lon="7.909830681479305"><ele>918.0</ele><time>2026-05-03T09:45:48Z</time></trkpt><trkpt lat="44.13662980565713" lon="7.909956338290634"><ele>918.0</ele><time>2026-05-03T09:45:49Z</time></trkpt><trkpt lat="44.136619640739866" lon="7.910056485494055"><ele>918.0</ele><time>2026-05-03T09:45:50Z</time></trkpt><trkpt lat="44.13665695034637" lon="7.910204187744542"><ele>918.0</ele><time>2026-05-03T09:45:51Z</time></trkpt><trkpt lat="44.1366982006611" lon="7.910360340559992"><ele>918.0</ele><time>2026-05-03T09:45:52Z</time></trkpt><trkpt lat="44.136706609903506" lon="7.9105216399720035"><ele>919.0</ele><time>2026-05-03T09:45:53Z</time></trkpt><trkpt lat="44.13673368833474" lon="7.9106671523155985"><ele>920.0</ele><time>2026-05-03T09:45:54Z</time></trkpt><trkpt lat="44.136772627628886" lon="7.910820685141169"><ele>921.0</ele><time>2026-05-03T09:45:55Z</time></trkpt><trkpt lat="44.136836684473295" lon="7.910956300094554"><ele>922.0</ele><time>2026-05-03T09:45:56Z</time></trkpt><trkpt lat="44.13688013859243" lon="7.91111373844015"><ele>922.0</ele><time>2026-05-03T09:45:57Z</time></trkpt><trkpt lat="44.13692150405371" lon="7.911229037893794"><ele>922.0</ele><time>2026-05-03T09:45:58Z</time></trkpt><trkpt lat="44.13696684520183" lon="7.911340181971248"><ele>922.0</ele><time>2026-05-03T09:45:59Z</time></trkpt><trkpt lat="44.137006339689044" lon="7.911423872464148"><ele>922.0</ele><time>2026-05-03T09:46:00Z</time></trkpt><trkpt lat="44.13707573718464" lon="7.911501626825419"><ele>922.0</ele><time>2026-05-03T09:46:01Z</time></trkpt><trkpt lat="44.13717703354806" lon="7.911590031469621"><ele>922.0</ele><time>2026-05-03T09:46:02Z</time></trkpt><trkpt lat="44.1372701120038" lon="7.9116868614476115"><ele>922.0</ele><time>2026-05-03T09:46:03Z</time></trkpt><trkpt lat="44.13735203901522" lon="7.911781274196164"><ele>922.0</ele><time>2026-05-03T09:46:04Z</time></trkpt><trkpt lat="44.13742586395271" lon="7.911870017867835"><ele>922.0</ele><time>2026-05-03T09:46:05Z</time></trkpt><trkpt lat="44.13747028332957" lon="7.91194781273268"><ele>922.0</ele><time>2026-05-03T09:46:06Z</time></trkpt><trkpt lat="44.13748933111051" lon="7.912046731467648"><ele>919.2</ele><time>2026-05-03T09:46:07Z</time></trkpt><trkpt lat="44.13750592414418" lon="7.912155676439562"><ele>916.4000000000001</ele><time>2026-05-03T09:46:08Z</time></trkpt><trkpt lat="44.13751894541074" lon="7.912269053351232"><ele>913.5999999999999</ele><time>2026-05-03T09:46:09Z</time></trkpt><trkpt lat="44.13747111876829" lon="7.9123927506676015"><ele>910.8</ele><time>2026-05-03T09:46:10Z</time></trkpt><trkpt lat="44.13740822816163" lon="7.912500609886095"><ele>908.0</ele><time>2026-05-03T09:46:11Z</time></trkpt><trkpt lat="44.13733291560873" lon="7.912599014983632"><ele>908.0</ele><time>2026-05-03T09:46:12Z</time></trkpt><trkpt lat="44.13723102441889" lon="7.912684224102508"><ele>908.0</ele><time>2026-05-03T09:46:14Z</time></trkpt><trkpt lat="44.137176841661095" lon="7.912748352610399"><ele>908.0</ele><time>2026-05-03T09:46:15Z</time></trkpt><trkpt lat="44.13707143122378" lon="7.912896981384173"><ele>908.0</ele><time>2026-05-03T09:46:16Z</time></trkpt><trkpt lat="44.13700641408303" lon="7.913031511161268"><ele>908.0000000000001</ele><time>2026-05-03T09:46:17Z</time></trkpt><trkpt lat="44.13696471928436" lon="7.913143503134742"><ele>908.0</ele><time>2026-05-03T09:46:18Z</time></trkpt><trkpt lat="44.13692154175856" lon="7.9132500000918125"><ele>908.0</ele><time>2026-05-03T09:46:19Z</time></trkpt><trkpt lat="44.13688707759651" lon="7.913337318359665"><ele>908.0</ele><time>2026-05-03T09:46:20Z</time></trkpt><trkpt lat="44.13685757785688" lon="7.913443635301063"><ele>908.0000000000001</ele><time>2026-05-03T09:46:21Z</time></trkpt><trkpt lat="44.13686485336983" lon="7.913599125512344"><ele>908.0</ele><time>2026-05-03T09:46:22Z</time></trkpt><trkpt lat="44.13690345947642" lon="7.913707955943839"><ele>907.75</ele><time>2026-05-03T09:46:23Z</time></trkpt><trkpt lat="44.136956249633855" lon="7.913806755331923"><ele>907.5</ele><time>2026-05-03T09:46:24Z</time></trkpt><trkpt lat="44.137025635205596" lon="7.913843852313725"><ele>907.25</ele><time>2026-05-03T09:46:25Z</time></trkpt><trkpt lat="44.1371205255684" lon="7.913771594550488"><ele>907.0</ele><time>2026-05-03T09:46:26Z</time></trkpt><trkpt lat="44.137278549756495" lon="7.9136218976061565"><ele>903.8</ele><time>2026-05-03T09:46:27.999Z</time></trkpt><trkpt lat="44.137386305702314" lon="7.913523266915928"><ele>900.6</ele><time>2026-05-03T09:46:28.999Z</time></trkpt><trkpt lat="44.137463390953215" lon="7.913477932376352"><ele>897.3999999999999</ele><time>2026-05-03T09:46:29.999Z</time></trkpt><trkpt lat="44.13754382928036" lon="7.9134459369001515"><ele>894.1999999999999</ele><time>2026-05-03T09:46:30.999Z</time></trkpt><trkpt lat="44.137607924668096" lon="7.913418880462355"><ele>891.0</ele><time>2026-05-03T09:46:31.999Z</time></trkpt><trkpt lat="44.13770553604296" lon="7.913384442457689"><ele>891.0</ele><time>2026-05-03T09:46:33.999Z</time></trkpt><trkpt lat="44.13780461689348" lon="7.913381186419727"><ele>890.9999999999999</ele><time>2026-05-03T09:46:34.999Z</time></trkpt><trkpt lat="44.13788724556491" lon="7.91342635787458"><ele>890.9999999999999</ele><time>2026-05-03T09:46:35.999Z</time></trkpt><trkpt lat="44.13796811059455" lon="7.913489906247102"><ele>891.0</ele><time>2026-05-03T09:46:36.999Z</time></trkpt><trkpt lat="44.13805509492177" lon="7.913525563106427"><ele>891.0</ele><time>2026-05-03T09:46:37.999Z</time></trkpt><trkpt lat="44.138132944709625" lon="7.913556030205561"><ele>891.0000000000001</ele><time>2026-05-03T09:46:38.999Z</time></trkpt><trkpt lat="44.138205606861234" lon="7.913534479326549"><ele>891.0</ele><time>2026-05-03T09:46:39.999Z</time></trkpt><trkpt lat="44.13827408456792" lon="7.913553854081011"><ele>891.0</ele><time>2026-05-03T09:46:40.999Z</time></trkpt><trkpt lat="44.13834636352932" lon="7.913591556567278"><ele>891.0</ele><time>2026-05-03T09:46:41.999Z</time></trkpt><trkpt lat="44.13841542717283" lon="7.91360332383204"><ele>891.0</ele><time>2026-05-03T09:46:42.999Z</time></trkpt><trkpt lat="44.13848635367747" lon="7.913610177567847"><ele>891.0000000000001</ele><time>2026-05-03T09:46:43.999Z</time></trkpt><trkpt lat="44.13855166722244" lon="7.913609111581288"><ele>891.0</ele><time>2026-05-03T09:46:44.999Z</time></trkpt><trkpt lat="44.13862568363982" lon="7.9135822134040605"><ele>888.8333333333334</ele><time>2026-05-03T09:46:45.999Z</time></trkpt><trkpt lat="44.13869909493433" lon="7.913548094674285"><ele>886.6666666666667</ele><time>2026-05-03T09:46:46.999Z</time></trkpt><trkpt lat="44.13876426640652" lon="7.91352833125637"><ele>884.5</ele><time>2026-05-03T09:46:47.999Z</time></trkpt><trkpt lat="44.138882688631114" lon="7.913492412402388"><ele>882.3333333333334</ele><time>2026-05-03T09:46:49.999Z</time></trkpt><trkpt lat="44.13895155972061" lon="7.913426827702169"><ele>880.1666666666667</ele><time>2026-05-03T09:46:50.999Z</time></trkpt><trkpt lat="44.13900076502776" lon="7.913309434109814"><ele>878.0</ele><time>2026-05-03T09:46:51.999Z</time></trkpt><trkpt lat="44.13901761128829" lon="7.913169390154338"><ele>877.6666666666667</ele><time>2026-05-03T09:46:52.999Z</time></trkpt><trkpt lat="44.1390331096796" lon="7.913066335411054"><ele>877.3333333333334</ele><time>2026-05-03T09:46:53.999Z</time></trkpt><trkpt lat="44.139038340556176" lon="7.912948870418656"><ele>877.0</ele><time>2026-05-03T09:46:54.999Z</time></trkpt><trkpt lat="44.13905687301433" lon="7.912824848095992"><ele>876.6666666666667</ele><time>2026-05-03T09:46:55.999Z</time></trkpt><trkpt lat="44.13908225918743" lon="7.912715134118667"><ele>876.3333333333334</ele><time>2026-05-03T09:46:56.999Z</time></trkpt><trkpt lat="44.13912311735634" lon="7.9126239687711655"><ele>876.0</ele><time>2026-05-03T09:46:57.999Z</time></trkpt><trkpt lat="44.1391683653212" lon="7.912506269121966"><ele>874.1666666666666</ele><time>2026-05-03T09:46:58.999Z</time></trkpt><trkpt lat="44.139204132851646" lon="7.9123789360598415"><ele>872.3333333333333</ele><time>2026-05-03T09:46:59.999Z</time></trkpt><trkpt lat="44.13922564112803" lon="7.912253100269987"><ele>870.5</ele><time>2026-05-03T09:47:00.999Z</time></trkpt><trkpt lat="44.13923411121137" lon="7.91213124886202"><ele>868.6666666666666</ele><time>2026-05-03T09:47:01.999Z</time></trkpt><trkpt lat="44.139234847183104" lon="7.912012229506911"><ele>866.8333333333333</ele><time>2026-05-03T09:47:02.999Z</time></trkpt><trkpt lat="44.13922883550731" lon="7.91189979424737"><ele>865.0</ele><time>2026-05-03T09:47:03.999Z</time></trkpt><trkpt lat="44.139214491019445" lon="7.911797333535554"><ele>862.8</ele><time>2026-05-03T09:47:04.999Z</time></trkpt><trkpt lat="44.1391824985825" lon="7.911698985541703"><ele>860.6</ele><time>2026-05-03T09:47:05.999Z</time></trkpt><trkpt lat="44.13914560943358" lon="7.911614385010561"><ele>858.4000000000001</ele><time>2026-05-03T09:47:06.999Z</time></trkpt><trkpt lat="44.13908598365858" lon="7.911460398315799"><ele>856.2</ele><time>2026-05-03T09:47:08.999Z</time></trkpt><trkpt lat="44.139090241608464" lon="7.911295889467386"><ele>854.0</ele><time>2026-05-03T09:47:10.999Z</time></trkpt><trkpt lat="44.13914848308762" lon="7.911245487457938"><ele>854.0000000000001</ele><time>2026-05-03T09:47:11.999Z</time></trkpt><trkpt lat="44.13921176559642" lon="7.911174025452688"><ele>854.0</ele><time>2026-05-03T09:47:12.999Z</time></trkpt><trkpt lat="44.13926731002746" lon="7.911118586983928"><ele>854.0</ele><time>2026-05-03T09:47:13.999Z</time></trkpt><trkpt lat="44.13933144429243" lon="7.911066360458745"><ele>854.0</ele><time>2026-05-03T09:47:14.999Z</time></trkpt><trkpt lat="44.13939791810584" lon="7.91100421917251"><ele>854.0000000000001</ele><time>2026-05-03T09:47:15.999Z</time></trkpt><trkpt lat="44.13946825019357" lon="7.910960219387265"><ele>854.0</ele><time>2026-05-03T09:47:16.999Z</time></trkpt><trkpt lat="44.13955024670414" lon="7.910926373755259"><ele>854.0</ele><time>2026-05-03T09:47:17.999Z</time></trkpt><trkpt lat="44.13961938444892" lon="7.910881507190678"><ele>854.0000000000001</ele><time>2026-05-03T09:47:18.999Z</time></trkpt><trkpt lat="44.13967328070509" lon="7.910833043021284"><ele>854.0000000000001</ele><time>2026-05-03T09:47:19.999Z</time></trkpt><trkpt lat="44.13975205846025" lon="7.910771894045075"><ele>854.0</ele><time>2026-05-03T09:47:20.999Z</time></trkpt><trkpt lat="44.13987293559565" lon="7.910738416097813"><ele>854.0</ele><time>2026-05-03T09:47:22.999Z</time></trkpt><trkpt lat="44.13997539337882" lon="7.910648056215227"><ele>854.0</ele><time>2026-05-03T09:47:24.999Z</time></trkpt><trkpt lat="44.140071963588284" lon="7.910631545407369"><ele>854.0000000000001</ele><time>2026-05-03T09:47:25.999Z</time></trkpt><trkpt lat="44.14007004433481" lon="7.910475813286803"><ele>854.0000000000001</ele><time>2026-05-03T09:47:26.999Z</time></trkpt><trkpt lat="44.139970781940825" lon="7.910342721347934"><ele>854.0</ele><time>2026-05-03T09:47:27.999Z</time></trkpt><trkpt lat="44.139932123982916" lon="7.910240221662567"><ele>854.0</ele><time>2026-05-03T09:47:28.999Z</time></trkpt><trkpt lat="44.13989763760923" lon="7.910147054702827"><ele>851.6666666666667</ele><time>2026-05-03T09:47:29.999Z</time></trkpt><trkpt lat="44.13983926808859" lon="7.910078001821309"><ele>849.3333333333334</ele><time>2026-05-03T09:47:30.999Z</time></trkpt><trkpt lat="44.13984451748344" lon="7.909968200212744"><ele>847.0</ele><time>2026-05-03T09:47:31.999Z</time></trkpt><trkpt lat="44.13983909243058" lon="7.909852679580294"><ele>844.6666666666667</ele><time>2026-05-03T09:47:32.999Z</time></trkpt><trkpt lat="44.13982894942951" lon="7.909751656565979"><ele>842.3333333333334</ele><time>2026-05-03T09:47:33.999Z</time></trkpt><trkpt lat="44.13990372273748" lon="7.9096569012428075"><ele>840.0</ele><time>2026-05-03T09:47:34.999Z</time></trkpt><trkpt lat="44.13990961837362" lon="7.909561124569038"><ele>839.8333333333334</ele><time>2026-05-03T09:47:35.999Z</time></trkpt><trkpt lat="44.139922601497986" lon="7.909465207205574"><ele>839.6666666666667</ele><time>2026-05-03T09:47:36.999Z</time></trkpt><trkpt lat="44.13994215831525" lon="7.909367905905937"><ele>839.5</ele><time>2026-05-03T09:47:37.999Z</time></trkpt><trkpt lat="44.13997410812658" lon="7.909279205021026"><ele>839.3333333333334</ele><time>2026-05-03T09:47:38.999Z</time></trkpt><trkpt lat="44.14005857323342" lon="7.909147339636724"><ele>839.1666666666667</ele><time>2026-05-03T09:47:40.999Z</time></trkpt><trkpt lat="44.14014534933217" lon="7.909116617971541"><ele>839.0</ele><time>2026-05-03T09:47:42Z</time></trkpt><trkpt lat="44.140224178251614" lon="7.909096194979384"><ele>837.5000000000001</ele><time>2026-05-03T09:47:43Z</time></trkpt><trkpt lat="44.140286978702974" lon="7.909107934153458"><ele>836.0</ele><time>2026-05-03T09:47:44Z</time></trkpt><trkpt lat="44.14035604227242" lon="7.909157634496965"><ele>834.5</ele><time>2026-05-03T09:47:45Z</time></trkpt><trkpt lat="44.14042714935362" lon="7.909198198616104"><ele>833.0</ele><time>2026-05-03T09:47:46Z</time></trkpt><trkpt lat="44.1405517256446" lon="7.909158416342593"><ele>831.5000000000001</ele><time>2026-05-03T09:47:48Z</time></trkpt><trkpt lat="44.1406004077063" lon="7.909070607026253"><ele>830.0</ele><time>2026-05-03T09:47:49Z</time></trkpt><trkpt lat="44.14055457449175" lon="7.908893749109329"><ele>830.0</ele><time>2026-05-03T09:47:50Z</time></trkpt><trkpt lat="44.140512801234" lon="7.908766759799214"><ele>830.0</ele><time>2026-05-03T09:47:52Z</time></trkpt><trkpt lat="44.14050586993803" lon="7.90862382647465"><ele>830.0</ele><time>2026-05-03T09:47:54Z</time></trkpt><trkpt lat="44.140496691350556" lon="7.908527039853749"><ele>830.0</ele><time>2026-05-03T09:47:55Z</time></trkpt><trkpt lat="44.14048439904937" lon="7.908392935658461"><ele>830.0</ele><time>2026-05-03T09:47:56Z</time></trkpt><trkpt lat="44.14047067136493" lon="7.908254458021981"><ele>827.5000000000001</ele><time>2026-05-03T09:47:57Z</time></trkpt><trkpt lat="44.14047042650088" lon="7.908157269269555"><ele>825.0</ele><time>2026-05-03T09:47:58Z</time></trkpt><trkpt lat="44.14048213946988" lon="7.90806987722066"><ele>822.5</ele><time>2026-05-03T09:47:59Z</time></trkpt><trkpt lat="44.14050805111756" lon="7.907965006300658"><ele>820.0</ele><time>2026-05-03T09:48:00Z</time></trkpt><trkpt lat="44.14054096247605" lon="7.907840929904084"><ele>817.5000000000001</ele><time>2026-05-03T09:48:01Z</time></trkpt><trkpt lat="44.14056659128937" lon="7.907716925021323"><ele>815.0</ele><time>2026-05-03T09:48:02Z</time></trkpt><trkpt lat="44.140570744366975" lon="7.907591538147615"><ele>811.8333333333334</ele><time>2026-05-03T09:48:03Z</time></trkpt><trkpt lat="44.14056694728363" lon="7.907470746027076"><ele>808.6666666666667</ele><time>2026-05-03T09:48:04Z</time></trkpt><trkpt lat="44.140566947287" lon="7.907344804707469"><ele>805.5</ele><time>2026-05-03T09:48:05Z</time></trkpt><trkpt lat="44.140568631739995" lon="7.9072248731869115"><ele>802.3333333333333</ele><time>2026-05-03T09:48:06Z</time></trkpt><trkpt lat="44.140572814939254" lon="7.907116046595095"><ele>799.1666666666666</ele><time>2026-05-03T09:48:07Z</time></trkpt><trkpt lat="44.14058292320784" lon="7.906993874862079"><ele>796.0</ele><time>2026-05-03T09:48:08Z</time></trkpt><trkpt lat="44.14059267706671" lon="7.906882283440391"><ele>795.9999999999999</ele><time>2026-05-03T09:48:09Z</time></trkpt><trkpt lat="44.14060087008088" lon="7.906788549170711"><ele>796.0</ele><time>2026-05-03T09:48:10Z</time></trkpt><trkpt lat="44.140604758070765" lon="7.906640638210387"><ele>796.0</ele><time>2026-05-03T09:48:11Z</time></trkpt><trkpt lat="44.14059684733171" lon="7.906513413962087"><ele>796.0</ele><time>2026-05-03T09:48:12Z</time></trkpt><trkpt lat="44.140589698800895" lon="7.906409020073307"><ele>795.9999999999999</ele><time>2026-05-03T09:48:13Z</time></trkpt><trkpt lat="44.14058392124843" lon="7.906318353638972"><ele>796.0</ele><time>2026-05-03T09:48:14Z</time></trkpt><trkpt lat="44.140578462503655" lon="7.906209049977549"><ele>794.8</ele><time>2026-05-03T09:48:16Z</time></trkpt><trkpt lat="44.1406891705199" lon="7.906244784924624"><ele>793.5999999999999</ele><time>2026-05-03T09:48:18Z</time></trkpt><trkpt lat="44.14075598239715" lon="7.906327180108918"><ele>792.4</ele><time>2026-05-03T09:48:19Z</time></trkpt><trkpt lat="44.14084081233112" lon="7.906407979449596"><ele>791.2</ele><time>2026-05-03T09:48:20Z</time></trkpt><trkpt lat="44.14092868849807" lon="7.906461880740614"><ele>790.0</ele><time>2026-05-03T09:48:21Z</time></trkpt><trkpt lat="44.14100459019947" lon="7.906517644470904"><ele>792.1666666666666</ele><time>2026-05-03T09:48:22Z</time></trkpt><trkpt lat="44.14108565983688" lon="7.906541512167005"><ele>794.3333333333333</ele><time>2026-05-03T09:48:23Z</time></trkpt><trkpt lat="44.14116364369933" lon="7.906554721782929"><ele>796.5</ele><time>2026-05-03T09:48:24Z</time></trkpt><trkpt lat="44.14124670409939" lon="7.906564887402743"><ele>798.6666666666667</ele><time>2026-05-03T09:48:25Z</time></trkpt><trkpt lat="44.141326169335706" lon="7.906596652217507"><ele>800.8333333333334</ele><time>2026-05-03T09:48:26Z</time></trkpt><trkpt lat="44.14137942212257" lon="7.90664808567812"><ele>803.0</ele><time>2026-05-03T09:48:27Z</time></trkpt><trkpt lat="44.141483481577026" lon="7.906728714472112"><ele>806.2</ele><time>2026-05-03T09:48:28Z</time></trkpt><trkpt lat="44.14156508707929" lon="7.906794418327813"><ele>809.4</ele><time>2026-05-03T09:48:29Z</time></trkpt><trkpt lat="44.141648523716434" lon="7.906860848241844"><ele>812.6</ele><time>2026-05-03T09:48:30Z</time></trkpt><trkpt lat="44.141733575629154" lon="7.9069139847227845"><ele>815.8000000000001</ele><time>2026-05-03T09:48:31Z</time></trkpt><trkpt lat="44.1418048957783" lon="7.906970505728916"><ele>819.0</ele><time>2026-05-03T09:48:32Z</time></trkpt><trkpt lat="44.14188882179373" lon="7.907049502059317"><ele>819.0</ele><time>2026-05-03T09:48:32.999Z</time></trkpt><trkpt lat="44.141989605894445" lon="7.90713082711982"><ele>819.0</ele><time>2026-05-03T09:48:33.999Z</time></trkpt><trkpt lat="44.14210138368173" lon="7.907152710764173"><ele>819.0</ele><time>2026-05-03T09:48:34.999Z</time></trkpt><trkpt lat="44.14222684867942" lon="7.9071294363203535"><ele>819.0</ele><time>2026-05-03T09:48:35.999Z</time></trkpt><trkpt lat="44.14234141910237" lon="7.907148786733009"><ele>812.4000000000001</ele><time>2026-05-03T09:48:36.999Z</time></trkpt><trkpt lat="44.14246601229836" lon="7.9071811368482905"><ele>805.8</ele><time>2026-05-03T09:48:37.999Z</time></trkpt><trkpt lat="44.14257147195274" lon="7.907203766067535"><ele>799.2</ele><time>2026-05-03T09:48:38.999Z</time></trkpt><trkpt lat="44.14265612866839" lon="7.907227943232114"><ele>792.5999999999999</ele><time>2026-05-03T09:48:39.999Z</time></trkpt><trkpt lat="44.14275075278919" lon="7.907267713036011"><ele>786.0</ele><time>2026-05-03T09:48:40.999Z</time></trkpt><trkpt lat="44.14284531667755" lon="7.907339934255276"><ele>786.0</ele><time>2026-05-03T09:48:41.999Z</time></trkpt><trkpt lat="44.14293216890389" lon="7.907427253774091"><ele>786.0</ele><time>2026-05-03T09:48:42.999Z</time></trkpt><trkpt lat="44.14306913927529" lon="7.907490881469489"><ele>786.0</ele><time>2026-05-03T09:48:43.999Z</time></trkpt><trkpt lat="44.143169164766" lon="7.907525092213784"><ele>786.0</ele><time>2026-05-03T09:48:44.999Z</time></trkpt><trkpt lat="44.14328033641216" lon="7.907587725134355"><ele>787.25</ele><time>2026-05-03T09:48:45.999Z</time></trkpt><trkpt lat="44.143393449330475" lon="7.90765103423628"><ele>788.5</ele><time>2026-05-03T09:48:46.999Z</time></trkpt><trkpt lat="44.1435003825378" lon="7.9077162801463965"><ele>789.75</ele><time>2026-05-03T09:48:47.999Z</time></trkpt><trkpt lat="44.143603045676414" lon="7.907782448955467"><ele>791.0</ele><time>2026-05-03T09:48:48.999Z</time></trkpt><trkpt lat="44.14370764543628" lon="7.907855556667276"><ele>791.0</ele><time>2026-05-03T09:48:49.999Z</time></trkpt><trkpt lat="44.143814726169914" lon="7.907926145402103"><ele>791.0</ele><time>2026-05-03T09:48:50.999Z</time></trkpt><trkpt lat="44.14392353209782" lon="7.908005210667793"><ele>791.0</ele><time>2026-05-03T09:48:51.999Z</time></trkpt><trkpt lat="44.144033936420314" lon="7.908076461313381"><ele>791.0</ele><time>2026-05-03T09:48:52.999Z</time></trkpt><trkpt lat="44.14412960958913" lon="7.908158896917309"><ele>789.5000000000001</ele><time>2026-05-03T09:48:53.999Z</time></trkpt><trkpt lat="44.144208684616" lon="7.908238507450506"><ele>788.0</ele><time>2026-05-03T09:48:54.999Z</time></trkpt><trkpt lat="44.14429924368266" lon="7.908308708371021"><ele>786.5</ele><time>2026-05-03T09:48:55.999Z</time></trkpt><trkpt lat="44.14437499424841" lon="7.908369010439191"><ele>785.0</ele><time>2026-05-03T09:48:56.999Z</time></trkpt><trkpt lat="44.14443246144296" lon="7.908434767288179"><ele>783.5000000000001</ele><time>2026-05-03T09:48:57.999Z</time></trkpt><trkpt lat="44.14449816849844" lon="7.9084806134078125"><ele>782.0</ele><time>2026-05-03T09:48:58.999Z</time></trkpt><trkpt lat="44.14456694463808" lon="7.908497144518987"><ele>782.0000000000001</ele><time>2026-05-03T09:48:59.999Z</time></trkpt><trkpt lat="44.14465293895304" lon="7.908473808383006"><ele>782.0</ele><time>2026-05-03T09:49:01.999Z</time></trkpt><trkpt lat="44.14471440790958" lon="7.908533902968357"><ele>782.0</ele><time>2026-05-03T09:50:20Z</time></trkpt><trkpt lat="44.144776920404624" lon="7.9084890182585"><ele>782.0</ele><time>2026-05-03T09:50:22Z</time></trkpt><trkpt lat="44.14487411773472" lon="7.908420198135795"><ele>782.0000000000001</ele><time>2026-05-03T09:50:24Z</time></trkpt><trkpt lat="44.14495050848555" lon="7.908373421003821"><ele>782.0</ele><time>2026-05-03T09:50:26Z</time></trkpt><trkpt lat="44.14503023762097" lon="7.908321619996774"><ele>771.6</ele><time>2026-05-03T09:50:28Z</time></trkpt><trkpt lat="44.14512010109997" lon="7.90825597101515"><ele>761.2</ele><time>2026-05-03T09:50:30Z</time></trkpt><trkpt lat="44.145211912937015" lon="7.908194402656276"><ele>750.8</ele><time>2026-05-03T09:50:32Z</time></trkpt><trkpt lat="44.14529891171449" lon="7.908135760224925"><ele>740.4</ele><time>2026-05-03T09:50:34Z</time></trkpt><trkpt lat="44.14538778296251" lon="7.908081954967652"><ele>730.0</ele><time>2026-05-03T09:50:35.999Z</time></trkpt><trkpt lat="44.14546459132827" lon="7.908028024313036"><ele>730.0</ele><time>2026-05-03T09:50:37.999Z</time></trkpt><trkpt lat="44.145531586582294" lon="7.90798595338979"><ele>730.0</ele><time>2026-05-03T09:50:44.999Z</time></trkpt><trkpt lat="44.14560368135803" lon="7.9081042671309465"><ele>730.0</ele><time>2026-05-03T09:50:46.999Z</time></trkpt><trkpt lat="44.145636374542065" lon="7.908214428510398"><ele>730.0</ele><time>2026-05-03T09:50:47.999Z</time></trkpt><trkpt lat="44.145690647591096" lon="7.9083168556310355"><ele>730.0</ele><time>2026-05-03T09:50:48.999Z</time></trkpt><trkpt lat="44.14575596364431" lon="7.908448960538423"><ele>730.75</ele><time>2026-05-03T09:50:49.999Z</time></trkpt><trkpt lat="44.14582667811834" lon="7.908600062583572"><ele>731.5</ele><time>2026-05-03T09:50:50.999Z</time></trkpt><trkpt lat="44.14590436402428" lon="7.908758059006835"><ele>732.25</ele><time>2026-05-03T09:50:51.999Z</time></trkpt><trkpt lat="44.14598762929103" lon="7.9089125649634955"><ele>733.0</ele><time>2026-05-03T09:50:52.999Z</time></trkpt><trkpt lat="44.14607181889654" lon="7.909053482547604"><ele>733.0</ele><time>2026-05-03T09:50:53.999Z</time></trkpt><trkpt lat="44.14616115660682" lon="7.9091822701159336"><ele>733.0</ele><time>2026-05-03T09:50:54.999Z</time></trkpt><trkpt lat="44.146245613339104" lon="7.909308434462906"><ele>733.0</ele><time>2026-05-03T09:50:55.999Z</time></trkpt><trkpt lat="44.14634112130625" lon="7.909415878170786"><ele>733.0</ele><time>2026-05-03T09:50:56.999Z</time></trkpt><trkpt lat="44.146442095185925" lon="7.9095259494438"><ele>732.0</ele><time>2026-05-03T09:50:57.999Z</time></trkpt><trkpt lat="44.14653832847601" lon="7.909625337851161"><ele>731.0</ele><time>2026-05-03T09:50:58.999Z</time></trkpt><trkpt lat="44.14664685769617" lon="7.90968854219885"><ele>730.0</ele><time>2026-05-03T09:50:59.999Z</time></trkpt><trkpt lat="44.14675883388331" lon="7.909760507610767"><ele>729.0</ele><time>2026-05-03T09:51:00.999Z</time></trkpt><trkpt lat="44.146879783620285" lon="7.90979558962217"><ele>731.0</ele><time>2026-05-03T09:51:01.999Z</time></trkpt><trkpt lat="44.14700186496208" lon="7.909812540705797"><ele>733.0</ele><time>2026-05-03T09:51:02.999Z</time></trkpt><trkpt lat="44.147133630426566" lon="7.909808501877968"><ele>735.0</ele><time>2026-05-03T09:51:03.999Z</time></trkpt><trkpt lat="44.14726453408899" lon="7.9098212239557615"><ele>737.0</ele><time>2026-05-03T09:51:04.999Z</time></trkpt><trkpt lat="44.14737882442587" lon="7.909819580597548"><ele>738.6</ele><time>2026-05-03T09:51:05.999Z</time></trkpt><trkpt lat="44.14747755060355" lon="7.909805551906232"><ele>740.2</ele><time>2026-05-03T09:51:06.999Z</time></trkpt><trkpt lat="44.147572149435355" lon="7.909802028228056"><ele>741.8</ele><time>2026-05-03T09:51:07.999Z</time></trkpt><trkpt lat="44.14766612102506" lon="7.909815036542472"><ele>743.4</ele><time>2026-05-03T09:51:08.999Z</time></trkpt><trkpt lat="44.14776024631663" lon="7.909855079234442"><ele>745.0</ele><time>2026-05-03T09:51:09.999Z</time></trkpt><trkpt lat="44.14783691504479" lon="7.909924329646223"><ele>745.0</ele><time>2026-05-03T09:51:10.999Z</time></trkpt><trkpt lat="44.14790863704409" lon="7.910004501379952"><ele>745.0</ele><time>2026-05-03T09:51:11.999Z</time></trkpt><trkpt lat="44.14797481013747" lon="7.910093922398454"><ele>745.0</ele><time>2026-05-03T09:51:12.999Z</time></trkpt><trkpt lat="44.14803300246122" lon="7.910189463118919"><ele>745.0</ele><time>2026-05-03T09:51:13.999Z</time></trkpt><trkpt lat="44.14808473849778" lon="7.910277381274336"><ele>745.0</ele><time>2026-05-03T09:51:14.999Z</time></trkpt><trkpt lat="44.148128946974374" lon="7.910353567876038"><ele>745.0</ele><time>2026-05-03T09:51:15.999Z</time></trkpt><trkpt lat="44.14819656600306" lon="7.910474463171275"><ele>744.7142857142857</ele><time>2026-05-03T09:51:17.999Z</time></trkpt><trkpt lat="44.14824157449206" lon="7.9105694455222215"><ele>744.4285714285713</ele><time>2026-05-03T09:51:19.999Z</time></trkpt><trkpt lat="44.148306990251406" lon="7.910594448761295"><ele>744.1428571428571</ele><time>2026-05-03T09:51:21.999Z</time></trkpt><trkpt lat="44.148358155512696" lon="7.910516045827128"><ele>743.8571428571429</ele><time>2026-05-03T09:51:25.999Z</time></trkpt><trkpt lat="44.148426773740894" lon="7.910522924406536"><ele>743.5714285714286</ele><time>2026-05-03T09:51:27.999Z</time></trkpt><trkpt lat="44.14844938266356" lon="7.910438708805243"><ele>743.2857142857143</ele><time>2026-05-03T09:51:32.999Z</time></trkpt><trkpt lat="44.14851446323748" lon="7.910408954708474"><ele>743.0</ele><time>2026-05-03T09:51:35.999Z</time></trkpt><trkpt lat="44.14859324549204" lon="7.910393422206168"><ele>743.0</ele><time>2026-05-03T09:51:39.999Z</time></trkpt><trkpt lat="44.1486048928076" lon="7.910298079509518"><ele>743.0</ele><time>2026-05-03T09:51:43.999Z</time></trkpt><trkpt lat="44.14853327243795" lon="7.910308199638606"><ele>743.0</ele><time>2026-05-03T09:51:48.999Z</time></trkpt><trkpt lat="44.148475896806794" lon="7.9103661056180306"><ele>743.0</ele><time>2026-05-03T09:51:54Z</time></trkpt><trkpt lat="44.14848483386486" lon="7.910473967478474"><ele>743.0</ele><time>2026-05-03T09:52:03Z</time></trkpt><trkpt lat="44.14842525872086" lon="7.910422331507982"><ele>743.0</ele><time>2026-05-03T09:52:12Z</time></trkpt><trkpt lat="44.14836363967257" lon="7.910497255503045"><ele>743.0</ele><time>2026-05-03T09:53:13.999Z</time></trkpt><trkpt lat="44.14837774004538" lon="7.9104107763274"><ele>743.0</ele><time>2026-05-03T09:53:34.999Z</time></trkpt><trkpt lat="44.14836600502622" lon="7.910307595373207"><ele>743.0</ele><time>2026-05-03T09:54:01Z</time></trkpt><trkpt lat="44.14833840891706" lon="7.910225300054757"><ele>743.0</ele><time>2026-05-03T09:54:20Z</time></trkpt><trkpt lat="44.148393496262194" lon="7.9103559868669535"><ele>743.0</ele><time>2026-05-03T09:54:49Z</time></trkpt><trkpt lat="44.14840871545776" lon="7.910518807509648"><ele>743.0</ele><time>2026-05-03T09:55:06.999Z</time></trkpt><trkpt lat="44.14845603431472" lon="7.910595994002634"><ele>743.0</ele><time>2026-05-03T09:55:31.999Z</time></trkpt><trkpt lat="44.148460763830876" lon="7.910499844922748"><ele>743.0</ele><time>2026-05-03T09:56:55Z</time></trkpt><trkpt lat="44.148411312635176" lon="7.91041748535286"><ele>743.0</ele><time>2026-05-03T09:57:05.999Z</time></trkpt><trkpt lat="44.14839382979752" lon="7.910302765197835"><ele>743.0</ele><time>2026-05-03T09:57:14.999Z</time></trkpt><trkpt lat="44.14841058319875" lon="7.910116467297895"><ele>743.0</ele><time>2026-05-03T09:57:36.999Z</time></trkpt><trkpt lat="44.14834930755195" lon="7.910193756040564"><ele>743.0</ele><time>2026-05-03T09:58:01.999Z</time></trkpt><trkpt lat="44.148277829577985" lon="7.910199848739441"><ele>743.0</ele><time>2026-05-03T09:58:06.999Z</time></trkpt><trkpt lat="44.14828954161805" lon="7.910356888860853"><ele>743.0</ele><time>2026-05-03T09:58:24Z</time></trkpt><trkpt lat="44.14840563434857" lon="7.910718246241722"><ele>743.0</ele><time>2026-05-03T09:58:58.451Z</time></trkpt></trkseg><trkseg><trkpt lat="44.14830346033909" lon="7.9103428093451456"><ele>743.0</ele><time>2026-05-03T11:06:39.797Z</time></trkpt><trkpt lat="44.14835932778603" lon="7.910383553929349"><ele>743.0</ele><time>2026-05-03T11:06:48.999Z</time></trkpt><trkpt lat="44.14842572974893" lon="7.91045263226317"><ele>743.0</ele><time>2026-05-03T11:07:26Z</time></trkpt><trkpt lat="44.14836530184449" lon="7.910407517372635"><ele>743.0</ele><time>2026-05-03T11:07:35Z</time></trkpt><trkpt lat="44.14831314101052" lon="7.91030689840438"><ele>743.0</ele><time>2026-05-03T11:08:11.999Z</time></trkpt><trkpt lat="44.148310292713205" lon="7.910398832556136"><ele>743.0</ele><time>2026-05-03T11:08:40.999Z</time></trkpt><trkpt lat="44.148230774145695" lon="7.91041032982524"><ele>743.0</ele><time>2026-05-03T11:08:47Z</time></trkpt><trkpt lat="44.14816201559812" lon="7.9102888663823725"><ele>743.3333333333333</ele><time>2026-05-03T11:08:49Z</time></trkpt><trkpt lat="44.14812138550746" lon="7.9102100152368475"><ele>743.6666666666666</ele><time>2026-05-03T11:08:50Z</time></trkpt><trkpt lat="44.148075127726365" lon="7.910127502262688"><ele>744.0</ele><time>2026-05-03T11:08:51Z</time></trkpt><trkpt lat="44.14800558388867" lon="7.910001840722525"><ele>744.3333333333334</ele><time>2026-05-03T11:08:53Z</time></trkpt><trkpt lat="44.147956187219194" lon="7.909934588655535"><ele>744.6666666666667</ele><time>2026-05-03T11:08:54Z</time></trkpt><trkpt lat="44.147904390693554" lon="7.909866423527775"><ele>745.0</ele><time>2026-05-03T11:08:55Z</time></trkpt><trkpt lat="44.14784704300462" lon="7.909816790732973"><ele>745.0</ele><time>2026-05-03T11:08:56Z</time></trkpt><trkpt lat="44.14776123228781" lon="7.909768782902857"><ele>745.0</ele><time>2026-05-03T11:08:58Z</time></trkpt><trkpt lat="44.14766865117622" lon="7.90975834071577"><ele>745.0</ele><time>2026-05-03T11:09:00Z</time></trkpt><trkpt lat="44.147582012946664" lon="7.909764798566202"><ele>745.0</ele><time>2026-05-03T11:09:04Z</time></trkpt><trkpt lat="44.14761374447881" lon="7.909887630750545"><ele>745.0</ele><time>2026-05-03T11:09:06Z</time></trkpt><trkpt lat="44.147684872858726" lon="7.909932875966113"><ele>745.0</ele><time>2026-05-03T11:09:08Z</time></trkpt><trkpt lat="44.14769043042401" lon="7.909843564529465"><ele>745.0</ele><time>2026-05-03T11:09:27Z</time></trkpt><trkpt lat="44.14771640190459" lon="7.909934239146692"><ele>745.0</ele><time>2026-05-03T11:12:13.999Z</time></trkpt><trkpt lat="44.14779533839802" lon="7.909941544610346"><ele>745.0</ele><time>2026-05-03T11:13:03Z</time></trkpt><trkpt lat="44.147864988791945" lon="7.910019465846213"><ele>745.0</ele><time>2026-05-03T11:13:05Z</time></trkpt><trkpt lat="44.147928102404514" lon="7.909926126268834"><ele>745.0</ele><time>2026-05-03T11:13:10Z</time></trkpt><trkpt lat="44.14784992195509" lon="7.909819722411031"><ele>745.0</ele><time>2026-05-03T11:13:12Z</time></trkpt><trkpt lat="44.147787086382316" lon="7.909787698524184"><ele>745.0</ele><time>2026-05-03T11:13:13Z</time></trkpt><trkpt lat="44.14766252602229" lon="7.909761687999707"><ele>745.0</ele><time>2026-05-03T11:13:15Z</time></trkpt><trkpt lat="44.14759305452687" lon="7.909764543709954"><ele>745.0</ele><time>2026-05-03T11:13:16Z</time></trkpt><trkpt lat="44.147513817491685" lon="7.909765309051529"><ele>745.0</ele><time>2026-05-03T11:13:17Z</time></trkpt><trkpt lat="44.14742746518677" lon="7.9097754485843765"><ele>745.0</ele><time>2026-05-03T11:13:18Z</time></trkpt><trkpt lat="44.14733349051245" lon="7.9097817066011675"><ele>743.4</ele><time>2026-05-03T11:13:19Z</time></trkpt><trkpt lat="44.147233697397944" lon="7.909780470431472"><ele>741.8</ele><time>2026-05-03T11:13:20Z</time></trkpt><trkpt lat="44.14713176142765" lon="7.9097796522957555"><ele>740.2</ele><time>2026-05-03T11:13:21Z</time></trkpt><trkpt lat="44.14702580288516" lon="7.909770387954947"><ele>738.6</ele><time>2026-05-03T11:13:22Z</time></trkpt><trkpt lat="44.14691564021461" lon="7.909754138359426"><ele>737.0</ele><time>2026-05-03T11:13:23Z</time></trkpt><trkpt lat="44.14680334175916" lon="7.909713846032496"><ele>737.0</ele><time>2026-05-03T11:13:24Z</time></trkpt><trkpt lat="44.146697048341956" lon="7.909657482750255"><ele>737.0</ele><time>2026-05-03T11:13:25Z</time></trkpt><trkpt lat="44.146593207861685" lon="7.9095937150041795"><ele>737.0</ele><time>2026-05-03T11:13:26Z</time></trkpt><trkpt lat="44.14648718851906" lon="7.9094998069691425"><ele>737.0</ele><time>2026-05-03T11:13:27Z</time></trkpt><trkpt lat="44.14640098254769" lon="7.909409746051521"><ele>736.0</ele><time>2026-05-03T11:13:28Z</time></trkpt><trkpt lat="44.14631797629267" lon="7.909300092656021"><ele>735.0</ele><time>2026-05-03T11:13:29Z</time></trkpt><trkpt lat="44.14623220504002" lon="7.909167902891249"><ele>734.0</ele><time>2026-05-03T11:13:30Z</time></trkpt><trkpt lat="44.146152340484775" lon="7.909042289620329"><ele>733.0</ele><time>2026-05-03T11:13:31Z</time></trkpt><trkpt lat="44.14607323797044" lon="7.908917139170913"><ele>733.0</ele><time>2026-05-03T11:13:32Z</time></trkpt><trkpt lat="44.146000849020425" lon="7.90879124058952"><ele>733.0</ele><time>2026-05-03T11:13:33Z</time></trkpt><trkpt lat="44.14592851347579" lon="7.9086550177704344"><ele>733.0</ele><time>2026-05-03T11:13:34Z</time></trkpt><trkpt lat="44.145862468338784" lon="7.908509481418274"><ele>733.0</ele><time>2026-05-03T11:13:35Z</time></trkpt><trkpt lat="44.14579959689261" lon="7.908368630058257"><ele>732.5</ele><time>2026-05-03T11:13:36Z</time></trkpt><trkpt lat="44.1457466999145" lon="7.908251881125068"><ele>732.0</ele><time>2026-05-03T11:13:37Z</time></trkpt><trkpt lat="44.1456998036635" lon="7.908156749140994"><ele>731.5</ele><time>2026-05-03T11:13:38Z</time></trkpt><trkpt lat="44.145663217218214" lon="7.908085011656325"><ele>731.0</ele><time>2026-05-03T11:13:39Z</time></trkpt><trkpt lat="44.145630332729844" lon="7.908004418592014"><ele>730.5</ele><time>2026-05-03T11:13:43Z</time></trkpt><trkpt lat="44.145592181475436" lon="7.907931296272586"><ele>730.0</ele><time>2026-05-03T11:13:53Z</time></trkpt><trkpt lat="44.14548238522962" lon="7.907979474626147"><ele>730.0</ele><time>2026-05-03T11:13:54.999Z</time></trkpt><trkpt lat="44.145415574356996" lon="7.90802404781476"><ele>730.0</ele><time>2026-05-03T11:13:55.999Z</time></trkpt><trkpt lat="44.14534051067789" lon="7.908074658584324"><ele>730.0</ele><time>2026-05-03T11:13:56.999Z</time></trkpt><trkpt lat="44.145264969866346" lon="7.908126464183601"><ele>730.0</ele><time>2026-05-03T11:13:57.999Z</time></trkpt><trkpt lat="44.14519451357355" lon="7.908174782827703"><ele>730.0</ele><time>2026-05-03T11:13:58.999Z</time></trkpt><trkpt lat="44.14513478666657" lon="7.908215743413704"><ele>730.0</ele><time>2026-05-03T11:13:59.999Z</time></trkpt><trkpt lat="44.145065194403266" lon="7.908262246265593"><ele>730.0</ele><time>2026-05-03T11:14:00.999Z</time></trkpt><trkpt lat="44.14499217339828" lon="7.908310952017917"><ele>730.0</ele><time>2026-05-03T11:14:01.999Z</time></trkpt><trkpt lat="44.144915524982665" lon="7.90836207726417"><ele>730.0</ele><time>2026-05-03T11:14:02.999Z</time></trkpt><trkpt lat="44.144843484821834" lon="7.908410128631983"><ele>730.0</ele><time>2026-05-03T11:14:03.999Z</time></trkpt><trkpt lat="44.14477823546643" lon="7.908439425514174"><ele>730.0</ele><time>2026-05-03T11:14:04.999Z</time></trkpt><trkpt lat="44.144676918891804" lon="7.908449158684282"><ele>730.0</ele><time>2026-05-03T11:14:06.999Z</time></trkpt><trkpt lat="44.144565382208704" lon="7.9084426536138634"><ele>734.1666666666667</ele><time>2026-05-03T11:14:08.999Z</time></trkpt><trkpt lat="44.14445590873135" lon="7.90841380914009"><ele>738.3333333333334</ele><time>2026-05-03T11:14:10.999Z</time></trkpt><trkpt lat="44.144402552712044" lon="7.908354844956077"><ele>742.5</ele><time>2026-05-03T11:14:11.999Z</time></trkpt><trkpt lat="44.1443343851269" lon="7.908298492306082"><ele>746.6666666666666</ele><time>2026-05-03T11:14:12.999Z</time></trkpt><trkpt lat="44.14426365825331" lon="7.9082374528752135"><ele>750.8333333333333</ele><time>2026-05-03T11:14:13.999Z</time></trkpt><trkpt lat="44.144204518877714" lon="7.908185984355223"><ele>755.0</ele><time>2026-05-03T11:14:14.999Z</time></trkpt><trkpt lat="44.14414728068662" lon="7.9081432489019425"><ele>755.0</ele><time>2026-05-03T11:14:15.999Z</time></trkpt><trkpt lat="44.14407809802464" lon="7.908081414460168"><ele>755.0</ele><time>2026-05-03T11:14:16.999Z</time></trkpt><trkpt lat="44.1439875712355" lon="7.908011830848693"><ele>755.0</ele><time>2026-05-03T11:14:17.999Z</time></trkpt><trkpt lat="44.14392490858619" lon="7.907960173865507"><ele>755.0</ele><time>2026-05-03T11:14:18.999Z</time></trkpt><trkpt lat="44.143841360740446" lon="7.907901862741801"><ele>755.0</ele><time>2026-05-03T11:14:20.999Z</time></trkpt><trkpt lat="44.1437468110446" lon="7.907845763364249"><ele>754.8</ele><time>2026-05-03T11:14:22.999Z</time></trkpt><trkpt lat="44.143666093893465" lon="7.907789466908978"><ele>754.6</ele><time>2026-05-03T11:14:23.999Z</time></trkpt><trkpt lat="44.14357574947099" lon="7.90772082202669"><ele>754.4000000000001</ele><time>2026-05-03T11:14:24.999Z</time></trkpt><trkpt lat="44.14349027858031" lon="7.907658819577215"><ele>754.2</ele><time>2026-05-03T11:14:25.999Z</time></trkpt><trkpt lat="44.14340527757818" lon="7.9076078106323395"><ele>754.0</ele><time>2026-05-03T11:14:26.999Z</time></trkpt><trkpt lat="44.143313469849076" lon="7.907560913359131"><ele>760.4000000000001</ele><time>2026-05-03T11:14:27.999Z</time></trkpt><trkpt lat="44.143193832838264" lon="7.907493413454962"><ele>766.8</ele><time>2026-05-03T11:14:28.999Z</time></trkpt><trkpt lat="44.14310145647327" lon="7.907453981542076"><ele>773.2</ele><time>2026-05-03T11:14:29.999Z</time></trkpt><trkpt lat="44.143032015653965" lon="7.907425005791687"><ele>779.5999999999999</ele><time>2026-05-03T11:14:30.999Z</time></trkpt><trkpt lat="44.14295174726518" lon="7.907369764164228"><ele>786.0</ele><time>2026-05-03T11:14:31.999Z</time></trkpt><trkpt lat="44.14285666254109" lon="7.907285809522074"><ele>786.0</ele><time>2026-05-03T11:14:32.999Z</time></trkpt><trkpt lat="44.14273552629884" lon="7.907204370592584"><ele>786.0</ele><time>2026-05-03T11:14:33.999Z</time></trkpt><trkpt lat="44.14261605084467" lon="7.907171575831445"><ele>786.0</ele><time>2026-05-03T11:14:34.999Z</time></trkpt><trkpt lat="44.14248241485652" lon="7.907138995513524"><ele>786.0</ele><time>2026-05-03T11:14:35.999Z</time></trkpt><trkpt lat="44.14238448885689" lon="7.907122263085254"><ele>791.5</ele><time>2026-05-03T11:14:36.999Z</time></trkpt><trkpt lat="44.14231446410569" lon="7.907114942852946"><ele>797.0</ele><time>2026-05-03T11:14:37.999Z</time></trkpt><trkpt lat="44.1422453880327" lon="7.907103176559054"><ele>802.5</ele><time>2026-05-03T11:14:38.999Z</time></trkpt><trkpt lat="44.14216561371564" lon="7.907085420785113"><ele>808.0</ele><time>2026-05-03T11:14:39.999Z</time></trkpt><trkpt lat="44.14208411334732" lon="7.907127058476777"><ele>813.5</ele><time>2026-05-03T11:14:40.999Z</time></trkpt><trkpt lat="44.14200309572899" lon="7.90709467746494"><ele>819.0</ele><time>2026-05-03T11:14:41.999Z</time></trkpt><trkpt lat="44.14193208579573" lon="7.907023816545961"><ele>819.0</ele><time>2026-05-03T11:14:42.999Z</time></trkpt><trkpt lat="44.141841854391316" lon="7.906932389454297"><ele>819.0</ele><time>2026-05-03T11:14:43.999Z</time></trkpt><trkpt lat="44.14175122437833" lon="7.906862555518956"><ele>819.0</ele><time>2026-05-03T11:14:44.999Z</time></trkpt><trkpt lat="44.14168876039287" lon="7.906821474898453"><ele>819.0</ele><time>2026-05-03T11:14:45.999Z</time></trkpt><trkpt lat="44.14162361122479" lon="7.906771392046565"><ele>819.0</ele><time>2026-05-03T11:14:46.999Z</time></trkpt><trkpt lat="44.14155740105374" lon="7.906728297173386"><ele>819.0</ele><time>2026-05-03T11:14:47.999Z</time></trkpt><trkpt lat="44.141484446644" lon="7.906665253305992"><ele>816.3333333333334</ele><time>2026-05-03T11:14:48.999Z</time></trkpt><trkpt lat="44.14141431003316" lon="7.906616824426075"><ele>813.6666666666667</ele><time>2026-05-03T11:14:49.999Z</time></trkpt><trkpt lat="44.14133233045819" lon="7.9065714404735035"><ele>811.0</ele><time>2026-05-03T11:14:50.999Z</time></trkpt><trkpt lat="44.14124488365638" lon="7.906539343923367"><ele>808.3333333333334</ele><time>2026-05-03T11:14:51.999Z</time></trkpt><trkpt lat="44.14115367097031" lon="7.906509800097166"><ele>805.6666666666667</ele><time>2026-05-03T11:14:52.999Z</time></trkpt><trkpt lat="44.14106818115122" lon="7.906442349441667"><ele>803.0</ele><time>2026-05-03T11:14:53.999Z</time></trkpt><trkpt lat="44.14099318913857" lon="7.9064210090116465"><ele>803.0000000000001</ele><time>2026-05-03T11:14:54.999Z</time></trkpt><trkpt lat="44.14092312809226" lon="7.906374704361254"><ele>803.0</ele><time>2026-05-03T11:14:55.999Z</time></trkpt><trkpt lat="44.1408442240134" lon="7.90631226153709"><ele>803.0</ele><time>2026-05-03T11:14:56.999Z</time></trkpt><trkpt lat="44.14077738949453" lon="7.906248220413497"><ele>803.0</ele><time>2026-05-03T11:14:58.999Z</time></trkpt><trkpt lat="44.14072449800311" lon="7.906196887230501"><ele>803.0000000000001</ele><time>2026-05-03T11:14:59.999Z</time></trkpt><trkpt lat="44.14062904515898" lon="7.906121090397044"><ele>803.0</ele><time>2026-05-03T11:15:01.999Z</time></trkpt><trkpt lat="44.140533556366414" lon="7.906178468425326"><ele>803.0</ele><time>2026-05-03T11:15:02.999Z</time></trkpt><trkpt lat="44.14055042516413" lon="7.906328399805652"><ele>803.0</ele><time>2026-05-03T11:15:04Z</time></trkpt><trkpt lat="44.14070092751738" lon="7.906399076026178"><ele>803.0</ele><time>2026-05-03T11:15:06Z</time></trkpt><trkpt lat="44.14079809649094" lon="7.906474571544346"><ele>803.0</ele><time>2026-05-03T11:15:08Z</time></trkpt><trkpt lat="44.14088127814857" lon="7.906560828573309"><ele>803.0000000000001</ele><time>2026-05-03T11:15:10Z</time></trkpt><trkpt lat="44.14098946834752" lon="7.906648437272519"><ele>803.0</ele><time>2026-05-03T11:15:12Z</time></trkpt><trkpt lat="44.141052924717634" lon="7.906697897880487"><ele>803.0</ele><time>2026-05-03T11:15:13Z</time></trkpt><trkpt lat="44.141113121651294" lon="7.906756966110866"><ele>803.0</ele><time>2026-05-03T11:15:14Z</time></trkpt><trkpt lat="44.14118120417651" lon="7.9068195386487945"><ele>803.0000000000001</ele><time>2026-05-03T11:15:15Z</time></trkpt><trkpt lat="44.141245149315395" lon="7.906914810717517"><ele>803.0</ele><time>2026-05-03T11:15:16Z</time></trkpt><trkpt lat="44.141305734460744" lon="7.906988716522024"><ele>806.2</ele><time>2026-05-03T11:15:17Z</time></trkpt><trkpt lat="44.14140631322458" lon="7.907115258637388"><ele>809.4</ele><time>2026-05-03T11:15:19Z</time></trkpt><trkpt lat="44.14146985476251" lon="7.907197046144631"><ele>812.6</ele><time>2026-05-03T11:15:20Z</time></trkpt><trkpt lat="44.141556534833406" lon="7.90729034875133"><ele>815.8000000000001</ele><time>2026-05-03T11:15:21Z</time></trkpt><trkpt lat="44.1416295336428" lon="7.907393175860627"><ele>819.0</ele><time>2026-05-03T11:15:22Z</time></trkpt><trkpt lat="44.141706607281606" lon="7.9074750949917725"><ele>819.0</ele><time>2026-05-03T11:15:23Z</time></trkpt><trkpt lat="44.141783110549014" lon="7.907554006873166"><ele>819.0</ele><time>2026-05-03T11:15:24Z</time></trkpt><trkpt lat="44.14185229140434" lon="7.90762013658988"><ele>819.0</ele><time>2026-05-03T11:15:25Z</time></trkpt><trkpt lat="44.14191937845207" lon="7.90767528267248"><ele>819.0</ele><time>2026-05-03T11:15:26Z</time></trkpt><trkpt lat="44.14199176426157" lon="7.9077278874031975"><ele>819.0</ele><time>2026-05-03T11:15:27Z</time></trkpt><trkpt lat="44.142076170866666" lon="7.907777014857356"><ele>819.0</ele><time>2026-05-03T11:15:28Z</time></trkpt><trkpt lat="44.142157502135504" lon="7.907830633491377"><ele>823.4000000000001</ele><time>2026-05-03T11:15:29Z</time></trkpt><trkpt lat="44.142226383470856" lon="7.907902934654546"><ele>827.8</ele><time>2026-05-03T11:15:30Z</time></trkpt><trkpt lat="44.142278610986935" lon="7.907987763304309"><ele>832.2</ele><time>2026-05-03T11:15:31Z</time></trkpt><trkpt lat="44.14229478857045" lon="7.908153301276489"><ele>836.5999999999999</ele><time>2026-05-03T11:15:33Z</time></trkpt><trkpt lat="44.142257472050794" lon="7.908272369715771"><ele>841.0</ele><time>2026-05-03T11:15:34Z</time></trkpt><trkpt lat="44.14225897850069" lon="7.908405245075297"><ele>841.4999999999999</ele><time>2026-05-03T11:15:35Z</time></trkpt><trkpt lat="44.14226905534534" lon="7.90850977395053"><ele>842.0</ele><time>2026-05-03T11:15:36Z</time></trkpt><trkpt lat="44.14227225360744" lon="7.908624308002976"><ele>842.5</ele><time>2026-05-03T11:15:37Z</time></trkpt><trkpt lat="44.14229325082698" lon="7.908734923267677"><ele>843.0</ele><time>2026-05-03T11:15:38Z</time></trkpt><trkpt lat="44.14227637285406" lon="7.908884794441439"><ele>843.4999999999999</ele><time>2026-05-03T11:15:39Z</time></trkpt><trkpt lat="44.142315178871094" lon="7.908997432241822"><ele>844.0</ele><time>2026-05-03T11:15:40Z</time></trkpt><trkpt lat="44.14242557942757" lon="7.909073432305632"><ele>843.9999999999999</ele><time>2026-05-03T11:15:41Z</time></trkpt><trkpt lat="44.142537197689414" lon="7.90908990384048"><ele>844.0</ele><time>2026-05-03T11:15:42Z</time></trkpt><trkpt lat="44.1426483928846" lon="7.909094939113537"><ele>844.0</ele><time>2026-05-03T11:15:43Z</time></trkpt><trkpt lat="44.142724327909676" lon="7.909132587932955"><ele>844.0</ele><time>2026-05-03T11:15:44Z</time></trkpt><trkpt lat="44.14278605438691" lon="7.909160304900333"><ele>843.9999999999999</ele><time>2026-05-03T11:15:45Z</time></trkpt><trkpt lat="44.142845456243506" lon="7.909200762986056"><ele>844.0</ele><time>2026-05-03T11:15:46Z</time></trkpt><trkpt lat="44.14288242972842" lon="7.909281238969381"><ele>846.2</ele><time>2026-05-03T11:15:47Z</time></trkpt><trkpt lat="44.142891372705556" lon="7.909430719014292"><ele>848.4000000000001</ele><time>2026-05-03T11:15:49Z</time></trkpt><trkpt lat="44.14286611096678" lon="7.909559015387704"><ele>850.6</ele><time>2026-05-03T11:15:50Z</time></trkpt><trkpt lat="44.142845227237935" lon="7.9097321733628005"><ele>852.8</ele><time>2026-05-03T11:15:51Z</time></trkpt><trkpt lat="44.14284429698864" lon="7.9098786317787555"><ele>855.0</ele><time>2026-05-03T11:15:52Z</time></trkpt><trkpt lat="44.14285464229245" lon="7.910006617747222"><ele>858.0</ele><time>2026-05-03T11:15:53Z</time></trkpt><trkpt lat="44.14288640696115" lon="7.910144694209181"><ele>861.0</ele><time>2026-05-03T11:15:54Z</time></trkpt><trkpt lat="44.14290842790035" lon="7.910290408792985"><ele>864.0</ele><time>2026-05-03T11:15:55Z</time></trkpt><trkpt lat="44.142931668600895" lon="7.910403194739732"><ele>867.0</ele><time>2026-05-03T11:15:56Z</time></trkpt><trkpt lat="44.1429529926088" lon="7.910511345594115"><ele>870.0</ele><time>2026-05-03T11:15:57Z</time></trkpt><trkpt lat="44.14297246661452" lon="7.910620818481605"><ele>870.0</ele><time>2026-05-03T11:15:58Z</time></trkpt><trkpt lat="44.142986224117514" lon="7.91072729285769"><ele>870.0</ele><time>2026-05-03T11:15:59Z</time></trkpt><trkpt lat="44.143000555879894" lon="7.910842858545571"><ele>870.0</ele><time>2026-05-03T11:16:00Z</time></trkpt><trkpt lat="44.14303648680048" lon="7.910956787235899"><ele>870.0</ele><time>2026-05-03T11:16:00.999Z</time></trkpt><trkpt lat="44.14307768072237" lon="7.911073736381662"><ele>870.0</ele><time>2026-05-03T11:16:01.999Z</time></trkpt><trkpt lat="44.143122557512136" lon="7.911174479689754"><ele>870.0</ele><time>2026-05-03T11:16:02.999Z</time></trkpt><trkpt lat="44.14318921446752" lon="7.911237258217018"><ele>870.6</ele><time>2026-05-03T11:16:03.999Z</time></trkpt><trkpt lat="44.143265005552955" lon="7.9112759594517055"><ele>871.2</ele><time>2026-05-03T11:16:04.999Z</time></trkpt><trkpt lat="44.143342472013565" lon="7.911313397904214"><ele>871.8</ele><time>2026-05-03T11:16:05.999Z</time></trkpt><trkpt lat="44.14343105660516" lon="7.911271017351683"><ele>872.4</ele><time>2026-05-03T11:16:06.999Z</time></trkpt><trkpt lat="44.143500255506034" lon="7.9112389031383135"><ele>873.0</ele><time>2026-05-03T11:16:07.999Z</time></trkpt><trkpt lat="44.14362500875844" lon="7.9112504215021096"><ele>873.0</ele><time>2026-05-03T11:16:09.999Z</time></trkpt><trkpt lat="44.14369205095255" lon="7.911286969519179"><ele>873.0</ele><time>2026-05-03T11:16:10.999Z</time></trkpt><trkpt lat="44.14375833014102" lon="7.911321947493526"><ele>873.0</ele><time>2026-05-03T11:16:11.999Z</time></trkpt><trkpt lat="44.14381967599914" lon="7.911378484966333"><ele>873.0</ele><time>2026-05-03T11:16:12.999Z</time></trkpt><trkpt lat="44.1438885635329" lon="7.911423081644291"><ele>873.0</ele><time>2026-05-03T11:16:13.999Z</time></trkpt><trkpt lat="44.14397004802871" lon="7.911475833389451"><ele>873.0</ele><time>2026-05-03T11:16:14.999Z</time></trkpt><trkpt lat="44.14401451159698" lon="7.91164795063692"><ele>871.0</ele><time>2026-05-03T11:16:15.999Z</time></trkpt><trkpt lat="44.144082850749264" lon="7.911734548164167"><ele>869.0</ele><time>2026-05-03T11:16:16.999Z</time></trkpt><trkpt lat="44.14413097529282" lon="7.911834398157366"><ele>867.0</ele><time>2026-05-03T11:16:17.999Z</time></trkpt><trkpt lat="44.14416978000524" lon="7.911950585835522"><ele>865.0</ele><time>2026-05-03T11:16:18.999Z</time></trkpt><trkpt lat="44.1441999733823" lon="7.912069794950278"><ele>863.0</ele><time>2026-05-03T11:16:19.999Z</time></trkpt><trkpt lat="44.14422553625598" lon="7.912193194758976"><ele>867.2</ele><time>2026-05-03T11:16:20.999Z</time></trkpt><trkpt lat="44.14427101704921" lon="7.912309423394642"><ele>871.4</ele><time>2026-05-03T11:16:21.999Z</time></trkpt><trkpt lat="44.14433976972251" lon="7.912430874113531"><ele>875.6000000000001</ele><time>2026-05-03T11:16:22.999Z</time></trkpt><trkpt lat="44.14439554804811" lon="7.912578589683199"><ele>879.8000000000001</ele><time>2026-05-03T11:16:23.999Z</time></trkpt><trkpt lat="44.144430504866335" lon="7.912697092479182"><ele>884.0</ele><time>2026-05-03T11:16:24.999Z</time></trkpt><trkpt lat="44.14444163809807" lon="7.912807956453886"><ele>884.4000000000001</ele><time>2026-05-03T11:16:25.999Z</time></trkpt><trkpt lat="44.14443390312553" lon="7.9129173123982195"><ele>884.8000000000001</ele><time>2026-05-03T11:16:26.999Z</time></trkpt><trkpt lat="44.14439903980796" lon="7.913009186451041"><ele>885.1999999999999</ele><time>2026-05-03T11:16:27.999Z</time></trkpt><trkpt lat="44.1443367757125" lon="7.913105607311886"><ele>885.5999999999999</ele><time>2026-05-03T11:16:28.999Z</time></trkpt><trkpt lat="44.144244580233796" lon="7.913212596858971"><ele>886.0</ele><time>2026-05-03T11:16:29.999Z</time></trkpt><trkpt lat="44.14416239956102" lon="7.91329495718999"><ele>886.0</ele><time>2026-05-03T11:16:30.999Z</time></trkpt><trkpt lat="44.14408801988589" lon="7.913357600499637"><ele>885.9999999999999</ele><time>2026-05-03T11:16:31.999Z</time></trkpt><trkpt lat="44.144003528300935" lon="7.913415967180767"><ele>885.9999999999999</ele><time>2026-05-03T11:16:32.999Z</time></trkpt><trkpt lat="44.14390762437485" lon="7.913475531369035"><ele>886.0</ele><time>2026-05-03T11:16:33.999Z</time></trkpt><trkpt lat="44.143824158090425" lon="7.913517540692615"><ele>886.0</ele><time>2026-05-03T11:16:34.999Z</time></trkpt><trkpt lat="44.1437356287216" lon="7.913559788425094"><ele>888.4</ele><time>2026-05-03T11:16:35.999Z</time></trkpt><trkpt lat="44.14365124077502" lon="7.913623902698013"><ele>890.8</ele><time>2026-05-03T11:16:36.999Z</time></trkpt><trkpt lat="44.14356734939573" lon="7.913690913885078"><ele>893.1999999999999</ele><time>2026-05-03T11:16:37.999Z</time></trkpt><trkpt lat="44.14347144471532" lon="7.913765133892249"><ele>895.5999999999999</ele><time>2026-05-03T11:16:38.999Z</time></trkpt><trkpt lat="44.14338060581768" lon="7.913866646267626"><ele>898.0</ele><time>2026-05-03T11:16:39.999Z</time></trkpt><trkpt lat="44.14329601069009" lon="7.9139677429944735"><ele>903.0</ele><time>2026-05-03T11:16:40.999Z</time></trkpt><trkpt lat="44.14320661193408" lon="7.914077755785486"><ele>908.0</ele><time>2026-05-03T11:16:41.999Z</time></trkpt><trkpt lat="44.14312378339809" lon="7.914186338230221"><ele>913.0</ele><time>2026-05-03T11:16:42.999Z</time></trkpt><trkpt lat="44.14306265189254" lon="7.9142981817246145"><ele>918.0</ele><time>2026-05-03T11:16:43.999Z</time></trkpt><trkpt lat="44.14303231769538" lon="7.914439663115982"><ele>923.0</ele><time>2026-05-03T11:16:44.999Z</time></trkpt><trkpt lat="44.14300161429657" lon="7.914595150718181"><ele>923.0000000000001</ele><time>2026-05-03T11:16:45.999Z</time></trkpt><trkpt lat="44.142977002219325" lon="7.914713461317128"><ele>923.0</ele><time>2026-05-03T11:16:46.999Z</time></trkpt><trkpt lat="44.14293484592259" lon="7.914807761350392"><ele>923.0</ele><time>2026-05-03T11:16:47.999Z</time></trkpt><trkpt lat="44.142872368518624" lon="7.914890144191827"><ele>923.0</ele><time>2026-05-03T11:16:48.999Z</time></trkpt><trkpt lat="44.1428027494948" lon="7.91497260749043"><ele>923.0000000000001</ele><time>2026-05-03T11:16:49.999Z</time></trkpt><trkpt lat="44.14272507800009" lon="7.91504770611881"><ele>923.0</ele><time>2026-05-03T11:16:50.999Z</time></trkpt><trkpt lat="44.1426594778159" lon="7.9151315108485605"><ele>922.4285714285713</ele><time>2026-05-03T11:16:51.999Z</time></trkpt><trkpt lat="44.14262593162003" lon="7.915208461556683"><ele>921.8571428571429</ele><time>2026-05-03T11:16:52.999Z</time></trkpt><trkpt lat="44.14258266209993" lon="7.915280913083287"><ele>921.2857142857142</ele><time>2026-05-03T11:16:54.999Z</time></trkpt><trkpt lat="44.142535783724426" lon="7.915357223184345"><ele>920.7142857142857</ele><time>2026-05-03T11:17:33Z</time></trkpt><trkpt lat="44.14249107936418" lon="7.915425512104848"><ele>920.1428571428571</ele><time>2026-05-03T11:17:34Z</time></trkpt><trkpt lat="44.14245220315242" lon="7.915510568288044"><ele>919.5714285714286</ele><time>2026-05-03T11:17:35Z</time></trkpt><trkpt lat="44.14243419844224" lon="7.91559634080433"><ele>919.0</ele><time>2026-05-03T11:17:36Z</time></trkpt><trkpt lat="44.14246034510015" lon="7.91569657441437"><ele>919.0</ele><time>2026-05-03T11:17:37Z</time></trkpt><trkpt lat="44.14253161010995" lon="7.915828371396915"><ele>919.0</ele><time>2026-05-03T11:17:38Z</time></trkpt><trkpt lat="44.14259945972353" lon="7.915944833942623"><ele>919.0</ele><time>2026-05-03T11:17:39Z</time></trkpt><trkpt lat="44.14267404103157" lon="7.916068423216948"><ele>919.0</ele><time>2026-05-03T11:17:41Z</time></trkpt><trkpt lat="44.14269374319669" lon="7.916251314628885"><ele>920.8000000000001</ele><time>2026-05-03T11:17:43Z</time></trkpt><trkpt lat="44.1426671502448" lon="7.916349973313003"><ele>922.6000000000001</ele><time>2026-05-03T11:17:44Z</time></trkpt><trkpt lat="44.14263227109428" lon="7.916443327961805"><ele>924.4</ele><time>2026-05-03T11:17:45Z</time></trkpt><trkpt lat="44.14259263247575" lon="7.916548847966381"><ele>926.2</ele><time>2026-05-03T11:17:46Z</time></trkpt><trkpt lat="44.14258194070211" lon="7.9166892048053175"><ele>928.0</ele><time>2026-05-03T11:17:47Z</time></trkpt><trkpt lat="44.142610581846085" lon="7.916841714634058"><ele>932.0</ele><time>2026-05-03T11:17:48Z</time></trkpt><trkpt lat="44.14267234376191" lon="7.917003260910769"><ele>936.0</ele><time>2026-05-03T11:17:49Z</time></trkpt><trkpt lat="44.14276156720617" lon="7.9171433475579125"><ele>940.0</ele><time>2026-05-03T11:17:50Z</time></trkpt><trkpt lat="44.1428534384519" lon="7.917239294541056"><ele>944.0</ele><time>2026-05-03T11:17:51Z</time></trkpt><trkpt lat="44.14296569294597" lon="7.917322093979909"><ele>944.0</ele><time>2026-05-03T11:17:52Z</time></trkpt><trkpt lat="44.143057578774695" lon="7.917397146349684"><ele>944.0000000000001</ele><time>2026-05-03T11:17:53Z</time></trkpt><trkpt lat="44.143107257399954" lon="7.9174786274503"><ele>944.0000000000001</ele><time>2026-05-03T11:17:54Z</time></trkpt><trkpt lat="44.143172163809744" lon="7.9175317874864755"><ele>944.0</ele><time>2026-05-03T11:17:55Z</time></trkpt><trkpt lat="44.14326411414093" lon="7.917553444910351"><ele>944.0</ele><time>2026-05-03T11:17:56Z</time></trkpt><trkpt lat="44.14336200681049" lon="7.917575872207805"><ele>944.5000000000001</ele><time>2026-05-03T11:17:57Z</time></trkpt><trkpt lat="44.14344161712202" lon="7.917601768349315"><ele>945.0</ele><time>2026-05-03T11:17:58Z</time></trkpt><trkpt lat="44.14351600270186" lon="7.917641383061491"><ele>945.5</ele><time>2026-05-03T11:17:59Z</time></trkpt><trkpt lat="44.14357169387142" lon="7.917712319306201"><ele>946.0</ele><time>2026-05-03T11:18:00Z</time></trkpt><trkpt lat="44.14362200360694" lon="7.917788490390611"><ele>946.5000000000001</ele><time>2026-05-03T11:18:01Z</time></trkpt><trkpt lat="44.143665666872046" lon="7.917888908056499"><ele>947.0</ele><time>2026-05-03T11:18:02Z</time></trkpt><trkpt lat="44.14369262292107" lon="7.91801353809187"><ele>947.0</ele><time>2026-05-03T11:18:03Z</time></trkpt><trkpt lat="44.14370508318683" lon="7.918140879009224"><ele>947.0</ele><time>2026-05-03T11:18:04Z</time></trkpt><trkpt lat="44.143733591516494" lon="7.918256617287719"><ele>947.0</ele><time>2026-05-03T11:18:05Z</time></trkpt><trkpt lat="44.143774837048824" lon="7.918360603714202"><ele>947.0</ele><time>2026-05-03T11:18:06Z</time></trkpt><trkpt lat="44.14383685391843" lon="7.918467042784204"><ele>947.0</ele><time>2026-05-03T11:18:07Z</time></trkpt><trkpt lat="44.14390488726819" lon="7.918556312505839"><ele>945.8</ele><time>2026-05-03T11:18:07.999Z</time></trkpt><trkpt lat="44.143987240893075" lon="7.918631225424218"><ele>944.6</ele><time>2026-05-03T11:18:08.999Z</time></trkpt><trkpt lat="44.14407809133323" lon="7.918693650491729"><ele>943.3999999999999</ele><time>2026-05-03T11:18:09.999Z</time></trkpt><trkpt lat="44.14415318016413" lon="7.918789577391722"><ele>942.1999999999999</ele><time>2026-05-03T11:18:10.999Z</time></trkpt><trkpt lat="44.14424727775305" lon="7.918859398031931"><ele>941.0</ele><time>2026-05-03T11:18:11.999Z</time></trkpt><trkpt lat="44.14433412617127" lon="7.918897598312965"><ele>941.0</ele><time>2026-05-03T11:18:12.999Z</time></trkpt><trkpt lat="44.144427543279704" lon="7.9189033382614555"><ele>940.9999999999999</ele><time>2026-05-03T11:18:13.999Z</time></trkpt><trkpt lat="44.14452247408323" lon="7.91891127461317"><ele>940.9999999999999</ele><time>2026-05-03T11:18:14.999Z</time></trkpt><trkpt lat="44.14462422805085" lon="7.918929985888322"><ele>941.0</ele><time>2026-05-03T11:18:15.999Z</time></trkpt><trkpt lat="44.144724152859595" lon="7.918970518695716"><ele>941.0</ele><time>2026-05-03T11:18:16.999Z</time></trkpt><trkpt lat="44.14482390462848" lon="7.919009335150756"><ele>943.0</ele><time>2026-05-03T11:18:17.999Z</time></trkpt><trkpt lat="44.14490924706693" lon="7.919065299813687"><ele>944.9999999999999</ele><time>2026-05-03T11:18:18.999Z</time></trkpt><trkpt lat="44.14499451282398" lon="7.919139672381932"><ele>946.9999999999999</ele><time>2026-05-03T11:18:19.999Z</time></trkpt><trkpt lat="44.14508060522294" lon="7.919240478227705"><ele>949.0</ele><time>2026-05-03T11:18:20.999Z</time></trkpt><trkpt lat="44.1451563315962" lon="7.919321194284476"><ele>951.0</ele><time>2026-05-03T11:18:21.999Z</time></trkpt><trkpt lat="44.14524893804673" lon="7.9193705884981265"><ele>951.0</ele><time>2026-05-03T11:18:22.999Z</time></trkpt><trkpt lat="44.145364480455015" lon="7.919390452932051"><ele>950.9999999999999</ele><time>2026-05-03T11:18:23.999Z</time></trkpt><trkpt lat="44.145477332345514" lon="7.919371601740806"><ele>950.9999999999999</ele><time>2026-05-03T11:18:24.999Z</time></trkpt><trkpt lat="44.145584800359565" lon="7.919347285057319"><ele>951.0</ele><time>2026-05-03T11:18:25.999Z</time></trkpt><trkpt lat="44.14566127516084" lon="7.91931154154635"><ele>951.0</ele><time>2026-05-03T11:18:26.999Z</time></trkpt><trkpt lat="44.14571960950249" lon="7.919264181517963"><ele>948.5999999999999</ele><time>2026-05-03T11:18:27.999Z</time></trkpt><trkpt lat="44.1458147633095" lon="7.919247333779736"><ele>946.1999999999999</ele><time>2026-05-03T11:18:29.999Z</time></trkpt><trkpt lat="44.14585182689588" lon="7.919320629599475"><ele>943.8000000000001</ele><time>2026-05-03T11:18:30.999Z</time></trkpt><trkpt lat="44.14588149397773" lon="7.919445408757777"><ele>941.4000000000001</ele><time>2026-05-03T11:18:31.999Z</time></trkpt><trkpt lat="44.14590350283253" lon="7.9196159435541675"><ele>939.0</ele><time>2026-05-03T11:18:32.999Z</time></trkpt><trkpt lat="44.145935741536974" lon="7.91977417703257"><ele>939.0</ele><time>2026-05-03T11:18:33.999Z</time></trkpt><trkpt lat="44.14596355793248" lon="7.91990651571759"><ele>939.0</ele><time>2026-05-03T11:18:34.999Z</time></trkpt><trkpt lat="44.14598255016677" lon="7.920023577180489"><ele>939.0</ele><time>2026-05-03T11:18:35.999Z</time></trkpt><trkpt lat="44.1459918117326" lon="7.920128687102876"><ele>939.0</ele><time>2026-05-03T11:18:36.999Z</time></trkpt><trkpt lat="44.146016056578674" lon="7.920217335726654"><ele>939.0</ele><time>2026-05-03T11:18:37.999Z</time></trkpt><trkpt lat="44.14606519953498" lon="7.920273169120375"><ele>939.0</ele><time>2026-05-03T11:18:38.999Z</time></trkpt><trkpt lat="44.14615506166692" lon="7.920299904043799"><ele>937.2</ele><time>2026-05-03T11:18:39.999Z</time></trkpt><trkpt lat="44.146272241831234" lon="7.9202834368082105"><ele>935.4000000000001</ele><time>2026-05-03T11:18:40.999Z</time></trkpt><trkpt lat="44.14636803777911" lon="7.920257923826763"><ele>933.6</ele><time>2026-05-03T11:18:41.999Z</time></trkpt><trkpt lat="44.146455651058254" lon="7.920280242922953"><ele>931.8</ele><time>2026-05-03T11:18:42.999Z</time></trkpt><trkpt lat="44.146538229175476" lon="7.92029602391444"><ele>930.0</ele><time>2026-05-03T11:18:43.999Z</time></trkpt><trkpt lat="44.14663704732775" lon="7.9202961152462255"><ele>930.0</ele><time>2026-05-03T11:18:44.999Z</time></trkpt><trkpt lat="44.146726962057286" lon="7.920281619011007"><ele>930.0</ele><time>2026-05-03T11:18:45.999Z</time></trkpt><trkpt lat="44.14681404124418" lon="7.920285341502007"><ele>930.0</ele><time>2026-05-03T11:18:46.999Z</time></trkpt><trkpt lat="44.1468982219415" lon="7.920302373901131"><ele>930.0</ele><time>2026-05-03T11:18:47.999Z</time></trkpt><trkpt lat="44.1469785830002" lon="7.920363550696399"><ele>930.0</ele><time>2026-05-03T11:18:48.999Z</time></trkpt><trkpt lat="44.147051997456856" lon="7.920451884728682"><ele>930.0</ele><time>2026-05-03T11:18:49.999Z</time></trkpt><trkpt lat="44.14712309609357" lon="7.92054215920435"><ele>930.0</ele><time>2026-05-03T11:18:50.999Z</time></trkpt><trkpt lat="44.14722006023459" lon="7.920612253905447"><ele>930.0</ele><time>2026-05-03T11:18:51.999Z</time></trkpt><trkpt lat="44.147326821754596" lon="7.9206532154904"><ele>930.0</ele><time>2026-05-03T11:18:52.999Z</time></trkpt><trkpt lat="44.147436016298684" lon="7.920686359078024"><ele>930.0</ele><time>2026-05-03T11:18:53.999Z</time></trkpt><trkpt lat="44.1475412578101" lon="7.92071730569733"><ele>925.8</ele><time>2026-05-03T11:18:54.999Z</time></trkpt><trkpt lat="44.14764273081637" lon="7.920744190254187"><ele>921.6</ele><time>2026-05-03T11:18:55.999Z</time></trkpt><trkpt lat="44.147743113075784" lon="7.9207631100340565"><ele>917.4000000000001</ele><time>2026-05-03T11:18:56.999Z</time></trkpt><trkpt lat="44.147849310518154" lon="7.920752896903918"><ele>913.2</ele><time>2026-05-03T11:18:57.999Z</time></trkpt><trkpt lat="44.1479496544016" lon="7.920741155113914"><ele>909.0</ele><time>2026-05-03T11:18:58.999Z</time></trkpt><trkpt lat="44.14804230718716" lon="7.920723129511899"><ele>909.0</ele><time>2026-05-03T11:18:59.999Z</time></trkpt><trkpt lat="44.14813543327713" lon="7.920714890918547"><ele>909.0000000000001</ele><time>2026-05-03T11:19:00.999Z</time></trkpt><trkpt lat="44.14819875023144" lon="7.920726513813226"><ele>909.0000000000001</ele><time>2026-05-03T11:19:01.999Z</time></trkpt><trkpt lat="44.14821958652529" lon="7.920886990365072"><ele>909.0</ele><time>2026-05-03T11:19:41Z</time></trkpt><trkpt lat="44.14816483781285" lon="7.92099627060137"><ele>909.0</ele><time>2026-05-03T11:19:42Z</time></trkpt><trkpt lat="44.14807888011413" lon="7.921088901617979"><ele>908.4000000000001</ele><time>2026-05-03T11:19:43Z</time></trkpt><trkpt lat="44.1479760534356" lon="7.921197864641409"><ele>907.8000000000001</ele><time>2026-05-03T11:19:44Z</time></trkpt><trkpt lat="44.147890815790156" lon="7.921281767240445"><ele>907.1999999999999</ele><time>2026-05-03T11:19:45Z</time></trkpt><trkpt lat="44.14782016100094" lon="7.921374334805986"><ele>906.5999999999999</ele><time>2026-05-03T11:19:46Z</time></trkpt><trkpt lat="44.14774333676191" lon="7.921497664268564"><ele>906.0</ele><time>2026-05-03T11:19:47Z</time></trkpt><trkpt lat="44.147668063693594" lon="7.921614010759031"><ele>906.0</ele><time>2026-05-03T11:19:48Z</time></trkpt><trkpt lat="44.14756921443147" lon="7.921724125981231"><ele>905.9999999999999</ele><time>2026-05-03T11:19:49Z</time></trkpt><trkpt lat="44.14749757797415" lon="7.921832273106262"><ele>905.9999999999999</ele><time>2026-05-03T11:19:50Z</time></trkpt><trkpt lat="44.14743257458684" lon="7.921903342124641"><ele>906.0</ele><time>2026-05-03T11:19:51Z</time></trkpt><trkpt lat="44.14735139952072" lon="7.921958000242383"><ele>906.0</ele><time>2026-05-03T11:19:52Z</time></trkpt><trkpt lat="44.14725497516399" lon="7.921990129013013"><ele>905.8</ele><time>2026-05-03T11:19:53Z</time></trkpt><trkpt lat="44.14714666197741" lon="7.922020018275209"><ele>905.5999999999999</ele><time>2026-05-03T11:19:54Z</time></trkpt><trkpt lat="44.14705479614581" lon="7.922092853082246"><ele>905.4</ele><time>2026-05-03T11:19:55Z</time></trkpt><trkpt lat="44.14696701442045" lon="7.9221419061017375"><ele>905.2</ele><time>2026-05-03T11:19:56Z</time></trkpt><trkpt lat="44.1468770697456" lon="7.922152002614406"><ele>905.0</ele><time>2026-05-03T11:19:57Z</time></trkpt><trkpt lat="44.14678993170448" lon="7.922201928935582"><ele>905.0</ele><time>2026-05-03T11:19:58Z</time></trkpt><trkpt lat="44.14670998370827" lon="7.922305691583008"><ele>905.0</ele><time>2026-05-03T11:19:59Z</time></trkpt><trkpt lat="44.14663279035207" lon="7.922389460815963"><ele>905.0</ele><time>2026-05-03T11:20:00Z</time></trkpt><trkpt lat="44.146556432141004" lon="7.922423409445532"><ele>905.0</ele><time>2026-05-03T11:20:01Z</time></trkpt><trkpt lat="44.14646885412852" lon="7.922456262217462"><ele>905.0</ele><time>2026-05-03T11:20:02Z</time></trkpt><trkpt lat="44.146404434244836" lon="7.922516287648106"><ele>909.6</ele><time>2026-05-03T11:20:03Z</time></trkpt><trkpt lat="44.14636745750906" lon="7.922619001993445"><ele>914.2</ele><time>2026-05-03T11:20:04Z</time></trkpt><trkpt lat="44.14638636381033" lon="7.922741508534318"><ele>918.8</ele><time>2026-05-03T11:20:05Z</time></trkpt><trkpt lat="44.14642109375833" lon="7.922892305852371"><ele>923.4</ele><time>2026-05-03T11:20:06Z</time></trkpt><trkpt lat="44.146420020765554" lon="7.923025587835114"><ele>928.0</ele><time>2026-05-03T11:20:07Z</time></trkpt><trkpt lat="44.14639576486507" lon="7.923161541256495"><ele>927.9999999999999</ele><time>2026-05-03T11:20:08Z</time></trkpt><trkpt lat="44.14637064280249" lon="7.923301720289218"><ele>928.0</ele><time>2026-05-03T11:20:09Z</time></trkpt><trkpt lat="44.14637198379824" lon="7.923433003729484"><ele>928.0</ele><time>2026-05-03T11:20:10Z</time></trkpt><trkpt lat="44.14637575134643" lon="7.923535258854801"><ele>928.0</ele><time>2026-05-03T11:20:11Z</time></trkpt><trkpt lat="44.14633903072811" lon="7.923610737102607"><ele>927.9999999999999</ele><time>2026-05-03T11:20:11.999Z</time></trkpt><trkpt lat="44.14628329459576" lon="7.9236628709185855"><ele>928.0</ele><time>2026-05-03T11:20:12.999Z</time></trkpt><trkpt lat="44.146209317859" lon="7.923693552634348"><ele>924.5999999999999</ele><time>2026-05-03T11:20:13.999Z</time></trkpt><trkpt lat="44.146131954689814" lon="7.923741159935184"><ele>921.1999999999999</ele><time>2026-05-03T11:20:14.999Z</time></trkpt><trkpt lat="44.146062270374074" lon="7.923824648725436"><ele>917.8</ele><time>2026-05-03T11:20:15.999Z</time></trkpt><trkpt lat="44.14599365653945" lon="7.9239471207202685"><ele>914.4</ele><time>2026-05-03T11:20:16.999Z</time></trkpt><trkpt lat="44.14593704713057" lon="7.924109543322649"><ele>911.0</ele><time>2026-05-03T11:20:17.999Z</time></trkpt><trkpt lat="44.14587951524188" lon="7.924260705768492"><ele>908.8333333333334</ele><time>2026-05-03T11:20:18.999Z</time></trkpt><trkpt lat="44.145856614805496" lon="7.924357764083332"><ele>906.6666666666667</ele><time>2026-05-03T11:20:19.999Z</time></trkpt><trkpt lat="44.14582878361064" lon="7.924436516402804"><ele>904.5</ele><time>2026-05-03T11:20:20.999Z</time></trkpt><trkpt lat="44.14578655729254" lon="7.924521680368011"><ele>902.3333333333333</ele><time>2026-05-03T11:20:21.999Z</time></trkpt><trkpt lat="44.14576252323739" lon="7.924642980522263"><ele>900.1666666666666</ele><time>2026-05-03T11:20:22.999Z</time></trkpt><trkpt lat="44.14576325117068" lon="7.924775709129057"><ele>898.0</ele><time>2026-05-03T11:20:23.999Z</time></trkpt><trkpt lat="44.1457472341695" lon="7.924894687258125"><ele>903.0</ele><time>2026-05-03T11:20:24.999Z</time></trkpt><trkpt lat="44.14569525680149" lon="7.924991650990195"><ele>908.0</ele><time>2026-05-03T11:20:25.999Z</time></trkpt><trkpt lat="44.14562396795939" lon="7.925106495697709"><ele>913.0</ele><time>2026-05-03T11:20:26.999Z</time></trkpt><trkpt lat="44.14556593796323" lon="7.925225911445906"><ele>918.0</ele><time>2026-05-03T11:20:27.999Z</time></trkpt><trkpt lat="44.14551414637221" lon="7.9253308663530735"><ele>923.0</ele><time>2026-05-03T11:20:28.999Z</time></trkpt><trkpt lat="44.145455228978804" lon="7.925440740380967"><ele>923.0</ele><time>2026-05-03T11:20:29.999Z</time></trkpt><trkpt lat="44.14540220805816" lon="7.925563349802259"><ele>923.0</ele><time>2026-05-03T11:20:30.999Z</time></trkpt><trkpt lat="44.14534667594953" lon="7.9256749760873735"><ele>923.0</ele><time>2026-05-03T11:20:31.999Z</time></trkpt><trkpt lat="44.145284361196" lon="7.925782477519764"><ele>923.0</ele><time>2026-05-03T11:20:32.999Z</time></trkpt><trkpt lat="44.145212446470055" lon="7.925880355812416"><ele>923.0</ele><time>2026-05-03T11:20:33.999Z</time></trkpt><trkpt lat="44.145131751426064" lon="7.925982104312496"><ele>923.8333333333334</ele><time>2026-05-03T11:20:34.999Z</time></trkpt><trkpt lat="44.14504495607211" lon="7.926075202899077"><ele>924.6666666666667</ele><time>2026-05-03T11:20:35.999Z</time></trkpt><trkpt lat="44.1449775225106" lon="7.926144608101129"><ele>925.5</ele><time>2026-05-03T11:20:36.999Z</time></trkpt><trkpt lat="44.144935034063586" lon="7.926274669215898"><ele>926.3333333333333</ele><time>2026-05-03T11:20:38.999Z</time></trkpt><trkpt lat="44.144972322687444" lon="7.92635546504566"><ele>927.1666666666666</ele><time>2026-05-03T11:20:39.999Z</time></trkpt><trkpt lat="44.14503061082327" lon="7.926430507066294"><ele>928.0</ele><time>2026-05-03T11:20:40.999Z</time></trkpt><trkpt lat="44.14511811952951" lon="7.926475129610764"><ele>928.0</ele><time>2026-05-03T11:20:41.999Z</time></trkpt><trkpt lat="44.14521939371171" lon="7.926518304148991"><ele>928.0</ele><time>2026-05-03T11:20:42.999Z</time></trkpt><trkpt lat="44.14531726936639" lon="7.926582469053144"><ele>928.0</ele><time>2026-05-03T11:20:43.999Z</time></trkpt><trkpt lat="44.145400469624064" lon="7.92663698545915"><ele>928.0</ele><time>2026-05-03T11:20:44.999Z</time></trkpt><trkpt lat="44.14547221263325" lon="7.926684197198983"><ele>928.0</ele><time>2026-05-03T11:20:45.999Z</time></trkpt><trkpt lat="44.14556111973397" lon="7.926665864946234"><ele>928.0</ele><time>2026-05-03T11:20:46.999Z</time></trkpt><trkpt lat="44.14563464805317" lon="7.92669063906171"><ele>928.0</ele><time>2026-05-03T11:20:47.999Z</time></trkpt><trkpt lat="44.14568103066931" lon="7.926782649921783"><ele>928.0</ele><time>2026-05-03T11:20:48.999Z</time></trkpt><trkpt lat="44.1457159508023" lon="7.926877341804576"><ele>928.0</ele><time>2026-05-03T11:20:49.999Z</time></trkpt><trkpt lat="44.14578772052697" lon="7.926952360105579"><ele>928.0</ele><time>2026-05-03T11:20:50.999Z</time></trkpt><trkpt lat="44.145921825927815" lon="7.926969081896679"><ele>931.4</ele><time>2026-05-03T11:20:51.999Z</time></trkpt><trkpt lat="44.146033865039946" lon="7.926946489686242"><ele>934.8</ele><time>2026-05-03T11:20:52.999Z</time></trkpt><trkpt lat="44.14612389616405" lon="7.926985786575609"><ele>938.2</ele><time>2026-05-03T11:20:53.999Z</time></trkpt><trkpt lat="44.14620526572227" lon="7.92705936449295"><ele>941.6</ele><time>2026-05-03T11:20:54.999Z</time></trkpt><trkpt lat="44.146286981678095" lon="7.927130970185861"><ele>945.0</ele><time>2026-05-03T11:20:55.999Z</time></trkpt><trkpt lat="44.14637042060436" lon="7.9272302060004645"><ele>945.0</ele><time>2026-05-03T11:20:56.999Z</time></trkpt><trkpt lat="44.146445061194385" lon="7.927333052264485"><ele>945.0</ele><time>2026-05-03T11:20:57.999Z</time></trkpt><trkpt lat="44.146515195793086" lon="7.927427324305825"><ele>945.0</ele><time>2026-05-03T11:20:58.999Z</time></trkpt><trkpt lat="44.146576857870166" lon="7.927539508945835"><ele>945.0</ele><time>2026-05-03T11:20:59.999Z</time></trkpt><trkpt lat="44.14665344446556" lon="7.927629860323562"><ele>945.0</ele><time>2026-05-03T11:21:00.999Z</time></trkpt><trkpt lat="44.14673771320501" lon="7.927723789958656"><ele>948.25</ele><time>2026-05-03T11:21:01.999Z</time></trkpt><trkpt lat="44.14684056582031" lon="7.9278112763356585"><ele>951.5</ele><time>2026-05-03T11:21:02.999Z</time></trkpt><trkpt lat="44.146948008821404" lon="7.927896857564281"><ele>954.75</ele><time>2026-05-03T11:21:03.999Z</time></trkpt><trkpt lat="44.14704594837166" lon="7.927979386546837"><ele>958.0</ele><time>2026-05-03T11:21:04.999Z</time></trkpt><trkpt lat="44.14712586489657" lon="7.928077853611082"><ele>958.0</ele><time>2026-05-03T11:21:05.999Z</time></trkpt><trkpt lat="44.14720093229323" lon="7.928195049518601"><ele>958.0</ele><time>2026-05-03T11:21:06.999Z</time></trkpt><trkpt lat="44.14728160781417" lon="7.928287316096626"><ele>958.0</ele><time>2026-05-03T11:21:07.999Z</time></trkpt><trkpt lat="44.147369061105785" lon="7.928380265949815"><ele>958.0</ele><time>2026-05-03T11:21:08.999Z</time></trkpt><trkpt lat="44.147461453162116" lon="7.928453645830208"><ele>958.0</ele><time>2026-05-03T11:21:09.999Z</time></trkpt><trkpt lat="44.14756209344064" lon="7.928536316116982"><ele>958.75</ele><time>2026-05-03T11:21:10.999Z</time></trkpt><trkpt lat="44.14766311737244" lon="7.928635799970022"><ele>959.5</ele><time>2026-05-03T11:21:11.999Z</time></trkpt><trkpt lat="44.14777396402127" lon="7.928730483547201"><ele>960.25</ele><time>2026-05-03T11:21:12.999Z</time></trkpt><trkpt lat="44.14790200511283" lon="7.928817226751001"><ele>961.0</ele><time>2026-05-03T11:21:13.999Z</time></trkpt><trkpt lat="44.1480193049716" lon="7.928866659620573"><ele>961.0</ele><time>2026-05-03T11:21:14.999Z</time></trkpt><trkpt lat="44.14812237364495" lon="7.928906425882229"><ele>960.9999999999999</ele><time>2026-05-03T11:21:15.999Z</time></trkpt><trkpt lat="44.14820956108205" lon="7.928948387087337"><ele>960.9999999999999</ele><time>2026-05-03T11:21:16.999Z</time></trkpt><trkpt lat="44.148282399773414" lon="7.929020638765532"><ele>961.0</ele><time>2026-05-03T11:21:17.999Z</time></trkpt><trkpt lat="44.14834528417813" lon="7.929123667965943"><ele>961.0</ele><time>2026-05-03T11:21:18.999Z</time></trkpt><trkpt lat="44.14840136552616" lon="7.929238905492551"><ele>957.5</ele><time>2026-05-03T11:21:19.999Z</time></trkpt><trkpt lat="44.14846569811404" lon="7.929375005833573"><ele>954.0</ele><time>2026-05-03T11:21:20.999Z</time></trkpt><trkpt lat="44.14854766931138" lon="7.92951251059135"><ele>950.5</ele><time>2026-05-03T11:21:22Z</time></trkpt><trkpt lat="44.14863294321285" lon="7.929653229704466"><ele>947.0</ele><time>2026-05-03T11:21:23Z</time></trkpt><trkpt lat="44.148687136311274" lon="7.929778092909024"><ele>947.0</ele><time>2026-05-03T11:21:24Z</time></trkpt><trkpt lat="44.148722502172106" lon="7.9299077232127315"><ele>947.0</ele><time>2026-05-03T11:21:25Z</time></trkpt><trkpt lat="44.14875318612436" lon="7.93004123582649"><ele>947.0</ele><time>2026-05-03T11:21:26Z</time></trkpt><trkpt lat="44.14875993312661" lon="7.930185798499087"><ele>947.0</ele><time>2026-05-03T11:21:27Z</time></trkpt><trkpt lat="44.14874211892337" lon="7.930335752306883"><ele>947.0</ele><time>2026-05-03T11:21:28Z</time></trkpt><trkpt lat="44.148725062951776" lon="7.930501275676233"><ele>947.75</ele><time>2026-05-03T11:21:29Z</time></trkpt><trkpt lat="44.148707655786865" lon="7.930660631707471"><ele>948.5</ele><time>2026-05-03T11:21:30Z</time></trkpt><trkpt lat="44.14869658553304" lon="7.930839217834924"><ele>949.25</ele><time>2026-05-03T11:21:31Z</time></trkpt><trkpt lat="44.14867786183845" lon="7.931009280697695"><ele>950.0</ele><time>2026-05-03T11:21:32Z</time></trkpt><trkpt lat="44.14867738850812" lon="7.931166380769112"><ele>950.4</ele><time>2026-05-03T11:21:33Z</time></trkpt><trkpt lat="44.14868890978062" lon="7.931328333651852"><ele>950.8</ele><time>2026-05-03T11:21:34Z</time></trkpt><trkpt lat="44.14870534301525" lon="7.9314720851137945"><ele>951.2</ele><time>2026-05-03T11:21:35Z</time></trkpt><trkpt lat="44.14869605935633" lon="7.931598001104201"><ele>951.6</ele><time>2026-05-03T11:21:36Z</time></trkpt><trkpt lat="44.14868609505229" lon="7.931736766603008"><ele>952.0</ele><time>2026-05-03T11:21:37Z</time></trkpt><trkpt lat="44.14862335897057" lon="7.931897560679956"><ele>951.0</ele><time>2026-05-03T11:21:38Z</time></trkpt><trkpt lat="44.14857850394638" lon="7.932051441822057"><ele>950.0</ele><time>2026-05-03T11:21:39Z</time></trkpt><trkpt lat="44.14854323973422" lon="7.932204071245722"><ele>949.0</ele><time>2026-05-03T11:21:40Z</time></trkpt><trkpt lat="44.14849344239548" lon="7.932345223429501"><ele>948.0</ele><time>2026-05-03T11:21:41Z</time></trkpt><trkpt lat="44.14846611433689" lon="7.932505315916286"><ele>946.25</ele><time>2026-05-03T11:21:42Z</time></trkpt><trkpt lat="44.14841732479895" lon="7.9326597429592915"><ele>944.5</ele><time>2026-05-03T11:21:43Z</time></trkpt><trkpt lat="44.14836091378977" lon="7.932802600087837"><ele>942.75</ele><time>2026-05-03T11:21:44Z</time></trkpt><trkpt lat="44.14832996790037" lon="7.9329696735773325"><ele>941.0</ele><time>2026-05-03T11:21:45Z</time></trkpt><trkpt lat="44.148301272183666" lon="7.933123918404237"><ele>941.0</ele><time>2026-05-03T11:21:46Z</time></trkpt><trkpt lat="44.14826255564932" lon="7.933251698896362"><ele>940.9999999999999</ele><time>2026-05-03T11:21:47Z</time></trkpt><trkpt lat="44.14825589681012" lon="7.933371546536765"><ele>940.9999999999999</ele><time>2026-05-03T11:21:48Z</time></trkpt><trkpt lat="44.14827102771834" lon="7.93349072214104"><ele>941.0</ele><time>2026-05-03T11:21:49Z</time></trkpt><trkpt lat="44.14830756232028" lon="7.933609795413419"><ele>941.0</ele><time>2026-05-03T11:21:50Z</time></trkpt><trkpt lat="44.148370097439916" lon="7.93372974856354"><ele>939.6666666666667</ele><time>2026-05-03T11:21:51Z</time></trkpt><trkpt lat="44.14836236231183" lon="7.93382108445393"><ele>938.3333333333334</ele><time>2026-05-03T11:21:52Z</time></trkpt><trkpt lat="44.148316890640054" lon="7.933932949956095"><ele>937.0</ele><time>2026-05-03T11:21:53Z</time></trkpt><trkpt lat="44.14826141334756" lon="7.934025174573535"><ele>935.6666666666667</ele><time>2026-05-03T11:21:54Z</time></trkpt><trkpt lat="44.14819390773358" lon="7.934097344694318"><ele>934.3333333333334</ele><time>2026-05-03T11:21:55Z</time></trkpt><trkpt lat="44.14812460143351" lon="7.934175108470153"><ele>933.0</ele><time>2026-05-03T11:21:56Z</time></trkpt><trkpt lat="44.14805535515796" lon="7.93426431057421"><ele>942.0</ele><time>2026-05-03T11:21:57Z</time></trkpt><trkpt lat="44.147997408438634" lon="7.934352689284384"><ele>951.0</ele><time>2026-05-03T11:21:58Z</time></trkpt><trkpt lat="44.14797372767146" lon="7.934434993216634"><ele>960.0</ele><time>2026-05-03T11:21:59Z</time></trkpt><trkpt lat="44.14795513950709" lon="7.934522140599836"><ele>969.0</ele><time>2026-05-03T11:22:00Z</time></trkpt><trkpt lat="44.14786742686155" lon="7.934616700091504"><ele>978.0</ele><time>2026-05-03T11:22:02Z</time></trkpt><trkpt lat="44.14779484407104" lon="7.934669959860535"><ele>987.0</ele><time>2026-05-03T11:22:04Z</time></trkpt><trkpt lat="44.14778462954745" lon="7.934811848980062"><ele>987.0</ele><time>2026-05-03T11:22:07Z</time></trkpt><trkpt lat="44.14782917144724" lon="7.934899511154456"><ele>987.0</ele><time>2026-05-03T11:22:08Z</time></trkpt><trkpt lat="44.14789504100071" lon="7.93498608261264"><ele>987.0</ele><time>2026-05-03T11:22:09Z</time></trkpt><trkpt lat="44.147982172182964" lon="7.93507864836592"><ele>987.0</ele><time>2026-05-03T11:22:10Z</time></trkpt><trkpt lat="44.14804897371562" lon="7.935158935340363"><ele>987.0</ele><time>2026-05-03T11:22:11Z</time></trkpt><trkpt lat="44.14810418179469" lon="7.935241643219581"><ele>987.0</ele><time>2026-05-03T11:22:12Z</time></trkpt><trkpt lat="44.14816148318198" lon="7.935343077211398"><ele>983.8</ele><time>2026-05-03T11:22:13Z</time></trkpt><trkpt lat="44.14822475465654" lon="7.935464409414872"><ele>980.6</ele><time>2026-05-03T11:22:14Z</time></trkpt><trkpt lat="44.148288441461574" lon="7.935592413602701"><ele>977.3999999999999</ele><time>2026-05-03T11:22:15Z</time></trkpt><trkpt lat="44.14835293525302" lon="7.935700167727695"><ele>974.1999999999999</ele><time>2026-05-03T11:22:16Z</time></trkpt><trkpt lat="44.14843395231971" lon="7.9357887123294475"><ele>971.0</ele><time>2026-05-03T11:22:17Z</time></trkpt><trkpt lat="44.14852751977187" lon="7.935867594120684"><ele>979.25</ele><time>2026-05-03T11:22:17.999Z</time></trkpt><trkpt lat="44.148625020298375" lon="7.9359425510901005"><ele>987.5</ele><time>2026-05-03T11:22:18.999Z</time></trkpt><trkpt lat="44.14871993714407" lon="7.936030496554575"><ele>995.75</ele><time>2026-05-03T11:22:19.999Z</time></trkpt><trkpt lat="44.14881747549931" lon="7.936124726067667"><ele>1004.0</ele><time>2026-05-03T11:22:20.999Z</time></trkpt><trkpt lat="44.1488940453199" lon="7.936231266249349"><ele>1004.0000000000001</ele><time>2026-05-03T11:22:21.999Z</time></trkpt><trkpt lat="44.1489608264824" lon="7.936327435424534"><ele>1004.0</ele><time>2026-05-03T11:22:22.999Z</time></trkpt><trkpt lat="44.14902636250515" lon="7.936405075138742"><ele>1004.0</ele><time>2026-05-03T11:22:23.999Z</time></trkpt><trkpt lat="44.14909649444736" lon="7.936475509537113"><ele>1004.0</ele><time>2026-05-03T11:22:24.999Z</time></trkpt><trkpt lat="44.14915415136913" lon="7.936547155964744"><ele>1004.0000000000001</ele><time>2026-05-03T11:22:25.999Z</time></trkpt><trkpt lat="44.14920163819336" lon="7.9366221871594655"><ele>1004.0</ele><time>2026-05-03T11:22:26.999Z</time></trkpt><trkpt lat="44.14924199160922" lon="7.936704336938627"><ele>1002.1666666666667</ele><time>2026-05-03T11:22:27.999Z</time></trkpt><trkpt lat="44.14927221034463" lon="7.936789314624842"><ele>1000.3333333333334</ele><time>2026-05-03T11:22:28.999Z</time></trkpt><trkpt lat="44.149309839374716" lon="7.936879082832525"><ele>998.5</ele><time>2026-05-03T11:22:29.999Z</time></trkpt><trkpt lat="44.149338631138704" lon="7.936990598899287"><ele>996.6666666666667</ele><time>2026-05-03T11:22:30.999Z</time></trkpt><trkpt lat="44.149351854057656" lon="7.937105912621383"><ele>994.8333333333334</ele><time>2026-05-03T11:22:31.999Z</time></trkpt><trkpt lat="44.149358185014925" lon="7.937224441996985"><ele>993.0</ele><time>2026-05-03T11:22:32.999Z</time></trkpt><trkpt lat="44.149374770927096" lon="7.937342750538857"><ele>993.0</ele><time>2026-05-03T11:22:33.999Z</time></trkpt><trkpt lat="44.14939571960027" lon="7.937458042448001"><ele>993.0</ele><time>2026-05-03T11:22:34.999Z</time></trkpt><trkpt lat="44.14943437238213" lon="7.937582718263755"><ele>993.0</ele><time>2026-05-03T11:22:35.999Z</time></trkpt><trkpt lat="44.149480303029804" lon="7.937711880076207"><ele>993.0</ele><time>2026-05-03T11:22:36.999Z</time></trkpt><trkpt lat="44.14952980487739" lon="7.937839046868507"><ele>993.0</ele><time>2026-05-03T11:22:37.999Z</time></trkpt><trkpt lat="44.14958401626683" lon="7.937962373523696"><ele>995.8333333333334</ele><time>2026-05-03T11:22:38.999Z</time></trkpt><trkpt lat="44.14964209633523" lon="7.9380852235047525"><ele>998.6666666666667</ele><time>2026-05-03T11:22:39.999Z</time></trkpt><trkpt lat="44.149690314834075" lon="7.93819345062723"><ele>1001.5</ele><time>2026-05-03T11:22:40.999Z</time></trkpt><trkpt lat="44.14972558544124" lon="7.938284164952653"><ele>1004.3333333333334</ele><time>2026-05-03T11:22:41.999Z</time></trkpt><trkpt lat="44.14976689705333" lon="7.938378621629288"><ele>1007.1666666666667</ele><time>2026-05-03T11:22:42.999Z</time></trkpt><trkpt lat="44.149802305042186" lon="7.938466233699443"><ele>1010.0</ele><time>2026-05-03T11:22:43.999Z</time></trkpt><trkpt lat="44.149836774121376" lon="7.938604884314197"><ele>1010.0000000000001</ele><time>2026-05-03T11:22:45.999Z</time></trkpt><trkpt lat="44.14978965546779" lon="7.938770266394613"><ele>1010.0</ele><time>2026-05-03T11:22:47.999Z</time></trkpt><trkpt lat="44.14974607852594" lon="7.93884403925806"><ele>1010.0</ele><time>2026-05-03T11:22:48.999Z</time></trkpt><trkpt lat="44.14970625078523" lon="7.938928055647697"><ele>1010.0</ele><time>2026-05-03T11:22:49.999Z</time></trkpt><trkpt lat="44.1496698307548" lon="7.939034536191624"><ele>1010.0000000000001</ele><time>2026-05-03T11:22:50.999Z</time></trkpt><trkpt lat="44.14963271049159" lon="7.939143339772252"><ele>1010.0</ele><time>2026-05-03T11:22:51.999Z</time></trkpt><trkpt lat="44.14959336501512" lon="7.939242307450691"><ele>1006.2</ele><time>2026-05-03T11:22:52.999Z</time></trkpt><trkpt lat="44.149529449742694" lon="7.939377469429922"><ele>1002.4</ele><time>2026-05-03T11:22:54.999Z</time></trkpt><trkpt lat="44.1494649287951" lon="7.939465977827157"><ele>998.5999999999999</ele><time>2026-05-03T11:22:56.999Z</time></trkpt><trkpt lat="44.14938319479296" lon="7.939507941926039"><ele>994.8</ele><time>2026-05-03T11:22:58.999Z</time></trkpt><trkpt lat="44.14925431358665" lon="7.9395250788444836"><ele>991.0</ele><time>2026-05-03T11:23:00.999Z</time></trkpt><trkpt lat="44.14915812671446" lon="7.939538186682478"><ele>990.9999999999999</ele><time>2026-05-03T11:23:01.999Z</time></trkpt><trkpt lat="44.1490810800871" lon="7.9395697055397045"><ele>991.0</ele><time>2026-05-03T11:23:02.999Z</time></trkpt><trkpt lat="44.14900713525027" lon="7.939614763679645"><ele>991.0</ele><time>2026-05-03T11:23:03.999Z</time></trkpt><trkpt lat="44.148924925059866" lon="7.939655703378177"><ele>991.0</ele><time>2026-05-03T11:23:04.999Z</time></trkpt><trkpt lat="44.14884853389996" lon="7.939709016224673"><ele>990.9999999999999</ele><time>2026-05-03T11:23:05.999Z</time></trkpt><trkpt lat="44.14878094541602" lon="7.939786503711942"><ele>991.0</ele><time>2026-05-03T11:23:06.999Z</time></trkpt><trkpt lat="44.14871433096761" lon="7.939880516332278"><ele>995.3333333333333</ele><time>2026-05-03T11:23:07.999Z</time></trkpt><trkpt lat="44.148638149134776" lon="7.9399435787401496"><ele>999.6666666666666</ele><time>2026-05-03T11:23:08.999Z</time></trkpt><trkpt lat="44.148565254070746" lon="7.939975667449455"><ele>1004.0</ele><time>2026-05-03T11:23:09.999Z</time></trkpt><trkpt lat="44.148503590023125" lon="7.940007627808103"><ele>1008.3333333333333</ele><time>2026-05-03T11:23:10.999Z</time></trkpt><trkpt lat="44.148405293432354" lon="7.940117131731943"><ele>1012.6666666666666</ele><time>2026-05-03T11:23:12.999Z</time></trkpt><trkpt lat="44.14836797748763" lon="7.940198749214833"><ele>1017.0</ele><time>2026-05-03T11:23:13.999Z</time></trkpt><trkpt lat="44.14832381871317" lon="7.940282062376048"><ele>1017.0</ele><time>2026-05-03T11:23:14.999Z</time></trkpt><trkpt lat="44.14828527121625" lon="7.940372995103956"><ele>1017.0</ele><time>2026-05-03T11:23:15.999Z</time></trkpt><trkpt lat="44.148225371107934" lon="7.940472811449936"><ele>1017.0</ele><time>2026-05-03T11:23:16.999Z</time></trkpt><trkpt lat="44.14817095943339" lon="7.940570673679021"><ele>1017.0</ele><time>2026-05-03T11:23:17.999Z</time></trkpt><trkpt lat="44.148113531885464" lon="7.940651717750946"><ele>1017.0</ele><time>2026-05-03T11:23:18.999Z</time></trkpt><trkpt lat="44.148092031942575" lon="7.940745491753628"><ele>1017.0</ele><time>2026-05-03T11:23:19.999Z</time></trkpt><trkpt lat="44.14809097051119" lon="7.940850790734808"><ele>1021.3333333333334</ele><time>2026-05-03T11:23:20.999Z</time></trkpt><trkpt lat="44.1480955097239" lon="7.940940985068875"><ele>1025.6666666666667</ele><time>2026-05-03T11:23:21.999Z</time></trkpt><trkpt lat="44.14805211630632" lon="7.941041947949786"><ele>1030.0</ele><time>2026-05-03T11:23:23.999Z</time></trkpt><trkpt lat="44.14797527941442" lon="7.941166797257392"><ele>1034.3333333333335</ele><time>2026-05-03T11:23:25.999Z</time></trkpt><trkpt lat="44.14794170775888" lon="7.94124556044843"><ele>1038.6666666666667</ele><time>2026-05-03T11:23:26.999Z</time></trkpt><trkpt lat="44.14790909475744" lon="7.94132692879884"><ele>1043.0</ele><time>2026-05-03T11:23:28Z</time></trkpt><trkpt lat="44.14787264929034" lon="7.941426971310591"><ele>1043.0</ele><time>2026-05-03T11:23:29Z</time></trkpt><trkpt lat="44.14783249260592" lon="7.941557454960491"><ele>1043.0</ele><time>2026-05-03T11:23:30Z</time></trkpt><trkpt lat="44.147793114343074" lon="7.941681078807302"><ele>1043.0</ele><time>2026-05-03T11:23:31Z</time></trkpt><trkpt lat="44.14776478859774" lon="7.941794985743051"><ele>1043.0</ele><time>2026-05-03T11:23:32Z</time></trkpt><trkpt lat="44.14773726458838" lon="7.941916599629157"><ele>1043.0</ele><time>2026-05-03T11:23:33Z</time></trkpt><trkpt lat="44.1477027531541" lon="7.94202445234854"><ele>1041.8333333333335</ele><time>2026-05-03T11:23:34Z</time></trkpt><trkpt lat="44.14765771369137" lon="7.942118252173583"><ele>1040.6666666666667</ele><time>2026-05-03T11:23:35Z</time></trkpt><trkpt lat="44.14761182982918" lon="7.942214932455366"><ele>1039.5</ele><time>2026-05-03T11:23:36Z</time></trkpt><trkpt lat="44.14756588201946" lon="7.942321944853699"><ele>1038.3333333333333</ele><time>2026-05-03T11:23:37Z</time></trkpt><trkpt lat="44.1475516767055" lon="7.942414725004031"><ele>1037.1666666666665</ele><time>2026-05-03T11:23:38Z</time></trkpt><trkpt lat="44.14749435170976" lon="7.9425541221539"><ele>1036.0</ele><time>2026-05-03T11:23:40Z</time></trkpt><trkpt lat="44.1474011347971" lon="7.942600678689867"><ele>1041.6666666666665</ele><time>2026-05-03T11:23:42Z</time></trkpt><trkpt lat="44.147277846747144" lon="7.942649076816729"><ele>1047.3333333333333</ele><time>2026-05-03T11:23:44Z</time></trkpt><trkpt lat="44.14721309444341" lon="7.942700759806839"><ele>1053.0</ele><time>2026-05-03T11:23:45Z</time></trkpt><trkpt lat="44.147172617856384" lon="7.942796143461265"><ele>1058.6666666666667</ele><time>2026-05-03T11:23:46Z</time></trkpt><trkpt lat="44.14715883122224" lon="7.942899706937427"><ele>1064.3333333333335</ele><time>2026-05-03T11:23:47Z</time></trkpt><trkpt lat="44.14713897486586" lon="7.942998578385546"><ele>1070.0</ele><time>2026-05-03T11:23:48Z</time></trkpt><trkpt lat="44.1470956265919" lon="7.9431258252812516"><ele>1070.0</ele><time>2026-05-03T11:23:50Z</time></trkpt><trkpt lat="44.14711596181649" lon="7.9432369015690805"><ele>1070.0</ele><time>2026-05-03T11:23:52Z</time></trkpt><trkpt lat="44.14720621911962" lon="7.943374716557196"><ele>1070.0</ele><time>2026-05-03T11:23:54Z</time></trkpt><trkpt lat="44.1472343530702" lon="7.943482954277219"><ele>1070.0</ele><time>2026-05-03T11:23:55Z</time></trkpt><trkpt lat="44.14724650480113" lon="7.943588137912205"><ele>1070.0</ele><time>2026-05-03T11:23:56Z</time></trkpt><trkpt lat="44.14726106468988" lon="7.943696379634489"><ele>1070.8333333333335</ele><time>2026-05-03T11:23:57Z</time></trkpt><trkpt lat="44.14728890469648" lon="7.943814233694707"><ele>1071.6666666666667</ele><time>2026-05-03T11:23:58Z</time></trkpt><trkpt lat="44.14732665022873" lon="7.943937677807352"><ele>1072.5</ele><time>2026-05-03T11:23:59Z</time></trkpt><trkpt lat="44.14735057776706" lon="7.944051785336051"><ele>1073.3333333333333</ele><time>2026-05-03T11:24:00Z</time></trkpt><trkpt lat="44.14737859983973" lon="7.944152216967806"><ele>1074.1666666666665</ele><time>2026-05-03T11:24:01Z</time></trkpt><trkpt lat="44.1473913386847" lon="7.944246375980835"><ele>1075.0</ele><time>2026-05-03T11:24:02Z</time></trkpt><trkpt lat="44.14739904330479" lon="7.944348461048936"><ele>1071.5</ele><time>2026-05-03T11:24:03Z</time></trkpt><trkpt lat="44.14743298150625" lon="7.944438651933525"><ele>1068.0</ele><time>2026-05-03T11:24:04Z</time></trkpt><trkpt lat="44.14748030869738" lon="7.944506590509032"><ele>1064.5</ele><time>2026-05-03T11:24:05Z</time></trkpt><trkpt lat="44.14753443683668" lon="7.944563932098043"><ele>1061.0</ele><time>2026-05-03T11:24:06Z</time></trkpt><trkpt lat="44.14757389841973" lon="7.9446334273845824"><ele>1057.5</ele><time>2026-05-03T11:24:07Z</time></trkpt><trkpt lat="44.14757586693294" lon="7.94478197725004"><ele>1054.0</ele><time>2026-05-03T11:24:09Z</time></trkpt><trkpt lat="44.14753511289802" lon="7.944870236290094"><ele>1054.0</ele><time>2026-05-03T11:24:12Z</time></trkpt><trkpt lat="44.14745519271467" lon="7.944900717717115"><ele>1054.0</ele><time>2026-05-03T11:24:15Z</time></trkpt><trkpt lat="44.14736932483539" lon="7.944886925649463"><ele>1054.0</ele><time>2026-05-03T11:24:17Z</time></trkpt><trkpt lat="44.147273486282415" lon="7.944836986431089"><ele>1054.0</ele><time>2026-05-03T11:24:19Z</time></trkpt><trkpt lat="44.147166174194695" lon="7.944747176948361"><ele>1054.0</ele><time>2026-05-03T11:24:21Z</time></trkpt><trkpt lat="44.147050182005245" lon="7.944684764402691"><ele>1057.5</ele><time>2026-05-03T11:24:23Z</time></trkpt><trkpt lat="44.14697650404677" lon="7.9446242096927415"><ele>1061.0</ele><time>2026-05-03T11:24:23.999Z</time></trkpt><trkpt lat="44.14689988574248" lon="7.944538983541232"><ele>1064.5</ele><time>2026-05-03T11:24:24.999Z</time></trkpt><trkpt lat="44.146847137312186" lon="7.944434624557859"><ele>1068.0</ele><time>2026-05-03T11:24:25.999Z</time></trkpt><trkpt lat="44.14680928517994" lon="7.944319840454458"><ele>1071.5</ele><time>2026-05-03T11:24:26.999Z</time></trkpt><trkpt lat="44.14677671053635" lon="7.944223691437907"><ele>1075.0</ele><time>2026-05-03T11:24:27.999Z</time></trkpt><trkpt lat="44.14673998638278" lon="7.944131662576579"><ele>1075.0000000000002</ele><time>2026-05-03T11:24:28.999Z</time></trkpt><trkpt lat="44.146702071729706" lon="7.944032147729655"><ele>1075.0</ele><time>2026-05-03T11:24:29.999Z</time></trkpt><trkpt lat="44.14666209169114" lon="7.94393130139715"><ele>1075.0</ele><time>2026-05-03T11:24:30.999Z</time></trkpt><trkpt lat="44.14662411554333" lon="7.943838442087607"><ele>1075.0</ele><time>2026-05-03T11:24:31.999Z</time></trkpt><trkpt lat="44.14658442229379" lon="7.9437593560131585"><ele>1075.0</ele><time>2026-05-03T11:24:32.999Z</time></trkpt><trkpt lat="44.14655211417276" lon="7.94367694590418"><ele>1075.0000000000002</ele><time>2026-05-03T11:24:33.999Z</time></trkpt><trkpt lat="44.146510324481966" lon="7.943604675272601"><ele>1075.0</ele><time>2026-05-03T11:24:35.999Z</time></trkpt><trkpt lat="44.14646574694712" lon="7.943690598653307"><ele>1082.4</ele><time>2026-05-03T11:24:39.999Z</time></trkpt><trkpt lat="44.14646582524419" lon="7.943870117479329"><ele>1089.8</ele><time>2026-05-03T11:24:42.999Z</time></trkpt><trkpt lat="44.14645144489135" lon="7.943957729979823"><ele>1097.2</ele><time>2026-05-03T11:24:43.999Z</time></trkpt><trkpt lat="44.14643305417611" lon="7.944060683887327"><ele>1104.6</ele><time>2026-05-03T11:24:45.999Z</time></trkpt><trkpt lat="44.14639422359871" lon="7.944230007774958"><ele>1112.0</ele><time>2026-05-03T11:24:47.999Z</time></trkpt><trkpt lat="44.14635298676555" lon="7.944317511299061"><ele>1112.8333333333335</ele><time>2026-05-03T11:24:48.999Z</time></trkpt><trkpt lat="44.14632094809178" lon="7.94441518804654"><ele>1113.6666666666667</ele><time>2026-05-03T11:24:49.999Z</time></trkpt><trkpt lat="44.14630121662172" lon="7.944509766038928"><ele>1114.5</ele><time>2026-05-03T11:24:50.999Z</time></trkpt><trkpt lat="44.14628662854314" lon="7.9446140359520765"><ele>1115.3333333333333</ele><time>2026-05-03T11:24:51.999Z</time></trkpt><trkpt lat="44.146311893550056" lon="7.944705390743419"><ele>1116.1666666666665</ele><time>2026-05-03T11:24:52.999Z</time></trkpt><trkpt lat="44.14636659499377" lon="7.944806350026145"><ele>1117.0</ele><time>2026-05-03T11:24:53.999Z</time></trkpt><trkpt lat="44.14635654653237" lon="7.9449462637037485"><ele>1117.0</ele><time>2026-05-03T11:24:55.999Z</time></trkpt><trkpt lat="44.146315174863275" lon="7.945021434492508"><ele>1117.0</ele><time>2026-05-03T11:24:56.999Z</time></trkpt><trkpt lat="44.146282631139215" lon="7.945097311096789"><ele>1117.0</ele><time>2026-05-03T11:24:57.999Z</time></trkpt><trkpt lat="44.146232475931285" lon="7.945243627557661"><ele>1117.0</ele><time>2026-05-03T11:24:59.999Z</time></trkpt><trkpt lat="44.14619173813582" lon="7.945337072941319"><ele>1117.0</ele><time>2026-05-03T11:25:00.999Z</time></trkpt><trkpt lat="44.14612958737346" lon="7.945439982307213"><ele>1117.0</ele><time>2026-05-03T11:25:01.999Z</time></trkpt><trkpt lat="44.146076749200525" lon="7.9455469167708905"><ele>1115.6</ele><time>2026-05-03T11:25:02.999Z</time></trkpt><trkpt lat="44.1460473628573" lon="7.945669104876902"><ele>1114.2</ele><time>2026-05-03T11:25:03.999Z</time></trkpt><trkpt lat="44.14602030438732" lon="7.945789788732462"><ele>1112.8</ele><time>2026-05-03T11:25:04.999Z</time></trkpt><trkpt lat="44.14598668238928" lon="7.945918739030899"><ele>1111.4</ele><time>2026-05-03T11:25:05.999Z</time></trkpt><trkpt lat="44.14595834454505" lon="7.946049572346029"><ele>1110.0</ele><time>2026-05-03T11:25:06.999Z</time></trkpt><trkpt lat="44.145920218956945" lon="7.946187450020581"><ele>1111.2</ele><time>2026-05-03T11:25:07.999Z</time></trkpt><trkpt lat="44.145883762293366" lon="7.946316719896997"><ele>1112.4</ele><time>2026-05-03T11:25:08.999Z</time></trkpt><trkpt lat="44.14584575809974" lon="7.946432979853806"><ele>1113.6</ele><time>2026-05-03T11:25:09.999Z</time></trkpt><trkpt lat="44.14579759188129" lon="7.946556402010683"><ele>1114.8</ele><time>2026-05-03T11:25:10.999Z</time></trkpt><trkpt lat="44.14574068342964" lon="7.946665776113379"><ele>1116.0</ele><time>2026-05-03T11:25:11.999Z</time></trkpt><trkpt lat="44.145695450844705" lon="7.946787686012507"><ele>1116.0</ele><time>2026-05-03T11:25:12.999Z</time></trkpt><trkpt lat="44.14566435022946" lon="7.9468659075406265"><ele>1116.0</ele><time>2026-05-03T11:25:13.999Z</time></trkpt><trkpt lat="44.145590183831914" lon="7.946928466031748"><ele>1116.0</ele><time>2026-05-03T11:25:16.999Z</time></trkpt><trkpt lat="44.14549901285657" lon="7.947036763777352"><ele>1116.0</ele><time>2026-05-03T11:25:18.999Z</time></trkpt><trkpt lat="44.14542204975657" lon="7.947071293434789"><ele>1116.0</ele><time>2026-05-03T11:25:19.999Z</time></trkpt><trkpt lat="44.14533013078835" lon="7.947101261393938"><ele>1116.0</ele><time>2026-05-03T11:25:20.999Z</time></trkpt><trkpt lat="44.14522408458756" lon="7.947117027767306"><ele>1116.0</ele><time>2026-05-03T11:25:21.999Z</time></trkpt><trkpt lat="44.145130545117745" lon="7.947155526492385"><ele>1116.0</ele><time>2026-05-03T11:25:22.999Z</time></trkpt><trkpt lat="44.14503881178898" lon="7.947257554572491"><ele>1116.0</ele><time>2026-05-03T11:25:23.999Z</time></trkpt><trkpt lat="44.14493996665655" lon="7.947358485474409"><ele>1116.0</ele><time>2026-05-03T11:25:24.999Z</time></trkpt><trkpt lat="44.144849758580136" lon="7.947456866239078"><ele>1120.0</ele><time>2026-05-03T11:25:25.999Z</time></trkpt><trkpt lat="44.14476201979104" lon="7.947582571149179"><ele>1124.0</ele><time>2026-05-03T11:25:26.999Z</time></trkpt><trkpt lat="44.144690723075385" lon="7.947674690271601"><ele>1128.0</ele><time>2026-05-03T11:25:27.999Z</time></trkpt><trkpt lat="44.144593171256645" lon="7.947757145499599"><ele>1132.0</ele><time>2026-05-03T11:25:28.999Z</time></trkpt><trkpt lat="44.1445143112745" lon="7.947835026209119"><ele>1136.0</ele><time>2026-05-03T11:25:29.999Z</time></trkpt><trkpt lat="44.14441192587433" lon="7.947882270778299"><ele>1136.0</ele><time>2026-05-03T11:25:30.999Z</time></trkpt><trkpt lat="44.14430310073387" lon="7.947932961081243"><ele>1136.0</ele><time>2026-05-03T11:25:31.999Z</time></trkpt><trkpt lat="44.14420593262982" lon="7.9479915824904035"><ele>1136.0</ele><time>2026-05-03T11:25:32.999Z</time></trkpt><trkpt lat="44.14412271944685" lon="7.948106358511424"><ele>1136.0</ele><time>2026-05-03T11:25:34Z</time></trkpt><trkpt lat="44.144065862981" lon="7.9482520972792035"><ele>1136.2</ele><time>2026-05-03T11:25:35Z</time></trkpt><trkpt lat="44.144008544087136" lon="7.948359218487579"><ele>1136.3999999999999</ele><time>2026-05-03T11:25:36Z</time></trkpt><trkpt lat="44.14397462336306" lon="7.948444867300775"><ele>1136.6</ele><time>2026-05-03T11:25:37Z</time></trkpt><trkpt lat="44.14406806762516" lon="7.948594656325209"><ele>1136.8</ele><time>2026-05-03T11:25:39Z</time></trkpt><trkpt lat="44.1441662816404" lon="7.94861836530819"><ele>1137.0</ele><time>2026-05-03T11:25:40Z</time></trkpt><trkpt lat="44.144228953681186" lon="7.94868235443024"><ele>1137.0</ele><time>2026-05-03T11:25:41Z</time></trkpt><trkpt lat="44.14424723400803" lon="7.948791321925062"><ele>1137.0</ele><time>2026-05-03T11:25:42Z</time></trkpt><trkpt lat="44.14421306177588" lon="7.948930936871985"><ele>1137.0</ele><time>2026-05-03T11:25:43Z</time></trkpt><trkpt lat="44.14413732759768" lon="7.949066338827072"><ele>1137.0</ele><time>2026-05-03T11:25:44Z</time></trkpt><trkpt lat="44.14406331020263" lon="7.949253700923925"><ele>1145.5</ele><time>2026-05-03T11:25:45Z</time></trkpt><trkpt lat="44.144002780475" lon="7.949457574001651"><ele>1154.0</ele><time>2026-05-03T11:25:46Z</time></trkpt><trkpt lat="44.14393726098448" lon="7.949658520145562"><ele>1162.5</ele><time>2026-05-03T11:25:47Z</time></trkpt><trkpt lat="44.143868511933604" lon="7.94980044278824"><ele>1171.0</ele><time>2026-05-03T11:25:48Z</time></trkpt><trkpt lat="44.14381318373337" lon="7.949901754409345"><ele>1171.0</ele><time>2026-05-03T11:25:49Z</time></trkpt><trkpt lat="44.14378209891342" lon="7.9500125164444775"><ele>1171.0</ele><time>2026-05-03T11:25:50Z</time></trkpt><trkpt lat="44.14379322104106" lon="7.950128829242921"><ele>1171.0</ele><time>2026-05-03T11:25:51Z</time></trkpt><trkpt lat="44.14379674907974" lon="7.950284140191729"><ele>1171.0</ele><time>2026-05-03T11:25:52Z</time></trkpt><trkpt lat="44.14376312310568" lon="7.95042295937606"><ele>1171.0</ele><time>2026-05-03T11:25:53Z</time></trkpt><trkpt lat="44.143714218864105" lon="7.950556626479119"><ele>1171.5</ele><time>2026-05-03T11:25:54Z</time></trkpt><trkpt lat="44.14367804550098" lon="7.950710045293494"><ele>1172.0</ele><time>2026-05-03T11:25:55Z</time></trkpt><trkpt lat="44.143654623809546" lon="7.950904850950866"><ele>1172.5</ele><time>2026-05-03T11:25:56Z</time></trkpt><trkpt lat="44.14364440986766" lon="7.951077732116536"><ele>1173.0</ele><time>2026-05-03T11:25:57Z</time></trkpt><trkpt lat="44.14369708119916" lon="7.951187352189993"><ele>1174.2</ele><time>2026-05-03T11:25:58Z</time></trkpt><trkpt lat="44.143724668146824" lon="7.9512964223697224"><ele>1175.4</ele><time>2026-05-03T11:25:59Z</time></trkpt><trkpt lat="44.1436326791302" lon="7.951343990798223"><ele>1176.6000000000001</ele><time>2026-05-03T11:26:01Z</time></trkpt><trkpt lat="44.14356730211348" lon="7.951302020417366"><ele>1177.8</ele><time>2026-05-03T11:26:02Z</time></trkpt><trkpt lat="44.143537847425364" lon="7.9511979693411154"><ele>1179.0</ele><time>2026-05-03T11:26:03Z</time></trkpt><trkpt lat="44.14352599008595" lon="7.951024646185736"><ele>1177.5</ele><time>2026-05-03T11:26:04Z</time></trkpt><trkpt lat="44.14349612689031" lon="7.950839467723867"><ele>1176.0</ele><time>2026-05-03T11:26:05Z</time></trkpt><trkpt lat="44.14346752846936" lon="7.95062645433299"><ele>1174.5</ele><time>2026-05-03T11:26:06Z</time></trkpt><trkpt lat="44.14342683721422" lon="7.950420495589316"><ele>1173.0</ele><time>2026-05-03T11:26:07Z</time></trkpt><trkpt lat="44.143379459624676" lon="7.950276901304613"><ele>1173.0</ele><time>2026-05-03T11:26:08Z</time></trkpt><trkpt lat="44.14333497101347" lon="7.950203822726795"><ele>1173.0</ele><time>2026-05-03T11:26:09Z</time></trkpt><trkpt lat="44.143230796859825" lon="7.950096022566084"><ele>1173.0</ele><time>2026-05-03T11:26:11Z</time></trkpt><trkpt lat="44.143170844734" lon="7.950003860520769"><ele>1173.0</ele><time>2026-05-03T11:26:12Z</time></trkpt><trkpt lat="44.14320486566226" lon="7.949850317536017"><ele>1173.0</ele><time>2026-05-03T11:26:14Z</time></trkpt><trkpt lat="44.14325450620551" lon="7.9497093461198745"><ele>1172.3333333333333</ele><time>2026-05-03T11:26:15Z</time></trkpt><trkpt lat="44.1432728434961" lon="7.949572136507561"><ele>1171.6666666666665</ele><time>2026-05-03T11:26:16Z</time></trkpt><trkpt lat="44.143232906118264" lon="7.949320435693897"><ele>1171.0</ele><time>2026-05-03T11:26:17Z</time></trkpt><trkpt lat="44.14322432157017" lon="7.949066328191005"><ele>1179.0</ele><time>2026-05-03T11:26:18Z</time></trkpt><trkpt lat="44.14320846686545" lon="7.9488979818553425"><ele>1187.0</ele><time>2026-05-03T11:26:19Z</time></trkpt><trkpt lat="44.14321103628131" lon="7.94879298649644"><ele>1195.0</ele><time>2026-05-03T11:26:20Z</time></trkpt><trkpt lat="44.14321085166031" lon="7.948693606628459"><ele>1203.0</ele><time>2026-05-03T11:26:22Z</time></trkpt><trkpt lat="44.14314856539874" lon="7.948734857767288"><ele>1211.0</ele><time>2026-05-03T11:26:24Z</time></trkpt><trkpt lat="44.14310332888832" lon="7.948902732345041"><ele>1211.0</ele><time>2026-05-03T11:26:26Z</time></trkpt><trkpt lat="44.14306384819759" lon="7.9490443644941795"><ele>1211.0</ele><time>2026-05-03T11:26:27Z</time></trkpt><trkpt lat="44.143028830690156" lon="7.949198577745527"><ele>1211.0</ele><time>2026-05-03T11:26:28Z</time></trkpt><trkpt lat="44.14298664802738" lon="7.949345354387836"><ele>1211.0</ele><time>2026-05-03T11:26:29Z</time></trkpt><trkpt lat="44.14290844105999" lon="7.9494785720181875"><ele>1210.6</ele><time>2026-05-03T11:26:30Z</time></trkpt><trkpt lat="44.14283810713672" lon="7.949623686284125"><ele>1210.1999999999998</ele><time>2026-05-03T11:26:31Z</time></trkpt><trkpt lat="44.14280165422465" lon="7.949726654271566"><ele>1209.8000000000002</ele><time>2026-05-03T11:26:32Z</time></trkpt><trkpt lat="44.14276662973925" lon="7.949824938380401"><ele>1209.4</ele><time>2026-05-03T11:26:32.999Z</time></trkpt><trkpt lat="44.142702381750546" lon="7.94990353666619"><ele>1209.0</ele><time>2026-05-03T11:26:33.999Z</time></trkpt><trkpt lat="44.14264143221452" lon="7.949981187663778"><ele>1209.2</ele><time>2026-05-03T11:26:34.999Z</time></trkpt><trkpt lat="44.14261147698932" lon="7.950069112415345"><ele>1209.4</ele><time>2026-05-03T11:26:35.999Z</time></trkpt><trkpt lat="44.142652432747305" lon="7.9501802238499755"><ele>1209.6</ele><time>2026-05-03T11:26:36.999Z</time></trkpt><trkpt lat="44.14271660474829" lon="7.9502793296686844"><ele>1209.8</ele><time>2026-05-03T11:26:37.999Z</time></trkpt><trkpt lat="44.14273884139192" lon="7.950382780661548"><ele>1210.0</ele><time>2026-05-03T11:26:39.999Z</time></trkpt><trkpt lat="44.14269198090942" lon="7.950568569399535"><ele>1210.0</ele><time>2026-05-03T11:26:41.999Z</time></trkpt><trkpt lat="44.14264904000383" lon="7.950672821390699"><ele>1210.0</ele><time>2026-05-03T11:26:42.999Z</time></trkpt><trkpt lat="44.14259251740288" lon="7.950782174706432"><ele>1210.0</ele><time>2026-05-03T11:26:43.999Z</time></trkpt><trkpt lat="44.142514341386274" lon="7.950900708496243"><ele>1210.0</ele><time>2026-05-03T11:26:44.999Z</time></trkpt><trkpt lat="44.14241839770977" lon="7.95101527230298"><ele>1210.0</ele><time>2026-05-03T11:26:45.999Z</time></trkpt><trkpt lat="44.14233963958476" lon="7.951099476252035"><ele>1215.8333333333333</ele><time>2026-05-03T11:26:46.999Z</time></trkpt><trkpt lat="44.14229887802973" lon="7.951179969911984"><ele>1221.6666666666665</ele><time>2026-05-03T11:26:47.999Z</time></trkpt><trkpt lat="44.14227482264188" lon="7.951270289376988"><ele>1227.5</ele><time>2026-05-03T11:26:48.999Z</time></trkpt><trkpt lat="44.14225487260986" lon="7.951397861765371"><ele>1233.3333333333333</ele><time>2026-05-03T11:26:49.999Z</time></trkpt><trkpt lat="44.1422387985821" lon="7.951518529921141"><ele>1239.1666666666667</ele><time>2026-05-03T11:26:50.999Z</time></trkpt><trkpt lat="44.14224247839995" lon="7.9516532540943325"><ele>1245.0</ele><time>2026-05-03T11:26:51.999Z</time></trkpt><trkpt lat="44.14225123011435" lon="7.951805256453245"><ele>1246.8</ele><time>2026-05-03T11:26:52.999Z</time></trkpt><trkpt lat="44.142262545859325" lon="7.9519078759577315"><ele>1248.6</ele><time>2026-05-03T11:26:53.999Z</time></trkpt><trkpt lat="44.14230311210055" lon="7.952025118161043"><ele>1250.4</ele><time>2026-05-03T11:26:54.999Z</time></trkpt><trkpt lat="44.14238364917027" lon="7.95213823226577"><ele>1252.2</ele><time>2026-05-03T11:26:55.999Z</time></trkpt><trkpt lat="44.14247068595891" lon="7.952268099847328"><ele>1254.0</ele><time>2026-05-03T11:26:56.999Z</time></trkpt><trkpt lat="44.14253903051214" lon="7.952419720842355"><ele>1252.2</ele><time>2026-05-03T11:26:57.999Z</time></trkpt><trkpt lat="44.14258992040179" lon="7.952540780016964"><ele>1250.4</ele><time>2026-05-03T11:26:58.999Z</time></trkpt><trkpt lat="44.142633984978374" lon="7.952644355560593"><ele>1248.6</ele><time>2026-05-03T11:26:59.999Z</time></trkpt><trkpt lat="44.14270224115712" lon="7.952744675841087"><ele>1246.8</ele><time>2026-05-03T11:27:00.999Z</time></trkpt><trkpt lat="44.142753453100404" lon="7.952869250673955"><ele>1245.0</ele><time>2026-05-03T11:27:01.999Z</time></trkpt><trkpt lat="44.14283792139653" lon="7.952990906159982"><ele>1245.0</ele><time>2026-05-03T11:27:02.999Z</time></trkpt><trkpt lat="44.14291567856066" lon="7.953113327389281"><ele>1245.0</ele><time>2026-05-03T11:27:03.999Z</time></trkpt><trkpt lat="44.142992078918304" lon="7.9532649777825695"><ele>1245.0</ele><time>2026-05-03T11:27:04.999Z</time></trkpt><trkpt lat="44.14307508114078" lon="7.953406917879878"><ele>1245.0</ele><time>2026-05-03T11:27:05.999Z</time></trkpt><trkpt lat="44.14312082545336" lon="7.953557450509361"><ele>1248.2</ele><time>2026-05-03T11:27:06.999Z</time></trkpt><trkpt lat="44.14314822643642" lon="7.953751282381344"><ele>1251.4</ele><time>2026-05-03T11:27:07.999Z</time></trkpt><trkpt lat="44.143171108096126" lon="7.953921195503482"><ele>1254.6</ele><time>2026-05-03T11:27:08.999Z</time></trkpt><trkpt lat="44.14317705520154" lon="7.9540370320237335"><ele>1257.8</ele><time>2026-05-03T11:27:09.999Z</time></trkpt><trkpt lat="44.14317780343238" lon="7.954159672393848"><ele>1261.0</ele><time>2026-05-03T11:27:10.999Z</time></trkpt><trkpt lat="44.14315991684785" lon="7.9542976750871865"><ele>1260.8</ele><time>2026-05-03T11:27:11.999Z</time></trkpt><trkpt lat="44.143162055984384" lon="7.954446399097791"><ele>1260.6</ele><time>2026-05-03T11:27:12.999Z</time></trkpt><trkpt lat="44.14316063625496" lon="7.9545989435542745"><ele>1260.4</ele><time>2026-05-03T11:27:13.999Z</time></trkpt><trkpt lat="44.143145276614135" lon="7.95474227360157"><ele>1260.2</ele><time>2026-05-03T11:27:14.999Z</time></trkpt><trkpt lat="44.143106321080126" lon="7.954890156641286"><ele>1260.0</ele><time>2026-05-03T11:27:15.999Z</time></trkpt><trkpt lat="44.14307382092805" lon="7.955056163354249"><ele>1260.0</ele><time>2026-05-03T11:27:16.999Z</time></trkpt><trkpt lat="44.143033492730616" lon="7.955199467303472"><ele>1260.0</ele><time>2026-05-03T11:27:17.999Z</time></trkpt><trkpt lat="44.142985844971" lon="7.95532972812982"><ele>1260.0</ele><time>2026-05-03T11:27:18.999Z</time></trkpt><trkpt lat="44.142935036348646" lon="7.95544829951268"><ele>1260.0</ele><time>2026-05-03T11:27:19.999Z</time></trkpt><trkpt lat="44.1429023765658" lon="7.955572208147863"><ele>1260.0</ele><time>2026-05-03T11:27:20.999Z</time></trkpt><trkpt lat="44.1428964325393" lon="7.95571318078004"><ele>1260.0</ele><time>2026-05-03T11:27:21.999Z</time></trkpt><trkpt lat="44.14289917092422" lon="7.955839822054614"><ele>1260.0</ele><time>2026-05-03T11:27:22.999Z</time></trkpt><trkpt lat="44.14295101954221" lon="7.955966551871267"><ele>1260.0</ele><time>2026-05-03T11:27:23.999Z</time></trkpt><trkpt lat="44.14297371579328" lon="7.956091158805076"><ele>1260.0</ele><time>2026-05-03T11:27:24.999Z</time></trkpt><trkpt lat="44.142978873069914" lon="7.956217088947922"><ele>1260.0</ele><time>2026-05-03T11:27:25.999Z</time></trkpt><trkpt lat="44.14298857746336" lon="7.956340902018983"><ele>1259.8</ele><time>2026-05-03T11:27:26.999Z</time></trkpt><trkpt lat="44.14302682197611" lon="7.956454815397986"><ele>1259.6</ele><time>2026-05-03T11:27:27.999Z</time></trkpt><trkpt lat="44.14308565295482" lon="7.956581744644791"><ele>1259.4</ele><time>2026-05-03T11:27:28.999Z</time></trkpt><trkpt lat="44.14312355657084" lon="7.956689596925032"><ele>1259.2</ele><time>2026-05-03T11:27:29.999Z</time></trkpt><trkpt lat="44.143179175462116" lon="7.95676410859042"><ele>1259.0</ele><time>2026-05-03T11:27:30.999Z</time></trkpt><trkpt lat="44.14324797552798" lon="7.956857436474989"><ele>1259.0</ele><time>2026-05-03T11:27:31.999Z</time></trkpt><trkpt lat="44.14330005410473" lon="7.956972272752895"><ele>1259.0</ele><time>2026-05-03T11:27:32.999Z</time></trkpt><trkpt lat="44.14334124664689" lon="7.95708629148711"><ele>1259.0</ele><time>2026-05-03T11:27:34.999Z</time></trkpt><trkpt lat="44.143283231761416" lon="7.957170207767889"><ele>1259.0</ele><time>2026-05-03T11:27:36.999Z</time></trkpt><trkpt lat="44.14320318084605" lon="7.957117764301352"><ele>1259.0</ele><time>2026-05-03T11:27:38.999Z</time></trkpt><trkpt lat="44.143122663955005" lon="7.957039396165294"><ele>1264.75</ele><time>2026-05-03T11:27:40Z</time></trkpt><trkpt lat="44.143034949225026" lon="7.956973147477553"><ele>1270.5</ele><time>2026-05-03T11:27:41Z</time></trkpt><trkpt lat="44.142889036109864" lon="7.956882252664333"><ele>1276.25</ele><time>2026-05-03T11:27:42Z</time></trkpt><trkpt lat="44.14279727404258" lon="7.956799889569004"><ele>1282.0</ele><time>2026-05-03T11:27:43Z</time></trkpt><trkpt lat="44.14271787507641" lon="7.956723434477777"><ele>1282.25</ele><time>2026-05-03T11:27:44Z</time></trkpt><trkpt lat="44.14261111306278" lon="7.956623928969554"><ele>1282.5</ele><time>2026-05-03T11:27:45Z</time></trkpt><trkpt lat="44.14249872570853" lon="7.9564796780478195"><ele>1282.75</ele><time>2026-05-03T11:27:46Z</time></trkpt><trkpt lat="44.14242162797161" lon="7.956359683545646"><ele>1283.0</ele><time>2026-05-03T11:27:47Z</time></trkpt><trkpt lat="44.14236843143485" lon="7.95625883720988"><ele>1283.0</ele><time>2026-05-03T11:27:48Z</time></trkpt><trkpt lat="44.142323695540455" lon="7.956184834023481"><ele>1283.0</ele><time>2026-05-03T11:27:49Z</time></trkpt><trkpt lat="44.14227325573031" lon="7.956075503799928"><ele>1283.0</ele><time>2026-05-03T11:27:51Z</time></trkpt><trkpt lat="44.14210404134799" lon="7.956093379849324"><ele>1283.0</ele><time>2026-05-03T11:27:53Z</time></trkpt><trkpt lat="44.14197721096107" lon="7.956098800007495"><ele>1283.0</ele><time>2026-05-03T11:27:55Z</time></trkpt><trkpt lat="44.14189086297489" lon="7.955978808767035"><ele>1283.0</ele><time>2026-05-03T11:27:56Z</time></trkpt><trkpt lat="44.14183153476322" lon="7.955858338716644"><ele>1283.0</ele><time>2026-05-03T11:27:57Z</time></trkpt><trkpt lat="44.14184073050407" lon="7.955752566725227"><ele>1283.0</ele><time>2026-05-03T11:28:00Z</time></trkpt><trkpt lat="44.14185476758564" lon="7.95564968059219"><ele>1283.0</ele><time>2026-05-03T11:28:02Z</time></trkpt><trkpt lat="44.14187213797062" lon="7.955544267036555"><ele>1282.5</ele><time>2026-05-03T11:28:05Z</time></trkpt><trkpt lat="44.141869665626956" lon="7.955455415473063"><ele>1282.0</ele><time>2026-05-03T11:28:06Z</time></trkpt><trkpt lat="44.141781707265096" lon="7.9554245857592605"><ele>1281.5</ele><time>2026-05-03T11:28:08Z</time></trkpt><trkpt lat="44.14171608500356" lon="7.955486698245284"><ele>1281.0</ele><time>2026-05-03T11:28:09Z</time></trkpt><trkpt lat="44.141666710271394" lon="7.95561580347653"><ele>1280.5</ele><time>2026-05-03T11:28:10Z</time></trkpt><trkpt lat="44.14163572855077" lon="7.955750169050513"><ele>1280.0</ele><time>2026-05-03T11:28:11Z</time></trkpt><trkpt lat="44.14159914849543" lon="7.955859001224812"><ele>1280.6</ele><time>2026-05-03T11:28:12Z</time></trkpt><trkpt lat="44.14155424371452" lon="7.956003800173507"><ele>1281.2</ele><time>2026-05-03T11:28:13Z</time></trkpt><trkpt lat="44.14151188989521" lon="7.956154760386478"><ele>1281.8000000000002</ele><time>2026-05-03T11:28:14Z</time></trkpt><trkpt lat="44.14146754293291" lon="7.95624655260755"><ele>1282.4</ele><time>2026-05-03T11:28:15Z</time></trkpt><trkpt lat="44.14146240331483" lon="7.956384471368709"><ele>1283.0</ele><time>2026-05-03T11:28:16Z</time></trkpt><trkpt lat="44.141459410108986" lon="7.95651016398271"><ele>1286.1666666666667</ele><time>2026-05-03T11:28:17Z</time></trkpt><trkpt lat="44.14145446920965" lon="7.956618003878234"><ele>1289.3333333333335</ele><time>2026-05-03T11:28:18Z</time></trkpt><trkpt lat="44.14143599146943" lon="7.956740452630379"><ele>1292.5</ele><time>2026-05-03T11:28:19Z</time></trkpt><trkpt lat="44.14140474384023" lon="7.956870156614621"><ele>1295.6666666666667</ele><time>2026-05-03T11:28:20Z</time></trkpt><trkpt lat="44.14138600184383" lon="7.956969107651063"><ele>1298.8333333333333</ele><time>2026-05-03T11:28:21Z</time></trkpt><trkpt lat="44.141347665176774" lon="7.957067757618378"><ele>1302.0</ele><time>2026-05-03T11:28:22Z</time></trkpt><trkpt lat="44.141301912470766" lon="7.957188336724339"><ele>1302.0</ele><time>2026-05-03T11:28:23Z</time></trkpt><trkpt lat="44.14128011414183" lon="7.957325337230898"><ele>1302.0</ele><time>2026-05-03T11:28:24Z</time></trkpt><trkpt lat="44.14129494829511" lon="7.95744973020602"><ele>1302.0</ele><time>2026-05-03T11:28:25Z</time></trkpt><trkpt lat="44.1413210691542" lon="7.957592956017199"><ele>1302.0</ele><time>2026-05-03T11:28:26Z</time></trkpt><trkpt lat="44.14132813647384" lon="7.95773628729472"><ele>1302.0</ele><time>2026-05-03T11:28:27Z</time></trkpt><trkpt lat="44.14132716673025" lon="7.957903695281699"><ele>1301.1999999999998</ele><time>2026-05-03T11:28:28Z</time></trkpt><trkpt lat="44.14134610710943" lon="7.958047520581821"><ele>1300.4</ele><time>2026-05-03T11:28:29Z</time></trkpt><trkpt lat="44.141365883541496" lon="7.958143685984543"><ele>1299.6</ele><time>2026-05-03T11:28:30Z</time></trkpt><trkpt lat="44.141329396229715" lon="7.958262933185305"><ele>1298.8000000000002</ele><time>2026-05-03T11:28:31Z</time></trkpt><trkpt lat="44.14124158825962" lon="7.9584080816143015"><ele>1298.0</ele><time>2026-05-03T11:28:32Z</time></trkpt><trkpt lat="44.141139081563644" lon="7.958554191456482"><ele>1298.0</ele><time>2026-05-03T11:28:33Z</time></trkpt><trkpt lat="44.141054483504405" lon="7.9586594071497165"><ele>1298.0</ele><time>2026-05-03T11:28:34Z</time></trkpt><trkpt lat="44.14097304470245" lon="7.9587462133989835"><ele>1298.0</ele><time>2026-05-03T11:28:35Z</time></trkpt><trkpt lat="44.14089668159681" lon="7.958832498002982"><ele>1298.0</ele><time>2026-05-03T11:28:36Z</time></trkpt><trkpt lat="44.140803223388694" lon="7.958893015838895"><ele>1298.0</ele><time>2026-05-03T11:28:37Z</time></trkpt><trkpt lat="44.14067970919199" lon="7.958939239348895"><ele>1298.0</ele><time>2026-05-03T11:28:38Z</time></trkpt><trkpt lat="44.14054918803937" lon="7.958981138195834"><ele>1298.0</ele><time>2026-05-03T11:28:39Z</time></trkpt><trkpt lat="44.140431109602616" lon="7.959043179807327"><ele>1298.0</ele><time>2026-05-03T11:28:40Z</time></trkpt><trkpt lat="44.14029986408803" lon="7.959107517095934"><ele>1298.0</ele><time>2026-05-03T11:28:41Z</time></trkpt><trkpt lat="44.14017039576761" lon="7.959165048313916"><ele>1298.75</ele><time>2026-05-03T11:28:42Z</time></trkpt><trkpt lat="44.140042999253495" lon="7.959225488639426"><ele>1299.5</ele><time>2026-05-03T11:28:43Z</time></trkpt><trkpt lat="44.13990442251391" lon="7.959285647610567"><ele>1300.25</ele><time>2026-05-03T11:28:44Z</time></trkpt><trkpt lat="44.139764251229444" lon="7.95933193583688"><ele>1301.0</ele><time>2026-05-03T11:28:45Z</time></trkpt><trkpt lat="44.139652616134136" lon="7.959361154312712"><ele>1301.0</ele><time>2026-05-03T11:28:45.999Z</time></trkpt><trkpt lat="44.139542893657065" lon="7.959391653976892"><ele>1301.0</ele><time>2026-05-03T11:28:46.999Z</time></trkpt><trkpt lat="44.139452197193094" lon="7.959446332652419"><ele>1301.0</ele><time>2026-05-03T11:28:47.999Z</time></trkpt><trkpt lat="44.1393440831052" lon="7.959504927736406"><ele>1301.0</ele><time>2026-05-03T11:28:48.999Z</time></trkpt><trkpt lat="44.13921329751562" lon="7.959568945314745"><ele>1301.0</ele><time>2026-05-03T11:28:49.999Z</time></trkpt><trkpt lat="44.13909717727684" lon="7.959641677997576"><ele>1301.0</ele><time>2026-05-03T11:28:50.999Z</time></trkpt><trkpt lat="44.13899044755994" lon="7.959721364803612"><ele>1301.0</ele><time>2026-05-03T11:28:51.999Z</time></trkpt><trkpt lat="44.13886236117483" lon="7.95982344333032"><ele>1301.0</ele><time>2026-05-03T11:28:52.999Z</time></trkpt><trkpt lat="44.13875500332423" lon="7.959923771062667"><ele>1305.5</ele><time>2026-05-03T11:28:53.999Z</time></trkpt><trkpt lat="44.13864690754966" lon="7.960005712522201"><ele>1310.0</ele><time>2026-05-03T11:28:54.999Z</time></trkpt><trkpt lat="44.13854768451474" lon="7.960096367850887"><ele>1314.5</ele><time>2026-05-03T11:28:55.999Z</time></trkpt><trkpt lat="44.138458133362604" lon="7.960214359225152"><ele>1319.0</ele><time>2026-05-03T11:28:56.999Z</time></trkpt><trkpt lat="44.13835868792278" lon="7.960353258293686"><ele>1319.0</ele><time>2026-05-03T11:28:57.999Z</time></trkpt><trkpt lat="44.13826857855866" lon="7.96051071683433"><ele>1319.0</ele><time>2026-05-03T11:28:58.999Z</time></trkpt><trkpt lat="44.138189308220234" lon="7.96066952897898"><ele>1319.0</ele><time>2026-05-03T11:28:59.999Z</time></trkpt><trkpt lat="44.1381199089854" lon="7.960833884293476"><ele>1319.0</ele><time>2026-05-03T11:29:00.999Z</time></trkpt><trkpt lat="44.138063589831106" lon="7.9610004482837535"><ele>1330.5</ele><time>2026-05-03T11:29:01.999Z</time></trkpt><trkpt lat="44.13801798617784" lon="7.961169139107167"><ele>1342.0</ele><time>2026-05-03T11:29:02.999Z</time></trkpt><trkpt lat="44.137975950169135" lon="7.961337978982949"><ele>1353.5</ele><time>2026-05-03T11:29:03.999Z</time></trkpt><trkpt lat="44.13794495218086" lon="7.961510913078318"><ele>1365.0</ele><time>2026-05-03T11:29:04.999Z</time></trkpt><trkpt lat="44.13790444603682" lon="7.961684155172368"><ele>1364.0</ele><time>2026-05-03T11:29:05.999Z</time></trkpt><trkpt lat="44.13790433026714" lon="7.961865674968644"><ele>1363.0</ele><time>2026-05-03T11:29:06.999Z</time></trkpt><trkpt lat="44.137919375895216" lon="7.962042458346947"><ele>1362.0</ele><time>2026-05-03T11:29:07.999Z</time></trkpt><trkpt lat="44.13791343492573" lon="7.962254737655357"><ele>1361.0</ele><time>2026-05-03T11:29:08.999Z</time></trkpt><trkpt lat="44.13789145089097" lon="7.96245558009983"><ele>1359.75</ele><time>2026-05-03T11:29:09.999Z</time></trkpt><trkpt lat="44.13786851232122" lon="7.96264730393538"><ele>1358.5</ele><time>2026-05-03T11:29:10.999Z</time></trkpt><trkpt lat="44.13785070713216" lon="7.962832124613389"><ele>1357.25</ele><time>2026-05-03T11:29:11.999Z</time></trkpt><trkpt lat="44.13782463189364" lon="7.963009396680337"><ele>1356.0</ele><time>2026-05-03T11:29:12.999Z</time></trkpt><trkpt lat="44.13778261955506" lon="7.963184103461674"><ele>1356.0</ele><time>2026-05-03T11:29:13.999Z</time></trkpt><trkpt lat="44.13773902404756" lon="7.9633522997860515"><ele>1356.0</ele><time>2026-05-03T11:29:14.999Z</time></trkpt><trkpt lat="44.13768502560157" lon="7.963526985284065"><ele>1356.0</ele><time>2026-05-03T11:29:15.999Z</time></trkpt><trkpt lat="44.137638446321446" lon="7.963696949473536"><ele>1356.0</ele><time>2026-05-03T11:29:16.999Z</time></trkpt><trkpt lat="44.13761165366623" lon="7.963881160502212"><ele>1355.25</ele><time>2026-05-03T11:29:17.999Z</time></trkpt><trkpt lat="44.13759552554232" lon="7.964074698103871"><ele>1354.5</ele><time>2026-05-03T11:29:18.999Z</time></trkpt><trkpt lat="44.13760079740123" lon="7.964260376741211"><ele>1353.75</ele><time>2026-05-03T11:29:19.999Z</time></trkpt><trkpt lat="44.137608230349585" lon="7.964436306388766"><ele>1353.0</ele><time>2026-05-03T11:29:20.999Z</time></trkpt><trkpt lat="44.13760680098373" lon="7.964602091724302"><ele>1353.0</ele><time>2026-05-03T11:29:21.999Z</time></trkpt><trkpt lat="44.13757072021594" lon="7.964762877390506"><ele>1353.0</ele><time>2026-05-03T11:29:22.999Z</time></trkpt><trkpt lat="44.13749079961364" lon="7.964920605315803"><ele>1353.0</ele><time>2026-05-03T11:29:23.999Z</time></trkpt><trkpt lat="44.13740835547777" lon="7.965070509083187"><ele>1353.0</ele><time>2026-05-03T11:29:24.999Z</time></trkpt><trkpt lat="44.137337519663106" lon="7.96520539796089"><ele>1353.0</ele><time>2026-05-03T11:29:25.999Z</time></trkpt><trkpt lat="44.13728075953713" lon="7.9653260819604865"><ele>1353.0</ele><time>2026-05-03T11:29:26.999Z</time></trkpt><trkpt lat="44.13724124848614" lon="7.965418778555786"><ele>1353.0</ele><time>2026-05-03T11:29:27.999Z</time></trkpt><trkpt lat="44.13723594910969" lon="7.965509832093356"><ele>1353.0</ele><time>2026-05-03T11:29:28.999Z</time></trkpt><trkpt lat="44.137249140923316" lon="7.965602957499521"><ele>1353.0</ele><time>2026-05-03T11:29:29.999Z</time></trkpt><trkpt lat="44.137342920493616" lon="7.965720818626136"><ele>1353.0</ele><time>2026-05-03T11:29:30.999Z</time></trkpt><trkpt lat="44.13742968890086" lon="7.965822052360971"><ele>1354.8000000000002</ele><time>2026-05-03T11:29:31.999Z</time></trkpt><trkpt lat="44.13749275632928" lon="7.9659354566854566"><ele>1356.6</ele><time>2026-05-03T11:29:32.999Z</time></trkpt><trkpt lat="44.13754641236745" lon="7.9660530830302045"><ele>1358.4</ele><time>2026-05-03T11:29:33.999Z</time></trkpt><trkpt lat="44.13761062531956" lon="7.9661718365579794"><ele>1360.1999999999998</ele><time>2026-05-03T11:29:34.999Z</time></trkpt><trkpt lat="44.137698060130425" lon="7.966272841842355"><ele>1362.0</ele><time>2026-05-03T11:29:35.999Z</time></trkpt><trkpt lat="44.1377743755544" lon="7.966331422465432"><ele>1362.0</ele><time>2026-05-03T11:29:36.999Z</time></trkpt><trkpt lat="44.137802780065535" lon="7.9664729973411434"><ele>1362.0</ele><time>2026-05-03T11:29:38.999Z</time></trkpt><trkpt lat="44.13775149786342" lon="7.96654503140243"><ele>1362.0</ele><time>2026-05-03T11:29:39.999Z</time></trkpt><trkpt lat="44.13767939037706" lon="7.966666168967147"><ele>1362.0</ele><time>2026-05-03T11:29:40.999Z</time></trkpt><trkpt lat="44.137588902892674" lon="7.96676931189703"><ele>1362.0</ele><time>2026-05-03T11:29:41.999Z</time></trkpt><trkpt lat="44.13751279762028" lon="7.966835977448072"><ele>1360.8</ele><time>2026-05-03T11:29:42.999Z</time></trkpt><trkpt lat="44.13744596303238" lon="7.966901277109489"><ele>1359.6</ele><time>2026-05-03T11:29:43.999Z</time></trkpt><trkpt lat="44.13738169029238" lon="7.967004938617529"><ele>1358.3999999999999</ele><time>2026-05-03T11:29:44.999Z</time></trkpt><trkpt lat="44.1373358199992" lon="7.967170257626885"><ele>1357.1999999999998</ele><time>2026-05-03T11:29:46Z</time></trkpt><trkpt lat="44.137302182312396" lon="7.967346409130862"><ele>1356.0</ele><time>2026-05-03T11:29:47Z</time></trkpt><trkpt lat="44.137267861437856" lon="7.967479612822456"><ele>1364.0</ele><time>2026-05-03T11:29:48Z</time></trkpt><trkpt lat="44.13724106619536" lon="7.967601487798732"><ele>1372.0</ele><time>2026-05-03T11:29:49Z</time></trkpt><trkpt lat="44.137183699300955" lon="7.9677093723221475"><ele>1380.0</ele><time>2026-05-03T11:29:50Z</time></trkpt><trkpt lat="44.137104273314804" lon="7.967830734838362"><ele>1388.0</ele><time>2026-05-03T11:29:51Z</time></trkpt><trkpt lat="44.13702924021202" lon="7.967944460789052"><ele>1396.0</ele><time>2026-05-03T11:29:52Z</time></trkpt><trkpt lat="44.13696193209334" lon="7.968054090102117"><ele>1396.0</ele><time>2026-05-03T11:29:53Z</time></trkpt><trkpt lat="44.13691698188511" lon="7.968156915142648"><ele>1396.0</ele><time>2026-05-03T11:29:54Z</time></trkpt><trkpt lat="44.13688381511586" lon="7.968259564117985"><ele>1396.0</ele><time>2026-05-03T11:29:55Z</time></trkpt><trkpt lat="44.13684946942999" lon="7.968366058842082"><ele>1396.0</ele><time>2026-05-03T11:29:56Z</time></trkpt><trkpt lat="44.136819978354964" lon="7.96849495284639"><ele>1396.0</ele><time>2026-05-03T11:29:57Z</time></trkpt><trkpt lat="44.136772761650725" lon="7.968619762923331"><ele>1396.0</ele><time>2026-05-03T11:29:58Z</time></trkpt><trkpt lat="44.13673967777609" lon="7.968742993739463"><ele>1395.0</ele><time>2026-05-03T11:29:59Z</time></trkpt><trkpt lat="44.13671914181867" lon="7.968880668018175"><ele>1394.0</ele><time>2026-05-03T11:30:00Z</time></trkpt><trkpt lat="44.13670441895309" lon="7.969008397379899"><ele>1393.0</ele><time>2026-05-03T11:30:01Z</time></trkpt><trkpt lat="44.13668469794486" lon="7.969153858630358"><ele>1392.0</ele><time>2026-05-03T11:30:02Z</time></trkpt><trkpt lat="44.136650670589" lon="7.969320578356749"><ele>1391.0</ele><time>2026-05-03T11:30:03Z</time></trkpt><trkpt lat="44.1366289959667" lon="7.969485640282887"><ele>1390.75</ele><time>2026-05-03T11:30:04Z</time></trkpt><trkpt lat="44.13661048538407" lon="7.969650620410414"><ele>1390.5</ele><time>2026-05-03T11:30:05Z</time></trkpt><trkpt lat="44.13659897262732" lon="7.9698295499806"><ele>1390.25</ele><time>2026-05-03T11:30:06Z</time></trkpt><trkpt lat="44.13660420910433" lon="7.970012088956276"><ele>1390.0</ele><time>2026-05-03T11:30:07Z</time></trkpt><trkpt lat="44.1366326714872" lon="7.970188163286038"><ele>1391.25</ele><time>2026-05-03T11:30:08Z</time></trkpt><trkpt lat="44.13666235349704" lon="7.970361282720839"><ele>1392.5</ele><time>2026-05-03T11:30:09Z</time></trkpt><trkpt lat="44.1366629385341" lon="7.970520076688035"><ele>1393.75</ele><time>2026-05-03T11:30:10Z</time></trkpt><trkpt lat="44.13663080350581" lon="7.970690615096129"><ele>1395.0</ele><time>2026-05-03T11:30:11Z</time></trkpt><trkpt lat="44.13658217015786" lon="7.970864939292441"><ele>1404.5</ele><time>2026-05-03T11:30:12Z</time></trkpt><trkpt lat="44.136548662537734" lon="7.971038215826476"><ele>1414.0</ele><time>2026-05-03T11:30:13Z</time></trkpt><trkpt lat="44.1365173173539" lon="7.971219292062425"><ele>1423.5</ele><time>2026-05-03T11:30:14Z</time></trkpt><trkpt lat="44.13648418848261" lon="7.971389355719131"><ele>1433.0</ele><time>2026-05-03T11:30:15Z</time></trkpt><trkpt lat="44.13644494139348" lon="7.971542699647022"><ele>1430.2</ele><time>2026-05-03T11:30:16Z</time></trkpt><trkpt lat="44.13639235719584" lon="7.971690669920206"><ele>1427.4</ele><time>2026-05-03T11:30:17Z</time></trkpt><trkpt lat="44.13633708103423" lon="7.971840885787224"><ele>1424.6000000000001</ele><time>2026-05-03T11:30:18Z</time></trkpt><trkpt lat="44.136282626637175" lon="7.971978138186576"><ele>1421.8000000000002</ele><time>2026-05-03T11:30:19Z</time></trkpt><trkpt lat="44.13623016951514" lon="7.972083271471481"><ele>1419.0</ele><time>2026-05-03T11:30:20Z</time></trkpt><trkpt lat="44.13616118666336" lon="7.972175896310812"><ele>1419.0</ele><time>2026-05-03T11:30:21Z</time></trkpt><trkpt lat="44.13607243652139" lon="7.972278900310285"><ele>1419.0</ele><time>2026-05-03T11:30:22Z</time></trkpt><trkpt lat="44.135983919269925" lon="7.9723822164098115"><ele>1419.0</ele><time>2026-05-03T11:30:23Z</time></trkpt><trkpt lat="44.13589498919733" lon="7.972500381770399"><ele>1419.0</ele><time>2026-05-03T11:30:24Z</time></trkpt><trkpt lat="44.13581732246068" lon="7.972633947999453"><ele>1417.4</ele><time>2026-05-03T11:30:25Z</time></trkpt><trkpt lat="44.13573244323644" lon="7.97274974852731"><ele>1415.8000000000002</ele><time>2026-05-03T11:30:26Z</time></trkpt><trkpt lat="44.135671900922134" lon="7.972852577332669"><ele>1414.1999999999998</ele><time>2026-05-03T11:30:27Z</time></trkpt><trkpt lat="44.135609209181695" lon="7.9729739823603145"><ele>1412.6</ele><time>2026-05-03T11:30:28Z</time></trkpt><trkpt lat="44.135562690293106" lon="7.973119592848605"><ele>1411.0</ele><time>2026-05-03T11:30:29Z</time></trkpt><trkpt lat="44.135496653941786" lon="7.973234230471548"><ele>1415.0</ele><time>2026-05-03T11:30:30Z</time></trkpt><trkpt lat="44.13542900208518" lon="7.973353707889847"><ele>1419.0</ele><time>2026-05-03T11:30:31Z</time></trkpt><trkpt lat="44.1353632747946" lon="7.973451072633762"><ele>1423.0</ele><time>2026-05-03T11:30:32Z</time></trkpt><trkpt lat="44.13530755230091" lon="7.973578611532348"><ele>1427.0</ele><time>2026-05-03T11:30:33Z</time></trkpt><trkpt lat="44.13526333164418" lon="7.973723267334423"><ele>1431.0</ele><time>2026-05-03T11:30:34Z</time></trkpt><trkpt lat="44.135229192655814" lon="7.973851304719832"><ele>1431.0</ele><time>2026-05-03T11:30:35Z</time></trkpt><trkpt lat="44.135181528377665" lon="7.973951629410948"><ele>1431.0</ele><time>2026-05-03T11:30:36Z</time></trkpt><trkpt lat="44.1351369661119" lon="7.974023755054796"><ele>1431.0</ele><time>2026-05-03T11:30:37Z</time></trkpt><trkpt lat="44.13506969560473" lon="7.974080755643311"><ele>1431.0</ele><time>2026-05-03T11:30:39Z</time></trkpt><trkpt lat="44.135012326933534" lon="7.9739776500937944"><ele>1431.0</ele><time>2026-05-03T11:30:41Z</time></trkpt><trkpt lat="44.13504441772041" lon="7.973858778010683"><ele>1431.0</ele><time>2026-05-03T11:30:41.999Z</time></trkpt><trkpt lat="44.13508146387027" lon="7.973705996614115"><ele>1431.0</ele><time>2026-05-03T11:30:42.999Z</time></trkpt><trkpt lat="44.135105789327774" lon="7.973511148560454"><ele>1431.0</ele><time>2026-05-03T11:30:43.999Z</time></trkpt><trkpt lat="44.135129612999876" lon="7.973361156661966"><ele>1431.0</ele><time>2026-05-03T11:30:44.999Z</time></trkpt><trkpt lat="44.13512846665419" lon="7.973209443634306"><ele>1431.0</ele><time>2026-05-03T11:30:45.999Z</time></trkpt><trkpt lat="44.13510905834427" lon="7.973028282095024"><ele>1433.25</ele><time>2026-05-03T11:30:46.999Z</time></trkpt><trkpt lat="44.135112066360776" lon="7.972871105074768"><ele>1435.5</ele><time>2026-05-03T11:30:47.999Z</time></trkpt><trkpt lat="44.1351528480579" lon="7.972721111174293"><ele>1437.75</ele><time>2026-05-03T11:30:48.999Z</time></trkpt><trkpt lat="44.13520900754608" lon="7.972556002458051"><ele>1440.0</ele><time>2026-05-03T11:30:49.999Z</time></trkpt><trkpt lat="44.13526072689938" lon="7.9723878490139795"><ele>1442.6</ele><time>2026-05-03T11:30:50.999Z</time></trkpt><trkpt lat="44.13530462907522" lon="7.972248191118132"><ele>1445.2</ele><time>2026-05-03T11:30:51.999Z</time></trkpt><trkpt lat="44.13535026732857" lon="7.972137219131078"><ele>1447.8000000000002</ele><time>2026-05-03T11:30:52.999Z</time></trkpt><trkpt lat="44.13539007571782" lon="7.9720356650732755"><ele>1450.4</ele><time>2026-05-03T11:30:53.999Z</time></trkpt><trkpt lat="44.135448130432636" lon="7.971918209226839"><ele>1453.0</ele><time>2026-05-03T11:30:54.999Z</time></trkpt><trkpt lat="44.135486979810466" lon="7.971795079408088"><ele>1455.0</ele><time>2026-05-03T11:30:55.999Z</time></trkpt><trkpt lat="44.13552648532503" lon="7.971640398273386"><ele>1457.0</ele><time>2026-05-03T11:30:56.999Z</time></trkpt><trkpt lat="44.135554482607496" lon="7.971451971327683"><ele>1459.0</ele><time>2026-05-03T11:30:57.999Z</time></trkpt><trkpt lat="44.135575427645904" lon="7.971270076195222"><ele>1461.0</ele><time>2026-05-03T11:30:58.999Z</time></trkpt><trkpt lat="44.13556700735227" lon="7.971089734409196"><ele>1461.0</ele><time>2026-05-03T11:30:59.999Z</time></trkpt><trkpt lat="44.13555049463591" lon="7.970890159324563"><ele>1461.0</ele><time>2026-05-03T11:31:00.999Z</time></trkpt><trkpt lat="44.135542340255554" lon="7.9706830453740025"><ele>1461.0</ele><time>2026-05-03T11:31:01.999Z</time></trkpt><trkpt lat="44.13552838261671" lon="7.970480466169718"><ele>1461.0</ele><time>2026-05-03T11:31:02.999Z</time></trkpt><trkpt lat="44.135503784971064" lon="7.97026131158972"><ele>1462.25</ele><time>2026-05-03T11:31:03.999Z</time></trkpt><trkpt lat="44.13546574266755" lon="7.970057969229807"><ele>1463.5</ele><time>2026-05-03T11:31:04.999Z</time></trkpt><trkpt lat="44.13544378686094" lon="7.9698610378733274"><ele>1464.75</ele><time>2026-05-03T11:31:05.999Z</time></trkpt><trkpt lat="44.13543892041303" lon="7.969681633546347"><ele>1466.0</ele><time>2026-05-03T11:31:06.999Z</time></trkpt><trkpt lat="44.13545348543563" lon="7.969514713627156"><ele>1466.5</ele><time>2026-05-03T11:31:07.999Z</time></trkpt><trkpt lat="44.13549774698291" lon="7.969350165569255"><ele>1467.0</ele><time>2026-05-03T11:31:08.999Z</time></trkpt><trkpt lat="44.1355401276215" lon="7.969178245673959"><ele>1467.5</ele><time>2026-05-03T11:31:09.999Z</time></trkpt><trkpt lat="44.135561526870596" lon="7.969024916577774"><ele>1468.0</ele><time>2026-05-03T11:31:10.999Z</time></trkpt><trkpt lat="44.13558416798941" lon="7.9688769178941445"><ele>1468.0</ele><time>2026-05-03T11:31:11.999Z</time></trkpt><trkpt lat="44.13558820905359" lon="7.968709650637993"><ele>1468.0</ele><time>2026-05-03T11:31:12.999Z</time></trkpt><trkpt lat="44.13560180484702" lon="7.968522058859232"><ele>1468.0</ele><time>2026-05-03T11:31:13.999Z</time></trkpt><trkpt lat="44.13562681184459" lon="7.968329236724424"><ele>1468.0</ele><time>2026-05-03T11:31:14.999Z</time></trkpt><trkpt lat="44.13566579933828" lon="7.9681370417738"><ele>1467.8000000000002</ele><time>2026-05-03T11:31:15.999Z</time></trkpt><trkpt lat="44.13568430434446" lon="7.967959083138098"><ele>1467.6</ele><time>2026-05-03T11:31:16.999Z</time></trkpt><trkpt lat="44.13570329716767" lon="7.967814769116432"><ele>1467.4</ele><time>2026-05-03T11:31:17.999Z</time></trkpt><trkpt lat="44.1357190610142" lon="7.9676841479994565"><ele>1467.1999999999998</ele><time>2026-05-03T11:31:18.999Z</time></trkpt><trkpt lat="44.13571184579707" lon="7.967582827776238"><ele>1467.0</ele><time>2026-05-03T11:31:19.999Z</time></trkpt><trkpt lat="44.13567063041441" lon="7.967496155607902"><ele>1464.6</ele><time>2026-05-03T11:31:20.999Z</time></trkpt><trkpt lat="44.135599063221115" lon="7.967451914301019"><ele>1462.1999999999998</ele><time>2026-05-03T11:31:21.999Z</time></trkpt><trkpt lat="44.13546906878142" lon="7.967412221139155"><ele>1459.8</ele><time>2026-05-03T11:31:22.999Z</time></trkpt><trkpt lat="44.13535560904959" lon="7.96737420711152"><ele>1457.4</ele><time>2026-05-03T11:31:23.999Z</time></trkpt><trkpt lat="44.13527358594315" lon="7.967341589426362"><ele>1455.0</ele><time>2026-05-03T11:31:24.999Z</time></trkpt><trkpt lat="44.13519624145729" lon="7.967361698648799"><ele>1455.0</ele><time>2026-05-03T11:31:25.999Z</time></trkpt><trkpt lat="44.13511702768377" lon="7.967395455819159"><ele>1455.0</ele><time>2026-05-03T11:31:26.999Z</time></trkpt><trkpt lat="44.13503844388637" lon="7.967437990368409"><ele>1455.0</ele><time>2026-05-03T11:31:27.999Z</time></trkpt><trkpt lat="44.13496641752205" lon="7.967478861154387"><ele>1455.0</ele><time>2026-05-03T11:31:28.999Z</time></trkpt><trkpt lat="44.13490018187387" lon="7.967531137421673"><ele>1455.0</ele><time>2026-05-03T11:31:29.999Z</time></trkpt><trkpt lat="44.134817168490436" lon="7.967527240766583"><ele>1455.0</ele><time>2026-05-03T11:31:30.999Z</time></trkpt><trkpt lat="44.13474112607397" lon="7.967484524357449"><ele>1455.0</ele><time>2026-05-03T11:31:31.999Z</time></trkpt><trkpt lat="44.134675430725245" lon="7.967412994400502"><ele>1455.0</ele><time>2026-05-03T11:31:32.999Z</time></trkpt><trkpt lat="44.134615798011716" lon="7.9672971247261115"><ele>1455.0</ele><time>2026-05-03T11:31:33.999Z</time></trkpt><trkpt lat="44.134542233268306" lon="7.967144128558704"><ele>1455.0</ele><time>2026-05-03T11:31:34.999Z</time></trkpt><trkpt lat="44.13448511081987" lon="7.96704166037088"><ele>1455.0</ele><time>2026-05-03T11:31:35.999Z</time></trkpt><trkpt lat="44.13443513192156" lon="7.966969150503388"><ele>1455.0</ele><time>2026-05-03T11:31:36.999Z</time></trkpt><trkpt lat="44.13438458550266" lon="7.966905322649707"><ele>1455.0</ele><time>2026-05-03T11:31:37.999Z</time></trkpt><trkpt lat="44.13432489670101" lon="7.96685816718868"><ele>1455.0</ele><time>2026-05-03T11:31:38.999Z</time></trkpt><trkpt lat="44.13424903532475" lon="7.9668221813013265"><ele>1455.0</ele><time>2026-05-03T11:31:39.999Z</time></trkpt><trkpt lat="44.13416490790133" lon="7.966799522650509"><ele>1455.0</ele><time>2026-05-03T11:31:40.999Z</time></trkpt><trkpt lat="44.13407818214245" lon="7.966794330508694"><ele>1455.0</ele><time>2026-05-03T11:31:41.999Z</time></trkpt><trkpt lat="44.13399604297614" lon="7.966807113687966"><ele>1452.3333333333333</ele><time>2026-05-03T11:31:42.999Z</time></trkpt><trkpt lat="44.133926618126445" lon="7.966817094929513"><ele>1449.6666666666667</ele><time>2026-05-03T11:31:43.999Z</time></trkpt><trkpt lat="44.13386212744984" lon="7.966802417138709"><ele>1447.0</ele><time>2026-05-03T11:31:44.999Z</time></trkpt><trkpt lat="44.13375678748839" lon="7.96673313126842"><ele>1444.3333333333335</ele><time>2026-05-03T11:31:46.999Z</time></trkpt><trkpt lat="44.13366948252815" lon="7.966672833824679"><ele>1441.6666666666667</ele><time>2026-05-03T11:31:48.999Z</time></trkpt><trkpt lat="44.13360341173405" lon="7.966639200759965"><ele>1439.0</ele><time>2026-05-03T11:31:50.999Z</time></trkpt><trkpt lat="44.13353023443982" lon="7.9665746499850805"><ele>1439.0</ele><time>2026-05-03T11:31:54Z</time></trkpt><trkpt lat="44.13345644660058" lon="7.966506283642037"><ele>1439.0</ele><time>2026-05-03T11:31:58Z</time></trkpt><trkpt lat="44.13340779755283" lon="7.966433603578656"><ele>1439.0</ele><time>2026-05-03T11:33:34.999Z</time></trkpt><trkpt lat="44.13337485393463" lon="7.9665357093695555"><ele>1439.0</ele><time>2026-05-03T11:35:04.999Z</time></trkpt><trkpt lat="44.13343316642595" lon="7.966475810143974"><ele>1439.0</ele><time>2026-05-03T11:35:49.999Z</time></trkpt><trkpt lat="44.13347772201594" lon="7.966580273710715"><ele>1439.0</ele><time>2026-05-03T11:36:29Z</time></trkpt><trkpt lat="44.13347235705691" lon="7.96649141362048"><ele>1439.0</ele><time>2026-05-03T11:37:02.999Z</time></trkpt><trkpt lat="44.13340595516938" lon="7.966461357059428"><ele>1439.0</ele><time>2026-05-03T11:47:23Z</time></trkpt><trkpt lat="44.13340744047519" lon="7.966350361366794"><ele>1439.0</ele><time>2026-05-03T11:51:03Z</time></trkpt><trkpt lat="44.13330288092736" lon="7.966252473980042"><ele>1439.0</ele><time>2026-05-03T11:51:05Z</time></trkpt><trkpt lat="44.13322225929014" lon="7.966208533230643"><ele>1439.0</ele><time>2026-05-03T11:51:06Z</time></trkpt><trkpt lat="44.13314582709686" lon="7.966188416183898"><ele>1439.0</ele><time>2026-05-03T11:51:07Z</time></trkpt><trkpt lat="44.133091721341046" lon="7.966115997474868"><ele>1439.6</ele><time>2026-05-03T11:51:08Z</time></trkpt><trkpt lat="44.133073912666106" lon="7.965958151461816"><ele>1440.2</ele><time>2026-05-03T11:51:10Z</time></trkpt><trkpt lat="44.13306963709043" lon="7.965823395655204"><ele>1440.8</ele><time>2026-05-03T11:51:11Z</time></trkpt><trkpt lat="44.13303476432824" lon="7.965725109450807"><ele>1441.3999999999999</ele><time>2026-05-03T11:51:12Z</time></trkpt><trkpt lat="44.13298804360381" lon="7.965642182679254"><ele>1442.0</ele><time>2026-05-03T11:51:13Z</time></trkpt><trkpt lat="44.132896282156906" lon="7.965506838812277"><ele>1442.0</ele><time>2026-05-03T11:51:15Z</time></trkpt><trkpt lat="44.13283270794329" lon="7.9654443472658905"><ele>1442.0</ele><time>2026-05-03T11:51:16Z</time></trkpt><trkpt lat="44.1327339654301" lon="7.965424799515961"><ele>1442.0</ele><time>2026-05-03T11:51:17Z</time></trkpt><trkpt lat="44.13264842997169" lon="7.965427025562252"><ele>1442.0</ele><time>2026-05-03T11:51:18Z</time></trkpt><trkpt lat="44.132554322898294" lon="7.965428287892389"><ele>1442.0</ele><time>2026-05-03T11:51:19Z</time></trkpt><trkpt lat="44.13243693203478" lon="7.9654282878936185"><ele>1441.3999999999999</ele><time>2026-05-03T11:51:20Z</time></trkpt><trkpt lat="44.132323994026365" lon="7.965442421346074"><ele>1440.8</ele><time>2026-05-03T11:51:21Z</time></trkpt><trkpt lat="44.132236516827966" lon="7.965456829932146"><ele>1440.2</ele><time>2026-05-03T11:51:22Z</time></trkpt><trkpt lat="44.13215392189388" lon="7.965466907127214"><ele>1439.6</ele><time>2026-05-03T11:51:23Z</time></trkpt><trkpt lat="44.13206533476898" lon="7.965462063207902"><ele>1439.0</ele><time>2026-05-03T11:51:24Z</time></trkpt><trkpt lat="44.13197504378968" lon="7.965451820583153"><ele>1439.0</ele><time>2026-05-03T11:51:25Z</time></trkpt><trkpt lat="44.13188481178714" lon="7.965442084377138"><ele>1439.0</ele><time>2026-05-03T11:51:26Z</time></trkpt><trkpt lat="44.13181433228307" lon="7.965427918913526"><ele>1439.0</ele><time>2026-05-03T11:51:27Z</time></trkpt><trkpt lat="44.131749734277335" lon="7.965396176270844"><ele>1439.0</ele><time>2026-05-03T11:51:28Z</time></trkpt><trkpt lat="44.131675425836555" lon="7.965308698172313"><ele>1439.0</ele><time>2026-05-03T11:51:30Z</time></trkpt><trkpt lat="44.13162912621305" lon="7.965230733768281"><ele>1439.0</ele><time>2026-05-03T11:51:32Z</time></trkpt><trkpt lat="44.13161230516088" lon="7.965136925768273"><ele>1439.6666666666667</ele><time>2026-05-03T11:51:34Z</time></trkpt><trkpt lat="44.13156626594775" lon="7.965010441821145"><ele>1440.3333333333335</ele><time>2026-05-03T11:51:36Z</time></trkpt><trkpt lat="44.13158751726159" lon="7.9648969486614565"><ele>1441.0</ele><time>2026-05-03T11:51:37Z</time></trkpt><trkpt lat="44.13155197456984" lon="7.96480313731246"><ele>1441.6666666666667</ele><time>2026-05-03T11:51:38Z</time></trkpt><trkpt lat="44.1314990868315" lon="7.964727288247317"><ele>1442.3333333333333</ele><time>2026-05-03T11:51:39Z</time></trkpt><trkpt lat="44.13141378581097" lon="7.964699952136988"><ele>1443.0</ele><time>2026-05-03T11:51:40Z</time></trkpt><trkpt lat="44.1313233309284" lon="7.964658312025662"><ele>1443.0</ele><time>2026-05-03T11:51:41Z</time></trkpt><trkpt lat="44.131232923916215" lon="7.964627710730236"><ele>1443.0</ele><time>2026-05-03T11:51:42Z</time></trkpt><trkpt lat="44.13113132879533" lon="7.964592950785476"><ele>1443.0</ele><time>2026-05-03T11:51:43Z</time></trkpt><trkpt lat="44.13101781451634" lon="7.964553785243326"><ele>1443.0</ele><time>2026-05-03T11:51:44Z</time></trkpt><trkpt lat="44.13089691309917" lon="7.964516602051208"><ele>1443.0</ele><time>2026-05-03T11:51:45Z</time></trkpt><trkpt lat="44.13077287655707" lon="7.964494397101324"><ele>1442.0</ele><time>2026-05-03T11:51:46Z</time></trkpt><trkpt lat="44.13065649473104" lon="7.964477035213402"><ele>1441.0</ele><time>2026-05-03T11:51:46.999Z</time></trkpt><trkpt lat="44.13053397917967" lon="7.964452015742717"><ele>1440.0</ele><time>2026-05-03T11:51:47.999Z</time></trkpt><trkpt lat="44.13042639683038" lon="7.964416369073134"><ele>1439.0</ele><time>2026-05-03T11:51:48.999Z</time></trkpt><trkpt lat="44.1303198761803" lon="7.9643671243288"><ele>1439.0</ele><time>2026-05-03T11:51:49.999Z</time></trkpt><trkpt lat="44.130203480738615" lon="7.964317257064871"><ele>1439.0</ele><time>2026-05-03T11:51:50.999Z</time></trkpt><trkpt lat="44.130085861015516" lon="7.964311349601533"><ele>1439.0</ele><time>2026-05-03T11:51:51.999Z</time></trkpt><trkpt lat="44.12997741658855" lon="7.96431073748871"><ele>1439.0</ele><time>2026-05-03T11:51:52.999Z</time></trkpt><trkpt lat="44.129873982522554" lon="7.964283293828064"><ele>1438.6</ele><time>2026-05-03T11:51:53.999Z</time></trkpt><trkpt lat="44.12976934433275" lon="7.964238568230805"><ele>1438.2</ele><time>2026-05-03T11:51:54.999Z</time></trkpt><trkpt lat="44.12966164910206" lon="7.964196589667504"><ele>1437.8</ele><time>2026-05-03T11:51:55.999Z</time></trkpt><trkpt lat="44.12955044341308" lon="7.964186481290129"><ele>1437.3999999999999</ele><time>2026-05-03T11:51:56.999Z</time></trkpt><trkpt lat="44.12944290427536" lon="7.964209846495323"><ele>1437.0</ele><time>2026-05-03T11:51:57.999Z</time></trkpt><trkpt lat="44.12933640614194" lon="7.964194287941532"><ele>1440.6</ele><time>2026-05-03T11:51:58.999Z</time></trkpt><trkpt lat="44.129226737492374" lon="7.964174719340914"><ele>1444.1999999999998</ele><time>2026-05-03T11:51:59.999Z</time></trkpt><trkpt lat="44.12911419528407" lon="7.964152830395477"><ele>1447.8</ele><time>2026-05-03T11:52:00.999Z</time></trkpt><trkpt lat="44.12899814601706" lon="7.964139917348705"><ele>1451.4</ele><time>2026-05-03T11:52:01.999Z</time></trkpt><trkpt lat="44.12889985307199" lon="7.964119395405818"><ele>1455.0</ele><time>2026-05-03T11:52:02.999Z</time></trkpt><trkpt lat="44.12881510984458" lon="7.964089325392057"><ele>1455.0</ele><time>2026-05-03T11:52:03.999Z</time></trkpt><trkpt lat="44.128723525134625" lon="7.964047815065542"><ele>1455.0</ele><time>2026-05-03T11:52:04.999Z</time></trkpt><trkpt lat="44.128636052085525" lon="7.964000915848788"><ele>1455.0</ele><time>2026-05-03T11:52:05.999Z</time></trkpt><trkpt lat="44.128552679418874" lon="7.963941403768914"><ele>1455.0</ele><time>2026-05-03T11:52:06.999Z</time></trkpt><trkpt lat="44.12846861101836" lon="7.963876879467413"><ele>1455.0</ele><time>2026-05-03T11:52:07.999Z</time></trkpt><trkpt lat="44.128395250272995" lon="7.963812184016135"><ele>1455.0</ele><time>2026-05-03T11:52:08.999Z</time></trkpt><trkpt lat="44.12832737694849" lon="7.963746696170325"><ele>1455.0</ele><time>2026-05-03T11:52:09.999Z</time></trkpt><trkpt lat="44.128273039043435" lon="7.963692209408415"><ele>1455.0</ele><time>2026-05-03T11:52:10.999Z</time></trkpt><trkpt lat="44.12822631002955" lon="7.963578682337898"><ele>1455.0</ele><time>2026-05-03T11:52:12.999Z</time></trkpt><trkpt lat="44.12821069803767" lon="7.963423304819427"><ele>1455.0</ele><time>2026-05-03T11:52:14.999Z</time></trkpt><trkpt lat="44.12821179908246" lon="7.963328413430645"><ele>1455.0</ele><time>2026-05-03T11:52:15.999Z</time></trkpt><trkpt lat="44.12821675641958" lon="7.963213436365942"><ele>1454.6</ele><time>2026-05-03T11:52:16.999Z</time></trkpt><trkpt lat="44.128220578533686" lon="7.963090951896427"><ele>1454.2</ele><time>2026-05-03T11:52:17.999Z</time></trkpt><trkpt lat="44.12821827171181" lon="7.9629694607441355"><ele>1453.8000000000002</ele><time>2026-05-03T11:52:18.999Z</time></trkpt><trkpt lat="44.12819847162332" lon="7.962847175696924"><ele>1453.4</ele><time>2026-05-03T11:52:19.999Z</time></trkpt><trkpt lat="44.128165831447035" lon="7.962723336380956"><ele>1453.0</ele><time>2026-05-03T11:52:20.999Z</time></trkpt><trkpt lat="44.12811754706347" lon="7.962602802812195"><ele>1449.4</ele><time>2026-05-03T11:52:21.999Z</time></trkpt><trkpt lat="44.12806446921357" lon="7.962485589024427"><ele>1445.8000000000002</ele><time>2026-05-03T11:52:22.999Z</time></trkpt><trkpt lat="44.12801800412359" lon="7.962367632309457"><ele>1442.2</ele><time>2026-05-03T11:52:23.999Z</time></trkpt><trkpt lat="44.12799348341049" lon="7.962238174457305"><ele>1438.6</ele><time>2026-05-03T11:52:24.999Z</time></trkpt><trkpt lat="44.1279882991339" lon="7.962097869417462"><ele>1435.0</ele><time>2026-05-03T11:52:25.999Z</time></trkpt><trkpt lat="44.12798108000791" lon="7.961945773685565"><ele>1435.0</ele><time>2026-05-03T11:52:26.999Z</time></trkpt><trkpt lat="44.12797070551101" lon="7.961785993502034"><ele>1435.0</ele><time>2026-05-03T11:52:27.999Z</time></trkpt><trkpt lat="44.12794769100645" lon="7.961630261513919"><ele>1435.0</ele><time>2026-05-03T11:52:28.999Z</time></trkpt><trkpt lat="44.127900481940365" lon="7.961484895474949"><ele>1435.0</ele><time>2026-05-03T11:52:29.999Z</time></trkpt><trkpt lat="44.127844140370726" lon="7.961350358766192"><ele>1432.0</ele><time>2026-05-03T11:52:30.999Z</time></trkpt><trkpt lat="44.12779091042891" lon="7.961217153357017"><ele>1429.0</ele><time>2026-05-03T11:52:31.999Z</time></trkpt><trkpt lat="44.127742701957665" lon="7.961071758398029"><ele>1426.0</ele><time>2026-05-03T11:52:32.999Z</time></trkpt><trkpt lat="44.12770841836052" lon="7.960921768021099"><ele>1423.0</ele><time>2026-05-03T11:52:33.999Z</time></trkpt><trkpt lat="44.12769949816103" lon="7.960769840390749"><ele>1420.0</ele><time>2026-05-03T11:52:34.999Z</time></trkpt><trkpt lat="44.12768034335528" lon="7.960611200203183"><ele>1419.75</ele><time>2026-05-03T11:52:35.999Z</time></trkpt><trkpt lat="44.12765746280587" lon="7.960441690631246"><ele>1419.5</ele><time>2026-05-03T11:52:36.999Z</time></trkpt><trkpt lat="44.12761780644893" lon="7.960262915177389"><ele>1419.25</ele><time>2026-05-03T11:52:37.999Z</time></trkpt><trkpt lat="44.12758171467579" lon="7.960130611505292"><ele>1419.0</ele><time>2026-05-03T11:52:38.999Z</time></trkpt><trkpt lat="44.127547446420685" lon="7.959988822265892"><ele>1419.0</ele><time>2026-05-03T11:52:39.999Z</time></trkpt><trkpt lat="44.127523153435824" lon="7.959832181930951"><ele>1419.0</ele><time>2026-05-03T11:52:40.999Z</time></trkpt><trkpt lat="44.127492572753376" lon="7.959686662800045"><ele>1419.0</ele><time>2026-05-03T11:52:41.999Z</time></trkpt><trkpt lat="44.127427104698675" lon="7.9595728053693415"><ele>1419.0</ele><time>2026-05-03T11:52:42.999Z</time></trkpt><trkpt lat="44.127352968434266" lon="7.959471469969958"><ele>1419.0</ele><time>2026-05-03T11:52:43.999Z</time></trkpt><trkpt lat="44.12731111454057" lon="7.959351874332135"><ele>1413.0</ele><time>2026-05-03T11:52:44.999Z</time></trkpt><trkpt lat="44.127287011572804" lon="7.9592278014517195"><ele>1407.0</ele><time>2026-05-03T11:52:45.999Z</time></trkpt><trkpt lat="44.127262426735115" lon="7.959094012496015"><ele>1401.0</ele><time>2026-05-03T11:52:46.999Z</time></trkpt><trkpt lat="44.12725888298951" lon="7.958975815026764"><ele>1395.0</ele><time>2026-05-03T11:52:47.999Z</time></trkpt><trkpt lat="44.127262379088315" lon="7.958848911857122"><ele>1389.0</ele><time>2026-05-03T11:52:48.999Z</time></trkpt><trkpt lat="44.12727514275359" lon="7.958750529711025"><ele>1383.0</ele><time>2026-05-03T11:52:49.999Z</time></trkpt><trkpt lat="44.1273179845143" lon="7.958639489046955"><ele>1382.25</ele><time>2026-05-03T11:52:50.999Z</time></trkpt><trkpt lat="44.12738493997357" lon="7.958518874955241"><ele>1381.5</ele><time>2026-05-03T11:52:52Z</time></trkpt><trkpt lat="44.127468867656596" lon="7.95838120411523"><ele>1380.75</ele><time>2026-05-03T11:52:53Z</time></trkpt><trkpt lat="44.12754434800786" lon="7.958280501421276"><ele>1380.0</ele><time>2026-05-03T11:52:54Z</time></trkpt><trkpt lat="44.12761784309247" lon="7.958159683516683"><ele>1385.8</ele><time>2026-05-03T11:52:55Z</time></trkpt><trkpt lat="44.12768576924432" lon="7.958032610017994"><ele>1391.6</ele><time>2026-05-03T11:52:56Z</time></trkpt><trkpt lat="44.127755284157985" lon="7.957913513337279"><ele>1397.4</ele><time>2026-05-03T11:52:57Z</time></trkpt><trkpt lat="44.12783109789606" lon="7.957803566023403"><ele>1403.2</ele><time>2026-05-03T11:52:58Z</time></trkpt><trkpt lat="44.127912422301456" lon="7.957710790067094"><ele>1409.0</ele><time>2026-05-03T11:52:59Z</time></trkpt><trkpt lat="44.12799369284954" lon="7.957637958143987"><ele>1409.0</ele><time>2026-05-03T11:53:00Z</time></trkpt><trkpt lat="44.12807078090546" lon="7.957547453263996"><ele>1409.0</ele><time>2026-05-03T11:53:01Z</time></trkpt><trkpt lat="44.12813733103701" lon="7.9574442915850305"><ele>1409.0</ele><time>2026-05-03T11:53:02Z</time></trkpt><trkpt lat="44.12820642894544" lon="7.957333323946727"><ele>1409.0</ele><time>2026-05-03T11:53:03Z</time></trkpt><trkpt lat="44.12828580245751" lon="7.957224550842547"><ele>1409.0</ele><time>2026-05-03T11:53:04Z</time></trkpt><trkpt lat="44.128373012907524" lon="7.957119693621646"><ele>1409.4</ele><time>2026-05-03T11:53:05Z</time></trkpt><trkpt lat="44.128452431286235" lon="7.957019507135115"><ele>1409.8000000000002</ele><time>2026-05-03T11:53:06Z</time></trkpt><trkpt lat="44.128527249998015" lon="7.956927356426238"><ele>1410.1999999999998</ele><time>2026-05-03T11:53:07Z</time></trkpt><trkpt lat="44.12861013456717" lon="7.9568574585034755"><ele>1410.6</ele><time>2026-05-03T11:53:08Z</time></trkpt><trkpt lat="44.128705003422986" lon="7.956773730165999"><ele>1411.0</ele><time>2026-05-03T11:53:09Z</time></trkpt><trkpt lat="44.12880117577256" lon="7.956686362196853"><ele>1409.5</ele><time>2026-05-03T11:53:10Z</time></trkpt><trkpt lat="44.12890515724112" lon="7.9565857640470865"><ele>1408.0</ele><time>2026-05-03T11:53:11Z</time></trkpt><trkpt lat="44.12900902861297" lon="7.95648999593665"><ele>1406.5</ele><time>2026-05-03T11:53:12Z</time></trkpt><trkpt lat="44.129121711095664" lon="7.956415563113525"><ele>1405.0</ele><time>2026-05-03T11:53:13Z</time></trkpt><trkpt lat="44.129225290215196" lon="7.956337607817347"><ele>1405.0</ele><time>2026-05-03T11:53:14Z</time></trkpt><trkpt lat="44.12931905532162" lon="7.956258402306348"><ele>1405.0</ele><time>2026-05-03T11:53:15Z</time></trkpt><trkpt lat="44.12941004892998" lon="7.956158935443248"><ele>1405.0</ele><time>2026-05-03T11:53:16Z</time></trkpt><trkpt lat="44.129501977871186" lon="7.956064641595937"><ele>1405.0</ele><time>2026-05-03T11:53:17Z</time></trkpt><trkpt lat="44.129581336665794" lon="7.955957360662146"><ele>1404.4</ele><time>2026-05-03T11:53:18Z</time></trkpt><trkpt lat="44.129649841134146" lon="7.955858680183881"><ele>1403.8</ele><time>2026-05-03T11:53:19Z</time></trkpt><trkpt lat="44.1297241496462" lon="7.955775928083241"><ele>1403.1999999999998</ele><time>2026-05-03T11:53:20Z</time></trkpt><trkpt lat="44.12980146580312" lon="7.955697353989276"><ele>1402.6</ele><time>2026-05-03T11:53:21Z</time></trkpt><trkpt lat="44.129868121550636" lon="7.955633383771939"><ele>1402.0</ele><time>2026-05-03T11:53:22Z</time></trkpt><trkpt lat="44.12992877970453" lon="7.955480118639301"><ele>1397.0</ele><time>2026-05-03T11:53:24Z</time></trkpt><trkpt lat="44.12989085772357" lon="7.955387441244372"><ele>1392.0</ele><time>2026-05-03T11:53:25Z</time></trkpt><trkpt lat="44.12978487252131" lon="7.955275458347451"><ele>1387.0</ele><time>2026-05-03T11:53:26Z</time></trkpt><trkpt lat="44.129679960966335" lon="7.955179204264275"><ele>1382.0</ele><time>2026-05-03T11:53:27Z</time></trkpt><trkpt lat="44.12962390474055" lon="7.955081881404535"><ele>1377.0</ele><time>2026-05-03T11:53:28Z</time></trkpt><trkpt lat="44.12956941011103" lon="7.954978390239097"><ele>1376.0</ele><time>2026-05-03T11:53:29Z</time></trkpt><trkpt lat="44.129526919921936" lon="7.954850264106151"><ele>1375.0</ele><time>2026-05-03T11:53:30Z</time></trkpt><trkpt lat="44.129480239671814" lon="7.954768391613627"><ele>1374.0</ele><time>2026-05-03T11:53:31Z</time></trkpt><trkpt lat="44.129393497811634" lon="7.9546434744312835"><ele>1373.0</ele><time>2026-05-03T11:53:32Z</time></trkpt><trkpt lat="44.129305800937374" lon="7.954553593031441"><ele>1372.0</ele><time>2026-05-03T11:53:33Z</time></trkpt><trkpt lat="44.12922705573235" lon="7.954448166471902"><ele>1372.0</ele><time>2026-05-03T11:53:34Z</time></trkpt><trkpt lat="44.12916228698095" lon="7.954343344785119"><ele>1372.0</ele><time>2026-05-03T11:53:35Z</time></trkpt><trkpt lat="44.129099830775985" lon="7.954234805694771"><ele>1372.0</ele><time>2026-05-03T11:53:36Z</time></trkpt><trkpt lat="44.12903832790073" lon="7.95411367652324"><ele>1372.0</ele><time>2026-05-03T11:53:37Z</time></trkpt><trkpt lat="44.12897096930087" lon="7.953990403824178"><ele>1372.0</ele><time>2026-05-03T11:53:38Z</time></trkpt><trkpt lat="44.12889942194863" lon="7.95387393723445"><ele>1368.0</ele><time>2026-05-03T11:53:39Z</time></trkpt><trkpt lat="44.12882143323178" lon="7.953766783379412"><ele>1364.0</ele><time>2026-05-03T11:53:40Z</time></trkpt><trkpt lat="44.12874618350647" lon="7.953678176759089"><ele>1360.0</ele><time>2026-05-03T11:53:41Z</time></trkpt><trkpt lat="44.12864870415202" lon="7.953645481979219"><ele>1356.0</ele><time>2026-05-03T11:53:42Z</time></trkpt><trkpt lat="44.128548106396764" lon="7.953596334366994"><ele>1352.0</ele><time>2026-05-03T11:53:42.999Z</time></trkpt><trkpt lat="44.12845982861131" lon="7.9535138472192095"><ele>1352.0</ele><time>2026-05-03T11:53:43.999Z</time></trkpt><trkpt lat="44.12835678105274" lon="7.953444968250883"><ele>1352.0</ele><time>2026-05-03T11:53:44.999Z</time></trkpt><trkpt lat="44.12826111902652" lon="7.95338672166584"><ele>1352.0</ele><time>2026-05-03T11:53:45.999Z</time></trkpt><trkpt lat="44.12815773116954" lon="7.953330806438151"><ele>1352.0</ele><time>2026-05-03T11:53:46.999Z</time></trkpt><trkpt lat="44.128055550247566" lon="7.953287939179394"><ele>1352.0</ele><time>2026-05-03T11:53:47.999Z</time></trkpt><trkpt lat="44.12796749349904" lon="7.953238713143443"><ele>1351.6</ele><time>2026-05-03T11:53:48.999Z</time></trkpt><trkpt lat="44.127881483732764" lon="7.953170431030289"><ele>1351.1999999999998</ele><time>2026-05-03T11:53:49.999Z</time></trkpt><trkpt lat="44.12780331747912" lon="7.9530812604911985"><ele>1350.8</ele><time>2026-05-03T11:53:50.999Z</time></trkpt><trkpt lat="44.12773217150828" lon="7.95296938704334"><ele>1350.4</ele><time>2026-05-03T11:53:51.999Z</time></trkpt><trkpt lat="44.127665631507455" lon="7.952860425888814"><ele>1350.0</ele><time>2026-05-03T11:53:52.999Z</time></trkpt><trkpt lat="44.12761015172501" lon="7.952759377172362"><ele>1350.0</ele><time>2026-05-03T11:53:53.999Z</time></trkpt><trkpt lat="44.127557490750085" lon="7.952666725821229"><ele>1350.0</ele><time>2026-05-03T11:53:54.999Z</time></trkpt><trkpt lat="44.12750884238336" lon="7.952595169295751"><ele>1350.0</ele><time>2026-05-03T11:53:55.999Z</time></trkpt><trkpt lat="44.12745440433395" lon="7.952532132557862"><ele>1350.0</ele><time>2026-05-03T11:53:56.999Z</time></trkpt><trkpt lat="44.127366371019015" lon="7.952551088261902"><ele>1350.0</ele><time>2026-05-03T11:53:57.999Z</time></trkpt><trkpt lat="44.12727753517778" lon="7.952569066878804"><ele>1350.0</ele><time>2026-05-03T11:53:58.999Z</time></trkpt><trkpt lat="44.12718459193903" lon="7.952626979795256"><ele>1346.8333333333333</ele><time>2026-05-03T11:53:59.999Z</time></trkpt><trkpt lat="44.12709182122055" lon="7.952696932073136"><ele>1343.6666666666667</ele><time>2026-05-03T11:54:00.999Z</time></trkpt><trkpt lat="44.12700570366902" lon="7.95273373322117"><ele>1340.5</ele><time>2026-05-03T11:54:01.999Z</time></trkpt><trkpt lat="44.12692376091027" lon="7.952754719321575"><ele>1337.3333333333335</ele><time>2026-05-03T11:54:02.999Z</time></trkpt><trkpt lat="44.12684443059474" lon="7.952773625356687"><ele>1334.1666666666667</ele><time>2026-05-03T11:54:03.999Z</time></trkpt><trkpt lat="44.12676104677031" lon="7.952788253351653"><ele>1331.0</ele><time>2026-05-03T11:54:04.999Z</time></trkpt><trkpt lat="44.12668663903352" lon="7.952759689578015"><ele>1331.0</ele><time>2026-05-03T11:54:05.999Z</time></trkpt><trkpt lat="44.12663220737979" lon="7.952668191757382"><ele>1331.0</ele><time>2026-05-03T11:54:06.999Z</time></trkpt><trkpt lat="44.126576657694024" lon="7.9525777610730835"><ele>1331.0</ele><time>2026-05-03T11:54:07.999Z</time></trkpt><trkpt lat="44.12651162137414" lon="7.952470864294015"><ele>1331.0</ele><time>2026-05-03T11:54:08.999Z</time></trkpt><trkpt lat="44.126452022972245" lon="7.9523515489276635"><ele>1331.0</ele><time>2026-05-03T11:54:09.999Z</time></trkpt><trkpt lat="44.126395300923214" lon="7.952232506990913"><ele>1330.4</ele><time>2026-05-03T11:54:10.999Z</time></trkpt><trkpt lat="44.126343217037245" lon="7.952110248766602"><ele>1329.8</ele><time>2026-05-03T11:54:11.999Z</time></trkpt><trkpt lat="44.126289543486934" lon="7.9519757699082145"><ele>1329.2</ele><time>2026-05-03T11:54:12.999Z</time></trkpt><trkpt lat="44.12623649446891" lon="7.951846426698721"><ele>1328.6000000000001</ele><time>2026-05-03T11:54:13.999Z</time></trkpt><trkpt lat="44.1261835314878" lon="7.951721860535853"><ele>1328.0</ele><time>2026-05-03T11:54:14.999Z</time></trkpt><trkpt lat="44.12612666794158" lon="7.951601861423714"><ele>1328.0</ele><time>2026-05-03T11:54:15.999Z</time></trkpt><trkpt lat="44.12606487647578" lon="7.951477837959368"><ele>1328.0</ele><time>2026-05-03T11:54:16.999Z</time></trkpt><trkpt lat="44.12601324166962" lon="7.951368164305732"><ele>1328.0</ele><time>2026-05-03T11:54:17.999Z</time></trkpt><trkpt lat="44.125975456742914" lon="7.951262443070416"><ele>1328.0</ele><time>2026-05-03T11:54:18.999Z</time></trkpt><trkpt lat="44.125954802829625" lon="7.95114739613551"><ele>1328.0</ele><time>2026-05-03T11:54:19.999Z</time></trkpt><trkpt lat="44.125941275869906" lon="7.951010202902689"><ele>1329.0</ele><time>2026-05-03T11:54:20.999Z</time></trkpt><trkpt lat="44.12592754169716" lon="7.950874192503162"><ele>1330.0</ele><time>2026-05-03T11:54:21.999Z</time></trkpt><trkpt lat="44.12591335495799" lon="7.95073757129082"><ele>1331.0</ele><time>2026-05-03T11:54:22.999Z</time></trkpt><trkpt lat="44.12589194765069" lon="7.950597614680324"><ele>1332.0</ele><time>2026-05-03T11:54:23.999Z</time></trkpt><trkpt lat="44.125861231623745" lon="7.9504618011913095"><ele>1333.0</ele><time>2026-05-03T11:54:24.999Z</time></trkpt><trkpt lat="44.12582903656339" lon="7.95033665029224"><ele>1333.0</ele><time>2026-05-03T11:54:25.999Z</time></trkpt><trkpt lat="44.12580041705791" lon="7.9502088097636285"><ele>1333.0</ele><time>2026-05-03T11:54:26.999Z</time></trkpt><trkpt lat="44.12578617993421" lon="7.950080182583594"><ele>1333.0</ele><time>2026-05-03T11:54:27.999Z</time></trkpt><trkpt lat="44.12577535736151" lon="7.949950063023072"><ele>1333.0</ele><time>2026-05-03T11:54:28.999Z</time></trkpt><trkpt lat="44.12577200130475" lon="7.949816366611321"><ele>1333.0</ele><time>2026-05-03T11:54:29.999Z</time></trkpt><trkpt lat="44.12576874682114" lon="7.9496828105476185"><ele>1333.0</ele><time>2026-05-03T11:54:30.999Z</time></trkpt><trkpt lat="44.125764103624924" lon="7.949556960620954"><ele>1333.0</ele><time>2026-05-03T11:54:31.999Z</time></trkpt><trkpt lat="44.12575972170776" lon="7.94943819659344"><ele>1333.0</ele><time>2026-05-03T11:54:32.999Z</time></trkpt><trkpt lat="44.12576638272219" lon="7.949315069190613"><ele>1333.0</ele><time>2026-05-03T11:54:33.999Z</time></trkpt><trkpt lat="44.12578160378316" lon="7.949193707416512"><ele>1333.0</ele><time>2026-05-03T11:54:34.999Z</time></trkpt><trkpt lat="44.12580275772836" lon="7.94906129986406"><ele>1331.8000000000002</ele><time>2026-05-03T11:54:35.999Z</time></trkpt><trkpt lat="44.12581333695711" lon="7.948917370313287"><ele>1330.6</ele><time>2026-05-03T11:54:36.999Z</time></trkpt><trkpt lat="44.12581619404942" lon="7.948770879732845"><ele>1329.4</ele><time>2026-05-03T11:54:37.999Z</time></trkpt><trkpt lat="44.125819314404104" lon="7.948635307855802"><ele>1328.1999999999998</ele><time>2026-05-03T11:54:38.999Z</time></trkpt><trkpt lat="44.12583341605956" lon="7.94850457905207"><ele>1327.0</ele><time>2026-05-03T11:54:39.999Z</time></trkpt><trkpt lat="44.12585852503294" lon="7.948378037051912"><ele>1325.8</ele><time>2026-05-03T11:54:40.999Z</time></trkpt><trkpt lat="44.125889270924695" lon="7.94824313766594"><ele>1324.6</ele><time>2026-05-03T11:54:41.999Z</time></trkpt><trkpt lat="44.125920638600704" lon="7.94810951053279"><ele>1323.3999999999999</ele><time>2026-05-03T11:54:42.999Z</time></trkpt><trkpt lat="44.12594861306232" lon="7.947974557041106"><ele>1322.1999999999998</ele><time>2026-05-03T11:54:43.999Z</time></trkpt><trkpt lat="44.125972783197646" lon="7.9478333720625765"><ele>1321.0</ele><time>2026-05-03T11:54:44.999Z</time></trkpt><trkpt lat="44.12598597032533" lon="7.947677971501216"><ele>1320.1999999999998</ele><time>2026-05-03T11:54:45.999Z</time></trkpt><trkpt lat="44.125996230468196" lon="7.947529562196711"><ele>1319.3999999999999</ele><time>2026-05-03T11:54:46.999Z</time></trkpt><trkpt lat="44.12600894457129" lon="7.947384519233708"><ele>1318.6</ele><time>2026-05-03T11:54:47.999Z</time></trkpt><trkpt lat="44.12602109947869" lon="7.947256068307954"><ele>1317.8</ele><time>2026-05-03T11:54:48.999Z</time></trkpt><trkpt lat="44.126042844340446" lon="7.947105749937201"><ele>1317.0</ele><time>2026-05-03T11:54:49.999Z</time></trkpt><trkpt lat="44.126056149985416" lon="7.94697650353704"><ele>1317.0</ele><time>2026-05-03T11:54:50.999Z</time></trkpt><trkpt lat="44.12607832992183" lon="7.946877527215891"><ele>1317.0</ele><time>2026-05-03T11:54:51.999Z</time></trkpt><trkpt lat="44.12608184601098" lon="7.946785608945692"><ele>1317.0</ele><time>2026-05-03T11:54:52.999Z</time></trkpt><trkpt lat="44.126033204549046" lon="7.946686741175063"><ele>1317.0</ele><time>2026-05-03T11:54:53.999Z</time></trkpt><trkpt lat="44.125966104115605" lon="7.946614929492121"><ele>1317.0</ele><time>2026-05-03T11:54:54.999Z</time></trkpt><trkpt lat="44.12584697880124" lon="7.946625697624314"><ele>1317.0</ele><time>2026-05-03T11:54:55.999Z</time></trkpt><trkpt lat="44.125750438124264" lon="7.946639583707194"><ele>1318.3999999999999</ele><time>2026-05-03T11:54:56.999Z</time></trkpt><trkpt lat="44.12567718941134" lon="7.94667921206456"><ele>1319.8</ele><time>2026-05-03T11:54:58Z</time></trkpt><trkpt lat="44.125622473923336" lon="7.946762530409019"><ele>1321.2</ele><time>2026-05-03T11:54:59Z</time></trkpt><trkpt lat="44.125604034124436" lon="7.9469141581335805"><ele>1322.6</ele><time>2026-05-03T11:55:00Z</time></trkpt><trkpt lat="44.12553875319039" lon="7.947021523430133"><ele>1324.0</ele><time>2026-05-03T11:55:01Z</time></trkpt><trkpt lat="44.12545884816962" lon="7.9470994332522915"><ele>1324.0</ele><time>2026-05-03T11:55:02Z</time></trkpt><trkpt lat="44.12537616476079" lon="7.947192218589351"><ele>1324.0</ele><time>2026-05-03T11:55:03Z</time></trkpt><trkpt lat="44.12530280443092" lon="7.947307979999125"><ele>1324.0</ele><time>2026-05-03T11:55:04Z</time></trkpt><trkpt lat="44.125221289572075" lon="7.947420411841778"><ele>1324.0</ele><time>2026-05-03T11:55:05Z</time></trkpt><trkpt lat="44.12515124034849" lon="7.947541884515283"><ele>1324.0</ele><time>2026-05-03T11:55:06Z</time></trkpt><trkpt lat="44.12508612280905" lon="7.947647385615602"><ele>1320.8000000000002</ele><time>2026-05-03T11:55:07Z</time></trkpt><trkpt lat="44.12500087116644" lon="7.947724940019457"><ele>1317.6000000000001</ele><time>2026-05-03T11:55:08Z</time></trkpt><trkpt lat="44.12490576506501" lon="7.947827692689925"><ele>1314.4</ele><time>2026-05-03T11:55:09Z</time></trkpt><trkpt lat="44.12481516853181" lon="7.947912287473039"><ele>1311.2</ele><time>2026-05-03T11:55:10Z</time></trkpt><trkpt lat="44.12471965507035" lon="7.947993767113668"><ele>1308.0</ele><time>2026-05-03T11:55:11Z</time></trkpt><trkpt lat="44.124626784599684" lon="7.9480874408593225"><ele>1308.0</ele><time>2026-05-03T11:55:12Z</time></trkpt><trkpt lat="44.124516968676275" lon="7.948135059552508"><ele>1308.0</ele><time>2026-05-03T11:55:13Z</time></trkpt><trkpt lat="44.12440858913302" lon="7.948197794755681"><ele>1308.0</ele><time>2026-05-03T11:55:14Z</time></trkpt><trkpt lat="44.12427990784661" lon="7.948274612849087"><ele>1308.0</ele><time>2026-05-03T11:55:15Z</time></trkpt><trkpt lat="44.124202585943095" lon="7.948340442617916"><ele>1308.0</ele><time>2026-05-03T11:55:16Z</time></trkpt><trkpt lat="44.12410672357201" lon="7.948366675819854"><ele>1308.0</ele><time>2026-05-03T11:55:17Z</time></trkpt><trkpt lat="44.12400182099819" lon="7.9483978731358915"><ele>1308.0</ele><time>2026-05-03T11:55:18Z</time></trkpt><trkpt lat="44.12389278092003" lon="7.948423048787302"><ele>1308.0</ele><time>2026-05-03T11:55:19Z</time></trkpt><trkpt lat="44.12378107777663" lon="7.948433119174708"><ele>1308.0</ele><time>2026-05-03T11:55:20Z</time></trkpt><trkpt lat="44.12367240139684" lon="7.948434310391419"><ele>1308.0</ele><time>2026-05-03T11:55:21Z</time></trkpt><trkpt lat="44.12356547348871" lon="7.9484215956323485"><ele>1308.0</ele><time>2026-05-03T11:55:22Z</time></trkpt><trkpt lat="44.1234675162996" lon="7.94842164705595"><ele>1308.0</ele><time>2026-05-03T11:55:23Z</time></trkpt><trkpt lat="44.12337541016893" lon="7.9483734700789945"><ele>1308.0</ele><time>2026-05-03T11:55:24Z</time></trkpt><trkpt lat="44.12327325904399" lon="7.948329905686002"><ele>1308.0</ele><time>2026-05-03T11:55:25Z</time></trkpt><trkpt lat="44.12316883472876" lon="7.94826739589711"><ele>1301.75</ele><time>2026-05-03T11:55:26Z</time></trkpt><trkpt lat="44.123064823538975" lon="7.948200532329836"><ele>1295.5</ele><time>2026-05-03T11:55:27Z</time></trkpt><trkpt lat="44.12294305148493" lon="7.9481191995617415"><ele>1289.25</ele><time>2026-05-03T11:55:28Z</time></trkpt><trkpt lat="44.12283881029522" lon="7.948067367064805"><ele>1283.0</ele><time>2026-05-03T11:55:29Z</time></trkpt><trkpt lat="44.12274849851732" lon="7.947967834649983"><ele>1283.0</ele><time>2026-05-03T11:55:30Z</time></trkpt><trkpt lat="44.122639860037886" lon="7.947899976070406"><ele>1283.0</ele><time>2026-05-03T11:55:31Z</time></trkpt><trkpt lat="44.122542305481275" lon="7.947848585129886"><ele>1283.0</ele><time>2026-05-03T11:55:32Z</time></trkpt><trkpt lat="44.12246647664307" lon="7.947781808847761"><ele>1283.0</ele><time>2026-05-03T11:55:33Z</time></trkpt><trkpt lat="44.12241276337194" lon="7.947706362188168"><ele>1283.0</ele><time>2026-05-03T11:55:34Z</time></trkpt><trkpt lat="44.12237243107245" lon="7.947605388589496"><ele>1279.8000000000002</ele><time>2026-05-03T11:55:35Z</time></trkpt><trkpt lat="44.12232705958076" lon="7.947477239227848"><ele>1276.6000000000001</ele><time>2026-05-03T11:55:36Z</time></trkpt><trkpt lat="44.12227523290125" lon="7.947365821382709"><ele>1273.4</ele><time>2026-05-03T11:55:37Z</time></trkpt><trkpt lat="44.122220433734874" lon="7.9472662926956"><ele>1270.2</ele><time>2026-05-03T11:55:38Z</time></trkpt><trkpt lat="44.12215397639242" lon="7.9471644796469105"><ele>1267.0</ele><time>2026-05-03T11:55:39Z</time></trkpt><trkpt lat="44.122094319825855" lon="7.9470319810031"><ele>1267.0</ele><time>2026-05-03T11:55:40Z</time></trkpt><trkpt lat="44.12202214945879" lon="7.946915485977371"><ele>1267.0</ele><time>2026-05-03T11:55:41Z</time></trkpt><trkpt lat="44.12192231990476" lon="7.946793342921634"><ele>1267.0</ele><time>2026-05-03T11:55:42Z</time></trkpt><trkpt lat="44.12184398242984" lon="7.946660977315031"><ele>1267.0</ele><time>2026-05-03T11:55:43Z</time></trkpt><trkpt lat="44.12175765662616" lon="7.946547287242425"><ele>1264.0</ele><time>2026-05-03T11:55:44Z</time></trkpt><trkpt lat="44.121660942224146" lon="7.946472952957"><ele>1261.0</ele><time>2026-05-03T11:55:45Z</time></trkpt><trkpt lat="44.121585006792124" lon="7.946369795697122"><ele>1258.0</ele><time>2026-05-03T11:55:46Z</time></trkpt><trkpt lat="44.121506205760326" lon="7.946267706708325"><ele>1255.0</ele><time>2026-05-03T11:55:47Z</time></trkpt><trkpt lat="44.12142732675873" lon="7.946144181321653"><ele>1252.0</ele><time>2026-05-03T11:55:48Z</time></trkpt><trkpt lat="44.12135616671466" lon="7.946023892773182"><ele>1252.0</ele><time>2026-05-03T11:55:49Z</time></trkpt><trkpt lat="44.12128492393607" lon="7.945900500506837"><ele>1252.0</ele><time>2026-05-03T11:55:50Z</time></trkpt><trkpt lat="44.121222415816064" lon="7.945789338815959"><ele>1252.0</ele><time>2026-05-03T11:55:51Z</time></trkpt><trkpt lat="44.12115866901742" lon="7.945668336184796"><ele>1252.0</ele><time>2026-05-03T11:55:52Z</time></trkpt><trkpt lat="44.121088592988556" lon="7.945544615018435"><ele>1252.0</ele><time>2026-05-03T11:55:53Z</time></trkpt><trkpt lat="44.12103526318758" lon="7.945399953093483"><ele>1255.0</ele><time>2026-05-03T11:55:54Z</time></trkpt><trkpt lat="44.121018812961836" lon="7.945280165020996"><ele>1258.0</ele><time>2026-05-03T11:55:54.999Z</time></trkpt><trkpt lat="44.120971532397874" lon="7.945142945388018"><ele>1261.0</ele><time>2026-05-03T11:55:55.999Z</time></trkpt><trkpt lat="44.120930966982584" lon="7.945013286687806"><ele>1264.0</ele><time>2026-05-03T11:55:56.999Z</time></trkpt><trkpt lat="44.12088800666572" lon="7.944882625739777"><ele>1267.0</ele><time>2026-05-03T11:55:57.999Z</time></trkpt><trkpt lat="44.12088456299117" lon="7.9447357690414355"><ele>1264.5</ele><time>2026-05-03T11:55:58.999Z</time></trkpt><trkpt lat="44.12084125095222" lon="7.944594155506938"><ele>1262.0</ele><time>2026-05-03T11:55:59.999Z</time></trkpt><trkpt lat="44.12075625776283" lon="7.9444535568781225"><ele>1259.5</ele><time>2026-05-03T11:56:00.999Z</time></trkpt><trkpt lat="44.120666017418834" lon="7.944297875725686"><ele>1257.0</ele><time>2026-05-03T11:56:01.999Z</time></trkpt><trkpt lat="44.120593265860215" lon="7.944168111797427"><ele>1257.0</ele><time>2026-05-03T11:56:02.999Z</time></trkpt><trkpt lat="44.12053807435144" lon="7.944059199522155"><ele>1257.0</ele><time>2026-05-03T11:56:03.999Z</time></trkpt><trkpt lat="44.12048924450204" lon="7.943953373722269"><ele>1257.0</ele><time>2026-05-03T11:56:04.999Z</time></trkpt><trkpt lat="44.120444668388004" lon="7.943814281515103"><ele>1257.0</ele><time>2026-05-03T11:56:05.999Z</time></trkpt><trkpt lat="44.12041004361053" lon="7.943670797361986"><ele>1257.0</ele><time>2026-05-03T11:56:06.999Z</time></trkpt><trkpt lat="44.12040105786804" lon="7.943542820524335"><ele>1257.0</ele><time>2026-05-03T11:56:07.999Z</time></trkpt><trkpt lat="44.12037475372924" lon="7.943407415658873"><ele>1257.0</ele><time>2026-05-03T11:56:08.999Z</time></trkpt><trkpt lat="44.12033465288319" lon="7.943263531344813"><ele>1257.0</ele><time>2026-05-03T11:56:09.999Z</time></trkpt><trkpt lat="44.1202849330511" lon="7.943140811536187"><ele>1257.0</ele><time>2026-05-03T11:56:10.999Z</time></trkpt><trkpt lat="44.12024134885046" lon="7.943014129066262"><ele>1257.0</ele><time>2026-05-03T11:56:11.999Z</time></trkpt><trkpt lat="44.12020121479337" lon="7.942869752526792"><ele>1258.4</ele><time>2026-05-03T11:56:12.999Z</time></trkpt><trkpt lat="44.12018304302558" lon="7.942735175219823"><ele>1259.8000000000002</ele><time>2026-05-03T11:56:13.999Z</time></trkpt><trkpt lat="44.120171468889325" lon="7.942589318751602"><ele>1261.2</ele><time>2026-05-03T11:56:14.999Z</time></trkpt><trkpt lat="44.1201453714883" lon="7.942434828502969"><ele>1262.6000000000001</ele><time>2026-05-03T11:56:15.999Z</time></trkpt><trkpt lat="44.12015175061025" lon="7.942282810871989"><ele>1264.0</ele><time>2026-05-03T11:56:16.999Z</time></trkpt><trkpt lat="44.12014116154153" lon="7.942122879105636"><ele>1266.0</ele><time>2026-05-03T11:56:17.999Z</time></trkpt><trkpt lat="44.12012460719577" lon="7.941957355718206"><ele>1268.0</ele><time>2026-05-03T11:56:18.999Z</time></trkpt><trkpt lat="44.12010754418399" lon="7.941816366936506"><ele>1270.0</ele><time>2026-05-03T11:56:19.999Z</time></trkpt><trkpt lat="44.12005634670513" lon="7.941659112840389"><ele>1272.0</ele><time>2026-05-03T11:56:20.999Z</time></trkpt><trkpt lat="44.12000729175964" lon="7.9415221585724005"><ele>1273.2</ele><time>2026-05-03T11:56:21.999Z</time></trkpt><trkpt lat="44.11997866945696" lon="7.941388238793269"><ele>1274.4</ele><time>2026-05-03T11:56:22.999Z</time></trkpt><trkpt lat="44.119964532910885" lon="7.941246836577118"><ele>1275.6</ele><time>2026-05-03T11:56:23.999Z</time></trkpt><trkpt lat="44.11997846825472" lon="7.941116093789005"><ele>1276.8</ele><time>2026-05-03T11:56:24.999Z</time></trkpt><trkpt lat="44.119983346149226" lon="7.94098323678495"><ele>1278.0</ele><time>2026-05-03T11:56:25.999Z</time></trkpt><trkpt lat="44.11996659610054" lon="7.940849564742807"><ele>1278.4</ele><time>2026-05-03T11:56:26.999Z</time></trkpt><trkpt lat="44.11991383960096" lon="7.940753772928212"><ele>1278.8</ele><time>2026-05-03T11:56:27.999Z</time></trkpt><trkpt lat="44.11987544497844" lon="7.9406261905813444"><ele>1279.2</ele><time>2026-05-03T11:56:28.999Z</time></trkpt><trkpt lat="44.11983054053612" lon="7.940522941300568"><ele>1279.6</ele><time>2026-05-03T11:56:29.999Z</time></trkpt><trkpt lat="44.11978062767311" lon="7.940442207535478"><ele>1280.0</ele><time>2026-05-03T11:56:30.999Z</time></trkpt><trkpt lat="44.11967299669273" lon="7.940432819523647"><ele>1275.6</ele><time>2026-05-03T11:56:31.999Z</time></trkpt><trkpt lat="44.119558578749164" lon="7.940420240398113"><ele>1271.2</ele><time>2026-05-03T11:56:32.999Z</time></trkpt><trkpt lat="44.1194628922567" lon="7.940372392316777"><ele>1266.8</ele><time>2026-05-03T11:56:33.999Z</time></trkpt><trkpt lat="44.119371510072675" lon="7.940316722247222"><ele>1262.4</ele><time>2026-05-03T11:56:34.999Z</time></trkpt><trkpt lat="44.11927134366322" lon="7.9402785275272265"><ele>1258.0</ele><time>2026-05-03T11:56:35.999Z</time></trkpt><trkpt lat="44.11917435214675" lon="7.940220578933463"><ele>1258.2</ele><time>2026-05-03T11:56:36.999Z</time></trkpt><trkpt lat="44.11906487592817" lon="7.940179159380946"><ele>1258.4</ele><time>2026-05-03T11:56:37.999Z</time></trkpt><trkpt lat="44.11897014921417" lon="7.940160023990573"><ele>1258.6000000000001</ele><time>2026-05-03T11:56:38.999Z</time></trkpt><trkpt lat="44.118878400447585" lon="7.940102716298403"><ele>1258.8</ele><time>2026-05-03T11:56:39.999Z</time></trkpt><trkpt lat="44.118800730772314" lon="7.940044771412567"><ele>1259.0</ele><time>2026-05-03T11:56:40.999Z</time></trkpt><trkpt lat="44.11873260092056" lon="7.939970941590278"><ele>1259.0</ele><time>2026-05-03T11:56:41.999Z</time></trkpt><trkpt lat="44.11866295442386" lon="7.939885138155148"><ele>1259.0</ele><time>2026-05-03T11:56:42.999Z</time></trkpt><trkpt lat="44.11859223759422" lon="7.939788020324865"><ele>1259.0</ele><time>2026-05-03T11:56:43.999Z</time></trkpt><trkpt lat="44.11851293861054" lon="7.939694330716695"><ele>1259.0</ele><time>2026-05-03T11:56:44.999Z</time></trkpt><trkpt lat="44.118429831949555" lon="7.939617315497207"><ele>1259.0</ele><time>2026-05-03T11:56:45.999Z</time></trkpt><trkpt lat="44.11834803514631" lon="7.939550596744713"><ele>1259.0</ele><time>2026-05-03T11:56:46.999Z</time></trkpt><trkpt lat="44.118266937939424" lon="7.93950551133655"><ele>1259.0</ele><time>2026-05-03T11:56:47.999Z</time></trkpt><trkpt lat="44.11816849463956" lon="7.9395468720585685"><ele>1259.0</ele><time>2026-05-03T11:56:48.999Z</time></trkpt><trkpt lat="44.118077764190694" lon="7.939555748888976"><ele>1259.0</ele><time>2026-05-03T11:56:49.999Z</time></trkpt><trkpt lat="44.117962447230276" lon="7.939569073140582"><ele>1259.0</ele><time>2026-05-03T11:56:50.999Z</time></trkpt><trkpt lat="44.11786275028472" lon="7.939576663707941"><ele>1256.5</ele><time>2026-05-03T11:56:51.999Z</time></trkpt><trkpt lat="44.1177681578378" lon="7.939579887590489"><ele>1254.0</ele><time>2026-05-03T11:56:52.999Z</time></trkpt><trkpt lat="44.11768226364967" lon="7.93957769098424"><ele>1251.5</ele><time>2026-05-03T11:56:53.999Z</time></trkpt><trkpt lat="44.11761419553502" lon="7.9395719329357535"><ele>1249.0</ele><time>2026-05-03T11:56:54.999Z</time></trkpt><trkpt lat="44.11755245977856" lon="7.939549972233103"><ele>1246.5</ele><time>2026-05-03T11:56:55.999Z</time></trkpt><trkpt lat="44.117510086185526" lon="7.939446352840318"><ele>1244.0</ele><time>2026-05-03T11:56:57.999Z</time></trkpt><trkpt lat="44.11746532268281" lon="7.939338705925279"><ele>1247.2</ele><time>2026-05-03T11:56:58.999Z</time></trkpt><trkpt lat="44.11748964860515" lon="7.939203224556677"><ele>1250.4</ele><time>2026-05-03T11:56:59.999Z</time></trkpt><trkpt lat="44.1174934395554" lon="7.939058262765153"><ele>1253.6</ele><time>2026-05-03T11:57:00.999Z</time></trkpt><trkpt lat="44.11749902764901" lon="7.938899341572801"><ele>1256.8</ele><time>2026-05-03T11:57:01.999Z</time></trkpt><trkpt lat="44.11748489375255" lon="7.9387287858867195"><ele>1260.0</ele><time>2026-05-03T11:57:02.999Z</time></trkpt><trkpt lat="44.11747420870137" lon="7.938579427279775"><ele>1260.0</ele><time>2026-05-03T11:57:04Z</time></trkpt><trkpt lat="44.117451980438986" lon="7.938435476990104"><ele>1260.0</ele><time>2026-05-03T11:57:05Z</time></trkpt><trkpt lat="44.11740053037974" lon="7.9382892935217635"><ele>1260.0</ele><time>2026-05-03T11:57:06Z</time></trkpt><trkpt lat="44.1173500519888" lon="7.938168343471438"><ele>1260.0</ele><time>2026-05-03T11:57:07Z</time></trkpt><trkpt lat="44.11730338532518" lon="7.938081286028907"><ele>1260.0</ele><time>2026-05-03T11:57:08Z</time></trkpt><trkpt lat="44.11726096509597" lon="7.937973984718537"><ele>1258.1666666666667</ele><time>2026-05-03T11:57:09Z</time></trkpt><trkpt lat="44.11718777844914" lon="7.937857742441167"><ele>1256.3333333333333</ele><time>2026-05-03T11:57:10Z</time></trkpt><trkpt lat="44.11715486555458" lon="7.937763594423326"><ele>1254.5</ele><time>2026-05-03T11:57:11Z</time></trkpt><trkpt lat="44.11709125648699" lon="7.937682879360145"><ele>1252.6666666666665</ele><time>2026-05-03T11:57:12Z</time></trkpt><trkpt lat="44.117032057251286" lon="7.9375937097745"><ele>1250.8333333333333</ele><time>2026-05-03T11:57:13Z</time></trkpt><trkpt lat="44.1169850452584" lon="7.937514066639122"><ele>1249.0</ele><time>2026-05-03T11:57:14Z</time></trkpt><trkpt lat="44.116959654869056" lon="7.937426244261521"><ele>1249.0</ele><time>2026-05-03T11:57:15Z</time></trkpt><trkpt lat="44.11692102194438" lon="7.937279000432664"><ele>1249.0</ele><time>2026-05-03T11:57:17Z</time></trkpt><trkpt lat="44.11687429433197" lon="7.9371730334825585"><ele>1249.0</ele><time>2026-05-03T11:57:19Z</time></trkpt><trkpt lat="44.11681274737947" lon="7.937136589236638"><ele>1249.0</ele><time>2026-05-03T11:58:03.999Z</time></trkpt><trkpt lat="44.11674086728127" lon="7.93700298519594"><ele>1249.0</ele><time>2026-05-03T11:58:05.999Z</time></trkpt><trkpt lat="44.11665581110599" lon="7.936860136088919"><ele>1249.0</ele><time>2026-05-03T11:58:07.999Z</time></trkpt><trkpt lat="44.11661028551235" lon="7.936798747836776"><ele>1249.0</ele><time>2026-05-03T11:58:08.999Z</time></trkpt><trkpt lat="44.11655333868668" lon="7.936753791868081"><ele>1249.0</ele><time>2026-05-03T11:58:09.999Z</time></trkpt><trkpt lat="44.11649233917717" lon="7.936667411283283"><ele>1249.0</ele><time>2026-05-03T11:58:10.999Z</time></trkpt><trkpt lat="44.116422181268966" lon="7.936530069413658"><ele>1249.0</ele><time>2026-05-03T11:58:11.999Z</time></trkpt><trkpt lat="44.11637878431786" lon="7.936439890541503"><ele>1249.0</ele><time>2026-05-03T11:58:12.999Z</time></trkpt><trkpt lat="44.11634772515502" lon="7.93635464742991"><ele>1250.0</ele><time>2026-05-03T11:58:13.999Z</time></trkpt><trkpt lat="44.11631876055652" lon="7.936262075115278"><ele>1251.0</ele><time>2026-05-03T11:58:14.999Z</time></trkpt><trkpt lat="44.11627915938178" lon="7.936167879746102"><ele>1252.0</ele><time>2026-05-03T11:58:15.999Z</time></trkpt><trkpt lat="44.11626730439561" lon="7.936056575137975"><ele>1253.0</ele><time>2026-05-03T11:58:16.999Z</time></trkpt><trkpt lat="44.1162351490815" lon="7.935954803239069"><ele>1254.0</ele><time>2026-05-03T11:58:17.999Z</time></trkpt><trkpt lat="44.11620308845969" lon="7.935853120617533"><ele>1255.0</ele><time>2026-05-03T11:58:18.999Z</time></trkpt><trkpt lat="44.116173997591545" lon="7.93575193305493"><ele>1255.0</ele><time>2026-05-03T11:58:19.999Z</time></trkpt><trkpt lat="44.11614299633777" lon="7.935654087069525"><ele>1255.0</ele><time>2026-05-03T11:58:20.999Z</time></trkpt><trkpt lat="44.11611043255186" lon="7.935538961690548"><ele>1255.0</ele><time>2026-05-03T11:58:21.999Z</time></trkpt><trkpt lat="44.11606286821831" lon="7.935384180528223"><ele>1255.0</ele><time>2026-05-03T11:58:22.999Z</time></trkpt><trkpt lat="44.11602607288988" lon="7.93525422837597"><ele>1255.0</ele><time>2026-05-03T11:58:23.999Z</time></trkpt><trkpt lat="44.11597059651546" lon="7.935095955661931"><ele>1258.0</ele><time>2026-05-03T11:58:25.999Z</time></trkpt><trkpt lat="44.115935284605996" lon="7.935003174955197"><ele>1261.0</ele><time>2026-05-03T11:58:26.999Z</time></trkpt><trkpt lat="44.11591051859228" lon="7.934868457135994"><ele>1264.0</ele><time>2026-05-03T11:58:27.999Z</time></trkpt><trkpt lat="44.11586952895027" lon="7.934720117471519"><ele>1267.0</ele><time>2026-05-03T11:58:28.999Z</time></trkpt><trkpt lat="44.115840460733665" lon="7.934596533414267"><ele>1270.0</ele><time>2026-05-03T11:58:29.999Z</time></trkpt><trkpt lat="44.11582589978646" lon="7.934499620278024"><ele>1270.0</ele><time>2026-05-03T11:58:30.999Z</time></trkpt><trkpt lat="44.11582943669409" lon="7.934387852818007"><ele>1270.0</ele><time>2026-05-03T11:58:31.999Z</time></trkpt><trkpt lat="44.11584843358226" lon="7.934273003071082"><ele>1270.0</ele><time>2026-05-03T11:58:32.999Z</time></trkpt><trkpt lat="44.11589771613186" lon="7.934184673099581"><ele>1270.0</ele><time>2026-05-03T11:58:33.999Z</time></trkpt><trkpt lat="44.115949918021464" lon="7.934056384920765"><ele>1270.0</ele><time>2026-05-03T11:58:34.999Z</time></trkpt><trkpt lat="44.11603161684425" lon="7.933917756666883"><ele>1271.6</ele><time>2026-05-03T11:58:35.999Z</time></trkpt><trkpt lat="44.11607296197618" lon="7.933813829005591"><ele>1273.2</ele><time>2026-05-03T11:58:36.999Z</time></trkpt><trkpt lat="44.11609646330921" lon="7.93369882815333"><ele>1274.8</ele><time>2026-05-03T11:58:37.999Z</time></trkpt><trkpt lat="44.11608925884407" lon="7.933557544406701"><ele>1276.4</ele><time>2026-05-03T11:58:38.999Z</time></trkpt><trkpt lat="44.116083404210926" lon="7.9334085315290475"><ele>1278.0</ele><time>2026-05-03T11:58:39.999Z</time></trkpt><trkpt lat="44.116059612480434" lon="7.933266613516693"><ele>1279.8</ele><time>2026-05-03T11:58:40.999Z</time></trkpt><trkpt lat="44.11601414476956" lon="7.933135474205876"><ele>1281.6</ele><time>2026-05-03T11:58:41.999Z</time></trkpt><trkpt lat="44.115955065635575" lon="7.933005651688015"><ele>1283.3999999999999</ele><time>2026-05-03T11:58:42.999Z</time></trkpt><trkpt lat="44.11589081297666" lon="7.932884195221981"><ele>1285.1999999999998</ele><time>2026-05-03T11:58:43.999Z</time></trkpt><trkpt lat="44.115817164047186" lon="7.932788050353719"><ele>1287.0</ele><time>2026-05-03T11:58:44.999Z</time></trkpt><trkpt lat="44.11572733115714" lon="7.932726176808314"><ele>1287.1666666666667</ele><time>2026-05-03T11:58:45.999Z</time></trkpt><trkpt lat="44.1156480955419" lon="7.9326731598506806"><ele>1287.3333333333333</ele><time>2026-05-03T11:58:46.999Z</time></trkpt><trkpt lat="44.115566960324486" lon="7.932612267513274"><ele>1287.5</ele><time>2026-05-03T11:58:47.999Z</time></trkpt><trkpt lat="44.11549634382626" lon="7.932547223198394"><ele>1287.6666666666665</ele><time>2026-05-03T11:58:48.999Z</time></trkpt><trkpt lat="44.11542401782906" lon="7.93247669953809"><ele>1287.8333333333333</ele><time>2026-05-03T11:58:49.999Z</time></trkpt><trkpt lat="44.115348893819714" lon="7.932410766332514"><ele>1288.0</ele><time>2026-05-03T11:58:50.999Z</time></trkpt><trkpt lat="44.11529606550927" lon="7.932317112505554"><ele>1288.0</ele><time>2026-05-03T11:58:51.999Z</time></trkpt><trkpt lat="44.11522770217727" lon="7.9322570403369745"><ele>1288.0</ele><time>2026-05-03T11:58:52.999Z</time></trkpt><trkpt lat="44.115188098719315" lon="7.932133965364017"><ele>1288.0</ele><time>2026-05-03T11:58:53.999Z</time></trkpt><trkpt lat="44.11513294161687" lon="7.932036560043792"><ele>1288.0</ele><time>2026-05-03T11:58:54.999Z</time></trkpt><trkpt lat="44.1150676917647" lon="7.9319374533682865"><ele>1288.0</ele><time>2026-05-03T11:58:55.999Z</time></trkpt><trkpt lat="44.11500250639071" lon="7.931820332754433"><ele>1288.0</ele><time>2026-05-03T11:58:56.999Z</time></trkpt><trkpt lat="44.11491779080281" lon="7.931735893136754"><ele>1288.0</ele><time>2026-05-03T11:58:57.999Z</time></trkpt><trkpt lat="44.11483677864374" lon="7.931654595630026"><ele>1288.0</ele><time>2026-05-03T11:58:58.999Z</time></trkpt><trkpt lat="44.114760196040756" lon="7.9315757897701795"><ele>1288.0</ele><time>2026-05-03T11:58:59.999Z</time></trkpt><trkpt lat="44.11468831686912" lon="7.931488469377271"><ele>1288.0</ele><time>2026-05-03T11:59:00.999Z</time></trkpt><trkpt lat="44.11460828874943" lon="7.931394896480868"><ele>1287.0</ele><time>2026-05-03T11:59:01.999Z</time></trkpt><trkpt lat="44.11456311907916" lon="7.931257303769122"><ele>1286.0</ele><time>2026-05-03T11:59:02.999Z</time></trkpt><trkpt lat="44.11452595556317" lon="7.931125726340284"><ele>1285.0</ele><time>2026-05-03T11:59:03.999Z</time></trkpt><trkpt lat="44.11449233152182" lon="7.93099110975767"><ele>1284.0</ele><time>2026-05-03T11:59:04.999Z</time></trkpt><trkpt lat="44.114460696247626" lon="7.9308593046973"><ele>1283.0</ele><time>2026-05-03T11:59:05.999Z</time></trkpt><trkpt lat="44.114429682275485" lon="7.930730087870715"><ele>1286.4</ele><time>2026-05-03T11:59:06.999Z</time></trkpt><trkpt lat="44.114400674331314" lon="7.930609229089662"><ele>1289.8000000000002</ele><time>2026-05-03T11:59:07.999Z</time></trkpt><trkpt lat="44.11437138357272" lon="7.930487350970225"><ele>1293.2</ele><time>2026-05-03T11:59:08.999Z</time></trkpt><trkpt lat="44.11434317487634" lon="7.930363857983434"><ele>1296.6</ele><time>2026-05-03T11:59:10Z</time></trkpt><trkpt lat="44.11431491531212" lon="7.930240141899497"><ele>1300.0</ele><time>2026-05-03T11:59:11Z</time></trkpt><trkpt lat="44.11428540107214" lon="7.930110933209224"><ele>1303.8</ele><time>2026-05-03T11:59:12Z</time></trkpt><trkpt lat="44.114258307001336" lon="7.929980167319266"><ele>1307.6</ele><time>2026-05-03T11:59:13Z</time></trkpt><trkpt lat="44.11423894134998" lon="7.929847170434367"><ele>1311.4</ele><time>2026-05-03T11:59:14Z</time></trkpt><trkpt lat="44.11422178725433" lon="7.929709445556603"><ele>1315.2</ele><time>2026-05-03T11:59:15Z</time></trkpt><trkpt lat="44.11420519063018" lon="7.929571945728541"><ele>1319.0</ele><time>2026-05-03T11:59:16Z</time></trkpt><trkpt lat="44.11418672951188" lon="7.9294296570955"><ele>1319.0</ele><time>2026-05-03T11:59:17Z</time></trkpt><trkpt lat="44.11416298055443" lon="7.929292223677832"><ele>1319.0</ele><time>2026-05-03T11:59:18Z</time></trkpt><trkpt lat="44.114113971329935" lon="7.929150542914396"><ele>1319.0</ele><time>2026-05-03T11:59:19Z</time></trkpt><trkpt lat="44.114036970562374" lon="7.929035238712162"><ele>1319.0</ele><time>2026-05-03T11:59:20Z</time></trkpt><trkpt lat="44.1139674186369" lon="7.928917199585694"><ele>1319.0</ele><time>2026-05-03T11:59:21Z</time></trkpt><trkpt lat="44.113896827488965" lon="7.9287992936981055"><ele>1318.25</ele><time>2026-05-03T11:59:22Z</time></trkpt><trkpt lat="44.113820467030976" lon="7.928684239929819"><ele>1317.5</ele><time>2026-05-03T11:59:23Z</time></trkpt><trkpt lat="44.113745987893466" lon="7.928557587102575"><ele>1316.75</ele><time>2026-05-03T11:59:24Z</time></trkpt><trkpt lat="44.11363583451989" lon="7.928496446183031"><ele>1316.0</ele><time>2026-05-03T11:59:25Z</time></trkpt><trkpt lat="44.11353033787552" lon="7.928435765249828"><ele>1320.8</ele><time>2026-05-03T11:59:26Z</time></trkpt><trkpt lat="44.113428868650374" lon="7.928389074173813"><ele>1325.6</ele><time>2026-05-03T11:59:27Z</time></trkpt><trkpt lat="44.113335960609376" lon="7.928338456786547"><ele>1330.4</ele><time>2026-05-03T11:59:28Z</time></trkpt><trkpt lat="44.113268150263266" lon="7.928231355942424"><ele>1335.2</ele><time>2026-05-03T11:59:29Z</time></trkpt><trkpt lat="44.11320669755199" lon="7.928116254297275"><ele>1340.0</ele><time>2026-05-03T11:59:30Z</time></trkpt><trkpt lat="44.113132215029644" lon="7.928012644421671"><ele>1341.0</ele><time>2026-05-03T11:59:31Z</time></trkpt><trkpt lat="44.11308026401004" lon="7.9278880031708505"><ele>1342.0</ele><time>2026-05-03T11:59:32Z</time></trkpt><trkpt lat="44.11298418753273" lon="7.927819301936883"><ele>1343.0</ele><time>2026-05-03T11:59:33Z</time></trkpt><trkpt lat="44.11288669393567" lon="7.927767764254836"><ele>1344.0</ele><time>2026-05-03T11:59:34Z</time></trkpt><trkpt lat="44.11278037275155" lon="7.927761918174778"><ele>1345.0</ele><time>2026-05-03T11:59:35Z</time></trkpt><trkpt lat="44.11267565416019" lon="7.927795173704698"><ele>1345.0</ele><time>2026-05-03T11:59:36Z</time></trkpt><trkpt lat="44.112573536266375" lon="7.9278710688854845"><ele>1345.0</ele><time>2026-05-03T11:59:37Z</time></trkpt><trkpt lat="44.11247786521444" lon="7.927968516815427"><ele>1345.0</ele><time>2026-05-03T11:59:38Z</time></trkpt><trkpt lat="44.11239249312518" lon="7.928077704077775"><ele>1345.0</ele><time>2026-05-03T11:59:39Z</time></trkpt><trkpt lat="44.112302352606754" lon="7.928180459131655"><ele>1346.0</ele><time>2026-05-03T11:59:40Z</time></trkpt><trkpt lat="44.11221964121044" lon="7.928294179732819"><ele>1347.0</ele><time>2026-05-03T11:59:41Z</time></trkpt><trkpt lat="44.1121197214575" lon="7.928396978225594"><ele>1348.0</ele><time>2026-05-03T11:59:42Z</time></trkpt><trkpt lat="44.11202352748068" lon="7.928475529265396"><ele>1349.0</ele><time>2026-05-03T11:59:43Z</time></trkpt><trkpt lat="44.11193355558404" lon="7.9285282618097535"><ele>1349.0</ele><time>2026-05-03T11:59:44Z</time></trkpt><trkpt lat="44.11183245492891" lon="7.928540494923911"><ele>1349.0</ele><time>2026-05-03T11:59:45Z</time></trkpt><trkpt lat="44.111732458126255" lon="7.928465019625"><ele>1349.0</ele><time>2026-05-03T11:59:46Z</time></trkpt><trkpt lat="44.11163849474179" lon="7.928377815322186"><ele>1349.0</ele><time>2026-05-03T11:59:47Z</time></trkpt><trkpt lat="44.11154003105013" lon="7.928280415655717"><ele>1349.0</ele><time>2026-05-03T11:59:48Z</time></trkpt><trkpt lat="44.111437822674056" lon="7.928196403482424"><ele>1349.2</ele><time>2026-05-03T11:59:49Z</time></trkpt><trkpt lat="44.11134698215916" lon="7.9281113417132145"><ele>1349.4</ele><time>2026-05-03T11:59:50Z</time></trkpt><trkpt lat="44.111256481595824" lon="7.928031143888752"><ele>1349.6</ele><time>2026-05-03T11:59:51Z</time></trkpt><trkpt lat="44.11116583846456" lon="7.927962010932065"><ele>1349.8</ele><time>2026-05-03T11:59:52Z</time></trkpt><trkpt lat="44.111064671587705" lon="7.927921870561938"><ele>1350.0</ele><time>2026-05-03T11:59:53Z</time></trkpt><trkpt lat="44.110960014940325" lon="7.927901425951813"><ele>1350.0</ele><time>2026-05-03T11:59:54Z</time></trkpt><trkpt lat="44.110851270935655" lon="7.927901099847889"><ele>1350.0</ele><time>2026-05-03T11:59:55Z</time></trkpt><trkpt lat="44.11074489213179" lon="7.927947344925391"><ele>1350.0</ele><time>2026-05-03T11:59:56Z</time></trkpt><trkpt lat="44.1106509869849" lon="7.928026820424207"><ele>1350.0</ele><time>2026-05-03T11:59:57Z</time></trkpt><trkpt lat="44.11056217940885" lon="7.928112102457831"><ele>1350.0</ele><time>2026-05-03T11:59:58Z</time></trkpt><trkpt lat="44.110474215989846" lon="7.928190479034596"><ele>1348.8</ele><time>2026-05-03T11:59:58.999Z</time></trkpt><trkpt lat="44.11038191282537" lon="7.928258869055708"><ele>1347.6</ele><time>2026-05-03T11:59:59.999Z</time></trkpt><trkpt lat="44.110284064524826" lon="7.9283256795871235"><ele>1346.4</ele><time>2026-05-03T12:00:00.999Z</time></trkpt><trkpt lat="44.11017986728485" lon="7.928397826455967"><ele>1345.2</ele><time>2026-05-03T12:00:01.999Z</time></trkpt><trkpt lat="44.1100754741258" lon="7.928475848601613"><ele>1344.0</ele><time>2026-05-03T12:00:02.999Z</time></trkpt><trkpt lat="44.10998047611932" lon="7.9285541678454585"><ele>1350.4</ele><time>2026-05-03T12:00:03.999Z</time></trkpt><trkpt lat="44.10989019810129" lon="7.928649320831305"><ele>1356.8000000000002</ele><time>2026-05-03T12:00:04.999Z</time></trkpt><trkpt lat="44.10980808027492" lon="7.928758201676301"><ele>1363.1999999999998</ele><time>2026-05-03T12:00:05.999Z</time></trkpt><trkpt lat="44.10972702564243" lon="7.928863742108504"><ele>1369.6</ele><time>2026-05-03T12:00:06.999Z</time></trkpt><trkpt lat="44.10963712484613" lon="7.928949816597284"><ele>1376.0</ele><time>2026-05-03T12:00:07.999Z</time></trkpt><trkpt lat="44.10953478013914" lon="7.929021493520984"><ele>1376.0</ele><time>2026-05-03T12:00:08.999Z</time></trkpt><trkpt lat="44.10942387002659" lon="7.929061264171925"><ele>1376.0</ele><time>2026-05-03T12:00:09.999Z</time></trkpt><trkpt lat="44.10931306635117" lon="7.929093852525227"><ele>1376.0</ele><time>2026-05-03T12:00:10.999Z</time></trkpt><trkpt lat="44.10920747839818" lon="7.929118570718759"><ele>1376.0</ele><time>2026-05-03T12:00:11.999Z</time></trkpt><trkpt lat="44.109100578345" lon="7.929147793903737"><ele>1376.0</ele><time>2026-05-03T12:00:12.999Z</time></trkpt><trkpt lat="44.10900197089749" lon="7.929214956926682"><ele>1375.6</ele><time>2026-05-03T12:00:13.999Z</time></trkpt><trkpt lat="44.10890780122088" lon="7.92930147316096"><ele>1375.1999999999998</ele><time>2026-05-03T12:00:14.999Z</time></trkpt><trkpt lat="44.10882680136867" lon="7.929399097678163"><ele>1374.8000000000002</ele><time>2026-05-03T12:00:15.999Z</time></trkpt><trkpt lat="44.10874583130737" lon="7.9294964623117075"><ele>1374.4</ele><time>2026-05-03T12:00:16.999Z</time></trkpt><trkpt lat="44.10866007614474" lon="7.9295883372711"><ele>1374.0</ele><time>2026-05-03T12:00:17.999Z</time></trkpt><trkpt lat="44.10859132174629" lon="7.929660236062922"><ele>1374.0</ele><time>2026-05-03T12:00:18.999Z</time></trkpt><trkpt lat="44.10852790021587" lon="7.9297224410024105"><ele>1374.0</ele><time>2026-05-03T12:00:19.999Z</time></trkpt><trkpt lat="44.108468358373834" lon="7.929781329581806"><ele>1374.0</ele><time>2026-05-03T12:00:20.999Z</time></trkpt><trkpt lat="44.10840838707991" lon="7.929825255741911"><ele>1374.0</ele><time>2026-05-03T12:00:21.999Z</time></trkpt><trkpt lat="44.10834610606377" lon="7.929845978788906"><ele>1374.0</ele><time>2026-05-03T12:00:22.999Z</time></trkpt><trkpt lat="44.108234266471264" lon="7.929811946025862"><ele>1374.0</ele><time>2026-05-03T12:00:24.999Z</time></trkpt><trkpt lat="44.10816877952589" lon="7.929717414949048"><ele>1373.0</ele><time>2026-05-03T12:00:26.999Z</time></trkpt><trkpt lat="44.108135254877816" lon="7.9296168119447366"><ele>1372.0</ele><time>2026-05-03T12:00:29.999Z</time></trkpt><trkpt lat="44.10803220805556" lon="7.929609643812291"><ele>1371.0</ele><time>2026-05-03T12:01:43Z</time></trkpt><trkpt lat="44.10801181803394" lon="7.929693112404922"><ele>1370.0</ele><time>2026-05-03T12:01:48Z</time></trkpt><trkpt lat="44.10796626328311" lon="7.9297789086522705"><ele>1369.0</ele><time>2026-05-03T12:01:50Z</time></trkpt><trkpt lat="44.10789363086142" lon="7.929815017421001"><ele>1368.0</ele><time>2026-05-03T12:01:52Z</time></trkpt><trkpt lat="44.107799089246924" lon="7.929841025048073"><ele>1368.0</ele><time>2026-05-03T12:01:54Z</time></trkpt><trkpt lat="44.10773079937397" lon="7.929856686162024"><ele>1368.0</ele><time>2026-05-03T12:01:55Z</time></trkpt><trkpt lat="44.10766800272095" lon="7.92987246038397"><ele>1368.0</ele><time>2026-05-03T12:01:56Z</time></trkpt><trkpt lat="44.10755728896324" lon="7.929896476537484"><ele>1368.0</ele><time>2026-05-03T12:01:58Z</time></trkpt><trkpt lat="44.1074701710399" lon="7.92991097024504"><ele>1368.0</ele><time>2026-05-03T12:02:00Z</time></trkpt><trkpt lat="44.107381358948466" lon="7.929922196197506"><ele>1368.0</ele><time>2026-05-03T12:02:02Z</time></trkpt><trkpt lat="44.10728861960128" lon="7.9299414911115305"><ele>1365.0</ele><time>2026-05-03T12:02:05Z</time></trkpt><trkpt lat="44.10718676500646" lon="7.929974790644605"><ele>1362.0</ele><time>2026-05-03T12:02:07Z</time></trkpt><trkpt lat="44.10708687568371" lon="7.93001571722033"><ele>1359.0</ele><time>2026-05-03T12:02:09Z</time></trkpt><trkpt lat="44.106997383799445" lon="7.930039204592691"><ele>1356.0</ele><time>2026-05-03T12:02:10.999Z</time></trkpt><trkpt lat="44.10691111248268" lon="7.930070201927389"><ele>1353.0</ele><time>2026-05-03T12:02:12.999Z</time></trkpt><trkpt lat="44.10683714000748" lon="7.930120638988338"><ele>1357.2</ele><time>2026-05-03T12:02:14.999Z</time></trkpt><trkpt lat="44.10675334142597" lon="7.930174136293467"><ele>1361.4</ele><time>2026-05-03T12:02:18.999Z</time></trkpt><trkpt lat="44.10658561348217" lon="7.930246584646145"><ele>1365.6000000000001</ele><time>2026-05-03T12:02:20.999Z</time></trkpt><trkpt lat="44.106523625998406" lon="7.93026380001436"><ele>1369.8000000000002</ele><time>2026-05-03T12:02:21.999Z</time></trkpt><trkpt lat="44.10642544712078" lon="7.930299665580319"><ele>1374.0</ele><time>2026-05-03T12:02:23.999Z</time></trkpt><trkpt lat="44.10629267079173" lon="7.930318348494059"><ele>1374.0</ele><time>2026-05-03T12:02:25.999Z</time></trkpt><trkpt lat="44.106193087910505" lon="7.930341579613641"><ele>1374.0</ele><time>2026-05-03T12:02:27.999Z</time></trkpt><trkpt lat="44.10609995771635" lon="7.930365391631391"><ele>1374.0</ele><time>2026-05-03T12:02:29.999Z</time></trkpt><trkpt lat="44.10603683659845" lon="7.930405520903276"><ele>1374.0</ele><time>2026-05-03T12:02:30.999Z</time></trkpt><trkpt lat="44.1059667550502" lon="7.9304462649187855"><ele>1374.0</ele><time>2026-05-03T12:02:32.999Z</time></trkpt><trkpt lat="44.10586950781815" lon="7.930465871412269"><ele>1374.0</ele><time>2026-05-03T12:02:34.999Z</time></trkpt><trkpt lat="44.10576927276711" lon="7.930510231543506"><ele>1370.142857142857</ele><time>2026-05-03T12:02:36.999Z</time></trkpt><trkpt lat="44.10568425009072" lon="7.930543317664147"><ele>1366.2857142857142</ele><time>2026-05-03T12:02:38.999Z</time></trkpt><trkpt lat="44.10562358087287" lon="7.930572021411551"><ele>1362.4285714285713</ele><time>2026-05-03T12:02:40.999Z</time></trkpt><trkpt lat="44.105551541786895" lon="7.930575306796806"><ele>1358.5714285714284</ele><time>2026-05-03T12:02:43.999Z</time></trkpt><trkpt lat="44.105483619433386" lon="7.930577336685298"><ele>1354.7142857142858</ele><time>2026-05-03T12:02:45.999Z</time></trkpt><trkpt lat="44.10541053569295" lon="7.930612229986026"><ele>1350.8571428571427</ele><time>2026-05-03T12:02:47.999Z</time></trkpt><trkpt lat="44.105336712656474" lon="7.930629579366361"><ele>1347.0</ele><time>2026-05-03T12:02:49.999Z</time></trkpt><trkpt lat="44.10526156758721" lon="7.930680016627909"><ele>1347.0</ele><time>2026-05-03T12:02:51.999Z</time></trkpt><trkpt lat="44.10518570879815" lon="7.930719611444441"><ele>1347.0</ele><time>2026-05-03T12:02:53.999Z</time></trkpt><trkpt lat="44.10511152989414" lon="7.930754826758381"><ele>1347.0</ele><time>2026-05-03T12:02:55.999Z</time></trkpt><trkpt lat="44.10505355166264" lon="7.9308154734492025"><ele>1347.0</ele><time>2026-05-03T12:02:57.999Z</time></trkpt><trkpt lat="44.104979555128395" lon="7.9308568840192795"><ele>1347.0</ele><time>2026-05-03T12:03:00.999Z</time></trkpt><trkpt lat="44.10488086012249" lon="7.930895643744166"><ele>1347.0</ele><time>2026-05-03T12:03:03.999Z</time></trkpt><trkpt lat="44.10480361536271" lon="7.9309667633353875"><ele>1351.3333333333333</ele><time>2026-05-03T12:03:05.999Z</time></trkpt><trkpt lat="44.1047197469011" lon="7.931008055614656"><ele>1355.6666666666667</ele><time>2026-05-03T12:03:07.999Z</time></trkpt><trkpt lat="44.10464766106159" lon="7.931040197369503"><ele>1360.0</ele><time>2026-05-03T12:03:09.999Z</time></trkpt><trkpt lat="44.10458169199237" lon="7.931071669915725"><ele>1364.3333333333335</ele><time>2026-05-03T12:03:11.999Z</time></trkpt><trkpt lat="44.10450805574216" lon="7.931111707385222"><ele>1368.6666666666667</ele><time>2026-05-03T12:03:13.999Z</time></trkpt><trkpt lat="44.10442511501617" lon="7.931151417793728"><ele>1373.0</ele><time>2026-05-03T12:03:15.999Z</time></trkpt><trkpt lat="44.10435883588405" lon="7.931174206174715"><ele>1373.0</ele><time>2026-05-03T12:03:18.999Z</time></trkpt><trkpt lat="44.10427672045249" lon="7.931200740938336"><ele>1373.0</ele><time>2026-05-03T12:03:23Z</time></trkpt><trkpt lat="44.10420736458715" lon="7.931287228019649"><ele>1373.0</ele><time>2026-05-03T12:03:26Z</time></trkpt><trkpt lat="44.104141863062694" lon="7.931304375189655"><ele>1373.0</ele><time>2026-05-03T12:03:30Z</time></trkpt><trkpt lat="44.10408004289572" lon="7.931321842194295"><ele>1373.0</ele><time>2026-05-03T12:03:35Z</time></trkpt><trkpt lat="44.10401529371521" lon="7.931337589596259"><ele>1373.0</ele><time>2026-05-03T12:03:58Z</time></trkpt><trkpt lat="44.10394876321043" lon="7.931321260369058"><ele>1373.0</ele><time>2026-05-03T12:04:06Z</time></trkpt><trkpt lat="44.10387550615595" lon="7.931312297313265"><ele>1371.857142857143</ele><time>2026-05-03T12:04:08Z</time></trkpt><trkpt lat="44.10382072327868" lon="7.931371214726847"><ele>1370.7142857142858</ele><time>2026-05-03T12:05:54Z</time></trkpt><trkpt lat="44.10374946628225" lon="7.931348491956275"><ele>1369.5714285714284</ele><time>2026-05-03T12:05:57Z</time></trkpt><trkpt lat="44.10369675092912" lon="7.931411781695523"><ele>1368.4285714285716</ele><time>2026-05-03T12:06:00Z</time></trkpt><trkpt lat="44.10362923049299" lon="7.931439258383607"><ele>1367.2857142857142</ele><time>2026-05-03T12:06:03Z</time></trkpt><trkpt lat="44.10356713236012" lon="7.931476448988666"><ele>1366.142857142857</ele><time>2026-05-03T12:06:05Z</time></trkpt><trkpt lat="44.10348381647092" lon="7.931522498986189"><ele>1365.0</ele><time>2026-05-03T12:06:07Z</time></trkpt><trkpt lat="44.10339084225491" lon="7.931523544636666"><ele>1365.0</ele><time>2026-05-03T12:06:09Z</time></trkpt><trkpt lat="44.10332951997005" lon="7.9315453059773136"><ele>1365.0</ele><time>2026-05-03T12:06:18Z</time></trkpt><trkpt lat="44.103265673232734" lon="7.931548750984509"><ele>1365.0</ele><time>2026-05-03T12:06:22Z</time></trkpt><trkpt lat="44.10319338982856" lon="7.931527087993575"><ele>1365.0</ele><time>2026-05-03T12:06:46.999Z</time></trkpt><trkpt lat="44.10311009954068" lon="7.931496235973771"><ele>1365.0</ele><time>2026-05-03T12:06:56.999Z</time></trkpt><trkpt lat="44.103006454767" lon="7.931497426850757"><ele>1365.0</ele><time>2026-05-03T12:07:07.999Z</time></trkpt><trkpt lat="44.102931818894945" lon="7.931503060383859"><ele>1364.0</ele><time>2026-05-03T12:07:09.999Z</time></trkpt><trkpt lat="44.10286862917629" lon="7.93148762917549"><ele>1363.0</ele><time>2026-05-03T12:07:12.999Z</time></trkpt><trkpt lat="44.10278246277242" lon="7.931517946284315"><ele>1362.0</ele><time>2026-05-03T12:07:16.999Z</time></trkpt><trkpt lat="44.10269618171335" lon="7.931551623588129"><ele>1361.0</ele><time>2026-05-03T12:07:18.999Z</time></trkpt><trkpt lat="44.10261693705151" lon="7.931588251595485"><ele>1360.0</ele><time>2026-05-03T12:07:38Z</time></trkpt><trkpt lat="44.10254444180734" lon="7.931570115223617"><ele>1359.0</ele><time>2026-05-03T12:07:40Z</time></trkpt><trkpt lat="44.10247728190351" lon="7.9315539430200905"><ele>1358.2</ele><time>2026-05-03T12:07:42Z</time></trkpt><trkpt lat="44.1023745722424" lon="7.9315690220877375"><ele>1357.4</ele><time>2026-05-03T12:07:44Z</time></trkpt><trkpt lat="44.10224859681613" lon="7.931576711305407"><ele>1356.6</ele><time>2026-05-03T12:07:46Z</time></trkpt><trkpt lat="44.10215343711003" lon="7.931574619745749"><ele>1355.8</ele><time>2026-05-03T12:07:48Z</time></trkpt><trkpt lat="44.10206235098254" lon="7.931598105420062"><ele>1355.0</ele><time>2026-05-03T12:07:50Z</time></trkpt><trkpt lat="44.10198187063575" lon="7.9316555657122425"><ele>1355.0</ele><time>2026-05-03T12:07:52Z</time></trkpt><trkpt lat="44.10189508029006" lon="7.931666736822967"><ele>1355.0</ele><time>2026-05-03T12:07:54Z</time></trkpt><trkpt lat="44.10182790802667" lon="7.931681807130956"><ele>1355.0</ele><time>2026-05-03T12:07:56Z</time></trkpt><trkpt lat="44.10174025413934" lon="7.9316785383555"><ele>1355.0</ele><time>2026-05-03T12:07:58Z</time></trkpt><trkpt lat="44.101655056127555" lon="7.931687922834901"><ele>1355.0</ele><time>2026-05-03T12:08:00Z</time></trkpt><trkpt lat="44.10159117504746" lon="7.931689887270346"><ele>1355.0</ele><time>2026-05-03T12:08:02Z</time></trkpt><trkpt lat="44.10150523681883" lon="7.931662545866239"><ele>1353.8</ele><time>2026-05-03T12:08:06Z</time></trkpt><trkpt lat="44.10141635111218" lon="7.931698239830099"><ele>1352.6</ele><time>2026-05-03T12:08:08Z</time></trkpt><trkpt lat="44.10132840475288" lon="7.931724325572172"><ele>1351.4</ele><time>2026-05-03T12:08:11Z</time></trkpt><trkpt lat="44.1012067694074" lon="7.9317153580032365"><ele>1350.2</ele><time>2026-05-03T12:08:13Z</time></trkpt><trkpt lat="44.101136895359936" lon="7.931723191014822"><ele>1349.0</ele><time>2026-05-03T12:08:14Z</time></trkpt><trkpt lat="44.10103377005094" lon="7.931754873554032"><ele>1348.4</ele><time>2026-05-03T12:08:16Z</time></trkpt><trkpt lat="44.10090228707483" lon="7.931754613440692"><ele>1347.8000000000002</ele><time>2026-05-03T12:08:18Z</time></trkpt><trkpt lat="44.10081976499032" lon="7.931786063483147"><ele>1347.1999999999998</ele><time>2026-05-03T12:08:19Z</time></trkpt><trkpt lat="44.1007193227743" lon="7.931854998808806"><ele>1346.6</ele><time>2026-05-03T12:08:21Z</time></trkpt><trkpt lat="44.10064076278201" lon="7.931923267151859"><ele>1346.0</ele><time>2026-05-03T12:08:23Z</time></trkpt><trkpt lat="44.100539979118764" lon="7.932020190617487"><ele>1346.0</ele><time>2026-05-03T12:08:25Z</time></trkpt><trkpt lat="44.10045805183935" lon="7.93208044335523"><ele>1346.0</ele><time>2026-05-03T12:08:27Z</time></trkpt><trkpt lat="44.10039110107162" lon="7.932160967879195"><ele>1346.0</ele><time>2026-05-03T12:08:29.999Z</time></trkpt><trkpt lat="44.100334210202796" lon="7.932233614517525"><ele>1346.0</ele><time>2026-05-03T12:08:32.999Z</time></trkpt><trkpt lat="44.10031345943772" lon="7.932316688482682"><ele>1346.0</ele><time>2026-05-03T12:08:34.999Z</time></trkpt><trkpt lat="44.10028458849062" lon="7.93244216638726"><ele>1346.0</ele><time>2026-05-03T12:08:37.999Z</time></trkpt><trkpt lat="44.1003218524128" lon="7.932564455904779"><ele>1348.0</ele><time>2026-05-03T12:08:39.999Z</time></trkpt><trkpt lat="44.10033864297863" lon="7.932734238277442"><ele>1350.0</ele><time>2026-05-03T12:08:41.999Z</time></trkpt><trkpt lat="44.10036607653877" lon="7.932828155928626"><ele>1352.0</ele><time>2026-05-03T12:08:42.999Z</time></trkpt><trkpt lat="44.10038438936241" lon="7.932914195830044"><ele>1354.0</ele><time>2026-05-03T12:08:43.999Z</time></trkpt><trkpt lat="44.10036391102475" lon="7.933007372872813"><ele>1356.0</ele><time>2026-05-03T12:08:44.999Z</time></trkpt><trkpt lat="44.100303714958706" lon="7.933090611421112"><ele>1358.0</ele><time>2026-05-03T12:08:46.999Z</time></trkpt><trkpt lat="44.10024277033404" lon="7.933224814008569"><ele>1358.0</ele><time>2026-05-03T12:08:48.999Z</time></trkpt><trkpt lat="44.100161108506654" lon="7.933364719220287"><ele>1358.0</ele><time>2026-05-03T12:08:50.999Z</time></trkpt><trkpt lat="44.100090980531135" lon="7.933483258628652"><ele>1358.0</ele><time>2026-05-03T12:08:52.999Z</time></trkpt><trkpt lat="44.10000310246991" lon="7.933598368030194"><ele>1358.0</ele><time>2026-05-03T12:08:54.999Z</time></trkpt><trkpt lat="44.09997115433416" lon="7.933688360018621"><ele>1358.0</ele><time>2026-05-03T12:08:56.999Z</time></trkpt><trkpt lat="44.0999620167756" lon="7.933796869268607"><ele>1357.0</ele><time>2026-05-03T12:10:00Z</time></trkpt><trkpt lat="44.099919156537105" lon="7.933861096592448"><ele>1356.0</ele><time>2026-05-03T12:10:03Z</time></trkpt><trkpt lat="44.09990568238194" lon="7.9340000243766235"><ele>1355.0</ele><time>2026-05-03T12:10:05Z</time></trkpt><trkpt lat="44.099889193753434" lon="7.934170667344196"><ele>1354.0</ele><time>2026-05-03T12:10:07Z</time></trkpt><trkpt lat="44.099814225850984" lon="7.934226222934795"><ele>1353.0</ele><time>2026-05-03T12:10:09Z</time></trkpt><trkpt lat="44.09970468658786" lon="7.934241443689784"><ele>1358.1666666666667</ele><time>2026-05-03T12:10:11Z</time></trkpt><trkpt lat="44.0996404814083" lon="7.93429669489663"><ele>1363.3333333333333</ele><time>2026-05-03T12:10:12Z</time></trkpt><trkpt lat="44.099594705841945" lon="7.934362963611282"><ele>1368.5</ele><time>2026-05-03T12:10:13Z</time></trkpt><trkpt lat="44.099529171256904" lon="7.934448251199555"><ele>1373.6666666666665</ele><time>2026-05-03T12:10:14Z</time></trkpt><trkpt lat="44.099461816581254" lon="7.934512878541464"><ele>1378.8333333333333</ele><time>2026-05-03T12:10:15Z</time></trkpt><trkpt lat="44.09940868884757" lon="7.934569698694229"><ele>1384.0</ele><time>2026-05-03T12:10:16Z</time></trkpt><trkpt lat="44.09935792679865" lon="7.934648988702269"><ele>1384.0</ele><time>2026-05-03T12:10:20Z</time></trkpt><trkpt lat="44.09929559472695" lon="7.934678472630852"><ele>1384.0</ele><time>2026-05-03T12:10:25Z</time></trkpt><trkpt lat="44.09921495993063" lon="7.934681400076178"><ele>1384.0</ele><time>2026-05-03T12:10:29Z</time></trkpt><trkpt lat="44.099130042459564" lon="7.934705802731391"><ele>1384.0</ele><time>2026-05-03T12:10:31Z</time></trkpt><trkpt lat="44.09903455539284" lon="7.9347421642130085"><ele>1384.0</ele><time>2026-05-03T12:10:33Z</time></trkpt><trkpt lat="44.09897443519544" lon="7.934778569433684"><ele>1384.0</ele><time>2026-05-03T12:10:34Z</time></trkpt><trkpt lat="44.09889581091934" lon="7.934791914140792"><ele>1378.8000000000002</ele><time>2026-05-03T12:10:35Z</time></trkpt><trkpt lat="44.09883084705082" lon="7.9348071975100325"><ele>1373.6000000000001</ele><time>2026-05-03T12:10:35.999Z</time></trkpt><trkpt lat="44.09874276150848" lon="7.934906682882501"><ele>1368.4</ele><time>2026-05-03T12:10:37.999Z</time></trkpt><trkpt lat="44.09862363926273" lon="7.934935720414515"><ele>1363.2</ele><time>2026-05-03T12:10:39.999Z</time></trkpt><trkpt lat="44.098510611674406" lon="7.934998661399865"><ele>1358.0</ele><time>2026-05-03T12:10:41.999Z</time></trkpt><trkpt lat="44.098434335206846" lon="7.935035498835406"><ele>1359.8000000000002</ele><time>2026-05-03T12:10:42.999Z</time></trkpt><trkpt lat="44.098367288645974" lon="7.935094917354811"><ele>1361.6</ele><time>2026-05-03T12:10:43.999Z</time></trkpt><trkpt lat="44.0982781844036" lon="7.9351549652671105"><ele>1363.4</ele><time>2026-05-03T12:10:45.999Z</time></trkpt><trkpt lat="44.09816760811487" lon="7.935222801384731"><ele>1365.1999999999998</ele><time>2026-05-03T12:10:47.999Z</time></trkpt><trkpt lat="44.09807386705578" lon="7.935234624754376"><ele>1367.0</ele><time>2026-05-03T12:10:49.999Z</time></trkpt><trkpt lat="44.098013012014114" lon="7.935206959775015"><ele>1361.6666666666667</ele><time>2026-05-03T12:10:50.999Z</time></trkpt><trkpt lat="44.09793208540673" lon="7.935202326584739"><ele>1356.3333333333335</ele><time>2026-05-03T12:10:52.999Z</time></trkpt><trkpt lat="44.097903945894245" lon="7.935285032802691"><ele>1351.0</ele><time>2026-05-03T12:10:55.999Z</time></trkpt><trkpt lat="44.09783427664898" lon="7.935377090495274"><ele>1345.6666666666667</ele><time>2026-05-03T12:10:56.999Z</time></trkpt><trkpt lat="44.097781108974495" lon="7.935457323252741"><ele>1340.3333333333333</ele><time>2026-05-03T12:10:58.999Z</time></trkpt><trkpt lat="44.09778860590656" lon="7.935627654625275"><ele>1335.0</ele><time>2026-05-03T12:11:01.999Z</time></trkpt><trkpt lat="44.09780097092415" lon="7.935755225398483"><ele>1335.0</ele><time>2026-05-03T12:11:02.999Z</time></trkpt><trkpt lat="44.09783137272913" lon="7.93587078606689"><ele>1335.0</ele><time>2026-05-03T12:11:03.999Z</time></trkpt><trkpt lat="44.09782934648082" lon="7.935965058021598"><ele>1335.0</ele><time>2026-05-03T12:11:04.999Z</time></trkpt><trkpt lat="44.09784684973882" lon="7.9360690042509985"><ele>1335.0</ele><time>2026-05-03T12:11:05.999Z</time></trkpt><trkpt lat="44.09787061214199" lon="7.936204186417218"><ele>1335.0</ele><time>2026-05-03T12:11:06.999Z</time></trkpt><trkpt lat="44.097903414278896" lon="7.936325221245937"><ele>1335.0</ele><time>2026-05-03T12:11:07.999Z</time></trkpt><trkpt lat="44.09795516414634" lon="7.9363788112245786"><ele>1335.0</ele><time>2026-05-03T12:11:08.999Z</time></trkpt><trkpt lat="44.09792875607722" lon="7.936481087981348"><ele>1335.0</ele><time>2026-05-03T12:11:09.999Z</time></trkpt><trkpt lat="44.09791833463516" lon="7.93659453066461"><ele>1335.0</ele><time>2026-05-03T12:11:10.999Z</time></trkpt><trkpt lat="44.09787680761086" lon="7.936672438868532"><ele>1335.0</ele><time>2026-05-03T12:11:11.999Z</time></trkpt><trkpt lat="44.097795156845" lon="7.936844614821342"><ele>1335.0</ele><time>2026-05-03T12:11:13.999Z</time></trkpt><trkpt lat="44.0977299114286" lon="7.936930006409654"><ele>1335.0</ele><time>2026-05-03T12:11:14.999Z</time></trkpt><trkpt lat="44.09764344975631" lon="7.936995628385719"><ele>1335.0</ele><time>2026-05-03T12:11:16.999Z</time></trkpt><trkpt lat="44.097587686268135" lon="7.937093125204548"><ele>1335.0</ele><time>2026-05-03T12:11:18.999Z</time></trkpt><trkpt lat="44.097550552696255" lon="7.937172152454437"><ele>1335.0</ele><time>2026-05-03T12:11:19.999Z</time></trkpt><trkpt lat="44.09753382815898" lon="7.937311877503271"><ele>1335.0</ele><time>2026-05-03T12:11:23.999Z</time></trkpt><trkpt lat="44.0974973641067" lon="7.9374181321651855"><ele>1335.0</ele><time>2026-05-03T12:11:27.999Z</time></trkpt><trkpt lat="44.09745256498036" lon="7.937493028934273"><ele>1328.2</ele><time>2026-05-03T12:11:29.999Z</time></trkpt><trkpt lat="44.09739548046376" lon="7.937597998319619"><ele>1321.4</ele><time>2026-05-03T12:11:32.999Z</time></trkpt><trkpt lat="44.09730897919725" lon="7.937734362924275"><ele>1314.6</ele><time>2026-05-03T12:11:34.999Z</time></trkpt><trkpt lat="44.09726115394327" lon="7.937847556194197"><ele>1307.8</ele><time>2026-05-03T12:11:35.999Z</time></trkpt><trkpt lat="44.09722201351669" lon="7.937943955872074"><ele>1301.0</ele><time>2026-05-03T12:11:37.999Z</time></trkpt><trkpt lat="44.09722405171637" lon="7.938051476087659"><ele>1298.3333333333335</ele><time>2026-05-03T12:11:38.999Z</time></trkpt><trkpt lat="44.09721730933692" lon="7.938444806481072"><ele>1295.6666666666667</ele><time>2026-05-03T12:11:41.999Z</time></trkpt><trkpt lat="44.09718440437434" lon="7.938623989053849"><ele>1293.0</ele><time>2026-05-03T12:11:43.999Z</time></trkpt><trkpt lat="44.097198999489265" lon="7.938821644451061"><ele>1293.0</ele><time>2026-05-03T12:11:46Z</time></trkpt><trkpt lat="44.097231150630385" lon="7.938933199979612"><ele>1293.0</ele><time>2026-05-03T12:11:47Z</time></trkpt><trkpt lat="44.097272240737354" lon="7.939078469212207"><ele>1293.0</ele><time>2026-05-03T12:11:48Z</time></trkpt><trkpt lat="44.0972871513103" lon="7.93918757308512"><ele>1293.0</ele><time>2026-05-03T12:11:49Z</time></trkpt><trkpt lat="44.09735707634057" lon="7.939324311528063"><ele>1293.0</ele><time>2026-05-03T12:11:50Z</time></trkpt><trkpt lat="44.09739922946717" lon="7.939416440272134"><ele>1299.4</ele><time>2026-05-03T12:11:51Z</time></trkpt><trkpt lat="44.097435467484985" lon="7.939642903661757"><ele>1305.8000000000002</ele><time>2026-05-03T12:11:52Z</time></trkpt><trkpt lat="44.097452673313434" lon="7.939787124240174"><ele>1312.2</ele><time>2026-05-03T12:11:53Z</time></trkpt><trkpt lat="44.09747861666153" lon="7.939895746380702"><ele>1318.6</ele><time>2026-05-03T12:11:54Z</time></trkpt><trkpt lat="44.09751320286043" lon="7.940009688587635"><ele>1325.0</ele><time>2026-05-03T12:11:56Z</time></trkpt><trkpt lat="44.09751941718048" lon="7.940145009004233"><ele>1325.8333333333335</ele><time>2026-05-03T12:11:58Z</time></trkpt><trkpt lat="44.09745005524541" lon="7.940189778466182"><ele>1326.6666666666667</ele><time>2026-05-03T12:12:00Z</time></trkpt><trkpt lat="44.09735615340286" lon="7.940224143738169"><ele>1327.5</ele><time>2026-05-03T12:12:02Z</time></trkpt><trkpt lat="44.09726529270514" lon="7.940281586370693"><ele>1328.3333333333333</ele><time>2026-05-03T12:12:04Z</time></trkpt><trkpt lat="44.09725260424836" lon="7.940379947984769"><ele>1329.1666666666665</ele><time>2026-05-03T12:12:06Z</time></trkpt><trkpt lat="44.09718924140228" lon="7.940444070840193"><ele>1330.0</ele><time>2026-05-03T12:12:08Z</time></trkpt><trkpt lat="44.09713895769503" lon="7.9405176726376965"><ele>1325.1666666666665</ele><time>2026-05-03T12:12:10Z</time></trkpt><trkpt lat="44.097062360000805" lon="7.9406012890599795"><ele>1320.3333333333333</ele><time>2026-05-03T12:12:14Z</time></trkpt><trkpt lat="44.09704557356662" lon="7.940699276660852"><ele>1315.5</ele><time>2026-05-03T12:12:15Z</time></trkpt><trkpt lat="44.09699677212011" lon="7.940755024893452"><ele>1310.6666666666667</ele><time>2026-05-03T12:12:16Z</time></trkpt><trkpt lat="44.09702347787369" lon="7.940869922258221"><ele>1305.8333333333335</ele><time>2026-05-03T12:12:20Z</time></trkpt><trkpt lat="44.096979827595334" lon="7.9410072119646955"><ele>1301.0</ele><time>2026-05-03T12:12:22Z</time></trkpt><trkpt lat="44.09696954383872" lon="7.9411087549191866"><ele>1301.0</ele><time>2026-05-03T12:12:24Z</time></trkpt><trkpt lat="44.09697623533287" lon="7.941236753601341"><ele>1301.0</ele><time>2026-05-03T12:12:26Z</time></trkpt><trkpt lat="44.09688763677395" lon="7.941331753580404"><ele>1301.0</ele><time>2026-05-03T12:12:28Z</time></trkpt><trkpt lat="44.096823414033146" lon="7.941346899980183"><ele>1301.0</ele><time>2026-05-03T12:12:31Z</time></trkpt><trkpt lat="44.096762520880446" lon="7.941299366447341"><ele>1301.0</ele><time>2026-05-03T12:12:54.999Z</time></trkpt><trkpt lat="44.096693902939606" lon="7.941293166494775"><ele>1301.0</ele><time>2026-05-03T12:16:29Z</time></trkpt><trkpt lat="44.0966209434895" lon="7.941414543381989"><ele>1295.6</ele><time>2026-05-03T12:16:31Z</time></trkpt><trkpt lat="44.096539479127706" lon="7.941516170429957"><ele>1290.1999999999998</ele><time>2026-05-03T12:16:33Z</time></trkpt><trkpt lat="44.09647672028182" lon="7.94154390362202"><ele>1284.8000000000002</ele><time>2026-05-03T12:16:34Z</time></trkpt><trkpt lat="44.09637682473965" lon="7.941627697696334"><ele>1279.4</ele><time>2026-05-03T12:16:36Z</time></trkpt><trkpt lat="44.096323174362944" lon="7.941739230266797"><ele>1274.0</ele><time>2026-05-03T12:16:38Z</time></trkpt><trkpt lat="44.09625216768618" lon="7.941832348378049"><ele>1274.0</ele><time>2026-05-03T12:16:40Z</time></trkpt><trkpt lat="44.096164058223835" lon="7.941919278807364"><ele>1274.0</ele><time>2026-05-03T12:16:42Z</time></trkpt><trkpt lat="44.096107408871305" lon="7.941968317912742"><ele>1274.0</ele><time>2026-05-03T12:16:43.999Z</time></trkpt><trkpt lat="44.09604325992579" lon="7.941983849156845"><ele>1274.0</ele><time>2026-05-03T12:16:45.999Z</time></trkpt><trkpt lat="44.09597889418021" lon="7.941987208873941"><ele>1274.0</ele><time>2026-05-03T12:16:47.999Z</time></trkpt><trkpt lat="44.095916875227324" lon="7.942042911347592"><ele>1274.0</ele><time>2026-05-03T12:16:49.999Z</time></trkpt><trkpt lat="44.09590675358276" lon="7.9421426333389"><ele>1274.0</ele><time>2026-05-03T12:16:52.999Z</time></trkpt><trkpt lat="44.095855445283206" lon="7.9421965482781784"><ele>1274.0</ele><time>2026-05-03T12:16:54.999Z</time></trkpt><trkpt lat="44.09582452177183" lon="7.942273471076079"><ele>1274.0</ele><time>2026-05-03T12:16:56.999Z</time></trkpt><trkpt lat="44.09579873565574" lon="7.942376019193397"><ele>1274.0</ele><time>2026-05-03T12:16:59.999Z</time></trkpt><trkpt lat="44.095804338105005" lon="7.94247947505229"><ele>1274.0</ele><time>2026-05-03T12:17:02.999Z</time></trkpt><trkpt lat="44.09582347357231" lon="7.942585335746953"><ele>1274.0</ele><time>2026-05-03T12:17:04.999Z</time></trkpt><trkpt lat="44.09580095501064" lon="7.942687808317747"><ele>1274.0</ele><time>2026-05-03T12:17:06.999Z</time></trkpt><trkpt lat="44.09577577682229" lon="7.94282455039868"><ele>1268.5</ele><time>2026-05-03T12:17:08.999Z</time></trkpt><trkpt lat="44.09571862859715" lon="7.942882458710862"><ele>1263.0</ele><time>2026-05-03T12:17:10.999Z</time></trkpt><trkpt lat="44.095659999708936" lon="7.942994183673172"><ele>1257.5</ele><time>2026-05-03T12:17:13.999Z</time></trkpt><trkpt lat="44.09561953804082" lon="7.943066048253185"><ele>1252.0</ele><time>2026-05-03T12:17:15.999Z</time></trkpt><trkpt lat="44.09555531096487" lon="7.943132669509944"><ele>1246.5</ele><time>2026-05-03T12:17:17.999Z</time></trkpt><trkpt lat="44.095520360261105" lon="7.943206978507527"><ele>1241.0</ele><time>2026-05-03T12:17:19.999Z</time></trkpt><trkpt lat="44.09546576815092" lon="7.943363200057785"><ele>1242.0</ele><time>2026-05-03T12:17:21.999Z</time></trkpt><trkpt lat="44.09539541419079" lon="7.943433953183677"><ele>1243.0</ele><time>2026-05-03T12:17:22.999Z</time></trkpt><trkpt lat="44.09530911697802" lon="7.9435389384471"><ele>1244.0</ele><time>2026-05-03T12:17:24.999Z</time></trkpt><trkpt lat="44.09526880591049" lon="7.943637915705912"><ele>1245.0</ele><time>2026-05-03T12:17:27.999Z</time></trkpt><trkpt lat="44.0950562419627" lon="7.943844437905962"><ele>1245.0</ele><time>2026-05-03T12:17:28.999Z</time></trkpt><trkpt lat="44.09497668071319" lon="7.943898654248155"><ele>1245.0</ele><time>2026-05-03T12:17:30.999Z</time></trkpt><trkpt lat="44.09493613186746" lon="7.9439811295983915"><ele>1245.0</ele><time>2026-05-03T12:17:32.999Z</time></trkpt><trkpt lat="44.094927784509785" lon="7.9441035217393665"><ele>1245.0</ele><time>2026-05-03T12:17:34.999Z</time></trkpt><trkpt lat="44.09492058088271" lon="7.944219377561133"><ele>1245.0</ele><time>2026-05-03T12:17:36.999Z</time></trkpt><trkpt lat="44.09492753228914" lon="7.944339845050972"><ele>1245.0</ele><time>2026-05-03T12:17:38.999Z</time></trkpt><trkpt lat="44.094940435740234" lon="7.944506249934609"><ele>1243.3333333333333</ele><time>2026-05-03T12:17:40.999Z</time></trkpt><trkpt lat="44.09491306289142" lon="7.944656347889913"><ele>1241.6666666666667</ele><time>2026-05-03T12:17:42.999Z</time></trkpt><trkpt lat="44.09486844895651" lon="7.944762651308798"><ele>1240.0</ele><time>2026-05-03T12:17:44.999Z</time></trkpt><trkpt lat="44.09479303407689" lon="7.944795581489327"><ele>1238.3333333333335</ele><time>2026-05-03T12:17:47.999Z</time></trkpt><trkpt lat="44.09474500598771" lon="7.944732177950003"><ele>1236.6666666666667</ele><time>2026-05-03T12:17:48.999Z</time></trkpt><trkpt lat="44.09469472824604" lon="7.944669001524122"><ele>1235.0</ele><time>2026-05-03T12:17:53.999Z</time></trkpt><trkpt lat="44.094636423617935" lon="7.944627626131781"><ele>1235.0</ele><time>2026-05-03T12:17:58.999Z</time></trkpt><trkpt lat="44.09453753106134" lon="7.944642418021811"><ele>1235.0</ele><time>2026-05-03T12:18:01.999Z</time></trkpt><trkpt lat="44.094447171088476" lon="7.9445947215453625"><ele>1235.0</ele><time>2026-05-03T12:18:04Z</time></trkpt><trkpt lat="44.09434196097965" lon="7.9445598781825835"><ele>1235.0</ele><time>2026-05-03T12:18:06Z</time></trkpt><trkpt lat="44.094272987240785" lon="7.944593921818526"><ele>1235.0</ele><time>2026-05-03T12:18:09Z</time></trkpt><trkpt lat="44.09422549953315" lon="7.944659229968348"><ele>1235.0</ele><time>2026-05-03T12:18:11Z</time></trkpt><trkpt lat="44.09416976025287" lon="7.944730743622665"><ele>1235.0</ele><time>2026-05-03T12:18:14Z</time></trkpt><trkpt lat="44.0941055101473" lon="7.944790295642467"><ele>1235.0</ele><time>2026-05-03T12:18:17Z</time></trkpt><trkpt lat="44.094056478072815" lon="7.944851101379157"><ele>1235.0</ele><time>2026-05-03T12:18:20Z</time></trkpt><trkpt lat="44.09399914074128" lon="7.944888509230337"><ele>1235.0</ele><time>2026-05-03T12:18:21Z</time></trkpt><trkpt lat="44.093915201575456" lon="7.944945135309464"><ele>1235.0</ele><time>2026-05-03T12:18:27Z</time></trkpt><trkpt lat="44.09384668380995" lon="7.944901041680377"><ele>1235.0</ele><time>2026-05-03T12:18:30Z</time></trkpt><trkpt lat="44.093771424540314" lon="7.9448598672675255"><ele>1232.6666666666667</ele><time>2026-05-03T12:18:32Z</time></trkpt><trkpt lat="44.0936964554176" lon="7.944846224221401"><ele>1230.3333333333335</ele><time>2026-05-03T12:18:34Z</time></trkpt><trkpt lat="44.09362919095879" lon="7.944846205015397"><ele>1228.0</ele><time>2026-05-03T12:18:36Z</time></trkpt><trkpt lat="44.09355989288633" lon="7.944843162465977"><ele>1225.6666666666667</ele><time>2026-05-03T12:18:44Z</time></trkpt><trkpt lat="44.09347757231176" lon="7.944819575806295"><ele>1223.3333333333333</ele><time>2026-05-03T12:18:53Z</time></trkpt><trkpt lat="44.09340742486104" lon="7.944752206926413"><ele>1221.0</ele><time>2026-05-03T12:18:55Z</time></trkpt><trkpt lat="44.09332040144537" lon="7.944721046468826"><ele>1219.0</ele><time>2026-05-03T12:18:57Z</time></trkpt><trkpt lat="44.09324230484526" lon="7.94462811603233"><ele>1217.0</ele><time>2026-05-03T12:18:59Z</time></trkpt><trkpt lat="44.09313701167951" lon="7.944541975065857"><ele>1215.0</ele><time>2026-05-03T12:19:01Z</time></trkpt><trkpt lat="44.09307015713698" lon="7.944509608339517"><ele>1213.0</ele><time>2026-05-03T12:19:01.999Z</time></trkpt><trkpt lat="44.093012145547895" lon="7.9444751956512185"><ele>1211.0</ele><time>2026-05-03T12:19:02.999Z</time></trkpt><trkpt lat="44.092896489934866" lon="7.944457488064347"><ele>1211.0</ele><time>2026-05-03T12:19:04.999Z</time></trkpt><trkpt lat="44.09282544263891" lon="7.944464994200941"><ele>1211.0</ele><time>2026-05-03T12:19:05.999Z</time></trkpt><trkpt lat="44.0927609035191" lon="7.944473426536348"><ele>1211.0</ele><time>2026-05-03T12:19:06.999Z</time></trkpt><trkpt lat="44.092690830667" lon="7.944482526072267"><ele>1211.0</ele><time>2026-05-03T12:19:08.999Z</time></trkpt><trkpt lat="44.0926141344272" lon="7.944412094955444"><ele>1211.0</ele><time>2026-05-03T12:19:10.999Z</time></trkpt><trkpt lat="44.092526498392154" lon="7.944310450963828"><ele>1211.0</ele><time>2026-05-03T12:19:12.999Z</time></trkpt><trkpt lat="44.09245946560543" lon="7.944270046528153"><ele>1207.6666666666667</ele><time>2026-05-03T12:19:14.999Z</time></trkpt><trkpt lat="44.09238609129581" lon="7.94420169990392"><ele>1204.3333333333335</ele><time>2026-05-03T12:19:18.999Z</time></trkpt><trkpt lat="44.09232816403391" lon="7.944102498401658"><ele>1201.0</ele><time>2026-05-03T12:19:21.999Z</time></trkpt><trkpt lat="44.09225704958711" lon="7.944069361505216"><ele>1197.6666666666667</ele><time>2026-05-03T12:19:23.999Z</time></trkpt><trkpt lat="44.09219539533679" lon="7.943979210238832"><ele>1194.3333333333333</ele><time>2026-05-03T12:19:26.999Z</time></trkpt><trkpt lat="44.09213394496107" lon="7.943929160134555"><ele>1191.0</ele><time>2026-05-03T12:19:28.999Z</time></trkpt><trkpt lat="44.09206884301848" lon="7.943926163807313"><ele>1191.0</ele><time>2026-05-03T12:19:30.999Z</time></trkpt><trkpt lat="44.092000891129985" lon="7.9438442295584295"><ele>1191.0</ele><time>2026-05-03T12:19:32.999Z</time></trkpt><trkpt lat="44.091489798103225" lon="7.943424898721836"><ele>1188.0</ele><time>2026-05-03T12:19:34.999Z</time></trkpt><trkpt lat="44.09142875795166" lon="7.94339604061651"><ele>1185.0</ele><time>2026-05-03T12:19:35.999Z</time></trkpt><trkpt lat="44.09136851630465" lon="7.943358566337322"><ele>1182.0</ele><time>2026-05-03T12:19:36.999Z</time></trkpt><trkpt lat="44.0913036359513" lon="7.943335214323348"><ele>1179.0</ele><time>2026-05-03T12:19:37.999Z</time></trkpt><trkpt lat="44.09119431728483" lon="7.943282080056024"><ele>1176.0</ele><time>2026-05-03T12:19:39.999Z</time></trkpt><trkpt lat="44.091126011771365" lon="7.943282102333933"><ele>1173.0</ele><time>2026-05-03T12:19:40.999Z</time></trkpt><trkpt lat="44.09105037112526" lon="7.943309259760891"><ele>1171.8333333333333</ele><time>2026-05-03T12:19:41.999Z</time></trkpt><trkpt lat="44.090985269338354" lon="7.943270703644145"><ele>1170.6666666666667</ele><time>2026-05-03T12:19:42.999Z</time></trkpt><trkpt lat="44.090922215876446" lon="7.943230999986023"><ele>1169.5</ele><time>2026-05-03T12:19:43.999Z</time></trkpt><trkpt lat="44.090792051523316" lon="7.943231940200524"><ele>1168.3333333333335</ele><time>2026-05-03T12:19:45.999Z</time></trkpt><trkpt lat="44.09072619671973" lon="7.943228966184816"><ele>1167.1666666666667</ele><time>2026-05-03T12:19:46.999Z</time></trkpt><trkpt lat="44.09062993222987" lon="7.943154234981071"><ele>1166.0</ele><time>2026-05-03T12:19:48.999Z</time></trkpt><trkpt lat="44.090535274972304" lon="7.943283977524007"><ele>1163.2</ele><time>2026-05-03T12:19:50.999Z</time></trkpt><trkpt lat="44.09043661323526" lon="7.943302102174708"><ele>1160.3999999999999</ele><time>2026-05-03T12:19:52.999Z</time></trkpt><trkpt lat="44.090344179464374" lon="7.943333934155295"><ele>1157.6</ele><time>2026-05-03T12:19:55.999Z</time></trkpt><trkpt lat="44.09027582501855" lon="7.943379294329877"><ele>1154.8</ele><time>2026-05-03T12:19:58.999Z</time></trkpt><trkpt lat="44.09021666741247" lon="7.943448209592947"><ele>1152.0</ele><time>2026-05-03T12:20:02.999Z</time></trkpt><trkpt lat="44.09012578433869" lon="7.943554156325357"><ele>1152.0</ele><time>2026-05-03T12:20:06.999Z</time></trkpt><trkpt lat="44.09007307864041" lon="7.94366663873788"><ele>1152.0</ele><time>2026-05-03T12:20:11Z</time></trkpt><trkpt lat="44.09005821771952" lon="7.943766080799207"><ele>1152.0</ele><time>2026-05-03T12:20:14Z</time></trkpt><trkpt lat="44.09001172560446" lon="7.943827016741864"><ele>1152.0</ele><time>2026-05-03T12:20:16Z</time></trkpt><trkpt lat="44.089530607008825" lon="7.9444181315448"><ele>1148.5</ele><time>2026-05-03T12:20:20Z</time></trkpt><trkpt lat="44.08946338718623" lon="7.944572410536907"><ele>1145.0</ele><time>2026-05-03T12:20:22Z</time></trkpt><trkpt lat="44.089433558291915" lon="7.944670675002544"><ele>1141.5</ele><time>2026-05-03T12:20:23Z</time></trkpt><trkpt lat="44.08942227327402" lon="7.94476482378823"><ele>1138.0</ele><time>2026-05-03T12:20:24Z</time></trkpt><trkpt lat="44.089378908993666" lon="7.944843971879351"><ele>1134.5</ele><time>2026-05-03T12:20:25Z</time></trkpt><trkpt lat="44.08934124453545" lon="7.944931868156701"><ele>1131.0</ele><time>2026-05-03T12:20:26Z</time></trkpt><trkpt lat="44.08934348466929" lon="7.945091459414247"><ele>1130.8</ele><time>2026-05-03T12:20:28Z</time></trkpt><trkpt lat="44.089232397414456" lon="7.945190812733088"><ele>1130.6</ele><time>2026-05-03T12:20:31Z</time></trkpt><trkpt lat="44.089127570668445" lon="7.945089636476681"><ele>1130.4</ele><time>2026-05-03T12:20:33Z</time></trkpt><trkpt lat="44.08906410739664" lon="7.945056777745483"><ele>1130.2</ele><time>2026-05-03T12:20:34Z</time></trkpt><trkpt lat="44.0890144091846" lon="7.944903936648787"><ele>1130.0</ele><time>2026-05-03T12:20:36Z</time></trkpt><trkpt lat="44.08898817437646" lon="7.944760464695319"><ele>1125.0</ele><time>2026-05-03T12:20:38Z</time></trkpt><trkpt lat="44.08903467600749" lon="7.9446765079484125"><ele>1120.0</ele><time>2026-05-03T12:20:39Z</time></trkpt><trkpt lat="44.08893940939677" lon="7.944638839719997"><ele>1115.0</ele><time>2026-05-03T12:20:40Z</time></trkpt><trkpt lat="44.088875773645405" lon="7.944588597454174"><ele>1110.0</ele><time>2026-05-03T12:20:41Z</time></trkpt><trkpt lat="44.089007739500246" lon="7.944525234504027"><ele>1105.0</ele><time>2026-05-03T12:20:42Z</time></trkpt><trkpt lat="44.088898652388416" lon="7.944586187608834"><ele>1105.0</ele><time>2026-05-03T12:20:44Z</time></trkpt><trkpt lat="44.08883324007406" lon="7.944634650623326"><ele>1105.0</ele><time>2026-05-03T12:20:45Z</time></trkpt><trkpt lat="44.0887649415325" lon="7.94468413987016"><ele>1105.0</ele><time>2026-05-03T12:20:46Z</time></trkpt><trkpt lat="44.088682522409606" lon="7.944727602780314"><ele>1105.0</ele><time>2026-05-03T12:20:48Z</time></trkpt><trkpt lat="44.088609345412564" lon="7.9447545102222925"><ele>1105.0</ele><time>2026-05-03T12:20:50Z</time></trkpt><trkpt lat="44.08852966582001" lon="7.944811928824992"><ele>1105.0</ele><time>2026-05-03T12:20:52Z</time></trkpt><trkpt lat="44.08845740425357" lon="7.944902998365855"><ele>1105.0</ele><time>2026-05-03T12:20:54Z</time></trkpt><trkpt lat="44.08836797595795" lon="7.945010644570515"><ele>1105.0</ele><time>2026-05-03T12:20:56Z</time></trkpt><trkpt lat="44.08831207992188" lon="7.945057524935192"><ele>1105.0</ele><time>2026-05-03T12:20:57Z</time></trkpt><trkpt lat="44.08825939477435" lon="7.945137226936011"><ele>1105.0</ele><time>2026-05-03T12:20:58Z</time></trkpt><trkpt lat="44.0882087030622" lon="7.945197768728914"><ele>1105.0</ele><time>2026-05-03T12:20:59Z</time></trkpt><trkpt lat="44.088156068629274" lon="7.945259280335119"><ele>1105.0</ele><time>2026-05-03T12:21:00Z</time></trkpt><trkpt lat="44.088095278962854" lon="7.945306491176551"><ele>1101.6</ele><time>2026-05-03T12:21:01Z</time></trkpt><trkpt lat="44.08803476163653" lon="7.945383751323175"><ele>1098.2</ele><time>2026-05-03T12:21:02Z</time></trkpt><trkpt lat="44.08799003754571" lon="7.945472990291984"><ele>1094.8</ele><time>2026-05-03T12:21:03Z</time></trkpt><trkpt lat="44.08795009366215" lon="7.945558767382598"><ele>1091.4</ele><time>2026-05-03T12:21:04Z</time></trkpt><trkpt lat="44.08789270994145" lon="7.945724855697106"><ele>1088.0</ele><time>2026-05-03T12:21:06Z</time></trkpt><trkpt lat="44.08789085196336" lon="7.945844239029669"><ele>1085.4</ele><time>2026-05-03T12:21:07Z</time></trkpt><trkpt lat="44.08789307182383" lon="7.945992147839209"><ele>1082.8</ele><time>2026-05-03T12:21:09Z</time></trkpt><trkpt lat="44.08783155356931" lon="7.946076559611336"><ele>1080.2</ele><time>2026-05-03T12:21:11Z</time></trkpt><trkpt lat="44.08776415863077" lon="7.946082135274284"><ele>1077.6</ele><time>2026-05-03T12:21:12Z</time></trkpt><trkpt lat="44.0876514818433" lon="7.946007046283646"><ele>1075.0</ele><time>2026-05-03T12:21:12.999Z</time></trkpt><trkpt lat="44.08752718964813" lon="7.945967401634427"><ele>1072.4</ele><time>2026-05-03T12:21:14.999Z</time></trkpt><trkpt lat="44.087422034821216" lon="7.945937853875211"><ele>1069.8</ele><time>2026-05-03T12:21:16.999Z</time></trkpt><trkpt lat="44.08732154953806" lon="7.945911792158526"><ele>1067.2</ele><time>2026-05-03T12:21:18.999Z</time></trkpt><trkpt lat="44.087303199607256" lon="7.945781605515273"><ele>1064.6</ele><time>2026-05-03T12:21:21.999Z</time></trkpt><trkpt lat="44.0872818017609" lon="7.945669230845458"><ele>1062.0</ele><time>2026-05-03T12:21:24.999Z</time></trkpt><trkpt lat="44.08726785810106" lon="7.945550680773269"><ele>1062.0</ele><time>2026-05-03T12:21:26.999Z</time></trkpt><trkpt lat="44.08721070621229" lon="7.945295948671425"><ele>1062.0</ele><time>2026-05-03T12:21:27.999Z</time></trkpt><trkpt lat="44.08722091385675" lon="7.945171494933443"><ele>1062.0</ele><time>2026-05-03T12:21:29.999Z</time></trkpt><trkpt lat="44.087266320192356" lon="7.945077700116116"><ele>1062.0</ele><time>2026-05-03T12:21:31.999Z</time></trkpt><trkpt lat="44.08732695490429" lon="7.945031563255087"><ele>1062.0</ele><time>2026-05-03T12:21:33.999Z</time></trkpt><trkpt lat="44.08738775933361" lon="7.944956021109794"><ele>1059.2</ele><time>2026-05-03T12:21:37.999Z</time></trkpt><trkpt lat="44.08743302457554" lon="7.944873589453623"><ele>1056.4</ele><time>2026-05-03T12:21:39.999Z</time></trkpt><trkpt lat="44.08748893829519" lon="7.944802398740323"><ele>1053.6</ele><time>2026-05-03T12:21:42.999Z</time></trkpt><trkpt lat="44.08742313085981" lon="7.944729336158191"><ele>1050.8</ele><time>2026-05-03T12:21:45.999Z</time></trkpt><trkpt lat="44.087278033834636" lon="7.944788263925888"><ele>1048.0</ele><time>2026-05-03T12:21:47.999Z</time></trkpt><trkpt lat="44.08719508492096" lon="7.944817599638072"><ele>1048.0</ele><time>2026-05-03T12:21:48.999Z</time></trkpt><trkpt lat="44.08712510169135" lon="7.944833078089381"><ele>1048.0</ele><time>2026-05-03T12:21:49.999Z</time></trkpt><trkpt lat="44.087060623498765" lon="7.944883255984269"><ele>1048.0</ele><time>2026-05-03T12:21:50.999Z</time></trkpt><trkpt lat="44.086990013233915" lon="7.944929705972386"><ele>1048.0</ele><time>2026-05-03T12:21:51.999Z</time></trkpt><trkpt lat="44.08692022039476" lon="7.944970238651985"><ele>1048.0</ele><time>2026-05-03T12:21:52.999Z</time></trkpt><trkpt lat="44.086835386026266" lon="7.945076168101206"><ele>1048.0</ele><time>2026-05-03T12:21:54.999Z</time></trkpt><trkpt lat="44.08675610892495" lon="7.945172253526777"><ele>1045.4</ele><time>2026-05-03T12:21:56.999Z</time></trkpt><trkpt lat="44.08666259211439" lon="7.9452363074979075"><ele>1042.8</ele><time>2026-05-03T12:21:58.999Z</time></trkpt><trkpt lat="44.08655704939505" lon="7.945272613434757"><ele>1040.2</ele><time>2026-05-03T12:22:00.999Z</time></trkpt><trkpt lat="44.08647524548407" lon="7.94532193583309"><ele>1037.6</ele><time>2026-05-03T12:22:04.999Z</time></trkpt><trkpt lat="44.08638484407198" lon="7.945345966125222"><ele>1035.0</ele><time>2026-05-03T12:22:06.999Z</time></trkpt><trkpt lat="44.08629177730022" lon="7.9453561469072485"><ele>1035.0</ele><time>2026-05-03T12:22:08.999Z</time></trkpt><trkpt lat="44.08621914492589" lon="7.945413678287055"><ele>1035.0</ele><time>2026-05-03T12:22:11.999Z</time></trkpt><trkpt lat="44.08616632833455" lon="7.945505753749979"><ele>1035.0</ele><time>2026-05-03T12:22:14.999Z</time></trkpt><trkpt lat="44.08609947315399" lon="7.945579151445667"><ele>1035.0</ele><time>2026-05-03T12:22:18Z</time></trkpt><trkpt lat="44.08606424893097" lon="7.945667569613834"><ele>1035.0</ele><time>2026-05-03T12:22:20Z</time></trkpt><trkpt lat="44.0859994028497" lon="7.945661289400088"><ele>1035.0</ele><time>2026-05-03T12:22:23Z</time></trkpt><trkpt lat="44.085919851532225" lon="7.945692450675654"><ele>1035.0</ele><time>2026-05-03T12:22:28Z</time></trkpt><trkpt lat="44.08585816197373" lon="7.945727472626583"><ele>1035.0</ele><time>2026-05-03T12:22:33Z</time></trkpt><trkpt lat="44.08578680948652" lon="7.945686674922909"><ele>1035.0</ele><time>2026-05-03T12:22:37Z</time></trkpt><trkpt lat="44.085730847648136" lon="7.945634970894296"><ele>1035.0</ele><time>2026-05-03T12:22:39Z</time></trkpt><trkpt lat="44.085691484448716" lon="7.9455659423398"><ele>1035.0</ele><time>2026-05-03T12:22:40Z</time></trkpt><trkpt lat="44.085643514981946" lon="7.9455060928907875"><ele>1035.0</ele><time>2026-05-03T12:22:41Z</time></trkpt><trkpt lat="44.08554465744259" lon="7.945458467418489"><ele>1035.0</ele><time>2026-05-03T12:22:43Z</time></trkpt><trkpt lat="44.08547829198844" lon="7.945465192171026"><ele>1031.3333333333333</ele><time>2026-05-03T12:22:44Z</time></trkpt><trkpt lat="44.08542261875213" lon="7.945508570105493"><ele>1027.6666666666667</ele><time>2026-05-03T12:22:45Z</time></trkpt><trkpt lat="44.08534561359961" lon="7.945583750898867"><ele>1024.0</ele><time>2026-05-03T12:22:46Z</time></trkpt><trkpt lat="44.085286187449505" lon="7.9456411671848866"><ele>1020.3333333333334</ele><time>2026-05-03T12:22:47Z</time></trkpt><trkpt lat="44.08524078081697" lon="7.945713049626354"><ele>1016.6666666666667</ele><time>2026-05-03T12:22:48Z</time></trkpt><trkpt lat="44.08512176615101" lon="7.945769741152163"><ele>1013.0</ele><time>2026-05-03T12:22:50Z</time></trkpt><trkpt lat="44.08504012042234" lon="7.945769777820549"><ele>1010.2</ele><time>2026-05-03T12:22:51Z</time></trkpt><trkpt lat="44.08491192437486" lon="7.945758196919714"><ele>1007.4</ele><time>2026-05-03T12:22:53Z</time></trkpt><trkpt lat="44.08484120590648" lon="7.94574567026296"><ele>1004.6000000000001</ele><time>2026-05-03T12:22:54Z</time></trkpt><trkpt lat="44.08473797060325" lon="7.945712452277434"><ele>1001.8000000000001</ele><time>2026-05-03T12:22:56Z</time></trkpt><trkpt lat="44.08462450411139" lon="7.945673163038132"><ele>999.0</ele><time>2026-05-03T12:22:58Z</time></trkpt><trkpt lat="44.08450329097454" lon="7.9456568231197116"><ele>999.0</ele><time>2026-05-03T12:23:00Z</time></trkpt><trkpt lat="44.0843941666171" lon="7.945606792314713"><ele>999.0000000000001</ele><time>2026-05-03T12:23:02Z</time></trkpt><trkpt lat="44.084268881638984" lon="7.945565369112402"><ele>999.0000000000001</ele><time>2026-05-03T12:23:04Z</time></trkpt><trkpt lat="44.08419273257385" lon="7.9454768160543585"><ele>999.0</ele><time>2026-05-03T12:23:06Z</time></trkpt><trkpt lat="44.084112572982356" lon="7.945381493484741"><ele>999.0</ele><time>2026-05-03T12:23:08Z</time></trkpt><trkpt lat="44.08399448744849" lon="7.945314617038627"><ele>997.0</ele><time>2026-05-03T12:23:10Z</time></trkpt><trkpt lat="44.08392969489403" lon="7.9452960912317705"><ele>995.0000000000001</ele><time>2026-05-03T12:23:11Z</time></trkpt><trkpt lat="44.083819359771596" lon="7.9452040481985735"><ele>993.0000000000001</ele><time>2026-05-03T12:23:12.999Z</time></trkpt><trkpt lat="44.083701334973995" lon="7.945131941602452"><ele>991.0</ele><time>2026-05-03T12:23:14.999Z</time></trkpt><trkpt lat="44.083594220059176" lon="7.945076229269375"><ele>989.0</ele><time>2026-05-03T12:23:16.999Z</time></trkpt><trkpt lat="44.083496115073935" lon="7.945033148376235"><ele>989.0</ele><time>2026-05-03T12:23:18.999Z</time></trkpt><trkpt lat="44.08339393405617" lon="7.945043292791299"><ele>989.0000000000001</ele><time>2026-05-03T12:23:20.999Z</time></trkpt><trkpt lat="44.083299657827304" lon="7.945062412471077"><ele>989.0000000000001</ele><time>2026-05-03T12:23:22.999Z</time></trkpt><trkpt lat="44.08319999975632" lon="7.945102489052"><ele>989.0</ele><time>2026-05-03T12:23:26.999Z</time></trkpt><trkpt lat="44.08311801523839" lon="7.945158284083227"><ele>989.0</ele><time>2026-05-03T12:23:28.999Z</time></trkpt><trkpt lat="44.08299892222653" lon="7.945138457888649"><ele>984.25</ele><time>2026-05-03T12:23:30.999Z</time></trkpt><trkpt lat="44.082914600952634" lon="7.945107502145779"><ele>979.5</ele><time>2026-05-03T12:23:32.999Z</time></trkpt><trkpt lat="44.08284427663868" lon="7.945077141542211"><ele>974.75</ele><time>2026-05-03T12:23:33.999Z</time></trkpt><trkpt lat="44.08263241059268" lon="7.945025477757844"><ele>970.0</ele><time>2026-05-03T12:23:37.999Z</time></trkpt><trkpt lat="44.082508653304465" lon="7.9450184122541785"><ele>969.9999999999999</ele><time>2026-05-03T12:23:39.999Z</time></trkpt><trkpt lat="44.08244565982909" lon="7.945018983789641"><ele>970.0</ele><time>2026-05-03T12:23:40.999Z</time></trkpt><trkpt lat="44.08238125079643" lon="7.9450162418291415"><ele>970.0</ele><time>2026-05-03T12:23:41.999Z</time></trkpt><trkpt lat="44.082317113738924" lon="7.945011189647032"><ele>970.0</ele><time>2026-05-03T12:23:42.999Z</time></trkpt><trkpt lat="44.08221744033403" lon="7.94502298707641"><ele>969.9999999999999</ele><time>2026-05-03T12:23:44.999Z</time></trkpt><trkpt lat="44.082152892357584" lon="7.945028886457279"><ele>970.0</ele><time>2026-05-03T12:23:46.999Z</time></trkpt><trkpt lat="44.08201131104917" lon="7.945011927364962"><ele>968.1666666666666</ele><time>2026-05-03T12:23:48.999Z</time></trkpt><trkpt lat="44.08195845984801" lon="7.944955371345269"><ele>966.3333333333333</ele><time>2026-05-03T12:23:49.999Z</time></trkpt><trkpt lat="44.08191836965439" lon="7.944880956486913"><ele>964.5</ele><time>2026-05-03T12:23:50.999Z</time></trkpt><trkpt lat="44.08189933018083" lon="7.944782052853125"><ele>962.6666666666667</ele><time>2026-05-03T12:23:52.999Z</time></trkpt><trkpt lat="44.08183751214667" lon="7.944718004626783"><ele>960.8333333333334</ele><time>2026-05-03T12:23:54.999Z</time></trkpt><trkpt lat="44.08176732223556" lon="7.944656236635509"><ele>959.0</ele><time>2026-05-03T12:23:56.999Z</time></trkpt><trkpt lat="44.081671358388924" lon="7.944587970395655"><ele>956.5000000000001</ele><time>2026-05-03T12:23:58.999Z</time></trkpt><trkpt lat="44.081584158073944" lon="7.9446146596452225"><ele>954.0</ele><time>2026-05-03T12:24:00.999Z</time></trkpt><trkpt lat="44.08150519357115" lon="7.944640066539758"><ele>951.5</ele><time>2026-05-03T12:24:03.999Z</time></trkpt><trkpt lat="44.08142616644498" lon="7.944635247745226"><ele>949.0</ele><time>2026-05-03T12:24:04.999Z</time></trkpt><trkpt lat="44.081335285570944" lon="7.944613385603128"><ele>946.5000000000001</ele><time>2026-05-03T12:24:06.999Z</time></trkpt><trkpt lat="44.08124914359479" lon="7.94457263176076"><ele>944.0</ele><time>2026-05-03T12:24:08.999Z</time></trkpt><trkpt lat="44.08116695435414" lon="7.9445463113989385"><ele>944.0</ele><time>2026-05-03T12:24:10.999Z</time></trkpt><trkpt lat="44.08107815771114" lon="7.944533320034777"><ele>944.0000000000001</ele><time>2026-05-03T12:24:12.999Z</time></trkpt><trkpt lat="44.080994576867255" lon="7.944527786103739"><ele>944.0000000000001</ele><time>2026-05-03T12:24:14.999Z</time></trkpt><trkpt lat="44.08090777519891" lon="7.94452662977589"><ele>944.0</ele><time>2026-05-03T12:24:16.999Z</time></trkpt><trkpt lat="44.08079105045805" lon="7.944554887800877"><ele>944.0</ele><time>2026-05-03T12:24:18.999Z</time></trkpt><trkpt lat="44.08070375452354" lon="7.944646961938885"><ele>939.8000000000001</ele><time>2026-05-03T12:24:20.999Z</time></trkpt><trkpt lat="44.08063775675981" lon="7.944841050049096"><ele>935.6000000000001</ele><time>2026-05-03T12:24:23Z</time></trkpt><trkpt lat="44.08055782561939" lon="7.944891072802186"><ele>931.4</ele><time>2026-05-03T12:24:25Z</time></trkpt><trkpt lat="44.08051533988303" lon="7.944958138460177"><ele>927.2</ele><time>2026-05-03T12:24:29Z</time></trkpt><trkpt lat="44.08043956993329" lon="7.944896269509391"><ele>923.0</ele><time>2026-05-03T12:24:32Z</time></trkpt><trkpt lat="44.08036441288883" lon="7.944897227101868"><ele>923.0000000000001</ele><time>2026-05-03T12:24:35Z</time></trkpt><trkpt lat="44.080294012020985" lon="7.944960549756728"><ele>923.0</ele><time>2026-05-03T12:24:38Z</time></trkpt><trkpt lat="44.08023752854499" lon="7.9450041212085285"><ele>923.0</ele><time>2026-05-03T12:24:41Z</time></trkpt><trkpt lat="44.08016733104335" lon="7.945047750086569"><ele>923.0</ele><time>2026-05-03T12:25:21.999Z</time></trkpt><trkpt lat="44.080211959235825" lon="7.944969557480042"><ele>923.0000000000001</ele><time>2026-05-03T12:26:01.999Z</time></trkpt><trkpt lat="44.0801231560039" lon="7.945057204058535"><ele>923.0</ele><time>2026-05-03T12:26:33Z</time></trkpt><trkpt lat="44.08001708132523" lon="7.945041348059501"><ele>923.0000000000001</ele><time>2026-05-03T12:26:35Z</time></trkpt><trkpt lat="44.07995801600668" lon="7.9449683921107095"><ele>923.0</ele><time>2026-05-03T12:26:36Z</time></trkpt><trkpt lat="44.07988225676801" lon="7.944882519547788"><ele>923.0</ele><time>2026-05-03T12:26:37Z</time></trkpt><trkpt lat="44.07982106028776" lon="7.944808149198508"><ele>923.0</ele><time>2026-05-03T12:26:38Z</time></trkpt><trkpt lat="44.07976376925995" lon="7.944751257811924"><ele>923.0000000000001</ele><time>2026-05-03T12:26:39Z</time></trkpt><trkpt lat="44.07969467630228" lon="7.944735484071861"><ele>923.0</ele><time>2026-05-03T12:26:40Z</time></trkpt><trkpt lat="44.07964897516507" lon="7.944933318450272"><ele>920.0</ele><time>2026-05-03T12:26:41Z</time></trkpt><trkpt lat="44.07951928847543" lon="7.944978730064394"><ele>917.0</ele><time>2026-05-03T12:26:43Z</time></trkpt><trkpt lat="44.079430021216886" lon="7.945029086598442"><ele>914.0</ele><time>2026-05-03T12:26:44Z</time></trkpt><trkpt lat="44.07929308742331" lon="7.945021223873952"><ele>911.0</ele><time>2026-05-03T12:26:45Z</time></trkpt><trkpt lat="44.07914957265926" lon="7.945018135952745"><ele>911.75</ele><time>2026-05-03T12:26:46Z</time></trkpt><trkpt lat="44.079031413204845" lon="7.945019506797628"><ele>912.5</ele><time>2026-05-03T12:26:47Z</time></trkpt><trkpt lat="44.07892493106323" lon="7.945013430624724"><ele>913.25</ele><time>2026-05-03T12:26:49Z</time></trkpt><trkpt lat="44.07885827492266" lon="7.945003359162098"><ele>914.0</ele><time>2026-05-03T12:26:51Z</time></trkpt><trkpt lat="44.07887564947167" lon="7.944756346375192"><ele>914.0000000000001</ele><time>2026-05-03T12:26:56Z</time></trkpt><trkpt lat="44.07899678820793" lon="7.944689133430398"><ele>914.0</ele><time>2026-05-03T12:26:58Z</time></trkpt><trkpt lat="44.07907393954737" lon="7.944667209054917"><ele>914.0</ele><time>2026-05-03T12:27:01Z</time></trkpt><trkpt lat="44.079068609961894" lon="7.944575312500101"><ele>914.0</ele><time>2026-05-03T12:28:42Z</time></trkpt><trkpt lat="44.07903286965826" lon="7.944495554815971"><ele>914.0000000000001</ele><time>2026-05-03T12:28:47Z</time></trkpt><trkpt lat="44.079086164172715" lon="7.944559522349654"><ele>914.0</ele><time>2026-05-03T12:29:37.999Z</time></trkpt><trkpt lat="44.07910015619515" lon="7.944653530864382"><ele>914.0</ele><time>2026-05-03T12:36:22.999Z</time></trkpt><trkpt lat="44.07900803822055" lon="7.944648966850752"><ele>914.0000000000001</ele><time>2026-05-03T12:39:32Z</time></trkpt><trkpt lat="44.078951412903244" lon="7.944699756443593"><ele>914.0000000000001</ele><time>2026-05-03T12:39:33Z</time></trkpt><trkpt lat="44.07884074662576" lon="7.944769044569968"><ele>914.0</ele><time>2026-05-03T12:39:35Z</time></trkpt><trkpt lat="44.07873669382363" lon="7.944831057138257"><ele>914.0</ele><time>2026-05-03T12:39:37Z</time></trkpt><trkpt lat="44.07867394562504" lon="7.944844105772136"><ele>914.0000000000001</ele><time>2026-05-03T12:39:38Z</time></trkpt><trkpt lat="44.07860757114457" lon="7.944845174942268"><ele>914.0</ele><time>2026-05-03T12:39:39Z</time></trkpt><trkpt lat="44.078529337145" lon="7.944909939396111"><ele>914.0000000000001</ele><time>2026-05-03T12:39:40Z</time></trkpt><trkpt lat="44.07846497540012" lon="7.944893897378834"><ele>914.0000000000001</ele><time>2026-05-03T12:39:41Z</time></trkpt><trkpt lat="44.07839658405655" lon="7.94487685099495"><ele>914.0</ele><time>2026-05-03T12:39:42Z</time></trkpt><trkpt lat="44.078324901196" lon="7.944857845135331"><ele>914.0000000000001</ele><time>2026-05-03T12:39:43Z</time></trkpt><trkpt lat="44.07824561711651" lon="7.944824448496051"><ele>914.0000000000001</ele><time>2026-05-03T12:39:44Z</time></trkpt><trkpt lat="44.07816662502988" lon="7.944773419689453"><ele>913.6</ele><time>2026-05-03T12:39:45Z</time></trkpt><trkpt lat="44.07804787801594" lon="7.944705448054195"><ele>913.2</ele><time>2026-05-03T12:39:47Z</time></trkpt><trkpt lat="44.07798366676719" lon="7.944678104060685"><ele>912.8000000000001</ele><time>2026-05-03T12:39:48Z</time></trkpt><trkpt lat="44.077920980269404" lon="7.944659342287464"><ele>912.4000000000001</ele><time>2026-05-03T12:39:49Z</time></trkpt><trkpt lat="44.07779742013559" lon="7.94465559301159"><ele>912.0</ele><time>2026-05-03T12:39:51Z</time></trkpt><trkpt lat="44.07772117102656" lon="7.944647388183207"><ele>912.0</ele><time>2026-05-03T12:39:52Z</time></trkpt><trkpt lat="44.07764610958557" lon="7.944626442564571"><ele>912.0</ele><time>2026-05-03T12:39:53Z</time></trkpt><trkpt lat="44.077570124135875" lon="7.944597349210223"><ele>912.0</ele><time>2026-05-03T12:39:54Z</time></trkpt><trkpt lat="44.07746816751111" lon="7.944537044800151"><ele>912.0</ele><time>2026-05-03T12:39:55Z</time></trkpt><trkpt lat="44.07740310485693" lon="7.9444731083329225"><ele>912.0</ele><time>2026-05-03T12:39:56Z</time></trkpt><trkpt lat="44.07731201543863" lon="7.944379549104032"><ele>914.3333333333333</ele><time>2026-05-03T12:39:58Z</time></trkpt><trkpt lat="44.07722734977026" lon="7.944292587791542"><ele>916.6666666666666</ele><time>2026-05-03T12:39:59.999Z</time></trkpt><trkpt lat="44.07737625010583" lon="7.943944802654728"><ele>919.0</ele><time>2026-05-03T12:40:00.999Z</time></trkpt><trkpt lat="44.07733389216147" lon="7.943771620235087"><ele>925.4999999999999</ele><time>2026-05-03T12:40:02.999Z</time></trkpt><trkpt lat="44.07727857092363" lon="7.943678776560221"><ele>932.0</ele><time>2026-05-03T12:40:03.999Z</time></trkpt><trkpt lat="44.077224690620014" lon="7.943592555480169"><ele>938.5</ele><time>2026-05-03T12:40:04.999Z</time></trkpt><trkpt lat="44.07716536661419" lon="7.9435230124625535"><ele>945.0</ele><time>2026-05-03T12:40:05.999Z</time></trkpt><trkpt lat="44.077112584904555" lon="7.943451393146694"><ele>951.4999999999999</ele><time>2026-05-03T12:40:06.999Z</time></trkpt><trkpt lat="44.07705818538622" lon="7.943378607165761"><ele>958.0</ele><time>2026-05-03T12:40:07.999Z</time></trkpt><trkpt lat="44.077005502867245" lon="7.943287032075743"><ele>959.8333333333333</ele><time>2026-05-03T12:40:08.999Z</time></trkpt><trkpt lat="44.07695186614159" lon="7.943186036661944"><ele>961.6666666666666</ele><time>2026-05-03T12:40:09.999Z</time></trkpt><trkpt lat="44.076896102481335" lon="7.943097471118102"><ele>963.5</ele><time>2026-05-03T12:40:10.999Z</time></trkpt><trkpt lat="44.07683833643282" lon="7.943002649408488"><ele>965.3333333333333</ele><time>2026-05-03T12:40:11.999Z</time></trkpt><trkpt lat="44.07679252364793" lon="7.9428940804830805"><ele>967.1666666666666</ele><time>2026-05-03T12:40:12.999Z</time></trkpt><trkpt lat="44.07675571931091" lon="7.9427919113223036"><ele>969.0</ele><time>2026-05-03T12:40:13.999Z</time></trkpt><trkpt lat="44.076724187430294" lon="7.942691280933818"><ele>969.0</ele><time>2026-05-03T12:40:14.999Z</time></trkpt><trkpt lat="44.0766985455193" lon="7.942576334105629"><ele>969.0000000000001</ele><time>2026-05-03T12:40:15.999Z</time></trkpt><trkpt lat="44.07667184579715" lon="7.942481027771691"><ele>969.0000000000001</ele><time>2026-05-03T12:40:16.999Z</time></trkpt><trkpt lat="44.076585230910844" lon="7.942343041025776"><ele>969.0</ele><time>2026-05-03T12:40:18.999Z</time></trkpt><trkpt lat="44.07652391803226" lon="7.942266018894304"><ele>969.0</ele><time>2026-05-03T12:40:19.999Z</time></trkpt><trkpt lat="44.07647113872875" lon="7.942185451950639"><ele>975.9999999999999</ele><time>2026-05-03T12:40:20.999Z</time></trkpt><trkpt lat="44.076429036683635" lon="7.9420843226756865"><ele>983.0</ele><time>2026-05-03T12:40:21.999Z</time></trkpt><trkpt lat="44.076401664536114" lon="7.9419924932071755"><ele>989.9999999999999</ele><time>2026-05-03T12:40:22.999Z</time></trkpt><trkpt lat="44.0763608452578" lon="7.9419009455624465"><ele>996.9999999999999</ele><time>2026-05-03T12:40:23.999Z</time></trkpt><trkpt lat="44.07630230529635" lon="7.941839724578277"><ele>1004.0</ele><time>2026-05-03T12:40:24.999Z</time></trkpt><trkpt lat="44.07624145180981" lon="7.941798001892419"><ele>1010.9999999999999</ele><time>2026-05-03T12:40:25.999Z</time></trkpt><trkpt lat="44.076176302041674" lon="7.9417635401593705"><ele>1017.9999999999999</ele><time>2026-05-03T12:40:26.999Z</time></trkpt><trkpt lat="44.07611302370966" lon="7.941719578014059"><ele>1018.6666666666666</ele><time>2026-05-03T12:40:27.999Z</time></trkpt><trkpt lat="44.07605647983839" lon="7.9416659424746125"><ele>1019.3333333333333</ele><time>2026-05-03T12:40:28.999Z</time></trkpt><trkpt lat="44.075992245415094" lon="7.941618891587678"><ele>1020.0</ele><time>2026-05-03T12:40:29.999Z</time></trkpt><trkpt lat="44.075932930381924" lon="7.941582121279698"><ele>1020.6666666666667</ele><time>2026-05-03T12:40:30.999Z</time></trkpt><trkpt lat="44.07583321866339" lon="7.941490867643532"><ele>1021.3333333333334</ele><time>2026-05-03T12:40:32.999Z</time></trkpt><trkpt lat="44.075794575750166" lon="7.941356102140785"><ele>1022.0</ele><time>2026-05-03T12:40:34.999Z</time></trkpt><trkpt lat="44.075702812334804" lon="7.941203850427217"><ele>1022.0000000000001</ele><time>2026-05-03T12:40:36.999Z</time></trkpt><trkpt lat="44.07565974573004" lon="7.94111258373833"><ele>1022.0</ele><time>2026-05-03T12:40:37.999Z</time></trkpt><trkpt lat="44.07562444580359" lon="7.941014939261142"><ele>1022.0</ele><time>2026-05-03T12:40:38.999Z</time></trkpt><trkpt lat="44.07558842821735" lon="7.940925914584792"><ele>1022.0</ele><time>2026-05-03T12:40:39.999Z</time></trkpt><trkpt lat="44.07553853272187" lon="7.940865939982487"><ele>1022.0000000000001</ele><time>2026-05-03T12:40:40.999Z</time></trkpt><trkpt lat="44.07549287366" lon="7.940784137353228"><ele>1022.0</ele><time>2026-05-03T12:40:41.999Z</time></trkpt><trkpt lat="44.07545058597888" lon="7.9406898462511535"><ele>1018.0000000000001</ele><time>2026-05-03T12:40:42.999Z</time></trkpt><trkpt lat="44.075409439416894" lon="7.940589489158772"><ele>1014.0</ele><time>2026-05-03T12:40:44.999Z</time></trkpt><trkpt lat="44.07533853571834" lon="7.94055128567483"><ele>1010.0</ele><time>2026-05-03T12:40:50.999Z</time></trkpt><trkpt lat="44.07522768363019" lon="7.94052269445455"><ele>1006.0</ele><time>2026-05-03T12:41:20Z</time></trkpt><trkpt lat="44.075160691129824" lon="7.940508264387093"><ele>1002.0000000000001</ele><time>2026-05-03T12:41:21Z</time></trkpt><trkpt lat="44.07508971443603" lon="7.940509609456851"><ele>998.0</ele><time>2026-05-03T12:41:22Z</time></trkpt><trkpt lat="44.07502196600812" lon="7.940521645222481"><ele>998.0000000000001</ele><time>2026-05-03T12:41:23Z</time></trkpt><trkpt lat="44.07495097702754" lon="7.940545241652337"><ele>998.0</ele><time>2026-05-03T12:41:24Z</time></trkpt><trkpt lat="44.07488168216823" lon="7.940560606105613"><ele>998.0</ele><time>2026-05-03T12:41:25Z</time></trkpt><trkpt lat="44.07480051069859" lon="7.940550234060232"><ele>998.0</ele><time>2026-05-03T12:41:26Z</time></trkpt><trkpt lat="44.07471622604875" lon="7.940540254316336"><ele>998.0000000000001</ele><time>2026-05-03T12:41:27Z</time></trkpt><trkpt lat="44.074636176666964" lon="7.94054419309008"><ele>998.0</ele><time>2026-05-03T12:41:28Z</time></trkpt><trkpt lat="44.074554247238225" lon="7.940544758744151"><ele>997.0000000000001</ele><time>2026-05-03T12:41:29Z</time></trkpt><trkpt lat="44.074472271676825" lon="7.940541910808601"><ele>996.0</ele><time>2026-05-03T12:41:30Z</time></trkpt><trkpt lat="44.07440066049753" lon="7.9405467537330345"><ele>995.0</ele><time>2026-05-03T12:41:31Z</time></trkpt><trkpt lat="44.07430495202485" lon="7.940608634380335"><ele>994.0</ele><time>2026-05-03T12:41:33Z</time></trkpt><trkpt lat="44.0742231161134" lon="7.940548520414955"><ele>993.0000000000001</ele><time>2026-05-03T12:41:34Z</time></trkpt><trkpt lat="44.07415754772924" lon="7.940532292164545"><ele>992.0</ele><time>2026-05-03T12:41:35Z</time></trkpt><trkpt lat="44.07405002650296" lon="7.940512591729555"><ele>991.8571428571429</ele><time>2026-05-03T12:41:37Z</time></trkpt><trkpt lat="44.07397168519432" lon="7.9404655051584845"><ele>991.7142857142858</ele><time>2026-05-03T12:41:40Z</time></trkpt><trkpt lat="44.073916214216375" lon="7.9403922033065415"><ele>991.5714285714287</ele><time>2026-05-03T12:41:41Z</time></trkpt><trkpt lat="44.07386402421532" lon="7.940332124699338"><ele>991.4285714285716</ele><time>2026-05-03T12:41:42Z</time></trkpt><trkpt lat="44.07381379616864" lon="7.940264734153075"><ele>991.2857142857143</ele><time>2026-05-03T12:41:43Z</time></trkpt><trkpt lat="44.073758605347905" lon="7.940219113830415"><ele>991.1428571428573</ele><time>2026-05-03T12:41:44Z</time></trkpt><trkpt lat="44.07368117545326" lon="7.940171841104678"><ele>991.0000000000001</ele><time>2026-05-03T12:41:45Z</time></trkpt><trkpt lat="44.073606175987386" lon="7.940150947348991"><ele>990.9999999999999</ele><time>2026-05-03T12:41:46Z</time></trkpt><trkpt lat="44.07353185130719" lon="7.940143534518012"><ele>991.0</ele><time>2026-05-03T12:41:47Z</time></trkpt><trkpt lat="44.07345201867948" lon="7.940143545621617"><ele>991.0</ele><time>2026-05-03T12:41:48Z</time></trkpt><trkpt lat="44.07337115205555" lon="7.940131611356937"><ele>991.0</ele><time>2026-05-03T12:41:49Z</time></trkpt><trkpt lat="44.073298670620105" lon="7.9401035292739905"><ele>990.9999999999999</ele><time>2026-05-03T12:41:50Z</time></trkpt><trkpt lat="44.073231674450035" lon="7.940064750479908"><ele>991.0</ele><time>2026-05-03T12:41:51Z</time></trkpt><trkpt lat="44.073134602835815" lon="7.9399603755882895"><ele>987.1999999999999</ele><time>2026-05-03T12:41:53Z</time></trkpt><trkpt lat="44.07308911323102" lon="7.93989908570463"><ele>983.3999999999999</ele><time>2026-05-03T12:41:54Z</time></trkpt><trkpt lat="44.07303599743619" lon="7.939789739819241"><ele>979.6</ele><time>2026-05-03T12:41:56Z</time></trkpt><trkpt lat="44.07292668715883" lon="7.9397630786692215"><ele>975.8</ele><time>2026-05-03T12:41:58Z</time></trkpt><trkpt lat="44.072852113254804" lon="7.939783097047579"><ele>972.0</ele><time>2026-05-03T12:42:00Z</time></trkpt><trkpt lat="44.07270866896208" lon="7.939837392732984"><ele>972.0</ele><time>2026-05-03T12:42:01.999Z</time></trkpt><trkpt lat="44.07263387818802" lon="7.939863847706881"><ele>972.0</ele><time>2026-05-03T12:42:02.999Z</time></trkpt><trkpt lat="44.07249757800482" lon="7.939868369599064"><ele>972.0</ele><time>2026-05-03T12:42:04.999Z</time></trkpt><trkpt lat="44.07243477181661" lon="7.939827226738064"><ele>972.0</ele><time>2026-05-03T12:42:05.999Z</time></trkpt><trkpt lat="44.07236470643604" lon="7.939794257244074"><ele>972.0</ele><time>2026-05-03T12:42:06.999Z</time></trkpt><trkpt lat="44.072314154095025" lon="7.939671693332716"><ele>974.3333333333334</ele><time>2026-05-03T12:42:08.999Z</time></trkpt><trkpt lat="44.072263135102425" lon="7.939599659536998"><ele>976.6666666666667</ele><time>2026-05-03T12:42:09.999Z</time></trkpt><trkpt lat="44.07221520758986" lon="7.939529447759876"><ele>979.0</ele><time>2026-05-03T12:42:10.999Z</time></trkpt><trkpt lat="44.07216877586561" lon="7.939428487651494"><ele>981.3333333333334</ele><time>2026-05-03T12:42:11.999Z</time></trkpt><trkpt lat="44.07210969006229" lon="7.939341070596792"><ele>983.6666666666667</ele><time>2026-05-03T12:42:12.999Z</time></trkpt><trkpt lat="44.072028812557235" lon="7.939248927782079"><ele>986.0</ele><time>2026-05-03T12:42:13.999Z</time></trkpt><trkpt lat="44.071952751426" lon="7.939143950908204"><ele>982.4</ele><time>2026-05-03T12:42:14.999Z</time></trkpt><trkpt lat="44.071874002645075" lon="7.939054535925029"><ele>978.8</ele><time>2026-05-03T12:42:15.999Z</time></trkpt><trkpt lat="44.071790951188525" lon="7.938963446535344"><ele>975.1999999999999</ele><time>2026-05-03T12:42:16.999Z</time></trkpt><trkpt lat="44.07171094335089" lon="7.938883641739804"><ele>971.5999999999999</ele><time>2026-05-03T12:42:17.999Z</time></trkpt><trkpt lat="44.07165089897035" lon="7.938816038518272"><ele>968.0</ele><time>2026-05-03T12:42:18.999Z</time></trkpt><trkpt lat="44.07151699737163" lon="7.938739263064214"><ele>968.0</ele><time>2026-05-03T12:42:20.999Z</time></trkpt><trkpt lat="44.07141056343322" lon="7.938737542734752"><ele>968.0</ele><time>2026-05-03T12:42:22.999Z</time></trkpt><trkpt lat="44.071413439139214" lon="7.938632344758896"><ele>968.0</ele><time>2026-05-03T12:42:24.999Z</time></trkpt><trkpt lat="44.07151657662975" lon="7.93857640498619"><ele>968.0</ele><time>2026-05-03T12:42:26.999Z</time></trkpt><trkpt lat="44.07158702562193" lon="7.938534504832708"><ele>968.0</ele><time>2026-05-03T12:42:27.999Z</time></trkpt><trkpt lat="44.07170433016033" lon="7.938504592929746"><ele>965.2</ele><time>2026-05-03T12:42:29.999Z</time></trkpt><trkpt lat="44.07180595649915" lon="7.938475581833679"><ele>962.4</ele><time>2026-05-03T12:42:31.999Z</time></trkpt><trkpt lat="44.07192677782923" lon="7.9384456284511975"><ele>959.6000000000001</ele><time>2026-05-03T12:42:33.999Z</time></trkpt><trkpt lat="44.072031560645605" lon="7.938421877644892"><ele>956.8000000000001</ele><time>2026-05-03T12:42:35.999Z</time></trkpt><trkpt lat="44.0721480272822" lon="7.938428205085262"><ele>954.0</ele><time>2026-05-03T12:42:37.999Z</time></trkpt><trkpt lat="44.07221196898318" lon="7.938419023801683"><ele>954.0</ele><time>2026-05-03T12:42:38.999Z</time></trkpt><trkpt lat="44.07231772829182" lon="7.938398684793933"><ele>954.0</ele><time>2026-05-03T12:42:40.999Z</time></trkpt><trkpt lat="44.07243231889207" lon="7.938377821368306"><ele>954.0</ele><time>2026-05-03T12:42:42.999Z</time></trkpt><trkpt lat="44.072493405060136" lon="7.938410102551056"><ele>954.0</ele><time>2026-05-03T12:42:43.999Z</time></trkpt><trkpt lat="44.07255888521936" lon="7.938449375394338"><ele>954.0</ele><time>2026-05-03T12:42:44.999Z</time></trkpt><trkpt lat="44.07264300478713" lon="7.938491599518353"><ele>954.0</ele><time>2026-05-03T12:42:46.999Z</time></trkpt><trkpt lat="44.072700292721386" lon="7.9384040590134415"><ele>949.8000000000001</ele><time>2026-05-03T12:42:50.999Z</time></trkpt><trkpt lat="44.07265564228715" lon="7.938308709851132"><ele>945.6000000000001</ele><time>2026-05-03T12:42:53.999Z</time></trkpt><trkpt lat="44.072625026291256" lon="7.938226323066605"><ele>941.4</ele><time>2026-05-03T12:42:54.999Z</time></trkpt><trkpt lat="44.07259146288501" lon="7.938129844983934"><ele>937.2</ele><time>2026-05-03T12:42:56.999Z</time></trkpt><trkpt lat="44.07248324739638" lon="7.937949596793177"><ele>933.0</ele><time>2026-05-03T12:42:59.999Z</time></trkpt><trkpt lat="44.072412799803956" lon="7.937864484104399"><ele>933.0</ele><time>2026-05-03T12:43:01.999Z</time></trkpt><trkpt lat="44.07235684933665" lon="7.937767706856143"><ele>933.0</ele><time>2026-05-03T12:43:03.999Z</time></trkpt><trkpt lat="44.07229367010691" lon="7.937755254094259"><ele>933.0</ele><time>2026-05-03T12:43:05.999Z</time></trkpt><trkpt lat="44.07220193150798" lon="7.937766024604165"><ele>933.0</ele><time>2026-05-03T12:43:07.999Z</time></trkpt><trkpt lat="44.07212359889978" lon="7.93776246098308"><ele>933.0</ele><time>2026-05-03T12:43:09.999Z</time></trkpt><trkpt lat="44.07200550408046" lon="7.937787844599662"><ele>933.0</ele><time>2026-05-03T12:43:11.999Z</time></trkpt><trkpt lat="44.07192398206375" lon="7.937804276420951"><ele>933.0</ele><time>2026-05-03T12:43:13.999Z</time></trkpt><trkpt lat="44.07182662144772" lon="7.9378111821912585"><ele>933.0</ele><time>2026-05-03T12:43:16Z</time></trkpt><trkpt lat="44.071751087242866" lon="7.937805599489077"><ele>933.0</ele><time>2026-05-03T12:43:19Z</time></trkpt><trkpt lat="44.07165786007788" lon="7.937824111396565"><ele>933.0</ele><time>2026-05-03T12:43:21Z</time></trkpt><trkpt lat="44.07155221150578" lon="7.937803546578818"><ele>933.0</ele><time>2026-05-03T12:43:23Z</time></trkpt><trkpt lat="44.07147638901704" lon="7.937802145696866"><ele>934.3333333333334</ele><time>2026-05-03T12:43:26Z</time></trkpt><trkpt lat="44.07140316578742" lon="7.937783084344375"><ele>935.6666666666667</ele><time>2026-05-03T12:43:28Z</time></trkpt><trkpt lat="44.07133981876441" lon="7.937775866582852"><ele>937.0</ele><time>2026-05-03T12:43:29Z</time></trkpt><trkpt lat="44.07127563117611" lon="7.937795834418261"><ele>938.3333333333334</ele><time>2026-05-03T12:43:31Z</time></trkpt><trkpt lat="44.071194966559766" lon="7.937782238727957"><ele>939.6666666666667</ele><time>2026-05-03T12:43:34Z</time></trkpt><trkpt lat="44.071123917329935" lon="7.937807000670943"><ele>941.0</ele><time>2026-05-03T12:43:36Z</time></trkpt><trkpt lat="44.07099909105116" lon="7.937814028981773"><ele>941.0</ele><time>2026-05-03T12:43:38Z</time></trkpt><trkpt lat="44.07092003072126" lon="7.937789391756937"><ele>940.9999999999999</ele><time>2026-05-03T12:43:39Z</time></trkpt><trkpt lat="44.07084690187092" lon="7.937751544630786"><ele>940.9999999999999</ele><time>2026-05-03T12:43:40Z</time></trkpt><trkpt lat="44.07073106367743" lon="7.937723764719064"><ele>941.0</ele><time>2026-05-03T12:43:42Z</time></trkpt><trkpt lat="44.07063372492019" lon="7.937679781712246"><ele>941.0</ele><time>2026-05-03T12:43:44Z</time></trkpt><trkpt lat="44.07056571680271" lon="7.937588050970288"><ele>942.6666666666667</ele><time>2026-05-03T12:43:49Z</time></trkpt><trkpt lat="44.07047501566539" lon="7.937565751374141"><ele>944.3333333333334</ele><time>2026-05-03T12:43:54Z</time></trkpt><trkpt lat="44.070404451586036" lon="7.937539981278449"><ele>946.0</ele><time>2026-05-03T12:43:57Z</time></trkpt><trkpt lat="44.07032456956597" lon="7.937535486457993"><ele>947.6666666666667</ele><time>2026-05-03T12:44:00Z</time></trkpt><trkpt lat="44.07023907001975" lon="7.9375794531928285"><ele>949.3333333333334</ele><time>2026-05-03T12:44:02Z</time></trkpt><trkpt lat="44.070177838644895" lon="7.937608213848912"><ele>951.0</ele><time>2026-05-03T12:44:04Z</time></trkpt><trkpt lat="44.0701084579333" lon="7.937640808834173"><ele>951.0</ele><time>2026-05-03T12:44:06.999Z</time></trkpt><trkpt lat="44.07001154954581" lon="7.937626396567183"><ele>951.0</ele><time>2026-05-03T12:44:08.999Z</time></trkpt><trkpt lat="44.069927380727314" lon="7.937596501703288"><ele>951.0</ele><time>2026-05-03T12:44:10.999Z</time></trkpt><trkpt lat="44.06985626330201" lon="7.937641789796"><ele>951.0</ele><time>2026-05-03T12:44:13.999Z</time></trkpt><trkpt lat="44.06977861918315" lon="7.937666844753008"><ele>951.0</ele><time>2026-05-03T12:44:25.999Z</time></trkpt><trkpt lat="44.06972437937008" lon="7.937610309243767"><ele>951.0</ele><time>2026-05-03T12:44:33.999Z</time></trkpt><trkpt lat="44.069673976633915" lon="7.937518121469795"><ele>949.4</ele><time>2026-05-03T12:44:37.999Z</time></trkpt><trkpt lat="44.069604781826435" lon="7.937487341698804"><ele>947.8</ele><time>2026-05-03T12:44:45.999Z</time></trkpt><trkpt lat="44.06949683867466" lon="7.937453054192821"><ele>946.1999999999999</ele><time>2026-05-03T12:45:16.999Z</time></trkpt><trkpt lat="44.06942208165752" lon="7.937330317057064"><ele>944.5999999999999</ele><time>2026-05-03T12:45:19.999Z</time></trkpt><trkpt lat="44.06933795812678" lon="7.937287851834912"><ele>943.0</ele><time>2026-05-03T12:45:22Z</time></trkpt><trkpt lat="44.06926655577395" lon="7.9372197578245824"><ele>942.9999999999999</ele><time>2026-05-03T12:45:25Z</time></trkpt><trkpt lat="44.06923330520317" lon="7.9371176557937355"><ele>943.0</ele><time>2026-05-03T12:45:31Z</time></trkpt><trkpt lat="44.06925666687539" lon="7.937033845908547"><ele>943.0</ele><time>2026-05-03T12:45:33Z</time></trkpt><trkpt lat="44.06923751880795" lon="7.936942366102274"><ele>943.0</ele><time>2026-05-03T12:45:35Z</time></trkpt><trkpt lat="44.06921861759292" lon="7.936851587336001"><ele>942.9999999999999</ele><time>2026-05-03T12:45:37Z</time></trkpt><trkpt lat="44.06926258312576" lon="7.936747092690001"><ele>943.0</ele><time>2026-05-03T12:45:39Z</time></trkpt><trkpt lat="44.06932205154173" lon="7.936630140966985"><ele>941.4999999999999</ele><time>2026-05-03T12:45:41Z</time></trkpt><trkpt lat="44.06933587424161" lon="7.936503182273193"><ele>940.0</ele><time>2026-05-03T12:45:43Z</time></trkpt><trkpt lat="44.0693102786862" lon="7.936415830763246"><ele>938.5</ele><time>2026-05-03T12:45:44Z</time></trkpt><trkpt lat="44.06928015950805" lon="7.936337641102109"><ele>937.0</ele><time>2026-05-03T12:45:45Z</time></trkpt><trkpt lat="44.06924711756142" lon="7.936258886082682"><ele>935.4999999999999</ele><time>2026-05-03T12:45:46Z</time></trkpt><trkpt lat="44.06921897008765" lon="7.936088150107234"><ele>934.0</ele><time>2026-05-03T12:45:48Z</time></trkpt><trkpt lat="44.069231527066684" lon="7.9359393818904636"><ele>936.4000000000001</ele><time>2026-05-03T12:45:50Z</time></trkpt><trkpt lat="44.06926642455686" lon="7.935793680977336"><ele>938.8000000000001</ele><time>2026-05-03T12:45:52Z</time></trkpt><trkpt lat="44.06931606814205" lon="7.935681255256108"><ele>941.1999999999999</ele><time>2026-05-03T12:45:54Z</time></trkpt><trkpt lat="44.069375288360575" lon="7.93560293504211"><ele>943.5999999999999</ele><time>2026-05-03T12:45:56Z</time></trkpt><trkpt lat="44.0694620848514" lon="7.935534703611437"><ele>946.0</ele><time>2026-05-03T12:45:58Z</time></trkpt><trkpt lat="44.06952829040065" lon="7.935485751956789"><ele>945.9999999999999</ele><time>2026-05-03T12:45:59Z</time></trkpt><trkpt lat="44.06959059299937" lon="7.93547042754939"><ele>946.0</ele><time>2026-05-03T12:46:00Z</time></trkpt><trkpt lat="44.06968698823305" lon="7.935420936089475"><ele>946.0</ele><time>2026-05-03T12:46:02Z</time></trkpt><trkpt lat="44.06973024294498" lon="7.935349009450251"><ele>946.0</ele><time>2026-05-03T12:46:03Z</time></trkpt><trkpt lat="44.06975666489802" lon="7.935261157447922"><ele>945.9999999999999</ele><time>2026-05-03T12:46:04Z</time></trkpt><trkpt lat="44.06976406601127" lon="7.935087093687041"><ele>946.0</ele><time>2026-05-03T12:46:06Z</time></trkpt><trkpt lat="44.06975708395671" lon="7.93498323530918"><ele>946.2857142857143</ele><time>2026-05-03T12:46:07Z</time></trkpt><trkpt lat="44.0697438470482" lon="7.934876271809604"><ele>946.5714285714284</ele><time>2026-05-03T12:46:08Z</time></trkpt><trkpt lat="44.06975265406719" lon="7.9347747792369985"><ele>946.8571428571428</ele><time>2026-05-03T12:46:09Z</time></trkpt><trkpt lat="44.06977847615593" lon="7.934684945397724"><ele>947.1428571428571</ele><time>2026-05-03T12:46:10Z</time></trkpt><trkpt lat="44.06982564794209" lon="7.934618166819172"><ele>947.4285714285713</ele><time>2026-05-03T12:46:11Z</time></trkpt><trkpt lat="44.06988688377145" lon="7.934554444332709"><ele>947.7142857142856</ele><time>2026-05-03T12:46:12Z</time></trkpt><trkpt lat="44.06995577051949" lon="7.93449982449379"><ele>947.9999999999999</ele><time>2026-05-03T12:46:13Z</time></trkpt><trkpt lat="44.07001275077421" lon="7.934443577113435"><ele>942.6666666666666</ele><time>2026-05-03T12:46:14Z</time></trkpt><trkpt lat="44.0700876517332" lon="7.934410368702642"><ele>937.3333333333333</ele><time>2026-05-03T12:46:15Z</time></trkpt><trkpt lat="44.07015599460968" lon="7.934391136273255"><ele>932.0</ele><time>2026-05-03T12:46:16Z</time></trkpt><trkpt lat="44.07022743425691" lon="7.934355534941612"><ele>926.6666666666666</ele><time>2026-05-03T12:46:17Z</time></trkpt><trkpt lat="44.07028382065479" lon="7.93430105107903"><ele>921.3333333333333</ele><time>2026-05-03T12:46:18Z</time></trkpt><trkpt lat="44.070331064534365" lon="7.934174333055024"><ele>916.0</ele><time>2026-05-03T12:46:20Z</time></trkpt><trkpt lat="44.07033676439283" lon="7.934086348408141"><ele>915.9999999999999</ele><time>2026-05-03T12:46:20.999Z</time></trkpt><trkpt lat="44.070313414641454" lon="7.933957561301007"><ele>916.0</ele><time>2026-05-03T12:46:22.999Z</time></trkpt><trkpt lat="44.070262355973306" lon="7.933905400213694"><ele>916.0</ele><time>2026-05-03T12:46:23.999Z</time></trkpt><trkpt lat="44.07020506843294" lon="7.933865247504166"><ele>916.0</ele><time>2026-05-03T12:46:24.999Z</time></trkpt><trkpt lat="44.070122196597545" lon="7.933879688600522"><ele>915.9999999999999</ele><time>2026-05-03T12:46:26.999Z</time></trkpt><trkpt lat="44.06999781817464" lon="7.933822689753976"><ele>916.0</ele><time>2026-05-03T12:46:29.999Z</time></trkpt><trkpt lat="44.069949952721785" lon="7.9337416560579"><ele>918.5999999999999</ele><time>2026-05-03T12:46:30.999Z</time></trkpt><trkpt lat="44.0698570986513" lon="7.933692987199843"><ele>921.1999999999999</ele><time>2026-05-03T12:46:31.999Z</time></trkpt><trkpt lat="44.069804039308075" lon="7.933636722847282"><ele>923.8000000000001</ele><time>2026-05-03T12:46:32.999Z</time></trkpt><trkpt lat="44.06973210506863" lon="7.933513974882341"><ele>926.4000000000001</ele><time>2026-05-03T12:46:34.999Z</time></trkpt><trkpt lat="44.06961601492631" lon="7.933480349155966"><ele>929.0</ele><time>2026-05-03T12:46:36.999Z</time></trkpt><trkpt lat="44.06958018718211" lon="7.933402158200318"><ele>923.2</ele><time>2026-05-03T12:46:37.999Z</time></trkpt><trkpt lat="44.06949585299762" lon="7.933256873707078"><ele>917.4000000000001</ele><time>2026-05-03T12:46:39.999Z</time></trkpt><trkpt lat="44.06942789564325" lon="7.933181203443946"><ele>911.6</ele><time>2026-05-03T12:46:40.999Z</time></trkpt><trkpt lat="44.0693892835691" lon="7.9330887341128635"><ele>905.8</ele><time>2026-05-03T12:46:41.999Z</time></trkpt><trkpt lat="44.06937463423817" lon="7.932998316789638"><ele>900.0</ele><time>2026-05-03T12:46:42.999Z</time></trkpt><trkpt lat="44.06929639239869" lon="7.9329342279157"><ele>900.0</ele><time>2026-05-03T12:46:44.999Z</time></trkpt><trkpt lat="44.06935736647394" lon="7.932878882604601"><ele>900.0</ele><time>2026-05-03T12:46:49.999Z</time></trkpt><trkpt lat="44.06937876230307" lon="7.932977910631356"><ele>900.0</ele><time>2026-05-03T12:48:28.999Z</time></trkpt><trkpt lat="44.06945017332276" lon="7.932908807191063"><ele>900.0</ele><time>2026-05-03T12:48:30.999Z</time></trkpt><trkpt lat="44.06945561093849" lon="7.93281629927"><ele>900.0</ele><time>2026-05-03T12:48:31.999Z</time></trkpt><trkpt lat="44.069449896530344" lon="7.9327021654746614"><ele>900.0</ele><time>2026-05-03T12:48:32.999Z</time></trkpt><trkpt lat="44.06944663963438" lon="7.932597683075393"><ele>900.0</ele><time>2026-05-03T12:48:33.999Z</time></trkpt><trkpt lat="44.06944274279342" lon="7.932498223550918"><ele>900.0</ele><time>2026-05-03T12:48:34.999Z</time></trkpt><trkpt lat="44.06937467699411" lon="7.932403146001805"><ele>900.0</ele><time>2026-05-03T12:48:36.999Z</time></trkpt><trkpt lat="44.06926249223675" lon="7.93247001022238"><ele>900.0</ele><time>2026-05-03T12:48:38.999Z</time></trkpt><trkpt lat="44.06919599732249" lon="7.932532392383605"><ele>900.0</ele><time>2026-05-03T12:48:39.999Z</time></trkpt><trkpt lat="44.06915081284257" lon="7.932599531445252"><ele>900.0</ele><time>2026-05-03T12:48:40.999Z</time></trkpt><trkpt lat="44.06911523444385" lon="7.93268863555887"><ele>896.6666666666666</ele><time>2026-05-03T12:48:41.999Z</time></trkpt><trkpt lat="44.06906305982125" lon="7.93279332377631"><ele>893.3333333333333</ele><time>2026-05-03T12:48:42.999Z</time></trkpt><trkpt lat="44.06898834608713" lon="7.932880326334413"><ele>890.0</ele><time>2026-05-03T12:48:43.999Z</time></trkpt><trkpt lat="44.06890050153378" lon="7.932957480432897"><ele>886.6666666666666</ele><time>2026-05-03T12:48:44.999Z</time></trkpt><trkpt lat="44.0688415046726" lon="7.933028113992394"><ele>883.3333333333333</ele><time>2026-05-03T12:48:45.999Z</time></trkpt><trkpt lat="44.06878950900989" lon="7.933088848458652"><ele>880.0</ele><time>2026-05-03T12:48:46.999Z</time></trkpt><trkpt lat="44.06868321490333" lon="7.9330648817056675"><ele>879.9999999999999</ele><time>2026-05-03T12:48:48.999Z</time></trkpt><trkpt lat="44.068603948812715" lon="7.933083374625449"><ele>880.0</ele><time>2026-05-03T12:48:49.999Z</time></trkpt><trkpt lat="44.06852385011452" lon="7.933129820781103"><ele>880.0</ele><time>2026-05-03T12:48:50.999Z</time></trkpt><trkpt lat="44.06845389300256" lon="7.933157380801862"><ele>880.0</ele><time>2026-05-03T12:48:51.999Z</time></trkpt><trkpt lat="44.06838519420777" lon="7.933178203001974"><ele>879.9999999999999</ele><time>2026-05-03T12:48:52.999Z</time></trkpt><trkpt lat="44.06827793370049" lon="7.933232348231712"><ele>880.0</ele><time>2026-05-03T12:48:54.999Z</time></trkpt><trkpt lat="44.06820672729898" lon="7.9332396485760475"><ele>879.9999999999999</ele><time>2026-05-03T12:48:56.999Z</time></trkpt><trkpt lat="44.06824376493038" lon="7.933132095276592"><ele>880.0</ele><time>2026-05-03T12:48:59.999Z</time></trkpt><trkpt lat="44.068316857263426" lon="7.933085969468855"><ele>880.0</ele><time>2026-05-03T12:49:00.999Z</time></trkpt><trkpt lat="44.06842310178675" lon="7.933017632724842"><ele>880.0</ele><time>2026-05-03T12:49:01.999Z</time></trkpt><trkpt lat="44.06848556292925" lon="7.932929338873826"><ele>879.9999999999999</ele><time>2026-05-03T12:49:02.999Z</time></trkpt><trkpt lat="44.068539374538645" lon="7.93286576154379"><ele>880.0</ele><time>2026-05-03T12:49:03.999Z</time></trkpt><trkpt lat="44.06863422503337" lon="7.932795142913929"><ele>879.9999999999999</ele><time>2026-05-03T12:49:05.999Z</time></trkpt><trkpt lat="44.06872138516849" lon="7.932758917998131"><ele>880.0</ele><time>2026-05-03T12:49:07.999Z</time></trkpt><trkpt lat="44.068750292526076" lon="7.9326378552564405"><ele>880.0</ele><time>2026-05-03T12:49:08.999Z</time></trkpt><trkpt lat="44.068771855334845" lon="7.932498433664429"><ele>880.0</ele><time>2026-05-03T12:49:09.999Z</time></trkpt><trkpt lat="44.068781859305126" lon="7.932386112059218"><ele>879.9999999999999</ele><time>2026-05-03T12:49:10.999Z</time></trkpt><trkpt lat="44.06879334208354" lon="7.932283255061897"><ele>880.0</ele><time>2026-05-03T12:49:11.999Z</time></trkpt><trkpt lat="44.06879395000422" lon="7.932169322400818"><ele>876.1666666666666</ele><time>2026-05-03T12:49:12.999Z</time></trkpt><trkpt lat="44.068808174334904" lon="7.9320806200329805"><ele>872.3333333333333</ele><time>2026-05-03T12:49:13.999Z</time></trkpt><trkpt lat="44.068911781115105" lon="7.932011003725706"><ele>868.5</ele><time>2026-05-03T12:49:15.999Z</time></trkpt><trkpt lat="44.0689427056679" lon="7.9319093921849415"><ele>864.6666666666667</ele><time>2026-05-03T12:49:17.999Z</time></trkpt><trkpt lat="44.068842005909104" lon="7.9318798199560625"><ele>860.8333333333334</ele><time>2026-05-03T12:49:19.999Z</time></trkpt><trkpt lat="44.0687835222611" lon="7.931964963958932"><ele>857.0</ele><time>2026-05-03T12:49:20.999Z</time></trkpt><trkpt lat="44.06871882943609" lon="7.9320682380990375"><ele>857.0000000000001</ele><time>2026-05-03T12:49:21.999Z</time></trkpt><trkpt lat="44.06867089936879" lon="7.932155008125899"><ele>857.0</ele><time>2026-05-03T12:49:22.999Z</time></trkpt><trkpt lat="44.068638096633215" lon="7.932233453444901"><ele>857.0</ele><time>2026-05-03T12:49:23.999Z</time></trkpt><trkpt lat="44.068538766781785" lon="7.932300281572867"><ele>857.0</ele><time>2026-05-03T12:49:25.999Z</time></trkpt><trkpt lat="44.06845532058475" lon="7.932326051505673"><ele>857.0000000000001</ele><time>2026-05-03T12:49:26.999Z</time></trkpt><trkpt lat="44.06836727268227" lon="7.932357342757693"><ele>857.0</ele><time>2026-05-03T12:49:27.999Z</time></trkpt><trkpt lat="44.06828875140199" lon="7.932361821589535"><ele>855.1666666666667</ele><time>2026-05-03T12:49:28.999Z</time></trkpt><trkpt lat="44.06821318845843" lon="7.9323820886306935"><ele>853.3333333333334</ele><time>2026-05-03T12:49:29.999Z</time></trkpt><trkpt lat="44.068152605183016" lon="7.932410572734368"><ele>851.5</ele><time>2026-05-03T12:49:30.999Z</time></trkpt><trkpt lat="44.06808667716834" lon="7.932431902883519"><ele>849.6666666666667</ele><time>2026-05-03T12:49:31.999Z</time></trkpt><trkpt lat="44.06801229529588" lon="7.932497833760493"><ele>847.8333333333334</ele><time>2026-05-03T12:49:32.999Z</time></trkpt><trkpt lat="44.06795173533361" lon="7.9325803800743975"><ele>846.0</ele><time>2026-05-03T12:49:34Z</time></trkpt><trkpt lat="44.06789168944933" lon="7.932641150483814"><ele>851.5</ele><time>2026-05-03T12:49:35Z</time></trkpt><trkpt lat="44.06781266835341" lon="7.932675954140531"><ele>857.0</ele><time>2026-05-03T12:49:36Z</time></trkpt><trkpt lat="44.06772878816732" lon="7.932708268648242"><ele>862.5</ele><time>2026-05-03T12:49:37Z</time></trkpt><trkpt lat="44.0676487853521" lon="7.932733044072895"><ele>868.0</ele><time>2026-05-03T12:49:38Z</time></trkpt><trkpt lat="44.06757545140183" lon="7.932764530679606"><ele>873.5</ele><time>2026-05-03T12:49:39Z</time></trkpt><trkpt lat="44.067495827420224" lon="7.932798723642189"><ele>879.0</ele><time>2026-05-03T12:49:40Z</time></trkpt><trkpt lat="44.06743217585369" lon="7.932813337323273"><ele>880.0</ele><time>2026-05-03T12:49:41Z</time></trkpt><trkpt lat="44.06736259965043" lon="7.932785939578553"><ele>881.0000000000001</ele><time>2026-05-03T12:49:42Z</time></trkpt><trkpt lat="44.06725233330557" lon="7.93277850220203"><ele>882.0000000000001</ele><time>2026-05-03T12:49:44Z</time></trkpt><trkpt lat="44.06717997324983" lon="7.932810908686859"><ele>883.0</ele><time>2026-05-03T12:49:45Z</time></trkpt><trkpt lat="44.067078734215286" lon="7.932844040923054"><ele>884.0</ele><time>2026-05-03T12:49:47Z</time></trkpt><trkpt lat="44.06699341561128" lon="7.93273120733747"><ele>884.0</ele><time>2026-05-03T12:49:50Z</time></trkpt><trkpt lat="44.06690848733042" lon="7.932610749807349"><ele>884.0000000000001</ele><time>2026-05-03T12:49:51Z</time></trkpt><trkpt lat="44.066845147199274" lon="7.932520264622339"><ele>884.0000000000001</ele><time>2026-05-03T12:49:52Z</time></trkpt><trkpt lat="44.06679812190537" lon="7.932451298010108"><ele>884.0</ele><time>2026-05-03T12:49:53Z</time></trkpt><trkpt lat="44.06671116640383" lon="7.932390888620947"><ele>884.0</ele><time>2026-05-03T12:49:54Z</time></trkpt><trkpt lat="44.06661683178102" lon="7.932312424690736"><ele>880.0000000000001</ele><time>2026-05-03T12:49:55Z</time></trkpt><trkpt lat="44.06651831590266" lon="7.932293224612034"><ele>876.0</ele><time>2026-05-03T12:49:56Z</time></trkpt><trkpt lat="44.0664346597318" lon="7.932289019886663"><ele>872.0</ele><time>2026-05-03T12:49:57Z</time></trkpt><trkpt lat="44.06635234840399" lon="7.932294498354624"><ele>868.0</ele><time>2026-05-03T12:49:58Z</time></trkpt><trkpt lat="44.06628753908672" lon="7.9323269991927745"><ele>864.0000000000001</ele><time>2026-05-03T12:50:00Z</time></trkpt><trkpt lat="44.06628768032244" lon="7.932219541259531"><ele>860.0</ele><time>2026-05-03T12:50:02Z</time></trkpt><trkpt lat="44.0663720565206" lon="7.932171086193408"><ele>860.0000000000001</ele><time>2026-05-03T12:50:04Z</time></trkpt><trkpt lat="44.06646800349319" lon="7.932145817842882"><ele>860.0</ele><time>2026-05-03T12:50:05Z</time></trkpt><trkpt lat="44.066545824859496" lon="7.932141566997984"><ele>860.0</ele><time>2026-05-03T12:50:06Z</time></trkpt><trkpt lat="44.06664319430867" lon="7.932110168384066"><ele>860.0</ele><time>2026-05-03T12:50:07Z</time></trkpt><trkpt lat="44.06673480451611" lon="7.932107149073178"><ele>860.0000000000001</ele><time>2026-05-03T12:50:08Z</time></trkpt><trkpt lat="44.06680728875621" lon="7.932087614369612"><ele>860.0</ele><time>2026-05-03T12:50:09Z</time></trkpt><trkpt lat="44.06687986031661" lon="7.932068266375831"><ele>857.5000000000001</ele><time>2026-05-03T12:50:10Z</time></trkpt><trkpt lat="44.06695825629895" lon="7.932034651525119"><ele>855.0</ele><time>2026-05-03T12:50:11Z</time></trkpt><trkpt lat="44.067024192923235" lon="7.9319532170951605"><ele>852.5</ele><time>2026-05-03T12:50:12Z</time></trkpt><trkpt lat="44.067106335154136" lon="7.931874018112707"><ele>850.0</ele><time>2026-05-03T12:50:13Z</time></trkpt><trkpt lat="44.06718687461711" lon="7.931822820613223"><ele>847.5000000000001</ele><time>2026-05-03T12:50:14Z</time></trkpt><trkpt lat="44.067245065567924" lon="7.931783533434372"><ele>845.0</ele><time>2026-05-03T12:50:15Z</time></trkpt><trkpt lat="44.06731958301274" lon="7.931769999961895"><ele>845.0000000000001</ele><time>2026-05-03T12:50:16Z</time></trkpt><trkpt lat="44.06739074372436" lon="7.931770103548438"><ele>845.0</ele><time>2026-05-03T12:50:17Z</time></trkpt><trkpt lat="44.06747760665503" lon="7.9317864578192365"><ele>845.0</ele><time>2026-05-03T12:50:18Z</time></trkpt><trkpt lat="44.06756425025358" lon="7.931798264464683"><ele>845.0</ele><time>2026-05-03T12:50:19Z</time></trkpt><trkpt lat="44.06763798337123" lon="7.931757149597937"><ele>845.0000000000001</ele><time>2026-05-03T12:50:20Z</time></trkpt><trkpt lat="44.067720812804396" lon="7.931697456341288"><ele>845.0</ele><time>2026-05-03T12:50:21Z</time></trkpt><trkpt lat="44.06780687327965" lon="7.931628897984701"><ele>840.6</ele><time>2026-05-03T12:50:22Z</time></trkpt><trkpt lat="44.067892444586384" lon="7.931551278577859"><ele>836.2</ele><time>2026-05-03T12:50:23Z</time></trkpt><trkpt lat="44.06796282300348" lon="7.931467287092063"><ele>831.8</ele><time>2026-05-03T12:50:24Z</time></trkpt><trkpt lat="44.06802499247339" lon="7.9313789945480755"><ele>827.4</ele><time>2026-05-03T12:50:25Z</time></trkpt><trkpt lat="44.068069386432924" lon="7.9312642374954265"><ele>823.0</ele><time>2026-05-03T12:50:26Z</time></trkpt><trkpt lat="44.0681174508971" lon="7.931144302842625"><ele>823.0</ele><time>2026-05-03T12:50:27Z</time></trkpt><trkpt lat="44.06815507968311" lon="7.931020102347363"><ele>823.0</ele><time>2026-05-03T12:50:28Z</time></trkpt><trkpt lat="44.06817375371088" lon="7.93087592787011"><ele>823.0</ele><time>2026-05-03T12:50:28.999Z</time></trkpt><trkpt lat="44.068172686989165" lon="7.930758977890219"><ele>823.0</ele><time>2026-05-03T12:50:29.999Z</time></trkpt><trkpt lat="44.06816185669077" lon="7.930650566956394"><ele>823.0</ele><time>2026-05-03T12:50:30.999Z</time></trkpt><trkpt lat="44.0681528402812" lon="7.930525745695366"><ele>819.3333333333333</ele><time>2026-05-03T12:50:31.999Z</time></trkpt><trkpt lat="44.068158264240274" lon="7.930398430442794"><ele>815.6666666666666</ele><time>2026-05-03T12:50:32.999Z</time></trkpt><trkpt lat="44.068172190100135" lon="7.930287758704719"><ele>812.0</ele><time>2026-05-03T12:50:33.999Z</time></trkpt><trkpt lat="44.068183579719395" lon="7.930189348489539"><ele>808.3333333333333</ele><time>2026-05-03T12:50:34.999Z</time></trkpt><trkpt lat="44.068211976722495" lon="7.930081077501686"><ele>804.6666666666666</ele><time>2026-05-03T12:50:35.999Z</time></trkpt><trkpt lat="44.06825970137736" lon="7.9299809201700775"><ele>801.0</ele><time>2026-05-03T12:50:36.999Z</time></trkpt><trkpt lat="44.06826706011081" lon="7.929884707207865"><ele>798.4</ele><time>2026-05-03T12:50:37.999Z</time></trkpt><trkpt lat="44.06824343934758" lon="7.929765601419075"><ele>795.8</ele><time>2026-05-03T12:50:38.999Z</time></trkpt><trkpt lat="44.068204726176084" lon="7.929637327588232"><ele>793.1999999999999</ele><time>2026-05-03T12:50:39.999Z</time></trkpt><trkpt lat="44.06816794864773" lon="7.9295408740586195"><ele>790.5999999999999</ele><time>2026-05-03T12:50:40.999Z</time></trkpt><trkpt lat="44.068141624394265" lon="7.929453960689547"><ele>788.0</ele><time>2026-05-03T12:50:41.999Z</time></trkpt><trkpt lat="44.06817678849485" lon="7.929264329959553"><ele>786.8</ele><time>2026-05-03T12:50:43.999Z</time></trkpt><trkpt lat="44.06820593277499" lon="7.9291625323816275"><ele>785.5999999999999</ele><time>2026-05-03T12:50:44.999Z</time></trkpt><trkpt lat="44.06819954448146" lon="7.92904418200803"><ele>784.4000000000001</ele><time>2026-05-03T12:50:45.999Z</time></trkpt><trkpt lat="44.068179931359225" lon="7.928913086462327"><ele>783.2</ele><time>2026-05-03T12:50:46.999Z</time></trkpt><trkpt lat="44.068172486856284" lon="7.92877326433611"><ele>782.0</ele><time>2026-05-03T12:50:47.999Z</time></trkpt><trkpt lat="44.068212427513906" lon="7.9286443015749715"><ele>782.0</ele><time>2026-05-03T12:50:49.999Z</time></trkpt><trkpt lat="44.06819073694531" lon="7.928473257772241"><ele>782.0</ele><time>2026-05-03T12:50:50.999Z</time></trkpt><trkpt lat="44.06813913730945" lon="7.928341526251395"><ele>782.0</ele><time>2026-05-03T12:50:51.999Z</time></trkpt><trkpt lat="44.06811196215905" lon="7.9282193844027145"><ele>782.0</ele><time>2026-05-03T12:50:52.999Z</time></trkpt><trkpt lat="44.06812451382075" lon="7.928106584238627"><ele>782.0</ele><time>2026-05-03T12:50:53.999Z</time></trkpt><trkpt lat="44.06815950880332" lon="7.928003369674534"><ele>780.4000000000001</ele><time>2026-05-03T12:50:54.999Z</time></trkpt><trkpt lat="44.06819056616097" lon="7.927890408727011"><ele>778.8000000000001</ele><time>2026-05-03T12:50:55.999Z</time></trkpt><trkpt lat="44.0682153204945" lon="7.927781675179887"><ele>777.2</ele><time>2026-05-03T12:50:56.999Z</time></trkpt><trkpt lat="44.06822535728073" lon="7.927657840962763"><ele>775.6</ele><time>2026-05-03T12:50:57.999Z</time></trkpt><trkpt lat="44.06821858303849" lon="7.927541602287633"><ele>774.0</ele><time>2026-05-03T12:50:58.999Z</time></trkpt><trkpt lat="44.0681944199735" lon="7.927391312474962"><ele>772.4000000000001</ele><time>2026-05-03T12:50:59.999Z</time></trkpt><trkpt lat="44.06818791845671" lon="7.927273125408561"><ele>770.8</ele><time>2026-05-03T12:51:00.999Z</time></trkpt><trkpt lat="44.068188602252874" lon="7.927152730685472"><ele>769.2</ele><time>2026-05-03T12:51:01.999Z</time></trkpt><trkpt lat="44.068200302789606" lon="7.927016089869017"><ele>767.5999999999999</ele><time>2026-05-03T12:51:02.999Z</time></trkpt><trkpt lat="44.06821844576068" lon="7.926891355589098"><ele>766.0</ele><time>2026-05-03T12:51:03.999Z</time></trkpt><trkpt lat="44.06825806415672" lon="7.926764007265948"><ele>771.0</ele><time>2026-05-03T12:51:04.999Z</time></trkpt><trkpt lat="44.06828525623457" lon="7.926624716977978"><ele>776.0</ele><time>2026-05-03T12:51:05.999Z</time></trkpt><trkpt lat="44.06831299014513" lon="7.926464911621848"><ele>781.0</ele><time>2026-05-03T12:51:06.999Z</time></trkpt><trkpt lat="44.06834405365406" lon="7.926312142906861"><ele>786.0</ele><time>2026-05-03T12:51:07.999Z</time></trkpt><trkpt lat="44.068359619031106" lon="7.926146348246739"><ele>786.0</ele><time>2026-05-03T12:51:08.999Z</time></trkpt><trkpt lat="44.06835754533825" lon="7.9259706850804434"><ele>786.0</ele><time>2026-05-03T12:51:09.999Z</time></trkpt><trkpt lat="44.068377054381045" lon="7.925823693349522"><ele>786.0</ele><time>2026-05-03T12:51:10.999Z</time></trkpt><trkpt lat="44.06845901912674" lon="7.9257162505907655"><ele>786.0</ele><time>2026-05-03T12:51:11.999Z</time></trkpt><trkpt lat="44.068500120144485" lon="7.925563224851025"><ele>783.75</ele><time>2026-05-03T12:51:12.999Z</time></trkpt><trkpt lat="44.068545614255555" lon="7.925394201574613"><ele>781.5</ele><time>2026-05-03T12:51:13.999Z</time></trkpt><trkpt lat="44.06858600003114" lon="7.925247337131304"><ele>779.25</ele><time>2026-05-03T12:51:14.999Z</time></trkpt><trkpt lat="44.06861835768557" lon="7.925105215811816"><ele>777.0</ele><time>2026-05-03T12:51:15.999Z</time></trkpt><trkpt lat="44.06863071312117" lon="7.924943108546151"><ele>775.4000000000001</ele><time>2026-05-03T12:51:16.999Z</time></trkpt><trkpt lat="44.06864224671168" lon="7.924789575031728"><ele>773.8000000000001</ele><time>2026-05-03T12:51:17.999Z</time></trkpt><trkpt lat="44.06866293883327" lon="7.924643809834485"><ele>772.2</ele><time>2026-05-03T12:51:18.999Z</time></trkpt><trkpt lat="44.068674055161715" lon="7.924510808655537"><ele>770.6</ele><time>2026-05-03T12:51:19.999Z</time></trkpt><trkpt lat="44.068672868013806" lon="7.924386860250716"><ele>769.0</ele><time>2026-05-03T12:51:20.999Z</time></trkpt><trkpt lat="44.068652060195554" lon="7.924259135009606"><ele>768.0</ele><time>2026-05-03T12:51:21.999Z</time></trkpt><trkpt lat="44.068599647199676" lon="7.924128432628427"><ele>767.0</ele><time>2026-05-03T12:51:22.999Z</time></trkpt><trkpt lat="44.06854466431065" lon="7.923981659539462"><ele>766.0</ele><time>2026-05-03T12:51:23.999Z</time></trkpt><trkpt lat="44.0684895753206" lon="7.9238520405075805"><ele>765.0</ele><time>2026-05-03T12:51:24.999Z</time></trkpt><trkpt lat="44.0684390754121" lon="7.923745551923392"><ele>764.0</ele><time>2026-05-03T12:51:25.999Z</time></trkpt><trkpt lat="44.06837093660767" lon="7.923596913693455"><ele>764.0</ele><time>2026-05-03T12:51:26.999Z</time></trkpt><trkpt lat="44.068290083821296" lon="7.923479681377525"><ele>764.0</ele><time>2026-05-03T12:51:27.999Z</time></trkpt><trkpt lat="44.06821386357735" lon="7.923371080536508"><ele>764.0</ele><time>2026-05-03T12:51:28.999Z</time></trkpt><trkpt lat="44.06817002996919" lon="7.923235011436656"><ele>764.0</ele><time>2026-05-03T12:51:29.999Z</time></trkpt><trkpt lat="44.068123327078474" lon="7.923116638790763"><ele>764.0</ele><time>2026-05-03T12:51:30.999Z</time></trkpt><trkpt lat="44.06809935016721" lon="7.923005541072925"><ele>757.4000000000001</ele><time>2026-05-03T12:51:31.999Z</time></trkpt><trkpt lat="44.0680853326786" lon="7.922905140931121"><ele>750.8</ele><time>2026-05-03T12:51:32.999Z</time></trkpt><trkpt lat="44.06809841041853" lon="7.922805966027873"><ele>744.2</ele><time>2026-05-03T12:51:33.999Z</time></trkpt><trkpt lat="44.06811308795458" lon="7.922681688828309"><ele>737.5999999999999</ele><time>2026-05-03T12:51:34.999Z</time></trkpt><trkpt lat="44.06813609606828" lon="7.922502498426444"><ele>731.0</ele><time>2026-05-03T12:51:35.999Z</time></trkpt><trkpt lat="44.06816263148594" lon="7.922341960605045"><ele>731.0</ele><time>2026-05-03T12:51:36.999Z</time></trkpt><trkpt lat="44.06818891842233" lon="7.922222367827043"><ele>731.0</ele><time>2026-05-03T12:51:37.999Z</time></trkpt><trkpt lat="44.06823290263233" lon="7.922150556063006"><ele>731.0</ele><time>2026-05-03T12:51:38.999Z</time></trkpt><trkpt lat="44.068239921473676" lon="7.921996236997936"><ele>731.0</ele><time>2026-05-03T12:51:41Z</time></trkpt><trkpt lat="44.06817712536021" lon="7.92194990588515"><ele>731.0</ele><time>2026-05-03T12:51:42Z</time></trkpt><trkpt lat="44.06810113604059" lon="7.922076343564701"><ele>731.0</ele><time>2026-05-03T12:51:43Z</time></trkpt><trkpt lat="44.06800815890257" lon="7.922254316347662"><ele>731.0</ele><time>2026-05-03T12:51:45Z</time></trkpt><trkpt lat="44.06794155824506" lon="7.92238227118966"><ele>731.0</ele><time>2026-05-03T12:51:46Z</time></trkpt><trkpt lat="44.06788969866109" lon="7.922489545576524"><ele>731.0</ele><time>2026-05-03T12:51:47Z</time></trkpt><trkpt lat="44.06784325685841" lon="7.9225949810689595"><ele>730.5</ele><time>2026-05-03T12:51:48Z</time></trkpt><trkpt lat="44.06780721721097" lon="7.922688627894925"><ele>730.0</ele><time>2026-05-03T12:51:49Z</time></trkpt><trkpt lat="44.06777306813443" lon="7.922871020591176"><ele>729.5</ele><time>2026-05-03T12:51:51Z</time></trkpt><trkpt lat="44.06781566914886" lon="7.923038206045518"><ele>729.0</ele><time>2026-05-03T12:51:52Z</time></trkpt><trkpt lat="44.06785118238543" lon="7.923235396549831"><ele>730.0</ele><time>2026-05-03T12:51:53Z</time></trkpt><trkpt lat="44.06789052498782" lon="7.923398018722453"><ele>731.0</ele><time>2026-05-03T12:51:54Z</time></trkpt><trkpt lat="44.06791228356525" lon="7.923536560304721"><ele>732.0</ele><time>2026-05-03T12:51:55Z</time></trkpt><trkpt lat="44.0679419818184" lon="7.923653078932272"><ele>733.0</ele><time>2026-05-03T12:51:56Z</time></trkpt><trkpt lat="44.0679717471111" lon="7.923758954633902"><ele>734.0</ele><time>2026-05-03T12:51:57Z</time></trkpt><trkpt lat="44.06798056418603" lon="7.9238811585407385"><ele>734.0</ele><time>2026-05-03T12:51:58Z</time></trkpt><trkpt lat="44.06799480111893" lon="7.924011088586498"><ele>734.0</ele><time>2026-05-03T12:51:59Z</time></trkpt><trkpt lat="44.06797071500917" lon="7.9241247197563585"><ele>734.0</ele><time>2026-05-03T12:52:00Z</time></trkpt><trkpt lat="44.067952310083875" lon="7.924221382959214"><ele>734.0</ele><time>2026-05-03T12:52:01Z</time></trkpt><trkpt lat="44.067908315935924" lon="7.924316183497714"><ele>734.0</ele><time>2026-05-03T12:52:02Z</time></trkpt><trkpt lat="44.06784548548475" lon="7.924425048989231"><ele>734.0</ele><time>2026-05-03T12:52:03Z</time></trkpt><trkpt lat="44.06778068216999" lon="7.924536141784445"><ele>735.6666666666666</ele><time>2026-05-03T12:52:04Z</time></trkpt><trkpt lat="44.06771625998785" lon="7.924633261120342"><ele>737.3333333333333</ele><time>2026-05-03T12:52:05Z</time></trkpt><trkpt lat="44.06769250671551" lon="7.924749710378349"><ele>739.0</ele><time>2026-05-03T12:52:06Z</time></trkpt><trkpt lat="44.06765760626418" lon="7.924834034119641"><ele>740.6666666666666</ele><time>2026-05-03T12:52:07Z</time></trkpt><trkpt lat="44.06762452417827" lon="7.924928194084304"><ele>742.3333333333334</ele><time>2026-05-03T12:52:08Z</time></trkpt><trkpt lat="44.06758559122768" lon="7.925037178841454"><ele>744.0</ele><time>2026-05-03T12:52:09Z</time></trkpt><trkpt lat="44.06755406212351" lon="7.925156788754366"><ele>745.1666666666666</ele><time>2026-05-03T12:52:10Z</time></trkpt><trkpt lat="44.06752723037855" lon="7.925263211224166"><ele>746.3333333333334</ele><time>2026-05-03T12:52:11Z</time></trkpt><trkpt lat="44.06750727804282" lon="7.925365623921731"><ele>747.5</ele><time>2026-05-03T12:52:12Z</time></trkpt><trkpt lat="44.06749238975157" lon="7.925512284084945"><ele>748.6666666666667</ele><time>2026-05-03T12:52:13Z</time></trkpt><trkpt lat="44.06748561225692" lon="7.925630315769284"><ele>749.8333333333334</ele><time>2026-05-03T12:52:14Z</time></trkpt><trkpt lat="44.06748490386327" lon="7.925748929075753"><ele>751.0</ele><time>2026-05-03T12:52:15Z</time></trkpt><trkpt lat="44.06747462116894" lon="7.925859164896237"><ele>752.5999999999999</ele><time>2026-05-03T12:52:16Z</time></trkpt><trkpt lat="44.067463234641615" lon="7.9259812333313775"><ele>754.2</ele><time>2026-05-03T12:52:17Z</time></trkpt><trkpt lat="44.06745233117297" lon="7.9260981233819106"><ele>755.8</ele><time>2026-05-03T12:52:18Z</time></trkpt><trkpt lat="44.067429623642205" lon="7.926256106181412"><ele>757.4000000000001</ele><time>2026-05-03T12:52:19Z</time></trkpt><trkpt lat="44.06740325600919" lon="7.926389288267295"><ele>759.0</ele><time>2026-05-03T12:52:20Z</time></trkpt><trkpt lat="44.06737217773257" lon="7.926513613680553"><ele>754.5</ele><time>2026-05-03T12:52:21Z</time></trkpt><trkpt lat="44.06733895048806" lon="7.9266333312472605"><ele>750.0</ele><time>2026-05-03T12:52:22Z</time></trkpt><trkpt lat="44.06730604212231" lon="7.926749547773947"><ele>745.5</ele><time>2026-05-03T12:52:23Z</time></trkpt><trkpt lat="44.067272281698294" lon="7.926868866212638"><ele>741.0</ele><time>2026-05-03T12:52:24Z</time></trkpt><trkpt lat="44.06724367782393" lon="7.926972808722705"><ele>736.5</ele><time>2026-05-03T12:52:25Z</time></trkpt><trkpt lat="44.06722020236051" lon="7.927070864102373"><ele>732.0</ele><time>2026-05-03T12:52:26Z</time></trkpt><trkpt lat="44.06719956219367" lon="7.927169548141586"><ele>732.0</ele><time>2026-05-03T12:52:27Z</time></trkpt><trkpt lat="44.06718820893009" lon="7.927263348557685"><ele>732.0</ele><time>2026-05-03T12:52:29Z</time></trkpt><trkpt lat="44.067164646994875" lon="7.927365684024657"><ele>732.0</ele><time>2026-05-03T12:52:30Z</time></trkpt><trkpt lat="44.06716869277822" lon="7.927500150854819"><ele>732.0</ele><time>2026-05-03T12:52:31Z</time></trkpt><trkpt lat="44.06717572275407" lon="7.927649926359138"><ele>732.0</ele><time>2026-05-03T12:52:32Z</time></trkpt><trkpt lat="44.067160881302705" lon="7.927799195448677"><ele>736.0</ele><time>2026-05-03T12:52:33Z</time></trkpt><trkpt lat="44.06711959300246" lon="7.927925973667989"><ele>740.0</ele><time>2026-05-03T12:52:34Z</time></trkpt><trkpt lat="44.06705543714633" lon="7.928022256701775"><ele>744.0</ele><time>2026-05-03T12:52:35Z</time></trkpt><trkpt lat="44.066938641269644" lon="7.92801522444358"><ele>748.0</ele><time>2026-05-03T12:52:36Z</time></trkpt><trkpt lat="44.066844492316086" lon="7.927942679724814"><ele>752.0</ele><time>2026-05-03T12:52:37Z</time></trkpt><trkpt lat="44.06674412412239" lon="7.927930936684399"><ele>745.3333333333333</ele><time>2026-05-03T12:52:38Z</time></trkpt><trkpt lat="44.06658982577867" lon="7.928302325998366"><ele>738.6666666666666</ele><time>2026-05-03T12:52:39.999Z</time></trkpt><trkpt lat="44.066462813422966" lon="7.928337314372124"><ele>732.0</ele><time>2026-05-03T12:52:41.999Z</time></trkpt><trkpt lat="44.066370048119694" lon="7.928296403809568"><ele>732.0</ele><time>2026-05-03T12:52:42.999Z</time></trkpt><trkpt lat="44.06625221422285" lon="7.9282622752484695"><ele>732.0</ele><time>2026-05-03T12:52:43.999Z</time></trkpt><trkpt lat="44.06615866866793" lon="7.928272272232316"><ele>732.0</ele><time>2026-05-03T12:52:44.999Z</time></trkpt><trkpt lat="44.06606266647555" lon="7.928300473507631"><ele>732.0</ele><time>2026-05-03T12:52:45.999Z</time></trkpt><trkpt lat="44.06597477196263" lon="7.9283698972583005"><ele>732.0</ele><time>2026-05-03T12:52:46.999Z</time></trkpt><trkpt lat="44.06592151510045" lon="7.928436529517025"><ele>732.0</ele><time>2026-05-03T12:52:47.999Z</time></trkpt><trkpt lat="44.065853921408426" lon="7.928333956890064"><ele>732.0</ele><time>2026-05-03T12:52:50.999Z</time></trkpt><trkpt lat="44.06588972226015" lon="7.928250816327487"><ele>732.0</ele><time>2026-05-03T12:52:51.999Z</time></trkpt><trkpt lat="44.06595682825983" lon="7.92820459888174"><ele>732.0</ele><time>2026-05-03T12:52:52.999Z</time></trkpt><trkpt lat="44.066076382841466" lon="7.928164052881391"><ele>732.0</ele><time>2026-05-03T12:52:53.999Z</time></trkpt><trkpt lat="44.06621089613492" lon="7.928082759004616"><ele>732.0</ele><time>2026-05-03T12:52:54.999Z</time></trkpt><trkpt lat="44.066298698515155" lon="7.928043951020748"><ele>732.0</ele><time>2026-05-03T12:52:55.999Z</time></trkpt><trkpt lat="44.06639330222843" lon="7.927985473595845"><ele>732.0</ele><time>2026-05-03T12:52:57.999Z</time></trkpt><trkpt lat="44.06640964260424" lon="7.927890189062592"><ele>732.0</ele><time>2026-05-03T12:52:58.999Z</time></trkpt><trkpt lat="44.066391987070794" lon="7.927773203339115"><ele>732.0</ele><time>2026-05-03T12:52:59.999Z</time></trkpt><trkpt lat="44.066388776970385" lon="7.927667303331869"><ele>732.0</ele><time>2026-05-03T12:53:00.999Z</time></trkpt><trkpt lat="44.066456623487305" lon="7.927582430677995"><ele>732.0</ele><time>2026-05-03T12:53:01.999Z</time></trkpt><trkpt lat="44.0665513589385" lon="7.92750044635802"><ele>732.0</ele><time>2026-05-03T12:53:02.999Z</time></trkpt><trkpt lat="44.066625788717914" lon="7.927450357026784"><ele>732.0</ele><time>2026-05-03T12:53:03.999Z</time></trkpt><trkpt lat="44.06665515555693" lon="7.927334425321893"><ele>732.0</ele><time>2026-05-03T12:53:05.999Z</time></trkpt><trkpt lat="44.06662043383936" lon="7.927201621833971"><ele>732.0</ele><time>2026-05-03T12:53:06.999Z</time></trkpt><trkpt lat="44.0666292522963" lon="7.927052802036702"><ele>732.0</ele><time>2026-05-03T12:53:07.999Z</time></trkpt><trkpt lat="44.06660878814639" lon="7.9269395110422485"><ele>732.0</ele><time>2026-05-03T12:53:08.999Z</time></trkpt><trkpt lat="44.066613441314146" lon="7.926800980149271"><ele>732.0</ele><time>2026-05-03T12:53:09.999Z</time></trkpt><trkpt lat="44.066597741526785" lon="7.926663144338114"><ele>732.0</ele><time>2026-05-03T12:53:10.999Z</time></trkpt><trkpt lat="44.066584010508095" lon="7.926535155285077"><ele>732.0</ele><time>2026-05-03T12:53:11.999Z</time></trkpt><trkpt lat="44.06657141321583" lon="7.926415741545915"><ele>723.4000000000001</ele><time>2026-05-03T12:53:12.999Z</time></trkpt><trkpt lat="44.06655753727634" lon="7.926272471165504"><ele>714.8000000000001</ele><time>2026-05-03T12:53:13.999Z</time></trkpt><trkpt lat="44.06654121938889" lon="7.926124458916201"><ele>706.2</ele><time>2026-05-03T12:53:14.999Z</time></trkpt><trkpt lat="44.0665279193551" lon="7.925981667437667"><ele>697.6</ele><time>2026-05-03T12:53:15.999Z</time></trkpt><trkpt lat="44.06652144109136" lon="7.925858221495549"><ele>689.0</ele><time>2026-05-03T12:53:16.999Z</time></trkpt><trkpt lat="44.066528723588675" lon="7.925735868292503"><ele>686.4000000000001</ele><time>2026-05-03T12:53:17.999Z</time></trkpt><trkpt lat="44.06655312029923" lon="7.92564879562776"><ele>683.8</ele><time>2026-05-03T12:53:18.999Z</time></trkpt><trkpt lat="44.06658611432485" lon="7.92553040058196"><ele>681.2</ele><time>2026-05-03T12:53:19.999Z</time></trkpt><trkpt lat="44.06661856039452" lon="7.925398004546733"><ele>678.5999999999999</ele><time>2026-05-03T12:53:20.999Z</time></trkpt><trkpt lat="44.066635337712356" lon="7.92524925560532"><ele>676.0</ele><time>2026-05-03T12:53:21.999Z</time></trkpt><trkpt lat="44.0666275659294" lon="7.92509137107704"><ele>683.5999999999999</ele><time>2026-05-03T12:53:22.999Z</time></trkpt><trkpt lat="44.06664536698331" lon="7.924938521684513"><ele>691.2</ele><time>2026-05-03T12:53:23.999Z</time></trkpt><trkpt lat="44.066649007384044" lon="7.924783047461486"><ele>698.8</ele><time>2026-05-03T12:53:24.999Z</time></trkpt><trkpt lat="44.06663956905506" lon="7.924628373032369"><ele>706.4000000000001</ele><time>2026-05-03T12:53:25.999Z</time></trkpt><trkpt lat="44.06663125640687" lon="7.924474214432989"><ele>714.0</ele><time>2026-05-03T12:53:26.999Z</time></trkpt><trkpt lat="44.06661837683879" lon="7.9243269285554625"><ele>712.2</ele><time>2026-05-03T12:53:27.999Z</time></trkpt><trkpt lat="44.06660491692585" lon="7.924168142141357"><ele>710.4000000000001</ele><time>2026-05-03T12:53:28.999Z</time></trkpt><trkpt lat="44.06660767178146" lon="7.924012408203993"><ele>708.6</ele><time>2026-05-03T12:53:29.999Z</time></trkpt><trkpt lat="44.06660424965866" lon="7.923873012819551"><ele>706.8</ele><time>2026-05-03T12:53:30.999Z</time></trkpt><trkpt lat="44.0666076744745" lon="7.923750467140343"><ele>705.0</ele><time>2026-05-03T12:53:31.999Z</time></trkpt><trkpt lat="44.0666228573394" lon="7.923630909712714"><ele>705.0</ele><time>2026-05-03T12:53:32.999Z</time></trkpt><trkpt lat="44.06662828437328" lon="7.923527019696775"><ele>705.0</ele><time>2026-05-03T12:53:33.999Z</time></trkpt><trkpt lat="44.06660134045054" lon="7.923418531867701"><ele>705.0</ele><time>2026-05-03T12:53:34.999Z</time></trkpt><trkpt lat="44.06660834780668" lon="7.923328232351691"><ele>705.0</ele><time>2026-05-03T12:53:35.999Z</time></trkpt><trkpt lat="44.06660834780903" lon="7.92322630229311"><ele>705.0</ele><time>2026-05-03T12:53:36.999Z</time></trkpt><trkpt lat="44.066670481095294" lon="7.923191778741054"><ele>705.0</ele><time>2026-05-03T12:53:37.999Z</time></trkpt><trkpt lat="44.06671414255819" lon="7.923086592629744"><ele>703.5</ele><time>2026-05-03T12:53:38.999Z</time></trkpt><trkpt lat="44.06676728365575" lon="7.922968501110542"><ele>702.0</ele><time>2026-05-03T12:53:39.999Z</time></trkpt><trkpt lat="44.06680879628529" lon="7.9228617104876795"><ele>700.5</ele><time>2026-05-03T12:53:40.999Z</time></trkpt><trkpt lat="44.06683773000786" lon="7.922762228013604"><ele>699.0</ele><time>2026-05-03T12:53:41.999Z</time></trkpt><trkpt lat="44.06681046294515" lon="7.922652131012181"><ele>697.5</ele><time>2026-05-03T12:53:42.999Z</time></trkpt><trkpt lat="44.066785165666666" lon="7.9225661166461725"><ele>696.0</ele><time>2026-05-03T12:53:43.999Z</time></trkpt><trkpt lat="44.0667426535851" lon="7.922475515988795"><ele>696.0</ele><time>2026-05-03T12:53:44.999Z</time></trkpt><trkpt lat="44.06668173975022" lon="7.922370542171329"><ele>696.0</ele><time>2026-05-03T12:53:46Z</time></trkpt><trkpt lat="44.06660758554142" lon="7.922272712078182"><ele>696.0</ele><time>2026-05-03T12:53:47Z</time></trkpt><trkpt lat="44.06654670647151" lon="7.9221799874934025"><ele>696.0</ele><time>2026-05-03T12:53:48Z</time></trkpt><trkpt lat="44.066476244991" lon="7.922087697521867"><ele>696.0</ele><time>2026-05-03T12:53:49Z</time></trkpt><trkpt lat="44.066414193544276" lon="7.921985277601198"><ele>690.5</ele><time>2026-05-03T12:53:50Z</time></trkpt><trkpt lat="44.06637815304314" lon="7.921858330322403"><ele>685.0</ele><time>2026-05-03T12:53:51Z</time></trkpt><trkpt lat="44.066341511895736" lon="7.9217820116871405"><ele>679.5</ele><time>2026-05-03T12:53:52Z</time></trkpt><trkpt lat="44.06632584400529" lon="7.921692522609753"><ele>674.0</ele><time>2026-05-03T12:53:53Z</time></trkpt><trkpt lat="44.066331132481814" lon="7.92157910302382"><ele>668.5</ele><time>2026-05-03T12:53:54Z</time></trkpt><trkpt lat="44.06632884781766" lon="7.9214576935459124"><ele>663.0</ele><time>2026-05-03T12:53:55Z</time></trkpt><trkpt lat="44.06633633578415" lon="7.921351982401124"><ele>663.0</ele><time>2026-05-03T12:53:56Z</time></trkpt><trkpt lat="44.06635821171806" lon="7.921250387153479"><ele>663.0</ele><time>2026-05-03T12:53:57Z</time></trkpt><trkpt lat="44.066387782861355" lon="7.921142297133995"><ele>663.0</ele><time>2026-05-03T12:53:58Z</time></trkpt><trkpt lat="44.06643989308786" lon="7.921049380387098"><ele>663.0</ele><time>2026-05-03T12:53:59Z</time></trkpt><trkpt lat="44.06650197136064" lon="7.920969892188677"><ele>663.0</ele><time>2026-05-03T12:54:00Z</time></trkpt><trkpt lat="44.06658189561125" lon="7.920871632005607"><ele>663.0</ele><time>2026-05-03T12:54:01Z</time></trkpt><trkpt lat="44.066640455727246" lon="7.920772946949377"><ele>665.8333333333334</ele><time>2026-05-03T12:54:02Z</time></trkpt><trkpt lat="44.06668838044884" lon="7.92067702918927"><ele>668.6666666666666</ele><time>2026-05-03T12:54:03Z</time></trkpt><trkpt lat="44.06673534046332" lon="7.920530139034002"><ele>671.5</ele><time>2026-05-03T12:54:04Z</time></trkpt><trkpt lat="44.06678039311235" lon="7.920413007982916"><ele>674.3333333333333</ele><time>2026-05-03T12:54:05Z</time></trkpt><trkpt lat="44.06677635452607" lon="7.920301270008905"><ele>677.1666666666666</ele><time>2026-05-03T12:54:06Z</time></trkpt><trkpt lat="44.066772672704616" lon="7.920199128605136"><ele>680.0</ele><time>2026-05-03T12:54:07Z</time></trkpt><trkpt lat="44.066833241810606" lon="7.920056589124268"><ele>680.0</ele><time>2026-05-03T12:54:09Z</time></trkpt><trkpt lat="44.06690937679223" lon="7.919998015638143"><ele>680.0</ele><time>2026-05-03T12:54:10Z</time></trkpt><trkpt lat="44.06697261968975" lon="7.919908259817938"><ele>680.0</ele><time>2026-05-03T12:54:11Z</time></trkpt><trkpt lat="44.06701245707925" lon="7.919827132247386"><ele>680.0</ele><time>2026-05-03T12:54:12Z</time></trkpt><trkpt lat="44.06699656792999" lon="7.919673805127664"><ele>680.0</ele><time>2026-05-03T12:54:14Z</time></trkpt><trkpt lat="44.0669177525602" lon="7.91965672912428"><ele>680.0</ele><time>2026-05-03T12:54:15Z</time></trkpt><trkpt lat="44.06686796582196" lon="7.919763944044681"><ele>680.0</ele><time>2026-05-03T12:54:16Z</time></trkpt><trkpt lat="44.066787080574876" lon="7.919833675973226"><ele>680.0</ele><time>2026-05-03T12:54:17Z</time></trkpt><trkpt lat="44.066704807934606" lon="7.919888801247376"><ele>680.0</ele><time>2026-05-03T12:54:18Z</time></trkpt><trkpt lat="44.06659887740922" lon="7.919914718096404"><ele>680.0</ele><time>2026-05-03T12:54:19Z</time></trkpt><trkpt lat="44.06652182928753" lon="7.919964754763744"><ele>680.0</ele><time>2026-05-03T12:54:20Z</time></trkpt><trkpt lat="44.066448765185115" lon="7.920125707845068"><ele>677.2</ele><time>2026-05-03T12:54:22Z</time></trkpt><trkpt lat="44.066400372746905" lon="7.9202324520272445"><ele>674.4</ele><time>2026-05-03T12:54:23Z</time></trkpt><trkpt lat="44.0663486400996" lon="7.920327671274109"><ele>671.5999999999999</ele><time>2026-05-03T12:54:24Z</time></trkpt><trkpt lat="44.06622287776136" lon="7.920369484810868"><ele>668.8</ele><time>2026-05-03T12:54:25Z</time></trkpt><trkpt lat="44.066139556933344" lon="7.920412131504387"><ele>666.0</ele><time>2026-05-03T12:54:26Z</time></trkpt><trkpt lat="44.066039295201534" lon="7.920480691520739"><ele>666.0</ele><time>2026-05-03T12:54:27Z</time></trkpt><trkpt lat="44.06594331563222" lon="7.920515636666046"><ele>666.0</ele><time>2026-05-03T12:54:28Z</time></trkpt><trkpt lat="44.06588148941897" lon="7.920573671912755"><ele>666.0</ele><time>2026-05-03T12:54:29Z</time></trkpt><trkpt lat="44.065809587299356" lon="7.920620647211601"><ele>666.0</ele><time>2026-05-03T12:54:30Z</time></trkpt><trkpt lat="44.0657316231504" lon="7.920669357774223"><ele>666.0</ele><time>2026-05-03T12:54:31Z</time></trkpt><trkpt lat="44.06566293903225" lon="7.920719308042156"><ele>666.0</ele><time>2026-05-03T12:54:32Z</time></trkpt><trkpt lat="44.065605429531416" lon="7.920847041152348"><ele>657.8</ele><time>2026-05-03T12:54:34Z</time></trkpt><trkpt lat="44.06556762296749" lon="7.921018875723819"><ele>649.5999999999999</ele><time>2026-05-03T12:54:36Z</time></trkpt><trkpt lat="44.06560745528727" lon="7.921149070468371"><ele>641.4</ele><time>2026-05-03T12:54:37Z</time></trkpt><trkpt lat="44.06563289450656" lon="7.921273120366232"><ele>633.2</ele><time>2026-05-03T12:54:38Z</time></trkpt><trkpt lat="44.06566299182123" lon="7.921397278718155"><ele>625.0</ele><time>2026-05-03T12:54:39Z</time></trkpt><trkpt lat="44.06570191515089" lon="7.921526854364074"><ele>625.0</ele><time>2026-05-03T12:54:39.999Z</time></trkpt><trkpt lat="44.06572688762293" lon="7.921649319690598"><ele>625.0</ele><time>2026-05-03T12:54:40.999Z</time></trkpt><trkpt lat="44.06574090174219" lon="7.921802678272577"><ele>625.0</ele><time>2026-05-03T12:54:41.999Z</time></trkpt><trkpt lat="44.06576684230941" lon="7.921950553599558"><ele>625.0</ele><time>2026-05-03T12:54:42.999Z</time></trkpt><trkpt lat="44.06578928552261" lon="7.922073363146288"><ele>625.0</ele><time>2026-05-03T12:54:43.999Z</time></trkpt><trkpt lat="44.065802112881606" lon="7.922179936870529"><ele>624.6</ele><time>2026-05-03T12:54:44.999Z</time></trkpt><trkpt lat="44.065786683759534" lon="7.92231067463608"><ele>624.2</ele><time>2026-05-03T12:54:45.999Z</time></trkpt><trkpt lat="44.06576505669335" lon="7.922455562942202"><ele>623.8</ele><time>2026-05-03T12:54:46.999Z</time></trkpt><trkpt lat="44.06572348050155" lon="7.922581299520373"><ele>623.4</ele><time>2026-05-03T12:54:47.999Z</time></trkpt><trkpt lat="44.06568675659283" lon="7.922712942153315"><ele>623.0</ele><time>2026-05-03T12:54:48.999Z</time></trkpt><trkpt lat="44.065657557123345" lon="7.922843941964521"><ele>623.0</ele><time>2026-05-03T12:54:49.999Z</time></trkpt><trkpt lat="44.06564067522973" lon="7.922964216537141"><ele>623.0</ele><time>2026-05-03T12:54:50.999Z</time></trkpt><trkpt lat="44.0656551411511" lon="7.9231042349046845"><ele>623.0</ele><time>2026-05-03T12:54:51.999Z</time></trkpt><trkpt lat="44.06565170957988" lon="7.923258785163431"><ele>623.0</ele><time>2026-05-03T12:54:52.999Z</time></trkpt><trkpt lat="44.06564381277722" lon="7.923391335846661"><ele>623.0</ele><time>2026-05-03T12:54:53.999Z</time></trkpt><trkpt lat="44.0656169498541" lon="7.923525481922013"><ele>623.4</ele><time>2026-05-03T12:54:54.999Z</time></trkpt><trkpt lat="44.06559163644999" lon="7.923678253896967"><ele>623.8</ele><time>2026-05-03T12:54:55.999Z</time></trkpt><trkpt lat="44.06554664433749" lon="7.9238135584764935"><ele>624.2</ele><time>2026-05-03T12:54:56.999Z</time></trkpt><trkpt lat="44.06551014872983" lon="7.9239347640142"><ele>624.6</ele><time>2026-05-03T12:54:57.999Z</time></trkpt><trkpt lat="44.06548246070939" lon="7.924069580576377"><ele>625.0</ele><time>2026-05-03T12:54:58.999Z</time></trkpt><trkpt lat="44.06546567716273" lon="7.924235734089557"><ele>625.8</ele><time>2026-05-03T12:54:59.999Z</time></trkpt><trkpt lat="44.06546155063278" lon="7.924415716904926"><ele>626.6</ele><time>2026-05-03T12:55:00.999Z</time></trkpt><trkpt lat="44.065448640262424" lon="7.924551583027117"><ele>627.4</ele><time>2026-05-03T12:55:01.999Z</time></trkpt><trkpt lat="44.06543281710523" lon="7.924691217093309"><ele>628.2</ele><time>2026-05-03T12:55:02.999Z</time></trkpt><trkpt lat="44.06542145891876" lon="7.9248459764237"><ele>629.0</ele><time>2026-05-03T12:55:03.999Z</time></trkpt><trkpt lat="44.06541490600744" lon="7.924991188360716"><ele>631.4</ele><time>2026-05-03T12:55:04.999Z</time></trkpt><trkpt lat="44.06539222331463" lon="7.925113930707015"><ele>633.8</ele><time>2026-05-03T12:55:05.999Z</time></trkpt><trkpt lat="44.0653478739922" lon="7.925220443834579"><ele>636.1999999999999</ele><time>2026-05-03T12:55:06.999Z</time></trkpt><trkpt lat="44.065286456375325" lon="7.925330590488383"><ele>638.5999999999999</ele><time>2026-05-03T12:55:07.999Z</time></trkpt><trkpt lat="44.06523877029405" lon="7.925435589733008"><ele>641.0</ele><time>2026-05-03T12:55:08.999Z</time></trkpt><trkpt lat="44.065188708761546" lon="7.925533581981824"><ele>641.0</ele><time>2026-05-03T12:55:09.999Z</time></trkpt><trkpt lat="44.06514784734521" lon="7.925642875277545"><ele>641.0</ele><time>2026-05-03T12:55:10.999Z</time></trkpt><trkpt lat="44.06509333484501" lon="7.925743125189374"><ele>641.0</ele><time>2026-05-03T12:55:11.999Z</time></trkpt><trkpt lat="44.06506519100899" lon="7.925833485331003"><ele>641.0</ele><time>2026-05-03T12:55:12.999Z</time></trkpt><trkpt lat="44.06498346629753" lon="7.925913521458049"><ele>641.0</ele><time>2026-05-03T12:55:14.999Z</time></trkpt><trkpt lat="44.06500420757596" lon="7.925669375468241"><ele>641.0</ele><time>2026-05-03T12:55:18.999Z</time></trkpt><trkpt lat="44.065012044257074" lon="7.925549041875918"><ele>641.0</ele><time>2026-05-03T12:55:19.999Z</time></trkpt><trkpt lat="44.06503019128713" lon="7.925418059445092"><ele>641.0</ele><time>2026-05-03T12:55:20.999Z</time></trkpt><trkpt lat="44.06504934059115" lon="7.925286967902455"><ele>641.0</ele><time>2026-05-03T12:55:21.999Z</time></trkpt><trkpt lat="44.065059738628044" lon="7.925191841501597"><ele>641.0</ele><time>2026-05-03T12:55:22.999Z</time></trkpt><trkpt lat="44.06506804226975" lon="7.925080433594493"><ele>641.0</ele><time>2026-05-03T12:55:23.999Z</time></trkpt><trkpt lat="44.06507631382699" lon="7.924952505886971"><ele>638.5999999999999</ele><time>2026-05-03T12:55:24.999Z</time></trkpt><trkpt lat="44.06508213027123" lon="7.924822712135876"><ele>636.1999999999999</ele><time>2026-05-03T12:55:25.999Z</time></trkpt><trkpt lat="44.06508464798954" lon="7.924694602431557"><ele>633.8</ele><time>2026-05-03T12:55:26.999Z</time></trkpt><trkpt lat="44.06507934778769" lon="7.9245646019539215"><ele>631.4</ele><time>2026-05-03T12:55:27.999Z</time></trkpt><trkpt lat="44.065068182477084" lon="7.9244287016059305"><ele>629.0</ele><time>2026-05-03T12:55:28.999Z</time></trkpt><trkpt lat="44.065052881856836" lon="7.92428864968585"><ele>628.2</ele><time>2026-05-03T12:55:29.999Z</time></trkpt><trkpt lat="44.0650360757564" lon="7.924143084515606"><ele>627.4</ele><time>2026-05-03T12:55:30.999Z</time></trkpt><trkpt lat="44.06500414667784" lon="7.923996472824542"><ele>626.6</ele><time>2026-05-03T12:55:31.999Z</time></trkpt><trkpt lat="44.06499044666708" lon="7.923851694576195"><ele>625.8</ele><time>2026-05-03T12:55:32.999Z</time></trkpt><trkpt lat="44.06496953118404" lon="7.923706117438023"><ele>625.0</ele><time>2026-05-03T12:55:33.999Z</time></trkpt><trkpt lat="44.06496389132676" lon="7.92355405897587"><ele>625.0</ele><time>2026-05-03T12:55:34.999Z</time></trkpt><trkpt lat="44.064946107402854" lon="7.923418866198094"><ele>625.0</ele><time>2026-05-03T12:55:35.999Z</time></trkpt><trkpt lat="44.06492745577653" lon="7.923287279776729"><ele>625.0</ele><time>2026-05-03T12:55:36.999Z</time></trkpt><trkpt lat="44.06491804741505" lon="7.923157943011731"><ele>625.0</ele><time>2026-05-03T12:55:37.999Z</time></trkpt><trkpt lat="44.064928854207814" lon="7.923031333724414"><ele>625.0</ele><time>2026-05-03T12:55:38.999Z</time></trkpt><trkpt lat="44.06494273165524" lon="7.922877615589473"><ele>624.6</ele><time>2026-05-03T12:55:39.999Z</time></trkpt><trkpt lat="44.064948098360794" lon="7.922724268578864"><ele>624.2</ele><time>2026-05-03T12:55:40.999Z</time></trkpt><trkpt lat="44.0649217522628" lon="7.922588618540366"><ele>623.8</ele><time>2026-05-03T12:55:41.999Z</time></trkpt><trkpt lat="44.064901321024685" lon="7.922443612820613"><ele>623.4</ele><time>2026-05-03T12:55:42.999Z</time></trkpt><trkpt lat="44.06487088308793" lon="7.92229168667326"><ele>623.0</ele><time>2026-05-03T12:55:43.999Z</time></trkpt><trkpt lat="44.06483790444478" lon="7.92213640092358"><ele>616.0</ele><time>2026-05-03T12:55:44.999Z</time></trkpt><trkpt lat="44.06479825523945" lon="7.92198488690093"><ele>609.0</ele><time>2026-05-03T12:55:45.999Z</time></trkpt><trkpt lat="44.06474987249151" lon="7.921849518136318"><ele>602.0</ele><time>2026-05-03T12:55:46.999Z</time></trkpt><trkpt lat="44.06469877126677" lon="7.9217152718531745"><ele>595.0</ele><time>2026-05-03T12:55:47.999Z</time></trkpt><trkpt lat="44.06466037997647" lon="7.921577576851435"><ele>588.0</ele><time>2026-05-03T12:55:48.999Z</time></trkpt><trkpt lat="44.06461691506167" lon="7.921455043807254"><ele>588.0</ele><time>2026-05-03T12:55:49.999Z</time></trkpt><trkpt lat="44.06455885978605" lon="7.921335232868049"><ele>588.0</ele><time>2026-05-03T12:55:50.999Z</time></trkpt><trkpt lat="44.064496278944986" lon="7.921212556583163"><ele>588.0</ele><time>2026-05-03T12:55:52Z</time></trkpt><trkpt lat="44.06444581103298" lon="7.921067666603428"><ele>588.0</ele><time>2026-05-03T12:55:53Z</time></trkpt><trkpt lat="44.06440183463609" lon="7.920916989214135"><ele>588.0</ele><time>2026-05-03T12:55:54Z</time></trkpt><trkpt lat="44.06437030674342" lon="7.920771685319136"><ele>589.6</ele><time>2026-05-03T12:55:55Z</time></trkpt><trkpt lat="44.064350667060495" lon="7.920643236002225"><ele>591.1999999999999</ele><time>2026-05-03T12:55:56Z</time></trkpt><trkpt lat="44.0643364426142" lon="7.920529253641616"><ele>592.8</ele><time>2026-05-03T12:55:57Z</time></trkpt><trkpt lat="44.064365161782604" lon="7.920438741094524"><ele>594.4</ele><time>2026-05-03T12:55:58Z</time></trkpt><trkpt lat="44.064431933616135" lon="7.920372331125488"><ele>596.0</ele><time>2026-05-03T12:55:59Z</time></trkpt><trkpt lat="44.06449566314579" lon="7.92018841740996"><ele>595.5</ele><time>2026-05-03T12:56:00Z</time></trkpt><trkpt lat="44.064532122640045" lon="7.920007576076233"><ele>595.0</ele><time>2026-05-03T12:56:01Z</time></trkpt><trkpt lat="44.06458199636659" lon="7.919857009652398"><ele>594.5</ele><time>2026-05-03T12:56:02Z</time></trkpt><trkpt lat="44.06465001985803" lon="7.919803068533845"><ele>594.0</ele><time>2026-05-03T12:56:03Z</time></trkpt><trkpt lat="44.0647403426945" lon="7.9196874379728435"><ele>594.0</ele><time>2026-05-03T12:56:04Z</time></trkpt><trkpt lat="44.06483468748969" lon="7.919557572801512"><ele>594.0</ele><time>2026-05-03T12:56:05Z</time></trkpt><trkpt lat="44.064903939808104" lon="7.919425081940004"><ele>594.0</ele><time>2026-05-03T12:56:06Z</time></trkpt><trkpt lat="44.064940364073784" lon="7.919300618793379"><ele>594.0</ele><time>2026-05-03T12:56:07Z</time></trkpt><trkpt lat="44.06493099610784" lon="7.919156338637357"><ele>591.8333333333334</ele><time>2026-05-03T12:56:08Z</time></trkpt><trkpt lat="44.06488708151715" lon="7.919040393377133"><ele>589.6666666666666</ele><time>2026-05-03T12:56:09Z</time></trkpt><trkpt lat="44.06487005560629" lon="7.918949098087031"><ele>587.5</ele><time>2026-05-03T12:56:10Z</time></trkpt><trkpt lat="44.064839580366865" lon="7.918848269204403"><ele>585.3333333333333</ele><time>2026-05-03T12:56:11Z</time></trkpt><trkpt lat="44.06479502521671" lon="7.9187740004770895"><ele>583.1666666666666</ele><time>2026-05-03T12:56:12Z</time></trkpt><trkpt lat="44.0646958534195" lon="7.918746925484555"><ele>581.0</ele><time>2026-05-03T12:56:14Z</time></trkpt><trkpt lat="44.064726088146266" lon="7.9189870139209395"><ele>581.0</ele><time>2026-05-03T12:56:17Z</time></trkpt><trkpt lat="44.06473141360509" lon="7.919131056430884"><ele>581.0</ele><time>2026-05-03T12:56:18Z</time></trkpt><trkpt lat="44.06471184795925" lon="7.919239746040935"><ele>581.0</ele><time>2026-05-03T12:56:19Z</time></trkpt><trkpt lat="44.06464506756402" lon="7.919333587048546"><ele>581.0</ele><time>2026-05-03T12:56:20Z</time></trkpt><trkpt lat="44.06450740443824" lon="7.91936973119984"><ele>581.0</ele><time>2026-05-03T12:56:21Z</time></trkpt><trkpt lat="44.06440115293103" lon="7.919457422251832"><ele>583.6</ele><time>2026-05-03T12:56:22Z</time></trkpt><trkpt lat="44.06432839275717" lon="7.919514227836715"><ele>586.2</ele><time>2026-05-03T12:56:23Z</time></trkpt><trkpt lat="44.06424963161971" lon="7.919585249739145"><ele>588.8</ele><time>2026-05-03T12:56:24Z</time></trkpt><trkpt lat="44.06415667277479" lon="7.919678788996907"><ele>591.4</ele><time>2026-05-03T12:56:25Z</time></trkpt><trkpt lat="44.0640756686095" lon="7.919773225701675"><ele>594.0</ele><time>2026-05-03T12:56:26Z</time></trkpt><trkpt lat="44.064006744675694" lon="7.9198568474466695"><ele>587.4</ele><time>2026-05-03T12:56:27Z</time></trkpt><trkpt lat="44.06395928759407" lon="7.9199238442581"><ele>580.8</ele><time>2026-05-03T12:56:28Z</time></trkpt><trkpt lat="44.063923536066255" lon="7.920010296002765"><ele>574.2</ele><time>2026-05-03T12:56:29Z</time></trkpt><trkpt lat="44.06390554412324" lon="7.920115094331483"><ele>567.6</ele><time>2026-05-03T12:56:30Z</time></trkpt><trkpt lat="44.063898384149724" lon="7.920279146052692"><ele>561.0</ele><time>2026-05-03T12:56:31Z</time></trkpt><trkpt lat="44.0638906154981" lon="7.920456083823135"><ele>560.0</ele><time>2026-05-03T12:56:32Z</time></trkpt><trkpt lat="44.06388479266469" lon="7.920628406386138"><ele>559.0</ele><time>2026-05-03T12:56:33Z</time></trkpt><trkpt lat="44.063879443037685" lon="7.920779384748244"><ele>558.0</ele><time>2026-05-03T12:56:34Z</time></trkpt><trkpt lat="44.06386979742613" lon="7.920914832943403"><ele>557.0</ele><time>2026-05-03T12:56:35Z</time></trkpt><trkpt lat="44.06386911545504" lon="7.9210337161169875"><ele>556.0</ele><time>2026-05-03T12:56:36Z</time></trkpt><trkpt lat="44.06388442860385" lon="7.921169136255698"><ele>555.6</ele><time>2026-05-03T12:56:37Z</time></trkpt><trkpt lat="44.063900345146926" lon="7.921296730310898"><ele>555.2</ele><time>2026-05-03T12:56:38Z</time></trkpt><trkpt lat="44.06391178479971" lon="7.921416016084867"><ele>554.8</ele><time>2026-05-03T12:56:39Z</time></trkpt><trkpt lat="44.063903932396975" lon="7.921548575202533"><ele>554.4</ele><time>2026-05-03T12:56:40Z</time></trkpt><trkpt lat="44.06390201786925" lon="7.921687083318552"><ele>554.0</ele><time>2026-05-03T12:56:41Z</time></trkpt><trkpt lat="44.063865019055065" lon="7.9218085378318355"><ele>554.0</ele><time>2026-05-03T12:56:42Z</time></trkpt><trkpt lat="44.06384100551025" lon="7.9219090534736445"><ele>554.0</ele><time>2026-05-03T12:56:43Z</time></trkpt><trkpt lat="44.06381011216371" lon="7.922071904191109"><ele>554.0</ele><time>2026-05-03T12:56:44.999Z</time></trkpt><trkpt lat="44.06380103346237" lon="7.922235083276194"><ele>554.0</ele><time>2026-05-03T12:56:46.999Z</time></trkpt><trkpt lat="44.06380833821881" lon="7.922342561444041"><ele>554.0</ele><time>2026-05-03T12:56:47.999Z</time></trkpt><trkpt lat="44.06382835390858" lon="7.922462035703306"><ele>554.4</ele><time>2026-05-03T12:56:48.999Z</time></trkpt><trkpt lat="44.06384145441449" lon="7.922586183484908"><ele>554.8</ele><time>2026-05-03T12:56:49.999Z</time></trkpt><trkpt lat="44.063837494922176" lon="7.922712861575218"><ele>555.2</ele><time>2026-05-03T12:56:50.999Z</time></trkpt><trkpt lat="44.06382810509296" lon="7.922849804960835"><ele>555.6</ele><time>2026-05-03T12:56:51.999Z</time></trkpt><trkpt lat="44.06382411100763" lon="7.922986904129243"><ele>556.0</ele><time>2026-05-03T12:56:52.999Z</time></trkpt><trkpt lat="44.06381651710333" lon="7.923125444216513"><ele>556.0</ele><time>2026-05-03T12:56:53.999Z</time></trkpt><trkpt lat="44.063805225172615" lon="7.923272298890504"><ele>556.0</ele><time>2026-05-03T12:56:54.999Z</time></trkpt><trkpt lat="44.063781610984236" lon="7.923415500868242"><ele>556.0</ele><time>2026-05-03T12:56:55.999Z</time></trkpt><trkpt lat="44.06374977821901" lon="7.923545267114726"><ele>556.0</ele><time>2026-05-03T12:56:56.999Z</time></trkpt><trkpt lat="44.0637158003886" lon="7.923674232877068"><ele>556.0</ele><time>2026-05-03T12:56:57.999Z</time></trkpt><trkpt lat="44.06369923111642" lon="7.923797597015868"><ele>559.8</ele><time>2026-05-03T12:56:58.999Z</time></trkpt><trkpt lat="44.06371011875988" lon="7.923940417781122"><ele>563.6</ele><time>2026-05-03T12:56:59.999Z</time></trkpt><trkpt lat="44.06368014161538" lon="7.92409587498732"><ele>567.4</ele><time>2026-05-03T12:57:00.999Z</time></trkpt><trkpt lat="44.063638250775476" lon="7.924216685105167"><ele>571.2</ele><time>2026-05-03T12:57:01.999Z</time></trkpt><trkpt lat="44.06359274468308" lon="7.924299311005747"><ele>575.0</ele><time>2026-05-03T12:57:02.999Z</time></trkpt><trkpt lat="44.06344497277351" lon="7.924301312555165"><ele>572.4</ele><time>2026-05-03T12:57:04.999Z</time></trkpt><trkpt lat="44.06335296883542" lon="7.924233049026184"><ele>569.8</ele><time>2026-05-03T12:57:05.999Z</time></trkpt><trkpt lat="44.063263678166116" lon="7.924214206541327"><ele>567.2</ele><time>2026-05-03T12:57:06.999Z</time></trkpt><trkpt lat="44.063185465183324" lon="7.92418717385011"><ele>564.6</ele><time>2026-05-03T12:57:07.999Z</time></trkpt><trkpt lat="44.06309653634057" lon="7.924240948253252"><ele>562.0</ele><time>2026-05-03T12:57:08.999Z</time></trkpt><trkpt lat="44.062973955237496" lon="7.924267212581284"><ele>571.5</ele><time>2026-05-03T12:57:09.999Z</time></trkpt><trkpt lat="44.06284459202151" lon="7.924347494046209"><ele>581.0</ele><time>2026-05-03T12:57:10.999Z</time></trkpt><trkpt lat="44.06272709296554" lon="7.924402360533004"><ele>590.5</ele><time>2026-05-03T12:57:11.999Z</time></trkpt><trkpt lat="44.06263015044857" lon="7.924455727461762"><ele>600.0</ele><time>2026-05-03T12:57:12.999Z</time></trkpt><trkpt lat="44.062535144758385" lon="7.924471961321728"><ele>598.6</ele><time>2026-05-03T12:57:13.999Z</time></trkpt><trkpt lat="44.06243780167252" lon="7.924497430407088"><ele>597.2</ele><time>2026-05-03T12:57:14.999Z</time></trkpt><trkpt lat="44.062329251726275" lon="7.924475288751281"><ele>595.8</ele><time>2026-05-03T12:57:15.999Z</time></trkpt><trkpt lat="44.0622274104523" lon="7.924439461080925"><ele>594.4</ele><time>2026-05-03T12:57:16.999Z</time></trkpt><trkpt lat="44.062123995756224" lon="7.924419878839971"><ele>593.0</ele><time>2026-05-03T12:57:17.999Z</time></trkpt><trkpt lat="44.06203697129288" lon="7.924331985799982"><ele>593.0</ele><time>2026-05-03T12:57:18.999Z</time></trkpt><trkpt lat="44.06196273368213" lon="7.92424903342922"><ele>593.0</ele><time>2026-05-03T12:57:19.999Z</time></trkpt><trkpt lat="44.06187467967445" lon="7.924212392443951"><ele>593.0</ele><time>2026-05-03T12:57:20.999Z</time></trkpt><trkpt lat="44.0617759460641" lon="7.9242015370730154"><ele>593.0</ele><time>2026-05-03T12:57:21.999Z</time></trkpt><trkpt lat="44.061643777828" lon="7.92426346201624"><ele>593.0</ele><time>2026-05-03T12:57:22.999Z</time></trkpt><trkpt lat="44.06156719515754" lon="7.924221799106987"><ele>585.8</ele><time>2026-05-03T12:57:23.999Z</time></trkpt><trkpt lat="44.061488659380885" lon="7.9241535194804635"><ele>578.5999999999999</ele><time>2026-05-03T12:57:24.999Z</time></trkpt><trkpt lat="44.061417493530676" lon="7.924064512386794"><ele>571.4000000000001</ele><time>2026-05-03T12:57:25.999Z</time></trkpt><trkpt lat="44.06133657002109" lon="7.923992077934039"><ele>564.2</ele><time>2026-05-03T12:57:26.999Z</time></trkpt><trkpt lat="44.0612386403228" lon="7.92395053895082"><ele>557.0</ele><time>2026-05-03T12:57:27.999Z</time></trkpt><trkpt lat="44.06113623269978" lon="7.923904325126586"><ele>557.0</ele><time>2026-05-03T12:57:28.999Z</time></trkpt><trkpt lat="44.06103885295763" lon="7.923856819822862"><ele>557.0</ele><time>2026-05-03T12:57:29.999Z</time></trkpt><trkpt lat="44.06095144552061" lon="7.923805932487691"><ele>557.0</ele><time>2026-05-03T12:57:30.999Z</time></trkpt><trkpt lat="44.06085783993434" lon="7.92376851430523"><ele>557.0</ele><time>2026-05-03T12:57:31.999Z</time></trkpt><trkpt lat="44.06077332039104" lon="7.923753293783905"><ele>557.0</ele><time>2026-05-03T12:57:32.999Z</time></trkpt><trkpt lat="44.060699998231925" lon="7.9237505453918"><ele>554.6</ele><time>2026-05-03T12:57:33.999Z</time></trkpt><trkpt lat="44.060605248399774" lon="7.923835163033225"><ele>552.2</ele><time>2026-05-03T12:57:35.999Z</time></trkpt><trkpt lat="44.060587873761236" lon="7.923921817668618"><ele>549.8</ele><time>2026-05-03T12:57:36.999Z</time></trkpt><trkpt lat="44.060559142488835" lon="7.9240403004752"><ele>547.4</ele><time>2026-05-03T12:57:37.999Z</time></trkpt><trkpt lat="44.06052167538735" lon="7.924178559366065"><ele>545.0</ele><time>2026-05-03T12:57:38.999Z</time></trkpt><trkpt lat="44.060465512113524" lon="7.924313838436795"><ele>545.0</ele><time>2026-05-03T12:57:39.999Z</time></trkpt><trkpt lat="44.060427538944396" lon="7.9244420286749975"><ele>545.0</ele><time>2026-05-03T12:57:40.999Z</time></trkpt><trkpt lat="44.0603934436446" lon="7.924586462728089"><ele>545.0</ele><time>2026-05-03T12:57:41.999Z</time></trkpt><trkpt lat="44.06033679823165" lon="7.924710458027243"><ele>545.0</ele><time>2026-05-03T12:57:42.999Z</time></trkpt><trkpt lat="44.06028276644367" lon="7.924811632484618"><ele>545.0</ele><time>2026-05-03T12:57:43.999Z</time></trkpt><trkpt lat="44.06024419752039" lon="7.924908093659578"><ele>545.0</ele><time>2026-05-03T12:57:44.999Z</time></trkpt><trkpt lat="44.06020771726513" lon="7.924984342925735"><ele>545.0</ele><time>2026-05-03T12:57:45.999Z</time></trkpt><trkpt lat="44.06013858580955" lon="7.924979047132366"><ele>545.0</ele><time>2026-05-03T12:57:47.999Z</time></trkpt><trkpt lat="44.060159948467366" lon="7.92479227903841"><ele>545.0</ele><time>2026-05-03T12:57:49.999Z</time></trkpt><trkpt lat="44.060250664361554" lon="7.924711348517337"><ele>545.0</ele><time>2026-05-03T12:57:50.999Z</time></trkpt><trkpt lat="44.0603063829451" lon="7.92456926382519"><ele>545.0</ele><time>2026-05-03T12:57:51.999Z</time></trkpt><trkpt lat="44.06031964725056" lon="7.924455205391551"><ele>545.0</ele><time>2026-05-03T12:57:52.999Z</time></trkpt><trkpt lat="44.06033176475615" lon="7.924327461378655"><ele>545.0</ele><time>2026-05-03T12:57:53.999Z</time></trkpt><trkpt lat="44.06034654824148" lon="7.92415289440316"><ele>545.0</ele><time>2026-05-03T12:57:54.999Z</time></trkpt><trkpt lat="44.06033763231795" lon="7.923930606703113"><ele>541.8</ele><time>2026-05-03T12:57:55.999Z</time></trkpt><trkpt lat="44.06031264868794" lon="7.923752066406827"><ele>538.6</ele><time>2026-05-03T12:57:56.999Z</time></trkpt><trkpt lat="44.06030533055702" lon="7.923605488378705"><ele>535.4</ele><time>2026-05-03T12:57:58Z</time></trkpt><trkpt lat="44.06034009307063" lon="7.9234956944217085"><ele>532.2</ele><time>2026-05-03T12:57:59Z</time></trkpt><trkpt lat="44.0603697671763" lon="7.923382296287938"><ele>529.0</ele><time>2026-05-03T12:58:00Z</time></trkpt><trkpt lat="44.060413146953394" lon="7.923255350938276"><ele>530.3333333333334</ele><time>2026-05-03T12:58:01Z</time></trkpt><trkpt lat="44.06046805057502" lon="7.923122083549827"><ele>531.6666666666667</ele><time>2026-05-03T12:58:02Z</time></trkpt><trkpt lat="44.060520078615305" lon="7.923015525747858"><ele>533.0</ele><time>2026-05-03T12:58:03Z</time></trkpt><trkpt lat="44.06056653249749" lon="7.922943921687824"><ele>534.3333333333334</ele><time>2026-05-03T12:58:04Z</time></trkpt><trkpt lat="44.060662173393844" lon="7.922911702958741"><ele>535.6666666666666</ele><time>2026-05-03T12:58:06Z</time></trkpt><trkpt lat="44.06073620149929" lon="7.9229328715783485"><ele>537.0</ele><time>2026-05-03T12:58:07Z</time></trkpt><trkpt lat="44.060806633243985" lon="7.9230312237747675"><ele>537.0</ele><time>2026-05-03T12:58:08Z</time></trkpt><trkpt lat="44.060921525612635" lon="7.9231333992567725"><ele>537.0</ele><time>2026-05-03T12:58:09Z</time></trkpt><trkpt lat="44.06102340946229" lon="7.923177114087364"><ele>537.0</ele><time>2026-05-03T12:58:10Z</time></trkpt><trkpt lat="44.061114251564874" lon="7.923202841956624"><ele>537.0</ele><time>2026-05-03T12:58:11Z</time></trkpt><trkpt lat="44.06122990697395" lon="7.923232820132809"><ele>537.0</ele><time>2026-05-03T12:58:12Z</time></trkpt><trkpt lat="44.06135977957325" lon="7.923261458375811"><ele>537.0</ele><time>2026-05-03T12:58:13Z</time></trkpt><trkpt lat="44.06149994460459" lon="7.923267601059027"><ele>537.0</ele><time>2026-05-03T12:58:14Z</time></trkpt><trkpt lat="44.06160965043572" lon="7.923295992165095"><ele>537.0</ele><time>2026-05-03T12:58:15Z</time></trkpt><trkpt lat="44.061701530727994" lon="7.923303192617227"><ele>535.2</ele><time>2026-05-03T12:58:16Z</time></trkpt><trkpt lat="44.061796557357795" lon="7.923273150995317"><ele>533.4000000000001</ele><time>2026-05-03T12:58:17Z</time></trkpt><trkpt lat="44.061886816189364" lon="7.923164636226114"><ele>531.5999999999999</ele><time>2026-05-03T12:58:18Z</time></trkpt><trkpt lat="44.06197146254821" lon="7.923065582672484"><ele>529.8</ele><time>2026-05-03T12:58:19Z</time></trkpt><trkpt lat="44.062064567010985" lon="7.922980475084912"><ele>528.0</ele><time>2026-05-03T12:58:20Z</time></trkpt><trkpt lat="44.06212705649314" lon="7.922891088090563"><ele>528.0</ele><time>2026-05-03T12:58:21Z</time></trkpt><trkpt lat="44.06218158461711" lon="7.9228323347065"><ele>528.0</ele><time>2026-05-03T12:58:22Z</time></trkpt><trkpt lat="44.062304180393745" lon="7.922818336005334"><ele>528.0</ele><time>2026-05-03T12:58:24Z</time></trkpt><trkpt lat="44.06238848784257" lon="7.9227982496216764"><ele>528.0</ele><time>2026-05-03T12:58:25Z</time></trkpt><trkpt lat="44.06245144100033" lon="7.922768434780818"><ele>528.0</ele><time>2026-05-03T12:58:26Z</time></trkpt><trkpt lat="44.06248656019383" lon="7.922684261275886"><ele>528.0</ele><time>2026-05-03T12:58:27Z</time></trkpt><trkpt lat="44.06249352750751" lon="7.9225934044568485"><ele>522.4</ele><time>2026-05-03T12:58:28Z</time></trkpt><trkpt lat="44.062412467153386" lon="7.922482295431191"><ele>516.8</ele><time>2026-05-03T12:58:29Z</time></trkpt><trkpt lat="44.06236963734536" lon="7.922326839069488"><ele>511.2</ele><time>2026-05-03T12:58:30Z</time></trkpt><trkpt lat="44.06232735040263" lon="7.922200565159366"><ele>505.6</ele><time>2026-05-03T12:58:31Z</time></trkpt><trkpt lat="44.06229235324911" lon="7.922083969276647"><ele>500.0</ele><time>2026-05-03T12:58:33Z</time></trkpt><trkpt lat="44.06223096914301" lon="7.922032439684593"><ele>500.0</ele><time>2026-05-03T13:00:45Z</time></trkpt><trkpt lat="44.06217848893262" lon="7.921948133784202"><ele>500.0</ele><time>2026-05-03T13:00:47Z</time></trkpt><trkpt lat="44.06214923380953" lon="7.92176912444464"><ele>500.0</ele><time>2026-05-03T13:00:49Z</time></trkpt><trkpt lat="44.06220153881808" lon="7.921634222994197"><ele>500.0</ele><time>2026-05-03T13:00:50Z</time></trkpt><trkpt lat="44.06225580574873" lon="7.921510205293294"><ele>500.0</ele><time>2026-05-03T13:00:51Z</time></trkpt><trkpt lat="44.06231960196741" lon="7.921343414590326"><ele>495.75</ele><time>2026-05-03T13:00:52Z</time></trkpt><trkpt lat="44.06236943575219" lon="7.921195825575258"><ele>491.5</ele><time>2026-05-03T13:00:53Z</time></trkpt><trkpt lat="44.062381704450104" lon="7.92106338464357"><ele>487.25</ele><time>2026-05-03T13:00:54Z</time></trkpt><trkpt lat="44.06235630224447" lon="7.920917467813107"><ele>483.0</ele><time>2026-05-03T13:00:55Z</time></trkpt><trkpt lat="44.062302490982454" lon="7.920746247376343"><ele>481.0</ele><time>2026-05-03T13:00:56Z</time></trkpt><trkpt lat="44.06224860856971" lon="7.920548438701204"><ele>479.0</ele><time>2026-05-03T13:00:57Z</time></trkpt><trkpt lat="44.06218981869921" lon="7.92036003573774"><ele>477.0</ele><time>2026-05-03T13:00:58Z</time></trkpt><trkpt lat="44.062127613901275" lon="7.920196935838624"><ele>475.0</ele><time>2026-05-03T13:00:59Z</time></trkpt><trkpt lat="44.06207463934605" lon="7.920077127912655"><ele>475.6666666666667</ele><time>2026-05-03T13:01:00Z</time></trkpt><trkpt lat="44.06202112531481" lon="7.9199632212907245"><ele>476.33333333333337</ele><time>2026-05-03T13:01:00.999Z</time></trkpt><trkpt lat="44.061984435952276" lon="7.9198403510878626"><ele>477.0</ele><time>2026-05-03T13:01:01.999Z</time></trkpt><trkpt lat="44.06194026139862" lon="7.91974073052806"><ele>477.66666666666663</ele><time>2026-05-03T13:01:02.999Z</time></trkpt><trkpt lat="44.061902567889355" lon="7.919650770367628"><ele>478.3333333333333</ele><time>2026-05-03T13:01:03.999Z</time></trkpt><trkpt lat="44.06185002338948" lon="7.919557914490406"><ele>479.0</ele><time>2026-05-03T13:01:04.999Z</time></trkpt><trkpt lat="44.061826383435125" lon="7.919444398673518"><ele>479.0</ele><time>2026-05-03T13:01:05.999Z</time></trkpt><trkpt lat="44.06178650070068" lon="7.91931628009145"><ele>479.0</ele><time>2026-05-03T13:01:06.999Z</time></trkpt><trkpt lat="44.06174747058258" lon="7.919190639135284"><ele>479.0</ele><time>2026-05-03T13:01:07.999Z</time></trkpt><trkpt lat="44.0617099692689" lon="7.9190682984446905"><ele>479.0</ele><time>2026-05-03T13:01:08.999Z</time></trkpt><trkpt lat="44.06166408249582" lon="7.918957050677698"><ele>479.0</ele><time>2026-05-03T13:01:09.999Z</time></trkpt><trkpt lat="44.061604773282404" lon="7.918863302665658"><ele>474.4</ele><time>2026-05-03T13:01:10.999Z</time></trkpt><trkpt lat="44.06153240224891" lon="7.918785562908615"><ele>469.79999999999995</ele><time>2026-05-03T13:01:11.999Z</time></trkpt><trkpt lat="44.06147954738441" lon="7.91868659823191"><ele>465.20000000000005</ele><time>2026-05-03T13:01:12.999Z</time></trkpt><trkpt lat="44.061407543160875" lon="7.918600589074018"><ele>460.6</ele><time>2026-05-03T13:01:13.999Z</time></trkpt><trkpt lat="44.06138513780597" lon="7.918470356539267"><ele>456.0</ele><time>2026-05-03T13:01:14.999Z</time></trkpt><trkpt lat="44.06135127759481" lon="7.918343689516809"><ele>456.0</ele><time>2026-05-03T13:01:15.999Z</time></trkpt><trkpt lat="44.06130433034628" lon="7.918219610679951"><ele>456.0</ele><time>2026-05-03T13:01:16.999Z</time></trkpt><trkpt lat="44.06127510624985" lon="7.918101913563495"><ele>456.0</ele><time>2026-05-03T13:01:17.999Z</time></trkpt><trkpt lat="44.06125371789461" lon="7.91799270997972"><ele>456.0</ele><time>2026-05-03T13:01:18.999Z</time></trkpt><trkpt lat="44.06124092473246" lon="7.917875230344593"><ele>456.0</ele><time>2026-05-03T13:01:19.999Z</time></trkpt><trkpt lat="44.061262242279035" lon="7.917765905074783"><ele>456.0</ele><time>2026-05-03T13:01:20.999Z</time></trkpt><trkpt lat="44.06130730420122" lon="7.917674146686907"><ele>456.0</ele><time>2026-05-03T13:01:21.999Z</time></trkpt><trkpt lat="44.061368890154235" lon="7.917613860157802"><ele>456.0</ele><time>2026-05-03T13:01:22.999Z</time></trkpt><trkpt lat="44.06142620839297" lon="7.917576498495264"><ele>456.0</ele><time>2026-05-03T13:01:23.999Z</time></trkpt><trkpt lat="44.06149697126905" lon="7.917558557994353"><ele>456.0</ele><time>2026-05-03T13:01:24.999Z</time></trkpt><trkpt lat="44.06158869197763" lon="7.91755879032129"><ele>456.0</ele><time>2026-05-03T13:01:25.999Z</time></trkpt><trkpt lat="44.06169199446331" lon="7.917582131774921"><ele>456.0</ele><time>2026-05-03T13:01:26.999Z</time></trkpt><trkpt lat="44.06179250822754" lon="7.917604763935134"><ele>459.6</ele><time>2026-05-03T13:01:27.999Z</time></trkpt><trkpt lat="44.06188552293095" lon="7.917622532449348"><ele>463.20000000000005</ele><time>2026-05-03T13:01:28.999Z</time></trkpt><trkpt lat="44.06197490174637" lon="7.91763582254967"><ele>466.79999999999995</ele><time>2026-05-03T13:01:29.999Z</time></trkpt><trkpt lat="44.06204362351129" lon="7.9176361308717444"><ele>470.4</ele><time>2026-05-03T13:01:30.999Z</time></trkpt><trkpt lat="44.06209934597627" lon="7.917504903791509"><ele>474.0</ele><time>2026-05-03T13:01:32.999Z</time></trkpt><trkpt lat="44.061971787001916" lon="7.917388283774419"><ele>474.0</ele><time>2026-05-03T13:01:34.999Z</time></trkpt><trkpt lat="44.061876266113266" lon="7.9174075613932455"><ele>474.0</ele><time>2026-05-03T13:01:35.999Z</time></trkpt><trkpt lat="44.06178094960598" lon="7.9173973415623"><ele>474.0</ele><time>2026-05-03T13:01:36.999Z</time></trkpt><trkpt lat="44.061679916411684" lon="7.9173518470196615"><ele>474.0</ele><time>2026-05-03T13:01:37.999Z</time></trkpt><trkpt lat="44.06159391883252" lon="7.917293077204649"><ele>474.0</ele><time>2026-05-03T13:01:38.999Z</time></trkpt><trkpt lat="44.06150639828834" lon="7.917238145340799"><ele>471.1666666666667</ele><time>2026-05-03T13:01:39.999Z</time></trkpt><trkpt lat="44.06141773493828" lon="7.91717909312476"><ele>468.33333333333337</ele><time>2026-05-03T13:01:40.999Z</time></trkpt><trkpt lat="44.06133807912896" lon="7.917135017313377"><ele>465.5</ele><time>2026-05-03T13:01:41.999Z</time></trkpt><trkpt lat="44.061258953201346" lon="7.917083992281968"><ele>462.6666666666667</ele><time>2026-05-03T13:01:42.999Z</time></trkpt><trkpt lat="44.061179733902684" lon="7.917036405965997"><ele>459.83333333333337</ele><time>2026-05-03T13:01:43.999Z</time></trkpt><trkpt lat="44.06110415305175" lon="7.916997344938321"><ele>457.0</ele><time>2026-05-03T13:01:44.999Z</time></trkpt><trkpt lat="44.06102440773598" lon="7.91695027804592"><ele>457.00000000000006</ele><time>2026-05-03T13:01:45.999Z</time></trkpt><trkpt lat="44.06094792465971" lon="7.916932891097164"><ele>457.0</ele><time>2026-05-03T13:01:46.999Z</time></trkpt><trkpt lat="44.06086713929078" lon="7.916953128127511"><ele>457.0</ele><time>2026-05-03T13:01:47.999Z</time></trkpt><trkpt lat="44.06078897684072" lon="7.91701001571966"><ele>457.0</ele><time>2026-05-03T13:01:48.999Z</time></trkpt><trkpt lat="44.06070392655755" lon="7.91706882907055"><ele>457.00000000000006</ele><time>2026-05-03T13:01:49.999Z</time></trkpt><trkpt lat="44.060626676618384" lon="7.917131086450873"><ele>457.0</ele><time>2026-05-03T13:01:50.999Z</time></trkpt><trkpt lat="44.060558424016" lon="7.917198509884485"><ele>449.8</ele><time>2026-05-03T13:01:51.999Z</time></trkpt><trkpt lat="44.060520633929634" lon="7.917301849350313"><ele>442.6</ele><time>2026-05-03T13:01:52.999Z</time></trkpt><trkpt lat="44.060512205639924" lon="7.917440721659311"><ele>435.40000000000003</ele><time>2026-05-03T13:01:53.999Z</time></trkpt><trkpt lat="44.0605370779105" lon="7.917585684996191"><ele>428.20000000000005</ele><time>2026-05-03T13:01:54.999Z</time></trkpt><trkpt lat="44.06053640515954" lon="7.917725880247941"><ele>421.0</ele><time>2026-05-03T13:01:55.999Z</time></trkpt><trkpt lat="44.06053600130094" lon="7.9178856722479445"><ele>420.8</ele><time>2026-05-03T13:01:56.999Z</time></trkpt><trkpt lat="44.06053411185407" lon="7.918035111679458"><ele>420.6</ele><time>2026-05-03T13:01:57.999Z</time></trkpt><trkpt lat="44.060525114776844" lon="7.918172572748093"><ele>420.4</ele><time>2026-05-03T13:01:58.999Z</time></trkpt><trkpt lat="44.060518812552424" lon="7.918301845008629"><ele>420.2</ele><time>2026-05-03T13:01:59.999Z</time></trkpt><trkpt lat="44.06051561165122" lon="7.918449203603688"><ele>420.0</ele><time>2026-05-03T13:02:00.999Z</time></trkpt><trkpt lat="44.06052373889428" lon="7.91859654760991"><ele>419.4</ele><time>2026-05-03T13:02:01.999Z</time></trkpt><trkpt lat="44.06053579504886" lon="7.918748082739435"><ele>418.8</ele><time>2026-05-03T13:02:02.999Z</time></trkpt><trkpt lat="44.06055474253439" lon="7.918882282005111"><ele>418.20000000000005</ele><time>2026-05-03T13:02:03.999Z</time></trkpt><trkpt lat="44.0605870534856" lon="7.9190118929333675"><ele>417.6</ele><time>2026-05-03T13:02:04.999Z</time></trkpt><trkpt lat="44.06064230336207" lon="7.91913290950857"><ele>417.0</ele><time>2026-05-03T13:02:05.999Z</time></trkpt><trkpt lat="44.06070912075008" lon="7.919257710665456"><ele>418.40000000000003</ele><time>2026-05-03T13:02:06.999Z</time></trkpt><trkpt lat="44.06077041576185" lon="7.919388059159748"><ele>419.8</ele><time>2026-05-03T13:02:07.999Z</time></trkpt><trkpt lat="44.060823238045614" lon="7.9195036590552865"><ele>421.2</ele><time>2026-05-03T13:02:08.999Z</time></trkpt><trkpt lat="44.0608646732542" lon="7.91960913586746"><ele>422.6</ele><time>2026-05-03T13:02:10Z</time></trkpt><trkpt lat="44.060877706961904" lon="7.919728553801677"><ele>424.0</ele><time>2026-05-03T13:02:11Z</time></trkpt><trkpt lat="44.06084657676548" lon="7.919858658157572"><ele>427.6</ele><time>2026-05-03T13:02:12Z</time></trkpt><trkpt lat="44.06080288673313" lon="7.91997792097774"><ele>431.2</ele><time>2026-05-03T13:02:13Z</time></trkpt><trkpt lat="44.06078412058305" lon="7.920114170590383"><ele>434.80000000000007</ele><time>2026-05-03T13:02:14Z</time></trkpt><trkpt lat="44.06078754148631" lon="7.920244912506962"><ele>438.40000000000003</ele><time>2026-05-03T13:02:15Z</time></trkpt><trkpt lat="44.06080710204288" lon="7.920365374672757"><ele>442.0</ele><time>2026-05-03T13:02:16Z</time></trkpt><trkpt lat="44.06085726144586" lon="7.920473536212981"><ele>443.33333333333337</ele><time>2026-05-03T13:02:17Z</time></trkpt><trkpt lat="44.06091105825497" lon="7.9205771182636315"><ele>444.6666666666667</ele><time>2026-05-03T13:02:18Z</time></trkpt><trkpt lat="44.060941397348934" lon="7.920691899659743"><ele>446.0</ele><time>2026-05-03T13:02:19Z</time></trkpt><trkpt lat="44.060957447094026" lon="7.920800328365272"><ele>447.33333333333337</ele><time>2026-05-03T13:02:20Z</time></trkpt><trkpt lat="44.06095695765237" lon="7.920892347220168"><ele>448.6666666666667</ele><time>2026-05-03T13:02:21Z</time></trkpt><trkpt lat="44.06091916876548" lon="7.920965683673731"><ele>450.0</ele><time>2026-05-03T13:02:22Z</time></trkpt><trkpt lat="44.060838901181434" lon="7.920996810457051"><ele>450.6</ele><time>2026-05-03T13:02:23Z</time></trkpt><trkpt lat="44.06074790273902" lon="7.920975429369153"><ele>451.2</ele><time>2026-05-03T13:02:24Z</time></trkpt><trkpt lat="44.06065800832887" lon="7.9208954779088625"><ele>451.79999999999995</ele><time>2026-05-03T13:02:25Z</time></trkpt><trkpt lat="44.060573672190884" lon="7.920823081536562"><ele>452.4</ele><time>2026-05-03T13:02:26Z</time></trkpt><trkpt lat="44.0604735085033" lon="7.920786382962107"><ele>453.0</ele><time>2026-05-03T13:02:27Z</time></trkpt><trkpt lat="44.06037241747901" lon="7.9207419896443225"><ele>453.0</ele><time>2026-05-03T13:02:28Z</time></trkpt><trkpt lat="44.060274816428205" lon="7.920699955272061"><ele>452.99999999999994</ele><time>2026-05-03T13:02:29Z</time></trkpt><trkpt lat="44.06017464589547" lon="7.9206574587396625"><ele>452.99999999999994</ele><time>2026-05-03T13:02:30Z</time></trkpt><trkpt lat="44.06006983924307" lon="7.920610541971485"><ele>453.0</ele><time>2026-05-03T13:02:31Z</time></trkpt><trkpt lat="44.05996137568573" lon="7.920526756302854"><ele>453.0</ele><time>2026-05-03T13:02:32Z</time></trkpt><trkpt lat="44.05986386177623" lon="7.920504989189899"><ele>450.0</ele><time>2026-05-03T13:02:33Z</time></trkpt><trkpt lat="44.059759276508686" lon="7.920467665415084"><ele>446.99999999999994</ele><time>2026-05-03T13:02:34Z</time></trkpt><trkpt lat="44.05966867848183" lon="7.920438630565764"><ele>443.99999999999994</ele><time>2026-05-03T13:02:35Z</time></trkpt><trkpt lat="44.05958548510105" lon="7.920414774264672"><ele>441.0</ele><time>2026-05-03T13:02:36Z</time></trkpt><trkpt lat="44.05950591381067" lon="7.920441112626349"><ele>438.0</ele><time>2026-05-03T13:02:37Z</time></trkpt><trkpt lat="44.059435937367255" lon="7.920530216188461"><ele>438.0</ele><time>2026-05-03T13:02:38Z</time></trkpt><trkpt lat="44.059397830756836" lon="7.920670645956988"><ele>437.99999999999994</ele><time>2026-05-03T13:02:39Z</time></trkpt><trkpt lat="44.059354056711705" lon="7.920807794048156"><ele>437.99999999999994</ele><time>2026-05-03T13:02:40Z</time></trkpt><trkpt lat="44.059299395341405" lon="7.920938675122983"><ele>438.0</ele><time>2026-05-03T13:02:41Z</time></trkpt><trkpt lat="44.05923597685527" lon="7.921065498332083"><ele>438.0</ele><time>2026-05-03T13:02:42Z</time></trkpt><trkpt lat="44.05917018122135" lon="7.921186575657513"><ele>445.0</ele><time>2026-05-03T13:02:43Z</time></trkpt><trkpt lat="44.05910500322387" lon="7.9212824852078265"><ele>451.99999999999994</ele><time>2026-05-03T13:02:44Z</time></trkpt><trkpt lat="44.05904902271656" lon="7.921360966427426"><ele>458.99999999999994</ele><time>2026-05-03T13:02:45Z</time></trkpt><trkpt lat="44.05893703713764" lon="7.921323204001854"><ele>466.0</ele><time>2026-05-03T13:02:47Z</time></trkpt><trkpt lat="44.058892947226504" lon="7.921194141345852"><ele>473.0</ele><time>2026-05-03T13:02:48Z</time></trkpt><trkpt lat="44.058837220917574" lon="7.921049570286643"><ele>473.0</ele><time>2026-05-03T13:02:49Z</time></trkpt><trkpt lat="44.05876587268155" lon="7.920921555305898"><ele>473.0</ele><time>2026-05-03T13:02:50Z</time></trkpt><trkpt lat="44.05870318123345" lon="7.92078260281524"><ele>473.0</ele><time>2026-05-03T13:02:51Z</time></trkpt><trkpt lat="44.05863299751583" lon="7.9206328188152675"><ele>473.0</ele><time>2026-05-03T13:02:52Z</time></trkpt><trkpt lat="44.05856009484783" lon="7.920485430198473"><ele>472.0</ele><time>2026-05-03T13:02:53Z</time></trkpt><trkpt lat="44.058490184057376" lon="7.920344276608081"><ele>471.0</ele><time>2026-05-03T13:02:54Z</time></trkpt><trkpt lat="44.058422694364" lon="7.920199872283844"><ele>470.0</ele><time>2026-05-03T13:02:55Z</time></trkpt><trkpt lat="44.058351131948214" lon="7.920052984740489"><ele>469.0</ele><time>2026-05-03T13:02:56Z</time></trkpt><trkpt lat="44.058281308179865" lon="7.919906069678931"><ele>469.0</ele><time>2026-05-03T13:02:57Z</time></trkpt><trkpt lat="44.058211615667155" lon="7.919757138344249"><ele>469.0</ele><time>2026-05-03T13:02:58Z</time></trkpt><trkpt lat="44.058140917777415" lon="7.919623223544192"><ele>469.0</ele><time>2026-05-03T13:02:59Z</time></trkpt><trkpt lat="44.05806578717545" lon="7.919467747101748"><ele>469.0</ele><time>2026-05-03T13:03:00Z</time></trkpt><trkpt lat="44.05801367593507" lon="7.919305190594341"><ele>462.75</ele><time>2026-05-03T13:03:01Z</time></trkpt><trkpt lat="44.05793517860434" lon="7.919163293847341"><ele>456.5</ele><time>2026-05-03T13:03:02Z</time></trkpt><trkpt lat="44.05786607407318" lon="7.919009871651702"><ele>450.25</ele><time>2026-05-03T13:03:03Z</time></trkpt><trkpt lat="44.057793452783386" lon="7.9188631766623025"><ele>444.0</ele><time>2026-05-03T13:03:04Z</time></trkpt><trkpt lat="44.05771648305546" lon="7.918718089204963"><ele>444.0</ele><time>2026-05-03T13:03:04.999Z</time></trkpt><trkpt lat="44.05764288340447" lon="7.918579424744346"><ele>444.0</ele><time>2026-05-03T13:03:05.999Z</time></trkpt><trkpt lat="44.05755879417492" lon="7.91845663845587"><ele>444.0</ele><time>2026-05-03T13:03:06.999Z</time></trkpt><trkpt lat="44.05747760212649" lon="7.918337634104627"><ele>444.0</ele><time>2026-05-03T13:03:07.999Z</time></trkpt><trkpt lat="44.05737821165835" lon="7.918209646384421"><ele>443.75</ele><time>2026-05-03T13:03:08.999Z</time></trkpt><trkpt lat="44.05727895629607" lon="7.918077533974556"><ele>443.5</ele><time>2026-05-03T13:03:09.999Z</time></trkpt><trkpt lat="44.05718611604802" lon="7.91792664348116"><ele>443.25</ele><time>2026-05-03T13:03:10.999Z</time></trkpt><trkpt lat="44.05710183607011" lon="7.917774140926715"><ele>443.0</ele><time>2026-05-03T13:03:11.999Z</time></trkpt><trkpt lat="44.057024562500274" lon="7.9176376719490795"><ele>434.75</ele><time>2026-05-03T13:03:12.999Z</time></trkpt><trkpt lat="44.05694853768234" lon="7.917502130438132"><ele>426.5</ele><time>2026-05-03T13:03:13.999Z</time></trkpt><trkpt lat="44.05687044306316" lon="7.917363698981495"><ele>418.25</ele><time>2026-05-03T13:03:14.999Z</time></trkpt><trkpt lat="44.05678985407498" lon="7.917216258092128"><ele>410.0</ele><time>2026-05-03T13:03:15.999Z</time></trkpt><trkpt lat="44.056716383946295" lon="7.917086336748216"><ele>410.0</ele><time>2026-05-03T13:03:16.999Z</time></trkpt><trkpt lat="44.05664595365642" lon="7.916989230759257"><ele>410.0</ele><time>2026-05-03T13:03:17.999Z</time></trkpt><trkpt lat="44.05656255009431" lon="7.916958172439895"><ele>410.0</ele><time>2026-05-03T13:03:18.999Z</time></trkpt><trkpt lat="44.05648786285192" lon="7.916982259361681"><ele>410.0</ele><time>2026-05-03T13:03:19.999Z</time></trkpt><trkpt lat="44.056387174419775" lon="7.917066357564339"><ele>410.0</ele><time>2026-05-03T13:03:20.999Z</time></trkpt><trkpt lat="44.05629558007791" lon="7.917119634457845"><ele>408.3333333333333</ele><time>2026-05-03T13:03:21.999Z</time></trkpt><trkpt lat="44.05622368185817" lon="7.917195071129549"><ele>406.66666666666663</ele><time>2026-05-03T13:03:22.999Z</time></trkpt><trkpt lat="44.056174228449706" lon="7.91727201624398"><ele>405.0</ele><time>2026-05-03T13:03:23.999Z</time></trkpt><trkpt lat="44.056104953124496" lon="7.9172626961220995"><ele>403.33333333333337</ele><time>2026-05-03T13:03:25.999Z</time></trkpt><trkpt lat="44.05610957735095" lon="7.917173921375738"><ele>401.6666666666667</ele><time>2026-05-03T13:03:26.999Z</time></trkpt><trkpt lat="44.05618603888994" lon="7.917077584930989"><ele>400.0</ele><time>2026-05-03T13:03:27.999Z</time></trkpt><trkpt lat="44.05628319822054" lon="7.917020186795864"><ele>400.0</ele><time>2026-05-03T13:03:28.999Z</time></trkpt><trkpt lat="44.05636727725684" lon="7.916953701250147"><ele>400.0</ele><time>2026-05-03T13:03:29.999Z</time></trkpt><trkpt lat="44.056452198306495" lon="7.916882196366839"><ele>400.0</ele><time>2026-05-03T13:03:30.999Z</time></trkpt><trkpt lat="44.05654079570701" lon="7.916815797769074"><ele>400.0</ele><time>2026-05-03T13:03:31.999Z</time></trkpt><trkpt lat="44.05663918664728" lon="7.916797968897217"><ele>400.0</ele><time>2026-05-03T13:03:32.999Z</time></trkpt><trkpt lat="44.05673211716072" lon="7.916846871473468"><ele>402.0</ele><time>2026-05-03T13:03:33.999Z</time></trkpt><trkpt lat="44.056805791953536" lon="7.916930314304859"><ele>404.0</ele><time>2026-05-03T13:03:34.999Z</time></trkpt><trkpt lat="44.05688558142674" lon="7.917029830383523"><ele>406.0</ele><time>2026-05-03T13:03:35.999Z</time></trkpt><trkpt lat="44.05697566101944" lon="7.917127764681192"><ele>408.0</ele><time>2026-05-03T13:03:36.999Z</time></trkpt><trkpt lat="44.05706883719909" lon="7.917236973470558"><ele>410.0</ele><time>2026-05-03T13:03:37.999Z</time></trkpt><trkpt lat="44.057158534727634" lon="7.917331051011587"><ele>410.0</ele><time>2026-05-03T13:03:38.999Z</time></trkpt><trkpt lat="44.05725165916722" lon="7.917450500651064"><ele>410.0</ele><time>2026-05-03T13:03:39.999Z</time></trkpt><trkpt lat="44.05732848509818" lon="7.917553742212632"><ele>410.0</ele><time>2026-05-03T13:03:40.999Z</time></trkpt><trkpt lat="44.057398791644324" lon="7.917662607299221"><ele>410.0</ele><time>2026-05-03T13:03:41.999Z</time></trkpt><trkpt lat="44.05748797988422" lon="7.917759405061471"><ele>411.75</ele><time>2026-05-03T13:03:42.999Z</time></trkpt><trkpt lat="44.05757582021699" lon="7.9178598434775065"><ele>413.5</ele><time>2026-05-03T13:03:43.999Z</time></trkpt><trkpt lat="44.05767845663462" lon="7.917946561409998"><ele>415.25</ele><time>2026-05-03T13:03:44.999Z</time></trkpt><trkpt lat="44.057784703135425" lon="7.918014340544936"><ele>417.0</ele><time>2026-05-03T13:03:45.999Z</time></trkpt><trkpt lat="44.05788543145035" lon="7.918059569231812"><ele>417.0</ele><time>2026-05-03T13:03:46.999Z</time></trkpt><trkpt lat="44.057965188451696" lon="7.918111485742688"><ele>417.0</ele><time>2026-05-03T13:03:47.999Z</time></trkpt><trkpt lat="44.05803634885604" lon="7.918126489621221"><ele>417.0</ele><time>2026-05-03T13:03:48.999Z</time></trkpt><trkpt lat="44.058102400157566" lon="7.918102804132708"><ele>417.0</ele><time>2026-05-03T13:03:49.999Z</time></trkpt><trkpt lat="44.058150267087115" lon="7.917979960013451"><ele>417.0</ele><time>2026-05-03T13:03:50.999Z</time></trkpt><trkpt lat="44.058078704092964" lon="7.917848269630636"><ele>417.0</ele><time>2026-05-03T13:03:51.999Z</time></trkpt><trkpt lat="44.05797155846702" lon="7.917826899967575"><ele>417.0</ele><time>2026-05-03T13:03:52.999Z</time></trkpt><trkpt lat="44.05786187414256" lon="7.917802078011949"><ele>417.0</ele><time>2026-05-03T13:03:53.999Z</time></trkpt><trkpt lat="44.05777330325322" lon="7.917766521283499"><ele>417.0</ele><time>2026-05-03T13:03:54.999Z</time></trkpt><trkpt lat="44.057689601687215" lon="7.917706596316969"><ele>417.0</ele><time>2026-05-03T13:03:55.999Z</time></trkpt><trkpt lat="44.0576155651939" lon="7.917605293961687"><ele>417.0</ele><time>2026-05-03T13:03:56.999Z</time></trkpt><trkpt lat="44.05754072661544" lon="7.917471439609487"><ele>415.25</ele><time>2026-05-03T13:03:57.999Z</time></trkpt><trkpt lat="44.057452196112386" lon="7.9173616169992735"><ele>413.5</ele><time>2026-05-03T13:03:58.999Z</time></trkpt><trkpt lat="44.05738165083467" lon="7.917231399782802"><ele>411.75</ele><time>2026-05-03T13:03:59.999Z</time></trkpt><trkpt lat="44.05731204783633" lon="7.917108242349421"><ele>410.0</ele><time>2026-05-03T13:04:00.999Z</time></trkpt><trkpt lat="44.0572329174853" lon="7.91698629261783"><ele>410.0</ele><time>2026-05-03T13:04:01.999Z</time></trkpt><trkpt lat="44.057157171889436" lon="7.9168624999236625"><ele>410.0</ele><time>2026-05-03T13:04:02.999Z</time></trkpt><trkpt lat="44.057080192181445" lon="7.916737580748337"><ele>410.0</ele><time>2026-05-03T13:04:03.999Z</time></trkpt><trkpt lat="44.05700312050382" lon="7.916610308240832"><ele>410.0</ele><time>2026-05-03T13:04:04.999Z</time></trkpt><trkpt lat="44.056931295796744" lon="7.916493499744596"><ele>404.4</ele><time>2026-05-03T13:04:05.999Z</time></trkpt><trkpt lat="44.05685640532809" lon="7.916395914126309"><ele>398.8</ele><time>2026-05-03T13:04:06.999Z</time></trkpt><trkpt lat="44.05677984037963" lon="7.916319508825096"><ele>393.20000000000005</ele><time>2026-05-03T13:04:07.999Z</time></trkpt><trkpt lat="44.056684852951136" lon="7.916262759166214"><ele>387.6</ele><time>2026-05-03T13:04:08.999Z</time></trkpt><trkpt lat="44.05657729763618" lon="7.916246680288937"><ele>382.0</ele><time>2026-05-03T13:04:09.999Z</time></trkpt><trkpt lat="44.05646226842245" lon="7.916260428241974"><ele>378.40000000000003</ele><time>2026-05-03T13:04:10.999Z</time></trkpt><trkpt lat="44.05635120150584" lon="7.9163084943745625"><ele>374.8</ele><time>2026-05-03T13:04:11.999Z</time></trkpt><trkpt lat="44.056246542948934" lon="7.916373878113286"><ele>371.2</ele><time>2026-05-03T13:04:12.999Z</time></trkpt><trkpt lat="44.05615303850407" lon="7.916430229568697"><ele>367.6</ele><time>2026-05-03T13:04:13.999Z</time></trkpt><trkpt lat="44.05606151847454" lon="7.916477274060158"><ele>364.0</ele><time>2026-05-03T13:04:14.999Z</time></trkpt><trkpt lat="44.05599385651108" lon="7.916579450021595"><ele>364.0</ele><time>2026-05-03T13:04:16Z</time></trkpt><trkpt lat="44.05593357530094" lon="7.91666467927561"><ele>364.0</ele><time>2026-05-03T13:04:17Z</time></trkpt><trkpt lat="44.05587377038987" lon="7.916712453902204"><ele>364.0</ele><time>2026-05-03T13:04:18Z</time></trkpt><trkpt lat="44.05580070989755" lon="7.916677100330309"><ele>364.0</ele><time>2026-05-03T13:04:20Z</time></trkpt><trkpt lat="44.05578942290351" lon="7.916581218914057"><ele>364.0</ele><time>2026-05-03T13:04:21Z</time></trkpt><trkpt lat="44.05590440650227" lon="7.916506794241781"><ele>364.0</ele><time>2026-05-03T13:04:22Z</time></trkpt><trkpt lat="44.055998841323394" lon="7.91646974052819"><ele>364.0</ele><time>2026-05-03T13:04:23Z</time></trkpt><trkpt lat="44.056087788350965" lon="7.916402552387167"><ele>364.0</ele><time>2026-05-03T13:04:24Z</time></trkpt><trkpt lat="44.056185470634944" lon="7.916328728430162"><ele>364.0</ele><time>2026-05-03T13:04:25Z</time></trkpt><trkpt lat="44.05628361713507" lon="7.916254467182651"><ele>364.0</ele><time>2026-05-03T13:04:26Z</time></trkpt><trkpt lat="44.05637686194205" lon="7.916181442419932"><ele>364.0</ele><time>2026-05-03T13:04:27Z</time></trkpt><trkpt lat="44.056477654856494" lon="7.916120363504092"><ele>364.0</ele><time>2026-05-03T13:04:28Z</time></trkpt><trkpt lat="44.056588358289986" lon="7.916081766747128"><ele>364.0</ele><time>2026-05-03T13:04:29Z</time></trkpt><trkpt lat="44.05670353210833" lon="7.916062042553234"><ele>364.0</ele><time>2026-05-03T13:04:30Z</time></trkpt><trkpt lat="44.05681530893138" lon="7.916057856242752"><ele>364.0</ele><time>2026-05-03T13:04:31Z</time></trkpt><trkpt lat="44.05691047540338" lon="7.916104010446356"><ele>364.0</ele><time>2026-05-03T13:04:32Z</time></trkpt><trkpt lat="44.05696981977575" lon="7.916191388527082"><ele>367.6</ele><time>2026-05-03T13:04:33Z</time></trkpt><trkpt lat="44.05706464829832" lon="7.916282782403534"><ele>371.2</ele><time>2026-05-03T13:04:34Z</time></trkpt><trkpt lat="44.057157625384036" lon="7.916381356649146"><ele>374.8</ele><time>2026-05-03T13:04:35Z</time></trkpt><trkpt lat="44.05723286770305" lon="7.916492889027589"><ele>378.40000000000003</ele><time>2026-05-03T13:04:36Z</time></trkpt><trkpt lat="44.057316445878286" lon="7.916576250323169"><ele>382.0</ele><time>2026-05-03T13:04:37Z</time></trkpt><trkpt lat="44.05741739921758" lon="7.916626719011978"><ele>376.0</ele><time>2026-05-03T13:04:38Z</time></trkpt><trkpt lat="44.05753950924326" lon="7.916600956293579"><ele>370.0</ele><time>2026-05-03T13:04:39Z</time></trkpt><trkpt lat="44.05765471864851" lon="7.916581926823563"><ele>364.0</ele><time>2026-05-03T13:04:40Z</time></trkpt><trkpt lat="44.057783231361135" lon="7.916595593957752"><ele>358.0</ele><time>2026-05-03T13:04:41Z</time></trkpt><trkpt lat="44.05790746373327" lon="7.916593627798079"><ele>358.0</ele><time>2026-05-03T13:04:42Z</time></trkpt><trkpt lat="44.058023801838594" lon="7.916597067450144"><ele>358.0</ele><time>2026-05-03T13:04:43Z</time></trkpt><trkpt lat="44.05812300672136" lon="7.916602545598113"><ele>358.0</ele><time>2026-05-03T13:04:44Z</time></trkpt><trkpt lat="44.05820008807274" lon="7.9165908592389185"><ele>358.0</ele><time>2026-05-03T13:04:45Z</time></trkpt><trkpt lat="44.058265537267324" lon="7.916602456316364"><ele>358.0</ele><time>2026-05-03T13:04:46Z</time></trkpt><trkpt lat="44.05832727101557" lon="7.9165486692919345"><ele>358.0</ele><time>2026-05-03T13:04:47Z</time></trkpt><trkpt lat="44.05834919337245" lon="7.9164329746981235"><ele>358.0</ele><time>2026-05-03T13:04:48Z</time></trkpt><trkpt lat="44.058287950436984" lon="7.91634592720686"><ele>358.0</ele><time>2026-05-03T13:04:49Z</time></trkpt><trkpt lat="44.058178760106735" lon="7.916338033545636"><ele>358.0</ele><time>2026-05-03T13:04:50Z</time></trkpt><trkpt lat="44.05805084032352" lon="7.916353910674677"><ele>358.0</ele><time>2026-05-03T13:04:51Z</time></trkpt><trkpt lat="44.057933923468" lon="7.916305200078864"><ele>358.0</ele><time>2026-05-03T13:04:52Z</time></trkpt><trkpt lat="44.05783390729361" lon="7.9162272080036775"><ele>358.0</ele><time>2026-05-03T13:04:53Z</time></trkpt><trkpt lat="44.05772534327909" lon="7.916170413090058"><ele>358.0</ele><time>2026-05-03T13:04:54Z</time></trkpt><trkpt lat="44.057600157448874" lon="7.916144620831998"><ele>358.0</ele><time>2026-05-03T13:04:55Z</time></trkpt><trkpt lat="44.05747208606841" lon="7.916127537206542"><ele>358.0</ele><time>2026-05-03T13:04:56Z</time></trkpt><trkpt lat="44.057362298124715" lon="7.9160981130436125"><ele>355.2</ele><time>2026-05-03T13:04:57Z</time></trkpt><trkpt lat="44.05727532182275" lon="7.916050453708864"><ele>352.4</ele><time>2026-05-03T13:04:58Z</time></trkpt><trkpt lat="44.05720718780574" lon="7.915969415690863"><ele>349.59999999999997</ele><time>2026-05-03T13:04:59Z</time></trkpt><trkpt lat="44.05717075562667" lon="7.9158282547069"><ele>346.79999999999995</ele><time>2026-05-03T13:05:00Z</time></trkpt><trkpt lat="44.05710799337906" lon="7.915676896980411"><ele>344.0</ele><time>2026-05-03T13:05:01Z</time></trkpt><trkpt lat="44.0570623314378" lon="7.915530304621699"><ele>344.0</ele><time>2026-05-03T13:05:02Z</time></trkpt><trkpt lat="44.057012589161026" lon="7.915423909119523"><ele>344.0</ele><time>2026-05-03T13:05:03Z</time></trkpt><trkpt lat="44.05694655173208" lon="7.915354902681952"><ele>344.0</ele><time>2026-05-03T13:05:04Z</time></trkpt><trkpt lat="44.0568512179072" lon="7.915351903953639"><ele>344.0</ele><time>2026-05-03T13:05:05Z</time></trkpt><trkpt lat="44.05672660466092" lon="7.915401958038382"><ele>344.0</ele><time>2026-05-03T13:05:05.999Z</time></trkpt><trkpt lat="44.05658913155146" lon="7.9154477829379895"><ele>340.4</ele><time>2026-05-03T13:05:06.999Z</time></trkpt><trkpt lat="44.05646790140255" lon="7.915442128492005"><ele>336.79999999999995</ele><time>2026-05-03T13:05:07.999Z</time></trkpt><trkpt lat="44.056355587265045" lon="7.915404546226199"><ele>333.20000000000005</ele><time>2026-05-03T13:05:08.999Z</time></trkpt><trkpt lat="44.05625929161304" lon="7.915365995756422"><ele>329.6</ele><time>2026-05-03T13:05:09.999Z</time></trkpt><trkpt lat="44.05616845250641" lon="7.915339298646072"><ele>326.0</ele><time>2026-05-03T13:05:10.999Z</time></trkpt><trkpt lat="44.05608749191143" lon="7.9153622837303805"><ele>326.0</ele><time>2026-05-03T13:05:11.999Z</time></trkpt><trkpt lat="44.05600196094816" lon="7.915450707378586"><ele>326.0</ele><time>2026-05-03T13:05:12.999Z</time></trkpt><trkpt lat="44.05592108473792" lon="7.915570217084603"><ele>326.0</ele><time>2026-05-03T13:05:13.999Z</time></trkpt><trkpt lat="44.055838167666735" lon="7.915674822586863"><ele>326.0</ele><time>2026-05-03T13:05:14.999Z</time></trkpt><trkpt lat="44.05572907789555" lon="7.915714788451262"><ele>326.0</ele><time>2026-05-03T13:05:15.999Z</time></trkpt><trkpt lat="44.05561606216607" lon="7.915803582649702"><ele>324.0</ele><time>2026-05-03T13:05:16.999Z</time></trkpt><trkpt lat="44.055506893438185" lon="7.915858699546307"><ele>322.0</ele><time>2026-05-03T13:05:17.999Z</time></trkpt><trkpt lat="44.05540878335117" lon="7.915892189469338"><ele>320.0</ele><time>2026-05-03T13:05:18.999Z</time></trkpt><trkpt lat="44.055303557135915" lon="7.9158639412815495"><ele>318.0</ele><time>2026-05-03T13:05:19.999Z</time></trkpt><trkpt lat="44.05518512046479" lon="7.915788775457043"><ele>318.0</ele><time>2026-05-03T13:05:20.999Z</time></trkpt><trkpt lat="44.055051272641364" lon="7.915764929182504"><ele>318.0</ele><time>2026-05-03T13:05:21.999Z</time></trkpt><trkpt lat="44.0549266467191" lon="7.915786372560721"><ele>318.0</ele><time>2026-05-03T13:05:22.999Z</time></trkpt><trkpt lat="44.05481667665952" lon="7.915787775999756"><ele>318.0</ele><time>2026-05-03T13:05:23.999Z</time></trkpt><trkpt lat="44.05471686153907" lon="7.915771131333667"><ele>320.5</ele><time>2026-05-03T13:05:24.999Z</time></trkpt><trkpt lat="44.05461297226492" lon="7.915720073366846"><ele>323.0</ele><time>2026-05-03T13:05:25.999Z</time></trkpt><trkpt lat="44.05449961196862" lon="7.915628812916107"><ele>325.5</ele><time>2026-05-03T13:05:26.999Z</time></trkpt><trkpt lat="44.05438162547234" lon="7.915537009132794"><ele>328.0</ele><time>2026-05-03T13:05:27.999Z</time></trkpt><trkpt lat="44.05426461879204" lon="7.915452284072015"><ele>328.0</ele><time>2026-05-03T13:05:28.999Z</time></trkpt><trkpt lat="44.05415754722267" lon="7.915379054121273"><ele>328.0</ele><time>2026-05-03T13:05:29.999Z</time></trkpt><trkpt lat="44.05405118113136" lon="7.9153038944903455"><ele>328.0</ele><time>2026-05-03T13:05:30.999Z</time></trkpt><trkpt lat="44.05395674037467" lon="7.915197723991043"><ele>328.0</ele><time>2026-05-03T13:05:31.999Z</time></trkpt><trkpt lat="44.053878495406174" lon="7.915049901268886"><ele>321.4</ele><time>2026-05-03T13:05:32.999Z</time></trkpt><trkpt lat="44.05380362050289" lon="7.914962104006027"><ele>314.79999999999995</ele><time>2026-05-03T13:05:33.999Z</time></trkpt><trkpt lat="44.05372690718247" lon="7.9148723765912425"><ele>308.2</ele><time>2026-05-03T13:05:34.999Z</time></trkpt><trkpt lat="44.05365059637924" lon="7.91480248717488"><ele>301.6</ele><time>2026-05-03T13:05:35.999Z</time></trkpt><trkpt lat="44.05356264355478" lon="7.914771066682286"><ele>295.0</ele><time>2026-05-03T13:05:36.999Z</time></trkpt><trkpt lat="44.053455077492295" lon="7.9147780782604364"><ele>295.0</ele><time>2026-05-03T13:05:37.999Z</time></trkpt><trkpt lat="44.05333874145223" lon="7.914813725074938"><ele>295.0</ele><time>2026-05-03T13:05:38.999Z</time></trkpt><trkpt lat="44.05321758361438" lon="7.914843162342454"><ele>295.0</ele><time>2026-05-03T13:05:39.999Z</time></trkpt><trkpt lat="44.053090921591796" lon="7.914877277154647"><ele>295.0</ele><time>2026-05-03T13:05:40.999Z</time></trkpt><trkpt lat="44.05295377047303" lon="7.914906108655401"><ele>291.5</ele><time>2026-05-03T13:05:41.999Z</time></trkpt><trkpt lat="44.05281849476023" lon="7.914940045735647"><ele>288.0</ele><time>2026-05-03T13:05:42.999Z</time></trkpt><trkpt lat="44.052690502840626" lon="7.914976116790687"><ele>284.5</ele><time>2026-05-03T13:05:43.999Z</time></trkpt><trkpt lat="44.05256520647848" lon="7.9150078124257846"><ele>281.0</ele><time>2026-05-03T13:05:44.999Z</time></trkpt><trkpt lat="44.05244443845371" lon="7.915031304315905"><ele>279.0</ele><time>2026-05-03T13:05:45.999Z</time></trkpt><trkpt lat="44.052333202971624" lon="7.915055912422752"><ele>277.0</ele><time>2026-05-03T13:05:46.999Z</time></trkpt><trkpt lat="44.05222741120015" lon="7.915081994049393"><ele>275.0</ele><time>2026-05-03T13:05:47.999Z</time></trkpt><trkpt lat="44.052127782630365" lon="7.915110769530081"><ele>273.0</ele><time>2026-05-03T13:05:48.999Z</time></trkpt><trkpt lat="44.05202574173558" lon="7.91513665162118"><ele>271.0</ele><time>2026-05-03T13:05:49.999Z</time></trkpt><trkpt lat="44.05193320840692" lon="7.915168854417257"><ele>273.8333333333333</ele><time>2026-05-03T13:05:50.999Z</time></trkpt><trkpt lat="44.05185886944524" lon="7.915200962780132"><ele>276.66666666666663</ele><time>2026-05-03T13:05:51.999Z</time></trkpt><trkpt lat="44.05179392769849" lon="7.915222547925523"><ele>279.5</ele><time>2026-05-03T13:05:52.999Z</time></trkpt><trkpt lat="44.051722241263754" lon="7.915227764891718"><ele>282.3333333333333</ele><time>2026-05-03T13:05:54.999Z</time></trkpt><trkpt lat="44.05159430077818" lon="7.91522486668969"><ele>285.1666666666667</ele><time>2026-05-03T13:05:57.999Z</time></trkpt><trkpt lat="44.05150553641006" lon="7.9152486293713205"><ele>288.0</ele><time>2026-05-03T13:05:58.999Z</time></trkpt><trkpt lat="44.05141140558323" lon="7.915291850404939"><ele>288.0</ele><time>2026-05-03T13:05:59.999Z</time></trkpt><trkpt lat="44.05130200272095" lon="7.915335950860648"><ele>288.0</ele><time>2026-05-03T13:06:00.999Z</time></trkpt><trkpt lat="44.05118842950793" lon="7.915383430046476"><ele>288.0</ele><time>2026-05-03T13:06:01.999Z</time></trkpt><trkpt lat="44.05106463094691" lon="7.915432223464677"><ele>288.0</ele><time>2026-05-03T13:06:02.999Z</time></trkpt><trkpt lat="44.05093369680964" lon="7.915492886578346"><ele>288.0</ele><time>2026-05-03T13:06:03.999Z</time></trkpt><trkpt lat="44.05080110618016" lon="7.915549150502212"><ele>288.0</ele><time>2026-05-03T13:06:04.999Z</time></trkpt><trkpt lat="44.05066532952117" lon="7.915591054042099"><ele>288.0</ele><time>2026-05-03T13:06:05.999Z</time></trkpt><trkpt lat="44.05052934130558" lon="7.9156279728871"><ele>288.0</ele><time>2026-05-03T13:06:06.999Z</time></trkpt><trkpt lat="44.05038886183015" lon="7.915662485260805"><ele>285.75</ele><time>2026-05-03T13:06:07.999Z</time></trkpt><trkpt lat="44.05024736990462" lon="7.915674708495381"><ele>283.5</ele><time>2026-05-03T13:06:08.999Z</time></trkpt><trkpt lat="44.05010499706222" lon="7.915672941424055"><ele>281.25</ele><time>2026-05-03T13:06:09.999Z</time></trkpt><trkpt lat="44.04995584589804" lon="7.915669726837618"><ele>279.0</ele><time>2026-05-03T13:06:10.999Z</time></trkpt><trkpt lat="44.0498147243785" lon="7.915662120847075"><ele>278.0</ele><time>2026-05-03T13:06:11.999Z</time></trkpt><trkpt lat="44.04968469230623" lon="7.91563992389368"><ele>277.0</ele><time>2026-05-03T13:06:12.999Z</time></trkpt><trkpt lat="44.0495688672455" lon="7.91560487037725"><ele>276.0</ele><time>2026-05-03T13:06:13.999Z</time></trkpt><trkpt lat="44.04945853998981" lon="7.915566520307646"><ele>275.0</ele><time>2026-05-03T13:06:14.999Z</time></trkpt><trkpt lat="44.049351106604824" lon="7.915541751765229"><ele>275.0</ele><time>2026-05-03T13:06:15.999Z</time></trkpt><trkpt lat="44.049244089468" lon="7.91557795583141"><ele>275.0</ele><time>2026-05-03T13:06:16.999Z</time></trkpt><trkpt lat="44.04912797546557" lon="7.915653431880846"><ele>275.0</ele><time>2026-05-03T13:06:17.999Z</time></trkpt><trkpt lat="44.04901446232646" lon="7.9157462440168835"><ele>275.0</ele><time>2026-05-03T13:06:18.999Z</time></trkpt><trkpt lat="44.04890682742256" lon="7.91581106811288"><ele>274.4</ele><time>2026-05-03T13:06:19.999Z</time></trkpt><trkpt lat="44.048807616800566" lon="7.915865737893796"><ele>273.8</ele><time>2026-05-03T13:06:20.999Z</time></trkpt><trkpt lat="44.04871129391903" lon="7.915923250224905"><ele>273.2</ele><time>2026-05-03T13:06:22Z</time></trkpt><trkpt lat="44.04861535037988" lon="7.915984163062756"><ele>272.6</ele><time>2026-05-03T13:06:23Z</time></trkpt><trkpt lat="44.04852388333163" lon="7.916047691655909"><ele>272.0</ele><time>2026-05-03T13:06:24Z</time></trkpt><trkpt lat="44.04842607705931" lon="7.91608998824197"><ele>272.0</ele><time>2026-05-03T13:06:25Z</time></trkpt><trkpt lat="44.04835595635419" lon="7.9161378375575095"><ele>272.0</ele><time>2026-05-03T13:06:26Z</time></trkpt><trkpt lat="44.04829093832397" lon="7.916158062392662"><ele>272.0</ele><time>2026-05-03T13:06:27Z</time></trkpt><trkpt lat="44.04821618519173" lon="7.916010395318404"><ele>272.0</ele><time>2026-05-03T13:06:29Z</time></trkpt><trkpt lat="44.04819946451743" lon="7.915869932815742"><ele>272.0</ele><time>2026-05-03T13:06:30Z</time></trkpt><trkpt lat="44.048168400614884" lon="7.915751358732267"><ele>270.6666666666667</ele><time>2026-05-03T13:06:31Z</time></trkpt><trkpt lat="44.04811884999213" lon="7.915681112246478"><ele>269.33333333333337</ele><time>2026-05-03T13:06:32Z</time></trkpt><trkpt lat="44.04805406095936" lon="7.9156401188908125"><ele>268.0</ele><time>2026-05-03T13:06:33Z</time></trkpt><trkpt lat="44.047982349149756" lon="7.915648915382239"><ele>266.6666666666667</ele><time>2026-05-03T13:06:34Z</time></trkpt><trkpt lat="44.0479075985578" lon="7.915702757078447"><ele>265.3333333333333</ele><time>2026-05-03T13:06:35Z</time></trkpt><trkpt lat="44.04784864286939" lon="7.915765344778444"><ele>264.0</ele><time>2026-05-03T13:06:36Z</time></trkpt><trkpt lat="44.04777347390136" lon="7.915844239466152"><ele>264.0</ele><time>2026-05-03T13:06:38Z</time></trkpt><trkpt lat="44.047691508403425" lon="7.9159252888448535"><ele>264.0</ele><time>2026-05-03T13:18:37.999Z</time></trkpt><trkpt lat="44.047590850789994" lon="7.916029493258956"><ele>264.0</ele><time>2026-05-03T13:18:39.999Z</time></trkpt><trkpt lat="44.04753146508325" lon="7.916090912154527"><ele>264.0</ele><time>2026-05-03T13:18:40.999Z</time></trkpt><trkpt lat="44.04746904914659" lon="7.916160629071762"><ele>264.0</ele><time>2026-05-03T13:18:41.999Z</time></trkpt><trkpt lat="44.04740886034977" lon="7.916222115950648"><ele>264.0</ele><time>2026-05-03T13:18:42.999Z</time></trkpt><trkpt lat="44.04731017328478" lon="7.916316742634859"><ele>264.0</ele><time>2026-05-03T13:18:44.999Z</time></trkpt><trkpt lat="44.04726135063555" lon="7.916382513515336"><ele>264.0</ele><time>2026-05-03T13:18:45.999Z</time></trkpt><trkpt lat="44.04722582950769" lon="7.916465343041228"><ele>264.0</ele><time>2026-05-03T13:18:46.999Z</time></trkpt><trkpt lat="44.04720722928499" lon="7.916564834536871"><ele>264.0</ele><time>2026-05-03T13:18:47.999Z</time></trkpt><trkpt lat="44.04720864010472" lon="7.916662116718057"><ele>264.0</ele><time>2026-05-03T13:18:48.999Z</time></trkpt><trkpt lat="44.04723022406433" lon="7.916748499465543"><ele>263.59999999999997</ele><time>2026-05-03T13:18:49.999Z</time></trkpt><trkpt lat="44.04724423557999" lon="7.91689740827622"><ele>263.2</ele><time>2026-05-03T13:18:51.999Z</time></trkpt><trkpt lat="44.047133019762335" lon="7.916991130258351"><ele>262.79999999999995</ele><time>2026-05-03T13:18:53.999Z</time></trkpt><trkpt lat="44.04706583127958" lon="7.91704044506254"><ele>262.4</ele><time>2026-05-03T13:18:54.999Z</time></trkpt><trkpt lat="44.047016807741436" lon="7.917114038280057"><ele>262.0</ele><time>2026-05-03T13:18:55.999Z</time></trkpt><trkpt lat="44.04696066342777" lon="7.917176180391387"><ele>262.0</ele><time>2026-05-03T13:18:56.999Z</time></trkpt><trkpt lat="44.04689943011286" lon="7.917243923060803"><ele>262.0</ele><time>2026-05-03T13:18:58Z</time></trkpt><trkpt lat="44.0468385173159" lon="7.917311121691995"><ele>262.0</ele><time>2026-05-03T13:18:59Z</time></trkpt><trkpt lat="44.046771156494536" lon="7.917368283616837"><ele>262.0</ele><time>2026-05-03T13:19:00Z</time></trkpt><trkpt lat="44.04671093907394" lon="7.917435764923248"><ele>262.0</ele><time>2026-05-03T13:19:01Z</time></trkpt><trkpt lat="44.04665371090003" lon="7.917497929970444"><ele>262.0</ele><time>2026-05-03T13:19:02Z</time></trkpt><trkpt lat="44.04660368167995" lon="7.917561360020742"><ele>261.66666666666663</ele><time>2026-05-03T13:19:03Z</time></trkpt><trkpt lat="44.0465443736938" lon="7.9176143022313985"><ele>261.3333333333333</ele><time>2026-05-03T13:19:04Z</time></trkpt><trkpt lat="44.0464721261738" lon="7.9176646555630406"><ele>261.0</ele><time>2026-05-03T13:19:05Z</time></trkpt><trkpt lat="44.046390765394264" lon="7.9176707502580195"><ele>260.6666666666667</ele><time>2026-05-03T13:19:06Z</time></trkpt><trkpt lat="44.04630766966249" lon="7.917623033214206"><ele>260.33333333333337</ele><time>2026-05-03T13:19:07Z</time></trkpt><trkpt lat="44.046231096628915" lon="7.917560781651723"><ele>260.0</ele><time>2026-05-03T13:19:08Z</time></trkpt><trkpt lat="44.0461536618072" lon="7.9174980086509485"><ele>259.6</ele><time>2026-05-03T13:19:09Z</time></trkpt><trkpt lat="44.04606747993972" lon="7.9174641655654865"><ele>259.2</ele><time>2026-05-03T13:19:10Z</time></trkpt><trkpt lat="44.04596827834545" lon="7.9174692451916515"><ele>258.8</ele><time>2026-05-03T13:19:11Z</time></trkpt><trkpt lat="44.04587623248926" lon="7.917490033383142"><ele>258.4</ele><time>2026-05-03T13:19:12Z</time></trkpt><trkpt lat="44.045791712577476" lon="7.917515160914275"><ele>258.0</ele><time>2026-05-03T13:19:13Z</time></trkpt><trkpt lat="44.04570979233361" lon="7.917555338180649"><ele>257.3333333333333</ele><time>2026-05-03T13:19:14Z</time></trkpt><trkpt lat="44.04562485998203" lon="7.917605701520711"><ele>256.6666666666667</ele><time>2026-05-03T13:19:15Z</time></trkpt><trkpt lat="44.045549823981155" lon="7.917656836297909"><ele>256.0</ele><time>2026-05-03T13:19:16Z</time></trkpt><trkpt lat="44.045483149689346" lon="7.917665464511978"><ele>255.33333333333334</ele><time>2026-05-03T13:19:17Z</time></trkpt><trkpt lat="44.04542082402224" lon="7.917604494695636"><ele>254.66666666666669</ele><time>2026-05-03T13:19:19Z</time></trkpt><trkpt lat="44.04534576295898" lon="7.917550489795095"><ele>254.0</ele><time>2026-05-03T13:19:21Z</time></trkpt><trkpt lat="44.045319673250965" lon="7.917447935264849"><ele>253.00000000000003</ele><time>2026-05-03T13:19:24Z</time></trkpt><trkpt lat="44.04520285479561" lon="7.917438967912619"><ele>252.0</ele><time>2026-05-03T13:19:26Z</time></trkpt><trkpt lat="44.045118034251054" lon="7.917456021479036"><ele>251.0</ele><time>2026-05-03T13:19:27Z</time></trkpt><trkpt lat="44.04503104787116" lon="7.917457118185599"><ele>250.0</ele><time>2026-05-03T13:19:28Z</time></trkpt><trkpt lat="44.04496797741333" lon="7.91747375758691"><ele>249.00000000000003</ele><time>2026-05-03T13:19:30Z</time></trkpt><trkpt lat="44.0448865481635" lon="7.917464473617531"><ele>248.0</ele><time>2026-05-03T13:19:32Z</time></trkpt><trkpt lat="44.044800760916424" lon="7.917494698938213"><ele>247.0</ele><time>2026-05-03T13:19:33Z</time></trkpt><trkpt lat="44.04470374078863" lon="7.917617109170094"><ele>246.0</ele><time>2026-05-03T13:19:34Z</time></trkpt><trkpt lat="44.04458807573765" lon="7.917733495633424"><ele>245.0</ele><time>2026-05-03T13:19:35Z</time></trkpt><trkpt lat="44.04446776751446" lon="7.917882064593872"><ele>244.0</ele><time>2026-05-03T13:19:36Z</time></trkpt><trkpt lat="44.04436379642225" lon="7.918042816377028"><ele>244.0</ele><time>2026-05-03T13:19:37Z</time></trkpt><trkpt lat="44.044281941232065" lon="7.918180269462922"><ele>244.0</ele><time>2026-05-03T13:19:38Z</time></trkpt><trkpt lat="44.04420302563591" lon="7.918313658440335"><ele>244.0</ele><time>2026-05-03T13:19:39Z</time></trkpt><trkpt lat="44.04411046290846" lon="7.918444790237716"><ele>244.0</ele><time>2026-05-03T13:19:40Z</time></trkpt><trkpt lat="44.04401871217891" lon="7.918585015857242"><ele>244.25</ele><time>2026-05-03T13:19:41Z</time></trkpt><trkpt lat="44.04392381278948" lon="7.918717802355421"><ele>244.5</ele><time>2026-05-03T13:19:42Z</time></trkpt><trkpt lat="44.04386031102202" lon="7.918893696479686"><ele>244.75</ele><time>2026-05-03T13:19:43Z</time></trkpt><trkpt lat="44.043797446670204" lon="7.919068258717712"><ele>245.0</ele><time>2026-05-03T13:19:44Z</time></trkpt><trkpt lat="44.04373052451995" lon="7.919236306460299"><ele>245.0</ele><time>2026-05-03T13:19:45Z</time></trkpt><trkpt lat="44.04362592022043" lon="7.919372158097724"><ele>245.0</ele><time>2026-05-03T13:19:46Z</time></trkpt><trkpt lat="44.04353753539482" lon="7.919525681452697"><ele>245.0</ele><time>2026-05-03T13:19:47Z</time></trkpt><trkpt lat="44.04343274172946" lon="7.91965155375969"><ele>245.0</ele><time>2026-05-03T13:19:48Z</time></trkpt><trkpt lat="44.043329864266354" lon="7.919740693827269"><ele>242.8</ele><time>2026-05-03T13:19:49Z</time></trkpt><trkpt lat="44.043223961897006" lon="7.919807605071555"><ele>240.6</ele><time>2026-05-03T13:19:50Z</time></trkpt><trkpt lat="44.04312838179374" lon="7.91985139542374"><ele>238.39999999999998</ele><time>2026-05-03T13:19:50.999Z</time></trkpt><trkpt lat="44.04303704986034" lon="7.919911184189587"><ele>236.2</ele><time>2026-05-03T13:19:51.999Z</time></trkpt><trkpt lat="44.042942053336326" lon="7.919985655364441"><ele>234.0</ele><time>2026-05-03T13:19:52.999Z</time></trkpt><trkpt lat="44.042848286866295" lon="7.920049586305797"><ele>233.5</ele><time>2026-05-03T13:19:53.999Z</time></trkpt><trkpt lat="44.04276640674093" lon="7.920103814003455"><ele>233.0</ele><time>2026-05-03T13:19:54.999Z</time></trkpt><trkpt lat="44.04269149416814" lon="7.920152510837796"><ele>232.5</ele><time>2026-05-03T13:19:55.999Z</time></trkpt><trkpt lat="44.042615741797086" lon="7.920193020196629"><ele>232.0</ele><time>2026-05-03T13:19:56.999Z</time></trkpt><trkpt lat="44.04255519104124" lon="7.92022612152585"><ele>231.5</ele><time>2026-05-03T13:19:57.999Z</time></trkpt><trkpt lat="44.042469923195945" lon="7.920258455545042"><ele>231.0</ele><time>2026-05-03T13:19:59.999Z</time></trkpt><trkpt lat="44.042400251697046" lon="7.920271657469659"><ele>231.0</ele><time>2026-05-03T13:20:02.999Z</time></trkpt><trkpt lat="44.04233417575154" lon="7.920350718233129"><ele>231.00000000000003</ele><time>2026-05-03T13:26:20.999Z</time></trkpt><trkpt lat="44.04228077600541" lon="7.920445879805256"><ele>231.00000000000003</ele><time>2026-05-03T13:26:27.999Z</time></trkpt><trkpt lat="44.04216090763543" lon="7.9205237220911755"><ele>231.0</ele><time>2026-05-03T13:26:29.999Z</time></trkpt><trkpt lat="44.042113416327076" lon="7.92060564145126"><ele>231.0</ele><time>2026-05-03T13:26:30.999Z</time></trkpt><trkpt lat="44.04209920552366" lon="7.920723924896289"><ele>231.0</ele><time>2026-05-03T13:26:31.999Z</time></trkpt><trkpt lat="44.04209908461358" lon="7.9208616942086545"><ele>231.00000000000003</ele><time>2026-05-03T13:26:32.999Z</time></trkpt><trkpt lat="44.04206955931886" lon="7.920996595917834"><ele>231.00000000000003</ele><time>2026-05-03T13:26:33.999Z</time></trkpt><trkpt lat="44.04205535172445" lon="7.921138891995711"><ele>231.0</ele><time>2026-05-03T13:26:34.999Z</time></trkpt><trkpt lat="44.0420434287651" lon="7.921282099352457"><ele>231.0</ele><time>2026-05-03T13:26:35.999Z</time></trkpt><trkpt lat="44.042033824442626" lon="7.921428836601939"><ele>230.20000000000002</ele><time>2026-05-03T13:26:36.999Z</time></trkpt><trkpt lat="44.04202455218309" lon="7.921567300244375"><ele>229.40000000000003</ele><time>2026-05-03T13:26:37.999Z</time></trkpt><trkpt lat="44.04201601922655" lon="7.921690300965763"><ele>228.6</ele><time>2026-05-03T13:26:38.999Z</time></trkpt><trkpt lat="44.04200804426673" lon="7.921801769238698"><ele>227.8</ele><time>2026-05-03T13:26:39.999Z</time></trkpt><trkpt lat="44.04199939964672" lon="7.921922597379504"><ele>227.0</ele><time>2026-05-03T13:26:40.999Z</time></trkpt><trkpt lat="44.0419897669298" lon="7.92205727979488"><ele>227.0</ele><time>2026-05-03T13:26:41.999Z</time></trkpt><trkpt lat="44.04197762559017" lon="7.922199347960613"><ele>227.0</ele><time>2026-05-03T13:26:42.999Z</time></trkpt><trkpt lat="44.04196502787026" lon="7.922346756396536"><ele>227.0</ele><time>2026-05-03T13:26:43.999Z</time></trkpt><trkpt lat="44.04194686232716" lon="7.922490889899981"><ele>227.0</ele><time>2026-05-03T13:26:44.999Z</time></trkpt><trkpt lat="44.04191522284945" lon="7.922631277235046"><ele>227.0</ele><time>2026-05-03T13:26:45.999Z</time></trkpt><trkpt lat="44.04187071006064" lon="7.922769955401254"><ele>226.0</ele><time>2026-05-03T13:26:46.999Z</time></trkpt><trkpt lat="44.04181747184192" lon="7.922902473788085"><ele>225.0</ele><time>2026-05-03T13:26:47.999Z</time></trkpt><trkpt lat="44.04176798487042" lon="7.923041796931853"><ele>224.0</ele><time>2026-05-03T13:26:48.999Z</time></trkpt><trkpt lat="44.041689556482986" lon="7.923167906959895"><ele>223.0</ele><time>2026-05-03T13:26:49.999Z</time></trkpt><trkpt lat="44.04161997537599" lon="7.92329640211941"><ele>227.60000000000002</ele><time>2026-05-03T13:26:50.999Z</time></trkpt><trkpt lat="44.04155570834807" lon="7.923416150791388"><ele>232.20000000000002</ele><time>2026-05-03T13:26:51.999Z</time></trkpt><trkpt lat="44.04146695374231" lon="7.923508130964568"><ele>236.8</ele><time>2026-05-03T13:26:52.999Z</time></trkpt><trkpt lat="44.041365489986234" lon="7.923574715307299"><ele>241.4</ele><time>2026-05-03T13:26:53.999Z</time></trkpt><trkpt lat="44.041251349473555" lon="7.923610723518268"><ele>246.0</ele><time>2026-05-03T13:26:54.999Z</time></trkpt><trkpt lat="44.04112619443979" lon="7.923620472030671"><ele>246.0</ele><time>2026-05-03T13:26:55.999Z</time></trkpt><trkpt lat="44.04100318948605" lon="7.9236303958161125"><ele>246.0</ele><time>2026-05-03T13:26:56.999Z</time></trkpt><trkpt lat="44.04089148947271" lon="7.923638931586649"><ele>246.0</ele><time>2026-05-03T13:26:57.999Z</time></trkpt><trkpt lat="44.040784388072026" lon="7.923651859193755"><ele>246.0</ele><time>2026-05-03T13:26:58.999Z</time></trkpt><trkpt lat="44.040666473221705" lon="7.923658354230419"><ele>241.75</ele><time>2026-05-03T13:26:59.999Z</time></trkpt><trkpt lat="44.04054858016444" lon="7.923673464085992"><ele>237.5</ele><time>2026-05-03T13:27:00.999Z</time></trkpt><trkpt lat="44.04042809652908" lon="7.923698721753155"><ele>233.25</ele><time>2026-05-03T13:27:01.999Z</time></trkpt><trkpt lat="44.04030541390939" lon="7.923718671041985"><ele>229.0</ele><time>2026-05-03T13:27:02.999Z</time></trkpt><trkpt lat="44.04018616569366" lon="7.923762589854709"><ele>229.0</ele><time>2026-05-03T13:27:03.999Z</time></trkpt><trkpt lat="44.04007865676067" lon="7.923811134736387"><ele>228.99999999999997</ele><time>2026-05-03T13:27:04.999Z</time></trkpt><trkpt lat="44.03997651126447" lon="7.92387807622486"><ele>228.99999999999997</ele><time>2026-05-03T13:27:05.999Z</time></trkpt><trkpt lat="44.03988317412669" lon="7.923962038665017"><ele>229.0</ele><time>2026-05-03T13:27:06.999Z</time></trkpt><trkpt lat="44.03980109134498" lon="7.924058354191338"><ele>229.0</ele><time>2026-05-03T13:27:07.999Z</time></trkpt><trkpt lat="44.03972634363934" lon="7.924165223768786"><ele>226.75</ele><time>2026-05-03T13:27:08.999Z</time></trkpt><trkpt lat="44.03965492325959" lon="7.924285542664254"><ele>224.5</ele><time>2026-05-03T13:27:09.999Z</time></trkpt><trkpt lat="44.03958072356063" lon="7.924430085276448"><ele>222.25</ele><time>2026-05-03T13:27:10.999Z</time></trkpt><trkpt lat="44.03950416868427" lon="7.9245943087962205"><ele>220.0</ele><time>2026-05-03T13:27:11.999Z</time></trkpt><trkpt lat="44.039429286088264" lon="7.924772066807683"><ele>220.0</ele><time>2026-05-03T13:27:12.999Z</time></trkpt><trkpt lat="44.03935334667214" lon="7.924948558413447"><ele>220.0</ele><time>2026-05-03T13:27:13.999Z</time></trkpt><trkpt lat="44.03927572756551" lon="7.925116023798412"><ele>220.0</ele><time>2026-05-03T13:27:14.999Z</time></trkpt><trkpt lat="44.039205137475086" lon="7.925265036580447"><ele>220.0</ele><time>2026-05-03T13:27:15.999Z</time></trkpt><trkpt lat="44.03914049388795" lon="7.9254051769928315"><ele>220.25</ele><time>2026-05-03T13:27:16.999Z</time></trkpt><trkpt lat="44.039073523875565" lon="7.925547471112776"><ele>220.5</ele><time>2026-05-03T13:27:17.999Z</time></trkpt><trkpt lat="44.039014050518645" lon="7.925683031301216"><ele>220.75</ele><time>2026-05-03T13:27:18.999Z</time></trkpt><trkpt lat="44.03896495983736" lon="7.92581998789722"><ele>221.0</ele><time>2026-05-03T13:27:19.999Z</time></trkpt><trkpt lat="44.0389019526529" lon="7.925968683277772"><ele>220.33333333333334</ele><time>2026-05-03T13:27:20.999Z</time></trkpt><trkpt lat="44.03886411779676" lon="7.926151313999029"><ele>219.66666666666669</ele><time>2026-05-03T13:27:22Z</time></trkpt><trkpt lat="44.03884372234845" lon="7.926369369301512"><ele>219.0</ele><time>2026-05-03T13:27:23Z</time></trkpt><trkpt lat="44.03883524784598" lon="7.926611510199877"><ele>218.66666666666669</ele><time>2026-05-03T13:27:24Z</time></trkpt><trkpt lat="44.038831336288744" lon="7.92686034343983"><ele>218.33333333333334</ele><time>2026-05-03T13:27:25Z</time></trkpt><trkpt lat="44.03885037341216" lon="7.927122661747648"><ele>218.0</ele><time>2026-05-03T13:27:26Z</time></trkpt><trkpt lat="44.03884219850106" lon="7.9273445714747455"><ele>218.0</ele><time>2026-05-03T13:27:27Z</time></trkpt><trkpt lat="44.038838989266615" lon="7.927552466362783"><ele>218.0</ele><time>2026-05-03T13:27:28Z</time></trkpt><trkpt lat="44.038834384711215" lon="7.9277540769863"><ele>218.0</ele><time>2026-05-03T13:27:29Z</time></trkpt><trkpt lat="44.038830503537554" lon="7.927951065779116"><ele>218.0</ele><time>2026-05-03T13:27:30Z</time></trkpt><trkpt lat="44.03882722796658" lon="7.928137593198838"><ele>218.25</ele><time>2026-05-03T13:27:31Z</time></trkpt><trkpt lat="44.03882192997842" lon="7.928316139667085"><ele>218.5</ele><time>2026-05-03T13:27:32Z</time></trkpt><trkpt lat="44.038812985145285" lon="7.928497819374001"><ele>218.75</ele><time>2026-05-03T13:27:33Z</time></trkpt><trkpt lat="44.03880472272018" lon="7.928678950385324"><ele>219.0</ele><time>2026-05-03T13:27:34Z</time></trkpt><trkpt lat="44.038795112370224" lon="7.928865463189137"><ele>218.25</ele><time>2026-05-03T13:27:35Z</time></trkpt><trkpt lat="44.03878828668543" lon="7.9290559692940965"><ele>217.5</ele><time>2026-05-03T13:27:36Z</time></trkpt><trkpt lat="44.03878505544219" lon="7.92924332418439"><ele>216.75</ele><time>2026-05-03T13:27:37Z</time></trkpt><trkpt lat="44.03878255812935" lon="7.929423475945324"><ele>216.0</ele><time>2026-05-03T13:27:38Z</time></trkpt><trkpt lat="44.03877356859318" lon="7.9295972519628215"><ele>216.0</ele><time>2026-05-03T13:27:39Z</time></trkpt><trkpt lat="44.03874648975692" lon="7.929768984598839"><ele>216.0</ele><time>2026-05-03T13:27:40Z</time></trkpt><trkpt lat="44.038708144419516" lon="7.929939271163641"><ele>216.0</ele><time>2026-05-03T13:27:41Z</time></trkpt><trkpt lat="44.03867127135832" lon="7.930115771881182"><ele>216.0</ele><time>2026-05-03T13:27:42Z</time></trkpt><trkpt lat="44.03862787144777" lon="7.930289317944129"><ele>216.0</ele><time>2026-05-03T13:27:43Z</time></trkpt><trkpt lat="44.03858420214073" lon="7.930449479462226"><ele>216.0</ele><time>2026-05-03T13:27:44Z</time></trkpt><trkpt lat="44.03854252239575" lon="7.930611297429011"><ele>216.0</ele><time>2026-05-03T13:27:45Z</time></trkpt><trkpt lat="44.03850066637304" lon="7.930775663671874"><ele>216.0</ele><time>2026-05-03T13:27:46Z</time></trkpt><trkpt lat="44.03845963988689" lon="7.930939255900125"><ele>218.75</ele><time>2026-05-03T13:27:47Z</time></trkpt><trkpt lat="44.038423903405686" lon="7.931106774539081"><ele>221.5</ele><time>2026-05-03T13:27:48Z</time></trkpt><trkpt lat="44.03840385617135" lon="7.9312796396331615"><ele>224.25</ele><time>2026-05-03T13:27:49Z</time></trkpt><trkpt lat="44.038417126310705" lon="7.9314492739973295"><ele>227.0</ele><time>2026-05-03T13:27:50Z</time></trkpt><trkpt lat="44.03846045670856" lon="7.931605103696172"><ele>227.25</ele><time>2026-05-03T13:27:51Z</time></trkpt><trkpt lat="44.03851026439995" lon="7.931759096740243"><ele>227.5</ele><time>2026-05-03T13:27:52Z</time></trkpt><trkpt lat="44.0385051965125" lon="7.931924260131931"><ele>227.75</ele><time>2026-05-03T13:27:53Z</time></trkpt><trkpt lat="44.03849532472668" lon="7.932099407133771"><ele>228.0</ele><time>2026-05-03T13:27:54Z</time></trkpt><trkpt lat="44.03844734265185" lon="7.932275358734833"><ele>228.0</ele><time>2026-05-03T13:27:55Z</time></trkpt><trkpt lat="44.038407932378576" lon="7.93244308281819"><ele>228.0</ele><time>2026-05-03T13:27:56Z</time></trkpt><trkpt lat="44.038382620178375" lon="7.9326057250540645"><ele>228.0</ele><time>2026-05-03T13:27:57Z</time></trkpt><trkpt lat="44.03835994996234" lon="7.932760589350424"><ele>228.0</ele><time>2026-05-03T13:27:58Z</time></trkpt><trkpt lat="44.03833093857102" lon="7.932915840695448"><ele>226.0</ele><time>2026-05-03T13:27:59Z</time></trkpt><trkpt lat="44.03830521992713" lon="7.933079281505301"><ele>224.0</ele><time>2026-05-03T13:28:00Z</time></trkpt><trkpt lat="44.03827754185297" lon="7.9332430543708385"><ele>222.0</ele><time>2026-05-03T13:28:01Z</time></trkpt><trkpt lat="44.03824572642891" lon="7.933414114736432"><ele>220.0</ele><time>2026-05-03T13:28:02Z</time></trkpt><trkpt lat="44.03821291554372" lon="7.9335892599260305"><ele>226.25</ele><time>2026-05-03T13:28:03Z</time></trkpt><trkpt lat="44.038180052451246" lon="7.933766250775387"><ele>232.5</ele><time>2026-05-03T13:28:04Z</time></trkpt><trkpt lat="44.038149677555815" lon="7.933938279613111"><ele>238.75</ele><time>2026-05-03T13:28:05Z</time></trkpt><trkpt lat="44.03811843011285" lon="7.93410556219342"><ele>245.0</ele><time>2026-05-03T13:28:06Z</time></trkpt><trkpt lat="44.03808687015289" lon="7.9342767911145256"><ele>245.0</ele><time>2026-05-03T13:28:07Z</time></trkpt><trkpt lat="44.03804995142705" lon="7.934447311207674"><ele>245.0</ele><time>2026-05-03T13:28:08Z</time></trkpt><trkpt lat="44.03800477133333" lon="7.934615850374315"><ele>245.0</ele><time>2026-05-03T13:28:09Z</time></trkpt><trkpt lat="44.03794794148004" lon="7.9347820948462235"><ele>245.0</ele><time>2026-05-03T13:28:10Z</time></trkpt><trkpt lat="44.03788878600869" lon="7.9349349244993155"><ele>242.4</ele><time>2026-05-03T13:28:11Z</time></trkpt><trkpt lat="44.03784018548381" lon="7.93506450216311"><ele>239.8</ele><time>2026-05-03T13:28:12Z</time></trkpt><trkpt lat="44.03779421638637" lon="7.935199028380623"><ele>237.2</ele><time>2026-05-03T13:28:13Z</time></trkpt><trkpt lat="44.03774720689181" lon="7.935338696757227"><ele>234.6</ele><time>2026-05-03T13:28:14Z</time></trkpt><trkpt lat="44.03768987102232" lon="7.935448408413057"><ele>232.0</ele><time>2026-05-03T13:28:15Z</time></trkpt><trkpt lat="44.03766852284579" lon="7.935558569526064"><ele>231.99999999999997</ele><time>2026-05-03T13:28:16Z</time></trkpt><trkpt lat="44.03761739829812" lon="7.9356938536933495"><ele>232.0</ele><time>2026-05-03T13:28:17.999Z</time></trkpt><trkpt lat="44.03758489387783" lon="7.9357711291073265"><ele>232.0</ele><time>2026-05-03T13:28:20.999Z</time></trkpt><trkpt lat="44.037534415474056" lon="7.9358620646595615"><ele>232.0</ele><time>2026-05-03T13:28:23.999Z</time></trkpt><trkpt lat="44.03751300773648" lon="7.935978908916444"><ele>231.99999999999997</ele><time>2026-05-03T13:28:24.999Z</time></trkpt><trkpt lat="44.03749155865362" lon="7.936119768968071"><ele>232.0</ele><time>2026-05-03T13:28:25.999Z</time></trkpt><trkpt lat="44.03747653569578" lon="7.936287779455493"><ele>240.2</ele><time>2026-05-03T13:28:26.999Z</time></trkpt><trkpt lat="44.037448947676474" lon="7.936443096918524"><ele>248.39999999999998</ele><time>2026-05-03T13:28:27.999Z</time></trkpt><trkpt lat="44.0374370346978" lon="7.936578049893493"><ele>256.6</ele><time>2026-05-03T13:28:28.999Z</time></trkpt><trkpt lat="44.03742541228275" lon="7.936724892261403"><ele>264.8</ele><time>2026-05-03T13:28:29.999Z</time></trkpt><trkpt lat="44.037414640382536" lon="7.936880754316132"><ele>273.0</ele><time>2026-05-03T13:28:30.999Z</time></trkpt><trkpt lat="44.03740954452683" lon="7.937025387373036"><ele>273.0</ele><time>2026-05-03T13:28:31.999Z</time></trkpt><trkpt lat="44.03741219971232" lon="7.937168395143511"><ele>273.0</ele><time>2026-05-03T13:28:32.999Z</time></trkpt><trkpt lat="44.037414550876846" lon="7.937315292169405"><ele>273.0</ele><time>2026-05-03T13:28:33.999Z</time></trkpt><trkpt lat="44.03740922078256" lon="7.937468827927991"><ele>273.0</ele><time>2026-05-03T13:28:34.999Z</time></trkpt><trkpt lat="44.037395493969726" lon="7.937619485661863"><ele>273.0</ele><time>2026-05-03T13:28:35.999Z</time></trkpt><trkpt lat="44.037378069682426" lon="7.937781327799378"><ele>270.5</ele><time>2026-05-03T13:28:36.999Z</time></trkpt><trkpt lat="44.037358266521416" lon="7.9379508145687225"><ele>268.0</ele><time>2026-05-03T13:28:37.999Z</time></trkpt><trkpt lat="44.03733852182373" lon="7.938114959451824"><ele>265.5</ele><time>2026-05-03T13:28:38.999Z</time></trkpt><trkpt lat="44.03732027949585" lon="7.938273105290396"><ele>263.0</ele><time>2026-05-03T13:28:39.999Z</time></trkpt><trkpt lat="44.037304217632965" lon="7.938418644590832"><ele>260.8</ele><time>2026-05-03T13:28:40.999Z</time></trkpt><trkpt lat="44.037288288325655" lon="7.938569148738025"><ele>258.6</ele><time>2026-05-03T13:28:41.999Z</time></trkpt><trkpt lat="44.037276259445385" lon="7.938716130313352"><ele>256.4</ele><time>2026-05-03T13:28:42.999Z</time></trkpt><trkpt lat="44.03726974250586" lon="7.938862432245916"><ele>254.2</ele><time>2026-05-03T13:28:43.999Z</time></trkpt><trkpt lat="44.03726663357833" lon="7.939012587287482"><ele>252.0</ele><time>2026-05-03T13:28:44.999Z</time></trkpt><trkpt lat="44.03722991318458" lon="7.939170130657299"><ele>249.0</ele><time>2026-05-03T13:28:45.999Z</time></trkpt><trkpt lat="44.037235970195944" lon="7.9393187789495405"><ele>246.0</ele><time>2026-05-03T13:28:46.999Z</time></trkpt><trkpt lat="44.037430155019635" lon="7.939458113237793"><ele>243.0</ele><time>2026-05-03T13:28:47.999Z</time></trkpt><trkpt lat="44.0375134739212" lon="7.939589928203987"><ele>239.0</ele><time>2026-05-03T13:28:48.999Z</time></trkpt><trkpt lat="44.03761167751947" lon="7.93972060588934"><ele>235.0</ele><time>2026-05-03T13:28:49.999Z</time></trkpt><trkpt lat="44.03769473771964" lon="7.939835458902616"><ele>231.0</ele><time>2026-05-03T13:28:50.999Z</time></trkpt><trkpt lat="44.037772941243475" lon="7.939957492320574"><ele>227.0</ele><time>2026-05-03T13:28:51.999Z</time></trkpt><trkpt lat="44.03785307913047" lon="7.940081184955686"><ele>227.0</ele><time>2026-05-03T13:28:52.999Z</time></trkpt><trkpt lat="44.037936102945544" lon="7.94020248473768"><ele>227.0</ele><time>2026-05-03T13:28:53.999Z</time></trkpt><trkpt lat="44.03802091599116" lon="7.940331849870289"><ele>227.0</ele><time>2026-05-03T13:28:54.999Z</time></trkpt><trkpt lat="44.03809372171417" lon="7.940469971048637"><ele>227.0</ele><time>2026-05-03T13:28:55.999Z</time></trkpt><trkpt lat="44.038153944866856" lon="7.9406238736242045"><ele>227.0</ele><time>2026-05-03T13:28:56.999Z</time></trkpt><trkpt lat="44.038197523200054" lon="7.940783120732791"><ele>227.0</ele><time>2026-05-03T13:28:57.999Z</time></trkpt><trkpt lat="44.03822962464698" lon="7.940945680907327"><ele>227.0</ele><time>2026-05-03T13:28:58.999Z</time></trkpt><trkpt lat="44.03824960187017" lon="7.9411104697280885"><ele>227.0</ele><time>2026-05-03T13:28:59.999Z</time></trkpt><trkpt lat="44.03825788770095" lon="7.941278919742544"><ele>225.5</ele><time>2026-05-03T13:29:00.999Z</time></trkpt><trkpt lat="44.03825752603346" lon="7.941449316480892"><ele>224.0</ele><time>2026-05-03T13:29:01.999Z</time></trkpt><trkpt lat="44.038261958076504" lon="7.941621657631474"><ele>222.5</ele><time>2026-05-03T13:29:02.999Z</time></trkpt><trkpt lat="44.0382656018214" lon="7.9417919945248245"><ele>221.0</ele><time>2026-05-03T13:29:03.999Z</time></trkpt><trkpt lat="44.038267187900225" lon="7.941962553275236"><ele>218.75</ele><time>2026-05-03T13:29:04.999Z</time></trkpt><trkpt lat="44.03827110352887" lon="7.942135737741618"><ele>216.5</ele><time>2026-05-03T13:29:05.999Z</time></trkpt><trkpt lat="44.03827455169259" lon="7.94231075581154"><ele>214.25</ele><time>2026-05-03T13:29:06.999Z</time></trkpt><trkpt lat="44.03827714163741" lon="7.942485882586797"><ele>212.0</ele><time>2026-05-03T13:29:07.999Z</time></trkpt><trkpt lat="44.03828149019722" lon="7.942663939052675"><ele>212.5</ele><time>2026-05-03T13:29:08.999Z</time></trkpt><trkpt lat="44.03828514720941" lon="7.942844717959608"><ele>213.0</ele><time>2026-05-03T13:29:09.999Z</time></trkpt><trkpt lat="44.038289149346" lon="7.943029952650916"><ele>213.5</ele><time>2026-05-03T13:29:10.999Z</time></trkpt><trkpt lat="44.038294384537984" lon="7.943220527406211"><ele>214.0</ele><time>2026-05-03T13:29:11.999Z</time></trkpt><trkpt lat="44.03830060777668" lon="7.943418470399309"><ele>211.25</ele><time>2026-05-03T13:29:12.999Z</time></trkpt><trkpt lat="44.038306155030654" lon="7.943611774819466"><ele>208.5</ele><time>2026-05-03T13:29:13.999Z</time></trkpt><trkpt lat="44.03831033738911" lon="7.9437920955124035"><ele>205.75</ele><time>2026-05-03T13:29:14.999Z</time></trkpt><trkpt lat="44.03831003009018" lon="7.94395183675252"><ele>203.0</ele><time>2026-05-03T13:29:15.999Z</time></trkpt><trkpt lat="44.03830982772364" lon="7.944107376528248"><ele>206.2</ele><time>2026-05-03T13:29:16.999Z</time></trkpt><trkpt lat="44.03831206269889" lon="7.944248937451037"><ele>209.4</ele><time>2026-05-03T13:29:17.999Z</time></trkpt><trkpt lat="44.03830149056656" lon="7.944386414215016"><ele>212.59999999999997</ele><time>2026-05-03T13:29:18.999Z</time></trkpt><trkpt lat="44.0383259716613" lon="7.944509391722236"><ele>215.79999999999998</ele><time>2026-05-03T13:29:19.999Z</time></trkpt><trkpt lat="44.0383609978227" lon="7.94463334528647"><ele>219.0</ele><time>2026-05-03T13:29:20.999Z</time></trkpt><trkpt lat="44.03842271684306" lon="7.944752400605314"><ele>219.0</ele><time>2026-05-03T13:29:21.999Z</time></trkpt><trkpt lat="44.03850529970241" lon="7.944861211764783"><ele>219.0</ele><time>2026-05-03T13:29:22.999Z</time></trkpt><trkpt lat="44.03858458900232" lon="7.944966294812585"><ele>219.0</ele><time>2026-05-03T13:29:23.999Z</time></trkpt><trkpt lat="44.03866113640964" lon="7.945088686151158"><ele>219.0</ele><time>2026-05-03T13:29:24.999Z</time></trkpt><trkpt lat="44.038734318934644" lon="7.9452185185270245"><ele>226.5</ele><time>2026-05-03T13:29:25.999Z</time></trkpt><trkpt lat="44.0388171994385" lon="7.94535561140253"><ele>234.0</ele><time>2026-05-03T13:29:26.999Z</time></trkpt><trkpt lat="44.0388949318121" lon="7.945487906030676"><ele>241.5</ele><time>2026-05-03T13:29:28Z</time></trkpt><trkpt lat="44.03897837320847" lon="7.945622440042193"><ele>249.0</ele><time>2026-05-03T13:29:29Z</time></trkpt><trkpt lat="44.039062332732435" lon="7.945753772320348"><ele>241.75</ele><time>2026-05-03T13:29:30Z</time></trkpt><trkpt lat="44.039145067988414" lon="7.945892023135722"><ele>234.5</ele><time>2026-05-03T13:29:31Z</time></trkpt><trkpt lat="44.03924234780728" lon="7.946035821150937"><ele>227.25</ele><time>2026-05-03T13:29:32Z</time></trkpt><trkpt lat="44.039337496161664" lon="7.946172340290836"><ele>220.0</ele><time>2026-05-03T13:29:33Z</time></trkpt><trkpt lat="44.03943728700954" lon="7.946305311635548"><ele>220.0</ele><time>2026-05-03T13:29:34Z</time></trkpt><trkpt lat="44.03954163041716" lon="7.946431532262244"><ele>220.0</ele><time>2026-05-03T13:29:35Z</time></trkpt><trkpt lat="44.039646551193755" lon="7.9465608841096795"><ele>220.0</ele><time>2026-05-03T13:29:36Z</time></trkpt><trkpt lat="44.039762251631224" lon="7.946690079699831"><ele>220.0</ele><time>2026-05-03T13:29:37Z</time></trkpt><trkpt lat="44.039865179808295" lon="7.946810389232069"><ele>216.75</ele><time>2026-05-03T13:29:38Z</time></trkpt><trkpt lat="44.03996382808803" lon="7.946921402461436"><ele>213.5</ele><time>2026-05-03T13:29:39Z</time></trkpt><trkpt lat="44.040065290215644" lon="7.947052880677111"><ele>210.25</ele><time>2026-05-03T13:29:40Z</time></trkpt><trkpt lat="44.040157719132374" lon="7.94716853446735"><ele>207.0</ele><time>2026-05-03T13:29:41Z</time></trkpt><trkpt lat="44.040253114737894" lon="7.947283855362508"><ele>207.0</ele><time>2026-05-03T13:29:42Z</time></trkpt><trkpt lat="44.04034813677853" lon="7.947397282991769"><ele>207.0</ele><time>2026-05-03T13:29:43Z</time></trkpt><trkpt lat="44.04044053754299" lon="7.94751564798094"><ele>207.0</ele><time>2026-05-03T13:29:44Z</time></trkpt><trkpt lat="44.04053049298535" lon="7.947640323040009"><ele>207.0</ele><time>2026-05-03T13:29:45Z</time></trkpt><trkpt lat="44.04061827392539" lon="7.947757874497583"><ele>205.25</ele><time>2026-05-03T13:29:46Z</time></trkpt><trkpt lat="44.04069581487277" lon="7.9479013338702895"><ele>203.5</ele><time>2026-05-03T13:29:47Z</time></trkpt><trkpt lat="44.04078047106611" lon="7.948039189340949"><ele>201.75</ele><time>2026-05-03T13:29:48Z</time></trkpt><trkpt lat="44.04086448685737" lon="7.948184456289532"><ele>200.0</ele><time>2026-05-03T13:29:49Z</time></trkpt><trkpt lat="44.04094648989584" lon="7.948333483607622"><ele>201.75</ele><time>2026-05-03T13:29:50Z</time></trkpt><trkpt lat="44.04102833251353" lon="7.948493956457511"><ele>203.5</ele><time>2026-05-03T13:29:51Z</time></trkpt><trkpt lat="44.04111323808436" lon="7.948651548252934"><ele>205.25</ele><time>2026-05-03T13:29:52Z</time></trkpt><trkpt lat="44.04119896488142" lon="7.948809833164938"><ele>207.0</ele><time>2026-05-03T13:29:53Z</time></trkpt><trkpt lat="44.04127812262941" lon="7.948961091474869"><ele>207.0</ele><time>2026-05-03T13:29:54Z</time></trkpt><trkpt lat="44.04135174606957" lon="7.94911644673562"><ele>207.0</ele><time>2026-05-03T13:29:55Z</time></trkpt><trkpt lat="44.04142328888819" lon="7.949274210339255"><ele>207.0</ele><time>2026-05-03T13:29:56Z</time></trkpt><trkpt lat="44.04149284328251" lon="7.949435182322674"><ele>207.0</ele><time>2026-05-03T13:29:57Z</time></trkpt><trkpt lat="44.04155581907111" lon="7.949607227699882"><ele>205.25</ele><time>2026-05-03T13:29:58Z</time></trkpt><trkpt lat="44.04160174785224" lon="7.949780694768349"><ele>203.5</ele><time>2026-05-03T13:29:59Z</time></trkpt><trkpt lat="44.041633086200825" lon="7.9499581713055205"><ele>201.75</ele><time>2026-05-03T13:30:00Z</time></trkpt><trkpt lat="44.041657437070825" lon="7.950132651560666"><ele>200.0</ele><time>2026-05-03T13:30:01Z</time></trkpt><trkpt lat="44.04169809505342" lon="7.950315542102578"><ele>200.0</ele><time>2026-05-03T13:30:02Z</time></trkpt><trkpt lat="44.04175967113372" lon="7.9504908949546245"><ele>200.0</ele><time>2026-05-03T13:30:03Z</time></trkpt><trkpt lat="44.04182744156345" lon="7.950664833868089"><ele>200.0</ele><time>2026-05-03T13:30:04Z</time></trkpt><trkpt lat="44.041896487440624" lon="7.95083030119654"><ele>200.0</ele><time>2026-05-03T13:30:05Z</time></trkpt><trkpt lat="44.04197291881713" lon="7.950997373491179"><ele>202.25</ele><time>2026-05-03T13:30:06Z</time></trkpt><trkpt lat="44.042049320607966" lon="7.951158195186798"><ele>204.5</ele><time>2026-05-03T13:30:07Z</time></trkpt><trkpt lat="44.042112312822375" lon="7.951314006117998"><ele>206.75</ele><time>2026-05-03T13:30:08Z</time></trkpt><trkpt lat="44.04216209577884" lon="7.951463833328644"><ele>209.0</ele><time>2026-05-03T13:30:09Z</time></trkpt><trkpt lat="44.042212992765634" lon="7.9516186199542656"><ele>213.75</ele><time>2026-05-03T13:30:10Z</time></trkpt><trkpt lat="44.04226360536442" lon="7.951784689308684"><ele>218.5</ele><time>2026-05-03T13:30:11Z</time></trkpt><trkpt lat="44.042310060806834" lon="7.951950170663573"><ele>223.25</ele><time>2026-05-03T13:30:12Z</time></trkpt><trkpt lat="44.04235996297083" lon="7.952127460361053"><ele>228.0</ele><time>2026-05-03T13:30:13Z</time></trkpt><trkpt lat="44.04240176665811" lon="7.952293145150647"><ele>228.0</ele><time>2026-05-03T13:30:14Z</time></trkpt><trkpt lat="44.0424368488061" lon="7.952443779225586"><ele>228.0</ele><time>2026-05-03T13:30:15Z</time></trkpt><trkpt lat="44.04247703422134" lon="7.952597287532565"><ele>228.0</ele><time>2026-05-03T13:30:16Z</time></trkpt><trkpt lat="44.04252565056758" lon="7.952757784584329"><ele>228.0</ele><time>2026-05-03T13:30:17Z</time></trkpt><trkpt lat="44.04257405870145" lon="7.9529124000727"><ele>221.75</ele><time>2026-05-03T13:30:18Z</time></trkpt><trkpt lat="44.042602807455374" lon="7.953080692513782"><ele>215.5</ele><time>2026-05-03T13:30:19Z</time></trkpt><trkpt lat="44.0426444744327" lon="7.95324187172032"><ele>209.25</ele><time>2026-05-03T13:30:20Z</time></trkpt><trkpt lat="44.04268307594956" lon="7.953402621184063"><ele>203.0</ele><time>2026-05-03T13:30:21Z</time></trkpt><trkpt lat="44.04278984126269" lon="7.953523329783843"><ele>203.0</ele><time>2026-05-03T13:30:22Z</time></trkpt><trkpt lat="44.042871809934795" lon="7.953651751953091"><ele>203.0</ele><time>2026-05-03T13:30:23Z</time></trkpt><trkpt lat="44.042956972498004" lon="7.953782249418987"><ele>203.0</ele><time>2026-05-03T13:30:24Z</time></trkpt><trkpt lat="44.043048041996386" lon="7.95391309213121"><ele>203.0</ele><time>2026-05-03T13:30:25Z</time></trkpt><trkpt lat="44.04314433538298" lon="7.9540366947835155"><ele>203.0</ele><time>2026-05-03T13:30:26Z</time></trkpt><trkpt lat="44.04324828817337" lon="7.954146553205476"><ele>203.0</ele><time>2026-05-03T13:30:27Z</time></trkpt><trkpt lat="44.043355713349335" lon="7.9542511941045"><ele>203.0</ele><time>2026-05-03T13:30:28Z</time></trkpt><trkpt lat="44.04346025208343" lon="7.954366894562982"><ele>203.0</ele><time>2026-05-03T13:30:29Z</time></trkpt><trkpt lat="44.04355488372529" lon="7.954492643058613"><ele>200.5</ele><time>2026-05-03T13:30:30Z</time></trkpt><trkpt lat="44.043636359949055" lon="7.954627657074509"><ele>198.0</ele><time>2026-05-03T13:30:31Z</time></trkpt><trkpt lat="44.043696916857904" lon="7.954763292186589"><ele>195.5</ele><time>2026-05-03T13:30:32Z</time></trkpt><trkpt lat="44.04374774588714" lon="7.954908216616036"><ele>193.0</ele><time>2026-05-03T13:30:32.999Z</time></trkpt><trkpt lat="44.04379217604374" lon="7.955057371406723"><ele>193.0</ele><time>2026-05-03T13:30:33.999Z</time></trkpt><trkpt lat="44.0438405342143" lon="7.955206477243518"><ele>193.0</ele><time>2026-05-03T13:30:34.999Z</time></trkpt><trkpt lat="44.04389473388861" lon="7.955363068692193"><ele>193.0</ele><time>2026-05-03T13:30:35.999Z</time></trkpt><trkpt lat="44.043944072049484" lon="7.955524739714949"><ele>193.0</ele><time>2026-05-03T13:30:36.999Z</time></trkpt><trkpt lat="44.043985030163626" lon="7.955695510084508"><ele>193.0</ele><time>2026-05-03T13:30:37.999Z</time></trkpt><trkpt lat="44.04401608982453" lon="7.955866246054891"><ele>193.0</ele><time>2026-05-03T13:30:38.999Z</time></trkpt><trkpt lat="44.04404102181474" lon="7.956035979361159"><ele>193.0</ele><time>2026-05-03T13:30:39.999Z</time></trkpt><trkpt lat="44.04405697002892" lon="7.9561948136650225"><ele>193.0</ele><time>2026-05-03T13:30:40.999Z</time></trkpt><trkpt lat="44.0440728110509" lon="7.956352614236481"><ele>193.60000000000002</ele><time>2026-05-03T13:30:41.999Z</time></trkpt><trkpt lat="44.04408756109143" lon="7.956499540970936"><ele>194.20000000000002</ele><time>2026-05-03T13:30:42.999Z</time></trkpt><trkpt lat="44.044099301277214" lon="7.9566377568593545"><ele>194.8</ele><time>2026-05-03T13:30:43.999Z</time></trkpt><trkpt lat="44.04411986826876" lon="7.956770394354884"><ele>195.4</ele><time>2026-05-03T13:30:44.999Z</time></trkpt><trkpt lat="44.044138469859824" lon="7.956907521728204"><ele>196.0</ele><time>2026-05-03T13:30:45.999Z</time></trkpt><trkpt lat="44.04415344222615" lon="7.957031531780433"><ele>194.83333333333331</ele><time>2026-05-03T13:30:46.999Z</time></trkpt><trkpt lat="44.044168013099" lon="7.957149382266669"><ele>193.66666666666666</ele><time>2026-05-03T13:30:47.999Z</time></trkpt><trkpt lat="44.04418243758125" lon="7.957264897220758"><ele>192.5</ele><time>2026-05-03T13:30:48.999Z</time></trkpt><trkpt lat="44.04419566804658" lon="7.957379632112171"><ele>191.33333333333331</ele><time>2026-05-03T13:30:49.999Z</time></trkpt><trkpt lat="44.04420737448767" lon="7.9574825131809455"><ele>190.16666666666666</ele><time>2026-05-03T13:30:50.999Z</time></trkpt><trkpt lat="44.04421821738949" lon="7.957622254778694"><ele>189.0</ele><time>2026-05-03T13:30:52.999Z</time></trkpt><trkpt lat="44.044211249251646" lon="7.957734229289287"><ele>194.79999999999998</ele><time>2026-05-03T13:30:54.999Z</time></trkpt><trkpt lat="44.044082200141816" lon="7.957729357342318"><ele>200.6</ele><time>2026-05-03T13:30:55.999Z</time></trkpt><trkpt lat="44.043999204192374" lon="7.957745604872239"><ele>206.4</ele><time>2026-05-03T13:30:56.999Z</time></trkpt><trkpt lat="44.04392842880008" lon="7.957781532666134"><ele>212.2</ele><time>2026-05-03T13:30:57.999Z</time></trkpt><trkpt lat="44.04379704110907" lon="7.957823011378119"><ele>218.0</ele><time>2026-05-03T13:30:59.999Z</time></trkpt><trkpt lat="44.04372962568401" lon="7.9578914153171665"><ele>218.0</ele><time>2026-05-03T13:31:00.999Z</time></trkpt><trkpt lat="44.043675648771426" lon="7.958002804798497"><ele>218.0</ele><time>2026-05-03T13:31:01.999Z</time></trkpt><trkpt lat="44.04365282330222" lon="7.958142643505053"><ele>218.0</ele><time>2026-05-03T13:31:02.999Z</time></trkpt><trkpt lat="44.043679008870015" lon="7.958288375021698"><ele>218.0</ele><time>2026-05-03T13:31:03.999Z</time></trkpt><trkpt lat="44.04367330737218" lon="7.958431450806751"><ele>218.0</ele><time>2026-05-03T13:31:04.999Z</time></trkpt><trkpt lat="44.043678109067876" lon="7.958574312470156"><ele>221.60000000000002</ele><time>2026-05-03T13:31:05.999Z</time></trkpt><trkpt lat="44.04369818997954" lon="7.958709905712272"><ele>225.20000000000002</ele><time>2026-05-03T13:31:06.999Z</time></trkpt><trkpt lat="44.04371147806323" lon="7.958843726242961"><ele>228.8</ele><time>2026-05-03T13:31:07.999Z</time></trkpt><trkpt lat="44.04374144192904" lon="7.958969103424854"><ele>232.4</ele><time>2026-05-03T13:31:08.999Z</time></trkpt><trkpt lat="44.0437900642336" lon="7.959086516549228"><ele>236.0</ele><time>2026-05-03T13:31:09.999Z</time></trkpt><trkpt lat="44.04389425916943" lon="7.959161814260612"><ele>238.4</ele><time>2026-05-03T13:31:10.999Z</time></trkpt><trkpt lat="44.04395091346779" lon="7.959283202224689"><ele>240.8</ele><time>2026-05-03T13:31:11.999Z</time></trkpt><trkpt lat="44.044001796222034" lon="7.959401576895956"><ele>243.20000000000002</ele><time>2026-05-03T13:31:12.999Z</time></trkpt><trkpt lat="44.044060985400336" lon="7.959506067472766"><ele>245.60000000000002</ele><time>2026-05-03T13:31:13.999Z</time></trkpt><trkpt lat="44.04410574118606" lon="7.959616207583351"><ele>248.0</ele><time>2026-05-03T13:31:14.999Z</time></trkpt><trkpt lat="44.04414967243407" lon="7.95972875793075"><ele>238.4</ele><time>2026-05-03T13:31:15.999Z</time></trkpt><trkpt lat="44.044175996703814" lon="7.95983688412706"><ele>228.8</ele><time>2026-05-03T13:31:16.999Z</time></trkpt><trkpt lat="44.04418062549643" lon="7.95999500074125"><ele>219.2</ele><time>2026-05-03T13:31:17.999Z</time></trkpt><trkpt lat="44.04419076504348" lon="7.960119173342747"><ele>209.6</ele><time>2026-05-03T13:31:18.999Z</time></trkpt><trkpt lat="44.044200605258105" lon="7.960251857950681"><ele>200.0</ele><time>2026-05-03T13:31:19.999Z</time></trkpt><trkpt lat="44.044209034737555" lon="7.9603807979014976"><ele>199.14285714285717</ele><time>2026-05-03T13:31:20.999Z</time></trkpt><trkpt lat="44.04421819799461" lon="7.960490256963288"><ele>198.28571428571428</ele><time>2026-05-03T13:31:21.999Z</time></trkpt><trkpt lat="44.04421560594598" lon="7.960592097055239"><ele>197.42857142857144</ele><time>2026-05-03T13:31:22.999Z</time></trkpt><trkpt lat="44.04420107099825" lon="7.9606829880985215"><ele>196.57142857142858</ele><time>2026-05-03T13:31:23.999Z</time></trkpt><trkpt lat="44.044153806496745" lon="7.960749059187707"><ele>195.71428571428572</ele><time>2026-05-03T13:31:24.999Z</time></trkpt><trkpt lat="44.044088606320045" lon="7.960794578920316"><ele>194.85714285714286</ele><time>2026-05-03T13:31:25.999Z</time></trkpt><trkpt lat="44.04400432732833" lon="7.960810740957869"><ele>194.0</ele><time>2026-05-03T13:31:26.999Z</time></trkpt><trkpt lat="44.04390787156492" lon="7.960835741187747"><ele>196.6</ele><time>2026-05-03T13:31:27.999Z</time></trkpt><trkpt lat="44.043810360137456" lon="7.960861599759553"><ele>199.2</ele><time>2026-05-03T13:31:28.999Z</time></trkpt><trkpt lat="44.04371410036019" lon="7.960899707647844"><ele>201.79999999999998</ele><time>2026-05-03T13:31:29.999Z</time></trkpt><trkpt lat="44.04361769595509" lon="7.960951528059417"><ele>204.39999999999998</ele><time>2026-05-03T13:31:30.999Z</time></trkpt><trkpt lat="44.04352217764296" lon="7.961044129967734"><ele>207.0</ele><time>2026-05-03T13:31:31.999Z</time></trkpt><trkpt lat="44.04341354056809" lon="7.961090080692892"><ele>207.0</ele><time>2026-05-03T13:31:32.999Z</time></trkpt><trkpt lat="44.043300404757375" lon="7.961144578547308"><ele>207.0</ele><time>2026-05-03T13:31:34Z</time></trkpt><trkpt lat="44.04318020607042" lon="7.961210937394722"><ele>207.0</ele><time>2026-05-03T13:31:35Z</time></trkpt><trkpt lat="44.04306560060129" lon="7.961276892223365"><ele>207.0</ele><time>2026-05-03T13:31:36Z</time></trkpt><trkpt lat="44.04295310936631" lon="7.961335612858295"><ele>210.0</ele><time>2026-05-03T13:31:37Z</time></trkpt><trkpt lat="44.04284544714537" lon="7.961372723063309"><ele>213.0</ele><time>2026-05-03T13:31:38Z</time></trkpt><trkpt lat="44.04273059643263" lon="7.961413817535721"><ele>216.0</ele><time>2026-05-03T13:31:39Z</time></trkpt><trkpt lat="44.042618778395344" lon="7.961463868263017"><ele>219.0</ele><time>2026-05-03T13:31:40Z</time></trkpt><trkpt lat="44.04252044418438" lon="7.961537709369368"><ele>218.79999999999998</ele><time>2026-05-03T13:31:41Z</time></trkpt><trkpt lat="44.04242131704016" lon="7.961562527330376"><ele>218.59999999999997</ele><time>2026-05-03T13:31:42Z</time></trkpt><trkpt lat="44.0423309728356" lon="7.961606416314572"><ele>218.4</ele><time>2026-05-03T13:31:43Z</time></trkpt><trkpt lat="44.04222630141793" lon="7.961654235378057"><ele>218.2</ele><time>2026-05-03T13:31:44Z</time></trkpt><trkpt lat="44.04209541685499" lon="7.961703398563916"><ele>218.0</ele><time>2026-05-03T13:31:45Z</time></trkpt><trkpt lat="44.04196582303603" lon="7.961730455401957"><ele>218.0</ele><time>2026-05-03T13:31:46Z</time></trkpt><trkpt lat="44.04183282433416" lon="7.961728472075871"><ele>218.0</ele><time>2026-05-03T13:31:47Z</time></trkpt><trkpt lat="44.04175123372798" lon="7.961776122612313"><ele>218.0</ele><time>2026-05-03T13:31:48Z</time></trkpt><trkpt lat="44.04163691417321" lon="7.961805499508307"><ele>218.0</ele><time>2026-05-03T13:31:49Z</time></trkpt><trkpt lat="44.04153049750326" lon="7.96184786190032"><ele>218.0</ele><time>2026-05-03T13:31:50Z</time></trkpt><trkpt lat="44.04141766937603" lon="7.961910637162497"><ele>222.0</ele><time>2026-05-03T13:31:51Z</time></trkpt><trkpt lat="44.041316821677505" lon="7.96200476639557"><ele>226.0</ele><time>2026-05-03T13:31:52Z</time></trkpt><trkpt lat="44.04121827061818" lon="7.962100476018152"><ele>230.0</ele><time>2026-05-03T13:31:53Z</time></trkpt><trkpt lat="44.04112112135792" lon="7.96219199753871"><ele>234.0</ele><time>2026-05-03T13:31:54Z</time></trkpt><trkpt lat="44.041030720490376" lon="7.962297700378461"><ele>234.0</ele><time>2026-05-03T13:31:55Z</time></trkpt><trkpt lat="44.04092027106045" lon="7.962354287422669"><ele>233.99999999999997</ele><time>2026-05-03T13:31:56Z</time></trkpt><trkpt lat="44.0408269779586" lon="7.962409855719759"><ele>233.99999999999997</ele><time>2026-05-03T13:31:57Z</time></trkpt><trkpt lat="44.04072460095155" lon="7.962472181700323"><ele>234.0</ele><time>2026-05-03T13:31:58Z</time></trkpt><trkpt lat="44.040621863218504" lon="7.962523309336402"><ele>234.0</ele><time>2026-05-03T13:31:59Z</time></trkpt><trkpt lat="44.04051263787534" lon="7.962545137829787"><ele>233.79999999999998</ele><time>2026-05-03T13:32:00Z</time></trkpt><trkpt lat="44.04040688549574" lon="7.962569108185233"><ele>233.59999999999997</ele><time>2026-05-03T13:32:01Z</time></trkpt><trkpt lat="44.04030250966354" lon="7.9626197488956105"><ele>233.4</ele><time>2026-05-03T13:32:02Z</time></trkpt><trkpt lat="44.04021022998625" lon="7.962708582235966"><ele>233.2</ele><time>2026-05-03T13:32:03Z</time></trkpt><trkpt lat="44.04014377571618" lon="7.962772681813214"><ele>233.0</ele><time>2026-05-03T13:32:04Z</time></trkpt><trkpt lat="44.040082103161645" lon="7.962839393209523"><ele>233.0</ele><time>2026-05-03T13:32:05Z</time></trkpt><trkpt lat="44.040000015520974" lon="7.96279151605427"><ele>233.0</ele><time>2026-05-03T13:32:07Z</time></trkpt><trkpt lat="44.04002548002422" lon="7.962652601836666"><ele>233.0</ele><time>2026-05-03T13:32:09Z</time></trkpt><trkpt lat="44.04009382531418" lon="7.9625770301398"><ele>233.0</ele><time>2026-05-03T13:32:10Z</time></trkpt><trkpt lat="44.040185184188594" lon="7.96250697638427"><ele>233.0</ele><time>2026-05-03T13:32:11Z</time></trkpt><trkpt lat="44.04028273774245" lon="7.962436948656757"><ele>237.0</ele><time>2026-05-03T13:32:12Z</time></trkpt><trkpt lat="44.04036696718635" lon="7.96237971236625"><ele>241.0</ele><time>2026-05-03T13:32:13Z</time></trkpt><trkpt lat="44.04044974968336" lon="7.962348940311576"><ele>245.0</ele><time>2026-05-03T13:32:14Z</time></trkpt><trkpt lat="44.04054182970199" lon="7.962325887095477"><ele>249.0</ele><time>2026-05-03T13:32:15Z</time></trkpt><trkpt lat="44.04064307486419" lon="7.962290484495207"><ele>253.0</ele><time>2026-05-03T13:32:16Z</time></trkpt><trkpt lat="44.040730404585005" lon="7.962260915594858"><ele>249.2</ele><time>2026-05-03T13:32:17Z</time></trkpt><trkpt lat="44.04082168388371" lon="7.962204553983038"><ele>245.4</ele><time>2026-05-03T13:32:18Z</time></trkpt><trkpt lat="44.04091370876258" lon="7.9621268423992175"><ele>241.59999999999997</ele><time>2026-05-03T13:32:19Z</time></trkpt><trkpt lat="44.04100131848699" lon="7.96201949291795"><ele>237.79999999999998</ele><time>2026-05-03T13:32:20Z</time></trkpt><trkpt lat="44.04108606645316" lon="7.9619031582063355"><ele>234.0</ele><time>2026-05-03T13:32:21Z</time></trkpt><trkpt lat="44.041161651243776" lon="7.961799568723479"><ele>234.0</ele><time>2026-05-03T13:32:22Z</time></trkpt><trkpt lat="44.041241086085094" lon="7.961699304241279"><ele>233.99999999999997</ele><time>2026-05-03T13:32:23Z</time></trkpt><trkpt lat="44.041313298332255" lon="7.96159798356299"><ele>233.99999999999997</ele><time>2026-05-03T13:32:24Z</time></trkpt><trkpt lat="44.041383735653824" lon="7.961494858191936"><ele>234.0</ele><time>2026-05-03T13:32:25Z</time></trkpt><trkpt lat="44.041452448047345" lon="7.961385538290054"><ele>234.0</ele><time>2026-05-03T13:32:26Z</time></trkpt><trkpt lat="44.041535261024386" lon="7.9613090454542395"><ele>234.39999999999998</ele><time>2026-05-03T13:32:27Z</time></trkpt><trkpt lat="44.04163972382381" lon="7.961285299219059"><ele>234.79999999999998</ele><time>2026-05-03T13:32:28Z</time></trkpt><trkpt lat="44.04174652252749" lon="7.961308557045354"><ele>235.20000000000002</ele><time>2026-05-03T13:32:29Z</time></trkpt><trkpt lat="44.041827678001106" lon="7.96126873694343"><ele>235.60000000000002</ele><time>2026-05-03T13:32:30Z</time></trkpt><trkpt lat="44.04190702670928" lon="7.961208965937525"><ele>236.0</ele><time>2026-05-03T13:32:31Z</time></trkpt><trkpt lat="44.041981244847626" lon="7.961114861356818"><ele>236.0</ele><time>2026-05-03T13:32:32Z</time></trkpt><trkpt lat="44.042052522498714" lon="7.961011365870606"><ele>236.00000000000003</ele><time>2026-05-03T13:32:33Z</time></trkpt><trkpt lat="44.04212587155115" lon="7.960927836676256"><ele>236.00000000000003</ele><time>2026-05-03T13:32:34Z</time></trkpt><trkpt lat="44.042209775118835" lon="7.960876346736275"><ele>236.0</ele><time>2026-05-03T13:32:35Z</time></trkpt><trkpt lat="44.042306927948935" lon="7.960835845413194"><ele>236.0</ele><time>2026-05-03T13:32:36Z</time></trkpt><trkpt lat="44.042410948780535" lon="7.9608150659751695"><ele>240.75</ele><time>2026-05-03T13:32:37Z</time></trkpt><trkpt lat="44.0425106732132" lon="7.960804195653724"><ele>245.5</ele><time>2026-05-03T13:32:37.999Z</time></trkpt><trkpt lat="44.04261831613337" lon="7.960753500985414"><ele>250.25</ele><time>2026-05-03T13:32:38.999Z</time></trkpt><trkpt lat="44.04273075222709" lon="7.960677213809401"><ele>255.0</ele><time>2026-05-03T13:32:39.999Z</time></trkpt><trkpt lat="44.04284980531269" lon="7.960628848423279"><ele>255.0</ele><time>2026-05-03T13:32:40.999Z</time></trkpt><trkpt lat="44.0429441306951" lon="7.96058336093748"><ele>255.0</ele><time>2026-05-03T13:32:41.999Z</time></trkpt><trkpt lat="44.043023703726746" lon="7.960540255926492"><ele>255.0</ele><time>2026-05-03T13:32:42.999Z</time></trkpt><trkpt lat="44.04309984669883" lon="7.960465684166132"><ele>255.0</ele><time>2026-05-03T13:32:43.999Z</time></trkpt><trkpt lat="44.0431602970555" lon="7.960363032873572"><ele>255.0</ele><time>2026-05-03T13:32:44.999Z</time></trkpt><trkpt lat="44.0431942329971" lon="7.960252787043769"><ele>255.0</ele><time>2026-05-03T13:32:45.999Z</time></trkpt><trkpt lat="44.043190472289076" lon="7.960141644848192"><ele>255.0</ele><time>2026-05-03T13:32:46.999Z</time></trkpt><trkpt lat="44.04316818197935" lon="7.960036228951573"><ele>255.0</ele><time>2026-05-03T13:32:47.999Z</time></trkpt><trkpt lat="44.04307524005696" lon="7.9599300251011025"><ele>255.0</ele><time>2026-05-03T13:32:48.999Z</time></trkpt><trkpt lat="44.042988796381294" lon="7.959822316559812"><ele>255.0</ele><time>2026-05-03T13:32:49.999Z</time></trkpt><trkpt lat="44.04291623385111" lon="7.959685961048528"><ele>259.2</ele><time>2026-05-03T13:32:50.999Z</time></trkpt><trkpt lat="44.0428427267063" lon="7.959569445781056"><ele>263.4</ele><time>2026-05-03T13:32:51.999Z</time></trkpt><trkpt lat="44.042770917408504" lon="7.959451514064419"><ele>267.6</ele><time>2026-05-03T13:32:52.999Z</time></trkpt><trkpt lat="44.04268855421532" lon="7.959351568691588"><ele>271.8</ele><time>2026-05-03T13:32:53.999Z</time></trkpt><trkpt lat="44.04261775243746" lon="7.959239369663857"><ele>276.0</ele><time>2026-05-03T13:32:54.999Z</time></trkpt><trkpt lat="44.0425468758729" lon="7.959141136076072"><ele>276.0</ele><time>2026-05-03T13:32:55.999Z</time></trkpt><trkpt lat="44.04248546621433" lon="7.9590379742943185"><ele>276.0</ele><time>2026-05-03T13:32:56.999Z</time></trkpt><trkpt lat="44.0424081421616" lon="7.958947550737874"><ele>276.0</ele><time>2026-05-03T13:32:57.999Z</time></trkpt><trkpt lat="44.042327904221445" lon="7.958852136653562"><ele>276.0</ele><time>2026-05-03T13:32:58.999Z</time></trkpt><trkpt lat="44.042290466667644" lon="7.958716690088485"><ele>276.0</ele><time>2026-05-03T13:32:59.999Z</time></trkpt><trkpt lat="44.04225556877892" lon="7.958576838033202"><ele>280.0</ele><time>2026-05-03T13:33:00.999Z</time></trkpt><trkpt lat="44.042204241598455" lon="7.95848107981545"><ele>284.0</ele><time>2026-05-03T13:33:01.999Z</time></trkpt><trkpt lat="44.04212898496853" lon="7.958393130559874"><ele>288.0</ele><time>2026-05-03T13:33:02.999Z</time></trkpt><trkpt lat="44.042051225746604" lon="7.9582970297489375"><ele>292.0</ele><time>2026-05-03T13:33:03.999Z</time></trkpt><trkpt lat="44.04199778575085" lon="7.958177135725325"><ele>296.0</ele><time>2026-05-03T13:33:04.999Z</time></trkpt><trkpt lat="44.04193593156975" lon="7.958042220802674"><ele>296.0</ele><time>2026-05-03T13:33:05.999Z</time></trkpt><trkpt lat="44.0418730183781" lon="7.957927701403116"><ele>296.0</ele><time>2026-05-03T13:33:06.999Z</time></trkpt><trkpt lat="44.04179819282689" lon="7.957824027118773"><ele>296.0</ele><time>2026-05-03T13:33:07.999Z</time></trkpt><trkpt lat="44.04174916323041" lon="7.957721496826197"><ele>296.0</ele><time>2026-05-03T13:33:08.999Z</time></trkpt><trkpt lat="44.04167440002405" lon="7.957647024000951"><ele>296.0</ele><time>2026-05-03T13:33:09.999Z</time></trkpt><trkpt lat="44.04157887651341" lon="7.95761255621298"><ele>297.40000000000003</ele><time>2026-05-03T13:33:10.999Z</time></trkpt><trkpt lat="44.041455400130914" lon="7.957661779317335"><ele>298.8</ele><time>2026-05-03T13:33:11.999Z</time></trkpt><trkpt lat="44.04137026290056" lon="7.9577041734242835"><ele>300.20000000000005</ele><time>2026-05-03T13:33:12.999Z</time></trkpt><trkpt lat="44.041264366910745" lon="7.957730961179944"><ele>301.6</ele><time>2026-05-03T13:33:13.999Z</time></trkpt><trkpt lat="44.04115802310543" lon="7.9577490718717225"><ele>303.0</ele><time>2026-05-03T13:33:14.999Z</time></trkpt><trkpt lat="44.041059363897205" lon="7.957772697117596"><ele>303.0</ele><time>2026-05-03T13:33:15.999Z</time></trkpt><trkpt lat="44.04096519639984" lon="7.957825826742731"><ele>303.0</ele><time>2026-05-03T13:33:16.999Z</time></trkpt><trkpt lat="44.04086357857707" lon="7.957906414310261"><ele>303.0</ele><time>2026-05-03T13:33:17.999Z</time></trkpt><trkpt lat="44.04076872597197" lon="7.957983734301631"><ele>303.0</ele><time>2026-05-03T13:33:18.999Z</time></trkpt><trkpt lat="44.04067156326287" lon="7.958072329928883"><ele>303.0</ele><time>2026-05-03T13:33:19.999Z</time></trkpt><trkpt lat="44.04057191968857" lon="7.9581688313229515"><ele>299.8</ele><time>2026-05-03T13:33:20.999Z</time></trkpt><trkpt lat="44.040467294097525" lon="7.958272225564414"><ele>296.6</ele><time>2026-05-03T13:33:21.999Z</time></trkpt><trkpt lat="44.0403769204169" lon="7.958359332594086"><ele>293.4</ele><time>2026-05-03T13:33:22.999Z</time></trkpt><trkpt lat="44.04028746824581" lon="7.958436710898289"><ele>290.2</ele><time>2026-05-03T13:33:23.999Z</time></trkpt><trkpt lat="44.04019004803564" lon="7.958472162456011"><ele>287.0</ele><time>2026-05-03T13:33:24.999Z</time></trkpt><trkpt lat="44.04009638567403" lon="7.958525827954173"><ele>294.4</ele><time>2026-05-03T13:33:25.999Z</time></trkpt><trkpt lat="44.0400225589367" lon="7.958633033508237"><ele>301.79999999999995</ele><time>2026-05-03T13:33:26.999Z</time></trkpt><trkpt lat="44.03992315533482" lon="7.958670810905292"><ele>309.2</ele><time>2026-05-03T13:33:27.999Z</time></trkpt><trkpt lat="44.0398312398736" lon="7.958697616294177"><ele>316.59999999999997</ele><time>2026-05-03T13:33:28.999Z</time></trkpt><trkpt lat="44.039731499830374" lon="7.958629700853781"><ele>324.0</ele><time>2026-05-03T13:33:29.999Z</time></trkpt><trkpt lat="44.03962865704509" lon="7.958652680826846"><ele>324.0</ele><time>2026-05-03T13:33:30.999Z</time></trkpt><trkpt lat="44.03952421630228" lon="7.958686056577042"><ele>324.0</ele><time>2026-05-03T13:33:31.999Z</time></trkpt><trkpt lat="44.03941885349325" lon="7.958730747044306"><ele>324.0</ele><time>2026-05-03T13:33:32.999Z</time></trkpt><trkpt lat="44.03931931683725" lon="7.958775914526851"><ele>324.0</ele><time>2026-05-03T13:33:33.999Z</time></trkpt><trkpt lat="44.03922982121243" lon="7.958810336127853"><ele>324.0</ele><time>2026-05-03T13:33:34.999Z</time></trkpt><trkpt lat="44.0391467753741" lon="7.958871300813321"><ele>323.4</ele><time>2026-05-03T13:33:35.999Z</time></trkpt><trkpt lat="44.03904725358578" lon="7.958856387981006"><ele>322.79999999999995</ele><time>2026-05-03T13:33:36.999Z</time></trkpt><trkpt lat="44.03894026829295" lon="7.958881352926238"><ele>322.20000000000005</ele><time>2026-05-03T13:33:37.999Z</time></trkpt><trkpt lat="44.03883022995351" lon="7.958891705032896"><ele>321.6</ele><time>2026-05-03T13:33:38.999Z</time></trkpt><trkpt lat="44.038721429150414" lon="7.958941340600731"><ele>321.0</ele><time>2026-05-03T13:33:40Z</time></trkpt><trkpt lat="44.03861787899736" lon="7.95900489580826"><ele>321.0</ele><time>2026-05-03T13:33:41Z</time></trkpt><trkpt lat="44.03851963818081" lon="7.959063763231097"><ele>321.0</ele><time>2026-05-03T13:33:42Z</time></trkpt><trkpt lat="44.038413104551076" lon="7.959055937368248"><ele>321.0</ele><time>2026-05-03T13:33:43Z</time></trkpt><trkpt lat="44.03829953670162" lon="7.959052435666643"><ele>321.0</ele><time>2026-05-03T13:33:44Z</time></trkpt><trkpt lat="44.0381990588191" lon="7.959090098297412"><ele>321.0</ele><time>2026-05-03T13:33:45Z</time></trkpt><trkpt lat="44.03809288042895" lon="7.959105014888336"><ele>321.8</ele><time>2026-05-03T13:33:46Z</time></trkpt><trkpt lat="44.037985533036654" lon="7.959096411961781"><ele>322.6</ele><time>2026-05-03T13:33:47Z</time></trkpt><trkpt lat="44.03788127016136" lon="7.959052155013026"><ele>323.4</ele><time>2026-05-03T13:33:48Z</time></trkpt><trkpt lat="44.03778680548744" lon="7.959019136745061"><ele>324.2</ele><time>2026-05-03T13:33:49Z</time></trkpt><trkpt lat="44.03770846544051" lon="7.959007859845763"><ele>325.0</ele><time>2026-05-03T13:33:50Z</time></trkpt><trkpt lat="44.03761961894469" lon="7.959045404482974"><ele>325.0</ele><time>2026-05-03T13:33:51Z</time></trkpt><trkpt lat="44.03751373917582" lon="7.959104857020273"><ele>325.0</ele><time>2026-05-03T13:33:52Z</time></trkpt><trkpt lat="44.037403116604814" lon="7.95915279216104"><ele>325.0</ele><time>2026-05-03T13:33:53Z</time></trkpt><trkpt lat="44.03728986774104" lon="7.959183009231758"><ele>325.0</ele><time>2026-05-03T13:33:54Z</time></trkpt><trkpt lat="44.037175091165466" lon="7.9592011587771845"><ele>334.4</ele><time>2026-05-03T13:33:55Z</time></trkpt><trkpt lat="44.03705918848216" lon="7.959223386928333"><ele>343.8</ele><time>2026-05-03T13:33:56Z</time></trkpt><trkpt lat="44.03695368819094" lon="7.959253267194765"><ele>353.20000000000005</ele><time>2026-05-03T13:33:57Z</time></trkpt><trkpt lat="44.036848120000755" lon="7.959284061695949"><ele>362.6</ele><time>2026-05-03T13:33:58Z</time></trkpt><trkpt lat="44.036746973646004" lon="7.9593175864470895"><ele>372.0</ele><time>2026-05-03T13:33:59Z</time></trkpt><trkpt lat="44.036644814791444" lon="7.959340709315727"><ele>373.0</ele><time>2026-05-03T13:34:00Z</time></trkpt><trkpt lat="44.036541605428944" lon="7.95934186507733"><ele>374.0</ele><time>2026-05-03T13:34:01Z</time></trkpt><trkpt lat="44.036435457717374" lon="7.959320634358406"><ele>375.0</ele><time>2026-05-03T13:34:02Z</time></trkpt><trkpt lat="44.036327693815586" lon="7.959285841756165"><ele>376.0</ele><time>2026-05-03T13:34:03Z</time></trkpt><trkpt lat="44.03622202352629" lon="7.959263749773798"><ele>377.0</ele><time>2026-05-03T13:34:04Z</time></trkpt><trkpt lat="44.036119221816094" lon="7.9592507112138815"><ele>377.0</ele><time>2026-05-03T13:34:05Z</time></trkpt><trkpt lat="44.03602111613929" lon="7.9592141854013585"><ele>377.0</ele><time>2026-05-03T13:34:06Z</time></trkpt><trkpt lat="44.035918769804795" lon="7.959150041121506"><ele>377.0</ele><time>2026-05-03T13:34:07Z</time></trkpt><trkpt lat="44.035813498797566" lon="7.9590922964306765"><ele>377.0</ele><time>2026-05-03T13:34:08Z</time></trkpt><trkpt lat="44.03570635078556" lon="7.959049965409249"><ele>377.0</ele><time>2026-05-03T13:34:09Z</time></trkpt><trkpt lat="44.035599820856916" lon="7.95899313419041"><ele>373.6</ele><time>2026-05-03T13:34:10Z</time></trkpt><trkpt lat="44.0355129776736" lon="7.958917592555727"><ele>370.20000000000005</ele><time>2026-05-03T13:34:11Z</time></trkpt><trkpt lat="44.035418392452904" lon="7.958848657210231"><ele>366.8</ele><time>2026-05-03T13:34:12Z</time></trkpt><trkpt lat="44.03531939540473" lon="7.958831092192325"><ele>363.4</ele><time>2026-05-03T13:34:13Z</time></trkpt><trkpt lat="44.03521382354167" lon="7.9588393961787665"><ele>360.0</ele><time>2026-05-03T13:34:14Z</time></trkpt><trkpt lat="44.035135270082925" lon="7.958829730013386"><ele>360.0</ele><time>2026-05-03T13:34:15Z</time></trkpt><trkpt lat="44.035080496063486" lon="7.958783397264213"><ele>360.0</ele><time>2026-05-03T13:34:16Z</time></trkpt><trkpt lat="44.035058402324324" lon="7.95869007364945"><ele>360.0</ele><time>2026-05-03T13:34:17Z</time></trkpt><trkpt lat="44.035070020364955" lon="7.958587682952907"><ele>360.0</ele><time>2026-05-03T13:34:18Z</time></trkpt><trkpt lat="44.03511565633789" lon="7.958510893718468"><ele>360.0</ele><time>2026-05-03T13:34:19Z</time></trkpt><trkpt lat="44.03518581627055" lon="7.95843168698285"><ele>360.0</ele><time>2026-05-03T13:34:20Z</time></trkpt><trkpt lat="44.03524076508849" lon="7.9583310341432245"><ele>358.6666666666667</ele><time>2026-05-03T13:34:21Z</time></trkpt><trkpt lat="44.03531065753142" lon="7.95825224431532"><ele>357.3333333333333</ele><time>2026-05-03T13:34:22Z</time></trkpt><trkpt lat="44.03538092031511" lon="7.958238594329462"><ele>356.0</ele><time>2026-05-03T13:34:23Z</time></trkpt><trkpt lat="44.03544811414305" lon="7.958328721084145"><ele>354.66666666666663</ele><time>2026-05-03T13:34:24Z</time></trkpt><trkpt lat="44.035532348102386" lon="7.958345161189317"><ele>353.3333333333333</ele><time>2026-05-03T13:34:25Z</time></trkpt><trkpt lat="44.03561605904686" lon="7.958360496198525"><ele>352.0</ele><time>2026-05-03T13:34:26Z</time></trkpt><trkpt lat="44.03570734057802" lon="7.958353739791604"><ele>352.0</ele><time>2026-05-03T13:34:27Z</time></trkpt><trkpt lat="44.03578781283338" lon="7.958352617974711"><ele>352.0</ele><time>2026-05-03T13:34:28Z</time></trkpt><trkpt lat="44.03586110791367" lon="7.958349191542743"><ele>352.0</ele><time>2026-05-03T13:34:29Z</time></trkpt><trkpt lat="44.03593199805502" lon="7.958336339098144"><ele>352.0</ele><time>2026-05-03T13:34:30Z</time></trkpt><trkpt lat="44.036000055272865" lon="7.958279598213123"><ele>352.0</ele><time>2026-05-03T13:34:31Z</time></trkpt><trkpt lat="44.03604098801423" lon="7.958177559995238"><ele>352.0</ele><time>2026-05-03T13:34:32Z</time></trkpt><trkpt lat="44.03606996341008" lon="7.958056156908925"><ele>349.8333333333333</ele><time>2026-05-03T13:34:33Z</time></trkpt><trkpt lat="44.03608232271803" lon="7.957927566361066"><ele>347.66666666666663</ele><time>2026-05-03T13:34:34Z</time></trkpt><trkpt lat="44.03608532351525" lon="7.957814551460493"><ele>345.5</ele><time>2026-05-03T13:34:35Z</time></trkpt><trkpt lat="44.036108468016536" lon="7.957731055913848"><ele>343.3333333333333</ele><time>2026-05-03T13:34:36Z</time></trkpt><trkpt lat="44.036160958852776" lon="7.957680797017027"><ele>341.1666666666667</ele><time>2026-05-03T13:34:37Z</time></trkpt><trkpt lat="44.036239690615155" lon="7.957678353733055"><ele>339.0</ele><time>2026-05-03T13:34:37.999Z</time></trkpt><trkpt lat="44.03631294599299" lon="7.957646850475355"><ele>339.0</ele><time>2026-05-03T13:34:38.999Z</time></trkpt><trkpt lat="44.03635997592612" lon="7.957537933508111"><ele>339.0</ele><time>2026-05-03T13:34:39.999Z</time></trkpt><trkpt lat="44.036417403500664" lon="7.957427647995386"><ele>339.0</ele><time>2026-05-03T13:34:40.999Z</time></trkpt><trkpt lat="44.036503270921315" lon="7.957367270644967"><ele>339.0</ele><time>2026-05-03T13:34:41.999Z</time></trkpt><trkpt lat="44.03659557362847" lon="7.9573605582514135"><ele>339.0</ele><time>2026-05-03T13:34:42.999Z</time></trkpt><trkpt lat="44.036666089335085" lon="7.957331864422857"><ele>340.3333333333333</ele><time>2026-05-03T13:34:43.999Z</time></trkpt><trkpt lat="44.03672318609027" lon="7.957254221296848"><ele>341.6666666666667</ele><time>2026-05-03T13:34:44.999Z</time></trkpt><trkpt lat="44.03677735960493" lon="7.9571606996421"><ele>343.0</ele><time>2026-05-03T13:34:45.999Z</time></trkpt><trkpt lat="44.03685498410441" lon="7.957120181900857"><ele>344.33333333333337</ele><time>2026-05-03T13:34:46.999Z</time></trkpt><trkpt lat="44.03694235821564" lon="7.95714707757985"><ele>345.6666666666667</ele><time>2026-05-03T13:34:47.999Z</time></trkpt><trkpt lat="44.03701063648379" lon="7.957190763622681"><ele>347.0</ele><time>2026-05-03T13:34:48.999Z</time></trkpt><trkpt lat="44.03709797264442" lon="7.957186891042778"><ele>347.0</ele><time>2026-05-03T13:34:49.999Z</time></trkpt><trkpt lat="44.037169540615366" lon="7.9571128987469235"><ele>347.0</ele><time>2026-05-03T13:34:50.999Z</time></trkpt><trkpt lat="44.037246160297876" lon="7.957024974018497"><ele>347.0</ele><time>2026-05-03T13:34:51.999Z</time></trkpt><trkpt lat="44.037330717425505" lon="7.956961140095127"><ele>347.0</ele><time>2026-05-03T13:34:52.999Z</time></trkpt><trkpt lat="44.03741986397731" lon="7.956908176678931"><ele>347.0</ele><time>2026-05-03T13:34:53.999Z</time></trkpt><trkpt lat="44.03749803603638" lon="7.956854781641394"><ele>344.40000000000003</ele><time>2026-05-03T13:34:54.999Z</time></trkpt><trkpt lat="44.03757138061358" lon="7.9567894465618965"><ele>341.8</ele><time>2026-05-03T13:34:55.999Z</time></trkpt><trkpt lat="44.03764188551437" lon="7.956706951969731"><ele>339.2</ele><time>2026-05-03T13:34:56.999Z</time></trkpt><trkpt lat="44.03771197108643" lon="7.956610702376872"><ele>336.6</ele><time>2026-05-03T13:34:57.999Z</time></trkpt><trkpt lat="44.0377820798236" lon="7.956516292688653"><ele>334.0</ele><time>2026-05-03T13:34:58.999Z</time></trkpt><trkpt lat="44.037859411923094" lon="7.956434423510347"><ele>339.0</ele><time>2026-05-03T13:34:59.999Z</time></trkpt><trkpt lat="44.03794345365604" lon="7.956361914711311"><ele>344.0</ele><time>2026-05-03T13:35:00.999Z</time></trkpt><trkpt lat="44.03801070470844" lon="7.956314006939298"><ele>349.0</ele><time>2026-05-03T13:35:01.999Z</time></trkpt><trkpt lat="44.03806428450442" lon="7.956260955900787"><ele>354.0</ele><time>2026-05-03T13:35:02.999Z</time></trkpt><trkpt lat="44.038086528168364" lon="7.956155130619581"><ele>359.0</ele><time>2026-05-03T13:35:03.999Z</time></trkpt><trkpt lat="44.038083931434116" lon="7.956017135975918"><ele>364.0</ele><time>2026-05-03T13:35:04.999Z</time></trkpt><trkpt lat="44.03808605474547" lon="7.955885050901363"><ele>368.16666666666663</ele><time>2026-05-03T13:35:05.999Z</time></trkpt><trkpt lat="44.0381170844017" lon="7.955759607034846"><ele>372.3333333333333</ele><time>2026-05-03T13:35:06.999Z</time></trkpt><trkpt lat="44.03816747486416" lon="7.955667449337742"><ele>376.5</ele><time>2026-05-03T13:35:07.999Z</time></trkpt><trkpt lat="44.0382178118589" lon="7.955596436778588"><ele>380.66666666666663</ele><time>2026-05-03T13:35:08.999Z</time></trkpt><trkpt lat="44.03824282174515" lon="7.955500189426111"><ele>384.8333333333333</ele><time>2026-05-03T13:35:09.999Z</time></trkpt><trkpt lat="44.03821890535456" lon="7.9553827299914905"><ele>389.0</ele><time>2026-05-03T13:35:10.999Z</time></trkpt><trkpt lat="44.038191626265984" lon="7.955254008721999"><ele>389.0</ele><time>2026-05-03T13:35:11.999Z</time></trkpt><trkpt lat="44.038184271193984" lon="7.955154696354468"><ele>389.0</ele><time>2026-05-03T13:35:12.999Z</time></trkpt><trkpt lat="44.03820293326976" lon="7.955002212977615"><ele>389.0</ele><time>2026-05-03T13:35:13.999Z</time></trkpt><trkpt lat="44.03823695734206" lon="7.954885163382388"><ele>389.0</ele><time>2026-05-03T13:35:14.999Z</time></trkpt><trkpt lat="44.03828436860353" lon="7.954772998682911"><ele>389.0</ele><time>2026-05-03T13:35:15.999Z</time></trkpt><trkpt lat="44.03834514300709" lon="7.954676867287836"><ele>386.49999999999994</ele><time>2026-05-03T13:35:16.999Z</time></trkpt><trkpt lat="44.03843060612551" lon="7.954620935517711"><ele>384.0</ele><time>2026-05-03T13:35:17.999Z</time></trkpt><trkpt lat="44.038517359164295" lon="7.954575579469335"><ele>381.5</ele><time>2026-05-03T13:35:18.999Z</time></trkpt><trkpt lat="44.038603356436575" lon="7.954559415363835"><ele>379.0</ele><time>2026-05-03T13:35:19.999Z</time></trkpt><trkpt lat="44.03868062951718" lon="7.954525443806642"><ele>376.5</ele><time>2026-05-03T13:35:20.999Z</time></trkpt><trkpt lat="44.03874212666964" lon="7.954458203231025"><ele>374.0</ele><time>2026-05-03T13:35:21.999Z</time></trkpt><trkpt lat="44.03878170134595" lon="7.954362436838718"><ele>374.0</ele><time>2026-05-03T13:35:22.999Z</time></trkpt><trkpt lat="44.03877010387524" lon="7.954250977660992"><ele>374.0</ele><time>2026-05-03T13:35:23.999Z</time></trkpt><trkpt lat="44.03873921744508" lon="7.954141135996682"><ele>374.0</ele><time>2026-05-03T13:35:24.999Z</time></trkpt><trkpt lat="44.03864087349134" lon="7.954082504010814"><ele>374.0</ele><time>2026-05-03T13:35:25.999Z</time></trkpt><trkpt lat="44.03855068462718" lon="7.9539975968249585"><ele>374.0</ele><time>2026-05-03T13:35:26.999Z</time></trkpt><trkpt lat="44.03845301625142" lon="7.953949387708733"><ele>375.6666666666667</ele><time>2026-05-03T13:35:27.999Z</time></trkpt><trkpt lat="44.03837138867392" lon="7.953896699329487"><ele>377.33333333333337</ele><time>2026-05-03T13:35:28.999Z</time></trkpt><trkpt lat="44.03831596879612" lon="7.953831679832682"><ele>379.0</ele><time>2026-05-03T13:35:29.999Z</time></trkpt><trkpt lat="44.03827867715151" lon="7.953754691787398"><ele>380.6666666666667</ele><time>2026-05-03T13:35:30.999Z</time></trkpt><trkpt lat="44.03824061686173" lon="7.953673308974887"><ele>382.3333333333333</ele><time>2026-05-03T13:35:31.999Z</time></trkpt><trkpt lat="44.03824181437144" lon="7.953560027856359"><ele>384.0</ele><time>2026-05-03T13:35:32.999Z</time></trkpt><trkpt lat="44.038262550754744" lon="7.953449827618254"><ele>385.6</ele><time>2026-05-03T13:35:33.999Z</time></trkpt><trkpt lat="44.038310413259296" lon="7.953344337536713"><ele>387.2</ele><time>2026-05-03T13:35:34.999Z</time></trkpt><trkpt lat="44.038384296875385" lon="7.953254198576121"><ele>388.8</ele><time>2026-05-03T13:35:35.999Z</time></trkpt><trkpt lat="44.038468200743985" lon="7.953176588995172"><ele>390.40000000000003</ele><time>2026-05-03T13:35:36.999Z</time></trkpt><trkpt lat="44.03855471025108" lon="7.953106982031466"><ele>392.0</ele><time>2026-05-03T13:35:37.999Z</time></trkpt><trkpt lat="44.03864760560574" lon="7.953058208741189"><ele>391.99999999999994</ele><time>2026-05-03T13:35:38.999Z</time></trkpt><trkpt lat="44.038736828803806" lon="7.953019486432316"><ele>392.0</ele><time>2026-05-03T13:35:39.999Z</time></trkpt><trkpt lat="44.03882815716103" lon="7.952979320082984"><ele>392.0</ele><time>2026-05-03T13:35:40.999Z</time></trkpt><trkpt lat="44.03889366365532" lon="7.952922555113297"><ele>392.0</ele><time>2026-05-03T13:35:41.999Z</time></trkpt><trkpt lat="44.038936281248034" lon="7.952849200379995"><ele>391.99999999999994</ele><time>2026-05-03T13:35:42.999Z</time></trkpt><trkpt lat="44.03894868904392" lon="7.9527550938497145"><ele>392.0</ele><time>2026-05-03T13:35:43.999Z</time></trkpt><trkpt lat="44.03891732514981" lon="7.952654225609509"><ele>392.0</ele><time>2026-05-03T13:35:44.999Z</time></trkpt><trkpt lat="44.0388664706415" lon="7.952563264722512"><ele>392.0</ele><time>2026-05-03T13:35:46Z</time></trkpt><trkpt lat="44.03877049908365" lon="7.9525275458328295"><ele>392.0</ele><time>2026-05-03T13:35:47Z</time></trkpt><trkpt lat="44.03867497276303" lon="7.952615833015828"><ele>392.0</ele><time>2026-05-03T13:35:48Z</time></trkpt><trkpt lat="44.03861002575542" lon="7.952684842433229"><ele>392.0</ele><time>2026-05-03T13:35:49Z</time></trkpt><trkpt lat="44.0385621603937" lon="7.952776071595824"><ele>391.99999999999994</ele><time>2026-05-03T13:35:50Z</time></trkpt><trkpt lat="44.03851745013121" lon="7.952876939655761"><ele>392.0</ele><time>2026-05-03T13:35:51Z</time></trkpt><trkpt lat="44.03845689293506" lon="7.95296470797579"><ele>392.0</ele><time>2026-05-03T13:35:52Z</time></trkpt><trkpt lat="44.03837001797442" lon="7.952997652944421"><ele>392.0</ele><time>2026-05-03T13:35:53Z</time></trkpt><trkpt lat="44.038284909983005" lon="7.953033843587928"><ele>391.99999999999994</ele><time>2026-05-03T13:35:54Z</time></trkpt><trkpt lat="44.038201309252216" lon="7.9530895342707515"><ele>392.0</ele><time>2026-05-03T13:35:55Z</time></trkpt><trkpt lat="44.03812225819468" lon="7.953152442599468"><ele>396.6</ele><time>2026-05-03T13:35:56Z</time></trkpt><trkpt lat="44.03805606458969" lon="7.953247248169207"><ele>401.20000000000005</ele><time>2026-05-03T13:35:57Z</time></trkpt><trkpt lat="44.03799139137159" lon="7.953339211151629"><ele>405.8</ele><time>2026-05-03T13:35:58Z</time></trkpt><trkpt lat="44.03794286854711" lon="7.953446422384654"><ele>410.4</ele><time>2026-05-03T13:35:59Z</time></trkpt><trkpt lat="44.037926785733625" lon="7.953573067274091"><ele>415.0</ele><time>2026-05-03T13:36:00Z</time></trkpt><trkpt lat="44.037939310409804" lon="7.953700891631918"><ele>415.0</ele><time>2026-05-03T13:36:01Z</time></trkpt><trkpt lat="44.03796739205896" lon="7.953815606954312"><ele>415.0</ele><time>2026-05-03T13:36:02Z</time></trkpt><trkpt lat="44.03794848702962" lon="7.953902781811913"><ele>415.0</ele><time>2026-05-03T13:36:03Z</time></trkpt><trkpt lat="44.03792500807834" lon="7.953984136597288"><ele>415.0</ele><time>2026-05-03T13:36:04Z</time></trkpt><trkpt lat="44.037891806667155" lon="7.9540678112556185"><ele>415.0</ele><time>2026-05-03T13:36:05Z</time></trkpt><trkpt lat="44.03783628480473" lon="7.95413079570937"><ele>415.0</ele><time>2026-05-03T13:36:06Z</time></trkpt><trkpt lat="44.037782125123265" lon="7.954213614981932"><ele>415.0</ele><time>2026-05-03T13:36:07Z</time></trkpt><trkpt lat="44.03772807219523" lon="7.954288848684122"><ele>412.8</ele><time>2026-05-03T13:36:08Z</time></trkpt><trkpt lat="44.037658784097616" lon="7.954374748629609"><ele>410.6</ele><time>2026-05-03T13:36:10Z</time></trkpt><trkpt lat="44.03759631067946" lon="7.954440416098395"><ele>408.4</ele><time>2026-05-03T13:36:12Z</time></trkpt><trkpt lat="44.03753108840172" lon="7.954522504840874"><ele>406.2</ele><time>2026-05-03T13:36:15Z</time></trkpt><trkpt lat="44.03752129667366" lon="7.954390063052996"><ele>404.0</ele><time>2026-05-03T13:36:17Z</time></trkpt><trkpt lat="44.037601475105944" lon="7.954299744920393"><ele>406.75</ele><time>2026-05-03T13:36:19Z</time></trkpt><trkpt lat="44.03771278064169" lon="7.9541328222269"><ele>409.5</ele><time>2026-05-03T13:36:21Z</time></trkpt><trkpt lat="44.037789751048614" lon="7.954009316446344"><ele>412.25</ele><time>2026-05-03T13:36:22Z</time></trkpt><trkpt lat="44.03795198992025" lon="7.95400648298528"><ele>415.0</ele><time>2026-05-03T13:36:23Z</time></trkpt><trkpt lat="44.03798622057118" lon="7.953867636877675"><ele>415.0</ele><time>2026-05-03T13:36:24Z</time></trkpt><trkpt lat="44.03797751687698" lon="7.953697367881179"><ele>415.0</ele><time>2026-05-03T13:36:25Z</time></trkpt><trkpt lat="44.037966652626494" lon="7.953605329897868"><ele>415.0</ele><time>2026-05-03T13:36:26Z</time></trkpt><trkpt lat="44.037963591708824" lon="7.953447734640097"><ele>415.0</ele><time>2026-05-03T13:36:28Z</time></trkpt><trkpt lat="44.038005556048226" lon="7.9533762674579425"><ele>415.0</ele><time>2026-05-03T13:36:31Z</time></trkpt><trkpt lat="44.03806642844091" lon="7.953277109749292"><ele>417.33333333333337</ele><time>2026-05-03T13:36:32Z</time></trkpt><trkpt lat="44.03813342840111" lon="7.953197835991541"><ele>419.66666666666663</ele><time>2026-05-03T13:36:33Z</time></trkpt><trkpt lat="44.03823440573213" lon="7.953086609343509"><ele>422.0</ele><time>2026-05-03T13:36:35Z</time></trkpt><trkpt lat="44.03786582245433" lon="7.952757138943711"><ele>422.0</ele><time>2026-05-03T13:36:38Z</time></trkpt><trkpt lat="44.03775563849471" lon="7.952733190093738"><ele>422.0</ele><time>2026-05-03T13:36:39Z</time></trkpt><trkpt lat="44.03766113848978" lon="7.952678567609171"><ele>422.0</ele><time>2026-05-03T13:36:40Z</time></trkpt><trkpt lat="44.03755788003551" lon="7.952593652191489"><ele>422.0</ele><time>2026-05-03T13:36:41Z</time></trkpt><trkpt lat="44.03745904333799" lon="7.952526368309884"><ele>422.0</ele><time>2026-05-03T13:36:42Z</time></trkpt><trkpt lat="44.03735981949758" lon="7.952494373544128"><ele>422.8</ele><time>2026-05-03T13:36:42.999Z</time></trkpt><trkpt lat="44.03725595411986" lon="7.952467046595934"><ele>423.6</ele><time>2026-05-03T13:36:43.999Z</time></trkpt><trkpt lat="44.03715675517994" lon="7.952411136529382"><ele>424.40000000000003</ele><time>2026-05-03T13:36:44.999Z</time></trkpt><trkpt lat="44.03708245526719" lon="7.95237031083712"><ele>425.20000000000005</ele><time>2026-05-03T13:36:45.999Z</time></trkpt><trkpt lat="44.036983233503186" lon="7.952366875820567"><ele>426.0</ele><time>2026-05-03T13:36:46.999Z</time></trkpt><trkpt lat="44.03686883924327" lon="7.9523916580965315"><ele>426.0</ele><time>2026-05-03T13:36:47.999Z</time></trkpt><trkpt lat="44.036778893762786" lon="7.952379714154773"><ele>426.0</ele><time>2026-05-03T13:36:48.999Z</time></trkpt><trkpt lat="44.03669850076465" lon="7.952339560890484"><ele>426.0</ele><time>2026-05-03T13:36:49.999Z</time></trkpt><trkpt lat="44.03663047061812" lon="7.952266625962951"><ele>426.0</ele><time>2026-05-03T13:36:50.999Z</time></trkpt><trkpt lat="44.036574402085265" lon="7.952213068100655"><ele>426.0</ele><time>2026-05-03T13:36:51.999Z</time></trkpt><trkpt lat="44.03650224880462" lon="7.952216658159675"><ele>426.0</ele><time>2026-05-03T13:36:52.999Z</time></trkpt><trkpt lat="44.036407021312286" lon="7.952261812696146"><ele>429.6666666666667</ele><time>2026-05-03T13:36:53.999Z</time></trkpt><trkpt lat="44.03633025255265" lon="7.952251160601458"><ele>433.33333333333337</ele><time>2026-05-03T13:36:54.999Z</time></trkpt><trkpt lat="44.03626312515569" lon="7.9521935368773"><ele>437.0</ele><time>2026-05-03T13:36:55.999Z</time></trkpt><trkpt lat="44.03620753961679" lon="7.952080857989922"><ele>440.6666666666667</ele><time>2026-05-03T13:36:56.999Z</time></trkpt><trkpt lat="44.03614756602745" lon="7.951989721073452"><ele>444.33333333333337</ele><time>2026-05-03T13:36:57.999Z</time></trkpt><trkpt lat="44.03606177656652" lon="7.951928498408589"><ele>448.0</ele><time>2026-05-03T13:36:58.999Z</time></trkpt><trkpt lat="44.0359675950406" lon="7.951840252769108"><ele>448.0</ele><time>2026-05-03T13:36:59.999Z</time></trkpt><trkpt lat="44.03590426906201" lon="7.951740378460435"><ele>447.99999999999994</ele><time>2026-05-03T13:37:00.999Z</time></trkpt><trkpt lat="44.03585727775804" lon="7.951645424804018"><ele>447.99999999999994</ele><time>2026-05-03T13:37:01.999Z</time></trkpt><trkpt lat="44.03585192841772" lon="7.951544041543054"><ele>448.0</ele><time>2026-05-03T13:37:02.999Z</time></trkpt><trkpt lat="44.03589517421262" lon="7.951417288771677"><ele>448.0</ele><time>2026-05-03T13:37:03.999Z</time></trkpt><trkpt lat="44.03594187297409" lon="7.95128549179224"><ele>443.59999999999997</ele><time>2026-05-03T13:37:04.999Z</time></trkpt><trkpt lat="44.035956900981" lon="7.951161045109734"><ele>439.19999999999993</ele><time>2026-05-03T13:37:05.999Z</time></trkpt><trkpt lat="44.03597975910848" lon="7.95103893409811"><ele>434.8</ele><time>2026-05-03T13:37:06.999Z</time></trkpt><trkpt lat="44.03604462070151" lon="7.95094325299824"><ele>430.4</ele><time>2026-05-03T13:37:07.999Z</time></trkpt><trkpt lat="44.0361419840265" lon="7.950896157085833"><ele>426.0</ele><time>2026-05-03T13:37:08.999Z</time></trkpt><trkpt lat="44.036244560711076" lon="7.950888312546377"><ele>426.8333333333333</ele><time>2026-05-03T13:37:09.999Z</time></trkpt><trkpt lat="44.036326748877656" lon="7.950872216419954"><ele>427.66666666666663</ele><time>2026-05-03T13:37:10.999Z</time></trkpt><trkpt lat="44.03640444437785" lon="7.9507871958085445"><ele>428.5</ele><time>2026-05-03T13:37:11.999Z</time></trkpt><trkpt lat="44.0364830062567" lon="7.950674272710031"><ele>429.3333333333333</ele><time>2026-05-03T13:37:12.999Z</time></trkpt><trkpt lat="44.03653534314344" lon="7.950608711560958"><ele>430.16666666666663</ele><time>2026-05-03T13:37:13.999Z</time></trkpt><trkpt lat="44.03659114432268" lon="7.950528445854113"><ele>431.0</ele><time>2026-05-03T13:37:14.999Z</time></trkpt><trkpt lat="44.03660484370625" lon="7.950427035850415"><ele>431.0</ele><time>2026-05-03T13:37:15.999Z</time></trkpt><trkpt lat="44.03658175506671" lon="7.950309256390305"><ele>431.0</ele><time>2026-05-03T13:37:16.999Z</time></trkpt><trkpt lat="44.03656360008401" lon="7.95018248953763"><ele>431.0</ele><time>2026-05-03T13:37:17.999Z</time></trkpt><trkpt lat="44.03662552348113" lon="7.950019386643698"><ele>431.0</ele><time>2026-05-03T13:37:19.999Z</time></trkpt><trkpt lat="44.036730306145124" lon="7.949952949070192"><ele>431.0</ele><time>2026-05-03T13:37:20.999Z</time></trkpt><trkpt lat="44.036817426449446" lon="7.949897665565071"><ele>434.20000000000005</ele><time>2026-05-03T13:37:21.999Z</time></trkpt><trkpt lat="44.03687875502283" lon="7.949816490634368"><ele>437.40000000000003</ele><time>2026-05-03T13:37:23.999Z</time></trkpt><trkpt lat="44.036798700071934" lon="7.949708687877054"><ele>440.6</ele><time>2026-05-03T13:37:25.999Z</time></trkpt><trkpt lat="44.0367179135453" lon="7.94965941805125"><ele>443.8</ele><time>2026-05-03T13:37:26.999Z</time></trkpt><trkpt lat="44.03658936462857" lon="7.949594278640339"><ele>447.0</ele><time>2026-05-03T13:37:27.999Z</time></trkpt><trkpt lat="44.03649454464808" lon="7.949520121904439"><ele>447.0</ele><time>2026-05-03T13:37:28.999Z</time></trkpt><trkpt lat="44.036433061861636" lon="7.949423631736342"><ele>447.0</ele><time>2026-05-03T13:37:29.999Z</time></trkpt><trkpt lat="44.03636885257278" lon="7.949357956203167"><ele>447.0</ele><time>2026-05-03T13:37:30.999Z</time></trkpt><trkpt lat="44.03629305233953" lon="7.949314077681264"><ele>447.0</ele><time>2026-05-03T13:37:31.999Z</time></trkpt><trkpt lat="44.036204484356404" lon="7.94926982353556"><ele>447.0</ele><time>2026-05-03T13:37:32.999Z</time></trkpt><trkpt lat="44.036118855461844" lon="7.949205682325977"><ele>447.0</ele><time>2026-05-03T13:37:33.999Z</time></trkpt><trkpt lat="44.036032664328715" lon="7.949094643018768"><ele>445.5</ele><time>2026-05-03T13:37:34.999Z</time></trkpt><trkpt lat="44.0359567068067" lon="7.94897803826015"><ele>444.0</ele><time>2026-05-03T13:37:35.999Z</time></trkpt><trkpt lat="44.03587433125477" lon="7.9488532499398525"><ele>442.5</ele><time>2026-05-03T13:37:36.999Z</time></trkpt><trkpt lat="44.03580172919333" lon="7.948702633018789"><ele>441.0</ele><time>2026-05-03T13:37:37.999Z</time></trkpt><trkpt lat="44.035750163513" lon="7.948567128680352"><ele>441.0</ele><time>2026-05-03T13:37:38.999Z</time></trkpt><trkpt lat="44.035719549136346" lon="7.9484453447139165"><ele>441.0</ele><time>2026-05-03T13:37:39.999Z</time></trkpt><trkpt lat="44.03571523628821" lon="7.948300805413087"><ele>441.0</ele><time>2026-05-03T13:37:40.999Z</time></trkpt><trkpt lat="44.035715208897706" lon="7.9481356043996945"><ele>441.0</ele><time>2026-05-03T13:37:41.999Z</time></trkpt><trkpt lat="44.03570943528463" lon="7.948007545842342"><ele>441.0</ele><time>2026-05-03T13:37:42.999Z</time></trkpt><trkpt lat="44.035627507756715" lon="7.947917956935012"><ele>434.6</ele><time>2026-05-03T13:37:44.999Z</time></trkpt><trkpt lat="44.03555271997312" lon="7.947954388805512"><ele>428.20000000000005</ele><time>2026-05-03T13:37:45.999Z</time></trkpt><trkpt lat="44.03543782423078" lon="7.947984553254538"><ele>421.79999999999995</ele><time>2026-05-03T13:37:46.999Z</time></trkpt><trkpt lat="44.035317259324955" lon="7.947945947651546"><ele>415.4</ele><time>2026-05-03T13:37:47.999Z</time></trkpt><trkpt lat="44.03524304442901" lon="7.947890003610448"><ele>409.0</ele><time>2026-05-03T13:37:48.999Z</time></trkpt><trkpt lat="44.03515642663239" lon="7.94794145376892"><ele>409.0</ele><time>2026-05-03T13:37:50.999Z</time></trkpt><trkpt lat="44.035129065482316" lon="7.948031992189962"><ele>409.0</ele><time>2026-05-03T13:37:52Z</time></trkpt><trkpt lat="44.03509305719006" lon="7.948168392700428"><ele>409.0</ele><time>2026-05-03T13:37:53Z</time></trkpt><trkpt lat="44.035013984154645" lon="7.948269170208028"><ele>409.0</ele><time>2026-05-03T13:37:54Z</time></trkpt><trkpt lat="44.03491525143971" lon="7.948365850507072"><ele>409.0</ele><time>2026-05-03T13:37:55Z</time></trkpt><trkpt lat="44.03485194166502" lon="7.948467816323393"><ele>415.6</ele><time>2026-05-03T13:37:56Z</time></trkpt><trkpt lat="44.034800656965984" lon="7.948590793054358"><ele>422.2</ele><time>2026-05-03T13:37:57Z</time></trkpt><trkpt lat="44.03474212361091" lon="7.9486906512060695"><ele>428.80000000000007</ele><time>2026-05-03T13:37:58Z</time></trkpt><trkpt lat="44.03464665882469" lon="7.948743188178498"><ele>435.40000000000003</ele><time>2026-05-03T13:37:59Z</time></trkpt><trkpt lat="44.03452851203169" lon="7.94878957988747"><ele>442.0</ele><time>2026-05-03T13:38:00Z</time></trkpt><trkpt lat="44.03444707961681" lon="7.948846884343489"><ele>442.00000000000006</ele><time>2026-05-03T13:38:01Z</time></trkpt><trkpt lat="44.034368166901764" lon="7.948843969081023"><ele>442.0</ele><time>2026-05-03T13:38:02Z</time></trkpt><trkpt lat="44.03429789742803" lon="7.948786906845789"><ele>442.0</ele><time>2026-05-03T13:38:03Z</time></trkpt><trkpt lat="44.03425405491835" lon="7.94868762102943"><ele>442.0</ele><time>2026-05-03T13:38:04Z</time></trkpt><trkpt lat="44.034200872563396" lon="7.948609245147981"><ele>442.00000000000006</ele><time>2026-05-03T13:38:05Z</time></trkpt><trkpt lat="44.03413208769455" lon="7.948568079404635"><ele>442.0</ele><time>2026-05-03T13:38:06Z</time></trkpt><trkpt lat="44.034031786832315" lon="7.948621658978785"><ele>444.1666666666667</ele><time>2026-05-03T13:38:08Z</time></trkpt><trkpt lat="44.03397498949235" lon="7.948672877764354"><ele>446.33333333333337</ele><time>2026-05-03T13:38:09Z</time></trkpt><trkpt lat="44.03390136496233" lon="7.948670235765438"><ele>448.5</ele><time>2026-05-03T13:38:10Z</time></trkpt><trkpt lat="44.03381213766963" lon="7.948620533990427"><ele>450.66666666666663</ele><time>2026-05-03T13:38:11Z</time></trkpt><trkpt lat="44.033727740172395" lon="7.948545145585985"><ele>452.8333333333333</ele><time>2026-05-03T13:38:12Z</time></trkpt><trkpt lat="44.03363831280324" lon="7.948469196180088"><ele>455.0</ele><time>2026-05-03T13:38:13Z</time></trkpt><trkpt lat="44.03355538084938" lon="7.948395545677114"><ele>449.2</ele><time>2026-05-03T13:38:14Z</time></trkpt><trkpt lat="44.03346661399035" lon="7.9483033550958835"><ele>443.4</ele><time>2026-05-03T13:38:15Z</time></trkpt><trkpt lat="44.03337694472793" lon="7.948191851103892"><ele>437.6</ele><time>2026-05-03T13:38:16Z</time></trkpt><trkpt lat="44.03330473333991" lon="7.948079888184726"><ele>431.8</ele><time>2026-05-03T13:38:17Z</time></trkpt><trkpt lat="44.033250159985194" lon="7.94800940821307"><ele>426.0</ele><time>2026-05-03T13:38:18Z</time></trkpt><trkpt lat="44.03318299994313" lon="7.947978593021501"><ele>421.0</ele><time>2026-05-03T13:38:19Z</time></trkpt><trkpt lat="44.033112942872414" lon="7.947995239659191"><ele>416.0</ele><time>2026-05-03T13:38:20Z</time></trkpt><trkpt lat="44.03304656497807" lon="7.9480500925370245"><ele>411.0</ele><time>2026-05-03T13:38:21Z</time></trkpt><trkpt lat="44.032951999189955" lon="7.9481564124585455"><ele>406.0</ele><time>2026-05-03T13:38:22Z</time></trkpt><trkpt lat="44.03288651596298" lon="7.948257232137119"><ele>401.0</ele><time>2026-05-03T13:38:23Z</time></trkpt><trkpt lat="44.03283056528462" lon="7.948342791737113"><ele>404.66666666666663</ele><time>2026-05-03T13:38:24Z</time></trkpt><trkpt lat="44.03278539973624" lon="7.948466012802793"><ele>408.3333333333333</ele><time>2026-05-03T13:38:25Z</time></trkpt><trkpt lat="44.032760256451866" lon="7.948594656109485"><ele>412.0</ele><time>2026-05-03T13:38:26Z</time></trkpt><trkpt lat="44.03275939721037" lon="7.948718102550021"><ele>415.66666666666663</ele><time>2026-05-03T13:38:27Z</time></trkpt><trkpt lat="44.03275284039311" lon="7.948841175434127"><ele>419.3333333333333</ele><time>2026-05-03T13:38:28Z</time></trkpt><trkpt lat="44.03274559644417" lon="7.9489352859742946"><ele>423.0</ele><time>2026-05-03T13:38:29Z</time></trkpt><trkpt lat="44.03270717276192" lon="7.949018524305614"><ele>423.0</ele><time>2026-05-03T13:38:30Z</time></trkpt><trkpt lat="44.03263305826342" lon="7.949088407002136"><ele>423.0</ele><time>2026-05-03T13:38:31Z</time></trkpt><trkpt lat="44.03250714401958" lon="7.949123259424678"><ele>423.0</ele><time>2026-05-03T13:38:32Z</time></trkpt><trkpt lat="44.032392152394365" lon="7.949179327348147"><ele>423.0</ele><time>2026-05-03T13:38:33Z</time></trkpt><trkpt lat="44.03229344290658" lon="7.9492722614307345"><ele>426.6666666666667</ele><time>2026-05-03T13:38:34Z</time></trkpt><trkpt lat="44.03222101528806" lon="7.949373660282253"><ele>430.33333333333337</ele><time>2026-05-03T13:38:35Z</time></trkpt><trkpt lat="44.032160129488894" lon="7.9494273085274845"><ele>434.0</ele><time>2026-05-03T13:38:36Z</time></trkpt><trkpt lat="44.03208032727159" lon="7.9494746590930525"><ele>437.6666666666667</ele><time>2026-05-03T13:38:37Z</time></trkpt><trkpt lat="44.0320059876171" lon="7.949575455208645"><ele>441.33333333333337</ele><time>2026-05-03T13:38:38Z</time></trkpt><trkpt lat="44.031948139070224" lon="7.9496528033805625"><ele>445.0</ele><time>2026-05-03T13:38:39Z</time></trkpt><trkpt lat="44.03188700558965" lon="7.949675350284157"><ele>445.00000000000006</ele><time>2026-05-03T13:38:40Z</time></trkpt><trkpt lat="44.03179787030198" lon="7.9496664665472725"><ele>445.0</ele><time>2026-05-03T13:38:41Z</time></trkpt><trkpt lat="44.0317356307064" lon="7.949642433776072"><ele>445.0</ele><time>2026-05-03T13:38:42Z</time></trkpt><trkpt lat="44.031683451716994" lon="7.9495789729878155"><ele>445.0</ele><time>2026-05-03T13:38:43Z</time></trkpt><trkpt lat="44.031629126147756" lon="7.94946311968268"><ele>445.00000000000006</ele><time>2026-05-03T13:38:44Z</time></trkpt><trkpt lat="44.03157747981754" lon="7.949329246496955"><ele>445.0</ele><time>2026-05-03T13:38:45Z</time></trkpt><trkpt lat="44.031540637282276" lon="7.949206787510568"><ele>445.2</ele><time>2026-05-03T13:38:46Z</time></trkpt><trkpt lat="44.03148312613149" lon="7.94909505026186"><ele>445.4</ele><time>2026-05-03T13:38:47Z</time></trkpt><trkpt lat="44.03145088434436" lon="7.949003536678449"><ele>445.6</ele><time>2026-05-03T13:38:48Z</time></trkpt><trkpt lat="44.03141185607886" lon="7.94890099895635"><ele>445.8</ele><time>2026-05-03T13:38:49Z</time></trkpt><trkpt lat="44.03133751241543" lon="7.948797721693561"><ele>446.0</ele><time>2026-05-03T13:38:51Z</time></trkpt><trkpt lat="44.03127431125206" lon="7.948710358795095"><ele>445.99999999999994</ele><time>2026-05-03T13:38:52Z</time></trkpt><trkpt lat="44.031216405381116" lon="7.948646606584569"><ele>446.0</ele><time>2026-05-03T13:38:52.999Z</time></trkpt><trkpt lat="44.03114129901291" lon="7.948635022073339"><ele>446.0</ele><time>2026-05-03T13:38:53.999Z</time></trkpt><trkpt lat="44.031064194897404" lon="7.948647284845096"><ele>446.0</ele><time>2026-05-03T13:38:54.999Z</time></trkpt><trkpt lat="44.03098449620086" lon="7.948765090928631"><ele>445.99999999999994</ele><time>2026-05-03T13:38:56.999Z</time></trkpt><trkpt lat="44.03091477354276" lon="7.948670653064295"><ele>446.0</ele><time>2026-05-03T13:38:58.999Z</time></trkpt><trkpt lat="44.03087435878651" lon="7.9485376037042865"><ele>446.0</ele><time>2026-05-03T13:38:59.999Z</time></trkpt><trkpt lat="44.030826168616954" lon="7.948415161561628"><ele>446.0</ele><time>2026-05-03T13:39:00.999Z</time></trkpt><trkpt lat="44.030789797408325" lon="7.948249964969339"><ele>446.0</ele><time>2026-05-03T13:39:01.999Z</time></trkpt><trkpt lat="44.03077645527219" lon="7.948120290570439"><ele>446.0</ele><time>2026-05-03T13:39:02.999Z</time></trkpt><trkpt lat="44.03075742760617" lon="7.948034137560217"><ele>446.0</ele><time>2026-05-03T13:39:03.999Z</time></trkpt><trkpt lat="44.030700297596674" lon="7.94796131596857"><ele>443.25</ele><time>2026-05-03T13:39:04.999Z</time></trkpt><trkpt lat="44.030587533897496" lon="7.947947430590126"><ele>440.5</ele><time>2026-05-03T13:39:06.999Z</time></trkpt><trkpt lat="44.03056039920772" lon="7.948039664343559"><ele>437.75</ele><time>2026-05-03T13:39:08.999Z</time></trkpt><trkpt lat="44.030561887255026" lon="7.948156041641269"><ele>435.0</ele><time>2026-05-03T13:39:11.999Z</time></trkpt><trkpt lat="44.030518028343636" lon="7.948434902036613"><ele>435.0</ele><time>2026-05-03T13:39:13.999Z</time></trkpt><trkpt lat="44.03052698256261" lon="7.948558414856225"><ele>435.0</ele><time>2026-05-03T13:39:14.999Z</time></trkpt><trkpt lat="44.03050965027426" lon="7.948673024485455"><ele>435.0</ele><time>2026-05-03T13:39:15.999Z</time></trkpt><trkpt lat="44.03050271733224" lon="7.948774050972547"><ele>435.0</ele><time>2026-05-03T13:39:16.999Z</time></trkpt><trkpt lat="44.03055577931257" lon="7.9488329102142465"><ele>435.0</ele><time>2026-05-03T13:39:17.999Z</time></trkpt><trkpt lat="44.03058016830944" lon="7.948945399464001"><ele>435.0</ele><time>2026-05-03T13:39:18.999Z</time></trkpt><trkpt lat="44.03058818233074" lon="7.949045774237726"><ele>435.0</ele><time>2026-05-03T13:39:19.999Z</time></trkpt><trkpt lat="44.03064379169512" lon="7.949114486156661"><ele>435.0</ele><time>2026-05-03T13:39:20.999Z</time></trkpt><trkpt lat="44.03069963793658" lon="7.94916679348704"><ele>435.0</ele><time>2026-05-03T13:39:21.999Z</time></trkpt><trkpt lat="44.03072997899916" lon="7.949258023781664"><ele>435.0</ele><time>2026-05-03T13:39:22.999Z</time></trkpt><trkpt lat="44.03081930958708" lon="7.949364945440104"><ele>435.0</ele><time>2026-05-03T13:39:24.999Z</time></trkpt><trkpt lat="44.030853292741476" lon="7.949511273939823"><ele>435.0</ele><time>2026-05-03T13:39:26.999Z</time></trkpt><trkpt lat="44.03084481715721" lon="7.949599621943156"><ele>437.8333333333333</ele><time>2026-05-03T13:39:27.999Z</time></trkpt><trkpt lat="44.030866515026815" lon="7.949694833757608"><ele>440.66666666666663</ele><time>2026-05-03T13:39:28.999Z</time></trkpt><trkpt lat="44.030913614544545" lon="7.949775334748851"><ele>443.5</ele><time>2026-05-03T13:39:29.999Z</time></trkpt><trkpt lat="44.03092263066953" lon="7.9498929775737865"><ele>446.3333333333333</ele><time>2026-05-03T13:39:31.999Z</time></trkpt><trkpt lat="44.03086508743776" lon="7.949813637778607"><ele>449.16666666666663</ele><time>2026-05-03T13:39:33.999Z</time></trkpt><trkpt lat="44.03078567408142" lon="7.949668838378677"><ele>452.0</ele><time>2026-05-03T13:39:35.999Z</time></trkpt><trkpt lat="44.030726355474854" lon="7.949584541094481"><ele>451.99999999999994</ele><time>2026-05-03T13:39:36.999Z</time></trkpt><trkpt lat="44.030659579885686" lon="7.949672100108256"><ele>452.0</ele><time>2026-05-03T13:39:38.999Z</time></trkpt><trkpt lat="44.030656604049334" lon="7.949771936613399"><ele>452.0</ele><time>2026-05-03T13:39:39.999Z</time></trkpt><trkpt lat="44.030668092128444" lon="7.94989752430091"><ele>452.0</ele><time>2026-05-03T13:39:40.999Z</time></trkpt><trkpt lat="44.03065295086163" lon="7.950027992360348"><ele>451.99999999999994</ele><time>2026-05-03T13:39:41.999Z</time></trkpt><trkpt lat="44.03064023418514" lon="7.950152498933989"><ele>452.0</ele><time>2026-05-03T13:39:42.999Z</time></trkpt><trkpt lat="44.03061276140271" lon="7.950266174250423"><ele>455.3333333333333</ele><time>2026-05-03T13:39:44.999Z</time></trkpt><trkpt lat="44.03054030252322" lon="7.9502794028610095"><ele>458.66666666666663</ele><time>2026-05-03T13:39:45.999Z</time></trkpt><trkpt lat="44.03048294743181" lon="7.950342057739986"><ele>462.0</ele><time>2026-05-03T13:39:46.999Z</time></trkpt><trkpt lat="44.03041234306849" lon="7.950445018900412"><ele>465.33333333333337</ele><time>2026-05-03T13:39:47.999Z</time></trkpt><trkpt lat="44.030311517713464" lon="7.950526696170001"><ele>468.6666666666667</ele><time>2026-05-03T13:39:48.999Z</time></trkpt><trkpt lat="44.03026104131701" lon="7.950597687504551"><ele>472.0</ele><time>2026-05-03T13:39:49.999Z</time></trkpt><trkpt lat="44.03024011510219" lon="7.950760462197218"><ele>476.20000000000005</ele><time>2026-05-03T13:39:51.999Z</time></trkpt><trkpt lat="44.03022837092843" lon="7.9509175378837975"><ele>480.40000000000003</ele><time>2026-05-03T13:39:52.999Z</time></trkpt><trkpt lat="44.030201771095285" lon="7.951080084692463"><ele>484.59999999999997</ele><time>2026-05-03T13:39:53.999Z</time></trkpt><trkpt lat="44.03018247073322" lon="7.951204130241951"><ele>488.79999999999995</ele><time>2026-05-03T13:39:54.999Z</time></trkpt><trkpt lat="44.03014404389588" lon="7.95130445784228"><ele>493.0</ele><time>2026-05-03T13:39:55.999Z</time></trkpt><trkpt lat="44.0300602416155" lon="7.951397923884113"><ele>491.5</ele><time>2026-05-03T13:39:56.999Z</time></trkpt><trkpt lat="44.02996449380745" lon="7.951510086035194"><ele>490.0</ele><time>2026-05-03T13:39:58Z</time></trkpt><trkpt lat="44.02985930525615" lon="7.951638316420746"><ele>488.5</ele><time>2026-05-03T13:39:59Z</time></trkpt><trkpt lat="44.029775695293" lon="7.951759749211015"><ele>487.0</ele><time>2026-05-03T13:40:00Z</time></trkpt><trkpt lat="44.02972152790254" lon="7.951851797942273"><ele>493.6</ele><time>2026-05-03T13:40:01Z</time></trkpt><trkpt lat="44.029639885273454" lon="7.951872955591938"><ele>500.20000000000005</ele><time>2026-05-03T13:40:03Z</time></trkpt><trkpt lat="44.02958216805687" lon="7.951794098530538"><ele>506.8</ele><time>2026-05-03T13:40:04Z</time></trkpt><trkpt lat="44.02943477710471" lon="7.951754138908382"><ele>513.4</ele><time>2026-05-03T13:40:06Z</time></trkpt><trkpt lat="44.029323794932985" lon="7.951785851219908"><ele>520.0</ele><time>2026-05-03T13:40:07Z</time></trkpt><trkpt lat="44.02924271756802" lon="7.95180159319038"><ele>520.0</ele><time>2026-05-03T13:40:09Z</time></trkpt><trkpt lat="44.02932673854773" lon="7.951846672112837"><ele>520.0</ele><time>2026-05-03T13:40:13Z</time></trkpt><trkpt lat="44.02943070993437" lon="7.951827239875169"><ele>520.0</ele><time>2026-05-03T13:40:15Z</time></trkpt><trkpt lat="44.02953697194903" lon="7.951958308393632"><ele>520.0</ele><time>2026-05-03T13:40:17Z</time></trkpt><trkpt lat="44.02958792816987" lon="7.9520299744112135"><ele>520.0</ele><time>2026-05-03T13:40:18Z</time></trkpt><trkpt lat="44.029534760134176" lon="7.952081763870905"><ele>520.0</ele><time>2026-05-03T13:40:25Z</time></trkpt><trkpt lat="44.02929933533004" lon="7.952136407746968"><ele>520.0</ele><time>2026-05-03T13:40:28Z</time></trkpt><trkpt lat="44.0291189913453" lon="7.9522255179194685"><ele>520.0</ele><time>2026-05-03T13:40:29Z</time></trkpt><trkpt lat="44.02898561923724" lon="7.952222535848363"><ele>519.6</ele><time>2026-05-03T13:40:30Z</time></trkpt><trkpt lat="44.028863761260084" lon="7.952206171731302"><ele>519.2</ele><time>2026-05-03T13:40:31Z</time></trkpt><trkpt lat="44.02876735961491" lon="7.952184289764602"><ele>518.8</ele><time>2026-05-03T13:40:32Z</time></trkpt><trkpt lat="44.028701824973915" lon="7.952178351757508"><ele>518.4</ele><time>2026-05-03T13:40:33Z</time></trkpt><trkpt lat="44.028711693980966" lon="7.952265108702682"><ele>518.0</ele><time>2026-05-03T13:40:34Z</time></trkpt><trkpt lat="44.02870890881441" lon="7.952409452515341"><ele>518.0</ele><time>2026-05-03T13:40:36Z</time></trkpt><trkpt lat="44.028751293227" lon="7.952332608180528"><ele>518.0</ele><time>2026-05-03T13:41:02.999Z</time></trkpt><trkpt lat="44.02881335233481" lon="7.9523130581877695"><ele>518.0</ele><time>2026-05-03T13:41:03.999Z</time></trkpt><trkpt lat="44.02887622632134" lon="7.952332941282258"><ele>518.0</ele><time>2026-05-03T13:41:04.999Z</time></trkpt><trkpt lat="44.02896452664423" lon="7.952374697122877"><ele>518.0</ele><time>2026-05-03T13:41:05.999Z</time></trkpt><trkpt lat="44.02904040586204" lon="7.952447898165062"><ele>518.0</ele><time>2026-05-03T13:41:06.999Z</time></trkpt><trkpt lat="44.029129709181994" lon="7.9524852685378935"><ele>518.4</ele><time>2026-05-03T13:41:07.999Z</time></trkpt><trkpt lat="44.029223724302746" lon="7.952519601966981"><ele>518.8</ele><time>2026-05-03T13:41:08.999Z</time></trkpt><trkpt lat="44.02928830478048" lon="7.952582165156009"><ele>519.2</ele><time>2026-05-03T13:41:09.999Z</time></trkpt><trkpt lat="44.02934854085276" lon="7.952649391211557"><ele>519.6</ele><time>2026-05-03T13:41:10.999Z</time></trkpt><trkpt lat="44.029437559852546" lon="7.952695573548874"><ele>520.0</ele><time>2026-05-03T13:41:11.999Z</time></trkpt><trkpt lat="44.02955278270873" lon="7.952734632869703"><ele>527.2</ele><time>2026-05-03T13:41:12.999Z</time></trkpt><trkpt lat="44.029670927995305" lon="7.9527813076585145"><ele>534.4</ele><time>2026-05-03T13:41:13.999Z</time></trkpt><trkpt lat="44.02979869168365" lon="7.952835853758813"><ele>541.6</ele><time>2026-05-03T13:41:14.999Z</time></trkpt><trkpt lat="44.02990137187395" lon="7.952894069188792"><ele>548.8</ele><time>2026-05-03T13:41:15.999Z</time></trkpt><trkpt lat="44.02997757575253" lon="7.952912314279813"><ele>556.0</ele><time>2026-05-03T13:41:16.999Z</time></trkpt><trkpt lat="44.03004535831805" lon="7.952873087870153"><ele>556.0</ele><time>2026-05-03T13:41:17.999Z</time></trkpt><trkpt lat="44.03011285452262" lon="7.952805062215653"><ele>556.0</ele><time>2026-05-03T13:41:18.999Z</time></trkpt><trkpt lat="44.03018381523511" lon="7.952714099221148"><ele>556.0</ele><time>2026-05-03T13:41:19.999Z</time></trkpt><trkpt lat="44.03024487734122" lon="7.952631985298711"><ele>556.0</ele><time>2026-05-03T13:41:20.999Z</time></trkpt><trkpt lat="44.030303929998986" lon="7.952698723858925"><ele>556.0</ele><time>2026-05-03T13:41:23.999Z</time></trkpt><trkpt lat="44.03026511555078" lon="7.9527710969373695"><ele>556.0</ele><time>2026-05-03T13:41:24.999Z</time></trkpt><trkpt lat="44.03019356618919" lon="7.952865446771221"><ele>556.0</ele><time>2026-05-03T13:41:25.999Z</time></trkpt><trkpt lat="44.03013206108849" lon="7.952970887351628"><ele>556.0</ele><time>2026-05-03T13:41:26.999Z</time></trkpt><trkpt lat="44.03008094973698" lon="7.953047318987712"><ele>556.0</ele><time>2026-05-03T13:41:27.999Z</time></trkpt><trkpt lat="44.03001017439598" lon="7.9531124633395205"><ele>556.0</ele><time>2026-05-03T13:41:28.999Z</time></trkpt><trkpt lat="44.02992471256207" lon="7.953142582489004"><ele>556.0</ele><time>2026-05-03T13:41:29.999Z</time></trkpt><trkpt lat="44.029837408079864" lon="7.953169102565236"><ele>556.0</ele><time>2026-05-03T13:41:30.999Z</time></trkpt><trkpt lat="44.02975014569974" lon="7.953160164565656"><ele>556.6666666666667</ele><time>2026-05-03T13:41:31.999Z</time></trkpt><trkpt lat="44.02966748722597" lon="7.953129325801206"><ele>557.3333333333334</ele><time>2026-05-03T13:41:32.999Z</time></trkpt><trkpt lat="44.029577789077734" lon="7.953143003951956"><ele>558.0</ele><time>2026-05-03T13:41:33.999Z</time></trkpt><trkpt lat="44.02948499444973" lon="7.953173220394385"><ele>558.6666666666666</ele><time>2026-05-03T13:41:34.999Z</time></trkpt><trkpt lat="44.02940026358874" lon="7.953160933683656"><ele>559.3333333333333</ele><time>2026-05-03T13:41:35.999Z</time></trkpt><trkpt lat="44.02932952290135" lon="7.953132542157888"><ele>560.0</ele><time>2026-05-03T13:41:36.999Z</time></trkpt><trkpt lat="44.029258531131404" lon="7.953133927364235"><ele>560.0</ele><time>2026-05-03T13:41:37.999Z</time></trkpt><trkpt lat="44.02916755456799" lon="7.953153067521278"><ele>560.0</ele><time>2026-05-03T13:41:38.999Z</time></trkpt><trkpt lat="44.02906337948353" lon="7.953155955706056"><ele>560.0</ele><time>2026-05-03T13:41:39.999Z</time></trkpt><trkpt lat="44.028977921727524" lon="7.953145400406447"><ele>560.0</ele><time>2026-05-03T13:41:40.999Z</time></trkpt><trkpt lat="44.02889303543203" lon="7.953205111744956"><ele>560.0</ele><time>2026-05-03T13:41:42.999Z</time></trkpt><trkpt lat="44.0288443782437" lon="7.953276116721957"><ele>560.0</ele><time>2026-05-03T13:41:43.999Z</time></trkpt><trkpt lat="44.02878944335742" lon="7.953356312241426"><ele>566.8</ele><time>2026-05-03T13:41:44.999Z</time></trkpt><trkpt lat="44.028714239905554" lon="7.953401763905051"><ele>573.6</ele><time>2026-05-03T13:41:45.999Z</time></trkpt><trkpt lat="44.028612938533236" lon="7.9534308001768315"><ele>580.4</ele><time>2026-05-03T13:41:46.999Z</time></trkpt><trkpt lat="44.02851579371434" lon="7.95348441085898"><ele>587.2</ele><time>2026-05-03T13:41:47.999Z</time></trkpt><trkpt lat="44.02841028053513" lon="7.953556156773663"><ele>594.0</ele><time>2026-05-03T13:41:48.999Z</time></trkpt><trkpt lat="44.02830980803927" lon="7.953597900127422"><ele>591.75</ele><time>2026-05-03T13:41:49.999Z</time></trkpt><trkpt lat="44.02819205883776" lon="7.953648557678392"><ele>589.5</ele><time>2026-05-03T13:41:50.999Z</time></trkpt><trkpt lat="44.02807965024303" lon="7.953693738903383"><ele>587.25</ele><time>2026-05-03T13:41:51.999Z</time></trkpt><trkpt lat="44.02797649310197" lon="7.9537634397077985"><ele>585.0</ele><time>2026-05-03T13:41:52.999Z</time></trkpt><trkpt lat="44.02788414293876" lon="7.953843900479879"><ele>585.0</ele><time>2026-05-03T13:41:53.999Z</time></trkpt><trkpt lat="44.02777797292783" lon="7.953916235946947"><ele>585.0</ele><time>2026-05-03T13:41:54.999Z</time></trkpt><trkpt lat="44.0276574133843" lon="7.95395000954706"><ele>585.0</ele><time>2026-05-03T13:41:55.999Z</time></trkpt><trkpt lat="44.02757357884834" lon="7.953981151665721"><ele>585.0</ele><time>2026-05-03T13:41:56.999Z</time></trkpt><trkpt lat="44.02751799802207" lon="7.954037927256729"><ele>585.0</ele><time>2026-05-03T13:41:57.999Z</time></trkpt><trkpt lat="44.02742927779757" lon="7.954123214774166"><ele>585.75</ele><time>2026-05-03T13:41:58.999Z</time></trkpt><trkpt lat="44.02732016285813" lon="7.954178038777413"><ele>586.5</ele><time>2026-05-03T13:41:59.999Z</time></trkpt><trkpt lat="44.027190640394096" lon="7.954207169519743"><ele>587.25</ele><time>2026-05-03T13:42:00.999Z</time></trkpt><trkpt lat="44.02705996699568" lon="7.954222608499943"><ele>588.0</ele><time>2026-05-03T13:42:01.999Z</time></trkpt><trkpt lat="44.02696413320037" lon="7.9542415161669995"><ele>588.0</ele><time>2026-05-03T13:42:02.999Z</time></trkpt><trkpt lat="44.026878249953526" lon="7.954228926103507"><ele>588.0</ele><time>2026-05-03T13:42:04Z</time></trkpt><trkpt lat="44.02679051614826" lon="7.954163788671383"><ele>588.0</ele><time>2026-05-03T13:42:05Z</time></trkpt><trkpt lat="44.026702058388" lon="7.954095592374745"><ele>588.0</ele><time>2026-05-03T13:42:06Z</time></trkpt><trkpt lat="44.02660599960929" lon="7.95404535169151"><ele>588.0</ele><time>2026-05-03T13:42:07Z</time></trkpt><trkpt lat="44.02650957125428" lon="7.9539973111691795"><ele>588.5</ele><time>2026-05-03T13:42:08Z</time></trkpt><trkpt lat="44.02642607909459" lon="7.953944130471735"><ele>589.0</ele><time>2026-05-03T13:42:09Z</time></trkpt><trkpt lat="44.026369482600536" lon="7.9538752344128545"><ele>589.5</ele><time>2026-05-03T13:42:10Z</time></trkpt><trkpt lat="44.02630670547315" lon="7.953835378288425"><ele>590.0</ele><time>2026-05-03T13:42:12Z</time></trkpt><trkpt lat="44.02631318705948" lon="7.953945693104671"><ele>590.5</ele><time>2026-05-03T13:42:14Z</time></trkpt><trkpt lat="44.026377799479164" lon="7.953960002389034"><ele>591.0</ele><time>2026-05-03T13:42:15Z</time></trkpt><trkpt lat="44.02644830004697" lon="7.954022541567225"><ele>591.0</ele><time>2026-05-03T13:42:16Z</time></trkpt><trkpt lat="44.026510383146494" lon="7.954156551932546"><ele>591.0</ele><time>2026-05-03T13:42:18Z</time></trkpt><trkpt lat="44.026574320810035" lon="7.954297929191148"><ele>591.0</ele><time>2026-05-03T13:42:19Z</time></trkpt><trkpt lat="44.026649858523754" lon="7.954410313393202"><ele>591.0</ele><time>2026-05-03T13:42:20Z</time></trkpt><trkpt lat="44.02670324407178" lon="7.954475993608014"><ele>591.0</ele><time>2026-05-03T13:42:21Z</time></trkpt><trkpt lat="44.02665610010657" lon="7.954548673716897"><ele>589.3333333333334</ele><time>2026-05-03T13:42:24Z</time></trkpt><trkpt lat="44.026607949481935" lon="7.954454063216831"><ele>587.6666666666666</ele><time>2026-05-03T13:42:25Z</time></trkpt><trkpt lat="44.026529114862306" lon="7.954394560140778"><ele>586.0</ele><time>2026-05-03T13:42:26Z</time></trkpt><trkpt lat="44.02644867996184" lon="7.954372430350448"><ele>584.3333333333333</ele><time>2026-05-03T13:42:27Z</time></trkpt><trkpt lat="44.026390811743944" lon="7.954419130629902"><ele>582.6666666666666</ele><time>2026-05-03T13:42:29Z</time></trkpt><trkpt lat="44.02643538662043" lon="7.954535415299663"><ele>581.0</ele><time>2026-05-03T13:42:31Z</time></trkpt><trkpt lat="44.026498860647926" lon="7.954623734493866"><ele>581.0</ele><time>2026-05-03T13:42:33Z</time></trkpt><trkpt lat="44.02654805536598" lon="7.954724280349222"><ele>581.0</ele><time>2026-05-03T13:42:35Z</time></trkpt><trkpt lat="44.02657991835062" lon="7.9548703041746185"><ele>581.0</ele><time>2026-05-03T13:42:37Z</time></trkpt><trkpt lat="44.02661697050132" lon="7.95494812677359"><ele>581.0</ele><time>2026-05-03T13:42:38Z</time></trkpt><trkpt lat="44.026664706771975" lon="7.955015158606443"><ele>581.0</ele><time>2026-05-03T13:42:39Z</time></trkpt><trkpt lat="44.02663596496187" lon="7.955113870617629"><ele>581.0</ele><time>2026-05-03T13:42:40Z</time></trkpt><trkpt lat="44.0266646431683" lon="7.955242627193703"><ele>586.4</ele><time>2026-05-03T13:42:42Z</time></trkpt><trkpt lat="44.026684662105325" lon="7.955329646214556"><ele>591.8</ele><time>2026-05-03T13:42:43Z</time></trkpt><trkpt lat="44.02672365116428" lon="7.955470788978408"><ele>597.1999999999999</ele><time>2026-05-03T13:42:45Z</time></trkpt><trkpt lat="44.026774317773075" lon="7.955622194115411"><ele>602.6</ele><time>2026-05-03T13:42:47Z</time></trkpt><trkpt lat="44.02682576114104" lon="7.955768118880546"><ele>608.0</ele><time>2026-05-03T13:42:49Z</time></trkpt><trkpt lat="44.02686936724574" lon="7.955900328856347"><ele>608.0</ele><time>2026-05-03T13:42:51Z</time></trkpt><trkpt lat="44.026901895795035" lon="7.95599876443754"><ele>608.0</ele><time>2026-05-03T13:42:53Z</time></trkpt><trkpt lat="44.02694684155389" lon="7.956114459874746"><ele>608.0</ele><time>2026-05-03T13:42:55Z</time></trkpt><trkpt lat="44.027020934477875" lon="7.956218916512629"><ele>608.0</ele><time>2026-05-03T13:42:57Z</time></trkpt><trkpt lat="44.027048080930676" lon="7.956325032760939"><ele>608.0</ele><time>2026-05-03T13:42:57.999Z</time></trkpt><trkpt lat="44.02705984783251" lon="7.956451815689768"><ele>608.0</ele><time>2026-05-03T13:42:58.999Z</time></trkpt><trkpt lat="44.027068400641184" lon="7.956550491692229"><ele>608.0</ele><time>2026-05-03T13:42:59.999Z</time></trkpt><trkpt lat="44.02710353191219" lon="7.956698182570567"><ele>608.0</ele><time>2026-05-03T13:43:01.999Z</time></trkpt><trkpt lat="44.02710349561569" lon="7.956803370740128"><ele>608.0</ele><time>2026-05-03T13:43:03.999Z</time></trkpt><trkpt lat="44.027115916894346" lon="7.95692582273597"><ele>608.0</ele><time>2026-05-03T13:43:05.999Z</time></trkpt><trkpt lat="44.027103483017505" lon="7.957038576691429"><ele>608.0</ele><time>2026-05-03T13:43:27.999Z</time></trkpt><trkpt lat="44.027128255001784" lon="7.95695275840585"><ele>609.8333333333333</ele><time>2026-05-03T13:43:39.999Z</time></trkpt><trkpt lat="44.02720391255086" lon="7.956931530059401"><ele>611.6666666666666</ele><time>2026-05-03T13:47:36.999Z</time></trkpt><trkpt lat="44.027264360666734" lon="7.956956760544747"><ele>613.5</ele><time>2026-05-03T13:47:39.999Z</time></trkpt><trkpt lat="44.027272468331105" lon="7.9570442430986565"><ele>615.3333333333334</ele><time>2026-05-03T13:50:41Z</time></trkpt><trkpt lat="44.02721278387579" lon="7.957160572715686"><ele>617.1666666666667</ele><time>2026-05-03T13:50:43Z</time></trkpt><trkpt lat="44.02716810923411" lon="7.95728678823832"><ele>619.0</ele><time>2026-05-03T13:50:45Z</time></trkpt><trkpt lat="44.027119836918786" lon="7.95739145442734"><ele>619.0</ele><time>2026-05-03T13:50:47Z</time></trkpt><trkpt lat="44.02707851768371" lon="7.9574888424265025"><ele>619.0</ele><time>2026-05-03T13:50:49Z</time></trkpt><trkpt lat="44.02707528544727" lon="7.9576087267699425"><ele>619.0</ele><time>2026-05-03T13:50:51Z</time></trkpt><trkpt lat="44.02702570112844" lon="7.9576701819005455"><ele>619.0</ele><time>2026-05-03T13:50:53Z</time></trkpt><trkpt lat="44.02699089732054" lon="7.957774552842423"><ele>619.0</ele><time>2026-05-03T13:50:55Z</time></trkpt><trkpt lat="44.02697881622561" lon="7.9578729655611875"><ele>619.0</ele><time>2026-05-03T13:50:57Z</time></trkpt><trkpt lat="44.02694826000491" lon="7.957981822498657"><ele>621.5</ele><time>2026-05-03T13:50:59Z</time></trkpt><trkpt lat="44.02689777361081" lon="7.958034442836735"><ele>624.0</ele><time>2026-05-03T13:51:01Z</time></trkpt><trkpt lat="44.02687152134908" lon="7.95811482167033"><ele>626.5</ele><time>2026-05-03T13:51:02Z</time></trkpt><trkpt lat="44.02683351367688" lon="7.958191258721996"><ele>629.0</ele><time>2026-05-03T13:51:03Z</time></trkpt><trkpt lat="44.026768434893874" lon="7.958320917114623"><ele>631.5</ele><time>2026-05-03T13:51:05Z</time></trkpt><trkpt lat="44.026715296688195" lon="7.958463983022735"><ele>634.0</ele><time>2026-05-03T13:51:07Z</time></trkpt><trkpt lat="44.0266654784406" lon="7.958615013690063"><ele>630.6</ele><time>2026-05-03T13:51:09Z</time></trkpt><trkpt lat="44.02663477570907" lon="7.958768416511955"><ele>627.2</ele><time>2026-05-03T13:51:11Z</time></trkpt><trkpt lat="44.02654968378527" lon="7.958857423415427"><ele>623.8000000000001</ele><time>2026-05-03T13:51:13Z</time></trkpt><trkpt lat="44.02652865661145" lon="7.958983507251468"><ele>620.4</ele><time>2026-05-03T13:51:14Z</time></trkpt><trkpt lat="44.026516747493275" lon="7.959111384658007"><ele>617.0</ele><time>2026-05-03T13:51:15Z</time></trkpt><trkpt lat="44.02651739574011" lon="7.959263197649644"><ele>617.0</ele><time>2026-05-03T13:51:16Z</time></trkpt><trkpt lat="44.02653320502235" lon="7.959415190056144"><ele>617.0</ele><time>2026-05-03T13:51:17Z</time></trkpt><trkpt lat="44.026551069637975" lon="7.959605981449185"><ele>617.0</ele><time>2026-05-03T13:51:18Z</time></trkpt><trkpt lat="44.02655407436776" lon="7.959793699659393"><ele>617.0</ele><time>2026-05-03T13:51:19Z</time></trkpt><trkpt lat="44.02652697874963" lon="7.959923242969838"><ele>619.6</ele><time>2026-05-03T13:51:20Z</time></trkpt><trkpt lat="44.02648981980447" lon="7.960046809891588"><ele>622.2</ele><time>2026-05-03T13:51:21Z</time></trkpt><trkpt lat="44.02642530348749" lon="7.960165171698756"><ele>624.8</ele><time>2026-05-03T13:51:22Z</time></trkpt><trkpt lat="44.02636261916446" lon="7.9602714110205985"><ele>627.4</ele><time>2026-05-03T13:51:23Z</time></trkpt><trkpt lat="44.026312738913546" lon="7.960375526558749"><ele>630.0</ele><time>2026-05-03T13:51:24Z</time></trkpt><trkpt lat="44.02627072535421" lon="7.96048580613201"><ele>630.0</ele><time>2026-05-03T13:51:25Z</time></trkpt><trkpt lat="44.02622627945923" lon="7.960618070073062"><ele>630.0</ele><time>2026-05-03T13:51:26Z</time></trkpt><trkpt lat="44.02616192884429" lon="7.960760934397063"><ele>630.0</ele><time>2026-05-03T13:51:27Z</time></trkpt><trkpt lat="44.026091559765476" lon="7.960918162461036"><ele>630.0</ele><time>2026-05-03T13:51:27.999Z</time></trkpt><trkpt lat="44.02602396990117" lon="7.961084246845716"><ele>626.25</ele><time>2026-05-03T13:51:28.999Z</time></trkpt><trkpt lat="44.025960370333244" lon="7.961236657751307"><ele>622.5</ele><time>2026-05-03T13:51:29.999Z</time></trkpt><trkpt lat="44.02590406793796" lon="7.961372522850349"><ele>618.75</ele><time>2026-05-03T13:51:30.999Z</time></trkpt><trkpt lat="44.02583864968601" lon="7.961492400314186"><ele>615.0</ele><time>2026-05-03T13:51:31.999Z</time></trkpt><trkpt lat="44.02575085930429" lon="7.961572612931697"><ele>615.0</ele><time>2026-05-03T13:51:32.999Z</time></trkpt><trkpt lat="44.02564077454689" lon="7.9616496201569795"><ele>615.0</ele><time>2026-05-03T13:51:33.999Z</time></trkpt><trkpt lat="44.025535818903435" lon="7.961705114022194"><ele>615.0</ele><time>2026-05-03T13:51:34.999Z</time></trkpt><trkpt lat="44.02544186014764" lon="7.961761038140611"><ele>615.0</ele><time>2026-05-03T13:51:35.999Z</time></trkpt><trkpt lat="44.025364594728046" lon="7.961857687732601"><ele>615.0</ele><time>2026-05-03T13:51:36.999Z</time></trkpt><trkpt lat="44.02529820831056" lon="7.9619890281062755"><ele>617.6</ele><time>2026-05-03T13:51:37.999Z</time></trkpt><trkpt lat="44.02524496487146" lon="7.962128462523822"><ele>620.2</ele><time>2026-05-03T13:51:38.999Z</time></trkpt><trkpt lat="44.02518908642547" lon="7.962259708432995"><ele>622.8</ele><time>2026-05-03T13:51:39.999Z</time></trkpt><trkpt lat="44.025106798149096" lon="7.9623540546635185"><ele>625.4</ele><time>2026-05-03T13:51:40.999Z</time></trkpt><trkpt lat="44.025012160042984" lon="7.962441596255351"><ele>628.0</ele><time>2026-05-03T13:51:41.999Z</time></trkpt><trkpt lat="44.024922805339955" lon="7.962532577895054"><ele>628.0</ele><time>2026-05-03T13:51:42.999Z</time></trkpt><trkpt lat="44.02485236614579" lon="7.9626400757384745"><ele>628.0</ele><time>2026-05-03T13:51:43.999Z</time></trkpt><trkpt lat="44.02476966920553" lon="7.96273146327603"><ele>628.0</ele><time>2026-05-03T13:51:44.999Z</time></trkpt><trkpt lat="44.024672768705386" lon="7.96276821099846"><ele>628.0</ele><time>2026-05-03T13:51:45.999Z</time></trkpt><trkpt lat="44.02458110430988" lon="7.962784920953945"><ele>628.0</ele><time>2026-05-03T13:51:46.999Z</time></trkpt><trkpt lat="44.02450128142825" lon="7.962853431290194"><ele>628.0</ele><time>2026-05-03T13:51:47.999Z</time></trkpt><trkpt lat="44.024458125379915" lon="7.962986861481507"><ele>628.0</ele><time>2026-05-03T13:51:48.999Z</time></trkpt><trkpt lat="44.02442104934567" lon="7.963138610998478"><ele>628.0</ele><time>2026-05-03T13:51:49.999Z</time></trkpt><trkpt lat="44.02438587676451" lon="7.963286279253502"><ele>628.0</ele><time>2026-05-03T13:51:50.999Z</time></trkpt><trkpt lat="44.0243312676354" lon="7.96343166986948"><ele>626.4</ele><time>2026-05-03T13:51:51.999Z</time></trkpt><trkpt lat="44.02431817554936" lon="7.9635969860532105"><ele>624.8</ele><time>2026-05-03T13:51:52.999Z</time></trkpt><trkpt lat="44.02429395021017" lon="7.963745282172279"><ele>623.2</ele><time>2026-05-03T13:51:53.999Z</time></trkpt><trkpt lat="44.024234891266474" lon="7.963864744393488"><ele>621.6</ele><time>2026-05-03T13:51:54.999Z</time></trkpt><trkpt lat="44.02416060746762" lon="7.963961777251229"><ele>620.0</ele><time>2026-05-03T13:51:55.999Z</time></trkpt><trkpt lat="44.024060390266605" lon="7.964027908186865"><ele>620.0</ele><time>2026-05-03T13:51:56.999Z</time></trkpt><trkpt lat="44.02395422276947" lon="7.964107757744298"><ele>620.0</ele><time>2026-05-03T13:51:57.999Z</time></trkpt><trkpt lat="44.02385172590565" lon="7.964164636683905"><ele>620.0</ele><time>2026-05-03T13:51:58.999Z</time></trkpt><trkpt lat="44.02376175592124" lon="7.964222760512799"><ele>620.0</ele><time>2026-05-03T13:51:59.999Z</time></trkpt><trkpt lat="44.023672625551136" lon="7.964300617598874"><ele>620.0</ele><time>2026-05-03T13:52:00.999Z</time></trkpt><trkpt lat="44.02361018234777" lon="7.964431085239197"><ele>623.8</ele><time>2026-05-03T13:52:01.999Z</time></trkpt><trkpt lat="44.02354079972073" lon="7.964535477404957"><ele>627.6</ele><time>2026-05-03T13:52:02.999Z</time></trkpt><trkpt lat="44.02348398231516" lon="7.964633910694293"><ele>631.4</ele><time>2026-05-03T13:52:03.999Z</time></trkpt><trkpt lat="44.02343471091298" lon="7.964719141147642"><ele>635.2</ele><time>2026-05-03T13:52:04.999Z</time></trkpt><trkpt lat="44.02335811704813" lon="7.964846974132514"><ele>639.0</ele><time>2026-05-03T13:52:06.999Z</time></trkpt><trkpt lat="44.02331527713985" lon="7.96495317370114"><ele>644.8</ele><time>2026-05-03T13:52:08.999Z</time></trkpt><trkpt lat="44.02323283874228" lon="7.965080809270425"><ele>650.5999999999999</ele><time>2026-05-03T13:52:10.999Z</time></trkpt><trkpt lat="44.02317290838192" lon="7.965171161814758"><ele>656.4</ele><time>2026-05-03T13:52:11.999Z</time></trkpt><trkpt lat="44.023091625875935" lon="7.965251673741366"><ele>662.1999999999999</ele><time>2026-05-03T13:52:12.999Z</time></trkpt><trkpt lat="44.022998147639015" lon="7.965293506498456"><ele>668.0</ele><time>2026-05-03T13:52:13.999Z</time></trkpt><trkpt lat="44.02289932739673" lon="7.965302000557797"><ele>668.0</ele><time>2026-05-03T13:52:14.999Z</time></trkpt><trkpt lat="44.02280279788502" lon="7.965281243866068"><ele>668.0</ele><time>2026-05-03T13:52:15.999Z</time></trkpt><trkpt lat="44.02269658314584" lon="7.965252404044273"><ele>668.0</ele><time>2026-05-03T13:52:16.999Z</time></trkpt><trkpt lat="44.02259597484831" lon="7.965231592966995"><ele>668.0</ele><time>2026-05-03T13:52:17.999Z</time></trkpt><trkpt lat="44.02251214250342" lon="7.965140565950331"><ele>668.0</ele><time>2026-05-03T13:52:18.999Z</time></trkpt><trkpt lat="44.022407048978906" lon="7.965083850713922"><ele>664.0</ele><time>2026-05-03T13:52:19.999Z</time></trkpt><trkpt lat="44.022290621377444" lon="7.9650622826494715"><ele>660.0</ele><time>2026-05-03T13:52:20.999Z</time></trkpt><trkpt lat="44.02218965371934" lon="7.965039796154937"><ele>656.0</ele><time>2026-05-03T13:52:21.999Z</time></trkpt><trkpt lat="44.02210029022028" lon="7.965074303774136"><ele>652.0</ele><time>2026-05-03T13:52:22.999Z</time></trkpt><trkpt lat="44.02201384630282" lon="7.965168055743167"><ele>648.0</ele><time>2026-05-03T13:52:23.999Z</time></trkpt><trkpt lat="44.02192433781244" lon="7.965297722672178"><ele>648.0</ele><time>2026-05-03T13:52:24.999Z</time></trkpt><trkpt lat="44.02181019055654" lon="7.965418240783552"><ele>648.0</ele><time>2026-05-03T13:52:25.999Z</time></trkpt><trkpt lat="44.021700595097386" lon="7.965479836471555"><ele>648.0</ele><time>2026-05-03T13:52:26.999Z</time></trkpt><trkpt lat="44.02161251452407" lon="7.965558161980464"><ele>648.0</ele><time>2026-05-03T13:52:27.999Z</time></trkpt><trkpt lat="44.02160505201559" lon="7.965752851163914"><ele>652.0</ele><time>2026-05-03T13:52:28.999Z</time></trkpt><trkpt lat="44.0215355928438" lon="7.965871136724165"><ele>656.0</ele><time>2026-05-03T13:52:29.999Z</time></trkpt><trkpt lat="44.02146233245816" lon="7.965961115064268"><ele>660.0</ele><time>2026-05-03T13:52:30.999Z</time></trkpt><trkpt lat="44.02134687179696" lon="7.965970849192611"><ele>664.0</ele><time>2026-05-03T13:52:31.999Z</time></trkpt><trkpt lat="44.021227497571985" lon="7.965941875192803"><ele>668.0</ele><time>2026-05-03T13:52:32.999Z</time></trkpt><trkpt lat="44.021128374611926" lon="7.965886537644032"><ele>668.0</ele><time>2026-05-03T13:52:34Z</time></trkpt><trkpt lat="44.021055904305804" lon="7.965829927771447"><ele>668.0</ele><time>2026-05-03T13:52:35Z</time></trkpt><trkpt lat="44.02097031625867" lon="7.965869844784286"><ele>668.0</ele><time>2026-05-03T13:52:36Z</time></trkpt><trkpt lat="44.020868350068696" lon="7.96594366263962"><ele>668.0</ele><time>2026-05-03T13:52:37Z</time></trkpt><trkpt lat="44.020756147732094" lon="7.966030570427141"><ele>668.0</ele><time>2026-05-03T13:52:38Z</time></trkpt><trkpt lat="44.02067110515276" lon="7.966119316827599"><ele>673.2</ele><time>2026-05-03T13:52:39Z</time></trkpt><trkpt lat="44.02058613932156" lon="7.966194872151328"><ele>678.4</ele><time>2026-05-03T13:52:40Z</time></trkpt><trkpt lat="44.02052673943029" lon="7.9662333497791575"><ele>683.6</ele><time>2026-05-03T13:52:41Z</time></trkpt><trkpt lat="44.020455178063266" lon="7.966161423626928"><ele>688.8000000000001</ele><time>2026-05-03T13:52:42Z</time></trkpt><trkpt lat="44.02040201594478" lon="7.966032420594853"><ele>694.0</ele><time>2026-05-03T13:52:43Z</time></trkpt><trkpt lat="44.02034758406838" lon="7.96588396672272"><ele>688.4000000000001</ele><time>2026-05-03T13:52:44Z</time></trkpt><trkpt lat="44.020328618312135" lon="7.9657059476158745"><ele>682.8</ele><time>2026-05-03T13:52:45Z</time></trkpt><trkpt lat="44.02030673166417" lon="7.96557495433423"><ele>677.2</ele><time>2026-05-03T13:52:46Z</time></trkpt><trkpt lat="44.02028556921347" lon="7.965476575835887"><ele>671.5999999999999</ele><time>2026-05-03T13:52:47Z</time></trkpt><trkpt lat="44.020213039207" lon="7.965429621714717"><ele>666.0</ele><time>2026-05-03T13:52:48Z</time></trkpt><trkpt lat="44.020108252644064" lon="7.965376457844128"><ele>666.0</ele><time>2026-05-03T13:52:49Z</time></trkpt><trkpt lat="44.01998666592373" lon="7.965296128263419"><ele>666.0</ele><time>2026-05-03T13:52:50Z</time></trkpt><trkpt lat="44.01987880695684" lon="7.965180468623139"><ele>666.0</ele><time>2026-05-03T13:52:51Z</time></trkpt><trkpt lat="44.01978573211298" lon="7.965060519916992"><ele>666.0</ele><time>2026-05-03T13:52:52Z</time></trkpt><trkpt lat="44.01973273918404" lon="7.964933945788745"><ele>669.4</ele><time>2026-05-03T13:52:53Z</time></trkpt><trkpt lat="44.01969364634091" lon="7.9648238910754445"><ele>672.8</ele><time>2026-05-03T13:52:54Z</time></trkpt><trkpt lat="44.019711984218816" lon="7.964690969771765"><ele>676.1999999999999</ele><time>2026-05-03T13:52:55Z</time></trkpt><trkpt lat="44.019797802074066" lon="7.964569087301437"><ele>679.5999999999999</ele><time>2026-05-03T13:52:56Z</time></trkpt><trkpt lat="44.019851497015026" lon="7.96444328512444"><ele>683.0</ele><time>2026-05-03T13:52:57Z</time></trkpt><trkpt lat="44.019869871199305" lon="7.964325485689543"><ele>683.0</ele><time>2026-05-03T13:52:58Z</time></trkpt><trkpt lat="44.01982913019041" lon="7.964207443996633"><ele>683.0</ele><time>2026-05-03T13:52:59Z</time></trkpt><trkpt lat="44.01977100862014" lon="7.964056811774457"><ele>683.0</ele><time>2026-05-03T13:53:00Z</time></trkpt><trkpt lat="44.01973001413205" lon="7.963881215454712"><ele>683.0</ele><time>2026-05-03T13:53:01Z</time></trkpt><trkpt lat="44.019706393548056" lon="7.963687036738045"><ele>679.75</ele><time>2026-05-03T13:53:02Z</time></trkpt><trkpt lat="44.01969213493323" lon="7.963558151048527"><ele>676.5</ele><time>2026-05-03T13:53:03Z</time></trkpt><trkpt lat="44.01956755893984" lon="7.963434279555556"><ele>673.25</ele><time>2026-05-03T13:53:05Z</time></trkpt><trkpt lat="44.01943598271472" lon="7.963397310681384"><ele>670.0</ele><time>2026-05-03T13:53:06Z</time></trkpt><trkpt lat="44.01930020517073" lon="7.963402710869584"><ele>672.0</ele><time>2026-05-03T13:53:07Z</time></trkpt><trkpt lat="44.01914870250908" lon="7.963391256570181"><ele>674.0</ele><time>2026-05-03T13:53:08Z</time></trkpt><trkpt lat="44.01903890496156" lon="7.963376055982324"><ele>676.0</ele><time>2026-05-03T13:53:09Z</time></trkpt><trkpt lat="44.01897616972748" lon="7.963339569944611"><ele>678.0</ele><time>2026-05-03T13:53:10Z</time></trkpt><trkpt lat="44.018922153152474" lon="7.963238335063704"><ele>680.0</ele><time>2026-05-03T13:53:11Z</time></trkpt><trkpt lat="44.0188883550019" lon="7.963081101555382"><ele>680.0</ele><time>2026-05-03T13:53:12Z</time></trkpt><trkpt lat="44.018847989655086" lon="7.962981943697558"><ele>680.0</ele><time>2026-05-03T13:53:13Z</time></trkpt><trkpt lat="44.018774916892035" lon="7.962928411553301"><ele>680.0</ele><time>2026-05-03T13:53:14Z</time></trkpt><trkpt lat="44.018657115630624" lon="7.962890434786621"><ele>680.0</ele><time>2026-05-03T13:53:15Z</time></trkpt><trkpt lat="44.018544153610485" lon="7.962847600322637"><ele>680.0</ele><time>2026-05-03T13:53:16Z</time></trkpt><trkpt lat="44.018432668396684" lon="7.962737433087892"><ele>683.3333333333333</ele><time>2026-05-03T13:53:17Z</time></trkpt><trkpt lat="44.0182785068562" lon="7.962645569980921"><ele>686.6666666666666</ele><time>2026-05-03T13:53:18Z</time></trkpt><trkpt lat="44.01814924469277" lon="7.962486950497768"><ele>690.0</ele><time>2026-05-03T13:53:19Z</time></trkpt><trkpt lat="44.01803273702676" lon="7.962337630799509"><ele>690.0</ele><time>2026-05-03T13:53:20Z</time></trkpt><trkpt lat="44.017969247224684" lon="7.962190243949811"><ele>690.0</ele><time>2026-05-03T13:53:21Z</time></trkpt><trkpt lat="44.01794367641536" lon="7.962082844877061"><ele>690.0</ele><time>2026-05-03T13:53:22Z</time></trkpt><trkpt lat="44.01801350183681" lon="7.9619205476647945"><ele>690.0</ele><time>2026-05-03T13:53:24Z</time></trkpt><trkpt lat="44.018084547682925" lon="7.9618157618393"><ele>690.0</ele><time>2026-05-03T13:53:25Z</time></trkpt><trkpt lat="44.01814057030311" lon="7.961711441260358"><ele>685.2</ele><time>2026-05-03T13:53:26Z</time></trkpt><trkpt lat="44.01814779378598" lon="7.961604853351983"><ele>680.4</ele><time>2026-05-03T13:53:27Z</time></trkpt><trkpt lat="44.018097915407786" lon="7.961503791119428"><ele>675.5999999999999</ele><time>2026-05-03T13:53:28Z</time></trkpt><trkpt lat="44.01800315999569" lon="7.961426914253156"><ele>670.8</ele><time>2026-05-03T13:53:28.999Z</time></trkpt><trkpt lat="44.017868243882106" lon="7.961397118547794"><ele>666.0</ele><time>2026-05-03T13:53:29.999Z</time></trkpt><trkpt lat="44.01773167721297" lon="7.961351756835255"><ele>666.0</ele><time>2026-05-03T13:53:30.999Z</time></trkpt><trkpt lat="44.0176116208674" lon="7.961248070234063"><ele>666.0</ele><time>2026-05-03T13:53:31.999Z</time></trkpt><trkpt lat="44.01749541164721" lon="7.961161435993394"><ele>666.0</ele><time>2026-05-03T13:53:32.999Z</time></trkpt><trkpt lat="44.01740275766053" lon="7.961130149325684"><ele>666.0</ele><time>2026-05-03T13:53:33.999Z</time></trkpt><trkpt lat="44.01728456071935" lon="7.96119323185826"><ele>672.0</ele><time>2026-05-03T13:53:34.999Z</time></trkpt><trkpt lat="44.017185166223946" lon="7.961218402778108"><ele>678.0</ele><time>2026-05-03T13:53:35.999Z</time></trkpt><trkpt lat="44.01711217392097" lon="7.961154249603163"><ele>684.0</ele><time>2026-05-03T13:53:36.999Z</time></trkpt><trkpt lat="44.017002413743235" lon="7.961074444078134"><ele>690.0</ele><time>2026-05-03T13:53:37.999Z</time></trkpt><trkpt lat="44.01690588633113" lon="7.9609845542498485"><ele>696.0</ele><time>2026-05-03T13:53:38.999Z</time></trkpt><trkpt lat="44.0167895987868" lon="7.9609202129466725"><ele>693.0</ele><time>2026-05-03T13:53:39.999Z</time></trkpt><trkpt lat="44.016671440278614" lon="7.960838347004071"><ele>690.0</ele><time>2026-05-03T13:53:40.999Z</time></trkpt><trkpt lat="44.016548612961685" lon="7.960803576404446"><ele>687.0</ele><time>2026-05-03T13:53:41.999Z</time></trkpt><trkpt lat="44.016434202682625" lon="7.9607659779365205"><ele>684.0</ele><time>2026-05-03T13:53:42.999Z</time></trkpt><trkpt lat="44.016329024804506" lon="7.960725599350511"><ele>684.0</ele><time>2026-05-03T13:53:43.999Z</time></trkpt><trkpt lat="44.016245548883035" lon="7.960603290429418"><ele>684.0</ele><time>2026-05-03T13:53:44.999Z</time></trkpt><trkpt lat="44.016182397786665" lon="7.960473962565228"><ele>684.0</ele><time>2026-05-03T13:53:45.999Z</time></trkpt><trkpt lat="44.016121717548" lon="7.960375201893415"><ele>684.0</ele><time>2026-05-03T13:53:46.999Z</time></trkpt><trkpt lat="44.01605005970325" lon="7.960325044856883"><ele>684.0</ele><time>2026-05-03T13:53:47.999Z</time></trkpt><trkpt lat="44.01593352571092" lon="7.960296926164517"><ele>684.0</ele><time>2026-05-03T13:53:48.999Z</time></trkpt><trkpt lat="44.015820429144966" lon="7.960248776803471"><ele>684.0</ele><time>2026-05-03T13:53:49.999Z</time></trkpt><trkpt lat="44.01572389904144" lon="7.960244330212061"><ele>684.0</ele><time>2026-05-03T13:53:50.999Z</time></trkpt><trkpt lat="44.01561005400522" lon="7.960310990145529"><ele>684.0</ele><time>2026-05-03T13:53:51.999Z</time></trkpt><trkpt lat="44.015498747283125" lon="7.9603860100659825"><ele>683.6</ele><time>2026-05-03T13:53:52.999Z</time></trkpt><trkpt lat="44.01538782550772" lon="7.960459982491379"><ele>683.2</ele><time>2026-05-03T13:53:53.999Z</time></trkpt><trkpt lat="44.01528813400953" lon="7.960517649400466"><ele>682.8000000000001</ele><time>2026-05-03T13:53:54.999Z</time></trkpt><trkpt lat="44.01519382314315" lon="7.960533447485535"><ele>682.4000000000001</ele><time>2026-05-03T13:53:55.999Z</time></trkpt><trkpt lat="44.01510685700641" lon="7.960512580136464"><ele>682.0</ele><time>2026-05-03T13:53:56.999Z</time></trkpt><trkpt lat="44.01499614577202" lon="7.960456546534847"><ele>677.5</ele><time>2026-05-03T13:53:57.999Z</time></trkpt><trkpt lat="44.01490136131736" lon="7.960370351862596"><ele>673.0</ele><time>2026-05-03T13:53:58.999Z</time></trkpt><trkpt lat="44.01481423520326" lon="7.960233432944946"><ele>668.5</ele><time>2026-05-03T13:53:59.999Z</time></trkpt><trkpt lat="44.01472936704062" lon="7.960109269542259"><ele>664.0</ele><time>2026-05-03T13:54:00.999Z</time></trkpt><trkpt lat="44.014615675132305" lon="7.9600193305925355"><ele>664.0</ele><time>2026-05-03T13:54:01.999Z</time></trkpt><trkpt lat="44.01448982613103" lon="7.959954348792899"><ele>664.0</ele><time>2026-05-03T13:54:02.999Z</time></trkpt><trkpt lat="44.01437766918322" lon="7.959860495300259"><ele>664.0</ele><time>2026-05-03T13:54:03.999Z</time></trkpt><trkpt lat="44.014294772193786" lon="7.9597407842174555"><ele>664.0</ele><time>2026-05-03T13:54:04.999Z</time></trkpt><trkpt lat="44.0142330864427" lon="7.959622738463669"><ele>664.0</ele><time>2026-05-03T13:54:05.999Z</time></trkpt><trkpt lat="44.01417890805863" lon="7.959530022827633"><ele>664.0</ele><time>2026-05-03T13:54:06.999Z</time></trkpt><trkpt lat="44.01409680616899" lon="7.959475645022129"><ele>664.0</ele><time>2026-05-03T13:54:07.999Z</time></trkpt><trkpt lat="44.0139977461328" lon="7.959423034407611"><ele>664.0</ele><time>2026-05-03T13:54:08.999Z</time></trkpt><trkpt lat="44.01388048277445" lon="7.959419874900777"><ele>664.0</ele><time>2026-05-03T13:54:09.999Z</time></trkpt><trkpt lat="44.01378552064279" lon="7.959388951407078"><ele>660.75</ele><time>2026-05-03T13:54:10.999Z</time></trkpt><trkpt lat="44.013680317748296" lon="7.959324816944281"><ele>657.5</ele><time>2026-05-03T13:54:11.999Z</time></trkpt><trkpt lat="44.013567875977785" lon="7.9592119320931225"><ele>654.25</ele><time>2026-05-03T13:54:12.999Z</time></trkpt><trkpt lat="44.013446915076166" lon="7.959111004209065"><ele>651.0</ele><time>2026-05-03T13:54:13.999Z</time></trkpt><trkpt lat="44.0133169260826" lon="7.959039337105631"><ele>645.0</ele><time>2026-05-03T13:54:14.999Z</time></trkpt><trkpt lat="44.01319621574672" lon="7.958971727848886"><ele>639.0</ele><time>2026-05-03T13:54:15.999Z</time></trkpt><trkpt lat="44.013079460315076" lon="7.958931095974376"><ele>633.0</ele><time>2026-05-03T13:54:16.999Z</time></trkpt><trkpt lat="44.012985948617114" lon="7.958853080091793"><ele>627.0</ele><time>2026-05-03T13:54:17.999Z</time></trkpt><trkpt lat="44.01287457426803" lon="7.958759895432371"><ele>627.0</ele><time>2026-05-03T13:54:18.999Z</time></trkpt><trkpt lat="44.01278267580933" lon="7.958636489436234"><ele>627.0</ele><time>2026-05-03T13:54:19.999Z</time></trkpt><trkpt lat="44.012699773426014" lon="7.958518614183852"><ele>627.0</ele><time>2026-05-03T13:54:20.999Z</time></trkpt><trkpt lat="44.01259947289697" lon="7.958439646432286"><ele>627.0</ele><time>2026-05-03T13:54:21.999Z</time></trkpt><trkpt lat="44.01247818739005" lon="7.958385019255216"><ele>624.25</ele><time>2026-05-03T13:54:22.999Z</time></trkpt><trkpt lat="44.012341805433536" lon="7.958399607551582"><ele>621.5</ele><time>2026-05-03T13:54:23.999Z</time></trkpt><trkpt lat="44.01221426282198" lon="7.9584052069807365"><ele>618.75</ele><time>2026-05-03T13:54:24.999Z</time></trkpt><trkpt lat="44.01210254386494" lon="7.958405705751572"><ele>616.0</ele><time>2026-05-03T13:54:25.999Z</time></trkpt><trkpt lat="44.01201846580406" lon="7.9583943357629385"><ele>619.2</ele><time>2026-05-03T13:54:26.999Z</time></trkpt><trkpt lat="44.01196139897207" lon="7.958334003673912"><ele>622.4000000000001</ele><time>2026-05-03T13:54:27.999Z</time></trkpt><trkpt lat="44.01189568061435" lon="7.958238524618698"><ele>625.6</ele><time>2026-05-03T13:54:28.999Z</time></trkpt><trkpt lat="44.011832777556045" lon="7.958155626802613"><ele>628.8000000000001</ele><time>2026-05-03T13:54:29.999Z</time></trkpt><trkpt lat="44.011726891830385" lon="7.958138449284086"><ele>632.0</ele><time>2026-05-03T13:54:30.999Z</time></trkpt><trkpt lat="44.011599072895336" lon="7.958248004174175"><ele>632.0</ele><time>2026-05-03T13:54:31.999Z</time></trkpt><trkpt lat="44.011500027217686" lon="7.958329686052887"><ele>632.0</ele><time>2026-05-03T13:54:32.999Z</time></trkpt><trkpt lat="44.01141872504757" lon="7.958374595727633"><ele>632.0</ele><time>2026-05-03T13:54:33.999Z</time></trkpt><trkpt lat="44.01133384270034" lon="7.958375932031283"><ele>632.0</ele><time>2026-05-03T13:54:34.999Z</time></trkpt><trkpt lat="44.01123323364037" lon="7.958332468009196"><ele>632.0</ele><time>2026-05-03T13:54:35.999Z</time></trkpt><trkpt lat="44.011112762926366" lon="7.95826975082907"><ele>632.0</ele><time>2026-05-03T13:54:36.999Z</time></trkpt><trkpt lat="44.01099886843667" lon="7.958243026926013"><ele>632.0</ele><time>2026-05-03T13:54:37.999Z</time></trkpt><trkpt lat="44.01092290113255" lon="7.958220417374162"><ele>632.0</ele><time>2026-05-03T13:54:38.999Z</time></trkpt><trkpt lat="44.0108679529993" lon="7.958174650064962"><ele>632.0</ele><time>2026-05-03T13:54:40Z</time></trkpt><trkpt lat="44.01084541220804" lon="7.958016216215036"><ele>632.0</ele><time>2026-05-03T13:54:41Z</time></trkpt><trkpt lat="44.01082654707891" lon="7.957857335072367"><ele>632.0</ele><time>2026-05-03T13:54:42Z</time></trkpt><trkpt lat="44.01083602952515" lon="7.957721782712829"><ele>632.0</ele><time>2026-05-03T13:54:43Z</time></trkpt><trkpt lat="44.010874540788116" lon="7.957553863809375"><ele>632.0</ele><time>2026-05-03T13:54:44Z</time></trkpt><trkpt lat="44.01090074670832" lon="7.957411386856892"><ele>632.0</ele><time>2026-05-03T13:54:45Z</time></trkpt><trkpt lat="44.01088407044154" lon="7.957279203077092"><ele>632.0</ele><time>2026-05-03T13:54:46Z</time></trkpt><trkpt lat="44.01081799530815" lon="7.957155973479682"><ele>625.75</ele><time>2026-05-03T13:54:47Z</time></trkpt><trkpt lat="44.01071509908818" lon="7.957043621955045"><ele>619.5</ele><time>2026-05-03T13:54:48Z</time></trkpt><trkpt lat="44.010634763022985" lon="7.956909206294533"><ele>613.25</ele><time>2026-05-03T13:54:49Z</time></trkpt><trkpt lat="44.010592625631965" lon="7.956753678733606"><ele>607.0</ele><time>2026-05-03T13:54:50Z</time></trkpt><trkpt lat="44.01054292609494" lon="7.956607514562367"><ele>607.0</ele><time>2026-05-03T13:54:51Z</time></trkpt><trkpt lat="44.01046875905706" lon="7.956493190400968"><ele>607.0</ele><time>2026-05-03T13:54:52Z</time></trkpt><trkpt lat="44.01036215336222" lon="7.956429024059007"><ele>607.0</ele><time>2026-05-03T13:54:53Z</time></trkpt><trkpt lat="44.01027375457178" lon="7.956381475915373"><ele>607.0</ele><time>2026-05-03T13:54:54Z</time></trkpt><trkpt lat="44.010223132016655" lon="7.956309853672816"><ele>607.0</ele><time>2026-05-03T13:54:55Z</time></trkpt><trkpt lat="44.01019343705293" lon="7.956212732269891"><ele>607.0</ele><time>2026-05-03T13:54:56Z</time></trkpt><trkpt lat="44.01019792966423" lon="7.956067276221711"><ele>607.0</ele><time>2026-05-03T13:54:57Z</time></trkpt><trkpt lat="44.01026363695843" lon="7.955928491182223"><ele>607.0</ele><time>2026-05-03T13:54:58Z</time></trkpt><trkpt lat="44.01035044346721" lon="7.95585765349079"><ele>607.0</ele><time>2026-05-03T13:54:59Z</time></trkpt><trkpt lat="44.01044548474953" lon="7.955841404763853"><ele>607.0</ele><time>2026-05-03T13:55:00Z</time></trkpt><trkpt lat="44.01052439687834" lon="7.955823901202129"><ele>606.0</ele><time>2026-05-03T13:55:01Z</time></trkpt><trkpt lat="44.010585844743" lon="7.955766030704852"><ele>605.0</ele><time>2026-05-03T13:55:02Z</time></trkpt><trkpt lat="44.01060773809731" lon="7.955662866769712"><ele>604.0</ele><time>2026-05-03T13:55:03Z</time></trkpt><trkpt lat="44.01061185735601" lon="7.95556091950134"><ele>603.0</ele><time>2026-05-03T13:55:04Z</time></trkpt><trkpt lat="44.01061380569935" lon="7.95544647928121"><ele>602.0</ele><time>2026-05-03T13:55:05Z</time></trkpt><trkpt lat="44.01068303976819" lon="7.955313683301836"><ele>601.0</ele><time>2026-05-03T13:55:06Z</time></trkpt><trkpt lat="44.01073497554327" lon="7.955173613266077"><ele>599.25</ele><time>2026-05-03T13:55:07Z</time></trkpt><trkpt lat="44.01076787479533" lon="7.955023408570045"><ele>597.5</ele><time>2026-05-03T13:55:08Z</time></trkpt><trkpt lat="44.01078749674759" lon="7.954881050905693"><ele>595.75</ele><time>2026-05-03T13:55:09Z</time></trkpt><trkpt lat="44.010768529947406" lon="7.954722339066595"><ele>594.0</ele><time>2026-05-03T13:55:10Z</time></trkpt><trkpt lat="44.01073028486484" lon="7.954565835752474"><ele>594.0</ele><time>2026-05-03T13:55:11Z</time></trkpt><trkpt lat="44.010677403489495" lon="7.9544109942013375"><ele>594.0</ele><time>2026-05-03T13:55:12Z</time></trkpt><trkpt lat="44.01062108449486" lon="7.954254660340194"><ele>594.0</ele><time>2026-05-03T13:55:13Z</time></trkpt><trkpt lat="44.010568002973535" lon="7.954095696874385"><ele>594.0</ele><time>2026-05-03T13:55:14Z</time></trkpt><trkpt lat="44.01052250873476" lon="7.953941529941764"><ele>594.0</ele><time>2026-05-03T13:55:15Z</time></trkpt><trkpt lat="44.010479506384954" lon="7.95378274469645"><ele>594.0</ele><time>2026-05-03T13:55:16Z</time></trkpt><trkpt lat="44.01042998639965" lon="7.953629045120403"><ele>594.0</ele><time>2026-05-03T13:55:17Z</time></trkpt><trkpt lat="44.010375851029245" lon="7.953478164968722"><ele>594.0</ele><time>2026-05-03T13:55:18Z</time></trkpt><trkpt lat="44.010333119414646" lon="7.953330317392597"><ele>597.0</ele><time>2026-05-03T13:55:19Z</time></trkpt><trkpt lat="44.010295792010986" lon="7.953184588063903"><ele>600.0</ele><time>2026-05-03T13:55:20Z</time></trkpt><trkpt lat="44.01026025168138" lon="7.953047883813686"><ele>603.0</ele><time>2026-05-03T13:55:21Z</time></trkpt><trkpt lat="44.01024306102458" lon="7.952889612086313"><ele>606.0</ele><time>2026-05-03T13:55:22Z</time></trkpt><trkpt lat="44.010240085519385" lon="7.952742313554514"><ele>609.0</ele><time>2026-05-03T13:55:23Z</time></trkpt><trkpt lat="44.01024313303402" lon="7.952614179891164"><ele>611.0</ele><time>2026-05-03T13:55:24Z</time></trkpt><trkpt lat="44.01023704041813" lon="7.952479840221512"><ele>613.0</ele><time>2026-05-03T13:55:25Z</time></trkpt><trkpt lat="44.01023177801364" lon="7.952362297352164"><ele>615.0</ele><time>2026-05-03T13:55:26Z</time></trkpt><trkpt lat="44.0102206829222" lon="7.9522585486865305"><ele>617.0</ele><time>2026-05-03T13:55:27Z</time></trkpt><trkpt lat="44.010229172716365" lon="7.952103234001316"><ele>619.0</ele><time>2026-05-03T13:55:29Z</time></trkpt><trkpt lat="44.01024608374188" lon="7.951992419693964"><ele>619.0</ele><time>2026-05-03T13:55:30.999Z</time></trkpt><trkpt lat="44.01025842066786" lon="7.951870785679981"><ele>619.0</ele><time>2026-05-03T13:55:33.999Z</time></trkpt><trkpt lat="44.010201996730785" lon="7.95177256463366"><ele>619.0</ele><time>2026-05-03T13:58:01.999Z</time></trkpt><trkpt lat="44.010264402286786" lon="7.95174330113173"><ele>619.0</ele><time>2026-05-03T13:58:31.999Z</time></trkpt><trkpt lat="44.01034272885802" lon="7.951709549041831"><ele>619.0</ele><time>2026-05-03T13:58:33.999Z</time></trkpt><trkpt lat="44.01043019335503" lon="7.951746778649295"><ele>619.0</ele><time>2026-05-03T13:58:36.999Z</time></trkpt><trkpt lat="44.01056951795449" lon="7.951789329620522"><ele>619.0</ele><time>2026-05-03T13:58:38.999Z</time></trkpt><trkpt lat="44.01066389276119" lon="7.951795287914258"><ele>619.0</ele><time>2026-05-03T13:58:39.999Z</time></trkpt><trkpt lat="44.01076017423312" lon="7.951778651450505"><ele>619.0</ele><time>2026-05-03T13:58:40.999Z</time></trkpt><trkpt lat="44.01085917196694" lon="7.951743245431587"><ele>619.0</ele><time>2026-05-03T13:58:41.999Z</time></trkpt><trkpt lat="44.01095749205729" lon="7.951706338598089"><ele>619.0</ele><time>2026-05-03T13:58:42.999Z</time></trkpt><trkpt lat="44.01105626182864" lon="7.951685266605083"><ele>619.2</ele><time>2026-05-03T13:58:43.999Z</time></trkpt><trkpt lat="44.01116212667529" lon="7.95167546805046"><ele>619.4</ele><time>2026-05-03T13:58:44.999Z</time></trkpt><trkpt lat="44.01126617160918" lon="7.9516845551937"><ele>619.6</ele><time>2026-05-03T13:58:45.999Z</time></trkpt><trkpt lat="44.011368385404836" lon="7.9517050164846355"><ele>619.8</ele><time>2026-05-03T13:58:46.999Z</time></trkpt><trkpt lat="44.01146975869605" lon="7.951708533752746"><ele>620.0</ele><time>2026-05-03T13:58:47.999Z</time></trkpt><trkpt lat="44.01157065751795" lon="7.951713947923162"><ele>624.4</ele><time>2026-05-03T13:58:48.999Z</time></trkpt><trkpt lat="44.01166979141177" lon="7.95173186932237"><ele>628.8</ele><time>2026-05-03T13:58:49.999Z</time></trkpt><trkpt lat="44.011760278435325" lon="7.9517790717955945"><ele>633.2</ele><time>2026-05-03T13:58:50.999Z</time></trkpt><trkpt lat="44.01184670010102" lon="7.951845214246192"><ele>637.6</ele><time>2026-05-03T13:58:52Z</time></trkpt><trkpt lat="44.01193017124994" lon="7.9519186260441925"><ele>642.0</ele><time>2026-05-03T13:58:53Z</time></trkpt><trkpt lat="44.01201742385287" lon="7.951985848264473"><ele>642.0</ele><time>2026-05-03T13:58:54Z</time></trkpt><trkpt lat="44.01210046390015" lon="7.952016084280889"><ele>642.0</ele><time>2026-05-03T13:58:55Z</time></trkpt><trkpt lat="44.0121776772909" lon="7.952015421801878"><ele>642.0</ele><time>2026-05-03T13:58:56Z</time></trkpt><trkpt lat="44.01225546982539" lon="7.951976981350557"><ele>642.0</ele><time>2026-05-03T13:58:57Z</time></trkpt><trkpt lat="44.01233082268589" lon="7.951906994541519"><ele>642.0</ele><time>2026-05-03T13:58:58Z</time></trkpt><trkpt lat="44.01239550268953" lon="7.95181049132566"><ele>642.0</ele><time>2026-05-03T13:58:59Z</time></trkpt><trkpt lat="44.01244930667153" lon="7.9517063517128"><ele>638.8333333333334</ele><time>2026-05-03T13:59:00Z</time></trkpt><trkpt lat="44.01251674210677" lon="7.951636227933809"><ele>635.6666666666666</ele><time>2026-05-03T13:59:01Z</time></trkpt><trkpt lat="44.01256706321557" lon="7.9515456204214106"><ele>632.5</ele><time>2026-05-03T13:59:02Z</time></trkpt><trkpt lat="44.012642252754866" lon="7.95150575311927"><ele>629.3333333333333</ele><time>2026-05-03T13:59:03Z</time></trkpt><trkpt lat="44.012717125076776" lon="7.951522729886605"><ele>626.1666666666666</ele><time>2026-05-03T13:59:04Z</time></trkpt><trkpt lat="44.01279664771341" lon="7.951523188366082"><ele>623.0</ele><time>2026-05-03T13:59:06Z</time></trkpt><trkpt lat="44.01285992703863" lon="7.951527237306353"><ele>623.0</ele><time>2026-05-03T13:59:08Z</time></trkpt><trkpt lat="44.012932984930785" lon="7.951494070427931"><ele>623.0</ele><time>2026-05-03T13:59:11Z</time></trkpt><trkpt lat="44.01280713639676" lon="7.95147532787987"><ele>623.0</ele><time>2026-05-03T14:02:02.999Z</time></trkpt><trkpt lat="44.01271429263972" lon="7.951478220176909"><ele>623.0</ele><time>2026-05-03T14:02:03.999Z</time></trkpt><trkpt lat="44.012614107641966" lon="7.951501073544815"><ele>623.0</ele><time>2026-05-03T14:02:04.999Z</time></trkpt><trkpt lat="44.01252557917583" lon="7.951565999498323"><ele>622.3333333333333</ele><time>2026-05-03T14:02:05.999Z</time></trkpt><trkpt lat="44.01246377313469" lon="7.95165405952664"><ele>621.6666666666666</ele><time>2026-05-03T14:02:06.999Z</time></trkpt><trkpt lat="44.012399229614594" lon="7.951729585932598"><ele>621.0</ele><time>2026-05-03T14:02:07.999Z</time></trkpt><trkpt lat="44.012336049568994" lon="7.951818434343649"><ele>620.3333333333334</ele><time>2026-05-03T14:02:08.999Z</time></trkpt><trkpt lat="44.01227781765572" lon="7.951922527026739"><ele>619.6666666666667</ele><time>2026-05-03T14:02:09.999Z</time></trkpt><trkpt lat="44.012199073753656" lon="7.951975418932704"><ele>619.0</ele><time>2026-05-03T14:02:10.999Z</time></trkpt><trkpt lat="44.01211251248612" lon="7.951956169097322"><ele>619.0</ele><time>2026-05-03T14:02:11.999Z</time></trkpt><trkpt lat="44.01203266635524" lon="7.951943571285642"><ele>619.0</ele><time>2026-05-03T14:02:12.999Z</time></trkpt><trkpt lat="44.01195485352313" lon="7.951879268074117"><ele>619.0</ele><time>2026-05-03T14:02:13.999Z</time></trkpt><trkpt lat="44.011888578561056" lon="7.951817321382594"><ele>619.0</ele><time>2026-05-03T14:02:14.999Z</time></trkpt><trkpt lat="44.011773867790644" lon="7.951725230329789"><ele>619.0</ele><time>2026-05-03T14:02:16.999Z</time></trkpt><trkpt lat="44.01170977731848" lon="7.951688205766503"><ele>619.2</ele><time>2026-05-03T14:02:17.999Z</time></trkpt><trkpt lat="44.011630092380976" lon="7.951669287330902"><ele>619.4</ele><time>2026-05-03T14:02:18.999Z</time></trkpt><trkpt lat="44.01153512353732" lon="7.951659139263584"><ele>619.6</ele><time>2026-05-03T14:02:19.999Z</time></trkpt><trkpt lat="44.01144043824692" lon="7.951664868890799"><ele>619.8</ele><time>2026-05-03T14:02:20.999Z</time></trkpt><trkpt lat="44.01133992498341" lon="7.9516672586341715"><ele>620.0</ele><time>2026-05-03T14:02:21.999Z</time></trkpt><trkpt lat="44.011252022012606" lon="7.951637002736257"><ele>620.0</ele><time>2026-05-03T14:02:22.999Z</time></trkpt><trkpt lat="44.011161572016654" lon="7.9516293319301505"><ele>620.0</ele><time>2026-05-03T14:02:23.999Z</time></trkpt><trkpt lat="44.011077356497864" lon="7.951629331932492"><ele>620.0</ele><time>2026-05-03T14:02:24.999Z</time></trkpt><trkpt lat="44.010985632266234" lon="7.951663121123601"><ele>620.0</ele><time>2026-05-03T14:02:25.999Z</time></trkpt><trkpt lat="44.01089387658771" lon="7.951686830065474"><ele>620.0</ele><time>2026-05-03T14:02:26.999Z</time></trkpt><trkpt lat="44.01081764656395" lon="7.95172311287142"><ele>620.0</ele><time>2026-05-03T14:02:27.999Z</time></trkpt><trkpt lat="44.0107423599577" lon="7.951727956493125"><ele>619.8333333333333</ele><time>2026-05-03T14:02:28.999Z</time></trkpt><trkpt lat="44.0106783794857" lon="7.951742984067639"><ele>619.6666666666666</ele><time>2026-05-03T14:02:29.999Z</time></trkpt><trkpt lat="44.01055834993366" lon="7.951740610435213"><ele>619.5</ele><time>2026-05-03T14:02:31.999Z</time></trkpt><trkpt lat="44.01048298990577" lon="7.951707919032892"><ele>619.3333333333334</ele><time>2026-05-03T14:02:32.999Z</time></trkpt><trkpt lat="44.01042335097913" lon="7.951679695105648"><ele>619.1666666666667</ele><time>2026-05-03T14:02:33.999Z</time></trkpt><trkpt lat="44.01036275338603" lon="7.951605202331223"><ele>619.0</ele><time>2026-05-03T14:02:35.999Z</time></trkpt><trkpt lat="44.010251546932004" lon="7.95180095651805"><ele>619.0</ele><time>2026-05-03T14:02:39.999Z</time></trkpt><trkpt lat="44.01022752772728" lon="7.951916019258301"><ele>619.0</ele><time>2026-05-03T14:02:40.999Z</time></trkpt><trkpt lat="44.01019708417313" lon="7.9520123640186915"><ele>619.0</ele><time>2026-05-03T14:02:41.999Z</time></trkpt><trkpt lat="44.010165218330684" lon="7.952089340863838"><ele>619.0</ele><time>2026-05-03T14:02:43.999Z</time></trkpt><trkpt lat="44.01005073749606" lon="7.952014484444549"><ele>619.0</ele><time>2026-05-03T14:02:44.999Z</time></trkpt><trkpt lat="44.00995271029743" lon="7.952013584719448"><ele>616.0</ele><time>2026-05-03T14:02:45.999Z</time></trkpt><trkpt lat="44.00986347640371" lon="7.951997564933924"><ele>613.0</ele><time>2026-05-03T14:02:46.999Z</time></trkpt><trkpt lat="44.00979328493679" lon="7.952011237403474"><ele>610.0</ele><time>2026-05-03T14:02:47.999Z</time></trkpt><trkpt lat="44.00972483526943" lon="7.9519596473869445"><ele>607.0</ele><time>2026-05-03T14:02:48.999Z</time></trkpt><trkpt lat="44.009633110187984" lon="7.951999245260476"><ele>604.0</ele><time>2026-05-03T14:02:49.999Z</time></trkpt><trkpt lat="44.00955304642397" lon="7.951915009824952"><ele>601.0</ele><time>2026-05-03T14:02:50.999Z</time></trkpt><trkpt lat="44.00947628392809" lon="7.951795249646393"><ele>602.0</ele><time>2026-05-03T14:02:51.999Z</time></trkpt><trkpt lat="44.009403083646035" lon="7.951670383075307"><ele>603.0</ele><time>2026-05-03T14:02:52.999Z</time></trkpt><trkpt lat="44.009344675971946" lon="7.951550309916923"><ele>604.0</ele><time>2026-05-03T14:02:53.999Z</time></trkpt><trkpt lat="44.00926973272251" lon="7.951459332836203"><ele>605.0</ele><time>2026-05-03T14:02:54.999Z</time></trkpt><trkpt lat="44.00918580491991" lon="7.951377781807561"><ele>606.0</ele><time>2026-05-03T14:02:55.999Z</time></trkpt><trkpt lat="44.00909107000086" lon="7.951320988988495"><ele>606.0</ele><time>2026-05-03T14:02:56.999Z</time></trkpt><trkpt lat="44.0089753052771" lon="7.951295530397627"><ele>606.0</ele><time>2026-05-03T14:02:57.999Z</time></trkpt><trkpt lat="44.008856686220206" lon="7.951293295881385"><ele>606.0</ele><time>2026-05-03T14:02:58.999Z</time></trkpt><trkpt lat="44.00873983852366" lon="7.951308699880099"><ele>606.0</ele><time>2026-05-03T14:02:59.999Z</time></trkpt><trkpt lat="44.00862277019272" lon="7.951318416053155"><ele>606.0</ele><time>2026-05-03T14:03:00.999Z</time></trkpt><trkpt lat="44.00851401612151" lon="7.951347065104398"><ele>606.0</ele><time>2026-05-03T14:03:01.999Z</time></trkpt><trkpt lat="44.00841787656724" lon="7.951384647139293"><ele>606.0</ele><time>2026-05-03T14:03:02.999Z</time></trkpt><trkpt lat="44.00831847250526" lon="7.951365477238114"><ele>606.0</ele><time>2026-05-03T14:03:04Z</time></trkpt><trkpt lat="44.008221508043704" lon="7.951284768978521"><ele>606.0</ele><time>2026-05-03T14:03:05Z</time></trkpt><trkpt lat="44.00813969487907" lon="7.951170018956026"><ele>605.75</ele><time>2026-05-03T14:03:06Z</time></trkpt><trkpt lat="44.00805103197102" lon="7.951054077861839"><ele>605.5</ele><time>2026-05-03T14:03:07Z</time></trkpt><trkpt lat="44.007946114542165" lon="7.9509556475337675"><ele>605.25</ele><time>2026-05-03T14:03:08Z</time></trkpt><trkpt lat="44.007846355224764" lon="7.95086136843342"><ele>605.0</ele><time>2026-05-03T14:03:09Z</time></trkpt><trkpt lat="44.00775231929448" lon="7.95078509484102"><ele>605.0</ele><time>2026-05-03T14:03:10Z</time></trkpt><trkpt lat="44.007637788483784" lon="7.950742789182961"><ele>605.0</ele><time>2026-05-03T14:03:11Z</time></trkpt><trkpt lat="44.00751067456126" lon="7.950739632415713"><ele>605.0</ele><time>2026-05-03T14:03:12Z</time></trkpt><trkpt lat="44.00739159832283" lon="7.950725395684807"><ele>605.0</ele><time>2026-05-03T14:03:13Z</time></trkpt><trkpt lat="44.007299118042944" lon="7.950633835407876"><ele>605.2</ele><time>2026-05-03T14:03:14Z</time></trkpt><trkpt lat="44.007208065160974" lon="7.950564133549341"><ele>605.4</ele><time>2026-05-03T14:03:15Z</time></trkpt><trkpt lat="44.00713033183251" lon="7.950484780829808"><ele>605.6</ele><time>2026-05-03T14:03:16Z</time></trkpt><trkpt lat="44.00701483373795" lon="7.950486581191975"><ele>605.8</ele><time>2026-05-03T14:03:17Z</time></trkpt><trkpt lat="44.006895900042096" lon="7.950568243229963"><ele>606.0</ele><time>2026-05-03T14:03:18Z</time></trkpt><trkpt lat="44.00678698666192" lon="7.950677231016244"><ele>606.0</ele><time>2026-05-03T14:03:19Z</time></trkpt><trkpt lat="44.00667864867506" lon="7.950768828255151"><ele>606.0</ele><time>2026-05-03T14:03:20Z</time></trkpt><trkpt lat="44.006562864014775" lon="7.950844879272104"><ele>606.0</ele><time>2026-05-03T14:03:21Z</time></trkpt><trkpt lat="44.00645818133626" lon="7.95090563805543"><ele>606.0</ele><time>2026-05-03T14:03:22Z</time></trkpt><trkpt lat="44.00636340312449" lon="7.95095377679591"><ele>600.2</ele><time>2026-05-03T14:03:23Z</time></trkpt><trkpt lat="44.006270434932105" lon="7.950991356964088"><ele>594.4000000000001</ele><time>2026-05-03T14:03:24Z</time></trkpt><trkpt lat="44.006171088973424" lon="7.950978681608325"><ele>588.6</ele><time>2026-05-03T14:03:25Z</time></trkpt><trkpt lat="44.00605186261816" lon="7.95095917386381"><ele>582.8000000000001</ele><time>2026-05-03T14:03:26Z</time></trkpt><trkpt lat="44.00594478364883" lon="7.950952033774392"><ele>577.0</ele><time>2026-05-03T14:03:27Z</time></trkpt><trkpt lat="44.00583761936174" lon="7.950963434166013"><ele>575.5</ele><time>2026-05-03T14:03:28Z</time></trkpt><trkpt lat="44.00574683068723" lon="7.951000398621046"><ele>574.0</ele><time>2026-05-03T14:03:29Z</time></trkpt><trkpt lat="44.00566963836982" lon="7.95103550646202"><ele>572.5</ele><time>2026-05-03T14:03:30Z</time></trkpt><trkpt lat="44.00560598696309" lon="7.951081837758953"><ele>571.0</ele><time>2026-05-03T14:03:31Z</time></trkpt><trkpt lat="44.005563824328014" lon="7.951162736775673"><ele>569.5</ele><time>2026-05-03T14:03:32Z</time></trkpt><trkpt lat="44.00556366749708" lon="7.9512900147090795"><ele>568.0</ele><time>2026-05-03T14:03:33Z</time></trkpt><trkpt lat="44.00573212442253" lon="7.951332018569755"><ele>568.0</ele><time>2026-05-03T14:03:34Z</time></trkpt><trkpt lat="44.00581746473526" lon="7.951256808689854"><ele>568.0</ele><time>2026-05-03T14:03:35Z</time></trkpt><trkpt lat="44.00592059115989" lon="7.951205076114306"><ele>568.0</ele><time>2026-05-03T14:03:36Z</time></trkpt><trkpt lat="44.00602614275737" lon="7.951157728915224"><ele>568.0</ele><time>2026-05-03T14:03:37Z</time></trkpt><trkpt lat="44.00613810640258" lon="7.951192160737091"><ele>568.0</ele><time>2026-05-03T14:03:38Z</time></trkpt><trkpt lat="44.00624661043787" lon="7.951233706750612"><ele>568.8</ele><time>2026-05-03T14:03:39Z</time></trkpt><trkpt lat="44.00635557898129" lon="7.951232007107107"><ele>569.5999999999999</ele><time>2026-05-03T14:03:40Z</time></trkpt><trkpt lat="44.00646976511593" lon="7.951198808826302"><ele>570.4000000000001</ele><time>2026-05-03T14:03:41Z</time></trkpt><trkpt lat="44.00657571221047" lon="7.95117016836381"><ele>571.2</ele><time>2026-05-03T14:03:42Z</time></trkpt><trkpt lat="44.00667803711414" lon="7.951155654730574"><ele>572.0</ele><time>2026-05-03T14:03:43Z</time></trkpt><trkpt lat="44.00678101694844" lon="7.951119655625841"><ele>572.0</ele><time>2026-05-03T14:03:44Z</time></trkpt><trkpt lat="44.006868819202374" lon="7.951062103183917"><ele>572.0</ele><time>2026-05-03T14:03:45Z</time></trkpt><trkpt lat="44.0069519580179" lon="7.951020133654377"><ele>572.0</ele><time>2026-05-03T14:03:46Z</time></trkpt><trkpt lat="44.0070259356534" lon="7.951069020977765"><ele>572.0</ele><time>2026-05-03T14:03:47Z</time></trkpt><trkpt lat="44.00709502446047" lon="7.951167821249625"><ele>572.0</ele><time>2026-05-03T14:03:48Z</time></trkpt><trkpt lat="44.007134664855066" lon="7.951310197740024"><ele>572.0</ele><time>2026-05-03T14:03:49Z</time></trkpt><trkpt lat="44.007186516658095" lon="7.951436799692884"><ele>572.0</ele><time>2026-05-03T14:03:50Z</time></trkpt><trkpt lat="44.0072798419753" lon="7.951517994767964"><ele>572.0</ele><time>2026-05-03T14:03:51Z</time></trkpt><trkpt lat="44.00739732728395" lon="7.95155515431064"><ele>572.0</ele><time>2026-05-03T14:03:52Z</time></trkpt><trkpt lat="44.00750967491754" lon="7.951585601155382"><ele>574.0</ele><time>2026-05-03T14:03:53Z</time></trkpt><trkpt lat="44.00759611220913" lon="7.9516572414793805"><ele>576.0</ele><time>2026-05-03T14:03:54Z</time></trkpt><trkpt lat="44.00766660397562" lon="7.951783026960581"><ele>578.0</ele><time>2026-05-03T14:03:55Z</time></trkpt><trkpt lat="44.00771883413734" lon="7.951938483417831"><ele>580.0</ele><time>2026-05-03T14:03:56Z</time></trkpt><trkpt lat="44.00776499273668" lon="7.952095191465597"><ele>576.4</ele><time>2026-05-03T14:03:56.999Z</time></trkpt><trkpt lat="44.00782044476179" lon="7.952219076347334"><ele>572.8</ele><time>2026-05-03T14:03:57.999Z</time></trkpt><trkpt lat="44.00788578775916" lon="7.95233055492764"><ele>569.2</ele><time>2026-05-03T14:03:58.999Z</time></trkpt><trkpt lat="44.00794922705273" lon="7.952423833633543"><ele>565.6</ele><time>2026-05-03T14:03:59.999Z</time></trkpt><trkpt lat="44.008008446292806" lon="7.952492973013358"><ele>562.0</ele><time>2026-05-03T14:04:00.999Z</time></trkpt><trkpt lat="44.00803094800235" lon="7.952627865154787"><ele>562.0</ele><time>2026-05-03T14:04:02.999Z</time></trkpt><trkpt lat="44.0079697044221" lon="7.952650886744238"><ele>562.0</ele><time>2026-05-03T14:04:03.999Z</time></trkpt><trkpt lat="44.007906109316686" lon="7.952583423545896"><ele>562.0</ele><time>2026-05-03T14:04:04.999Z</time></trkpt><trkpt lat="44.00786166608349" lon="7.952470416536669"><ele>562.0</ele><time>2026-05-03T14:04:05.999Z</time></trkpt><trkpt lat="44.00782365920983" lon="7.952367369037503"><ele>562.0</ele><time>2026-05-03T14:04:06.999Z</time></trkpt><trkpt lat="44.007776710080115" lon="7.952293267455019"><ele>562.0</ele><time>2026-05-03T14:04:07.999Z</time></trkpt><trkpt lat="44.00769886436692" lon="7.952202014980645"><ele>562.0</ele><time>2026-05-03T14:04:09.999Z</time></trkpt><trkpt lat="44.007676119962476" lon="7.952387905476654"><ele>562.0</ele><time>2026-05-03T14:04:13.999Z</time></trkpt><trkpt lat="44.007707185854386" lon="7.952473865176644"><ele>562.0</ele><time>2026-05-03T14:04:14.999Z</time></trkpt><trkpt lat="44.00773714815396" lon="7.95258099721007"><ele>562.0</ele><time>2026-05-03T14:04:15.999Z</time></trkpt><trkpt lat="44.00776268200553" lon="7.9527026287695115"><ele>562.0</ele><time>2026-05-03T14:04:16.999Z</time></trkpt><trkpt lat="44.007783691121766" lon="7.952808034232637"><ele>558.8000000000001</ele><time>2026-05-03T14:04:17.999Z</time></trkpt><trkpt lat="44.007812391463304" lon="7.952891289899142"><ele>555.6</ele><time>2026-05-03T14:04:18.999Z</time></trkpt><trkpt lat="44.00791899762018" lon="7.952936363758765"><ele>552.4000000000001</ele><time>2026-05-03T14:04:20.999Z</time></trkpt><trkpt lat="44.00803525659571" lon="7.952952900998974"><ele>549.2</ele><time>2026-05-03T14:04:22.999Z</time></trkpt><trkpt lat="44.00809057135211" lon="7.953022363547738"><ele>546.0</ele><time>2026-05-03T14:04:23.999Z</time></trkpt><trkpt lat="44.00815401852531" lon="7.953094977554871"><ele>546.0</ele><time>2026-05-03T14:04:24.999Z</time></trkpt><trkpt lat="44.008219063298945" lon="7.953137549651419"><ele>546.0</ele><time>2026-05-03T14:04:25.999Z</time></trkpt><trkpt lat="44.00829869799058" lon="7.953154292879494"><ele>546.0</ele><time>2026-05-03T14:04:26.999Z</time></trkpt><trkpt lat="44.00838768205882" lon="7.953176494353166"><ele>546.0</ele><time>2026-05-03T14:04:27.999Z</time></trkpt><trkpt lat="44.00847428951946" lon="7.953202402116123"><ele>546.0</ele><time>2026-05-03T14:04:28.999Z</time></trkpt><trkpt lat="44.00855442758235" lon="7.953234820401433"><ele>546.0</ele><time>2026-05-03T14:04:29.999Z</time></trkpt><trkpt lat="44.008626262636106" lon="7.953262090544975"><ele>544.5</ele><time>2026-05-03T14:04:30.999Z</time></trkpt><trkpt lat="44.00869645012349" lon="7.953299422857789"><ele>543.0</ele><time>2026-05-03T14:04:31.999Z</time></trkpt><trkpt lat="44.00876109977058" lon="7.9533688084642655"><ele>541.5</ele><time>2026-05-03T14:04:32.999Z</time></trkpt><trkpt lat="44.00882723547666" lon="7.953437850522018"><ele>540.0</ele><time>2026-05-03T14:04:33.999Z</time></trkpt><trkpt lat="44.008892787127415" lon="7.953470992759504"><ele>538.5</ele><time>2026-05-03T14:04:34.999Z</time></trkpt><trkpt lat="44.00894985738357" lon="7.9535175022611515"><ele>537.0</ele><time>2026-05-03T14:04:35.999Z</time></trkpt><trkpt lat="44.00899636550208" lon="7.953612762051961"><ele>537.0</ele><time>2026-05-03T14:04:36.999Z</time></trkpt><trkpt lat="44.00902658614597" lon="7.953737426139236"><ele>537.0</ele><time>2026-05-03T14:04:37.999Z</time></trkpt><trkpt lat="44.00907775587056" lon="7.953840787427229"><ele>537.0</ele><time>2026-05-03T14:04:38.999Z</time></trkpt><trkpt lat="44.00911353724577" lon="7.953947940079466"><ele>537.0</ele><time>2026-05-03T14:04:39.999Z</time></trkpt><trkpt lat="44.0091306342207" lon="7.954065627442333"><ele>537.0</ele><time>2026-05-03T14:04:40.999Z</time></trkpt><trkpt lat="44.00914750915651" lon="7.954178110079809"><ele>537.0</ele><time>2026-05-03T14:04:41.999Z</time></trkpt><trkpt lat="44.00915998252029" lon="7.954298883309566"><ele>540.6</ele><time>2026-05-03T14:04:42.999Z</time></trkpt><trkpt lat="44.00917120744534" lon="7.954427407364737"><ele>544.2</ele><time>2026-05-03T14:04:43.999Z</time></trkpt><trkpt lat="44.00917960685043" lon="7.954555642444231"><ele>547.8</ele><time>2026-05-03T14:04:44.999Z</time></trkpt><trkpt lat="44.00919537880753" lon="7.954682730747383"><ele>551.4</ele><time>2026-05-03T14:04:45.999Z</time></trkpt><trkpt lat="44.00920649425409" lon="7.954785230982199"><ele>555.0</ele><time>2026-05-03T14:04:46.999Z</time></trkpt><trkpt lat="44.00913713649446" lon="7.954903552325561"><ele>555.6666666666666</ele><time>2026-05-03T14:04:48.999Z</time></trkpt><trkpt lat="44.009087905516644" lon="7.954961409750291"><ele>556.3333333333334</ele><time>2026-05-03T14:04:49.999Z</time></trkpt><trkpt lat="44.0091154136233" lon="7.955113273938407"><ele>557.0</ele><time>2026-05-03T14:04:51.999Z</time></trkpt><trkpt lat="44.00915650045414" lon="7.9551887148649865"><ele>557.6666666666667</ele><time>2026-05-03T14:04:52.999Z</time></trkpt><trkpt lat="44.009200893843754" lon="7.955277011752701"><ele>558.3333333333334</ele><time>2026-05-03T14:04:53.999Z</time></trkpt><trkpt lat="44.00924482643446" lon="7.955386601866147"><ele>559.0</ele><time>2026-05-03T14:04:54.999Z</time></trkpt><trkpt lat="44.009274576569915" lon="7.955530635200252"><ele>559.0</ele><time>2026-05-03T14:04:55.999Z</time></trkpt><trkpt lat="44.00929681337353" lon="7.9556683991210555"><ele>559.0</ele><time>2026-05-03T14:04:56.999Z</time></trkpt><trkpt lat="44.00930140071261" lon="7.955786678520274"><ele>559.0</ele><time>2026-05-03T14:04:57.999Z</time></trkpt><trkpt lat="44.00930270481852" lon="7.955903075859658"><ele>559.0</ele><time>2026-05-03T14:04:58.999Z</time></trkpt><trkpt lat="44.00930488468922" lon="7.956008347659683"><ele>559.0</ele><time>2026-05-03T14:04:59.999Z</time></trkpt><trkpt lat="44.00926844717725" lon="7.956136979703077"><ele>559.0</ele><time>2026-05-03T14:05:00.999Z</time></trkpt><trkpt lat="44.00924061709367" lon="7.956256819522472"><ele>559.8333333333334</ele><time>2026-05-03T14:05:01.999Z</time></trkpt><trkpt lat="44.00920448678102" lon="7.956330248067766"><ele>560.6666666666667</ele><time>2026-05-03T14:05:02.999Z</time></trkpt><trkpt lat="44.00913552485011" lon="7.956440343351796"><ele>561.5</ele><time>2026-05-03T14:05:03.999Z</time></trkpt><trkpt lat="44.009062961257676" lon="7.95652525757612"><ele>562.3333333333334</ele><time>2026-05-03T14:05:04.999Z</time></trkpt><trkpt lat="44.00899290279165" lon="7.956597525433521"><ele>563.1666666666666</ele><time>2026-05-03T14:05:05.999Z</time></trkpt><trkpt lat="44.00892846888443" lon="7.956650676617201"><ele>564.0</ele><time>2026-05-03T14:05:06.999Z</time></trkpt><trkpt lat="44.00886780757059" lon="7.956705746781024"><ele>556.0</ele><time>2026-05-03T14:05:07.999Z</time></trkpt><trkpt lat="44.00880048287278" lon="7.956833072828135"><ele>548.0</ele><time>2026-05-03T14:05:10Z</time></trkpt><trkpt lat="44.00875104504503" lon="7.956975070749442"><ele>540.0</ele><time>2026-05-03T14:05:12Z</time></trkpt><trkpt lat="44.008759921568284" lon="7.957066190156606"><ele>532.0</ele><time>2026-05-03T14:05:13Z</time></trkpt><trkpt lat="44.00879434145699" lon="7.957146055230238"><ele>524.0</ele><time>2026-05-03T14:05:14Z</time></trkpt><trkpt lat="44.00884848322714" lon="7.957195550507221"><ele>516.0</ele><time>2026-05-03T14:05:15Z</time></trkpt><trkpt lat="44.00891668246511" lon="7.957233170821337"><ele>516.0</ele><time>2026-05-03T14:05:16Z</time></trkpt><trkpt lat="44.008993200322585" lon="7.957285651009348"><ele>516.0</ele><time>2026-05-03T14:05:17Z</time></trkpt><trkpt lat="44.00906954051936" lon="7.957343629723326"><ele>516.0</ele><time>2026-05-03T14:05:18Z</time></trkpt><trkpt lat="44.009150603448845" lon="7.957403158400145"><ele>516.0</ele><time>2026-05-03T14:05:19Z</time></trkpt><trkpt lat="44.0092259682127" lon="7.957479081855709"><ele>516.0</ele><time>2026-05-03T14:05:20Z</time></trkpt><trkpt lat="44.00926136428353" lon="7.957620461870913"><ele>520.6666666666666</ele><time>2026-05-03T14:05:21Z</time></trkpt><trkpt lat="44.0092915777075" lon="7.957711500878879"><ele>525.3333333333334</ele><time>2026-05-03T14:05:22Z</time></trkpt><trkpt lat="44.009293005225224" lon="7.957821157560547"><ele>530.0</ele><time>2026-05-03T14:05:23Z</time></trkpt><trkpt lat="44.009301214617366" lon="7.957938324648592"><ele>534.6666666666667</ele><time>2026-05-03T14:05:24Z</time></trkpt><trkpt lat="44.00930674723116" lon="7.958052143425799"><ele>539.3333333333334</ele><time>2026-05-03T14:05:25Z</time></trkpt><trkpt lat="44.009292482566266" lon="7.958161135351722"><ele>544.0</ele><time>2026-05-03T14:05:26Z</time></trkpt><trkpt lat="44.009264267600656" lon="7.9582527426796705"><ele>544.0</ele><time>2026-05-03T14:05:27Z</time></trkpt><trkpt lat="44.00921897420674" lon="7.9583441547095015"><ele>544.0</ele><time>2026-05-03T14:05:28Z</time></trkpt><trkpt lat="44.009181051295116" lon="7.958441314819324"><ele>544.0</ele><time>2026-05-03T14:05:29Z</time></trkpt><trkpt lat="44.009146743425035" lon="7.958527470676676"><ele>544.0</ele><time>2026-05-03T14:05:30Z</time></trkpt><trkpt lat="44.009137766884095" lon="7.958674040659166"><ele>544.0</ele><time>2026-05-03T14:05:32Z</time></trkpt><trkpt lat="44.00916943684157" lon="7.95876819874341"><ele>544.0</ele><time>2026-05-03T14:05:33Z</time></trkpt><trkpt lat="44.00919789104795" lon="7.958891096361156"><ele>544.0</ele><time>2026-05-03T14:05:34Z</time></trkpt><trkpt lat="44.00919602719197" lon="7.9590355030595195"><ele>544.0</ele><time>2026-05-03T14:05:35Z</time></trkpt><trkpt lat="44.00919177426839" lon="7.959145620701937"><ele>544.0</ele><time>2026-05-03T14:05:36Z</time></trkpt><trkpt lat="44.009217652050374" lon="7.959226095059331"><ele>544.0</ele><time>2026-05-03T14:05:37Z</time></trkpt><trkpt lat="44.009269536482634" lon="7.959296594435841"><ele>544.0</ele><time>2026-05-03T14:05:38Z</time></trkpt><trkpt lat="44.00934067983168" lon="7.959365027583799"><ele>544.0</ele><time>2026-05-03T14:05:39Z</time></trkpt><trkpt lat="44.009398797371254" lon="7.959444649203968"><ele>542.6666666666667</ele><time>2026-05-03T14:05:40Z</time></trkpt><trkpt lat="44.00943772717837" lon="7.959539900164187"><ele>541.3333333333334</ele><time>2026-05-03T14:05:41Z</time></trkpt><trkpt lat="44.00944769931312" lon="7.959645294218824"><ele>540.0</ele><time>2026-05-03T14:05:42Z</time></trkpt><trkpt lat="44.00943150936222" lon="7.95975846242965"><ele>538.6666666666666</ele><time>2026-05-03T14:05:43Z</time></trkpt><trkpt lat="44.00942692357789" lon="7.959883886904843"><ele>537.3333333333333</ele><time>2026-05-03T14:05:44Z</time></trkpt><trkpt lat="44.00943153600525" lon="7.960000018826926"><ele>536.0</ele><time>2026-05-03T14:05:45Z</time></trkpt><trkpt lat="44.009451166907375" lon="7.960106965774025"><ele>534.0</ele><time>2026-05-03T14:05:46Z</time></trkpt><trkpt lat="44.009462729233746" lon="7.960233347359071"><ele>532.0</ele><time>2026-05-03T14:05:47Z</time></trkpt><trkpt lat="44.00945867362556" lon="7.960359638489685"><ele>530.0</ele><time>2026-05-03T14:05:48Z</time></trkpt><trkpt lat="44.00946227908901" lon="7.960498088120147"><ele>528.0</ele><time>2026-05-03T14:05:49Z</time></trkpt><trkpt lat="44.009469077297375" lon="7.960622494156485"><ele>526.0</ele><time>2026-05-03T14:05:50Z</time></trkpt><trkpt lat="44.009462050156834" lon="7.960739579018234"><ele>526.0</ele><time>2026-05-03T14:05:51Z</time></trkpt><trkpt lat="44.00945382029787" lon="7.960837227607492"><ele>526.0</ele><time>2026-05-03T14:05:52Z</time></trkpt><trkpt lat="44.00947077948634" lon="7.960929896268432"><ele>526.0</ele><time>2026-05-03T14:05:53Z</time></trkpt><trkpt lat="44.00950583668015" lon="7.961037271020324"><ele>526.0</ele><time>2026-05-03T14:05:54Z</time></trkpt><trkpt lat="44.00953999043441" lon="7.961151453316087"><ele>526.0</ele><time>2026-05-03T14:05:55Z</time></trkpt><trkpt lat="44.00956862566927" lon="7.961274684014867"><ele>526.0</ele><time>2026-05-03T14:05:56Z</time></trkpt><trkpt lat="44.00958990112609" lon="7.961401586965716"><ele>525.3333333333334</ele><time>2026-05-03T14:05:57Z</time></trkpt><trkpt lat="44.00959169410543" lon="7.961517842151835"><ele>524.6666666666667</ele><time>2026-05-03T14:05:58Z</time></trkpt><trkpt lat="44.00958833451017" lon="7.9616298342725536"><ele>524.0</ele><time>2026-05-03T14:05:59Z</time></trkpt><trkpt lat="44.0095877270673" lon="7.961729444738077"><ele>523.3333333333334</ele><time>2026-05-03T14:06:00Z</time></trkpt><trkpt lat="44.00962705391393" lon="7.961868497603557"><ele>522.6666666666666</ele><time>2026-05-03T14:06:02Z</time></trkpt><trkpt lat="44.00966745139843" lon="7.9619625011337165"><ele>522.0</ele><time>2026-05-03T14:06:04Z</time></trkpt><trkpt lat="44.00964082543296" lon="7.962064078436315"><ele>520.4</ele><time>2026-05-03T14:06:05.999Z</time></trkpt><trkpt lat="44.00956194462" lon="7.962178303089777"><ele>518.8000000000001</ele><time>2026-05-03T14:06:07.999Z</time></trkpt><trkpt lat="44.0095534800224" lon="7.962317695689143"><ele>517.2</ele><time>2026-05-03T14:06:09.999Z</time></trkpt><trkpt lat="44.00953311595767" lon="7.962455555985084"><ele>515.6</ele><time>2026-05-03T14:06:11.999Z</time></trkpt><trkpt lat="44.009566590577016" lon="7.962562489684097"><ele>514.0</ele><time>2026-05-03T14:06:12.999Z</time></trkpt><trkpt lat="44.009539061579304" lon="7.962657521727756"><ele>513.6666666666667</ele><time>2026-05-03T14:06:15.999Z</time></trkpt><trkpt lat="44.00953323827057" lon="7.96278437690274"><ele>513.3333333333334</ele><time>2026-05-03T14:06:18.999Z</time></trkpt><trkpt lat="44.00951491336815" lon="7.962890298766298"><ele>513.0</ele><time>2026-05-03T14:06:19.999Z</time></trkpt><trkpt lat="44.00948364461212" lon="7.962989598986779"><ele>512.6666666666666</ele><time>2026-05-03T14:06:20.999Z</time></trkpt><trkpt lat="44.00944429606599" lon="7.963083798536808"><ele>512.3333333333333</ele><time>2026-05-03T14:06:21.999Z</time></trkpt><trkpt lat="44.00941080890398" lon="7.963171324700435"><ele>512.0</ele><time>2026-05-03T14:06:22.999Z</time></trkpt><trkpt lat="44.00938428501851" lon="7.963264739150236"><ele>509.99999999999994</ele><time>2026-05-03T14:06:23.999Z</time></trkpt><trkpt lat="44.00939531195684" lon="7.96337041100208"><ele>508.0</ele><time>2026-05-03T14:06:24.999Z</time></trkpt><trkpt lat="44.00943361184314" lon="7.963466156126051"><ele>506.0</ele><time>2026-05-03T14:06:25.999Z</time></trkpt><trkpt lat="44.009493597168245" lon="7.96352759552243"><ele>504.0</ele><time>2026-05-03T14:06:26.999Z</time></trkpt><trkpt lat="44.009560561194434" lon="7.963551543232756"><ele>501.99999999999994</ele><time>2026-05-03T14:06:27.999Z</time></trkpt><trkpt lat="44.0096593869752" lon="7.9635260162583394"><ele>500.0</ele><time>2026-05-03T14:06:29.999Z</time></trkpt><trkpt lat="44.009718789673066" lon="7.963460602228377"><ele>500.0</ele><time>2026-05-03T14:06:30.999Z</time></trkpt><trkpt lat="44.00977690840697" lon="7.963376551124842"><ele>500.0</ele><time>2026-05-03T14:06:31.999Z</time></trkpt><trkpt lat="44.00983229843705" lon="7.9632628653872555"><ele>500.0</ele><time>2026-05-03T14:06:32.999Z</time></trkpt><trkpt lat="44.00987586372581" lon="7.963133574988435"><ele>500.0</ele><time>2026-05-03T14:06:33.999Z</time></trkpt><trkpt lat="44.00992340519058" lon="7.963001049195009"><ele>500.0</ele><time>2026-05-03T14:06:34.999Z</time></trkpt><trkpt lat="44.00998061897685" lon="7.9628834752869775"><ele>501.8</ele><time>2026-05-03T14:06:35.999Z</time></trkpt><trkpt lat="44.01005349470994" lon="7.96277212201192"><ele>503.6</ele><time>2026-05-03T14:06:36.999Z</time></trkpt><trkpt lat="44.010126060267815" lon="7.962678785601076"><ele>505.4</ele><time>2026-05-03T14:06:37.999Z</time></trkpt><trkpt lat="44.010205347005424" lon="7.962627178363351"><ele>507.2</ele><time>2026-05-03T14:06:38.999Z</time></trkpt><trkpt lat="44.010277802668156" lon="7.962544873259469"><ele>509.0</ele><time>2026-05-03T14:06:39.999Z</time></trkpt><trkpt lat="44.01038281987465" lon="7.962598803045562"><ele>509.0</ele><time>2026-05-03T14:06:40.999Z</time></trkpt><trkpt lat="44.01046149581868" lon="7.9625743859249365"><ele>509.0</ele><time>2026-05-03T14:06:41.999Z</time></trkpt><trkpt lat="44.01049628591496" lon="7.962445026801823"><ele>509.0</ele><time>2026-05-03T14:06:42.999Z</time></trkpt><trkpt lat="44.01057076019056" lon="7.962552669742142"><ele>509.0</ele><time>2026-05-03T14:06:44.999Z</time></trkpt><trkpt lat="44.0105858612071" lon="7.962665397068123"><ele>509.0</ele><time>2026-05-03T14:06:45.999Z</time></trkpt><trkpt lat="44.01061154574874" lon="7.962787723166907"><ele>508.99999999999994</ele><time>2026-05-03T14:06:46.999Z</time></trkpt><trkpt lat="44.010653736932134" lon="7.962910262749027"><ele>509.0</ele><time>2026-05-03T14:06:47.999Z</time></trkpt><trkpt lat="44.010705498365844" lon="7.963016062842289"><ele>509.0</ele><time>2026-05-03T14:06:48.999Z</time></trkpt><trkpt lat="44.010761105195485" lon="7.96309980767792"><ele>509.0</ele><time>2026-05-03T14:06:49.999Z</time></trkpt><trkpt lat="44.010835048417995" lon="7.9631533862622215"><ele>508.99999999999994</ele><time>2026-05-03T14:06:50.999Z</time></trkpt><trkpt lat="44.01090078839449" lon="7.963178481045256"><ele>509.0</ele><time>2026-05-03T14:06:51.999Z</time></trkpt><trkpt lat="44.01097319421726" lon="7.963208153621898"><ele>508.99999999999994</ele><time>2026-05-03T14:06:52.999Z</time></trkpt><trkpt lat="44.01103584088007" lon="7.9632638093758"><ele>509.0</ele><time>2026-05-03T14:06:53.999Z</time></trkpt><trkpt lat="44.01107132210861" lon="7.9633581152311965"><ele>509.0</ele><time>2026-05-03T14:06:54.999Z</time></trkpt><trkpt lat="44.01106677777415" lon="7.963472621543523"><ele>509.0</ele><time>2026-05-03T14:06:55.999Z</time></trkpt><trkpt lat="44.01104486717427" lon="7.963591570320742"><ele>508.99999999999994</ele><time>2026-05-03T14:06:56.999Z</time></trkpt><trkpt lat="44.011035491451665" lon="7.963708575897281"><ele>509.0</ele><time>2026-05-03T14:06:57.999Z</time></trkpt><trkpt lat="44.01106504839399" lon="7.963830485333559"><ele>505.79999999999995</ele><time>2026-05-03T14:06:58.999Z</time></trkpt><trkpt lat="44.011114089101106" lon="7.963928489242056"><ele>502.59999999999997</ele><time>2026-05-03T14:06:59.999Z</time></trkpt><trkpt lat="44.01119153310424" lon="7.9640143565873505"><ele>499.4</ele><time>2026-05-03T14:07:00.999Z</time></trkpt><trkpt lat="44.01128992227001" lon="7.964091573568518"><ele>496.2</ele><time>2026-05-03T14:07:01.999Z</time></trkpt><trkpt lat="44.01139496118273" lon="7.964165222273809"><ele>493.0</ele><time>2026-05-03T14:07:02.999Z</time></trkpt><trkpt lat="44.011485779413974" lon="7.964243741828115"><ele>492.59999999999997</ele><time>2026-05-03T14:07:03.999Z</time></trkpt><trkpt lat="44.011563836726424" lon="7.96432244004298"><ele>492.19999999999993</ele><time>2026-05-03T14:07:04.999Z</time></trkpt><trkpt lat="44.01164484538287" lon="7.964394415248143"><ele>491.8</ele><time>2026-05-03T14:07:05.999Z</time></trkpt><trkpt lat="44.01173317148903" lon="7.96445892725404"><ele>491.4</ele><time>2026-05-03T14:07:06.999Z</time></trkpt><trkpt lat="44.01181927439897" lon="7.96453144566631"><ele>491.0</ele><time>2026-05-03T14:07:07.999Z</time></trkpt><trkpt lat="44.01189759473431" lon="7.964604039293216"><ele>490.99999999999994</ele><time>2026-05-03T14:07:08.999Z</time></trkpt><trkpt lat="44.01197444164011" lon="7.964679486253774"><ele>491.0</ele><time>2026-05-03T14:07:09.999Z</time></trkpt><trkpt lat="44.012039061760284" lon="7.964742219679224"><ele>491.0</ele><time>2026-05-03T14:07:10.999Z</time></trkpt><trkpt lat="44.012096061045646" lon="7.964806712538301"><ele>491.0</ele><time>2026-05-03T14:07:11.999Z</time></trkpt><trkpt lat="44.01213687946033" lon="7.964898997096671"><ele>490.99999999999994</ele><time>2026-05-03T14:07:12.999Z</time></trkpt><trkpt lat="44.01214529442336" lon="7.965030898287615"><ele>491.0</ele><time>2026-05-03T14:07:13.999Z</time></trkpt><trkpt lat="44.0121326824522" lon="7.965172008116593"><ele>487.99999999999994</ele><time>2026-05-03T14:07:14.999Z</time></trkpt><trkpt lat="44.012117724862584" lon="7.965311753900543"><ele>485.0</ele><time>2026-05-03T14:07:16Z</time></trkpt><trkpt lat="44.01211974363179" lon="7.9654434320269525"><ele>482.0</ele><time>2026-05-03T14:07:17Z</time></trkpt><trkpt lat="44.01214867376633" lon="7.965556691525905"><ele>479.0</ele><time>2026-05-03T14:07:18Z</time></trkpt><trkpt lat="44.012192750405006" lon="7.965645844650759"><ele>475.99999999999994</ele><time>2026-05-03T14:07:19Z</time></trkpt><trkpt lat="44.012248853729346" lon="7.965695735529711"><ele>473.0</ele><time>2026-05-03T14:07:20Z</time></trkpt><trkpt lat="44.01231835823616" lon="7.965698805371165"><ele>473.0</ele><time>2026-05-03T14:07:21Z</time></trkpt><trkpt lat="44.01241257533129" lon="7.96570885105167"><ele>472.99999999999994</ele><time>2026-05-03T14:07:22Z</time></trkpt><trkpt lat="44.01251048926718" lon="7.965784198443363"><ele>472.99999999999994</ele><time>2026-05-03T14:07:23Z</time></trkpt><trkpt lat="44.01258921156431" lon="7.965872535446227"><ele>473.0</ele><time>2026-05-03T14:07:24Z</time></trkpt><trkpt lat="44.012661871463436" lon="7.965975170841734"><ele>473.0</ele><time>2026-05-03T14:07:25Z</time></trkpt><trkpt lat="44.01272508335621" lon="7.966081292828347"><ele>472.59999999999997</ele><time>2026-05-03T14:07:26Z</time></trkpt><trkpt lat="44.012782828641" lon="7.966197879084508"><ele>472.19999999999993</ele><time>2026-05-03T14:07:27Z</time></trkpt><trkpt lat="44.01282479605638" lon="7.966335866388601"><ele>471.8</ele><time>2026-05-03T14:07:28Z</time></trkpt><trkpt lat="44.01286539205552" lon="7.9664821299876225"><ele>471.4</ele><time>2026-05-03T14:07:29Z</time></trkpt><trkpt lat="44.01291745916941" lon="7.966628654447927"><ele>471.0</ele><time>2026-05-03T14:07:30Z</time></trkpt><trkpt lat="44.01297415578963" lon="7.966760097724685"><ele>471.0</ele><time>2026-05-03T14:07:31Z</time></trkpt><trkpt lat="44.01301790952677" lon="7.96688407582303"><ele>471.0</ele><time>2026-05-03T14:07:32Z</time></trkpt><trkpt lat="44.01304981289876" lon="7.967008034060804"><ele>471.0</ele><time>2026-05-03T14:07:33Z</time></trkpt><trkpt lat="44.013062897687334" lon="7.967122037896837"><ele>471.0</ele><time>2026-05-03T14:07:34Z</time></trkpt><trkpt lat="44.0130638722084" lon="7.967251798348827"><ele>471.0</ele><time>2026-05-03T14:07:35Z</time></trkpt><trkpt lat="44.01305490789672" lon="7.967386498173171"><ele>468.4</ele><time>2026-05-03T14:07:36Z</time></trkpt><trkpt lat="44.013044831935474" lon="7.967527198120828"><ele>465.8</ele><time>2026-05-03T14:07:37Z</time></trkpt><trkpt lat="44.01303857692299" lon="7.96766051831944"><ele>463.19999999999993</ele><time>2026-05-03T14:07:38Z</time></trkpt><trkpt lat="44.01304891430232" lon="7.967780958721614"><ele>460.59999999999997</ele><time>2026-05-03T14:07:39Z</time></trkpt><trkpt lat="44.01308758168741" lon="7.967891865754618"><ele>458.0</ele><time>2026-05-03T14:07:40Z</time></trkpt><trkpt lat="44.01314469422817" lon="7.967963018251507"><ele>457.99999999999994</ele><time>2026-05-03T14:07:41Z</time></trkpt><trkpt lat="44.01321872322492" lon="7.967995970886994"><ele>458.0</ele><time>2026-05-03T14:07:42Z</time></trkpt><trkpt lat="44.013312537184454" lon="7.967990742579508"><ele>458.0</ele><time>2026-05-03T14:07:43Z</time></trkpt><trkpt lat="44.01341222754995" lon="7.9679734945081995"><ele>458.0</ele><time>2026-05-03T14:07:44Z</time></trkpt><trkpt lat="44.013505249810784" lon="7.967964772437638"><ele>457.99999999999994</ele><time>2026-05-03T14:07:45Z</time></trkpt><trkpt lat="44.013581585125316" lon="7.967967114110584"><ele>458.0</ele><time>2026-05-03T14:07:46Z</time></trkpt><trkpt lat="44.01365322448776" lon="7.968019600781798"><ele>462.8333333333333</ele><time>2026-05-03T14:07:47Z</time></trkpt><trkpt lat="44.01374536447723" lon="7.9680540350116855"><ele>467.66666666666663</ele><time>2026-05-03T14:07:48Z</time></trkpt><trkpt lat="44.01383244129509" lon="7.968117907108753"><ele>472.5</ele><time>2026-05-03T14:07:49Z</time></trkpt><trkpt lat="44.013907589375265" lon="7.968179242288629"><ele>477.33333333333337</ele><time>2026-05-03T14:07:50Z</time></trkpt><trkpt lat="44.01397558630899" lon="7.968250360812028"><ele>482.1666666666667</ele><time>2026-05-03T14:07:51Z</time></trkpt><trkpt lat="44.01404739298988" lon="7.968305965529634"><ele>487.0</ele><time>2026-05-03T14:07:52Z</time></trkpt><trkpt lat="44.014102410344975" lon="7.968351695862556"><ele>489.1666666666667</ele><time>2026-05-03T14:07:53Z</time></trkpt><trkpt lat="44.01419594380799" lon="7.968338936122327"><ele>491.33333333333337</ele><time>2026-05-03T14:07:55Z</time></trkpt><trkpt lat="44.014262264230204" lon="7.968278532530205"><ele>493.5</ele><time>2026-05-03T14:07:56Z</time></trkpt><trkpt lat="44.01434307666947" lon="7.968234518365964"><ele>495.66666666666663</ele><time>2026-05-03T14:07:57Z</time></trkpt><trkpt lat="44.01441754968302" lon="7.968234872664666"><ele>497.8333333333333</ele><time>2026-05-03T14:07:58Z</time></trkpt><trkpt lat="44.01447978457487" lon="7.968298475921439"><ele>500.0</ele><time>2026-05-03T14:07:59Z</time></trkpt><trkpt lat="44.014594385710254" lon="7.968278722968659"><ele>499.99999999999994</ele><time>2026-05-03T14:08:01Z</time></trkpt><trkpt lat="44.01468128725026" lon="7.968268285882327"><ele>500.0</ele><time>2026-05-03T14:08:02Z</time></trkpt><trkpt lat="44.014734684550426" lon="7.968212075273312"><ele>500.0</ele><time>2026-05-03T14:08:03Z</time></trkpt><trkpt lat="44.01477883685528" lon="7.968131641774768"><ele>500.0</ele><time>2026-05-03T14:08:04Z</time></trkpt><trkpt lat="44.01483474048057" lon="7.968046433942712"><ele>499.99999999999994</ele><time>2026-05-03T14:08:05Z</time></trkpt><trkpt lat="44.01490583826647" lon="7.968020986193409"><ele>500.0</ele><time>2026-05-03T14:08:06Z</time></trkpt><trkpt lat="44.01497723045971" lon="7.968032550004606"><ele>500.8</ele><time>2026-05-03T14:08:07Z</time></trkpt><trkpt lat="44.01505597255722" lon="7.968073385627496"><ele>501.6</ele><time>2026-05-03T14:08:09Z</time></trkpt><trkpt lat="44.015058790548835" lon="7.968201447178082"><ele>502.4</ele><time>2026-05-03T14:08:11Z</time></trkpt><trkpt lat="44.01501296285935" lon="7.9682957952543205"><ele>503.2</ele><time>2026-05-03T14:08:12Z</time></trkpt><trkpt lat="44.01498527591704" lon="7.968414921379866"><ele>504.0</ele><time>2026-05-03T14:08:12.999Z</time></trkpt><trkpt lat="44.01498866530162" lon="7.968556712254531"><ele>504.0</ele><time>2026-05-03T14:08:13.999Z</time></trkpt><trkpt lat="44.01499538722051" lon="7.968664945129215"><ele>504.0</ele><time>2026-05-03T14:08:14.999Z</time></trkpt><trkpt lat="44.015028767770985" lon="7.968739648690219"><ele>504.0</ele><time>2026-05-03T14:08:15.999Z</time></trkpt><trkpt lat="44.015084507340326" lon="7.968819102998218"><ele>504.0</ele><time>2026-05-03T14:08:16.999Z</time></trkpt><trkpt lat="44.01516592641862" lon="7.968906311990311"><ele>504.0</ele><time>2026-05-03T14:08:17.999Z</time></trkpt><trkpt lat="44.01522431763756" lon="7.968983673174941"><ele>504.0</ele><time>2026-05-03T14:08:18.999Z</time></trkpt><trkpt lat="44.01527684014478" lon="7.969037491005091"><ele>504.0</ele><time>2026-05-03T14:08:19.999Z</time></trkpt><trkpt lat="44.01525080934814" lon="7.969141205875546"><ele>504.0</ele><time>2026-05-03T14:08:21.999Z</time></trkpt><trkpt lat="44.015191975161" lon="7.9691856219947805"><ele>504.0</ele><time>2026-05-03T14:08:22.999Z</time></trkpt><trkpt lat="44.015121234429195" lon="7.96921094295411"><ele>504.0</ele><time>2026-05-03T14:08:23.999Z</time></trkpt><trkpt lat="44.01504050920785" lon="7.969200115891814"><ele>504.0</ele><time>2026-05-03T14:08:24.999Z</time></trkpt><trkpt lat="44.01494888758981" lon="7.969164340360531"><ele>504.0</ele><time>2026-05-03T14:08:25.999Z</time></trkpt><trkpt lat="44.01486200264094" lon="7.9691615222187995"><ele>501.6666666666667</ele><time>2026-05-03T14:08:26.999Z</time></trkpt><trkpt lat="44.014777980322144" lon="7.969182849727921"><ele>499.33333333333337</ele><time>2026-05-03T14:08:27.999Z</time></trkpt><trkpt lat="44.01468732648829" lon="7.9692043778746555"><ele>497.0</ele><time>2026-05-03T14:08:28.999Z</time></trkpt><trkpt lat="44.01460263081625" lon="7.9692465706752245"><ele>494.6666666666667</ele><time>2026-05-03T14:08:29.999Z</time></trkpt><trkpt lat="44.01452448054517" lon="7.969297881121516"><ele>492.33333333333337</ele><time>2026-05-03T14:08:30.999Z</time></trkpt><trkpt lat="44.01444196029785" lon="7.969356625955231"><ele>490.0</ele><time>2026-05-03T14:08:31.999Z</time></trkpt><trkpt lat="44.01436853121304" lon="7.969421383277939"><ele>490.00000000000006</ele><time>2026-05-03T14:08:32.999Z</time></trkpt><trkpt lat="44.014306738981354" lon="7.969504602482451"><ele>490.0</ele><time>2026-05-03T14:08:33.999Z</time></trkpt><trkpt lat="44.01423946761333" lon="7.969591559713963"><ele>490.0</ele><time>2026-05-03T14:08:34.999Z</time></trkpt><trkpt lat="44.01418773076455" lon="7.9696777210591945"><ele>490.0</ele><time>2026-05-03T14:08:35.999Z</time></trkpt><trkpt lat="44.014144932458606" lon="7.969761929792451"><ele>490.00000000000006</ele><time>2026-05-03T14:08:36.999Z</time></trkpt><trkpt lat="44.01411626617306" lon="7.9698554712785254"><ele>490.0</ele><time>2026-05-03T14:08:37.999Z</time></trkpt><trkpt lat="44.014099547420756" lon="7.969943340829944"><ele>487.6666666666667</ele><time>2026-05-03T14:08:38.999Z</time></trkpt><trkpt lat="44.01414157563638" lon="7.970111905057389"><ele>485.33333333333337</ele><time>2026-05-03T14:08:40.999Z</time></trkpt><trkpt lat="44.014196655968405" lon="7.970180590208027"><ele>483.0</ele><time>2026-05-03T14:08:41.999Z</time></trkpt><trkpt lat="44.01428159534408" lon="7.97022901385881"><ele>480.66666666666663</ele><time>2026-05-03T14:08:42.999Z</time></trkpt><trkpt lat="44.01434958876012" lon="7.970274946911169"><ele>478.3333333333333</ele><time>2026-05-03T14:08:43.999Z</time></trkpt><trkpt lat="44.01439741801546" lon="7.970356599765263"><ele>476.0</ele><time>2026-05-03T14:08:44.999Z</time></trkpt><trkpt lat="44.014441568301336" lon="7.970451985943447"><ele>475.99999999999994</ele><time>2026-05-03T14:08:45.999Z</time></trkpt><trkpt lat="44.01447490668603" lon="7.970544030705309"><ele>476.0</ele><time>2026-05-03T14:08:46.999Z</time></trkpt><trkpt lat="44.014480838433634" lon="7.97065224500019"><ele>476.0</ele><time>2026-05-03T14:08:47.999Z</time></trkpt><trkpt lat="44.0145035919362" lon="7.970768064475338"><ele>476.0</ele><time>2026-05-03T14:08:48.999Z</time></trkpt><trkpt lat="44.01454494877742" lon="7.970899160909522"><ele>475.99999999999994</ele><time>2026-05-03T14:08:49.999Z</time></trkpt><trkpt lat="44.01455962311321" lon="7.971037322761029"><ele>476.0</ele><time>2026-05-03T14:08:50.999Z</time></trkpt><trkpt lat="44.01456122194059" lon="7.971143905486538"><ele>475.49999999999994</ele><time>2026-05-03T14:08:51.999Z</time></trkpt><trkpt lat="44.01457213788747" lon="7.971245667975576"><ele>475.0</ele><time>2026-05-03T14:08:52.999Z</time></trkpt><trkpt lat="44.01460400155552" lon="7.971347355156146"><ele>474.5</ele><time>2026-05-03T14:08:53.999Z</time></trkpt><trkpt lat="44.01465826746155" lon="7.971450535314471"><ele>474.0</ele><time>2026-05-03T14:08:54.999Z</time></trkpt><trkpt lat="44.01473311447646" lon="7.971557887957024"><ele>473.49999999999994</ele><time>2026-05-03T14:08:55.999Z</time></trkpt><trkpt lat="44.0147727256472" lon="7.971643299705936"><ele>473.0</ele><time>2026-05-03T14:08:56.999Z</time></trkpt><trkpt lat="44.014836178635576" lon="7.971764262851031"><ele>472.99999999999994</ele><time>2026-05-03T14:08:57.999Z</time></trkpt><trkpt lat="44.01486912218471" lon="7.971863402458677"><ele>473.0</ele><time>2026-05-03T14:08:58.999Z</time></trkpt><trkpt lat="44.01492178782049" lon="7.971952208566857"><ele>473.0</ele><time>2026-05-03T14:08:59.999Z</time></trkpt><trkpt lat="44.014998821101926" lon="7.972024898568274"><ele>473.0</ele><time>2026-05-03T14:09:00.999Z</time></trkpt><trkpt lat="44.01506576040329" lon="7.972103818886007"><ele>472.99999999999994</ele><time>2026-05-03T14:09:01.999Z</time></trkpt><trkpt lat="44.015125077923074" lon="7.9721839863518875"><ele>473.0</ele><time>2026-05-03T14:09:02.999Z</time></trkpt><trkpt lat="44.01518012945804" lon="7.9722422781928906"><ele>476.16666666666663</ele><time>2026-05-03T14:09:03.999Z</time></trkpt><trkpt lat="44.01522379071177" lon="7.972319710514591"><ele>479.3333333333333</ele><time>2026-05-03T14:09:04.999Z</time></trkpt><trkpt lat="44.01522792787391" lon="7.972437233166053"><ele>482.5</ele><time>2026-05-03T14:09:06.999Z</time></trkpt><trkpt lat="44.01511692503759" lon="7.972507234749615"><ele>485.66666666666663</ele><time>2026-05-03T14:09:08.999Z</time></trkpt><trkpt lat="44.01504832110135" lon="7.9725412951274715"><ele>488.8333333333333</ele><time>2026-05-03T14:09:09.999Z</time></trkpt><trkpt lat="44.014974441736626" lon="7.972571046892614"><ele>492.0</ele><time>2026-05-03T14:09:10.999Z</time></trkpt><trkpt lat="44.01489695584645" lon="7.97258138117409"><ele>492.7142857142858</ele><time>2026-05-03T14:09:11.999Z</time></trkpt><trkpt lat="44.0148283503627" lon="7.972596623655813"><ele>493.42857142857144</ele><time>2026-05-03T14:09:12.999Z</time></trkpt><trkpt lat="44.014755248119734" lon="7.972601187362832"><ele>494.14285714285717</ele><time>2026-05-03T14:09:13.999Z</time></trkpt><trkpt lat="44.01469039562919" lon="7.972600945183637"><ele>494.8571428571429</ele><time>2026-05-03T14:09:14.999Z</time></trkpt><trkpt lat="44.01461879790537" lon="7.972631131106079"><ele>495.57142857142856</ele><time>2026-05-03T14:09:15.999Z</time></trkpt><trkpt lat="44.01454619121887" lon="7.972678269798255"><ele>496.2857142857143</ele><time>2026-05-03T14:09:16.999Z</time></trkpt><trkpt lat="44.01446075336294" lon="7.972673394899562"><ele>497.0</ele><time>2026-05-03T14:09:17.999Z</time></trkpt><trkpt lat="44.01438127404888" lon="7.972662411788808"><ele>497.0</ele><time>2026-05-03T14:09:18.999Z</time></trkpt><trkpt lat="44.01431368394972" lon="7.972672895231278"><ele>497.00000000000006</ele><time>2026-05-03T14:09:19.999Z</time></trkpt><trkpt lat="44.01424162570177" lon="7.972818386233326"><ele>497.00000000000006</ele><time>2026-05-03T14:09:22Z</time></trkpt><trkpt lat="44.01421459172052" lon="7.9729438685387235"><ele>497.0</ele><time>2026-05-03T14:09:23Z</time></trkpt><trkpt lat="44.01417165530281" lon="7.9730743618700455"><ele>497.0</ele><time>2026-05-03T14:09:24Z</time></trkpt><trkpt lat="44.01410603273272" lon="7.973192007998938"><ele>500.16666666666663</ele><time>2026-05-03T14:09:25Z</time></trkpt><trkpt lat="44.014031966896205" lon="7.973275669529624"><ele>503.3333333333333</ele><time>2026-05-03T14:09:26Z</time></trkpt><trkpt lat="44.013983895637345" lon="7.973357899633986"><ele>506.5</ele><time>2026-05-03T14:09:27Z</time></trkpt><trkpt lat="44.01396048413727" lon="7.973462692048605"><ele>509.66666666666663</ele><time>2026-05-03T14:09:28Z</time></trkpt><trkpt lat="44.01394896429473" lon="7.973574007436503"><ele>512.8333333333334</ele><time>2026-05-03T14:09:29Z</time></trkpt><trkpt lat="44.01392721894839" lon="7.973675075240233"><ele>516.0</ele><time>2026-05-03T14:09:30Z</time></trkpt><trkpt lat="44.01385213172647" lon="7.97373766559668"><ele>516.0</ele><time>2026-05-03T14:09:32Z</time></trkpt><trkpt lat="44.01375723937113" lon="7.9736266576208985"><ele>516.0</ele><time>2026-05-03T14:09:34Z</time></trkpt><trkpt lat="44.013731935619774" lon="7.973522499821683"><ele>516.0</ele><time>2026-05-03T14:09:35Z</time></trkpt><trkpt lat="44.01370474377682" lon="7.973418455110087"><ele>516.0</ele><time>2026-05-03T14:09:36Z</time></trkpt><trkpt lat="44.01366833560034" lon="7.973308890663977"><ele>516.0</ele><time>2026-05-03T14:09:37Z</time></trkpt><trkpt lat="44.013626345919526" lon="7.973215889919475"><ele>516.0</ele><time>2026-05-03T14:09:38Z</time></trkpt><trkpt lat="44.01356920451225" lon="7.973133556801466"><ele>516.0</ele><time>2026-05-03T14:09:39Z</time></trkpt><trkpt lat="44.01350077093007" lon="7.9730433500167015"><ele>516.0</ele><time>2026-05-03T14:09:40Z</time></trkpt><trkpt lat="44.01343617145494" lon="7.9729809567037675"><ele>516.0</ele><time>2026-05-03T14:09:41Z</time></trkpt><trkpt lat="44.01339279285504" lon="7.9729138218313995"><ele>516.0</ele><time>2026-05-03T14:09:42Z</time></trkpt><trkpt lat="44.01329617564815" lon="7.9728257246333145"><ele>516.0</ele><time>2026-05-03T14:09:44Z</time></trkpt><trkpt lat="44.01323112687561" lon="7.972775193840592"><ele>516.0</ele><time>2026-05-03T14:09:45Z</time></trkpt><trkpt lat="44.0131906153516" lon="7.972698601694836"><ele>516.5</ele><time>2026-05-03T14:09:46Z</time></trkpt><trkpt lat="44.01317425266873" lon="7.9726049204741685"><ele>517.0</ele><time>2026-05-03T14:09:47Z</time></trkpt><trkpt lat="44.0131252670709" lon="7.972487392967957"><ele>517.5</ele><time>2026-05-03T14:09:49Z</time></trkpt><trkpt lat="44.013011494854766" lon="7.97247953882399"><ele>518.0</ele><time>2026-05-03T14:09:51Z</time></trkpt><trkpt lat="44.01294800179571" lon="7.97252655865085"><ele>518.5</ele><time>2026-05-03T14:09:52Z</time></trkpt><trkpt lat="44.01288798113719" lon="7.972590162313723"><ele>519.0</ele><time>2026-05-03T14:09:53Z</time></trkpt><trkpt lat="44.01282631306096" lon="7.972683566607298"><ele>519.0</ele><time>2026-05-03T14:09:54Z</time></trkpt><trkpt lat="44.01276717676637" lon="7.972789738798951"><ele>519.0</ele><time>2026-05-03T14:09:55Z</time></trkpt><trkpt lat="44.0127024028117" lon="7.972887880925357"><ele>519.0</ele><time>2026-05-03T14:09:56Z</time></trkpt><trkpt lat="44.01264310075447" lon="7.972967376789439"><ele>519.0</ele><time>2026-05-03T14:09:57Z</time></trkpt><trkpt lat="44.01261044643755" lon="7.97305539417736"><ele>519.0</ele><time>2026-05-03T14:09:58Z</time></trkpt><trkpt lat="44.012595106983596" lon="7.973152201432988"><ele>519.0</ele><time>2026-05-03T14:09:59Z</time></trkpt><trkpt lat="44.01257881418854" lon="7.973242179536167"><ele>521.2</ele><time>2026-05-03T14:10:00Z</time></trkpt><trkpt lat="44.012538208002915" lon="7.973379712095861"><ele>523.4</ele><time>2026-05-03T14:10:01Z</time></trkpt><trkpt lat="44.01248966359279" lon="7.9734392007738535"><ele>525.6</ele><time>2026-05-03T14:10:02Z</time></trkpt><trkpt lat="44.01237129274027" lon="7.9734820286912536"><ele>527.8</ele><time>2026-05-03T14:10:04Z</time></trkpt><trkpt lat="44.01231279425835" lon="7.973642243311685"><ele>530.0</ele><time>2026-05-03T14:10:06Z</time></trkpt><trkpt lat="44.012293361980895" lon="7.9737368476882775"><ele>530.0</ele><time>2026-05-03T14:10:07Z</time></trkpt><trkpt lat="44.01223762121226" lon="7.973807801769303"><ele>530.0</ele><time>2026-05-03T14:10:08Z</time></trkpt><trkpt lat="44.01214958456326" lon="7.973861974668476"><ele>530.0</ele><time>2026-05-03T14:10:09Z</time></trkpt><trkpt lat="44.01207565784287" lon="7.97393111573442"><ele>530.0</ele><time>2026-05-03T14:10:10Z</time></trkpt><trkpt lat="44.01209013207697" lon="7.974146500858418"><ele>530.0</ele><time>2026-05-03T14:10:11Z</time></trkpt><trkpt lat="44.012029554686485" lon="7.974208866665278"><ele>535.3333333333333</ele><time>2026-05-03T14:10:12Z</time></trkpt><trkpt lat="44.01197301503895" lon="7.974270716583883"><ele>540.6666666666666</ele><time>2026-05-03T14:10:13Z</time></trkpt><trkpt lat="44.01192075870782" lon="7.97432538801893"><ele>546.0</ele><time>2026-05-03T14:10:14Z</time></trkpt><trkpt lat="44.01185406833467" lon="7.974388374040622"><ele>551.3333333333334</ele><time>2026-05-03T14:10:16Z</time></trkpt><trkpt lat="44.01179020259743" lon="7.974409265817127"><ele>556.6666666666667</ele><time>2026-05-03T14:10:17Z</time></trkpt><trkpt lat="44.01170251852695" lon="7.974395198318606"><ele>562.0</ele><time>2026-05-03T14:10:17.999Z</time></trkpt><trkpt lat="44.011596889658406" lon="7.974339038977375"><ele>562.0</ele><time>2026-05-03T14:10:18.999Z</time></trkpt><trkpt lat="44.01148528408147" lon="7.974264129504253"><ele>562.0</ele><time>2026-05-03T14:10:19.999Z</time></trkpt><trkpt lat="44.011371512072444" lon="7.974214982390186"><ele>562.0</ele><time>2026-05-03T14:10:20.999Z</time></trkpt><trkpt lat="44.0112725059868" lon="7.974210663410853"><ele>562.0</ele><time>2026-05-03T14:10:21.999Z</time></trkpt><trkpt lat="44.01116856873523" lon="7.974195902000859"><ele>562.0</ele><time>2026-05-03T14:10:22.999Z</time></trkpt><trkpt lat="44.01105370499121" lon="7.974231769235872"><ele>562.0</ele><time>2026-05-03T14:10:23.999Z</time></trkpt><trkpt lat="44.01093536351881" lon="7.9742478885961114"><ele>562.0</ele><time>2026-05-03T14:10:24.999Z</time></trkpt><trkpt lat="44.010828112377624" lon="7.974272953960156"><ele>562.0</ele><time>2026-05-03T14:10:25.999Z</time></trkpt><trkpt lat="44.01074474442494" lon="7.9743602857817875"><ele>562.0</ele><time>2026-05-03T14:10:26.999Z</time></trkpt><trkpt lat="44.010667278088754" lon="7.97445810679928"><ele>562.0</ele><time>2026-05-03T14:10:27.999Z</time></trkpt><trkpt lat="44.01057328500875" lon="7.974545372107286"><ele>562.1666666666667</ele><time>2026-05-03T14:10:28.999Z</time></trkpt><trkpt lat="44.01048871046797" lon="7.974606184320196"><ele>562.3333333333334</ele><time>2026-05-03T14:10:29.999Z</time></trkpt><trkpt lat="44.01040273722908" lon="7.974634114864527"><ele>562.5</ele><time>2026-05-03T14:10:30.999Z</time></trkpt><trkpt lat="44.01032313110438" lon="7.974612687731683"><ele>562.6666666666666</ele><time>2026-05-03T14:10:31.999Z</time></trkpt><trkpt lat="44.01026573797855" lon="7.974549642066547"><ele>562.8333333333333</ele><time>2026-05-03T14:10:32.999Z</time></trkpt><trkpt lat="44.01021725646981" lon="7.974491017030498"><ele>563.0</ele><time>2026-05-03T14:10:33.999Z</time></trkpt><trkpt lat="44.01008211429752" lon="7.974433647191374"><ele>563.0</ele><time>2026-05-03T14:10:35.999Z</time></trkpt><trkpt lat="44.0100373346046" lon="7.974311809237026"><ele>563.0</ele><time>2026-05-03T14:10:36.999Z</time></trkpt><trkpt lat="44.00996228218337" lon="7.974241385810697"><ele>563.0</ele><time>2026-05-03T14:10:37.999Z</time></trkpt><trkpt lat="44.00989116726267" lon="7.974193609134381"><ele>563.0</ele><time>2026-05-03T14:10:38.999Z</time></trkpt><trkpt lat="44.00982041013304" lon="7.974125858120952"><ele>563.0</ele><time>2026-05-03T14:10:39.999Z</time></trkpt><trkpt lat="44.009729652514686" lon="7.9740746661407025"><ele>559.4</ele><time>2026-05-03T14:10:40.999Z</time></trkpt><trkpt lat="44.00962828253663" lon="7.974079076753338"><ele>555.8</ele><time>2026-05-03T14:10:41.999Z</time></trkpt><trkpt lat="44.00952628163797" lon="7.97403193365784"><ele>552.2</ele><time>2026-05-03T14:10:42.999Z</time></trkpt><trkpt lat="44.00943082575922" lon="7.9739931712778604"><ele>548.6</ele><time>2026-05-03T14:10:43.999Z</time></trkpt><trkpt lat="44.00934547706844" lon="7.973940794501575"><ele>545.0</ele><time>2026-05-03T14:10:44.999Z</time></trkpt><trkpt lat="44.00924867643139" lon="7.973939348142581"><ele>541.5</ele><time>2026-05-03T14:10:45.999Z</time></trkpt><trkpt lat="44.00911484842396" lon="7.973936236404972"><ele>538.0</ele><time>2026-05-03T14:10:47.999Z</time></trkpt><trkpt lat="44.00901926333446" lon="7.974030955886968"><ele>534.5</ele><time>2026-05-03T14:10:48.999Z</time></trkpt><trkpt lat="44.00892969930955" lon="7.974107696808212"><ele>531.0</ele><time>2026-05-03T14:10:49.999Z</time></trkpt><trkpt lat="44.00882487400363" lon="7.974157389811374"><ele>530.3333333333334</ele><time>2026-05-03T14:10:50.999Z</time></trkpt><trkpt lat="44.0087435286389" lon="7.974211909964959"><ele>529.6666666666666</ele><time>2026-05-03T14:10:51.999Z</time></trkpt><trkpt lat="44.00867120929232" lon="7.974243211023215"><ele>529.0</ele><time>2026-05-03T14:10:53.999Z</time></trkpt><trkpt lat="44.008709775348635" lon="7.974392633758343"><ele>528.3333333333333</ele><time>2026-05-03T14:10:56.999Z</time></trkpt><trkpt lat="44.008761084082664" lon="7.974468932238546"><ele>527.6666666666666</ele><time>2026-05-03T14:10:57.999Z</time></trkpt><trkpt lat="44.00881130502644" lon="7.974558347744771"><ele>527.0</ele><time>2026-05-03T14:10:58.999Z</time></trkpt><trkpt lat="44.00878042496152" lon="7.974727331807012"><ele>527.0</ele><time>2026-05-03T14:10:59.999Z</time></trkpt><trkpt lat="44.00882090516673" lon="7.974803607855552"><ele>527.0</ele><time>2026-05-03T14:11:00.999Z</time></trkpt><trkpt lat="44.00886444746447" lon="7.974887787824737"><ele>527.0</ele><time>2026-05-03T14:11:01.999Z</time></trkpt><trkpt lat="44.00890370103957" lon="7.974968948524276"><ele>527.0</ele><time>2026-05-03T14:11:02.999Z</time></trkpt><trkpt lat="44.00895053966068" lon="7.9750697718633505"><ele>527.0</ele><time>2026-05-03T14:11:03.999Z</time></trkpt><trkpt lat="44.00900781067989" lon="7.975165150093516"><ele>527.0</ele><time>2026-05-03T14:11:04.999Z</time></trkpt><trkpt lat="44.0090790778468" lon="7.975247934128887"><ele>525.6666666666666</ele><time>2026-05-03T14:11:05.999Z</time></trkpt><trkpt lat="44.00914952347524" lon="7.975312170565263"><ele>524.3333333333333</ele><time>2026-05-03T14:11:06.999Z</time></trkpt><trkpt lat="44.00920524800511" lon="7.975369454815821"><ele>523.0</ele><time>2026-05-03T14:11:07.999Z</time></trkpt><trkpt lat="44.009256740443156" lon="7.975438897221613"><ele>521.6666666666666</ele><time>2026-05-03T14:11:08.999Z</time></trkpt><trkpt lat="44.00930387343082" lon="7.975522879998878"><ele>520.3333333333334</ele><time>2026-05-03T14:11:09.999Z</time></trkpt><trkpt lat="44.00934751196468" lon="7.975605696544023"><ele>519.0</ele><time>2026-05-03T14:11:10.999Z</time></trkpt><trkpt lat="44.00939207085725" lon="7.975694249959231"><ele>524.0</ele><time>2026-05-03T14:11:12.999Z</time></trkpt><trkpt lat="44.00946178886547" lon="7.975668301062079"><ele>529.0</ele><time>2026-05-03T14:11:14.999Z</time></trkpt><trkpt lat="44.00946010293382" lon="7.97553435041355"><ele>534.0</ele><time>2026-05-03T14:11:17.999Z</time></trkpt><trkpt lat="44.00953967682165" lon="7.975644759143146"><ele>539.0</ele><time>2026-05-03T14:11:21.999Z</time></trkpt><trkpt lat="44.00956518230363" lon="7.975795449879574"><ele>544.0</ele><time>2026-05-03T14:11:22.999Z</time></trkpt><trkpt lat="44.00960080849807" lon="7.975962527496907"><ele>544.0</ele><time>2026-05-03T14:11:23.999Z</time></trkpt><trkpt lat="44.009644646962755" lon="7.976143022047676"><ele>544.0</ele><time>2026-05-03T14:11:24.999Z</time></trkpt><trkpt lat="44.0097408618331" lon="7.976308950742592"><ele>544.0</ele><time>2026-05-03T14:11:25.999Z</time></trkpt><trkpt lat="44.00979869271563" lon="7.976495675805282"><ele>544.0</ele><time>2026-05-03T14:11:26.999Z</time></trkpt><trkpt lat="44.00985798776405" lon="7.976642875980079"><ele>541.8</ele><time>2026-05-03T14:11:28Z</time></trkpt><trkpt lat="44.00991992526346" lon="7.976772705651986"><ele>539.5999999999999</ele><time>2026-05-03T14:11:29Z</time></trkpt><trkpt lat="44.01000213821852" lon="7.976880574776828"><ele>537.4</ele><time>2026-05-03T14:11:30Z</time></trkpt><trkpt lat="44.010103692303254" lon="7.976952127504112"><ele>535.1999999999999</ele><time>2026-05-03T14:11:31Z</time></trkpt><trkpt lat="44.01016348612968" lon="7.977075871140004"><ele>533.0</ele><time>2026-05-03T14:11:32Z</time></trkpt><trkpt lat="44.01022581135571" lon="7.977193682633314"><ele>542.1999999999999</ele><time>2026-05-03T14:11:33Z</time></trkpt><trkpt lat="44.01027432829934" lon="7.977304230506285"><ele>551.4</ele><time>2026-05-03T14:11:34Z</time></trkpt><trkpt lat="44.0103112345137" lon="7.977396198422939"><ele>560.5999999999999</ele><time>2026-05-03T14:11:35Z</time></trkpt><trkpt lat="44.01026203824943" lon="7.977492756326928"><ele>569.8</ele><time>2026-05-03T14:11:36Z</time></trkpt><trkpt lat="44.01018037954583" lon="7.977564232784559"><ele>579.0</ele><time>2026-05-03T14:11:37Z</time></trkpt><trkpt lat="44.010113124741935" lon="7.977684322987758"><ele>579.5</ele><time>2026-05-03T14:11:38Z</time></trkpt><trkpt lat="44.01008885778927" lon="7.977807700024849"><ele>580.0</ele><time>2026-05-03T14:11:39Z</time></trkpt><trkpt lat="44.010153434337646" lon="7.977955593513994"><ele>580.5</ele><time>2026-05-03T14:11:40Z</time></trkpt><trkpt lat="44.010221155779824" lon="7.978091752062515"><ele>581.0</ele><time>2026-05-03T14:11:41Z</time></trkpt><trkpt lat="44.01025030613463" lon="7.978245622970875"><ele>581.4</ele><time>2026-05-03T14:11:42Z</time></trkpt><trkpt lat="44.010268220468" lon="7.978389878700242"><ele>581.8</ele><time>2026-05-03T14:11:43Z</time></trkpt><trkpt lat="44.01026659244554" lon="7.9785394137211405"><ele>582.1999999999999</ele><time>2026-05-03T14:11:44Z</time></trkpt><trkpt lat="44.010265712915945" lon="7.978693485611759"><ele>582.6</ele><time>2026-05-03T14:11:45Z</time></trkpt><trkpt lat="44.01028927107302" lon="7.978854224386368"><ele>583.0</ele><time>2026-05-03T14:11:46Z</time></trkpt><trkpt lat="44.01030465366987" lon="7.97901520547787"><ele>583.0</ele><time>2026-05-03T14:11:47Z</time></trkpt><trkpt lat="44.01032653852905" lon="7.979168260562907"><ele>583.0</ele><time>2026-05-03T14:11:48Z</time></trkpt><trkpt lat="44.01034896177838" lon="7.979315479161658"><ele>583.0</ele><time>2026-05-03T14:11:49Z</time></trkpt><trkpt lat="44.010291841434366" lon="7.979450583573489"><ele>583.0</ele><time>2026-05-03T14:11:50Z</time></trkpt><trkpt lat="44.010286272022896" lon="7.979584248930351"><ele>583.0</ele><time>2026-05-03T14:11:51Z</time></trkpt><trkpt lat="44.01028513475545" lon="7.979730980489505"><ele>587.0</ele><time>2026-05-03T14:11:52Z</time></trkpt><trkpt lat="44.010272582499425" lon="7.97987307968754"><ele>591.0</ele><time>2026-05-03T14:11:53Z</time></trkpt><trkpt lat="44.01019157992431" lon="7.979980784315056"><ele>595.0</ele><time>2026-05-03T14:11:54Z</time></trkpt><trkpt lat="44.010111660274234" lon="7.980108431956922"><ele>599.0</ele><time>2026-05-03T14:11:55Z</time></trkpt><trkpt lat="44.0100308454636" lon="7.980246555096024"><ele>594.75</ele><time>2026-05-03T14:11:56Z</time></trkpt><trkpt lat="44.00997396477103" lon="7.9804054519435095"><ele>590.5</ele><time>2026-05-03T14:11:57Z</time></trkpt><trkpt lat="44.00991846242709" lon="7.980554437303738"><ele>586.25</ele><time>2026-05-03T14:11:58Z</time></trkpt><trkpt lat="44.009850427914515" lon="7.980686197636582"><ele>582.0</ele><time>2026-05-03T14:11:59Z</time></trkpt><trkpt lat="44.009788567898006" lon="7.9808148251920095"><ele>583.8000000000001</ele><time>2026-05-03T14:12:00Z</time></trkpt><trkpt lat="44.00972359108584" lon="7.980938016823886"><ele>585.6</ele><time>2026-05-03T14:12:01Z</time></trkpt><trkpt lat="44.009675352680475" lon="7.981062222996853"><ele>587.4000000000001</ele><time>2026-05-03T14:12:02Z</time></trkpt><trkpt lat="44.00967171345173" lon="7.981194836739229"><ele>589.2</ele><time>2026-05-03T14:12:03Z</time></trkpt><trkpt lat="44.00972299730016" lon="7.981353387249052"><ele>591.0</ele><time>2026-05-03T14:12:04Z</time></trkpt><trkpt lat="44.00974955598798" lon="7.981511039469677"><ele>591.0</ele><time>2026-05-03T14:12:05Z</time></trkpt><trkpt lat="44.00978530270743" lon="7.981660305951525"><ele>591.0</ele><time>2026-05-03T14:12:06Z</time></trkpt><trkpt lat="44.00983003342359" lon="7.981815132409248"><ele>591.0</ele><time>2026-05-03T14:12:07Z</time></trkpt><trkpt lat="44.00989710054355" lon="7.981960722531965"><ele>591.0</ele><time>2026-05-03T14:12:08Z</time></trkpt><trkpt lat="44.00993668690621" lon="7.9821298814950215"><ele>589.6</ele><time>2026-05-03T14:12:09Z</time></trkpt><trkpt lat="44.00998525674468" lon="7.982279806409377"><ele>588.2</ele><time>2026-05-03T14:12:10Z</time></trkpt><trkpt lat="44.01000746255506" lon="7.982412150776779"><ele>586.8</ele><time>2026-05-03T14:12:11Z</time></trkpt><trkpt lat="44.010007987787205" lon="7.982567445621805"><ele>585.4</ele><time>2026-05-03T14:12:12Z</time></trkpt><trkpt lat="44.01000921612413" lon="7.982736084237473"><ele>584.0</ele><time>2026-05-03T14:12:13Z</time></trkpt><trkpt lat="44.01002973256248" lon="7.9829016440189084"><ele>584.25</ele><time>2026-05-03T14:12:14Z</time></trkpt><trkpt lat="44.010033848804554" lon="7.983063592839934"><ele>584.5</ele><time>2026-05-03T14:12:15Z</time></trkpt><trkpt lat="44.01001471961287" lon="7.983222084325612"><ele>584.75</ele><time>2026-05-03T14:12:16Z</time></trkpt><trkpt lat="44.00992889081005" lon="7.98334599426964"><ele>585.0</ele><time>2026-05-03T14:12:17Z</time></trkpt><trkpt lat="44.00987631926103" lon="7.983506831641541"><ele>588.25</ele><time>2026-05-03T14:12:18Z</time></trkpt><trkpt lat="44.00983794394574" lon="7.9836623986177315"><ele>591.5</ele><time>2026-05-03T14:12:19Z</time></trkpt><trkpt lat="44.00983503780682" lon="7.983828915002317"><ele>594.75</ele><time>2026-05-03T14:12:20Z</time></trkpt><trkpt lat="44.009843943926036" lon="7.9839954648407545"><ele>598.0</ele><time>2026-05-03T14:12:21Z</time></trkpt><trkpt lat="44.00982805115141" lon="7.984159366854167"><ele>602.75</ele><time>2026-05-03T14:12:22Z</time></trkpt><trkpt lat="44.00977098751398" lon="7.984308730710262"><ele>607.5</ele><time>2026-05-03T14:12:23Z</time></trkpt><trkpt lat="44.009666681472794" lon="7.984417463488423"><ele>612.25</ele><time>2026-05-03T14:12:23.999Z</time></trkpt><trkpt lat="44.00958935830278" lon="7.984558826429617"><ele>617.0</ele><time>2026-05-03T14:12:24.999Z</time></trkpt><trkpt lat="44.00950681320273" lon="7.984697461603984"><ele>617.0</ele><time>2026-05-03T14:12:25.999Z</time></trkpt><trkpt lat="44.009447531141916" lon="7.984859719024209"><ele>617.0</ele><time>2026-05-03T14:12:26.999Z</time></trkpt><trkpt lat="44.00939608812753" lon="7.985007025377099"><ele>617.0</ele><time>2026-05-03T14:12:27.999Z</time></trkpt><trkpt lat="44.009355976980416" lon="7.985126209543376"><ele>617.0</ele><time>2026-05-03T14:12:28.999Z</time></trkpt><trkpt lat="44.0093263716753" lon="7.985253117964645"><ele>617.0</ele><time>2026-05-03T14:12:29.999Z</time></trkpt><trkpt lat="44.009347105261725" lon="7.985391494277799"><ele>619.5</ele><time>2026-05-03T14:12:30.999Z</time></trkpt><trkpt lat="44.009417193145836" lon="7.985532381220983"><ele>622.0</ele><time>2026-05-03T14:12:31.999Z</time></trkpt><trkpt lat="44.00948184022672" lon="7.985681772135883"><ele>624.5</ele><time>2026-05-03T14:12:32.999Z</time></trkpt><trkpt lat="44.00949459316918" lon="7.9858474482599515"><ele>627.0</ele><time>2026-05-03T14:12:33.999Z</time></trkpt><trkpt lat="44.009415969274066" lon="7.986001502349118"><ele>630.75</ele><time>2026-05-03T14:12:34.999Z</time></trkpt><trkpt lat="44.00940801171346" lon="7.986158977527395"><ele>634.5</ele><time>2026-05-03T14:12:35.999Z</time></trkpt><trkpt lat="44.00945962102794" lon="7.986332178941409"><ele>638.25</ele><time>2026-05-03T14:12:36.999Z</time></trkpt><trkpt lat="44.00949561597738" lon="7.986507468132162"><ele>642.0</ele><time>2026-05-03T14:12:37.999Z</time></trkpt><trkpt lat="44.009473925348914" lon="7.986681195455942"><ele>647.0</ele><time>2026-05-03T14:12:38.999Z</time></trkpt><trkpt lat="44.00945999865586" lon="7.986853047309793"><ele>652.0</ele><time>2026-05-03T14:12:39.999Z</time></trkpt><trkpt lat="44.00941322767427" lon="7.987002526842609"><ele>657.0</ele><time>2026-05-03T14:12:40.999Z</time></trkpt><trkpt lat="44.0093334675765" lon="7.987117386981353"><ele>662.0</ele><time>2026-05-03T14:12:41.999Z</time></trkpt><trkpt lat="44.00922537530556" lon="7.987193793964806"><ele>661.2</ele><time>2026-05-03T14:12:42.999Z</time></trkpt><trkpt lat="44.00910750046086" lon="7.987248194538933"><ele>660.4000000000001</ele><time>2026-05-03T14:12:43.999Z</time></trkpt><trkpt lat="44.0090105777173" lon="7.987279450373936"><ele>659.5999999999999</ele><time>2026-05-03T14:12:44.999Z</time></trkpt><trkpt lat="44.00894058955548" lon="7.987336356895755"><ele>658.8</ele><time>2026-05-03T14:12:45.999Z</time></trkpt><trkpt lat="44.0089125591721" lon="7.9874933742796745"><ele>658.0</ele><time>2026-05-03T14:12:46.999Z</time></trkpt><trkpt lat="44.00889238834748" lon="7.987679846641912"><ele>658.0</ele><time>2026-05-03T14:12:47.999Z</time></trkpt><trkpt lat="44.00885918532656" lon="7.987838973608472"><ele>658.0</ele><time>2026-05-03T14:12:48.999Z</time></trkpt><trkpt lat="44.0088052064818" lon="7.987979884770929"><ele>658.0</ele><time>2026-05-03T14:12:49.999Z</time></trkpt><trkpt lat="44.008708222341674" lon="7.988081801041848"><ele>658.0</ele><time>2026-05-03T14:12:50.999Z</time></trkpt><trkpt lat="44.00863854566229" lon="7.98819148419406"><ele>658.0</ele><time>2026-05-03T14:12:51.999Z</time></trkpt><trkpt lat="44.00856055750924" lon="7.98827929899168"><ele>658.0</ele><time>2026-05-03T14:12:52.999Z</time></trkpt><trkpt lat="44.00844941293405" lon="7.988307805331252"><ele>658.0</ele><time>2026-05-03T14:12:53.999Z</time></trkpt><trkpt lat="44.00834928156565" lon="7.988369022665984"><ele>658.0</ele><time>2026-05-03T14:12:54.999Z</time></trkpt><trkpt lat="44.008265259017826" lon="7.988471930856085"><ele>658.0</ele><time>2026-05-03T14:12:55.999Z</time></trkpt><trkpt lat="44.00815623935979" lon="7.988573870288997"><ele>656.0</ele><time>2026-05-03T14:12:56.999Z</time></trkpt><trkpt lat="44.008040501363695" lon="7.988681682339504"><ele>654.0</ele><time>2026-05-03T14:12:57.999Z</time></trkpt><trkpt lat="44.007956500597416" lon="7.988760322941596"><ele>652.0</ele><time>2026-05-03T14:12:58.999Z</time></trkpt><trkpt lat="44.00791207643172" lon="7.988847791898564"><ele>650.0</ele><time>2026-05-03T14:12:59.999Z</time></trkpt><trkpt lat="44.007924389940015" lon="7.9889924994721095"><ele>648.0</ele><time>2026-05-03T14:13:00.999Z</time></trkpt><trkpt lat="44.00794362569466" lon="7.989162232113915"><ele>653.5</ele><time>2026-05-03T14:13:01.999Z</time></trkpt><trkpt lat="44.007944240381946" lon="7.989336412591509"><ele>659.0</ele><time>2026-05-03T14:13:02.999Z</time></trkpt><trkpt lat="44.00788564851919" lon="7.98948777080783"><ele>664.5</ele><time>2026-05-03T14:13:03.999Z</time></trkpt><trkpt lat="44.00783554101636" lon="7.989638576384687"><ele>670.0</ele><time>2026-05-03T14:13:04.999Z</time></trkpt><trkpt lat="44.00775565340407" lon="7.989766420370621"><ele>670.0</ele><time>2026-05-03T14:13:05.999Z</time></trkpt><trkpt lat="44.00767025598781" lon="7.989886236477523"><ele>670.0</ele><time>2026-05-03T14:13:06.999Z</time></trkpt><trkpt lat="44.007591142032666" lon="7.99000818322776"><ele>670.0</ele><time>2026-05-03T14:13:07.999Z</time></trkpt><trkpt lat="44.00752430596732" lon="7.990137637099972"><ele>670.0</ele><time>2026-05-03T14:13:08.999Z</time></trkpt><trkpt lat="44.007462084943754" lon="7.990266536499413"><ele>669.1666666666667</ele><time>2026-05-03T14:13:09.999Z</time></trkpt><trkpt lat="44.00739095520051" lon="7.990382147046889"><ele>668.3333333333334</ele><time>2026-05-03T14:13:10.999Z</time></trkpt><trkpt lat="44.00733106953942" lon="7.990480097751851"><ele>667.5</ele><time>2026-05-03T14:13:11.999Z</time></trkpt><trkpt lat="44.00729053217855" lon="7.9905665619591995"><ele>666.6666666666666</ele><time>2026-05-03T14:13:12.999Z</time></trkpt><trkpt lat="44.00725102874644" lon="7.990660233673628"><ele>665.8333333333333</ele><time>2026-05-03T14:13:13.999Z</time></trkpt><trkpt lat="44.007207817168876" lon="7.990737017404039"><ele>665.0</ele><time>2026-05-03T14:13:14.999Z</time></trkpt><trkpt lat="44.00719109993408" lon="7.990822526390446"><ele>667.6666666666666</ele><time>2026-05-03T14:13:15.999Z</time></trkpt><trkpt lat="44.00715680992311" lon="7.990901770879475"><ele>670.3333333333333</ele><time>2026-05-03T14:13:16.999Z</time></trkpt><trkpt lat="44.007080455905744" lon="7.991024331453977"><ele>673.0</ele><time>2026-05-03T14:13:18.999Z</time></trkpt><trkpt lat="44.00703524779884" lon="7.991088133790566"><ele>675.6666666666666</ele><time>2026-05-03T14:13:19.999Z</time></trkpt><trkpt lat="44.006975977113015" lon="7.991165078982071"><ele>678.3333333333334</ele><time>2026-05-03T14:13:20.999Z</time></trkpt><trkpt lat="44.00691066279333" lon="7.991246035811038"><ele>681.0</ele><time>2026-05-03T14:13:21.999Z</time></trkpt><trkpt lat="44.0068466450793" lon="7.991329293415244"><ele>681.0</ele><time>2026-05-03T14:13:22.999Z</time></trkpt><trkpt lat="44.00678888125103" lon="7.991409696653592"><ele>681.0</ele><time>2026-05-03T14:13:23.999Z</time></trkpt><trkpt lat="44.006750512275914" lon="7.991482662335849"><ele>681.0</ele><time>2026-05-03T14:13:24.999Z</time></trkpt><trkpt lat="44.00668492875094" lon="7.991619539860488"><ele>681.0</ele><time>2026-05-03T14:13:26.999Z</time></trkpt><trkpt lat="44.00661282214908" lon="7.9917492350082515"><ele>681.0</ele><time>2026-05-03T14:13:28.999Z</time></trkpt><trkpt lat="44.006233473858636" lon="7.991522275828789"><ele>683.8</ele><time>2026-05-03T14:13:29.999Z</time></trkpt><trkpt lat="44.00614468862676" lon="7.991540640698057"><ele>686.5999999999999</ele><time>2026-05-03T14:13:30.999Z</time></trkpt><trkpt lat="44.00605778097155" lon="7.991551170342864"><ele>689.4</ele><time>2026-05-03T14:13:31.999Z</time></trkpt><trkpt lat="44.00597463067104" lon="7.991573132854477"><ele>692.2</ele><time>2026-05-03T14:13:32.999Z</time></trkpt><trkpt lat="44.00587325887718" lon="7.991582381246345"><ele>695.0</ele><time>2026-05-03T14:13:34Z</time></trkpt><trkpt lat="44.005782724856275" lon="7.99158602615295"><ele>695.0</ele><time>2026-05-03T14:13:35Z</time></trkpt><trkpt lat="44.005693448787696" lon="7.991603310631167"><ele>695.0</ele><time>2026-05-03T14:13:36Z</time></trkpt><trkpt lat="44.00561230928973" lon="7.991627213925376"><ele>695.0</ele><time>2026-05-03T14:13:37Z</time></trkpt><trkpt lat="44.005562413759705" lon="7.991684952101782"><ele>695.0</ele><time>2026-05-03T14:13:38Z</time></trkpt><trkpt lat="44.005514607244685" lon="7.991756761451676"><ele>695.0</ele><time>2026-05-03T14:13:39Z</time></trkpt><trkpt lat="44.005462042769054" lon="7.991842607289878"><ele>695.0</ele><time>2026-05-03T14:13:40Z</time></trkpt><trkpt lat="44.005403391955724" lon="7.991939978268832"><ele>694.2</ele><time>2026-05-03T14:13:41Z</time></trkpt><trkpt lat="44.00534101466146" lon="7.992039430849399"><ele>693.4</ele><time>2026-05-03T14:13:42Z</time></trkpt><trkpt lat="44.00526466935237" lon="7.992121745299968"><ele>692.5999999999999</ele><time>2026-05-03T14:13:43Z</time></trkpt><trkpt lat="44.00516894522047" lon="7.9921572114407775"><ele>691.8</ele><time>2026-05-03T14:13:44Z</time></trkpt><trkpt lat="44.00506969841119" lon="7.992150487849847"><ele>691.0</ele><time>2026-05-03T14:13:45Z</time></trkpt><trkpt lat="44.00497708782957" lon="7.992129546848493"><ele>691.0</ele><time>2026-05-03T14:13:46Z</time></trkpt><trkpt lat="44.00489033181276" lon="7.992116236752494"><ele>691.0</ele><time>2026-05-03T14:13:47Z</time></trkpt><trkpt lat="44.004804577514115" lon="7.992102989200255"><ele>691.0</ele><time>2026-05-03T14:13:48Z</time></trkpt><trkpt lat="44.004728245571464" lon="7.992117495695074"><ele>691.0</ele><time>2026-05-03T14:13:49Z</time></trkpt><trkpt lat="44.00467090326352" lon="7.992167652088583"><ele>691.0</ele><time>2026-05-03T14:13:50Z</time></trkpt><trkpt lat="44.00465821586345" lon="7.9923323433487905"><ele>691.0</ele><time>2026-05-03T14:13:52Z</time></trkpt><trkpt lat="44.00469302633467" lon="7.992440228251368"><ele>694.0</ele><time>2026-05-03T14:13:53Z</time></trkpt><trkpt lat="44.00471073500012" lon="7.992565561227556"><ele>697.0</ele><time>2026-05-03T14:13:54Z</time></trkpt><trkpt lat="44.00471810768426" lon="7.992700137998527"><ele>700.0</ele><time>2026-05-03T14:13:55Z</time></trkpt><trkpt lat="44.004712333246694" lon="7.992827588562473"><ele>703.0</ele><time>2026-05-03T14:13:56Z</time></trkpt><trkpt lat="44.00469413885723" lon="7.992943061639558"><ele>706.0</ele><time>2026-05-03T14:13:57Z</time></trkpt><trkpt lat="44.00467273121163" lon="7.9930738953096325"><ele>706.0</ele><time>2026-05-03T14:13:58Z</time></trkpt><trkpt lat="44.00464564563279" lon="7.993177551391059"><ele>706.0</ele><time>2026-05-03T14:13:59Z</time></trkpt><trkpt lat="44.0045908932643" lon="7.993286694105472"><ele>706.0</ele><time>2026-05-03T14:14:00Z</time></trkpt><trkpt lat="44.004526049752954" lon="7.993357933734777"><ele>706.0</ele><time>2026-05-03T14:14:01Z</time></trkpt><trkpt lat="44.00447521853175" lon="7.9934643600708215"><ele>706.0</ele><time>2026-05-03T14:14:02Z</time></trkpt><trkpt lat="44.00442249015627" lon="7.993607407432978"><ele>705.8333333333334</ele><time>2026-05-03T14:14:03Z</time></trkpt><trkpt lat="44.00437831260183" lon="7.993740845064501"><ele>705.6666666666667</ele><time>2026-05-03T14:14:04Z</time></trkpt><trkpt lat="44.00432835106696" lon="7.993829954101643"><ele>705.5</ele><time>2026-05-03T14:14:05Z</time></trkpt><trkpt lat="44.00428359129803" lon="7.993925176359786"><ele>705.3333333333334</ele><time>2026-05-03T14:14:06Z</time></trkpt><trkpt lat="44.00421881126712" lon="7.994004726452658"><ele>705.1666666666666</ele><time>2026-05-03T14:14:07Z</time></trkpt><trkpt lat="44.00415554893264" lon="7.994091057272194"><ele>705.0</ele><time>2026-05-03T14:14:08Z</time></trkpt><trkpt lat="44.00409527467341" lon="7.9941749666465185"><ele>712.1666666666666</ele><time>2026-05-03T14:14:09Z</time></trkpt><trkpt lat="44.00403094519061" lon="7.994255943987139"><ele>719.3333333333334</ele><time>2026-05-03T14:14:10Z</time></trkpt><trkpt lat="44.00396460018811" lon="7.99433193522387"><ele>726.5</ele><time>2026-05-03T14:14:11Z</time></trkpt><trkpt lat="44.003902920025574" lon="7.99441969439327"><ele>733.6666666666667</ele><time>2026-05-03T14:14:12Z</time></trkpt><trkpt lat="44.00384326122878" lon="7.994474528984421"><ele>740.8333333333334</ele><time>2026-05-03T14:14:13Z</time></trkpt><trkpt lat="44.003772196661835" lon="7.99450219746348"><ele>748.0</ele><time>2026-05-03T14:14:14Z</time></trkpt><trkpt lat="44.00369679891225" lon="7.994538158854896"><ele>748.0</ele><time>2026-05-03T14:14:15Z</time></trkpt><trkpt lat="44.00362958126565" lon="7.994590444566462"><ele>748.0</ele><time>2026-05-03T14:14:16Z</time></trkpt><trkpt lat="44.003549050461025" lon="7.994638933763883"><ele>748.0</ele><time>2026-05-03T14:14:17Z</time></trkpt><trkpt lat="44.00344679393413" lon="7.994658545176634"><ele>748.0</ele><time>2026-05-03T14:14:18Z</time></trkpt><trkpt lat="44.003330102306585" lon="7.994652438577324"><ele>748.0</ele><time>2026-05-03T14:14:19Z</time></trkpt><trkpt lat="44.00321931363728" lon="7.994632120994878"><ele>743.5999999999999</ele><time>2026-05-03T14:14:20Z</time></trkpt><trkpt lat="44.003116157030604" lon="7.9946276376996455"><ele>739.1999999999999</ele><time>2026-05-03T14:14:21Z</time></trkpt><trkpt lat="44.003004024658004" lon="7.994650472693932"><ele>734.8</ele><time>2026-05-03T14:14:22Z</time></trkpt><trkpt lat="44.002912800116476" lon="7.994675636980386"><ele>730.4</ele><time>2026-05-03T14:14:23Z</time></trkpt><trkpt lat="44.00284076451241" lon="7.994695408271194"><ele>726.0</ele><time>2026-05-03T14:14:24Z</time></trkpt><trkpt lat="44.00277395082379" lon="7.9947316625955445"><ele>726.0</ele><time>2026-05-03T14:14:25Z</time></trkpt><trkpt lat="44.00271520078792" lon="7.994798501428"><ele>726.0</ele><time>2026-05-03T14:14:26Z</time></trkpt><trkpt lat="44.002662058186736" lon="7.99489552779386"><ele>726.0</ele><time>2026-05-03T14:14:27Z</time></trkpt><trkpt lat="44.00262050202181" lon="7.995005065565305"><ele>726.0</ele><time>2026-05-03T14:14:28Z</time></trkpt><trkpt lat="44.00258005662148" lon="7.995102136276876"><ele>726.0</ele><time>2026-05-03T14:14:29Z</time></trkpt><trkpt lat="44.00252576664596" lon="7.995179138989578"><ele>726.0</ele><time>2026-05-03T14:14:30Z</time></trkpt><trkpt lat="44.00246793154572" lon="7.9952372334765895"><ele>725.1999999999999</ele><time>2026-05-03T14:14:31Z</time></trkpt><trkpt lat="44.002406567559504" lon="7.9953111601078435"><ele>724.4</ele><time>2026-05-03T14:14:32Z</time></trkpt><trkpt lat="44.00234073682303" lon="7.9954184745444525"><ele>723.6</ele><time>2026-05-03T14:14:33Z</time></trkpt><trkpt lat="44.00227674300013" lon="7.995533208085638"><ele>722.8</ele><time>2026-05-03T14:14:34Z</time></trkpt><trkpt lat="44.002226903076995" lon="7.995661371366444"><ele>722.0</ele><time>2026-05-03T14:14:35Z</time></trkpt><trkpt lat="44.00219566185471" lon="7.995790567995783"><ele>726.0</ele><time>2026-05-03T14:14:35.999Z</time></trkpt><trkpt lat="44.00216315658467" lon="7.995916773425469"><ele>730.0</ele><time>2026-05-03T14:14:36.999Z</time></trkpt><trkpt lat="44.002109534543635" lon="7.996011963281122"><ele>734.0</ele><time>2026-05-03T14:14:37.999Z</time></trkpt><trkpt lat="44.00204999538401" lon="7.996087009624757"><ele>738.0</ele><time>2026-05-03T14:14:38.999Z</time></trkpt><trkpt lat="44.00200808009393" lon="7.996172612280222"><ele>742.0</ele><time>2026-05-03T14:14:39.999Z</time></trkpt><trkpt lat="44.00203681694837" lon="7.996328066624741"><ele>742.0</ele><time>2026-05-03T14:14:41.999Z</time></trkpt><trkpt lat="44.00203788862706" lon="7.996435835400436"><ele>742.0</ele><time>2026-05-03T14:14:42.999Z</time></trkpt><trkpt lat="44.0019812783968" lon="7.996533191327879"><ele>742.0</ele><time>2026-05-03T14:14:43.999Z</time></trkpt><trkpt lat="44.00191447715733" lon="7.996615115235322"><ele>742.0</ele><time>2026-05-03T14:14:44.999Z</time></trkpt><trkpt lat="44.0018550751141" lon="7.996698309694097"><ele>742.0</ele><time>2026-05-03T14:14:45.999Z</time></trkpt><trkpt lat="44.00179837222589" lon="7.996791645260448"><ele>742.0</ele><time>2026-05-03T14:14:46.999Z</time></trkpt><trkpt lat="44.00175757202313" lon="7.9969020652453064"><ele>741.1666666666667</ele><time>2026-05-03T14:14:47.999Z</time></trkpt><trkpt lat="44.00173086814288" lon="7.9970129766975875"><ele>740.3333333333334</ele><time>2026-05-03T14:14:48.999Z</time></trkpt><trkpt lat="44.00168878296176" lon="7.997105948752704"><ele>739.5</ele><time>2026-05-03T14:14:49.999Z</time></trkpt><trkpt lat="44.00163876249717" lon="7.997164472897886"><ele>738.6666666666666</ele><time>2026-05-03T14:14:50.999Z</time></trkpt><trkpt lat="44.001568113842666" lon="7.997272386623742"><ele>737.8333333333333</ele><time>2026-05-03T14:14:52.999Z</time></trkpt><trkpt lat="44.001561083847946" lon="7.997365287761128"><ele>737.0</ele><time>2026-05-03T14:14:53.999Z</time></trkpt><trkpt lat="44.00153660807897" lon="7.9974832727283145"><ele>739.5</ele><time>2026-05-03T14:14:54.999Z</time></trkpt><trkpt lat="44.001501267219496" lon="7.997593715465085"><ele>742.0</ele><time>2026-05-03T14:14:55.999Z</time></trkpt><trkpt lat="44.001450458293014" lon="7.997708991820209"><ele>744.5</ele><time>2026-05-03T14:14:56.999Z</time></trkpt><trkpt lat="44.00139617080079" lon="7.997804919201296"><ele>747.0</ele><time>2026-05-03T14:14:57.999Z</time></trkpt><trkpt lat="44.00135118930433" lon="7.997868184048032"><ele>749.5</ele><time>2026-05-03T14:14:59.999Z</time></trkpt><trkpt lat="44.00124567848439" lon="7.997926271992178"><ele>752.0</ele><time>2026-05-03T14:15:04.999Z</time></trkpt><trkpt lat="44.0011987510936" lon="7.997995910296011"><ele>752.0</ele><time>2026-05-03T14:15:06.999Z</time></trkpt><trkpt lat="44.00114777570776" lon="7.998097572087135"><ele>752.0</ele><time>2026-05-03T14:15:11.999Z</time></trkpt><trkpt lat="44.001107031741334" lon="7.998174420779988"><ele>752.0</ele><time>2026-05-03T14:15:12.999Z</time></trkpt><trkpt lat="44.00107913393653" lon="7.998275443622802"><ele>752.0</ele><time>2026-05-03T14:15:13.999Z</time></trkpt><trkpt lat="44.00108924586844" lon="7.998380686841361"><ele>752.0</ele><time>2026-05-03T14:15:14.999Z</time></trkpt><trkpt lat="44.00112537983407" lon="7.998467440759274"><ele>752.0</ele><time>2026-05-03T14:15:15.999Z</time></trkpt><trkpt lat="44.001140875895516" lon="7.998583302374843"><ele>751.4000000000001</ele><time>2026-05-03T14:15:17.999Z</time></trkpt><trkpt lat="44.00104749409706" lon="7.998603364125278"><ele>750.8000000000001</ele><time>2026-05-03T14:15:18.999Z</time></trkpt><trkpt lat="44.00095231695798" lon="7.9985495805485"><ele>750.2</ele><time>2026-05-03T14:15:19.999Z</time></trkpt><trkpt lat="44.00084656658859" lon="7.998483260977682"><ele>749.6</ele><time>2026-05-03T14:15:20.999Z</time></trkpt><trkpt lat="44.00077226632909" lon="7.998477556451804"><ele>749.0</ele><time>2026-05-03T14:15:21.999Z</time></trkpt><trkpt lat="44.00072936996674" lon="7.998547526954256"><ele>749.0</ele><time>2026-05-03T14:15:22.999Z</time></trkpt><trkpt lat="44.000710212552875" lon="7.998662444191253"><ele>749.0</ele><time>2026-05-03T14:15:23.999Z</time></trkpt><trkpt lat="44.0006870941972" lon="7.998782663170126"><ele>749.0</ele><time>2026-05-03T14:15:24.999Z</time></trkpt><trkpt lat="44.0006187047763" lon="7.998836728811853"><ele>749.0</ele><time>2026-05-03T14:15:25.999Z</time></trkpt><trkpt lat="44.00051906244279" lon="7.99880116503531"><ele>749.0</ele><time>2026-05-03T14:15:26.999Z</time></trkpt><trkpt lat="44.000417210611296" lon="7.998791682967065"><ele>749.0</ele><time>2026-05-03T14:15:27.999Z</time></trkpt><trkpt lat="44.00032395320246" lon="7.998793434679032"><ele>749.0</ele><time>2026-05-03T14:15:28.999Z</time></trkpt><trkpt lat="44.000254270058456" lon="7.998794754122811"><ele>749.0</ele><time>2026-05-03T14:15:29.999Z</time></trkpt><trkpt lat="44.000144983578394" lon="7.998813420427358"><ele>749.0</ele><time>2026-05-03T14:15:31.999Z</time></trkpt><trkpt lat="44.000101037290285" lon="7.998983027488093"><ele>749.0</ele><time>2026-05-03T14:15:33.999Z</time></trkpt><trkpt lat="44.00008978009009" lon="7.999116355269774"><ele>751.3333333333333</ele><time>2026-05-03T14:15:34.999Z</time></trkpt><trkpt lat="44.000094595083695" lon="7.999226682881376"><ele>753.6666666666666</ele><time>2026-05-03T14:15:35.999Z</time></trkpt><trkpt lat="44.00011263974692" lon="7.9993149234711005"><ele>756.0</ele><time>2026-05-03T14:15:36.999Z</time></trkpt><trkpt lat="44.000218372360585" lon="7.999404922161562"><ele>758.3333333333334</ele><time>2026-05-03T14:15:38.999Z</time></trkpt><trkpt lat="44.00020280599755" lon="7.9995321925306735"><ele>760.6666666666667</ele><time>2026-05-03T14:15:41Z</time></trkpt><trkpt lat="44.000133304334575" lon="7.999591315693815"><ele>763.0</ele><time>2026-05-03T14:15:42Z</time></trkpt><trkpt lat="44.000045467862" lon="7.999632666538188"><ele>763.0</ele><time>2026-05-03T14:15:43Z</time></trkpt><trkpt lat="43.99994321238248" lon="7.999653236325943"><ele>763.0</ele><time>2026-05-03T14:15:44Z</time></trkpt><trkpt lat="43.99983399234403" lon="7.999666471548181"><ele>763.0</ele><time>2026-05-03T14:15:45Z</time></trkpt><trkpt lat="43.999759077380816" lon="7.999675999658788"><ele>763.0</ele><time>2026-05-03T14:15:46Z</time></trkpt><trkpt lat="43.999691342762524" lon="7.999704770061734"><ele>763.0</ele><time>2026-05-03T14:15:47Z</time></trkpt><trkpt lat="43.999612212356894" lon="7.999784945005925"><ele>763.0</ele><time>2026-05-03T14:15:48Z</time></trkpt><trkpt lat="43.99955492706197" lon="7.9998617583580955"><ele>763.0</ele><time>2026-05-03T14:15:49Z</time></trkpt><trkpt lat="43.99951127088118" lon="7.999953998780214"><ele>763.0</ele><time>2026-05-03T14:15:50Z</time></trkpt><trkpt lat="43.999465294071946" lon="8.000057494759396"><ele>763.0</ele><time>2026-05-03T14:15:51Z</time></trkpt><trkpt lat="43.999415244015935" lon="8.000131531888451"><ele>763.0</ele><time>2026-05-03T14:15:52Z</time></trkpt><trkpt lat="43.99937178885423" lon="8.000204815621514"><ele>763.0</ele><time>2026-05-03T14:15:53Z</time></trkpt><trkpt lat="43.99933704711549" lon="8.000315683880524"><ele>763.0</ele><time>2026-05-03T14:15:55Z</time></trkpt><trkpt lat="43.999338600552086" lon="8.00041805183741"><ele>763.0</ele><time>2026-05-03T14:15:56Z</time></trkpt><trkpt lat="43.999368305012716" lon="8.00052367622324"><ele>763.0</ele><time>2026-05-03T14:15:57Z</time></trkpt><trkpt lat="43.99937519717437" lon="8.000612923696458"><ele>763.0</ele><time>2026-05-03T14:15:58Z</time></trkpt><trkpt lat="43.99923562973946" lon="8.000702696024247"><ele>763.0</ele><time>2026-05-03T14:16:00Z</time></trkpt><trkpt lat="43.99916458211314" lon="8.000755519380986"><ele>760.0</ele><time>2026-05-03T14:16:01Z</time></trkpt><trkpt lat="43.99912617779505" lon="8.000928331629872"><ele>757.0</ele><time>2026-05-03T14:16:03Z</time></trkpt><trkpt lat="43.999146460662885" lon="8.001037553397381"><ele>754.0</ele><time>2026-05-03T14:16:04Z</time></trkpt><trkpt lat="43.99904193459421" lon="8.001115692140143"><ele>751.0</ele><time>2026-05-03T14:16:06Z</time></trkpt><trkpt lat="43.998965372743555" lon="8.001142458942782"><ele>748.0</ele><time>2026-05-03T14:16:07Z</time></trkpt><trkpt lat="43.998903629387975" lon="8.001195613116256"><ele>748.0</ele><time>2026-05-03T14:16:08Z</time></trkpt><trkpt lat="43.998868937505286" lon="8.00128163026915"><ele>748.0</ele><time>2026-05-03T14:16:09Z</time></trkpt><trkpt lat="43.9988183870453" lon="8.00135294300984"><ele>748.0</ele><time>2026-05-03T14:16:10Z</time></trkpt><trkpt lat="43.99875403360786" lon="8.00137914754076"><ele>748.0</ele><time>2026-05-03T14:16:11Z</time></trkpt><trkpt lat="43.99864405793615" lon="8.001388785532297"><ele>748.0</ele><time>2026-05-03T14:16:13Z</time></trkpt><trkpt lat="43.998543087480265" lon="8.001476203495933"><ele>748.0</ele><time>2026-05-03T14:16:15Z</time></trkpt><trkpt lat="43.9983952629845" lon="8.001474989581748"><ele>749.6666666666667</ele><time>2026-05-03T14:16:17Z</time></trkpt><trkpt lat="43.99830689564384" lon="8.001501807786738"><ele>751.3333333333334</ele><time>2026-05-03T14:16:18Z</time></trkpt><trkpt lat="43.99823488736262" lon="8.001561233403818"><ele>753.0</ele><time>2026-05-03T14:16:19Z</time></trkpt><trkpt lat="43.998173009464935" lon="8.001635253034236"><ele>754.6666666666666</ele><time>2026-05-03T14:16:20Z</time></trkpt><trkpt lat="43.998096932334974" lon="8.001685339749235"><ele>756.3333333333333</ele><time>2026-05-03T14:16:21Z</time></trkpt><trkpt lat="43.99800939285897" lon="8.00171007778635"><ele>758.0</ele><time>2026-05-03T14:16:22Z</time></trkpt><trkpt lat="43.99792791829938" lon="8.001712761874282"><ele>758.0</ele><time>2026-05-03T14:16:23Z</time></trkpt><trkpt lat="43.99784515993537" lon="8.001718337222497"><ele>758.0</ele><time>2026-05-03T14:16:24Z</time></trkpt><trkpt lat="43.997769984287274" lon="8.001746706541683"><ele>758.0</ele><time>2026-05-03T14:16:25Z</time></trkpt><trkpt lat="43.997709623224665" lon="8.001821878905803"><ele>758.0</ele><time>2026-05-03T14:16:26Z</time></trkpt><trkpt lat="43.99766548528732" lon="8.00191753063404"><ele>758.0</ele><time>2026-05-03T14:16:27Z</time></trkpt><trkpt lat="43.997635837661065" lon="8.002018419822816"><ele>758.0</ele><time>2026-05-03T14:16:28Z</time></trkpt><trkpt lat="43.997626470226486" lon="8.002137161215426"><ele>758.0</ele><time>2026-05-03T14:16:29Z</time></trkpt><trkpt lat="43.99760434077393" lon="8.0022505240401"><ele>758.0</ele><time>2026-05-03T14:16:30Z</time></trkpt><trkpt lat="43.99755293169835" lon="8.002348320709357"><ele>758.0</ele><time>2026-05-03T14:16:31Z</time></trkpt><trkpt lat="43.99749047247446" lon="8.002433152157618"><ele>758.0</ele><time>2026-05-03T14:16:32Z</time></trkpt><trkpt lat="43.997449437875424" lon="8.002521764661019"><ele>758.0</ele><time>2026-05-03T14:16:33Z</time></trkpt><trkpt lat="43.9974270138497" lon="8.00261288271026"><ele>758.0</ele><time>2026-05-03T14:16:34Z</time></trkpt><trkpt lat="43.99740476291936" lon="8.002783461165183"><ele>757.3333333333333</ele><time>2026-05-03T14:16:36Z</time></trkpt><trkpt lat="43.99741017642456" lon="8.002877287343152"><ele>756.6666666666666</ele><time>2026-05-03T14:16:36.999Z</time></trkpt><trkpt lat="43.9974321667104" lon="8.00303531923074"><ele>756.0</ele><time>2026-05-03T14:16:38.999Z</time></trkpt><trkpt lat="43.99741897362536" lon="8.003124413992966"><ele>755.3333333333334</ele><time>2026-05-03T14:16:39.999Z</time></trkpt><trkpt lat="43.997398567612855" lon="8.003237225767258"><ele>754.6666666666667</ele><time>2026-05-03T14:16:40.999Z</time></trkpt><trkpt lat="43.99737055852458" lon="8.00333801028028"><ele>754.0</ele><time>2026-05-03T14:16:41.999Z</time></trkpt><trkpt lat="43.99735136814443" lon="8.003440384188297"><ele>753.4285714285713</ele><time>2026-05-03T14:16:42.999Z</time></trkpt><trkpt lat="43.99735235835298" lon="8.003537598137363"><ele>752.8571428571429</ele><time>2026-05-03T14:16:43.999Z</time></trkpt><trkpt lat="43.99735913235815" lon="8.003624980809166"><ele>752.2857142857142</ele><time>2026-05-03T14:16:44.999Z</time></trkpt><trkpt lat="43.99735405719766" lon="8.003716831370614"><ele>751.7142857142857</ele><time>2026-05-03T14:16:45.999Z</time></trkpt><trkpt lat="43.99734434514163" lon="8.003807043710358"><ele>751.1428571428571</ele><time>2026-05-03T14:16:46.999Z</time></trkpt><trkpt lat="43.99732494324963" lon="8.003916920068654"><ele>750.5714285714286</ele><time>2026-05-03T14:16:47.999Z</time></trkpt><trkpt lat="43.99731481847291" lon="8.004013736460983"><ele>750.0</ele><time>2026-05-03T14:16:48.999Z</time></trkpt><trkpt lat="43.997313704158984" lon="8.00417717945335"><ele>747.4</ele><time>2026-05-03T14:16:50.999Z</time></trkpt><trkpt lat="43.99732392015085" lon="8.004332201625681"><ele>744.8</ele><time>2026-05-03T14:16:52.999Z</time></trkpt><trkpt lat="43.997316425764716" lon="8.00451260803035"><ele>742.2</ele><time>2026-05-03T14:16:54.999Z</time></trkpt><trkpt lat="43.997328600682685" lon="8.004604954602975"><ele>739.6</ele><time>2026-05-03T14:16:55.999Z</time></trkpt><trkpt lat="43.9973312783817" lon="8.004708200123163"><ele>737.0</ele><time>2026-05-03T14:16:57.999Z</time></trkpt><trkpt lat="43.99718530233818" lon="8.004735883104027"><ele>737.0</ele><time>2026-05-03T14:16:59.999Z</time></trkpt><trkpt lat="43.99711301663045" lon="8.004775565934072"><ele>737.0</ele><time>2026-05-03T14:17:00.999Z</time></trkpt><trkpt lat="43.99705664707919" lon="8.00483387949921"><ele>737.0</ele><time>2026-05-03T14:17:01.999Z</time></trkpt><trkpt lat="43.9969751586182" lon="8.004931164713502"><ele>737.0</ele><time>2026-05-03T14:17:03.999Z</time></trkpt><trkpt lat="43.99700500621425" lon="8.005088207318058"><ele>737.0</ele><time>2026-05-03T14:17:06.999Z</time></trkpt><trkpt lat="43.99705994539091" lon="8.005193474618586"><ele>734.6</ele><time>2026-05-03T14:17:07.999Z</time></trkpt><trkpt lat="43.997135092571405" lon="8.005324762690226"><ele>732.2</ele><time>2026-05-03T14:17:08.999Z</time></trkpt><trkpt lat="43.99719387304821" lon="8.005386002582435"><ele>729.8</ele><time>2026-05-03T14:17:10.999Z</time></trkpt><trkpt lat="43.99728012120515" lon="8.005481173993964"><ele>727.4</ele><time>2026-05-03T14:17:12.999Z</time></trkpt><trkpt lat="43.99727695756789" lon="8.005606555378485"><ele>725.0</ele><time>2026-05-03T14:17:13.999Z</time></trkpt><trkpt lat="43.99720076447049" lon="8.00570557676289"><ele>725.0</ele><time>2026-05-03T14:17:14.999Z</time></trkpt><trkpt lat="43.997165443888726" lon="8.005786661645201"><ele>725.0</ele><time>2026-05-03T14:17:15.999Z</time></trkpt><trkpt lat="43.99717276751492" lon="8.00589127522942"><ele>725.0</ele><time>2026-05-03T14:17:16.999Z</time></trkpt><trkpt lat="43.99721777944038" lon="8.005973507021617"><ele>725.0</ele><time>2026-05-03T14:17:17.999Z</time></trkpt><trkpt lat="43.997262649574644" lon="8.006079549130742"><ele>725.0</ele><time>2026-05-03T14:17:18.999Z</time></trkpt><trkpt lat="43.99729095423202" lon="8.006175820682511"><ele>725.0</ele><time>2026-05-03T14:17:19.999Z</time></trkpt><trkpt lat="43.99730381884872" lon="8.00626358045948"><ele>725.0</ele><time>2026-05-03T14:17:20.999Z</time></trkpt><trkpt lat="43.99734561074728" lon="8.006392358575011"><ele>723.6666666666666</ele><time>2026-05-03T14:17:22.999Z</time></trkpt><trkpt lat="43.99728616053149" lon="8.006484938302416"><ele>722.3333333333333</ele><time>2026-05-03T14:17:23.999Z</time></trkpt><trkpt lat="43.997231560464385" lon="8.006543285739943"><ele>721.0</ele><time>2026-05-03T14:17:24.999Z</time></trkpt><trkpt lat="43.997192039048294" lon="8.006636248966768"><ele>719.6666666666666</ele><time>2026-05-03T14:17:25.999Z</time></trkpt><trkpt lat="43.99714584855616" lon="8.006704433594587"><ele>718.3333333333334</ele><time>2026-05-03T14:17:26.999Z</time></trkpt><trkpt lat="43.997077326377756" lon="8.006776707394533"><ele>717.0</ele><time>2026-05-03T14:17:28.999Z</time></trkpt><trkpt lat="43.99698705121868" lon="8.006762466461007"><ele>717.0</ele><time>2026-05-03T14:17:30.999Z</time></trkpt><trkpt lat="43.996926384038446" lon="8.006715324709628"><ele>717.0</ele><time>2026-05-03T14:17:31.999Z</time></trkpt><trkpt lat="43.99686267758073" lon="8.006709554459317"><ele>717.0</ele><time>2026-05-03T14:17:32.999Z</time></trkpt><trkpt lat="43.99679936131199" lon="8.006700761777491"><ele>717.0</ele><time>2026-05-03T14:17:33.999Z</time></trkpt><trkpt lat="43.99670001375365" lon="8.006659144043848"><ele>717.0</ele><time>2026-05-03T14:17:35.999Z</time></trkpt><trkpt lat="43.9965939474426" lon="8.006637513127776"><ele>717.0</ele><time>2026-05-03T14:17:37.999Z</time></trkpt><trkpt lat="43.996491580772926" lon="8.006576311736636"><ele>715.1666666666666</ele><time>2026-05-03T14:17:39.999Z</time></trkpt><trkpt lat="43.99640282472112" lon="8.006563749287066"><ele>713.3333333333334</ele><time>2026-05-03T14:17:40.999Z</time></trkpt><trkpt lat="43.99633661954877" lon="8.006536611938753"><ele>711.5</ele><time>2026-05-03T14:17:41.999Z</time></trkpt><trkpt lat="43.99628109273957" lon="8.006468582023672"><ele>709.6666666666667</ele><time>2026-05-03T14:17:42.999Z</time></trkpt><trkpt lat="43.99623808996834" lon="8.006357765255846"><ele>707.8333333333334</ele><time>2026-05-03T14:17:43.999Z</time></trkpt><trkpt lat="43.99620901878742" lon="8.006246978489656"><ele>706.0</ele><time>2026-05-03T14:17:44.999Z</time></trkpt><trkpt lat="43.99616890594365" lon="8.00615615149637"><ele>706.0</ele><time>2026-05-03T14:17:46Z</time></trkpt><trkpt lat="43.996088157000784" lon="8.006097260678448"><ele>706.0</ele><time>2026-05-03T14:17:47Z</time></trkpt><trkpt lat="43.99598479687774" lon="8.006069791761876"><ele>706.0</ele><time>2026-05-03T14:17:48Z</time></trkpt><trkpt lat="43.995896594097545" lon="8.006070057747735"><ele>706.0</ele><time>2026-05-03T14:17:49Z</time></trkpt><trkpt lat="43.99583126118429" lon="8.006072758282043"><ele>706.0</ele><time>2026-05-03T14:17:50Z</time></trkpt><trkpt lat="43.99574965794904" lon="8.006096631377966"><ele>706.0</ele><time>2026-05-03T14:17:51Z</time></trkpt><trkpt lat="43.99566198949148" lon="8.006104068024928"><ele>703.3333333333334</ele><time>2026-05-03T14:17:52Z</time></trkpt><trkpt lat="43.99557155632717" lon="8.006102413795304"><ele>700.6666666666667</ele><time>2026-05-03T14:17:53Z</time></trkpt><trkpt lat="43.995487608932315" lon="8.006097332903467"><ele>698.0</ele><time>2026-05-03T14:17:54Z</time></trkpt><trkpt lat="43.995413033808546" lon="8.006142104856362"><ele>695.3333333333334</ele><time>2026-05-03T14:17:55Z</time></trkpt><trkpt lat="43.995346520233845" lon="8.006204231795765"><ele>692.6666666666666</ele><time>2026-05-03T14:17:56Z</time></trkpt><trkpt lat="43.99527407625081" lon="8.006239379303132"><ele>690.0</ele><time>2026-05-03T14:17:57Z</time></trkpt><trkpt lat="43.99521018233848" lon="8.006275137499424"><ele>690.0</ele><time>2026-05-03T14:17:58Z</time></trkpt><trkpt lat="43.995156827358784" lon="8.006330076963504"><ele>690.0</ele><time>2026-05-03T14:17:59Z</time></trkpt><trkpt lat="43.99507561191747" lon="8.006392610396722"><ele>690.0</ele><time>2026-05-03T14:18:01Z</time></trkpt><trkpt lat="43.995008241532645" lon="8.006416418499656"><ele>690.0</ele><time>2026-05-03T14:18:02Z</time></trkpt><trkpt lat="43.9949100196178" lon="8.006427485533488"><ele>690.0</ele><time>2026-05-03T14:18:03Z</time></trkpt><trkpt lat="43.99481057104757" lon="8.006446843238871"><ele>690.0</ele><time>2026-05-03T14:18:04Z</time></trkpt><trkpt lat="43.99472777950223" lon="8.006470482372704"><ele>689.5</ele><time>2026-05-03T14:18:05Z</time></trkpt><trkpt lat="43.99464849748086" lon="8.006498064527634"><ele>689.0</ele><time>2026-05-03T14:18:06Z</time></trkpt><trkpt lat="43.99456713498141" lon="8.006521413420408"><ele>688.5</ele><time>2026-05-03T14:18:07Z</time></trkpt><trkpt lat="43.99449193191005" lon="8.00657039895633"><ele>688.0</ele><time>2026-05-03T14:18:08Z</time></trkpt><trkpt lat="43.99443143245309" lon="8.006630675033023"><ele>687.5</ele><time>2026-05-03T14:18:09Z</time></trkpt><trkpt lat="43.99436022502092" lon="8.006654892241361"><ele>687.0</ele><time>2026-05-03T14:18:10Z</time></trkpt><trkpt lat="43.994294729728686" lon="8.006652918127374"><ele>687.0</ele><time>2026-05-03T14:18:11Z</time></trkpt><trkpt lat="43.994217090536296" lon="8.006626453700106"><ele>687.0</ele><time>2026-05-03T14:18:12Z</time></trkpt><trkpt lat="43.99414544770636" lon="8.006594589520244"><ele>687.0</ele><time>2026-05-03T14:18:13Z</time></trkpt><trkpt lat="43.99407901417739" lon="8.00653618847336"><ele>687.0</ele><time>2026-05-03T14:18:14Z</time></trkpt><trkpt lat="43.994016902088276" lon="8.006490358856341"><ele>687.0</ele><time>2026-05-03T14:18:15Z</time></trkpt><trkpt lat="43.993959496470126" lon="8.006447358637788"><ele>687.0</ele><time>2026-05-03T14:18:16Z</time></trkpt><trkpt lat="43.99389169694669" lon="8.00641466574791"><ele>687.0</ele><time>2026-05-03T14:18:17Z</time></trkpt><trkpt lat="43.993824113202635" lon="8.006387946429113"><ele>685.6666666666666</ele><time>2026-05-03T14:18:18Z</time></trkpt><trkpt lat="43.99374149584778" lon="8.006389694075306"><ele>684.3333333333334</ele><time>2026-05-03T14:18:19Z</time></trkpt><trkpt lat="43.993676587105234" lon="8.006439767497904"><ele>683.0</ele><time>2026-05-03T14:18:20Z</time></trkpt><trkpt lat="43.99365323698387" lon="8.006621438896662"><ele>681.6666666666667</ele><time>2026-05-03T14:18:22Z</time></trkpt><trkpt lat="43.99363560481333" lon="8.006708795867175"><ele>680.3333333333334</ele><time>2026-05-03T14:18:23Z</time></trkpt><trkpt lat="43.99358606154501" lon="8.006771955236884"><ele>679.0</ele><time>2026-05-03T14:18:24Z</time></trkpt><trkpt lat="43.9935083386399" lon="8.006785710723804"><ele>679.0</ele><time>2026-05-03T14:18:25Z</time></trkpt><trkpt lat="43.99343533790589" lon="8.006796140017565"><ele>679.0</ele><time>2026-05-03T14:18:26Z</time></trkpt><trkpt lat="43.99335610637173" lon="8.006782825975158"><ele>679.0</ele><time>2026-05-03T14:18:27Z</time></trkpt><trkpt lat="43.99328284472189" lon="8.006769684902729"><ele>679.0</ele><time>2026-05-03T14:18:28Z</time></trkpt><trkpt lat="43.99318240206294" lon="8.006787642670753"><ele>679.0</ele><time>2026-05-03T14:18:30Z</time></trkpt><trkpt lat="43.9931382686227" lon="8.006966502400175"><ele>679.6</ele><time>2026-05-03T14:18:32Z</time></trkpt><trkpt lat="43.99313252826678" lon="8.007095680606655"><ele>680.2</ele><time>2026-05-03T14:18:33Z</time></trkpt><trkpt lat="43.99314294177526" lon="8.007234585896391"><ele>680.8000000000001</ele><time>2026-05-03T14:18:34Z</time></trkpt><trkpt lat="43.993148077092954" lon="8.007365756128408"><ele>681.4000000000001</ele><time>2026-05-03T14:18:35Z</time></trkpt><trkpt lat="43.993146486026916" lon="8.007495930103348"><ele>682.0</ele><time>2026-05-03T14:18:36Z</time></trkpt><trkpt lat="43.99313694984433" lon="8.007645433874666"><ele>680.5</ele><time>2026-05-03T14:18:37Z</time></trkpt><trkpt lat="43.993122691772875" lon="8.007779277793773"><ele>679.0</ele><time>2026-05-03T14:18:38Z</time></trkpt><trkpt lat="43.99311973255801" lon="8.007918845855814"><ele>677.5</ele><time>2026-05-03T14:18:39Z</time></trkpt><trkpt lat="43.993136232731516" lon="8.008039028748257"><ele>676.0</ele><time>2026-05-03T14:18:40Z</time></trkpt><trkpt lat="43.99314681755148" lon="8.008141018636074"><ele>674.5</ele><time>2026-05-03T14:18:40.999Z</time></trkpt><trkpt lat="43.99316463837195" lon="8.008254608887054"><ele>673.0</ele><time>2026-05-03T14:18:41.999Z</time></trkpt><trkpt lat="43.99320439608535" lon="8.00836514856676"><ele>672.8333333333334</ele><time>2026-05-03T14:18:42.999Z</time></trkpt><trkpt lat="43.993246259923666" lon="8.008478429470859"><ele>672.6666666666667</ele><time>2026-05-03T14:18:43.999Z</time></trkpt><trkpt lat="43.993290858824956" lon="8.00859372251153"><ele>672.5</ele><time>2026-05-03T14:18:44.999Z</time></trkpt><trkpt lat="43.99332521445411" lon="8.008693224265858"><ele>672.3333333333334</ele><time>2026-05-03T14:18:45.999Z</time></trkpt><trkpt lat="43.99333204274952" lon="8.008786480952763"><ele>672.1666666666666</ele><time>2026-05-03T14:18:46.999Z</time></trkpt><trkpt lat="43.9933112555955" lon="8.008885360918894"><ele>672.0</ele><time>2026-05-03T14:18:47.999Z</time></trkpt><trkpt lat="43.99327561411935" lon="8.008999491030872"><ele>672.0</ele><time>2026-05-03T14:18:48.999Z</time></trkpt><trkpt lat="43.99323108255338" lon="8.009128902840892"><ele>672.0</ele><time>2026-05-03T14:18:49.999Z</time></trkpt><trkpt lat="43.99320484597524" lon="8.009266075672729"><ele>672.0</ele><time>2026-05-03T14:18:50.999Z</time></trkpt><trkpt lat="43.99319523036702" lon="8.009410505817055"><ele>672.0</ele><time>2026-05-03T14:18:51.999Z</time></trkpt><trkpt lat="43.993175965496356" lon="8.009528488363383"><ele>672.0</ele><time>2026-05-03T14:18:52.999Z</time></trkpt><trkpt lat="43.993157025119544" lon="8.009634665782013"><ele>671.8333333333334</ele><time>2026-05-03T14:18:53.999Z</time></trkpt><trkpt lat="43.99315472629225" lon="8.009752649005453"><ele>671.6666666666666</ele><time>2026-05-03T14:18:54.999Z</time></trkpt><trkpt lat="43.99315319994567" lon="8.00986151566866"><ele>671.5</ele><time>2026-05-03T14:18:55.999Z</time></trkpt><trkpt lat="43.99313650960163" lon="8.009976572403248"><ele>671.3333333333333</ele><time>2026-05-03T14:18:56.999Z</time></trkpt><trkpt lat="43.993080005759" lon="8.01007565796914"><ele>671.1666666666666</ele><time>2026-05-03T14:18:57.999Z</time></trkpt><trkpt lat="43.9930392505544" lon="8.010176550192206"><ele>671.0</ele><time>2026-05-03T14:18:58.999Z</time></trkpt><trkpt lat="43.992980243220494" lon="8.010280792810873"><ele>670.1666666666666</ele><time>2026-05-03T14:18:59.999Z</time></trkpt><trkpt lat="43.99292359250698" lon="8.010342437419913"><ele>669.3333333333333</ele><time>2026-05-03T14:19:00.999Z</time></trkpt><trkpt lat="43.992853303211476" lon="8.010425513585725"><ele>668.5</ele><time>2026-05-03T14:19:02.999Z</time></trkpt><trkpt lat="43.99282319038595" lon="8.010509333874836"><ele>667.6666666666666</ele><time>2026-05-03T14:19:03.999Z</time></trkpt><trkpt lat="43.99278503456683" lon="8.01061776347441"><ele>666.8333333333334</ele><time>2026-05-03T14:19:04.999Z</time></trkpt><trkpt lat="43.992744121058095" lon="8.010715189845522"><ele>666.0</ele><time>2026-05-03T14:19:05.999Z</time></trkpt><trkpt lat="43.99270904154058" lon="8.010806601262985"><ele>665.6666666666666</ele><time>2026-05-03T14:19:06.999Z</time></trkpt><trkpt lat="43.99269853928883" lon="8.01089413479946"><ele>665.3333333333334</ele><time>2026-05-03T14:19:07.999Z</time></trkpt><trkpt lat="43.99270789995822" lon="8.011010855117041"><ele>665.0</ele><time>2026-05-03T14:19:08.999Z</time></trkpt><trkpt lat="43.99274346523084" lon="8.011133940836274"><ele>664.6666666666667</ele><time>2026-05-03T14:19:09.999Z</time></trkpt><trkpt lat="43.99280605699455" lon="8.01122147339936"><ele>664.3333333333334</ele><time>2026-05-03T14:19:10.999Z</time></trkpt><trkpt lat="43.9928515504416" lon="8.011295338508312"><ele>664.0</ele><time>2026-05-03T14:19:11.999Z</time></trkpt><trkpt lat="43.99289583267144" lon="8.011409025704229"><ele>664.0</ele><time>2026-05-03T14:19:13.999Z</time></trkpt><trkpt lat="43.992848918058776" lon="8.011481622043236"><ele>664.0</ele><time>2026-05-03T14:19:15.999Z</time></trkpt><trkpt lat="43.99272979565138" lon="8.011464608721175"><ele>664.0</ele><time>2026-05-03T14:19:17.999Z</time></trkpt><trkpt lat="43.992663201040315" lon="8.011412145731946"><ele>664.0</ele><time>2026-05-03T14:19:18.999Z</time></trkpt><trkpt lat="43.99259203256656" lon="8.01132936948722"><ele>664.0</ele><time>2026-05-03T14:19:19.999Z</time></trkpt><trkpt lat="43.99252790810038" lon="8.011255061398597"><ele>664.0</ele><time>2026-05-03T14:19:20.999Z</time></trkpt><trkpt lat="43.99240361101567" lon="8.011243718790373"><ele>665.0</ele><time>2026-05-03T14:19:22.999Z</time></trkpt><trkpt lat="43.992327132839534" lon="8.011283357390456"><ele>666.0</ele><time>2026-05-03T14:19:23.999Z</time></trkpt><trkpt lat="43.99226591715073" lon="8.011337746525886"><ele>667.0</ele><time>2026-05-03T14:19:24.999Z</time></trkpt><trkpt lat="43.99220593223009" lon="8.011405633295697"><ele>668.0</ele><time>2026-05-03T14:19:25.999Z</time></trkpt><trkpt lat="43.99215821293276" lon="8.01147010156865"><ele>669.0</ele><time>2026-05-03T14:19:26.999Z</time></trkpt><trkpt lat="43.99208527567745" lon="8.011497232939512"><ele>670.0</ele><time>2026-05-03T14:19:27.999Z</time></trkpt><trkpt lat="43.992008713091586" lon="8.011516227907489"><ele>670.0</ele><time>2026-05-03T14:19:28.999Z</time></trkpt><trkpt lat="43.9919394973876" lon="8.011572419517007"><ele>670.0</ele><time>2026-05-03T14:19:29.999Z</time></trkpt><trkpt lat="43.99188719554212" lon="8.01162619030662"><ele>670.0</ele><time>2026-05-03T14:19:30.999Z</time></trkpt><trkpt lat="43.99178217182764" lon="8.011659314383207"><ele>670.0</ele><time>2026-05-03T14:19:32.999Z</time></trkpt><trkpt lat="43.99171907511795" lon="8.011634004115114"><ele>670.0</ele><time>2026-05-03T14:19:33.999Z</time></trkpt><trkpt lat="43.99165566981952" lon="8.01155457084604"><ele>670.0</ele><time>2026-05-03T14:19:34.999Z</time></trkpt><trkpt lat="43.991597840314256" lon="8.011470544023483"><ele>668.6666666666667</ele><time>2026-05-03T14:19:35.999Z</time></trkpt><trkpt lat="43.99154274338551" lon="8.011383456049588"><ele>667.3333333333334</ele><time>2026-05-03T14:19:36.999Z</time></trkpt><trkpt lat="43.991486574562884" lon="8.01132512133295"><ele>666.0</ele><time>2026-05-03T14:19:37.999Z</time></trkpt><trkpt lat="43.99141692905592" lon="8.01131800676868"><ele>664.6666666666666</ele><time>2026-05-03T14:19:38.999Z</time></trkpt><trkpt lat="43.99135430525429" lon="8.011348709299801"><ele>663.3333333333333</ele><time>2026-05-03T14:19:39.999Z</time></trkpt><trkpt lat="43.99129760317357" lon="8.011396113313854"><ele>662.0</ele><time>2026-05-03T14:19:40.999Z</time></trkpt><trkpt lat="43.991185333801326" lon="8.011422432310274"><ele>662.0</ele><time>2026-05-03T14:19:42.999Z</time></trkpt><trkpt lat="43.9911129298937" lon="8.011398004808578"><ele>662.0</ele><time>2026-05-03T14:19:43.999Z</time></trkpt><trkpt lat="43.99105439096662" lon="8.01136468794679"><ele>662.0</ele><time>2026-05-03T14:19:44.999Z</time></trkpt><trkpt lat="43.990947866845275" lon="8.011496218019749"><ele>662.0</ele><time>2026-05-03T14:19:46.999Z</time></trkpt><trkpt lat="43.99089651709539" lon="8.011607777906287"><ele>662.0</ele><time>2026-05-03T14:19:47.999Z</time></trkpt><trkpt lat="43.99084383132779" lon="8.01169736616032"><ele>658.75</ele><time>2026-05-03T14:19:48.999Z</time></trkpt><trkpt lat="43.990749121163354" lon="8.011827475158109"><ele>655.5</ele><time>2026-05-03T14:19:49.999Z</time></trkpt><trkpt lat="43.99067584093037" lon="8.011951628718494"><ele>652.25</ele><time>2026-05-03T14:19:50.999Z</time></trkpt><trkpt lat="43.990609019269016" lon="8.012087443373396"><ele>649.0</ele><time>2026-05-03T14:19:52Z</time></trkpt><trkpt lat="43.990551114209566" lon="8.012206250478378"><ele>649.0</ele><time>2026-05-03T14:19:53Z</time></trkpt><trkpt lat="43.990487624100744" lon="8.01234545430857"><ele>649.0</ele><time>2026-05-03T14:19:54Z</time></trkpt><trkpt lat="43.99040965915112" lon="8.012442309458125"><ele>649.0</ele><time>2026-05-03T14:19:55Z</time></trkpt><trkpt lat="43.99034695346287" lon="8.012534729488427"><ele>649.0</ele><time>2026-05-03T14:19:56Z</time></trkpt><trkpt lat="43.99027572067732" lon="8.0126214017678"><ele>649.0</ele><time>2026-05-03T14:19:57Z</time></trkpt><trkpt lat="43.99020403081937" lon="8.012726318971708"><ele>650.8000000000001</ele><time>2026-05-03T14:19:58Z</time></trkpt><trkpt lat="43.990140248455376" lon="8.012843930967717"><ele>652.6</ele><time>2026-05-03T14:19:59Z</time></trkpt><trkpt lat="43.99007686372946" lon="8.012948547319299"><ele>654.4</ele><time>2026-05-03T14:20:00Z</time></trkpt><trkpt lat="43.98999300480744" lon="8.013016720678632"><ele>656.2</ele><time>2026-05-03T14:20:01Z</time></trkpt><trkpt lat="43.98992155759753" lon="8.013126321440996"><ele>658.0</ele><time>2026-05-03T14:20:02Z</time></trkpt><trkpt lat="43.98984226766265" lon="8.013207656580827"><ele>658.0</ele><time>2026-05-03T14:20:03Z</time></trkpt><trkpt lat="43.98975142090871" lon="8.013280958862289"><ele>658.0</ele><time>2026-05-03T14:20:04Z</time></trkpt><trkpt lat="43.98969094882194" lon="8.013367314551815"><ele>658.0</ele><time>2026-05-03T14:20:05Z</time></trkpt><trkpt lat="43.9896343162948" lon="8.013450646713114"><ele>658.0</ele><time>2026-05-03T14:20:06Z</time></trkpt><trkpt lat="43.989593322571196" lon="8.013541045357012"><ele>658.0</ele><time>2026-05-03T14:20:07Z</time></trkpt><trkpt lat="43.98954663471333" lon="8.01364703838104"><ele>658.0</ele><time>2026-05-03T14:20:08Z</time></trkpt><trkpt lat="43.98949869989958" lon="8.013756349504808"><ele>655.0</ele><time>2026-05-03T14:20:09Z</time></trkpt><trkpt lat="43.98946363405058" lon="8.01388535406167"><ele>652.0</ele><time>2026-05-03T14:20:10Z</time></trkpt><trkpt lat="43.989414106245206" lon="8.013994421389569"><ele>649.0</ele><time>2026-05-03T14:20:11Z</time></trkpt><trkpt lat="43.98939150073097" lon="8.0140852754228"><ele>646.0</ele><time>2026-05-03T14:20:12Z</time></trkpt><trkpt lat="43.98934438997865" lon="8.01415189521725"><ele>643.0</ele><time>2026-05-03T14:20:13Z</time></trkpt><trkpt lat="43.98926901494724" lon="8.014194799922508"><ele>640.0</ele><time>2026-05-03T14:20:14Z</time></trkpt><trkpt lat="43.98913029272047" lon="8.014229034918777"><ele>640.0</ele><time>2026-05-03T14:20:15Z</time></trkpt><trkpt lat="43.98904594492687" lon="8.014277857277596"><ele>640.0</ele><time>2026-05-03T14:20:16Z</time></trkpt><trkpt lat="43.98896446404062" lon="8.014304858038631"><ele>640.0</ele><time>2026-05-03T14:20:17Z</time></trkpt><trkpt lat="43.98888550821243" lon="8.014372674144383"><ele>640.0</ele><time>2026-05-03T14:20:18Z</time></trkpt><trkpt lat="43.98880652983072" lon="8.014421518285364"><ele>640.0</ele><time>2026-05-03T14:20:19Z</time></trkpt><trkpt lat="43.98872748549793" lon="8.014463650392063"><ele>640.0</ele><time>2026-05-03T14:20:20Z</time></trkpt><trkpt lat="43.98864932592702" lon="8.014527172057376"><ele>640.0</ele><time>2026-05-03T14:20:21Z</time></trkpt><trkpt lat="43.988580821386655" lon="8.014618321376808"><ele>640.0</ele><time>2026-05-03T14:20:22Z</time></trkpt><trkpt lat="43.98850554166697" lon="8.014699267920662"><ele>640.0</ele><time>2026-05-03T14:20:23Z</time></trkpt><trkpt lat="43.98843493198107" lon="8.01478438720558"><ele>640.0</ele><time>2026-05-03T14:20:24Z</time></trkpt><trkpt lat="43.98837480753569" lon="8.01488981054037"><ele>640.0</ele><time>2026-05-03T14:20:25Z</time></trkpt><trkpt lat="43.98831189270053" lon="8.01497082781236"><ele>642.2</ele><time>2026-05-03T14:20:26Z</time></trkpt><trkpt lat="43.98821678194198" lon="8.01501979798894"><ele>644.4</ele><time>2026-05-03T14:20:28Z</time></trkpt><trkpt lat="43.98811259594779" lon="8.014971192047133"><ele>646.5999999999999</ele><time>2026-05-03T14:20:30Z</time></trkpt><trkpt lat="43.98800299083206" lon="8.014950941296174"><ele>648.8</ele><time>2026-05-03T14:20:32Z</time></trkpt><trkpt lat="43.98790925906984" lon="8.014976591657486"><ele>651.0</ele><time>2026-05-03T14:20:34Z</time></trkpt><trkpt lat="43.987902112352565" lon="8.015081919357621"><ele>651.0</ele><time>2026-05-03T14:20:38Z</time></trkpt><trkpt lat="43.98785685483611" lon="8.015172366349937"><ele>651.0</ele><time>2026-05-03T14:20:40Z</time></trkpt><trkpt lat="43.98785109556225" lon="8.015320574287657"><ele>651.0</ele><time>2026-05-03T14:20:41Z</time></trkpt><trkpt lat="43.98782308123443" lon="8.015847769138317"><ele>647.25</ele><time>2026-05-03T14:20:42Z</time></trkpt><trkpt lat="43.987838075592094" lon="8.016010943973724"><ele>643.5</ele><time>2026-05-03T14:20:43Z</time></trkpt><trkpt lat="43.98783851452216" lon="8.016176786170492"><ele>639.75</ele><time>2026-05-03T14:20:44Z</time></trkpt><trkpt lat="43.98784570492206" lon="8.016346327772848"><ele>636.0</ele><time>2026-05-03T14:20:45Z</time></trkpt><trkpt lat="43.98786595678264" lon="8.016508853201254"><ele>637.2</ele><time>2026-05-03T14:20:46Z</time></trkpt><trkpt lat="43.98788425779698" lon="8.016670609275945"><ele>638.4000000000001</ele><time>2026-05-03T14:20:47Z</time></trkpt><trkpt lat="43.98791398922688" lon="8.016807642376147"><ele>639.6</ele><time>2026-05-03T14:20:48Z</time></trkpt><trkpt lat="43.98792653419857" lon="8.016909000302523"><ele>640.8000000000001</ele><time>2026-05-03T14:20:49Z</time></trkpt><trkpt lat="43.98793714400646" lon="8.017006828079518"><ele>642.0</ele><time>2026-05-03T14:20:50Z</time></trkpt><trkpt lat="43.987963714407854" lon="8.017211175079451"><ele>642.0</ele><time>2026-05-03T14:20:51.999Z</time></trkpt><trkpt lat="43.987970720061114" lon="8.017322675814672"><ele>642.0</ele><time>2026-05-03T14:20:52.999Z</time></trkpt><trkpt lat="43.98789299961808" lon="8.017409239816375"><ele>642.0</ele><time>2026-05-03T14:20:54.999Z</time></trkpt><trkpt lat="43.98776148718091" lon="8.017367487002602"><ele>642.0</ele><time>2026-05-03T14:20:56.999Z</time></trkpt><trkpt lat="43.98767105968409" lon="8.0173599536165"><ele>642.0</ele><time>2026-05-03T14:20:57.999Z</time></trkpt><trkpt lat="43.98756390250396" lon="8.017426418880628"><ele>651.0</ele><time>2026-05-03T14:20:59.999Z</time></trkpt><trkpt lat="43.98750594096866" lon="8.017501337752648"><ele>660.0</ele><time>2026-05-03T14:21:00.999Z</time></trkpt><trkpt lat="43.98741896014607" lon="8.017542883138901"><ele>669.0</ele><time>2026-05-03T14:21:01.999Z</time></trkpt><trkpt lat="43.98732812705418" lon="8.01759841601275"><ele>678.0</ele><time>2026-05-03T14:21:02.999Z</time></trkpt><trkpt lat="43.98723212682319" lon="8.017650681613912"><ele>687.0</ele><time>2026-05-03T14:21:03.999Z</time></trkpt><trkpt lat="43.98711231153613" lon="8.017685710410934"><ele>687.0</ele><time>2026-05-03T14:21:04.999Z</time></trkpt><trkpt lat="43.98701250449748" lon="8.017716026129595"><ele>687.0</ele><time>2026-05-03T14:21:05.999Z</time></trkpt><trkpt lat="43.98692274715736" lon="8.017767401145415"><ele>687.0</ele><time>2026-05-03T14:21:06.999Z</time></trkpt><trkpt lat="43.98683013285696" lon="8.017813343090952"><ele>687.0</ele><time>2026-05-03T14:21:07.999Z</time></trkpt><trkpt lat="43.986757031725745" lon="8.017875951739398"><ele>687.0</ele><time>2026-05-03T14:21:08.999Z</time></trkpt><trkpt lat="43.98671586397421" lon="8.017967283872702"><ele>687.0</ele><time>2026-05-03T14:21:09.999Z</time></trkpt><trkpt lat="43.986680469355264" lon="8.018092715697042"><ele>687.0</ele><time>2026-05-03T14:21:10.999Z</time></trkpt><trkpt lat="43.98664776585444" lon="8.018241366012026"><ele>687.0</ele><time>2026-05-03T14:21:11.999Z</time></trkpt><trkpt lat="43.9865928323691" lon="8.018346771977745"><ele>687.0</ele><time>2026-05-03T14:21:12.999Z</time></trkpt><trkpt lat="43.98652491127603" lon="8.018421553732908"><ele>687.0</ele><time>2026-05-03T14:21:13.999Z</time></trkpt><trkpt lat="43.986446138355895" lon="8.018464323801929"><ele>687.6</ele><time>2026-05-03T14:21:14.999Z</time></trkpt><trkpt lat="43.98638482614426" lon="8.018632833107356"><ele>688.2</ele><time>2026-05-03T14:21:16.999Z</time></trkpt><trkpt lat="43.986358986782044" lon="8.01874662450954"><ele>688.8</ele><time>2026-05-03T14:21:17.999Z</time></trkpt><trkpt lat="43.98631238401563" lon="8.018823425118313"><ele>689.4</ele><time>2026-05-03T14:21:18.999Z</time></trkpt><trkpt lat="43.98621320090238" lon="8.018856631978624"><ele>690.0</ele><time>2026-05-03T14:21:19.999Z</time></trkpt><trkpt lat="43.98612592169474" lon="8.018876548616515"><ele>690.0</ele><time>2026-05-03T14:21:20.999Z</time></trkpt><trkpt lat="43.98602374447937" lon="8.018912861635428"><ele>690.0</ele><time>2026-05-03T14:21:21.999Z</time></trkpt><trkpt lat="43.985918613138196" lon="8.018947033796373"><ele>690.0</ele><time>2026-05-03T14:21:22.999Z</time></trkpt><trkpt lat="43.98583361199862" lon="8.018984263317014"><ele>690.0</ele><time>2026-05-03T14:21:23.999Z</time></trkpt><trkpt lat="43.98575648360469" lon="8.019011236960623"><ele>690.0</ele><time>2026-05-03T14:21:24.999Z</time></trkpt><trkpt lat="43.985690387717916" lon="8.018980788051117"><ele>694.25</ele><time>2026-05-03T14:21:25.999Z</time></trkpt><trkpt lat="43.985543650441855" lon="8.018895667385463"><ele>698.5</ele><time>2026-05-03T14:21:27.999Z</time></trkpt><trkpt lat="43.98541738414471" lon="8.018974079923998"><ele>702.75</ele><time>2026-05-03T14:21:29.999Z</time></trkpt><trkpt lat="43.9853421994998" lon="8.019035468399121"><ele>707.0</ele><time>2026-05-03T14:21:30.999Z</time></trkpt><trkpt lat="43.98525962052217" lon="8.019112124301376"><ele>707.6</ele><time>2026-05-03T14:21:31.999Z</time></trkpt><trkpt lat="43.98518206110732" lon="8.019203475264831"><ele>708.2</ele><time>2026-05-03T14:21:32.999Z</time></trkpt><trkpt lat="43.9851103833322" lon="8.019286456380676"><ele>708.8</ele><time>2026-05-03T14:21:33.999Z</time></trkpt><trkpt lat="43.985031422603015" lon="8.019361195114938"><ele>709.4</ele><time>2026-05-03T14:21:34.999Z</time></trkpt><trkpt lat="43.98495589306695" lon="8.0194088209037"><ele>710.0</ele><time>2026-05-03T14:21:35.999Z</time></trkpt><trkpt lat="43.984882941294785" lon="8.019444220082315"><ele>710.0</ele><time>2026-05-03T14:21:36.999Z</time></trkpt><trkpt lat="43.98480810238274" lon="8.019478634986381"><ele>710.0</ele><time>2026-05-03T14:21:37.999Z</time></trkpt><trkpt lat="43.98474474403099" lon="8.019531777897157"><ele>710.0</ele><time>2026-05-03T14:21:38.999Z</time></trkpt><trkpt lat="43.98469659604367" lon="8.019608840199803"><ele>710.0</ele><time>2026-05-03T14:21:39.999Z</time></trkpt><trkpt lat="43.98464781227996" lon="8.019675325900213"><ele>710.0</ele><time>2026-05-03T14:21:40.999Z</time></trkpt><trkpt lat="43.984583588959644" lon="8.019709783740053"><ele>710.0</ele><time>2026-05-03T14:21:41.999Z</time></trkpt><trkpt lat="43.98450178941579" lon="8.019726922420187"><ele>710.0</ele><time>2026-05-03T14:21:42.999Z</time></trkpt><trkpt lat="43.98441043313747" lon="8.019742348160726"><ele>710.0</ele><time>2026-05-03T14:21:43.999Z</time></trkpt><trkpt lat="43.98432286020394" lon="8.019786034799788"><ele>710.0</ele><time>2026-05-03T14:21:44.999Z</time></trkpt><trkpt lat="43.98425549231515" lon="8.019867248911039"><ele>710.0</ele><time>2026-05-03T14:21:45.999Z</time></trkpt><trkpt lat="43.98419533527565" lon="8.01995101735715"><ele>710.0</ele><time>2026-05-03T14:21:46.999Z</time></trkpt><trkpt lat="43.98413422093469" lon="8.020019941774226"><ele>710.0</ele><time>2026-05-03T14:21:47.999Z</time></trkpt><trkpt lat="43.98409846541068" lon="8.02012337376746"><ele>710.0</ele><time>2026-05-03T14:21:48.999Z</time></trkpt><trkpt lat="43.984067361795546" lon="8.020238074640744"><ele>710.5</ele><time>2026-05-03T14:21:49.999Z</time></trkpt><trkpt lat="43.98405093657651" lon="8.020349550693373"><ele>711.0</ele><time>2026-05-03T14:21:50.999Z</time></trkpt><trkpt lat="43.984048796364576" lon="8.020453489881161"><ele>711.5</ele><time>2026-05-03T14:21:51.999Z</time></trkpt><trkpt lat="43.98405407403675" lon="8.020544513979864"><ele>712.0</ele><time>2026-05-03T14:21:52.999Z</time></trkpt><trkpt lat="43.983991181705704" lon="8.020626465465126"><ele>712.5</ele><time>2026-05-03T14:21:54.999Z</time></trkpt><trkpt lat="43.98388342823722" lon="8.020557846621362"><ele>713.0</ele><time>2026-05-03T14:21:56.999Z</time></trkpt><trkpt lat="43.98381641363788" lon="8.020523845631958"><ele>713.0</ele><time>2026-05-03T14:21:58Z</time></trkpt><trkpt lat="43.98375071319079" lon="8.020497600344013"><ele>713.0</ele><time>2026-05-03T14:21:59Z</time></trkpt><trkpt lat="43.98367675212693" lon="8.020481091242898"><ele>713.0</ele><time>2026-05-03T14:22:00Z</time></trkpt><trkpt lat="43.983590935403036" lon="8.020455521663337"><ele>713.0</ele><time>2026-05-03T14:22:01Z</time></trkpt><trkpt lat="43.98351570091183" lon="8.020471668179974"><ele>713.0</ele><time>2026-05-03T14:22:02Z</time></trkpt><trkpt lat="43.98342700929057" lon="8.020538905582823"><ele>713.0</ele><time>2026-05-03T14:22:03Z</time></trkpt><trkpt lat="43.98333739355948" lon="8.020606503556083"><ele>715.8</ele><time>2026-05-03T14:22:04Z</time></trkpt><trkpt lat="43.98322307779004" lon="8.020702105384228"><ele>718.5999999999999</ele><time>2026-05-03T14:22:05Z</time></trkpt><trkpt lat="43.98313667162861" lon="8.020792088235527"><ele>721.4000000000001</ele><time>2026-05-03T14:22:06Z</time></trkpt><trkpt lat="43.9830704127145" lon="8.02086464520614"><ele>724.2</ele><time>2026-05-03T14:22:07Z</time></trkpt><trkpt lat="43.983008583029026" lon="8.02091954173364"><ele>727.0</ele><time>2026-05-03T14:22:08Z</time></trkpt><trkpt lat="43.98295932045192" lon="8.021005822311714"><ele>727.0</ele><time>2026-05-03T14:22:09Z</time></trkpt><trkpt lat="43.98294036217252" lon="8.021135913204613"><ele>727.0</ele><time>2026-05-03T14:22:10Z</time></trkpt><trkpt lat="43.9829437541292" lon="8.02128029604646"><ele>727.0</ele><time>2026-05-03T14:22:11Z</time></trkpt><trkpt lat="43.98295280456582" lon="8.02143131577028"><ele>727.0</ele><time>2026-05-03T14:22:12Z</time></trkpt><trkpt lat="43.98294657352908" lon="8.021558626880752"><ele>727.0</ele><time>2026-05-03T14:22:13Z</time></trkpt><trkpt lat="43.98294412076172" lon="8.021690085140744"><ele>724.4000000000001</ele><time>2026-05-03T14:22:14Z</time></trkpt><trkpt lat="43.982938305169434" lon="8.02183092664807"><ele>721.8000000000001</ele><time>2026-05-03T14:22:15Z</time></trkpt><trkpt lat="43.982910803476564" lon="8.021957807862252"><ele>719.2</ele><time>2026-05-03T14:22:16Z</time></trkpt><trkpt lat="43.982866899089125" lon="8.022073300885879"><ele>716.6</ele><time>2026-05-03T14:22:17Z</time></trkpt><trkpt lat="43.98281003060355" lon="8.022182821668066"><ele>714.0</ele><time>2026-05-03T14:22:18Z</time></trkpt><trkpt lat="43.98270241319255" lon="8.022297124571825"><ele>714.0</ele><time>2026-05-03T14:22:19Z</time></trkpt><trkpt lat="43.98264045892058" lon="8.022429683032506"><ele>714.0</ele><time>2026-05-03T14:22:20Z</time></trkpt><trkpt lat="43.98260431337365" lon="8.02256382653345"><ele>714.0</ele><time>2026-05-03T14:22:21Z</time></trkpt><trkpt lat="43.98257996858653" lon="8.022697576192794"><ele>714.0</ele><time>2026-05-03T14:22:22Z</time></trkpt><trkpt lat="43.98256402583069" lon="8.02284033009942"><ele>714.0</ele><time>2026-05-03T14:22:23Z</time></trkpt><trkpt lat="43.982539102171415" lon="8.022985918204483"><ele>713.3333333333334</ele><time>2026-05-03T14:22:24Z</time></trkpt><trkpt lat="43.98252573443892" lon="8.023129496266359"><ele>712.6666666666666</ele><time>2026-05-03T14:22:25Z</time></trkpt><trkpt lat="43.98252545485037" lon="8.023261112541192"><ele>712.0</ele><time>2026-05-03T14:22:26Z</time></trkpt><trkpt lat="43.98253404221859" lon="8.023377890220432"><ele>711.3333333333333</ele><time>2026-05-03T14:22:27Z</time></trkpt><trkpt lat="43.9825320464125" lon="8.023479719289147"><ele>710.6666666666666</ele><time>2026-05-03T14:22:28Z</time></trkpt><trkpt lat="43.9825134576991" lon="8.023576752949753"><ele>710.0</ele><time>2026-05-03T14:22:29Z</time></trkpt><trkpt lat="43.98246617774213" lon="8.023656197212812"><ele>714.6666666666666</ele><time>2026-05-03T14:22:30Z</time></trkpt><trkpt lat="43.98239667739682" lon="8.02370828396617"><ele>719.3333333333333</ele><time>2026-05-03T14:22:31Z</time></trkpt><trkpt lat="43.98232033800598" lon="8.023768529835793"><ele>724.0</ele><time>2026-05-03T14:22:32Z</time></trkpt><trkpt lat="43.982269759881156" lon="8.02385990785843"><ele>728.6666666666666</ele><time>2026-05-03T14:22:33Z</time></trkpt><trkpt lat="43.98225177393112" lon="8.023955603046634"><ele>733.3333333333334</ele><time>2026-05-03T14:22:34Z</time></trkpt><trkpt lat="43.98226034534559" lon="8.024049784927609"><ele>738.0</ele><time>2026-05-03T14:22:35Z</time></trkpt><trkpt lat="43.9822954392165" lon="8.024156774905554"><ele>739.4</ele><time>2026-05-03T14:22:36Z</time></trkpt><trkpt lat="43.982344617994876" lon="8.024268842397094"><ele>740.8</ele><time>2026-05-03T14:22:37Z</time></trkpt><trkpt lat="43.98238683407597" lon="8.024372321934159"><ele>742.2</ele><time>2026-05-03T14:22:38Z</time></trkpt><trkpt lat="43.982394029793234" lon="8.024499908104401"><ele>743.6</ele><time>2026-05-03T14:22:39Z</time></trkpt><trkpt lat="43.98241504495067" lon="8.024608827552903"><ele>745.0</ele><time>2026-05-03T14:22:40Z</time></trkpt><trkpt lat="43.982491342119474" lon="8.024726812808375"><ele>747.3333333333334</ele><time>2026-05-03T14:22:42Z</time></trkpt><trkpt lat="43.982566993396276" lon="8.024829587839829"><ele>749.6666666666667</ele><time>2026-05-03T14:22:44Z</time></trkpt><trkpt lat="43.98256722950087" lon="8.024930696794764"><ele>752.0</ele><time>2026-05-03T14:22:45Z</time></trkpt><trkpt lat="43.98256468682905" lon="8.025029127372054"><ele>754.3333333333334</ele><time>2026-05-03T14:22:46Z</time></trkpt><trkpt lat="43.98256276640925" lon="8.025134642183357"><ele>756.6666666666666</ele><time>2026-05-03T14:22:47Z</time></trkpt><trkpt lat="43.982546681303596" lon="8.025237242294322"><ele>759.0</ele><time>2026-05-03T14:22:48Z</time></trkpt><trkpt lat="43.98247493974988" lon="8.025365099726372"><ele>759.0</ele><time>2026-05-03T14:22:50Z</time></trkpt><trkpt lat="43.98244843574379" lon="8.02550529232534"><ele>759.0</ele><time>2026-05-03T14:22:52Z</time></trkpt><trkpt lat="43.98243849503508" lon="8.025595743093522"><ele>759.0</ele><time>2026-05-03T14:22:52.999Z</time></trkpt><trkpt lat="43.98244148234469" lon="8.025689638709117"><ele>759.0</ele><time>2026-05-03T14:22:53.999Z</time></trkpt><trkpt lat="43.98241879015612" lon="8.025834067818286"><ele>759.0</ele><time>2026-05-03T14:22:55.999Z</time></trkpt><trkpt lat="43.98235279707478" lon="8.02597782542396"><ele>761.6</ele><time>2026-05-03T14:22:57.999Z</time></trkpt><trkpt lat="43.98234471590363" lon="8.026069150551203"><ele>764.2</ele><time>2026-05-03T14:22:58.999Z</time></trkpt><trkpt lat="43.98234049683197" lon="8.026245260788032"><ele>766.8000000000001</ele><time>2026-05-03T14:23:00.999Z</time></trkpt><trkpt lat="43.9823225350835" lon="8.02636235784717"><ele>769.4000000000001</ele><time>2026-05-03T14:23:01.999Z</time></trkpt><trkpt lat="43.98229704945305" lon="8.026483687402752"><ele>772.0</ele><time>2026-05-03T14:23:02.999Z</time></trkpt><trkpt lat="43.98227581111547" lon="8.026605281465788"><ele>773.1666666666666</ele><time>2026-05-03T14:23:03.999Z</time></trkpt><trkpt lat="43.982289234538" lon="8.026709388357443"><ele>774.3333333333333</ele><time>2026-05-03T14:23:04.999Z</time></trkpt><trkpt lat="43.98232746210011" lon="8.026797298735529"><ele>775.5</ele><time>2026-05-03T14:23:05.999Z</time></trkpt><trkpt lat="43.98236618479124" lon="8.026887097040907"><ele>776.6666666666667</ele><time>2026-05-03T14:23:06.999Z</time></trkpt><trkpt lat="43.982408217518056" lon="8.026974023790995"><ele>777.8333333333334</ele><time>2026-05-03T14:23:07.999Z</time></trkpt><trkpt lat="43.98245798439216" lon="8.027063221860576"><ele>779.0</ele><time>2026-05-03T14:23:08.999Z</time></trkpt><trkpt lat="43.98251426496707" lon="8.027140673510104"><ele>776.6</ele><time>2026-05-03T14:23:09.999Z</time></trkpt><trkpt lat="43.982575175139786" lon="8.027225265172234"><ele>774.2</ele><time>2026-05-03T14:23:10.999Z</time></trkpt><trkpt lat="43.98263657101119" lon="8.027322396864395"><ele>771.8000000000001</ele><time>2026-05-03T14:23:11.999Z</time></trkpt><trkpt lat="43.982705615105566" lon="8.0274171865722"><ele>769.4000000000001</ele><time>2026-05-03T14:23:12.999Z</time></trkpt><trkpt lat="43.982767456686695" lon="8.027516655348114"><ele>767.0</ele><time>2026-05-03T14:23:13.999Z</time></trkpt><trkpt lat="43.98282082399685" lon="8.027615877756876"><ele>767.0</ele><time>2026-05-03T14:23:14.999Z</time></trkpt><trkpt lat="43.98284625249936" lon="8.027719486114986"><ele>767.0</ele><time>2026-05-03T14:23:16.999Z</time></trkpt><trkpt lat="43.98278259463748" lon="8.02773824529086"><ele>767.0</ele><time>2026-05-03T14:23:18.999Z</time></trkpt><trkpt lat="43.98267293199879" lon="8.027649158398482"><ele>767.0</ele><time>2026-05-03T14:23:20.999Z</time></trkpt><trkpt lat="43.98259072150153" lon="8.027600880956943"><ele>767.0</ele><time>2026-05-03T14:23:22.999Z</time></trkpt><trkpt lat="43.9825122155278" lon="8.027559055155042"><ele>767.0</ele><time>2026-05-03T14:23:24.999Z</time></trkpt><trkpt lat="43.98247902324643" lon="8.027642637794168"><ele>770.2</ele><time>2026-05-03T14:26:58Z</time></trkpt><trkpt lat="43.98243919200016" lon="8.027759569575224"><ele>773.4000000000001</ele><time>2026-05-03T14:27:00Z</time></trkpt><trkpt lat="43.98235617776232" lon="8.027850108205078"><ele>776.5999999999999</ele><time>2026-05-03T14:27:02Z</time></trkpt><trkpt lat="43.98228631370505" lon="8.027946061713303"><ele>779.8</ele><time>2026-05-03T14:27:04Z</time></trkpt><trkpt lat="43.98221383980944" lon="8.028038012204435"><ele>783.0</ele><time>2026-05-03T14:27:06Z</time></trkpt><trkpt lat="43.982166734856165" lon="8.028113706335729"><ele>783.0</ele><time>2026-05-03T14:27:08Z</time></trkpt><trkpt lat="43.98208548920474" lon="8.028182567715657"><ele>783.0</ele><time>2026-05-03T14:27:10Z</time></trkpt><trkpt lat="43.9820696982639" lon="8.028314142665133"><ele>783.0</ele><time>2026-05-03T14:27:12Z</time></trkpt><trkpt lat="43.98206172488078" lon="8.028450539415276"><ele>783.0</ele><time>2026-05-03T14:27:13.999Z</time></trkpt><trkpt lat="43.98203110915566" lon="8.028553746772786"><ele>783.0</ele><time>2026-05-03T14:27:15.999Z</time></trkpt><trkpt lat="43.9819600398433" lon="8.028668028209495"><ele>781.4</ele><time>2026-05-03T14:27:17.999Z</time></trkpt><trkpt lat="43.98192051070588" lon="8.028745178139559"><ele>779.8</ele><time>2026-05-03T14:27:18.999Z</time></trkpt><trkpt lat="43.98185497601746" lon="8.028883482185575"><ele>778.2</ele><time>2026-05-03T14:27:20.999Z</time></trkpt><trkpt lat="43.981803700759954" lon="8.028976061476063"><ele>776.6</ele><time>2026-05-03T14:27:22.999Z</time></trkpt><trkpt lat="43.981786633850376" lon="8.029129010793309"><ele>775.0</ele><time>2026-05-03T14:27:26.999Z</time></trkpt><trkpt lat="43.98176674846362" lon="8.029281895243129"><ele>773.3333333333333</ele><time>2026-05-03T14:27:28.999Z</time></trkpt><trkpt lat="43.98172776803975" lon="8.029390037147667"><ele>771.6666666666666</ele><time>2026-05-03T14:27:30.999Z</time></trkpt><trkpt lat="43.981692303590286" lon="8.029493642036519"><ele>770.0</ele><time>2026-05-03T14:27:32.999Z</time></trkpt><trkpt lat="43.98162672347697" lon="8.029551870395144"><ele>768.3333333333333</ele><time>2026-05-03T14:27:34.999Z</time></trkpt><trkpt lat="43.98160516358261" lon="8.029672324734113"><ele>766.6666666666666</ele><time>2026-05-03T14:27:36.999Z</time></trkpt><trkpt lat="43.98161320666819" lon="8.02977834121308"><ele>765.0</ele><time>2026-05-03T14:27:39.999Z</time></trkpt><trkpt lat="43.981599491460024" lon="8.029876176333712"><ele>769.8</ele><time>2026-05-03T14:27:51.999Z</time></trkpt><trkpt lat="43.981568120649015" lon="8.030007912947704"><ele>774.6</ele><time>2026-05-03T14:27:53.999Z</time></trkpt><trkpt lat="43.981545666828445" lon="8.030196066755824"><ele>779.4000000000001</ele><time>2026-05-03T14:27:55.999Z</time></trkpt><trkpt lat="43.98152917750749" lon="8.030291019161776"><ele>784.2</ele><time>2026-05-03T14:27:56.999Z</time></trkpt><trkpt lat="43.98150076708893" lon="8.030383950044733"><ele>789.0</ele><time>2026-05-03T14:27:57.999Z</time></trkpt><trkpt lat="43.98146026827471" lon="8.03047046695949"><ele>788.9999999999999</ele><time>2026-05-03T14:27:58.999Z</time></trkpt><trkpt lat="43.98141656292203" lon="8.030545882364642"><ele>789.0</ele><time>2026-05-03T14:27:59.999Z</time></trkpt><trkpt lat="43.98137243236178" lon="8.030624245134726"><ele>789.0</ele><time>2026-05-03T14:28:00.999Z</time></trkpt><trkpt lat="43.98133792515906" lon="8.030717801795513"><ele>789.0</ele><time>2026-05-03T14:28:01.999Z</time></trkpt><trkpt lat="43.981310144599114" lon="8.030816404959303"><ele>789.0</ele><time>2026-05-03T14:28:02.999Z</time></trkpt><trkpt lat="43.98129320732152" lon="8.030916455524952"><ele>788.9999999999999</ele><time>2026-05-03T14:28:03.999Z</time></trkpt><trkpt lat="43.98128216356688" lon="8.031019437904293"><ele>789.0</ele><time>2026-05-03T14:28:04.999Z</time></trkpt><trkpt lat="43.9812706961956" lon="8.031125198330605"><ele>786.6666666666666</ele><time>2026-05-03T14:28:05.999Z</time></trkpt><trkpt lat="43.981267720340455" lon="8.03121997410343"><ele>784.3333333333333</ele><time>2026-05-03T14:28:06.999Z</time></trkpt><trkpt lat="43.981271755431116" lon="8.031312789466188"><ele>782.0</ele><time>2026-05-03T14:28:07.999Z</time></trkpt><trkpt lat="43.98128432896176" lon="8.031408797827114"><ele>779.6666666666666</ele><time>2026-05-03T14:28:08.999Z</time></trkpt><trkpt lat="43.98130288386448" lon="8.031497995759722"><ele>777.3333333333333</ele><time>2026-05-03T14:28:09.999Z</time></trkpt><trkpt lat="43.981316427228116" lon="8.03163995982885"><ele>775.0</ele><time>2026-05-03T14:28:11.999Z</time></trkpt><trkpt lat="43.98135604447079" lon="8.031795425073128"><ele>774.8571428571428</ele><time>2026-05-03T14:28:13.999Z</time></trkpt><trkpt lat="43.98139263601865" lon="8.031868640985078"><ele>774.7142857142857</ele><time>2026-05-03T14:28:14.999Z</time></trkpt><trkpt lat="43.981423448936916" lon="8.031955465093661"><ele>774.5714285714286</ele><time>2026-05-03T14:28:16Z</time></trkpt><trkpt lat="43.98145007402372" lon="8.032051033098778"><ele>774.4285714285713</ele><time>2026-05-03T14:28:17Z</time></trkpt><trkpt lat="43.9814753636083" lon="8.032141324139193"><ele>774.2857142857143</ele><time>2026-05-03T14:28:18Z</time></trkpt><trkpt lat="43.98150601842421" lon="8.032227827442343"><ele>774.1428571428571</ele><time>2026-05-03T14:28:19Z</time></trkpt><trkpt lat="43.98153528558217" lon="8.032313282451796"><ele>774.0</ele><time>2026-05-03T14:28:20Z</time></trkpt><trkpt lat="43.98155980099343" lon="8.032396504078877"><ele>775.5</ele><time>2026-05-03T14:28:21Z</time></trkpt><trkpt lat="43.98157994322208" lon="8.032483685134151"><ele>777.0</ele><time>2026-05-03T14:28:22Z</time></trkpt><trkpt lat="43.981603408727054" lon="8.032572160452526"><ele>778.5</ele><time>2026-05-03T14:28:23Z</time></trkpt><trkpt lat="43.98161932992623" lon="8.03268010980532"><ele>780.0</ele><time>2026-05-03T14:28:24Z</time></trkpt><trkpt lat="43.98163944451064" lon="8.032785729052422"><ele>781.5</ele><time>2026-05-03T14:28:25Z</time></trkpt><trkpt lat="43.9816627925357" lon="8.032894666996926"><ele>783.0</ele><time>2026-05-03T14:28:26Z</time></trkpt><trkpt lat="43.98169601517289" lon="8.03299669548456"><ele>779.2</ele><time>2026-05-03T14:28:27Z</time></trkpt><trkpt lat="43.98172522109263" lon="8.033077492592511"><ele>775.4</ele><time>2026-05-03T14:28:28Z</time></trkpt><trkpt lat="43.98176914517565" lon="8.03318751656703"><ele>771.6</ele><time>2026-05-03T14:28:30Z</time></trkpt><trkpt lat="43.981809706476845" lon="8.033340464577174"><ele>767.8000000000001</ele><time>2026-05-03T14:28:32Z</time></trkpt><trkpt lat="43.98183845850663" lon="8.033477755522387"><ele>764.0</ele><time>2026-05-03T14:28:34Z</time></trkpt><trkpt lat="43.98184981838254" lon="8.033609045689973"><ele>764.0</ele><time>2026-05-03T14:28:37Z</time></trkpt><trkpt lat="43.98185452499157" lon="8.033699448196314"><ele>764.0</ele><time>2026-05-03T14:28:41Z</time></trkpt><trkpt lat="43.98184454689938" lon="8.033807524771824"><ele>764.0</ele><time>2026-05-03T14:28:44Z</time></trkpt><trkpt lat="43.98185959390755" lon="8.033923583380185"><ele>764.0</ele><time>2026-05-03T14:28:46Z</time></trkpt><trkpt lat="43.98187826530393" lon="8.034009435746158"><ele>764.0</ele><time>2026-05-03T14:28:49Z</time></trkpt><trkpt lat="43.981900704645156" lon="8.03413295556714"><ele>764.0</ele><time>2026-05-03T14:28:51Z</time></trkpt><trkpt lat="43.9818983533389" lon="8.03427936317465"><ele>767.75</ele><time>2026-05-03T14:28:53Z</time></trkpt><trkpt lat="43.981900070458586" lon="8.03445779622065"><ele>771.5</ele><time>2026-05-03T14:28:55Z</time></trkpt><trkpt lat="43.98190649757783" lon="8.034609513476868"><ele>775.25</ele><time>2026-05-03T14:28:57Z</time></trkpt><trkpt lat="43.98190249819209" lon="8.034765597017373"><ele>779.0</ele><time>2026-05-03T14:28:59Z</time></trkpt><trkpt lat="43.98192151935686" lon="8.034938445796863"><ele>782.5000000000001</ele><time>2026-05-03T14:29:01Z</time></trkpt><trkpt lat="43.9819321002351" lon="8.035052827826703"><ele>786.0</ele><time>2026-05-03T14:29:03Z</time></trkpt><trkpt lat="43.98191974740278" lon="8.035139697661055"><ele>789.5</ele><time>2026-05-03T14:29:05Z</time></trkpt><trkpt lat="43.98189126583326" lon="8.035229406069963"><ele>793.0</ele><time>2026-05-03T14:29:07Z</time></trkpt><trkpt lat="43.98183921887166" lon="8.035339350336528"><ele>796.5000000000001</ele><time>2026-05-03T14:29:08.999Z</time></trkpt><trkpt lat="43.98178084815513" lon="8.03545708399433"><ele>800.0</ele><time>2026-05-03T14:29:10.999Z</time></trkpt><trkpt lat="43.98171670169737" lon="8.035577459178887"><ele>800.0</ele><time>2026-05-03T14:29:12.999Z</time></trkpt><trkpt lat="43.98168351003067" lon="8.035704393860803"><ele>800.0</ele><time>2026-05-03T14:29:14.999Z</time></trkpt><trkpt lat="43.98163832336103" lon="8.03579604839138"><ele>800.0</ele><time>2026-05-03T14:29:16.999Z</time></trkpt><trkpt lat="43.98157135270574" lon="8.03599687193856"><ele>800.0</ele><time>2026-05-03T14:29:18.999Z</time></trkpt><trkpt lat="43.98150282839744" lon="8.03611119899261"><ele>800.0</ele><time>2026-05-03T14:29:20.999Z</time></trkpt><trkpt lat="43.981473955365175" lon="8.036254504826294"><ele>798.8</ele><time>2026-05-03T14:29:22.999Z</time></trkpt><trkpt lat="43.98146804200151" lon="8.036399493438346"><ele>797.6</ele><time>2026-05-03T14:29:24.999Z</time></trkpt><trkpt lat="43.9814593917756" lon="8.036490386665083"><ele>796.4000000000001</ele><time>2026-05-03T14:29:25.999Z</time></trkpt><trkpt lat="43.98142652257031" lon="8.036599648945396"><ele>795.2</ele><time>2026-05-03T14:29:28.999Z</time></trkpt><trkpt lat="43.98133596434301" lon="8.036657755004336"><ele>794.0</ele><time>2026-05-03T14:29:30.999Z</time></trkpt><trkpt lat="43.98126467593269" lon="8.036751036275046"><ele>796.1666666666667</ele><time>2026-05-03T14:29:32.999Z</time></trkpt><trkpt lat="43.9812102721784" lon="8.036843027153028"><ele>798.3333333333334</ele><time>2026-05-03T14:29:34.999Z</time></trkpt><trkpt lat="43.98112731994142" lon="8.036875116451043"><ele>800.5</ele><time>2026-05-03T14:29:37.999Z</time></trkpt><trkpt lat="43.981049972404236" lon="8.036945272442392"><ele>802.6666666666667</ele><time>2026-05-03T14:29:39.999Z</time></trkpt><trkpt lat="43.98100025105437" lon="8.03702551925936"><ele>804.8333333333334</ele><time>2026-05-03T14:29:40.999Z</time></trkpt><trkpt lat="43.980943884377226" lon="8.037090590789266"><ele>807.0</ele><time>2026-05-03T14:29:41.999Z</time></trkpt><trkpt lat="43.9808803569257" lon="8.037145469835798"><ele>804.8333333333334</ele><time>2026-05-03T14:29:42.999Z</time></trkpt><trkpt lat="43.98081889554212" lon="8.037209599026879"><ele>802.6666666666667</ele><time>2026-05-03T14:29:43.999Z</time></trkpt><trkpt lat="43.980762443054026" lon="8.037275017648042"><ele>800.5</ele><time>2026-05-03T14:29:44.999Z</time></trkpt><trkpt lat="43.98070235673875" lon="8.03733959836754"><ele>798.3333333333334</ele><time>2026-05-03T14:29:45.999Z</time></trkpt><trkpt lat="43.98065184226026" lon="8.037399913195415"><ele>796.1666666666667</ele><time>2026-05-03T14:29:46.999Z</time></trkpt><trkpt lat="43.98056551231518" lon="8.037494439694884"><ele>794.0</ele><time>2026-05-03T14:29:48.999Z</time></trkpt><trkpt lat="43.980492169372305" lon="8.037553499052153"><ele>794.0000000000001</ele><time>2026-05-03T14:29:49.999Z</time></trkpt><trkpt lat="43.98040628550299" lon="8.037615626260399"><ele>794.0</ele><time>2026-05-03T14:29:50.999Z</time></trkpt><trkpt lat="43.98032958855149" lon="8.037672573952694"><ele>794.0</ele><time>2026-05-03T14:29:51.999Z</time></trkpt><trkpt lat="43.98026147302037" lon="8.03772241466733"><ele>794.0</ele><time>2026-05-03T14:29:52.999Z</time></trkpt><trkpt lat="43.98020900847719" lon="8.037773757084297"><ele>794.0000000000001</ele><time>2026-05-03T14:29:53.999Z</time></trkpt><trkpt lat="43.98015763897911" lon="8.037836120281113"><ele>794.0</ele><time>2026-05-03T14:29:54.999Z</time></trkpt><trkpt lat="43.980099070775445" lon="8.03790708870609"><ele>794.0000000000001</ele><time>2026-05-03T14:29:55.999Z</time></trkpt><trkpt lat="43.98002959608985" lon="8.037972362394122"><ele>794.0</ele><time>2026-05-03T14:29:56.999Z</time></trkpt><trkpt lat="43.97994818091366" lon="8.038014598384434"><ele>794.0</ele><time>2026-05-03T14:29:57.999Z</time></trkpt><trkpt lat="43.979876141759654" lon="8.038068627969265"><ele>794.0</ele><time>2026-05-03T14:29:58.999Z</time></trkpt><trkpt lat="43.979816388825405" lon="8.038134025201586"><ele>794.0000000000001</ele><time>2026-05-03T14:29:59.999Z</time></trkpt><trkpt lat="43.97977131641231" lon="8.038205323614722"><ele>794.0</ele><time>2026-05-03T14:30:00.999Z</time></trkpt><trkpt lat="43.97973299908021" lon="8.038290656507854"><ele>794.5000000000001</ele><time>2026-05-03T14:30:01.999Z</time></trkpt><trkpt lat="43.97969992913731" lon="8.038387846613734"><ele>795.0</ele><time>2026-05-03T14:30:02.999Z</time></trkpt><trkpt lat="43.97965141702732" lon="8.03847565919337"><ele>795.5</ele><time>2026-05-03T14:30:03.999Z</time></trkpt><trkpt lat="43.97959694042799" lon="8.03855845090167"><ele>796.0</ele><time>2026-05-03T14:30:04.999Z</time></trkpt><trkpt lat="43.97955558383876" lon="8.038647344348119"><ele>796.5000000000001</ele><time>2026-05-03T14:30:05.999Z</time></trkpt><trkpt lat="43.9795120333638" lon="8.038715413572449"><ele>797.0</ele><time>2026-05-03T14:30:06.999Z</time></trkpt><trkpt lat="43.97938849167852" lon="8.038758466765984"><ele>797.0000000000001</ele><time>2026-05-03T14:30:08.999Z</time></trkpt><trkpt lat="43.97931706513656" lon="8.03875910399415"><ele>797.0</ele><time>2026-05-03T14:30:09.999Z</time></trkpt><trkpt lat="43.97922478772712" lon="8.038855895365714"><ele>797.0</ele><time>2026-05-03T14:30:11.999Z</time></trkpt><trkpt lat="43.97919691369787" lon="8.038950618024051"><ele>797.0</ele><time>2026-05-03T14:30:12.999Z</time></trkpt><trkpt lat="43.97916715603657" lon="8.03905554678517"><ele>797.0000000000001</ele><time>2026-05-03T14:30:13.999Z</time></trkpt><trkpt lat="43.979121508849545" lon="8.039168967231499"><ele>797.0</ele><time>2026-05-03T14:30:14.999Z</time></trkpt><trkpt lat="43.9790730135038" lon="8.039283310613914"><ele>795.5000000000001</ele><time>2026-05-03T14:30:15.999Z</time></trkpt><trkpt lat="43.9790283582294" lon="8.039399983102298"><ele>794.0</ele><time>2026-05-03T14:30:16.999Z</time></trkpt><trkpt lat="43.978974674184634" lon="8.039499433726682"><ele>792.5</ele><time>2026-05-03T14:30:17.999Z</time></trkpt><trkpt lat="43.97891537073339" lon="8.039594235649579"><ele>791.0</ele><time>2026-05-03T14:30:18.999Z</time></trkpt><trkpt lat="43.97885711357685" lon="8.039670576328218"><ele>789.5000000000001</ele><time>2026-05-03T14:30:19.999Z</time></trkpt><trkpt lat="43.97879325294427" lon="8.039733848950252"><ele>788.0</ele><time>2026-05-03T14:30:20.999Z</time></trkpt><trkpt lat="43.97871288365436" lon="8.039772692270951"><ele>788.0000000000001</ele><time>2026-05-03T14:30:22Z</time></trkpt><trkpt lat="43.97863235287253" lon="8.039797024539391"><ele>788.0</ele><time>2026-05-03T14:30:23Z</time></trkpt><trkpt lat="43.978573238588034" lon="8.03983968474788"><ele>788.0</ele><time>2026-05-03T14:30:24Z</time></trkpt><trkpt lat="43.978526428651776" lon="8.039909910474641"><ele>788.0</ele><time>2026-05-03T14:30:25Z</time></trkpt><trkpt lat="43.97848297302182" lon="8.040004519765176"><ele>788.0000000000001</ele><time>2026-05-03T14:30:26Z</time></trkpt><trkpt lat="43.97843082742622" lon="8.040100572610857"><ele>788.0</ele><time>2026-05-03T14:30:27Z</time></trkpt><trkpt lat="43.97838768164682" lon="8.040185727627405"><ele>786.6666666666667</ele><time>2026-05-03T14:30:28Z</time></trkpt><trkpt lat="43.97834319905309" lon="8.040253008491847"><ele>785.3333333333334</ele><time>2026-05-03T14:30:29Z</time></trkpt><trkpt lat="43.97828663006689" lon="8.040299035202686"><ele>784.0</ele><time>2026-05-03T14:30:30Z</time></trkpt><trkpt lat="43.97822184711395" lon="8.0403394412345"><ele>782.6666666666667</ele><time>2026-05-03T14:30:31Z</time></trkpt><trkpt lat="43.97815513359017" lon="8.04038968478735"><ele>781.3333333333334</ele><time>2026-05-03T14:30:32Z</time></trkpt><trkpt lat="43.97808891131046" lon="8.040463921589087"><ele>780.0</ele><time>2026-05-03T14:30:33Z</time></trkpt><trkpt lat="43.97801955489564" lon="8.040555571374291"><ele>780.0</ele><time>2026-05-03T14:30:34Z</time></trkpt><trkpt lat="43.97794176743889" lon="8.040659768346408"><ele>780.0</ele><time>2026-05-03T14:30:35Z</time></trkpt><trkpt lat="43.97786143233172" lon="8.040719321397747"><ele>780.0</ele><time>2026-05-03T14:30:36Z</time></trkpt><trkpt lat="43.977775034698126" lon="8.040763087978954"><ele>780.0</ele><time>2026-05-03T14:30:37Z</time></trkpt><trkpt lat="43.9776921433588" lon="8.040809437978231"><ele>780.0</ele><time>2026-05-03T14:30:38Z</time></trkpt><trkpt lat="43.977615522950394" lon="8.040818511081142"><ele>779.8333333333334</ele><time>2026-05-03T14:30:39Z</time></trkpt><trkpt lat="43.977553576715806" lon="8.040845031029326"><ele>779.6666666666667</ele><time>2026-05-03T14:30:40Z</time></trkpt><trkpt lat="43.97750765958618" lon="8.040906053776142"><ele>779.5</ele><time>2026-05-03T14:30:41Z</time></trkpt><trkpt lat="43.97746322785331" lon="8.040990475696152"><ele>779.3333333333334</ele><time>2026-05-03T14:30:42Z</time></trkpt><trkpt lat="43.97741112794839" lon="8.041078094412585"><ele>779.1666666666667</ele><time>2026-05-03T14:30:43Z</time></trkpt><trkpt lat="43.97734769782418" lon="8.041160278027917"><ele>779.0</ele><time>2026-05-03T14:30:44Z</time></trkpt><trkpt lat="43.97729457740717" lon="8.041246078442228"><ele>779.0000000000001</ele><time>2026-05-03T14:30:45Z</time></trkpt><trkpt lat="43.97724546764598" lon="8.041345552971348"><ele>779.0</ele><time>2026-05-03T14:30:46Z</time></trkpt><trkpt lat="43.97719015721912" lon="8.041444046692305"><ele>779.0</ele><time>2026-05-03T14:30:47Z</time></trkpt><trkpt lat="43.97713019789034" lon="8.041524198240406"><ele>779.0</ele><time>2026-05-03T14:30:48Z</time></trkpt><trkpt lat="43.977046384253455" lon="8.041570861705749"><ele>779.0000000000001</ele><time>2026-05-03T14:30:49Z</time></trkpt><trkpt lat="43.97697123064076" lon="8.041610723122124"><ele>779.0</ele><time>2026-05-03T14:30:50Z</time></trkpt><trkpt lat="43.97689314192997" lon="8.041656769042312"><ele>779.0000000000001</ele><time>2026-05-03T14:30:51Z</time></trkpt><trkpt lat="43.97681880912705" lon="8.041698921295943"><ele>779.0</ele><time>2026-05-03T14:30:52Z</time></trkpt><trkpt lat="43.976752392230395" lon="8.041713304287644"><ele>779.0</ele><time>2026-05-03T14:30:53Z</time></trkpt><trkpt lat="43.97668461854811" lon="8.041697916444779"><ele>779.0</ele><time>2026-05-03T14:30:54Z</time></trkpt><trkpt lat="43.97661510406171" lon="8.041670969610362"><ele>779.0</ele><time>2026-05-03T14:30:55Z</time></trkpt><trkpt lat="43.97653634755861" lon="8.041651389089477"><ele>779.0000000000001</ele><time>2026-05-03T14:30:56Z</time></trkpt><trkpt lat="43.9764606384294" lon="8.041649747247153"><ele>779.0</ele><time>2026-05-03T14:30:57Z</time></trkpt><trkpt lat="43.976381162319704" lon="8.04165766173311"><ele>779.0</ele><time>2026-05-03T14:30:58Z</time></trkpt><trkpt lat="43.976289918365524" lon="8.041684541886584"><ele>779.0</ele><time>2026-05-03T14:30:59Z</time></trkpt><trkpt lat="43.97619757053099" lon="8.041709400600086"><ele>779.0</ele><time>2026-05-03T14:31:00Z</time></trkpt><trkpt lat="43.97610328854534" lon="8.04171677275322"><ele>779.0</ele><time>2026-05-03T14:31:01Z</time></trkpt><trkpt lat="43.97601214134038" lon="8.041694484779294"><ele>779.0</ele><time>2026-05-03T14:31:02Z</time></trkpt><trkpt lat="43.97593328638141" lon="8.041666790192984"><ele>777.8333333333334</ele><time>2026-05-03T14:31:03Z</time></trkpt><trkpt lat="43.975849871194065" lon="8.041646434108003"><ele>776.6666666666667</ele><time>2026-05-03T14:31:04Z</time></trkpt><trkpt lat="43.975769758264185" lon="8.041637369108983"><ele>775.5</ele><time>2026-05-03T14:31:05Z</time></trkpt><trkpt lat="43.975701780197326" lon="8.04163385715617"><ele>774.3333333333333</ele><time>2026-05-03T14:31:06Z</time></trkpt><trkpt lat="43.97563052459927" lon="8.041631120828809"><ele>773.1666666666666</ele><time>2026-05-03T14:31:07Z</time></trkpt><trkpt lat="43.97554927271487" lon="8.041670019246736"><ele>772.0</ele><time>2026-05-03T14:31:08Z</time></trkpt><trkpt lat="43.97547502642189" lon="8.041723871597549"><ele>771.9999999999999</ele><time>2026-05-03T14:31:09Z</time></trkpt><trkpt lat="43.97539841403089" lon="8.041791926655042"><ele>772.0</ele><time>2026-05-03T14:31:10Z</time></trkpt><trkpt lat="43.9753351899188" lon="8.04186615570625"><ele>772.0</ele><time>2026-05-03T14:31:11Z</time></trkpt><trkpt lat="43.97529670969877" lon="8.04195744343239"><ele>772.0</ele><time>2026-05-03T14:31:12Z</time></trkpt><trkpt lat="43.97526196952784" lon="8.042060507107175"><ele>771.9999999999999</ele><time>2026-05-03T14:31:13Z</time></trkpt><trkpt lat="43.9752079695542" lon="8.042153942812499"><ele>772.0</ele><time>2026-05-03T14:31:14Z</time></trkpt><trkpt lat="43.975151027772405" lon="8.042232849702106"><ele>771.9999999999999</ele><time>2026-05-03T14:31:14.999Z</time></trkpt><trkpt lat="43.97511124490206" lon="8.042318972405011"><ele>772.0</ele><time>2026-05-03T14:31:15.999Z</time></trkpt><trkpt lat="43.9750734059824" lon="8.042428664480456"><ele>772.0</ele><time>2026-05-03T14:31:16.999Z</time></trkpt><trkpt lat="43.97503260591261" lon="8.042540999581165"><ele>772.0</ele><time>2026-05-03T14:31:17.999Z</time></trkpt><trkpt lat="43.974997165848045" lon="8.042660162234068"><ele>771.9999999999999</ele><time>2026-05-03T14:31:18.999Z</time></trkpt><trkpt lat="43.97495447728837" lon="8.042763870439012"><ele>772.0</ele><time>2026-05-03T14:31:19.999Z</time></trkpt><trkpt lat="43.974885227740806" lon="8.042824716391676"><ele>771.6666666666666</ele><time>2026-05-03T14:31:20.999Z</time></trkpt><trkpt lat="43.97479698588566" lon="8.04286275089021"><ele>771.3333333333333</ele><time>2026-05-03T14:31:21.999Z</time></trkpt><trkpt lat="43.97470699124684" lon="8.04288597644938"><ele>771.0</ele><time>2026-05-03T14:31:22.999Z</time></trkpt><trkpt lat="43.974627119233624" lon="8.04292422687813"><ele>770.6666666666667</ele><time>2026-05-03T14:31:23.999Z</time></trkpt><trkpt lat="43.97455034552468" lon="8.042967906047148"><ele>770.3333333333334</ele><time>2026-05-03T14:31:24.999Z</time></trkpt><trkpt lat="43.9744733537301" lon="8.043015280793295"><ele>770.0</ele><time>2026-05-03T14:31:25.999Z</time></trkpt><trkpt lat="43.97438359511168" lon="8.043061885438709"><ele>770.0</ele><time>2026-05-03T14:31:26.999Z</time></trkpt><trkpt lat="43.97429624668899" lon="8.043117256973815"><ele>770.0</ele><time>2026-05-03T14:31:27.999Z</time></trkpt><trkpt lat="43.97421241666573" lon="8.043193815388152"><ele>770.0</ele><time>2026-05-03T14:31:28.999Z</time></trkpt><trkpt lat="43.974133692594165" lon="8.043285913403684"><ele>770.0</ele><time>2026-05-03T14:31:29.999Z</time></trkpt><trkpt lat="43.974056172815125" lon="8.043385911402114"><ele>770.0</ele><time>2026-05-03T14:31:30.999Z</time></trkpt><trkpt lat="43.973976757329496" lon="8.043463851997426"><ele>769.0000000000001</ele><time>2026-05-03T14:31:31.999Z</time></trkpt><trkpt lat="43.97389947892332" lon="8.043536358315468"><ele>768.0</ele><time>2026-05-03T14:31:32.999Z</time></trkpt><trkpt lat="43.973827002022624" lon="8.043626598651056"><ele>767.0</ele><time>2026-05-03T14:31:33.999Z</time></trkpt><trkpt lat="43.97377548634632" lon="8.043726073739165"><ele>766.0</ele><time>2026-05-03T14:31:34.999Z</time></trkpt><trkpt lat="43.97372713729246" lon="8.043807578261676"><ele>765.0</ele><time>2026-05-03T14:31:35.999Z</time></trkpt><trkpt lat="43.97367230889541" lon="8.043885689132514"><ele>764.0</ele><time>2026-05-03T14:31:36.999Z</time></trkpt><trkpt lat="43.973624101252646" lon="8.04397712905925"><ele>764.0</ele><time>2026-05-03T14:31:37.999Z</time></trkpt><trkpt lat="43.97357775485225" lon="8.044071660203842"><ele>764.0</ele><time>2026-05-03T14:31:38.999Z</time></trkpt><trkpt lat="43.97353450290482" lon="8.04416418324244"><ele>764.0</ele><time>2026-05-03T14:31:39.999Z</time></trkpt><trkpt lat="43.97350741203772" lon="8.0442611341923"><ele>764.0</ele><time>2026-05-03T14:31:40.999Z</time></trkpt><trkpt lat="43.97350613706847" lon="8.044355737017035"><ele>764.0</ele><time>2026-05-03T14:31:41.999Z</time></trkpt><trkpt lat="43.97353730947339" lon="8.044459970774824"><ele>764.0</ele><time>2026-05-03T14:31:42.999Z</time></trkpt><trkpt lat="43.97357041638435" lon="8.044577144770388"><ele>767.1666666666666</ele><time>2026-05-03T14:31:43.999Z</time></trkpt><trkpt lat="43.973592625067276" lon="8.044681746786559"><ele>770.3333333333333</ele><time>2026-05-03T14:31:44.999Z</time></trkpt><trkpt lat="43.973614365775624" lon="8.04479393646547"><ele>773.5</ele><time>2026-05-03T14:31:45.999Z</time></trkpt><trkpt lat="43.97364353788251" lon="8.044901708707313"><ele>776.6666666666666</ele><time>2026-05-03T14:31:46.999Z</time></trkpt><trkpt lat="43.9736702720889" lon="8.045016445891015"><ele>779.8333333333334</ele><time>2026-05-03T14:31:47.999Z</time></trkpt><trkpt lat="43.97368482299711" lon="8.045136814620086"><ele>783.0</ele><time>2026-05-03T14:31:48.999Z</time></trkpt><trkpt lat="43.97367992899446" lon="8.045253363678036"><ele>783.0</ele><time>2026-05-03T14:31:49.999Z</time></trkpt><trkpt lat="43.97365358670854" lon="8.045366457431463"><ele>783.0</ele><time>2026-05-03T14:31:50.999Z</time></trkpt><trkpt lat="43.973619832048676" lon="8.045487315478857"><ele>783.0</ele><time>2026-05-03T14:31:51.999Z</time></trkpt><trkpt lat="43.97358357833559" lon="8.04559415204504"><ele>783.0</ele><time>2026-05-03T14:31:52.999Z</time></trkpt><trkpt lat="43.973553435837985" lon="8.045697417150537"><ele>783.0</ele><time>2026-05-03T14:31:53.999Z</time></trkpt><trkpt lat="43.97353074739544" lon="8.045810047624803"><ele>783.0</ele><time>2026-05-03T14:31:54.999Z</time></trkpt><trkpt lat="43.97350152909335" lon="8.045904306776434"><ele>781.3333333333334</ele><time>2026-05-03T14:31:55.999Z</time></trkpt><trkpt lat="43.97346222222425" lon="8.045985862378908"><ele>779.6666666666667</ele><time>2026-05-03T14:31:56.999Z</time></trkpt><trkpt lat="43.973410838586766" lon="8.046063876530676"><ele>778.0</ele><time>2026-05-03T14:31:57.999Z</time></trkpt><trkpt lat="43.973340779559145" lon="8.046145941227895"><ele>776.3333333333334</ele><time>2026-05-03T14:31:58.999Z</time></trkpt><trkpt lat="43.973254416653134" lon="8.046225408778898"><ele>774.6666666666667</ele><time>2026-05-03T14:31:59.999Z</time></trkpt><trkpt lat="43.973179898958" lon="8.04630540443503"><ele>773.0</ele><time>2026-05-03T14:32:00.999Z</time></trkpt><trkpt lat="43.97311680842632" lon="8.04639246538574"><ele>771.1666666666667</ele><time>2026-05-03T14:32:01.999Z</time></trkpt><trkpt lat="43.97306744711263" lon="8.046488337038314"><ele>769.3333333333334</ele><time>2026-05-03T14:32:02.999Z</time></trkpt><trkpt lat="43.97302087527891" lon="8.046592032756505"><ele>767.5</ele><time>2026-05-03T14:32:03.999Z</time></trkpt><trkpt lat="43.972974469818396" lon="8.04669163463149"><ele>765.6666666666667</ele><time>2026-05-03T14:32:04.999Z</time></trkpt><trkpt lat="43.97291879268851" lon="8.046775086865525"><ele>763.8333333333334</ele><time>2026-05-03T14:32:05.999Z</time></trkpt><trkpt lat="43.972862995211216" lon="8.046828661391565"><ele>762.0</ele><time>2026-05-03T14:32:06.999Z</time></trkpt><trkpt lat="43.972793430202614" lon="8.046868350875434"><ele>762.0</ele><time>2026-05-03T14:32:07.999Z</time></trkpt><trkpt lat="43.972729261936266" lon="8.04690263750475"><ele>762.0</ele><time>2026-05-03T14:32:08.999Z</time></trkpt><trkpt lat="43.97265794905833" lon="8.047008040111338"><ele>762.0</ele><time>2026-05-03T14:32:10.999Z</time></trkpt><trkpt lat="43.972633556915156" lon="8.047156811072854"><ele>762.0</ele><time>2026-05-03T14:32:12.999Z</time></trkpt><trkpt lat="43.972631310017384" lon="8.0472500212842"><ele>762.0</ele><time>2026-05-03T14:32:13.999Z</time></trkpt><trkpt lat="43.97263417242768" lon="8.047354754528182"><ele>762.0</ele><time>2026-05-03T14:32:14.999Z</time></trkpt><trkpt lat="43.97263715476607" lon="8.047448720112145"><ele>761.0</ele><time>2026-05-03T14:32:15.999Z</time></trkpt><trkpt lat="43.972599880165546" lon="8.047569488558372"><ele>760.0</ele><time>2026-05-03T14:32:17.999Z</time></trkpt><trkpt lat="43.97248151764118" lon="8.047640161826273"><ele>759.0</ele><time>2026-05-03T14:32:19.999Z</time></trkpt><trkpt lat="43.972406196117525" lon="8.047685696834066"><ele>758.0</ele><time>2026-05-03T14:32:20.999Z</time></trkpt><trkpt lat="43.97232540559821" lon="8.047725977866943"><ele>757.0</ele><time>2026-05-03T14:32:21.999Z</time></trkpt><trkpt lat="43.97225127941426" lon="8.047762211557117"><ele>755.5</ele><time>2026-05-03T14:32:22.999Z</time></trkpt><trkpt lat="43.972184784334374" lon="8.047815119573647"><ele>754.0</ele><time>2026-05-03T14:32:23.999Z</time></trkpt><trkpt lat="43.97211636884089" lon="8.047882126547284"><ele>752.5</ele><time>2026-05-03T14:32:24.999Z</time></trkpt><trkpt lat="43.97205215237007" lon="8.04792646988855"><ele>751.0</ele><time>2026-05-03T14:32:25.999Z</time></trkpt><trkpt lat="43.97198935263992" lon="8.047974929738414"><ele>749.5</ele><time>2026-05-03T14:32:26.999Z</time></trkpt><trkpt lat="43.971920208594554" lon="8.048039617941717"><ele>748.0</ele><time>2026-05-03T14:32:28Z</time></trkpt><trkpt lat="43.97186555801989" lon="8.048107031948296"><ele>748.0</ele><time>2026-05-03T14:32:29Z</time></trkpt><trkpt lat="43.97181900698433" lon="8.048173244299406"><ele>748.0</ele><time>2026-05-03T14:32:30Z</time></trkpt><trkpt lat="43.97175044545434" lon="8.04831907515922"><ele>748.0</ele><time>2026-05-03T14:32:32Z</time></trkpt><trkpt lat="43.97173342917699" lon="8.048493066961612"><ele>748.0</ele><time>2026-05-03T14:32:34Z</time></trkpt><trkpt lat="43.971759318998366" lon="8.048615799044793"><ele>748.0</ele><time>2026-05-03T14:32:35Z</time></trkpt><trkpt lat="43.97177909236246" lon="8.04871769417787"><ele>748.4285714285714</ele><time>2026-05-03T14:32:36Z</time></trkpt><trkpt lat="43.97179836456562" lon="8.048814940669478"><ele>748.8571428571429</ele><time>2026-05-03T14:32:37Z</time></trkpt><trkpt lat="43.971812902886306" lon="8.048912033582411"><ele>749.2857142857143</ele><time>2026-05-03T14:32:38Z</time></trkpt><trkpt lat="43.97182421225245" lon="8.049004401827627"><ele>749.7142857142858</ele><time>2026-05-03T14:32:39Z</time></trkpt><trkpt lat="43.97183603990551" lon="8.049098579828668"><ele>750.1428571428571</ele><time>2026-05-03T14:32:40Z</time></trkpt><trkpt lat="43.971848843408985" lon="8.049212116924902"><ele>750.5714285714287</ele><time>2026-05-03T14:32:41Z</time></trkpt><trkpt lat="43.971864081260364" lon="8.04931934541208"><ele>751.0</ele><time>2026-05-03T14:32:42Z</time></trkpt><trkpt lat="43.97187551289284" lon="8.049414634206162"><ele>749.1428571428572</ele><time>2026-05-03T14:32:43Z</time></trkpt><trkpt lat="43.971881369593795" lon="8.049505663395705"><ele>747.2857142857143</ele><time>2026-05-03T14:32:44Z</time></trkpt><trkpt lat="43.97186410601031" lon="8.049590470192623"><ele>745.4285714285714</ele><time>2026-05-03T14:32:45Z</time></trkpt><trkpt lat="43.971831916382335" lon="8.049666434817071"><ele>743.5714285714287</ele><time>2026-05-03T14:32:46Z</time></trkpt><trkpt lat="43.97179231888114" lon="8.049736598953587"><ele>741.7142857142857</ele><time>2026-05-03T14:32:47Z</time></trkpt><trkpt lat="43.97175187271415" lon="8.04982096514856"><ele>739.8571428571429</ele><time>2026-05-03T14:32:48Z</time></trkpt><trkpt lat="43.97170830043192" lon="8.049912804546944"><ele>738.0</ele><time>2026-05-03T14:32:49Z</time></trkpt><trkpt lat="43.971663684604806" lon="8.050003430937847"><ele>734.6666666666666</ele><time>2026-05-03T14:32:50Z</time></trkpt><trkpt lat="43.97161135506642" lon="8.050081124113264"><ele>731.3333333333334</ele><time>2026-05-03T14:32:51Z</time></trkpt><trkpt lat="43.97155363218737" lon="8.050162530808462"><ele>728.0</ele><time>2026-05-03T14:32:52Z</time></trkpt><trkpt lat="43.97149678143747" lon="8.050248198067722"><ele>724.6666666666667</ele><time>2026-05-03T14:32:53Z</time></trkpt><trkpt lat="43.97144118766256" lon="8.050340346094947"><ele>721.3333333333334</ele><time>2026-05-03T14:32:54Z</time></trkpt><trkpt lat="43.971387469677964" lon="8.050434631245567"><ele>718.0</ele><time>2026-05-03T14:32:55Z</time></trkpt><trkpt lat="43.97134496199273" lon="8.050509304638778"><ele>718.0</ele><time>2026-05-03T14:32:56Z</time></trkpt><trkpt lat="43.97128448818663" lon="8.05064976623165"><ele>718.0</ele><time>2026-05-03T14:32:58Z</time></trkpt><trkpt lat="43.97125144704317" lon="8.050766230261093"><ele>718.0</ele><time>2026-05-03T14:33:00Z</time></trkpt><trkpt lat="43.97122361537508" lon="8.050862940870616"><ele>718.0</ele><time>2026-05-03T14:33:03Z</time></trkpt><trkpt lat="43.971196156097946" lon="8.050952484314935"><ele>718.0</ele><time>2026-05-03T14:33:23Z</time></trkpt><trkpt lat="43.97123288782064" lon="8.051023833541068"><ele>718.0</ele><time>2026-05-03T14:33:25.999Z</time></trkpt><trkpt lat="43.971209728780785" lon="8.051115677874192"><ele>716.3333333333334</ele><time>2026-05-03T14:33:28.999Z</time></trkpt><trkpt lat="43.97114473631101" lon="8.051207357951368"><ele>714.6666666666667</ele><time>2026-05-03T14:33:30.999Z</time></trkpt><trkpt lat="43.97109527051583" lon="8.051280038954351"><ele>713.0</ele><time>2026-05-03T14:33:32.999Z</time></trkpt><trkpt lat="43.97103210144696" lon="8.051340626913264"><ele>711.3333333333334</ele><time>2026-05-03T14:33:34.999Z</time></trkpt><trkpt lat="43.97097491772291" lon="8.051460367923884"><ele>709.6666666666666</ele><time>2026-05-03T14:33:37.999Z</time></trkpt><trkpt lat="43.97094250023857" lon="8.051545441139735"><ele>708.0</ele><time>2026-05-03T14:33:40.999Z</time></trkpt><trkpt lat="43.97088493212882" lon="8.051642252590353"><ele>710.1666666666666</ele><time>2026-05-03T14:33:42.999Z</time></trkpt><trkpt lat="43.97079719624701" lon="8.051672936773016"><ele>712.3333333333334</ele><time>2026-05-03T14:33:44.999Z</time></trkpt><trkpt lat="43.970740781534964" lon="8.051729153007523"><ele>714.5</ele><time>2026-05-03T14:33:47.999Z</time></trkpt><trkpt lat="43.970708344813936" lon="8.05180442112688"><ele>716.6666666666667</ele><time>2026-05-03T14:33:49.999Z</time></trkpt><trkpt lat="43.97064742446428" lon="8.05189164136047"><ele>718.8333333333334</ele><time>2026-05-03T14:33:50.999Z</time></trkpt><trkpt lat="43.970574467728014" lon="8.051990876789324"><ele>721.0</ele><time>2026-05-03T14:33:52.999Z</time></trkpt><trkpt lat="43.970523233556506" lon="8.052066582052513"><ele>721.0</ele><time>2026-05-03T14:33:54.999Z</time></trkpt><trkpt lat="43.97049539706876" lon="8.052154978629142"><ele>721.0</ele><time>2026-05-03T14:33:56.999Z</time></trkpt><trkpt lat="43.97048632525007" lon="8.052251718169279"><ele>721.0</ele><time>2026-05-03T14:33:58.999Z</time></trkpt><trkpt lat="43.970478552744794" lon="8.052348714914537"><ele>721.0</ele><time>2026-05-03T14:34:00.999Z</time></trkpt><trkpt lat="43.9705081991968" lon="8.052432951791602"><ele>721.0</ele><time>2026-05-03T14:34:02.999Z</time></trkpt><trkpt lat="43.97047441278017" lon="8.052535168022326"><ele>721.0</ele><time>2026-05-03T14:34:04.999Z</time></trkpt><trkpt lat="43.970455813037624" lon="8.052668574114898"><ele>721.5</ele><time>2026-05-03T14:34:06.999Z</time></trkpt><trkpt lat="43.970511901126656" lon="8.0527119510738"><ele>722.0</ele><time>2026-05-03T14:34:08.999Z</time></trkpt><trkpt lat="43.970473249519465" lon="8.05284788070483"><ele>722.5</ele><time>2026-05-03T14:34:12.999Z</time></trkpt><trkpt lat="43.97045370274451" lon="8.052946382973312"><ele>723.0</ele><time>2026-05-03T14:34:13.999Z</time></trkpt><trkpt lat="43.97042559615313" lon="8.053082513446407"><ele>723.5</ele><time>2026-05-03T14:34:15.999Z</time></trkpt><trkpt lat="43.97040728247929" lon="8.053168307508514"><ele>724.0</ele><time>2026-05-03T14:34:16.999Z</time></trkpt><trkpt lat="43.970377579954054" lon="8.053323667827915"><ele>722.6</ele><time>2026-05-03T14:34:18.999Z</time></trkpt><trkpt lat="43.9703595955064" lon="8.05345653978749"><ele>721.2</ele><time>2026-05-03T14:34:20.999Z</time></trkpt><trkpt lat="43.970348421653355" lon="8.053572279322971"><ele>719.8000000000001</ele><time>2026-05-03T14:34:23.999Z</time></trkpt><trkpt lat="43.97030816592213" lon="8.053668743829276"><ele>718.4000000000001</ele><time>2026-05-03T14:34:25.999Z</time></trkpt><trkpt lat="43.97023879168199" lon="8.053801551843495"><ele>717.0</ele><time>2026-05-03T14:34:26.999Z</time></trkpt><trkpt lat="43.970190979163824" lon="8.053872973202191"><ele>717.0</ele><time>2026-05-03T14:34:27.999Z</time></trkpt><trkpt lat="43.97015014847764" lon="8.053939692381297"><ele>717.0</ele><time>2026-05-03T14:34:28.999Z</time></trkpt><trkpt lat="43.97007239747392" lon="8.05407395521117"><ele>717.0</ele><time>2026-05-03T14:34:30.999Z</time></trkpt><trkpt lat="43.970004771653116" lon="8.054139482356291"><ele>717.0</ele><time>2026-05-03T14:34:31.999Z</time></trkpt><trkpt lat="43.96995118194993" lon="8.054196330267482"><ele>717.0</ele><time>2026-05-03T14:34:32.999Z</time></trkpt><trkpt lat="43.96988482281814" lon="8.054296901930352"><ele>717.0</ele><time>2026-05-03T14:34:35Z</time></trkpt><trkpt lat="43.96977790123827" lon="8.054418948103546"><ele>720.2</ele><time>2026-05-03T14:34:37Z</time></trkpt><trkpt lat="43.969683079945725" lon="8.05452362836707"><ele>723.4000000000001</ele><time>2026-05-03T14:34:39Z</time></trkpt><trkpt lat="43.9696198058699" lon="8.054552863732077"><ele>726.5999999999999</ele><time>2026-05-03T14:34:40Z</time></trkpt><trkpt lat="43.96954076027254" lon="8.054617073633931"><ele>729.8</ele><time>2026-05-03T14:34:41Z</time></trkpt><trkpt lat="43.96948505836936" lon="8.05466575678458"><ele>733.0</ele><time>2026-05-03T14:34:42Z</time></trkpt><trkpt lat="43.96939754662157" lon="8.054756119647768"><ele>733.0</ele><time>2026-05-03T14:34:44Z</time></trkpt><trkpt lat="43.969333650982655" lon="8.054875667530727"><ele>733.0</ele><time>2026-05-03T14:34:46Z</time></trkpt><trkpt lat="43.96925557349371" lon="8.054984620518947"><ele>733.0</ele><time>2026-05-03T14:34:48Z</time></trkpt><trkpt lat="43.96919503957287" lon="8.055052596011109"><ele>733.0</ele><time>2026-05-03T14:34:50Z</time></trkpt><trkpt lat="43.969144594579014" lon="8.055154302186885"><ele>733.0</ele><time>2026-05-03T14:34:52Z</time></trkpt><trkpt lat="43.96905725284299" lon="8.055208783302394"><ele>730.8333333333334</ele><time>2026-05-03T14:34:54Z</time></trkpt><trkpt lat="43.96897538555016" lon="8.055251787769805"><ele>728.6666666666667</ele><time>2026-05-03T14:34:56Z</time></trkpt><trkpt lat="43.96900312161663" lon="8.055350813339752"><ele>726.5</ele><time>2026-05-03T14:34:57Z</time></trkpt><trkpt lat="43.96900703511097" lon="8.055452658971813"><ele>724.3333333333334</ele><time>2026-05-03T14:34:58Z</time></trkpt><trkpt lat="43.9689347493678" lon="8.055515426299523"><ele>722.1666666666666</ele><time>2026-05-03T14:35:00Z</time></trkpt><trkpt lat="43.968890448529415" lon="8.055598641796431"><ele>720.0</ele><time>2026-05-03T14:35:02Z</time></trkpt><trkpt lat="43.96882921174301" lon="8.055723949671062"><ele>720.0</ele><time>2026-05-03T14:35:04Z</time></trkpt><trkpt lat="43.96878319131548" lon="8.055785276882059"><ele>720.0</ele><time>2026-05-03T14:35:06Z</time></trkpt><trkpt lat="43.96871911181103" lon="8.055849925751343"><ele>720.0</ele><time>2026-05-03T14:35:08Z</time></trkpt><trkpt lat="43.9686672466973" lon="8.055902300269517"><ele>720.0</ele><time>2026-05-03T14:35:09Z</time></trkpt><trkpt lat="43.96864392470148" lon="8.055985720585111"><ele>720.0</ele><time>2026-05-03T14:35:11Z</time></trkpt><trkpt lat="43.96857514470784" lon="8.056072181550917"><ele>720.0</ele><time>2026-05-03T14:35:13Z</time></trkpt><trkpt lat="43.96852863383677" lon="8.05616212691988"><ele>720.0</ele><time>2026-05-03T14:35:15Z</time></trkpt><trkpt lat="43.96846415226228" lon="8.056291494403164"><ele>718.1666666666666</ele><time>2026-05-03T14:35:18Z</time></trkpt><trkpt lat="43.96840846218487" lon="8.05641710150218"><ele>716.3333333333334</ele><time>2026-05-03T14:35:20Z</time></trkpt><trkpt lat="43.96836674781217" lon="8.056520113004623"><ele>714.5</ele><time>2026-05-03T14:35:24Z</time></trkpt><trkpt lat="43.96838291545667" lon="8.056619495230267"><ele>712.6666666666667</ele><time>2026-05-03T14:35:27Z</time></trkpt><trkpt lat="43.96836826597526" lon="8.056705527926713"><ele>710.8333333333334</ele><time>2026-05-03T14:35:28.999Z</time></trkpt><trkpt lat="43.96831729376888" lon="8.056780967619668"><ele>709.0</ele><time>2026-05-03T14:35:30.999Z</time></trkpt><trkpt lat="43.96823791819313" lon="8.056849160371955"><ele>705.3333333333334</ele><time>2026-05-03T14:35:32.999Z</time></trkpt><trkpt lat="43.968172558439704" lon="8.056942852386229"><ele>701.6666666666667</ele><time>2026-05-03T14:35:33.999Z</time></trkpt><trkpt lat="43.96811527151205" lon="8.057008255454845"><ele>698.0</ele><time>2026-05-03T14:35:34.999Z</time></trkpt><trkpt lat="43.968067073300965" lon="8.057072249284383"><ele>694.3333333333334</ele><time>2026-05-03T14:35:35.999Z</time></trkpt><trkpt lat="43.96800044865774" lon="8.057187510619736"><ele>690.6666666666666</ele><time>2026-05-03T14:35:37.999Z</time></trkpt><trkpt lat="43.967952197816345" lon="8.057301268914262"><ele>687.0</ele><time>2026-05-03T14:35:39.999Z</time></trkpt><trkpt lat="43.96786398660933" lon="8.057367738512628"><ele>684.8</ele><time>2026-05-03T14:35:41.999Z</time></trkpt><trkpt lat="43.96783970573566" lon="8.057468860113381"><ele>682.6</ele><time>2026-05-03T14:35:43.999Z</time></trkpt><trkpt lat="43.967760158299356" lon="8.057527421988466"><ele>680.4</ele><time>2026-05-03T14:35:45.999Z</time></trkpt><trkpt lat="43.96768401607062" lon="8.057555155635056"><ele>678.1999999999999</ele><time>2026-05-03T14:35:47.999Z</time></trkpt><trkpt lat="43.96757074454966" lon="8.057622686237453"><ele>676.0</ele><time>2026-05-03T14:35:49.999Z</time></trkpt><trkpt lat="43.96750625129897" lon="8.057692310302222"><ele>676.0</ele><time>2026-05-03T14:35:51.999Z</time></trkpt><trkpt lat="43.96741406554875" lon="8.057723412909146"><ele>676.0</ele><time>2026-05-03T14:35:53.999Z</time></trkpt><trkpt lat="43.967328025351286" lon="8.05778538608068"><ele>676.0</ele><time>2026-05-03T14:35:55.999Z</time></trkpt><trkpt lat="43.96723240904296" lon="8.057755352200841"><ele>676.0</ele><time>2026-05-03T14:35:57.999Z</time></trkpt><trkpt lat="43.96712860539266" lon="8.057695909972217"><ele>676.0</ele><time>2026-05-03T14:35:59.999Z</time></trkpt><trkpt lat="43.967056946401364" lon="8.057699315883438"><ele>676.0</ele><time>2026-05-03T14:36:01.999Z</time></trkpt><trkpt lat="43.9670126704243" lon="8.057785049448555"><ele>676.0</ele><time>2026-05-03T14:36:03.999Z</time></trkpt><trkpt lat="43.966911680924056" lon="8.057820505010646"><ele>676.0</ele><time>2026-05-03T14:36:05.999Z</time></trkpt><trkpt lat="43.96682865254833" lon="8.05788482088891"><ele>676.0</ele><time>2026-05-03T14:36:07.999Z</time></trkpt><trkpt lat="43.96674161245269" lon="8.05790524263382"><ele>676.0</ele><time>2026-05-03T14:36:09.999Z</time></trkpt><trkpt lat="43.9666768335473" lon="8.057985921437334"><ele>673.8</ele><time>2026-05-03T14:36:11.999Z</time></trkpt><trkpt lat="43.966597263438935" lon="8.058017958691774"><ele>671.5999999999999</ele><time>2026-05-03T14:36:13.999Z</time></trkpt><trkpt lat="43.966507992947896" lon="8.058086499171823"><ele>669.4</ele><time>2026-05-03T14:36:15.999Z</time></trkpt><trkpt lat="43.966425441389966" lon="8.058131050733977"><ele>667.2</ele><time>2026-05-03T14:36:17.999Z</time></trkpt><trkpt lat="43.966323935270175" lon="8.058210442269617"><ele>665.0</ele><time>2026-05-03T14:36:19.999Z</time></trkpt><trkpt lat="43.96626094075233" lon="8.058228510786714"><ele>665.0</ele><time>2026-05-03T14:36:20.999Z</time></trkpt><trkpt lat="43.96619654942634" lon="8.058281797746561"><ele>665.0</ele><time>2026-05-03T14:36:23.999Z</time></trkpt><trkpt lat="43.966144143131594" lon="8.058389666649415"><ele>665.0</ele><time>2026-05-03T14:36:26.999Z</time></trkpt><trkpt lat="43.96607882067267" lon="8.058469902938564"><ele>665.0</ele><time>2026-05-03T14:36:28.999Z</time></trkpt><trkpt lat="43.966004128602314" lon="8.058563937030527"><ele>665.0</ele><time>2026-05-03T14:36:30.999Z</time></trkpt><trkpt lat="43.96592818425808" lon="8.058670132374958"><ele>663.8</ele><time>2026-05-03T14:36:32.999Z</time></trkpt><trkpt lat="43.96585339250596" lon="8.058745812124263"><ele>662.6</ele><time>2026-05-03T14:36:33.999Z</time></trkpt><trkpt lat="43.96579108585527" lon="8.058833783438459"><ele>661.4000000000001</ele><time>2026-05-03T14:36:35.999Z</time></trkpt><trkpt lat="43.96574840548347" lon="8.058953809554627"><ele>660.2</ele><time>2026-05-03T14:36:37.999Z</time></trkpt><trkpt lat="43.96569589885624" lon="8.059047427187497"><ele>659.0</ele><time>2026-05-03T14:36:40Z</time></trkpt><trkpt lat="43.96559649288251" lon="8.059194476347237"><ele>656.6666666666666</ele><time>2026-05-03T14:36:42Z</time></trkpt><trkpt lat="43.96555754952646" lon="8.05933271728798"><ele>654.3333333333333</ele><time>2026-05-03T14:36:44Z</time></trkpt><trkpt lat="43.96552226201428" lon="8.059415937312219"><ele>652.0</ele><time>2026-05-03T14:36:46Z</time></trkpt><trkpt lat="43.965447322303824" lon="8.059508297691146"><ele>649.6666666666666</ele><time>2026-05-03T14:36:48Z</time></trkpt><trkpt lat="43.96539735636981" lon="8.059567886889667"><ele>647.3333333333334</ele><time>2026-05-03T14:36:49Z</time></trkpt><trkpt lat="43.965318940992816" lon="8.059667205328383"><ele>645.0</ele><time>2026-05-03T14:36:51Z</time></trkpt><trkpt lat="43.9652666877476" lon="8.059764015542259"><ele>645.0</ele><time>2026-05-03T14:36:54Z</time></trkpt><trkpt lat="43.96520400366902" lon="8.059840859940815"><ele>645.0</ele><time>2026-05-03T14:36:56Z</time></trkpt><trkpt lat="43.96515099800766" lon="8.05990557998406"><ele>645.0</ele><time>2026-05-03T14:36:57Z</time></trkpt><trkpt lat="43.96507261357434" lon="8.059966461787008"><ele>645.0</ele><time>2026-05-03T14:36:58Z</time></trkpt><trkpt lat="43.96502209853225" lon="8.060028822950285"><ele>645.0</ele><time>2026-05-03T14:36:59Z</time></trkpt><trkpt lat="43.964955547547284" lon="8.060095942744951"><ele>645.0</ele><time>2026-05-03T14:37:01Z</time></trkpt><trkpt lat="43.96487363648091" lon="8.060138626814366"><ele>646.4</ele><time>2026-05-03T14:37:03Z</time></trkpt><trkpt lat="43.964777834106265" lon="8.060285195146685"><ele>647.8</ele><time>2026-05-03T14:37:06Z</time></trkpt><trkpt lat="43.96470958888875" lon="8.060332037589776"><ele>649.2</ele><time>2026-05-03T14:37:07Z</time></trkpt><trkpt lat="43.96460124279057" lon="8.060411229459817"><ele>650.6</ele><time>2026-05-03T14:37:09Z</time></trkpt><trkpt lat="43.96451993705071" lon="8.060462557055992"><ele>652.0</ele><time>2026-05-03T14:37:10Z</time></trkpt><trkpt lat="43.964451083284956" lon="8.060510004791219"><ele>652.0</ele><time>2026-05-03T14:37:11Z</time></trkpt><trkpt lat="43.964384438496246" lon="8.060549006080713"><ele>652.0</ele><time>2026-05-03T14:37:12Z</time></trkpt><trkpt lat="43.96429388842176" lon="8.060582817385377"><ele>652.0</ele><time>2026-05-03T14:37:14Z</time></trkpt><trkpt lat="43.96422617341959" lon="8.060651913498024"><ele>652.0</ele><time>2026-05-03T14:37:16Z</time></trkpt><trkpt lat="43.96417806377712" lon="8.06071136048564"><ele>652.0</ele><time>2026-05-03T14:37:17Z</time></trkpt><trkpt lat="43.96415491390112" lon="8.060808714857322"><ele>652.0</ele><time>2026-05-03T14:37:18Z</time></trkpt><trkpt lat="43.96406967864229" lon="8.06089292776575"><ele>651.8333333333334</ele><time>2026-05-03T14:37:20Z</time></trkpt><trkpt lat="43.96402439736011" lon="8.060957155104338"><ele>651.6666666666667</ele><time>2026-05-03T14:37:21Z</time></trkpt><trkpt lat="43.96396142477269" lon="8.061026037367066"><ele>651.5</ele><time>2026-05-03T14:37:22Z</time></trkpt><trkpt lat="43.963915289001115" lon="8.06110800159077"><ele>651.3333333333334</ele><time>2026-05-03T14:37:23Z</time></trkpt><trkpt lat="43.963859109258074" lon="8.061180660625837"><ele>651.1666666666666</ele><time>2026-05-03T14:37:24Z</time></trkpt><trkpt lat="43.96379912684933" lon="8.061254368887365"><ele>651.0</ele><time>2026-05-03T14:37:25Z</time></trkpt><trkpt lat="43.96374141779626" lon="8.061320969266804"><ele>651.0</ele><time>2026-05-03T14:37:26Z</time></trkpt><trkpt lat="43.96368804073576" lon="8.061375360305357"><ele>651.0</ele><time>2026-05-03T14:37:27Z</time></trkpt><trkpt lat="43.96360431133909" lon="8.06149771009083"><ele>651.0</ele><time>2026-05-03T14:37:29Z</time></trkpt><trkpt lat="43.96353051178457" lon="8.061637044092194"><ele>651.0</ele><time>2026-05-03T14:37:31Z</time></trkpt><trkpt lat="43.96346687166299" lon="8.061684883321472"><ele>651.0</ele><time>2026-05-03T14:37:32Z</time></trkpt><trkpt lat="43.963417387155424" lon="8.06176204733602"><ele>649.1999999999999</ele><time>2026-05-03T14:37:33Z</time></trkpt><trkpt lat="43.963334458128735" lon="8.06188554155726"><ele>647.4</ele><time>2026-05-03T14:37:35Z</time></trkpt><trkpt lat="43.96329928359637" lon="8.061965950625058"><ele>645.6</ele><time>2026-05-03T14:37:36Z</time></trkpt><trkpt lat="43.96323226160868" lon="8.062023092829122"><ele>643.8</ele><time>2026-05-03T14:37:36.999Z</time></trkpt><trkpt lat="43.96314948749789" lon="8.06211188301922"><ele>642.0</ele><time>2026-05-03T14:37:38.999Z</time></trkpt><trkpt lat="43.96309814407605" lon="8.062249050946418"><ele>642.0</ele><time>2026-05-03T14:37:40.999Z</time></trkpt><trkpt lat="43.963057472213755" lon="8.062392314122496"><ele>642.0</ele><time>2026-05-03T14:37:42.999Z</time></trkpt><trkpt lat="43.963042777767235" lon="8.062541807524756"><ele>642.0</ele><time>2026-05-03T14:37:44.999Z</time></trkpt><trkpt lat="43.96301679900071" lon="8.062624466220809"><ele>642.0</ele><time>2026-05-03T14:37:45.999Z</time></trkpt><trkpt lat="43.96300065549052" lon="8.06273004179942"><ele>642.0</ele><time>2026-05-03T14:37:47.999Z</time></trkpt><trkpt lat="43.96295610478639" lon="8.06286957138431"><ele>639.6666666666666</ele><time>2026-05-03T14:37:49.999Z</time></trkpt><trkpt lat="43.96291405072684" lon="8.062999161757253"><ele>637.3333333333334</ele><time>2026-05-03T14:37:51.999Z</time></trkpt><trkpt lat="43.962871885893996" lon="8.063140332432846"><ele>635.0</ele><time>2026-05-03T14:37:53.999Z</time></trkpt><trkpt lat="43.96284098886636" lon="8.063226287513896"><ele>632.6666666666667</ele><time>2026-05-03T14:37:54.999Z</time></trkpt><trkpt lat="43.9628115275994" lon="8.063316050688492"><ele>630.3333333333334</ele><time>2026-05-03T14:37:55.999Z</time></trkpt><trkpt lat="43.96279985774579" lon="8.063403504128726"><ele>628.0</ele><time>2026-05-03T14:37:56.999Z</time></trkpt><trkpt lat="43.962746331749344" lon="8.063482109131819"><ele>628.0</ele><time>2026-05-03T14:37:58.999Z</time></trkpt><trkpt lat="43.962666752587275" lon="8.063620232938776"><ele>628.0</ele><time>2026-05-03T14:38:00.999Z</time></trkpt><trkpt lat="43.962644392668714" lon="8.06370728294803"><ele>628.0</ele><time>2026-05-03T14:38:01.999Z</time></trkpt><trkpt lat="43.96257812412703" lon="8.06383428653183"><ele>628.0</ele><time>2026-05-03T14:38:03.999Z</time></trkpt><trkpt lat="43.96252285725752" lon="8.063906223170905"><ele>628.0</ele><time>2026-05-03T14:38:05.999Z</time></trkpt><trkpt lat="43.96249092128491" lon="8.063999921233894"><ele>628.0</ele><time>2026-05-03T14:38:07.999Z</time></trkpt><trkpt lat="43.96245647226879" lon="8.06411061511833"><ele>628.0</ele><time>2026-05-03T14:38:09.999Z</time></trkpt><trkpt lat="43.96238318382711" lon="8.064174129394381"><ele>628.0</ele><time>2026-05-03T14:38:11.999Z</time></trkpt><trkpt lat="43.9623560631808" lon="8.064282903785104"><ele>628.0</ele><time>2026-05-03T14:38:13.999Z</time></trkpt><trkpt lat="43.962376584395436" lon="8.06436658639934"><ele>628.0</ele><time>2026-05-03T14:38:14.999Z</time></trkpt><trkpt lat="43.96240715736946" lon="8.064466000663435"><ele>628.0</ele><time>2026-05-03T14:38:15.999Z</time></trkpt><trkpt lat="43.962425324671614" lon="8.064552328735566"><ele>627.0</ele><time>2026-05-03T14:38:16.999Z</time></trkpt><trkpt lat="43.96243739122685" lon="8.064639208005616"><ele>626.0</ele><time>2026-05-03T14:38:17.999Z</time></trkpt><trkpt lat="43.962459627802566" lon="8.064811858626804"><ele>625.0</ele><time>2026-05-03T14:38:19.999Z</time></trkpt><trkpt lat="43.962535736863266" lon="8.064931520478453"><ele>624.0</ele><time>2026-05-03T14:38:21.999Z</time></trkpt><trkpt lat="43.96260104586519" lon="8.064943903713878"><ele>623.0</ele><time>2026-05-03T14:38:22.999Z</time></trkpt><trkpt lat="43.96268250095892" lon="8.064941475558278"><ele>621.1666666666666</ele><time>2026-05-03T14:38:23.999Z</time></trkpt><trkpt lat="43.96275394302323" lon="8.064933345966512"><ele>619.3333333333333</ele><time>2026-05-03T14:38:24.999Z</time></trkpt><trkpt lat="43.96281441749449" lon="8.064900000980012"><ele>617.5</ele><time>2026-05-03T14:38:25.999Z</time></trkpt><trkpt lat="43.962875282325875" lon="8.06484186450109"><ele>615.6666666666666</ele><time>2026-05-03T14:38:26.999Z</time></trkpt><trkpt lat="43.962924709044486" lon="8.06476302062785"><ele>613.8333333333334</ele><time>2026-05-03T14:38:27.999Z</time></trkpt><trkpt lat="43.962950397386315" lon="8.064671985526706"><ele>612.0</ele><time>2026-05-03T14:38:28.999Z</time></trkpt><trkpt lat="43.96298693700083" lon="8.064530879749759"><ele>612.0</ele><time>2026-05-03T14:38:30.999Z</time></trkpt><trkpt lat="43.96306119552074" lon="8.064532515125531"><ele>612.0</ele><time>2026-05-03T14:38:32.999Z</time></trkpt><trkpt lat="43.963114591138506" lon="8.064606289549042"><ele>612.0</ele><time>2026-05-03T14:38:33.999Z</time></trkpt><trkpt lat="43.96313672163639" lon="8.064694974608193"><ele>612.0</ele><time>2026-05-03T14:38:34.999Z</time></trkpt><trkpt lat="43.96312614916552" lon="8.064800485625495"><ele>612.0</ele><time>2026-05-03T14:38:35.999Z</time></trkpt><trkpt lat="43.96310569591893" lon="8.064903092659065"><ele>612.0</ele><time>2026-05-03T14:38:36.999Z</time></trkpt><trkpt lat="43.96309205714211" lon="8.065019483742796"><ele>610.3333333333334</ele><time>2026-05-03T14:38:37.999Z</time></trkpt><trkpt lat="43.96308230665971" lon="8.065134834807042"><ele>608.6666666666666</ele><time>2026-05-03T14:38:38.999Z</time></trkpt><trkpt lat="43.96307606681595" lon="8.06522762886524"><ele>607.0</ele><time>2026-05-03T14:38:39.999Z</time></trkpt><trkpt lat="43.963058631535986" lon="8.065319946973107"><ele>605.3333333333333</ele><time>2026-05-03T14:38:40.999Z</time></trkpt><trkpt lat="43.96302034004989" lon="8.065421334496104"><ele>603.6666666666666</ele><time>2026-05-03T14:38:41.999Z</time></trkpt><trkpt lat="43.962973633592206" lon="8.065508135786189"><ele>602.0</ele><time>2026-05-03T14:38:42.999Z</time></trkpt><trkpt lat="43.96293235727826" lon="8.06559722043884"><ele>602.0</ele><time>2026-05-03T14:38:43.999Z</time></trkpt><trkpt lat="43.96289084245023" lon="8.065676228629261"><ele>602.0</ele><time>2026-05-03T14:38:44.999Z</time></trkpt><trkpt lat="43.96283622449323" lon="8.06574096696568"><ele>602.0</ele><time>2026-05-03T14:38:46Z</time></trkpt><trkpt lat="43.962777599090565" lon="8.065782595367617"><ele>602.0</ele><time>2026-05-03T14:38:47Z</time></trkpt><trkpt lat="43.96267571760151" lon="8.065720936666759"><ele>602.0</ele><time>2026-05-03T14:38:49Z</time></trkpt><trkpt lat="43.96259566680548" lon="8.065651366269737"><ele>602.0</ele><time>2026-05-03T14:38:50Z</time></trkpt><trkpt lat="43.9625112948763" lon="8.065591620572185"><ele>604.2</ele><time>2026-05-03T14:38:51Z</time></trkpt><trkpt lat="43.96241873931899" lon="8.065550696264127"><ele>606.4000000000001</ele><time>2026-05-03T14:38:52Z</time></trkpt><trkpt lat="43.96232215850685" lon="8.065553692160824"><ele>608.5999999999999</ele><time>2026-05-03T14:38:53Z</time></trkpt><trkpt lat="43.9622296387797" lon="8.065600213385666"><ele>610.8</ele><time>2026-05-03T14:38:54Z</time></trkpt><trkpt lat="43.96214668310873" lon="8.065642087726452"><ele>613.0</ele><time>2026-05-03T14:38:55Z</time></trkpt><trkpt lat="43.962071011892135" lon="8.065685286872876"><ele>613.0</ele><time>2026-05-03T14:38:56Z</time></trkpt><trkpt lat="43.962016124228505" lon="8.06575135971196"><ele>613.0</ele><time>2026-05-03T14:38:57Z</time></trkpt><trkpt lat="43.96196441199675" lon="8.065848719049118"><ele>613.0</ele><time>2026-05-03T14:38:58Z</time></trkpt><trkpt lat="43.96191057150064" lon="8.0659186034483"><ele>613.0</ele><time>2026-05-03T14:38:59Z</time></trkpt><trkpt lat="43.961847418422366" lon="8.065954798579423"><ele>613.0</ele><time>2026-05-03T14:39:00Z</time></trkpt><trkpt lat="43.96177296746077" lon="8.065958334299307"><ele>613.0</ele><time>2026-05-03T14:39:01Z</time></trkpt><trkpt lat="43.961696002082924" lon="8.065935576264707"><ele>611.1666666666667</ele><time>2026-05-03T14:39:02Z</time></trkpt><trkpt lat="43.9616026872353" lon="8.065839706222299"><ele>609.3333333333334</ele><time>2026-05-03T14:39:04Z</time></trkpt><trkpt lat="43.96157401339047" lon="8.06575559611195"><ele>607.5</ele><time>2026-05-03T14:39:05Z</time></trkpt><trkpt lat="43.96156717839946" lon="8.06565605879518"><ele>605.6666666666666</ele><time>2026-05-03T14:39:06Z</time></trkpt><trkpt lat="43.96157783740252" lon="8.065543004862198"><ele>603.8333333333333</ele><time>2026-05-03T14:39:07Z</time></trkpt><trkpt lat="43.96157929809777" lon="8.065414501048997"><ele>602.0</ele><time>2026-05-03T14:39:08Z</time></trkpt><trkpt lat="43.9615686944224" lon="8.065303859446521"><ele>602.0</ele><time>2026-05-03T14:39:09Z</time></trkpt><trkpt lat="43.96156782023644" lon="8.065210018034223"><ele>602.0</ele><time>2026-05-03T14:39:10Z</time></trkpt><trkpt lat="43.96156838719832" lon="8.065078766857342"><ele>602.0</ele><time>2026-05-03T14:39:12Z</time></trkpt><trkpt lat="43.96148891023712" lon="8.065069213676287"><ele>602.0</ele><time>2026-05-03T14:39:14Z</time></trkpt><trkpt lat="43.96143182837119" lon="8.065226857742934"><ele>602.0</ele><time>2026-05-03T14:39:16Z</time></trkpt><trkpt lat="43.96142507110435" lon="8.065336629564351"><ele>602.0</ele><time>2026-05-03T14:39:17Z</time></trkpt><trkpt lat="43.96139883355893" lon="8.065463035906415"><ele>602.0</ele><time>2026-05-03T14:39:18Z</time></trkpt><trkpt lat="43.9613409920033" lon="8.065595324181189"><ele>602.0</ele><time>2026-05-03T14:39:19Z</time></trkpt><trkpt lat="43.96128156507444" lon="8.065707303348578"><ele>602.0</ele><time>2026-05-03T14:39:20Z</time></trkpt><trkpt lat="43.961228844546305" lon="8.065817373413143"><ele>602.0</ele><time>2026-05-03T14:39:21Z</time></trkpt><trkpt lat="43.96118276327433" lon="8.065933136712141"><ele>602.0</ele><time>2026-05-03T14:39:22Z</time></trkpt><trkpt lat="43.961139837700934" lon="8.066036533178472"><ele>601.0</ele><time>2026-05-03T14:39:23Z</time></trkpt><trkpt lat="43.96111329916443" lon="8.066151401901058"><ele>600.0</ele><time>2026-05-03T14:39:24Z</time></trkpt><trkpt lat="43.961098148205345" lon="8.066281906439023"><ele>599.0</ele><time>2026-05-03T14:39:25Z</time></trkpt><trkpt lat="43.96108646416005" lon="8.066424880962268"><ele>598.0</ele><time>2026-05-03T14:39:26Z</time></trkpt><trkpt lat="43.96107567103638" lon="8.066555330356673"><ele>597.0</ele><time>2026-05-03T14:39:26.999Z</time></trkpt><trkpt lat="43.961063836677475" lon="8.06668048709403"><ele>594.8333333333334</ele><time>2026-05-03T14:39:27.999Z</time></trkpt><trkpt lat="43.961045256144054" lon="8.066804485303468"><ele>592.6666666666666</ele><time>2026-05-03T14:39:28.999Z</time></trkpt><trkpt lat="43.96102369666339" lon="8.066922628006433"><ele>590.5</ele><time>2026-05-03T14:39:29.999Z</time></trkpt><trkpt lat="43.96099950194026" lon="8.06702297844323"><ele>588.3333333333333</ele><time>2026-05-03T14:39:30.999Z</time></trkpt><trkpt lat="43.96099151950548" lon="8.067130547154575"><ele>586.1666666666666</ele><time>2026-05-03T14:39:31.999Z</time></trkpt><trkpt lat="43.96101277722706" lon="8.067245606450504"><ele>584.0</ele><time>2026-05-03T14:39:32.999Z</time></trkpt><trkpt lat="43.96103875629879" lon="8.067357489462584"><ele>582.6</ele><time>2026-05-03T14:39:33.999Z</time></trkpt><trkpt lat="43.9610411640464" lon="8.067445530670904"><ele>581.2</ele><time>2026-05-03T14:39:34.999Z</time></trkpt><trkpt lat="43.960964173363315" lon="8.06760389628523"><ele>579.8000000000001</ele><time>2026-05-03T14:39:36.999Z</time></trkpt><trkpt lat="43.960899011097304" lon="8.06769719186867"><ele>578.4</ele><time>2026-05-03T14:39:37.999Z</time></trkpt><trkpt lat="43.96083858655925" lon="8.067798092778697"><ele>577.0</ele><time>2026-05-03T14:39:38.999Z</time></trkpt><trkpt lat="43.960799846781335" lon="8.067894978390818"><ele>577.0</ele><time>2026-05-03T14:39:39.999Z</time></trkpt><trkpt lat="43.960778141387365" lon="8.06799925619493"><ele>577.0</ele><time>2026-05-03T14:39:40.999Z</time></trkpt><trkpt lat="43.960749386684284" lon="8.06811639048695"><ele>577.0</ele><time>2026-05-03T14:39:41.999Z</time></trkpt><trkpt lat="43.96073248512243" lon="8.068233147464811"><ele>577.0</ele><time>2026-05-03T14:39:42.999Z</time></trkpt><trkpt lat="43.96071651390081" lon="8.068342471101746"><ele>577.0</ele><time>2026-05-03T14:39:43.999Z</time></trkpt><trkpt lat="43.960695414342744" lon="8.068452305487792"><ele>577.0</ele><time>2026-05-03T14:39:44.999Z</time></trkpt><trkpt lat="43.96066193557211" lon="8.068571901644887"><ele>574.8000000000001</ele><time>2026-05-03T14:39:45.999Z</time></trkpt><trkpt lat="43.960626995586594" lon="8.068692704656883"><ele>572.6</ele><time>2026-05-03T14:39:46.999Z</time></trkpt><trkpt lat="43.96058918229287" lon="8.068809077909211"><ele>570.4000000000001</ele><time>2026-05-03T14:39:47.999Z</time></trkpt><trkpt lat="43.96055815627915" lon="8.068916923659897"><ele>568.2</ele><time>2026-05-03T14:39:48.999Z</time></trkpt><trkpt lat="43.96051996056351" lon="8.069000686743877"><ele>566.0</ele><time>2026-05-03T14:39:49.999Z</time></trkpt><trkpt lat="43.960405023556454" lon="8.06909116663557"><ele>564.5</ele><time>2026-05-03T14:39:51.999Z</time></trkpt><trkpt lat="43.960320575686396" lon="8.069137679236437"><ele>563.0</ele><time>2026-05-03T14:39:52.999Z</time></trkpt><trkpt lat="43.960257859411485" lon="8.069200810201917"><ele>561.5</ele><time>2026-05-03T14:39:53.999Z</time></trkpt><trkpt lat="43.96019735961753" lon="8.069276323758869"><ele>560.0</ele><time>2026-05-03T14:39:54.999Z</time></trkpt><trkpt lat="43.960133060847454" lon="8.069329986679529"><ele>558.5</ele><time>2026-05-03T14:39:55.999Z</time></trkpt><trkpt lat="43.96001015913828" lon="8.069346924373784"><ele>557.0</ele><time>2026-05-03T14:39:57.999Z</time></trkpt><trkpt lat="43.959897501506134" lon="8.069265537093115"><ele>557.0</ele><time>2026-05-03T14:39:59.999Z</time></trkpt><trkpt lat="43.95982646380743" lon="8.069193532962036"><ele>557.0</ele><time>2026-05-03T14:40:00.999Z</time></trkpt><trkpt lat="43.95974147411296" lon="8.069140114499206"><ele>557.0</ele><time>2026-05-03T14:40:01.999Z</time></trkpt><trkpt lat="43.95966524745448" lon="8.069096092959734"><ele>557.0</ele><time>2026-05-03T14:40:02.999Z</time></trkpt><trkpt lat="43.959598250777276" lon="8.069042528513998"><ele>557.0</ele><time>2026-05-03T14:40:03.999Z</time></trkpt><trkpt lat="43.95954145730179" lon="8.068967392828519"><ele>557.0</ele><time>2026-05-03T14:40:04.999Z</time></trkpt><trkpt lat="43.9595030207437" lon="8.068881265484299"><ele>558.0</ele><time>2026-05-03T14:40:05.999Z</time></trkpt><trkpt lat="43.95948871919975" lon="8.068794061054316"><ele>559.0</ele><time>2026-05-03T14:40:06.999Z</time></trkpt><trkpt lat="43.95945436339882" lon="8.068692697345146"><ele>560.0</ele><time>2026-05-03T14:40:08.999Z</time></trkpt><trkpt lat="43.95936510897882" lon="8.068756781164382"><ele>561.0</ele><time>2026-05-03T14:40:10.999Z</time></trkpt><trkpt lat="43.95933739486852" lon="8.068851428118599"><ele>562.0</ele><time>2026-05-03T14:40:11.999Z</time></trkpt><trkpt lat="43.9593360376021" lon="8.068969745292502"><ele>563.0</ele><time>2026-05-03T14:40:12.999Z</time></trkpt><trkpt lat="43.95932511135694" lon="8.069106201501778"><ele>562.0</ele><time>2026-05-03T14:40:13.999Z</time></trkpt><trkpt lat="43.95932317171468" lon="8.0692269935639"><ele>561.0</ele><time>2026-05-03T14:40:14.999Z</time></trkpt><trkpt lat="43.95931727514389" lon="8.069333263511073"><ele>560.0</ele><time>2026-05-03T14:40:15.999Z</time></trkpt><trkpt lat="43.95930577534095" lon="8.069432626967842"><ele>559.0</ele><time>2026-05-03T14:40:16.999Z</time></trkpt><trkpt lat="43.95929009526293" lon="8.069529005764808"><ele>558.0</ele><time>2026-05-03T14:40:17.999Z</time></trkpt><trkpt lat="43.95925556409177" lon="8.069638627731264"><ele>557.0</ele><time>2026-05-03T14:40:18.999Z</time></trkpt><trkpt lat="43.959204798760695" lon="8.069760500825595"><ele>554.3333333333333</ele><time>2026-05-03T14:40:19.999Z</time></trkpt><trkpt lat="43.95914675570995" lon="8.069883332486656"><ele>551.6666666666666</ele><time>2026-05-03T14:40:20.999Z</time></trkpt><trkpt lat="43.95909319650217" lon="8.069996344465464"><ele>549.0</ele><time>2026-05-03T14:40:21.999Z</time></trkpt><trkpt lat="43.959058823129766" lon="8.070088386452449"><ele>546.3333333333334</ele><time>2026-05-03T14:40:22.999Z</time></trkpt><trkpt lat="43.95902269140379" lon="8.070165250603736"><ele>543.6666666666667</ele><time>2026-05-03T14:40:23.999Z</time></trkpt><trkpt lat="43.95896156390615" lon="8.070216196750225"><ele>541.0</ele><time>2026-05-03T14:40:24.999Z</time></trkpt><trkpt lat="43.95888616743102" lon="8.070243289834682"><ele>540.5</ele><time>2026-05-03T14:40:25.999Z</time></trkpt><trkpt lat="43.95880959179943" lon="8.070260747009785"><ele>540.0</ele><time>2026-05-03T14:40:26.999Z</time></trkpt><trkpt lat="43.95873760142779" lon="8.070286028613447"><ele>539.5</ele><time>2026-05-03T14:40:27.999Z</time></trkpt><trkpt lat="43.9586697523479" lon="8.070333293166943"><ele>539.0</ele><time>2026-05-03T14:40:28.999Z</time></trkpt><trkpt lat="43.95859584177329" lon="8.070412817506265"><ele>538.5</ele><time>2026-05-03T14:40:29.999Z</time></trkpt><trkpt lat="43.958527006546745" lon="8.070500145974764"><ele>538.0</ele><time>2026-05-03T14:40:30.999Z</time></trkpt><trkpt lat="43.95846605307023" lon="8.070595369097642"><ele>538.0</ele><time>2026-05-03T14:40:31.999Z</time></trkpt><trkpt lat="43.95841126114421" lon="8.070690838620505"><ele>538.0</ele><time>2026-05-03T14:40:32.999Z</time></trkpt><trkpt lat="43.95834452005387" lon="8.07073185061385"><ele>538.0</ele><time>2026-05-03T14:40:33.999Z</time></trkpt><trkpt lat="43.95826798804842" lon="8.070726022181406"><ele>538.0</ele><time>2026-05-03T14:40:34.999Z</time></trkpt><trkpt lat="43.95819672488915" lon="8.070721843879069"><ele>538.0</ele><time>2026-05-03T14:40:35.999Z</time></trkpt><trkpt lat="43.95812629118738" lon="8.070754203076353"><ele>538.0</ele><time>2026-05-03T14:40:36.999Z</time></trkpt><trkpt lat="43.95804990428214" lon="8.070823858665063"><ele>535.5</ele><time>2026-05-03T14:40:37.999Z</time></trkpt><trkpt lat="43.95797716776845" lon="8.070888249284144"><ele>533.0</ele><time>2026-05-03T14:40:38.999Z</time></trkpt><trkpt lat="43.95789965200595" lon="8.070922421961402"><ele>530.5</ele><time>2026-05-03T14:40:39.999Z</time></trkpt><trkpt lat="43.957809357260224" lon="8.070959739291247"><ele>528.0</ele><time>2026-05-03T14:40:40.999Z</time></trkpt><trkpt lat="43.95773068092015" lon="8.071031087459867"><ele>525.5</ele><time>2026-05-03T14:40:41.999Z</time></trkpt><trkpt lat="43.95767588773158" lon="8.071119729215196"><ele>523.0</ele><time>2026-05-03T14:40:42.999Z</time></trkpt><trkpt lat="43.95764371485924" lon="8.071213325067134"><ele>523.0</ele><time>2026-05-03T14:40:43.999Z</time></trkpt><trkpt lat="43.9576162072963" lon="8.071318583643901"><ele>523.0</ele><time>2026-05-03T14:40:44.999Z</time></trkpt><trkpt lat="43.95756860064162" lon="8.071408401361044"><ele>523.0</ele><time>2026-05-03T14:40:45.999Z</time></trkpt><trkpt lat="43.95753083418393" lon="8.071517135435851"><ele>523.0</ele><time>2026-05-03T14:40:46.999Z</time></trkpt><trkpt lat="43.957464203957336" lon="8.071587789905559"><ele>523.0</ele><time>2026-05-03T14:40:47.999Z</time></trkpt><trkpt lat="43.957387004620294" lon="8.071635457653471"><ele>523.0</ele><time>2026-05-03T14:40:48.999Z</time></trkpt><trkpt lat="43.957321179692265" lon="8.071705904961334"><ele>521.5714285714286</ele><time>2026-05-03T14:40:49.998Z</time></trkpt><trkpt lat="43.95726468086964" lon="8.071780727348889"><ele>520.1428571428571</ele><time>2026-05-03T14:40:50.998Z</time></trkpt><trkpt lat="43.95718993216168" lon="8.071816292396727"><ele>518.7142857142858</ele><time>2026-05-03T14:40:52Z</time></trkpt><trkpt lat="43.95711543941701" lon="8.07181766686091"><ele>517.2857142857142</ele><time>2026-05-03T14:40:53Z</time></trkpt><trkpt lat="43.95705333877805" lon="8.07183234017767"><ele>515.8571428571429</ele><time>2026-05-03T14:40:54Z</time></trkpt><trkpt lat="43.95699820200824" lon="8.071885503147739"><ele>514.4285714285714</ele><time>2026-05-03T14:40:55Z</time></trkpt><trkpt lat="43.95695840468197" lon="8.071974288760291"><ele>513.0</ele><time>2026-05-03T14:40:56Z</time></trkpt><trkpt lat="43.956925131913856" lon="8.072081520971297"><ele>513.0</ele><time>2026-05-03T14:40:57Z</time></trkpt><trkpt lat="43.9568953537363" lon="8.072195706581834"><ele>513.0</ele><time>2026-05-03T14:40:58Z</time></trkpt><trkpt lat="43.956877413539615" lon="8.07231665625202"><ele>513.0</ele><time>2026-05-03T14:40:59Z</time></trkpt><trkpt lat="43.95687892405279" lon="8.072443490510505"><ele>513.0</ele><time>2026-05-03T14:41:00Z</time></trkpt><trkpt lat="43.95688227732286" lon="8.072558828982437"><ele>513.0</ele><time>2026-05-03T14:41:01Z</time></trkpt><trkpt lat="43.95687512622518" lon="8.072667393078689"><ele>513.0</ele><time>2026-05-03T14:41:02Z</time></trkpt><trkpt lat="43.95685686927283" lon="8.072768217356035"><ele>512.0</ele><time>2026-05-03T14:41:03Z</time></trkpt><trkpt lat="43.95681635253972" lon="8.072850368285751"><ele>511.0</ele><time>2026-05-03T14:41:04Z</time></trkpt><trkpt lat="43.95675116762286" lon="8.07291557601079"><ele>510.0</ele><time>2026-05-03T14:41:05Z</time></trkpt><trkpt lat="43.95666822529137" lon="8.072974070764694"><ele>509.0</ele><time>2026-05-03T14:41:06Z</time></trkpt><trkpt lat="43.95658639772257" lon="8.073029599892648"><ele>508.0</ele><time>2026-05-03T14:41:07Z</time></trkpt><trkpt lat="43.9565149303099" lon="8.073088571539207"><ele>507.0</ele><time>2026-05-03T14:41:08Z</time></trkpt><trkpt lat="43.95646191225655" lon="8.073166095352445"><ele>507.0</ele><time>2026-05-03T14:41:09Z</time></trkpt><trkpt lat="43.956396012747724" lon="8.07323123630278"><ele>507.0</ele><time>2026-05-03T14:41:10Z</time></trkpt><trkpt lat="43.95633318909026" lon="8.073272862428546"><ele>507.0</ele><time>2026-05-03T14:41:11Z</time></trkpt><trkpt lat="43.95627665617236" lon="8.073312270422257"><ele>507.0</ele><time>2026-05-03T14:41:12Z</time></trkpt><trkpt lat="43.95617033727154" lon="8.073385383146263"><ele>507.0</ele><time>2026-05-03T14:41:14Z</time></trkpt><trkpt lat="43.95608460722968" lon="8.073462853770657"><ele>507.0</ele><time>2026-05-03T14:41:16Z</time></trkpt><trkpt lat="43.95600940332572" lon="8.073536625621726"><ele>506.1666666666667</ele><time>2026-05-03T14:41:19Z</time></trkpt><trkpt lat="43.955945049593296" lon="8.07360533620475"><ele>505.33333333333337</ele><time>2026-05-03T14:41:21Z</time></trkpt><trkpt lat="43.95587466302389" lon="8.07366716157839"><ele>504.5</ele><time>2026-05-03T14:41:23Z</time></trkpt><trkpt lat="43.95580419782141" lon="8.0737163773373"><ele>503.6666666666667</ele><time>2026-05-03T14:41:25Z</time></trkpt><trkpt lat="43.95570447277979" lon="8.073786191456596"><ele>502.83333333333337</ele><time>2026-05-03T14:41:27Z</time></trkpt><trkpt lat="43.95564057711852" lon="8.073827861776161"><ele>502.0</ele><time>2026-05-03T14:41:28Z</time></trkpt><trkpt lat="43.95554689600479" lon="8.073898671519347"><ele>501.20000000000005</ele><time>2026-05-03T14:41:30Z</time></trkpt><trkpt lat="43.9554468887096" lon="8.073951317004807"><ele>500.40000000000003</ele><time>2026-05-03T14:48:16.999Z</time></trkpt><trkpt lat="43.955358112716524" lon="8.073985632905044"><ele>499.59999999999997</ele><time>2026-05-03T14:48:18.999Z</time></trkpt><trkpt lat="43.955296850669804" lon="8.074015126448638"><ele>498.79999999999995</ele><time>2026-05-03T14:48:19.999Z</time></trkpt><trkpt lat="43.955227379621405" lon="8.074050225718706"><ele>498.0</ele><time>2026-05-03T14:48:20.999Z</time></trkpt><trkpt lat="43.955119789833304" lon="8.074097408618128"><ele>497.5</ele><time>2026-05-03T14:48:22.999Z</time></trkpt><trkpt lat="43.955039680762404" lon="8.07414130868063"><ele>497.0</ele><time>2026-05-03T14:48:24.999Z</time></trkpt><trkpt lat="43.95494680675229" lon="8.074152748100264"><ele>496.5</ele><time>2026-05-03T14:48:26.999Z</time></trkpt><trkpt lat="43.954881270003845" lon="8.074098254778331"><ele>496.0</ele><time>2026-05-03T14:48:28.999Z</time></trkpt><trkpt lat="43.95479490163051" lon="8.074056549813212"><ele>495.5</ele><time>2026-05-03T14:48:31.999Z</time></trkpt><trkpt lat="43.95473791983877" lon="8.073968039062208"><ele>495.0</ele><time>2026-05-03T14:48:33.999Z</time></trkpt><trkpt lat="43.95466403986887" lon="8.073918028249595"><ele>493.1666666666667</ele><time>2026-05-03T14:48:36.999Z</time></trkpt><trkpt lat="43.95460110183495" lon="8.07395565012163"><ele>491.33333333333337</ele><time>2026-05-03T14:48:43.999Z</time></trkpt><trkpt lat="43.95451887939068" lon="8.073911278518208"><ele>489.5</ele><time>2026-05-03T14:48:45.999Z</time></trkpt><trkpt lat="43.954409344403466" lon="8.073889018633947"><ele>487.6666666666667</ele><time>2026-05-03T14:48:47.999Z</time></trkpt><trkpt lat="43.95431261995748" lon="8.073938850695532"><ele>485.83333333333337</ele><time>2026-05-03T14:48:49.999Z</time></trkpt><trkpt lat="43.95424624992037" lon="8.073934855462829"><ele>484.0</ele><time>2026-05-03T14:48:51.999Z</time></trkpt><trkpt lat="43.95420966241444" lon="8.074018266245082"><ele>484.1666666666667</ele><time>2026-05-03T14:48:54.999Z</time></trkpt><trkpt lat="43.954250988913785" lon="8.074107170405458"><ele>484.33333333333337</ele><time>2026-05-03T14:48:57.999Z</time></trkpt><trkpt lat="43.95416330414482" lon="8.074153892708148"><ele>484.5</ele><time>2026-05-03T14:48:59.999Z</time></trkpt><trkpt lat="43.95410247069171" lon="8.074203262661575"><ele>484.66666666666663</ele><time>2026-05-03T14:49:00.999Z</time></trkpt><trkpt lat="43.95403955042149" lon="8.074250800697468"><ele>484.8333333333333</ele><time>2026-05-03T14:49:01.999Z</time></trkpt><trkpt lat="43.95398391288788" lon="8.074298027052816"><ele>485.0</ele><time>2026-05-03T14:49:02.999Z</time></trkpt><trkpt lat="43.953861156460846" lon="8.074360572166537"><ele>484.99999999999994</ele><time>2026-05-03T14:49:04.999Z</time></trkpt><trkpt lat="43.95376503931687" lon="8.07440285231212"><ele>485.0</ele><time>2026-05-03T14:49:06.999Z</time></trkpt><trkpt lat="43.953727942423455" lon="8.074492266934575"><ele>485.0</ele><time>2026-05-03T14:49:09.999Z</time></trkpt><trkpt lat="43.95365981688447" lon="8.074519812312468"><ele>485.0</ele><time>2026-05-03T14:49:11.999Z</time></trkpt><trkpt lat="43.95356737198931" lon="8.0745188138575"><ele>484.99999999999994</ele><time>2026-05-03T14:49:14.999Z</time></trkpt><trkpt lat="43.9534875000765" lon="8.074541855948768"><ele>485.0</ele><time>2026-05-03T14:49:17Z</time></trkpt><trkpt lat="43.953409073937976" lon="8.07455470549185"><ele>482.28571428571433</ele><time>2026-05-03T14:49:19Z</time></trkpt><trkpt lat="43.95335403788406" lon="8.074498694484035"><ele>479.57142857142856</ele><time>2026-05-03T14:49:21Z</time></trkpt><trkpt lat="43.95329212940107" lon="8.074430809836104"><ele>476.8571428571429</ele><time>2026-05-03T14:49:23Z</time></trkpt><trkpt lat="43.953222661392715" lon="8.074429604987891"><ele>474.14285714285717</ele><time>2026-05-03T14:49:25Z</time></trkpt><trkpt lat="43.95316832722208" lon="8.07450693782935"><ele>471.42857142857144</ele><time>2026-05-03T14:49:27Z</time></trkpt><trkpt lat="43.95309634948393" lon="8.074519859698531"><ele>468.7142857142857</ele><time>2026-05-03T14:49:29Z</time></trkpt><trkpt lat="43.953021897273146" lon="8.074542428617734"><ele>466.0</ele><time>2026-05-03T14:49:31Z</time></trkpt><trkpt lat="43.952964667139675" lon="8.074608127943488"><ele>466.0</ele><time>2026-05-03T14:49:34Z</time></trkpt><trkpt lat="43.952902326595485" lon="8.074661070857086"><ele>466.0</ele><time>2026-05-03T14:49:35Z</time></trkpt><trkpt lat="43.95276935028912" lon="8.074715973717646"><ele>466.0</ele><time>2026-05-03T14:49:37Z</time></trkpt><trkpt lat="43.95267598336562" lon="8.074822862657253"><ele>466.0</ele><time>2026-05-03T14:49:39Z</time></trkpt><trkpt lat="43.9526022265047" lon="8.07482062174174"><ele>466.0</ele><time>2026-05-03T14:49:41Z</time></trkpt><trkpt lat="43.952539866559235" lon="8.07486862220429"><ele>462.6</ele><time>2026-05-03T14:49:43Z</time></trkpt><trkpt lat="43.95246497054606" lon="8.07490092111001"><ele>459.20000000000005</ele><time>2026-05-03T14:49:44Z</time></trkpt><trkpt lat="43.952339870072684" lon="8.074916613547751"><ele>455.79999999999995</ele><time>2026-05-03T14:49:46Z</time></trkpt><trkpt lat="43.952212741113534" lon="8.074901554592453"><ele>452.4</ele><time>2026-05-03T14:49:48Z</time></trkpt><trkpt lat="43.95213384932533" lon="8.074967512971222"><ele>449.0</ele><time>2026-05-03T14:49:50Z</time></trkpt><trkpt lat="43.95206433165693" lon="8.074930110608742"><ele>449.0</ele><time>2026-05-03T14:49:52Z</time></trkpt><trkpt lat="43.952017507241564" lon="8.075055790877986"><ele>449.0</ele><time>2026-05-03T14:49:54Z</time></trkpt><trkpt lat="43.95194349574643" lon="8.075078840376587"><ele>449.0</ele><time>2026-05-03T14:49:56Z</time></trkpt><trkpt lat="43.951882607561984" lon="8.075122475250502"><ele>449.0</ele><time>2026-05-03T14:49:58Z</time></trkpt><trkpt lat="43.95180094084346" lon="8.075155194969609"><ele>449.0</ele><time>2026-05-03T14:50:03Z</time></trkpt><trkpt lat="43.951693020613135" lon="8.075241167470681"><ele>447.3333333333333</ele><time>2026-05-03T14:50:05Z</time></trkpt><trkpt lat="43.951627272124945" lon="8.075344893350403"><ele>445.66666666666663</ele><time>2026-05-03T14:50:07Z</time></trkpt><trkpt lat="43.951564972970665" lon="8.07540127893959"><ele>444.0</ele><time>2026-05-03T14:50:10Z</time></trkpt><trkpt lat="43.95147945696144" lon="8.075439451509228"><ele>442.33333333333337</ele><time>2026-05-03T14:50:13Z</time></trkpt><trkpt lat="43.95144715872131" lon="8.075556334919128"><ele>440.6666666666667</ele><time>2026-05-03T14:50:15.999Z</time></trkpt><trkpt lat="43.95141359163993" lon="8.075643863289375"><ele>439.0</ele><time>2026-05-03T14:50:18.999Z</time></trkpt><trkpt lat="43.95133656859774" lon="8.075682097827178"><ele>439.00000000000006</ele><time>2026-05-03T14:50:21.999Z</time></trkpt><trkpt lat="43.951224918935125" lon="8.075712806781272"><ele>439.0</ele><time>2026-05-03T14:50:24.999Z</time></trkpt><trkpt lat="43.95114846320166" lon="8.075713555691438"><ele>439.0</ele><time>2026-05-03T14:50:26.999Z</time></trkpt><trkpt lat="43.95108615802511" lon="8.075772760664263"><ele>439.0</ele><time>2026-05-03T14:50:28.999Z</time></trkpt><trkpt lat="43.9510090644309" lon="8.075812819907814"><ele>439.00000000000006</ele><time>2026-05-03T14:50:38.999Z</time></trkpt><trkpt lat="43.95093484111077" lon="8.075849593812162"><ele>439.0</ele><time>2026-05-03T14:50:40.999Z</time></trkpt><trkpt lat="43.95086842926682" lon="8.075916852995778"><ele>434.79999999999995</ele><time>2026-05-03T14:50:42.999Z</time></trkpt><trkpt lat="43.95078406877309" lon="8.076022680709373"><ele>430.59999999999997</ele><time>2026-05-03T14:50:44.999Z</time></trkpt><trkpt lat="43.95073755146872" lon="8.076087557149721"><ele>426.4</ele><time>2026-05-03T14:50:45.999Z</time></trkpt><trkpt lat="43.950655219308366" lon="8.076185858188522"><ele>422.2</ele><time>2026-05-03T14:50:47.999Z</time></trkpt><trkpt lat="43.95057469904441" lon="8.076251445142852"><ele>418.0</ele><time>2026-05-03T14:50:49.999Z</time></trkpt><trkpt lat="43.95048831125939" lon="8.07629543240297"><ele>418.0</ele><time>2026-05-03T14:50:52.999Z</time></trkpt><trkpt lat="43.95042142843139" lon="8.076375905321807"><ele>418.0</ele><time>2026-05-03T14:50:54.999Z</time></trkpt><trkpt lat="43.95035139408873" lon="8.076455427709305"><ele>418.0</ele><time>2026-05-03T14:50:56.999Z</time></trkpt><trkpt lat="43.95023372849807" lon="8.07656289778068"><ele>418.0</ele><time>2026-05-03T14:50:58.999Z</time></trkpt><trkpt lat="43.95016278483168" lon="8.076616574452807"><ele>418.0</ele><time>2026-05-03T14:50:59.999Z</time></trkpt><trkpt lat="43.95010281486094" lon="8.076670606401498"><ele>414.83333333333337</ele><time>2026-05-03T14:51:00.999Z</time></trkpt><trkpt lat="43.95000083831388" lon="8.07673459002699"><ele>411.6666666666667</ele><time>2026-05-03T14:51:02.999Z</time></trkpt><trkpt lat="43.94992261385459" lon="8.076803038616756"><ele>408.5</ele><time>2026-05-03T14:51:04.999Z</time></trkpt><trkpt lat="43.94985057499276" lon="8.076845324592764"><ele>405.33333333333337</ele><time>2026-05-03T14:51:06.999Z</time></trkpt><trkpt lat="43.94976340734553" lon="8.076871866507627"><ele>402.1666666666667</ele><time>2026-05-03T14:51:08.999Z</time></trkpt><trkpt lat="43.94969028320014" lon="8.076877991096618"><ele>399.0</ele><time>2026-05-03T14:51:10.999Z</time></trkpt><trkpt lat="43.949720594558585" lon="8.076997227035154"><ele>399.0</ele><time>2026-05-03T14:51:14.999Z</time></trkpt><trkpt lat="43.94963139056878" lon="8.077063631098486"><ele>399.0</ele><time>2026-05-03T14:51:25Z</time></trkpt><trkpt lat="43.949526281475464" lon="8.077133616619786"><ele>399.0</ele><time>2026-05-03T14:51:27Z</time></trkpt><trkpt lat="43.94941500020362" lon="8.077216031764085"><ele>399.0</ele><time>2026-05-03T14:51:29Z</time></trkpt><trkpt lat="43.94936143090291" lon="8.077325704099804"><ele>399.0</ele><time>2026-05-03T14:51:31Z</time></trkpt><trkpt lat="43.949339239477794" lon="8.077444391564503"><ele>399.6</ele><time>2026-05-03T14:51:33Z</time></trkpt><trkpt lat="43.949263334615324" lon="8.077497055733165"><ele>400.2</ele><time>2026-05-03T14:51:35Z</time></trkpt><trkpt lat="43.949188554001715" lon="8.077545649368878"><ele>400.8</ele><time>2026-05-03T14:51:38Z</time></trkpt><trkpt lat="43.94910171304481" lon="8.077557364662411"><ele>401.40000000000003</ele><time>2026-05-03T14:51:40Z</time></trkpt><trkpt lat="43.94901936121001" lon="8.077696542220782"><ele>402.0</ele><time>2026-05-03T14:51:42Z</time></trkpt><trkpt lat="43.948930116010125" lon="8.077797475254682"><ele>402.0</ele><time>2026-05-03T14:51:44Z</time></trkpt><trkpt lat="43.948814807491935" lon="8.077876841137995"><ele>402.0</ele><time>2026-05-03T14:51:46Z</time></trkpt><trkpt lat="43.94875293292691" lon="8.077899060910221"><ele>402.0</ele><time>2026-05-03T14:51:47Z</time></trkpt><trkpt lat="43.94864459170527" lon="8.07791905239278"><ele>402.0</ele><time>2026-05-03T14:51:49Z</time></trkpt><trkpt lat="43.94853810040228" lon="8.077930077306254"><ele>402.0</ele><time>2026-05-03T14:51:51Z</time></trkpt><trkpt lat="43.94846499625545" lon="8.077959345335547"><ele>402.0</ele><time>2026-05-03T14:51:52Z</time></trkpt><trkpt lat="43.9483851084928" lon="8.077997485044227"><ele>402.0</ele><time>2026-05-03T14:51:53Z</time></trkpt><trkpt lat="43.948295157943434" lon="8.078057868874778"><ele>402.0</ele><time>2026-05-03T14:51:55Z</time></trkpt><trkpt lat="43.94822928176475" lon="8.078126058138173"><ele>402.0</ele><time>2026-05-03T14:51:57Z</time></trkpt><trkpt lat="43.94809834291684" lon="8.078171566307242"><ele>402.0</ele><time>2026-05-03T14:51:59Z</time></trkpt><trkpt lat="43.94802001095991" lon="8.078213256914605"><ele>399.40000000000003</ele><time>2026-05-03T14:52:08Z</time></trkpt><trkpt lat="43.94796745836891" lon="8.078284634897352"><ele>396.8</ele><time>2026-05-03T14:52:10Z</time></trkpt><trkpt lat="43.947868727216516" lon="8.078370705060392"><ele>394.2</ele><time>2026-05-03T14:52:12Z</time></trkpt><trkpt lat="43.94777748491927" lon="8.078426960386626"><ele>391.6</ele><time>2026-05-03T14:52:14Z</time></trkpt><trkpt lat="43.94769200578665" lon="8.078515646291198"><ele>389.0</ele><time>2026-05-03T14:52:16Z</time></trkpt><trkpt lat="43.947622828371756" lon="8.078628671311854"><ele>388.99999999999994</ele><time>2026-05-03T14:52:17.999Z</time></trkpt><trkpt lat="43.94757506248912" lon="8.078700424116425"><ele>389.0</ele><time>2026-05-03T14:52:18.999Z</time></trkpt><trkpt lat="43.94755392467836" lon="8.078808360126573"><ele>389.0</ele><time>2026-05-03T14:52:19.999Z</time></trkpt><trkpt lat="43.94754989919935" lon="8.078916181992204"><ele>389.0</ele><time>2026-05-03T14:52:20.999Z</time></trkpt><trkpt lat="43.94749832765137" lon="8.079024557240455"><ele>388.99999999999994</ele><time>2026-05-03T14:52:21.999Z</time></trkpt><trkpt lat="43.947498846336224" lon="8.079136542707372"><ele>389.0</ele><time>2026-05-03T14:52:22.999Z</time></trkpt><trkpt lat="43.9474993026516" lon="8.079235062334858"><ele>387.4</ele><time>2026-05-03T14:52:23.999Z</time></trkpt><trkpt lat="43.947512815119254" lon="8.079336915219374"><ele>385.79999999999995</ele><time>2026-05-03T14:52:24.999Z</time></trkpt><trkpt lat="43.94750046958631" lon="8.079487006303019"><ele>384.20000000000005</ele><time>2026-05-03T14:52:26.999Z</time></trkpt><trkpt lat="43.947403522726106" lon="8.07961209198407"><ele>382.6</ele><time>2026-05-03T14:52:28.999Z</time></trkpt><trkpt lat="43.94733305276146" lon="8.079747715753015"><ele>381.0</ele><time>2026-05-03T14:52:30.999Z</time></trkpt><trkpt lat="43.9472840670581" lon="8.079811801443615"><ele>381.0</ele><time>2026-05-03T14:52:31.999Z</time></trkpt><trkpt lat="43.947238868571155" lon="8.079899160984274"><ele>381.0</ele><time>2026-05-03T14:52:32.999Z</time></trkpt><trkpt lat="43.94721270372595" lon="8.079992260867654"><ele>381.0</ele><time>2026-05-03T14:52:33.999Z</time></trkpt><trkpt lat="43.94716886616321" lon="8.080080107063415"><ele>381.0</ele><time>2026-05-03T14:52:34.999Z</time></trkpt><trkpt lat="43.94711496954071" lon="8.080161189815291"><ele>381.0</ele><time>2026-05-03T14:52:35.999Z</time></trkpt><trkpt lat="43.94706028059501" lon="8.080237513777568"><ele>381.0</ele><time>2026-05-03T14:52:36.999Z</time></trkpt><trkpt lat="43.9470152410617" lon="8.080321265163398"><ele>380.1666666666667</ele><time>2026-05-03T14:52:37.999Z</time></trkpt><trkpt lat="43.946955108039575" lon="8.080393236453137"><ele>379.3333333333333</ele><time>2026-05-03T14:52:38.999Z</time></trkpt><trkpt lat="43.9468985385063" lon="8.080453430273115"><ele>378.5</ele><time>2026-05-03T14:52:39.999Z</time></trkpt><trkpt lat="43.94684608901022" lon="8.080514484555081"><ele>377.66666666666663</ele><time>2026-05-03T14:52:40.999Z</time></trkpt><trkpt lat="43.94679830615345" lon="8.080639251982642"><ele>376.8333333333333</ele><time>2026-05-03T14:52:42.999Z</time></trkpt><trkpt lat="43.946719663487926" lon="8.08075848712482"><ele>376.0</ele><time>2026-05-03T14:52:44.999Z</time></trkpt><trkpt lat="43.946675588428405" lon="8.080831161698265"><ele>376.0</ele><time>2026-05-03T14:52:45.999Z</time></trkpt><trkpt lat="43.946619313150535" lon="8.080894948388265"><ele>376.0</ele><time>2026-05-03T14:52:46.999Z</time></trkpt><trkpt lat="43.94655728037487" lon="8.080925565801323"><ele>376.0</ele><time>2026-05-03T14:52:47.999Z</time></trkpt><trkpt lat="43.946496013504856" lon="8.080957861883345"><ele>376.0</ele><time>2026-05-03T14:52:48.999Z</time></trkpt><trkpt lat="43.946403746009764" lon="8.08100640233653"><ele>376.0</ele><time>2026-05-03T14:52:50.999Z</time></trkpt><trkpt lat="43.94633492460282" lon="8.081022987265085"><ele>376.0</ele><time>2026-05-03T14:52:51.999Z</time></trkpt><trkpt lat="43.946227134574336" lon="8.081054902722185"><ele>376.0</ele><time>2026-05-03T14:52:53.999Z</time></trkpt><trkpt lat="43.94613820591646" lon="8.081068637496154"><ele>376.0</ele><time>2026-05-03T14:52:55.999Z</time></trkpt><trkpt lat="43.946077635532475" lon="8.081114625471393"><ele>376.0</ele><time>2026-05-03T14:52:57.999Z</time></trkpt><trkpt lat="43.9460072673177" lon="8.081162548986693"><ele>376.0</ele><time>2026-05-03T14:53:00.999Z</time></trkpt><trkpt lat="43.94588934920424" lon="8.08122656435912"><ele>376.0</ele><time>2026-05-03T14:53:02.999Z</time></trkpt><trkpt lat="43.94582427045625" lon="8.081237149360817"><ele>376.0</ele><time>2026-05-03T14:53:03.999Z</time></trkpt><trkpt lat="43.945726381410765" lon="8.08134336467408"><ele>374.3333333333333</ele><time>2026-05-03T14:53:05.999Z</time></trkpt><trkpt lat="43.945669635241444" lon="8.081394202580379"><ele>372.66666666666663</ele><time>2026-05-03T14:53:06.999Z</time></trkpt><trkpt lat="43.94557006393501" lon="8.081449749404946"><ele>371.0</ele><time>2026-05-03T14:53:07.999Z</time></trkpt><trkpt lat="43.9455175371846" lon="8.081566783790514"><ele>369.3333333333333</ele><time>2026-05-03T14:53:09.999Z</time></trkpt><trkpt lat="43.94542838490999" lon="8.081614284063024"><ele>367.6666666666667</ele><time>2026-05-03T14:53:11.999Z</time></trkpt><trkpt lat="43.94539373732528" lon="8.081707614317777"><ele>366.0</ele><time>2026-05-03T14:53:15.999Z</time></trkpt><trkpt lat="43.945370124977785" lon="8.08179145119016"><ele>366.0</ele><time>2026-05-03T14:53:18.999Z</time></trkpt><trkpt lat="43.94526857349272" lon="8.081806952403692"><ele>366.0</ele><time>2026-05-03T14:53:20.999Z</time></trkpt><trkpt lat="43.94522177481098" lon="8.08189983850995"><ele>366.0</ele><time>2026-05-03T14:53:22.999Z</time></trkpt><trkpt lat="43.94512122395952" lon="8.08193345331508"><ele>366.0</ele><time>2026-05-03T14:53:24.999Z</time></trkpt><trkpt lat="43.94502321926202" lon="8.0819955167827"><ele>366.0</ele><time>2026-05-03T14:53:26.999Z</time></trkpt><trkpt lat="43.944965904905516" lon="8.082052633259293"><ele>363.6666666666667</ele><time>2026-05-03T14:53:30Z</time></trkpt><trkpt lat="43.94491990205398" lon="8.08213400176144"><ele>361.3333333333333</ele><time>2026-05-03T14:53:32Z</time></trkpt><trkpt lat="43.94485443115858" lon="8.082198935139669"><ele>359.0</ele><time>2026-05-03T14:53:34Z</time></trkpt><trkpt lat="43.94483048615469" lon="8.082281624966424"><ele>356.66666666666663</ele><time>2026-05-03T14:53:36Z</time></trkpt><trkpt lat="43.944762192258814" lon="8.082334113297037"><ele>354.3333333333333</ele><time>2026-05-03T14:53:38Z</time></trkpt><trkpt lat="43.94471700604733" lon="8.082434283184492"><ele>352.0</ele><time>2026-05-03T14:53:41Z</time></trkpt><trkpt lat="43.94465686940914" lon="8.08248965311945"><ele>350.0</ele><time>2026-05-03T14:53:42Z</time></trkpt><trkpt lat="43.94460031689596" lon="8.082540493165332"><ele>348.0</ele><time>2026-05-03T14:53:43Z</time></trkpt><trkpt lat="43.944506173755634" lon="8.082599818573838"><ele>346.0</ele><time>2026-05-03T14:53:45Z</time></trkpt><trkpt lat="43.94441869922406" lon="8.08266735128031"><ele>344.0</ele><time>2026-05-03T14:53:47Z</time></trkpt><trkpt lat="43.94434024777788" lon="8.082726897145413"><ele>342.0</ele><time>2026-05-03T14:53:49Z</time></trkpt><trkpt lat="43.94418466678386" lon="8.082832163821232"><ele>341.0</ele><time>2026-05-03T14:53:51Z</time></trkpt><trkpt lat="43.94409643922234" lon="8.082814191152844"><ele>340.0</ele><time>2026-05-03T14:53:53Z</time></trkpt><trkpt lat="43.94401228685596" lon="8.082794727074113"><ele>339.0</ele><time>2026-05-03T14:53:56Z</time></trkpt><trkpt lat="43.943862776723094" lon="8.082723632587395"><ele>338.0</ele><time>2026-05-03T14:56:42.999Z</time></trkpt><trkpt lat="43.94377251113322" lon="8.08273168888837"><ele>337.0</ele><time>2026-05-03T14:56:43.999Z</time></trkpt><trkpt lat="43.94369725639648" lon="8.082722830148509"><ele>337.0</ele><time>2026-05-03T14:56:44.999Z</time></trkpt><trkpt lat="43.94364938832023" lon="8.082659354354778"><ele>337.0</ele><time>2026-05-03T14:56:45.999Z</time></trkpt><trkpt lat="43.943584325485396" lon="8.08258828932133"><ele>337.0</ele><time>2026-05-03T14:56:46.999Z</time></trkpt><trkpt lat="43.94351351059641" lon="8.08253046216931"><ele>337.0</ele><time>2026-05-03T14:56:47.999Z</time></trkpt><trkpt lat="43.94344722498604" lon="8.082507293661015"><ele>337.0</ele><time>2026-05-03T14:56:48.999Z</time></trkpt><trkpt lat="43.943358713690145" lon="8.082495282432538"><ele>337.0</ele><time>2026-05-03T14:56:50.999Z</time></trkpt><trkpt lat="43.94329655670435" lon="8.082396098163752"><ele>336.16666666666663</ele><time>2026-05-03T14:56:52.999Z</time></trkpt><trkpt lat="43.943213623217574" lon="8.082336211186162"><ele>335.3333333333333</ele><time>2026-05-03T14:56:54.999Z</time></trkpt><trkpt lat="43.94314970602824" lon="8.082343028097451"><ele>334.5</ele><time>2026-05-03T14:56:56.999Z</time></trkpt><trkpt lat="43.94307215079796" lon="8.082348717381443"><ele>333.6666666666667</ele><time>2026-05-03T14:56:58.999Z</time></trkpt><trkpt lat="43.94300760800128" lon="8.082391183041382"><ele>332.83333333333337</ele><time>2026-05-03T14:57:00.999Z</time></trkpt><trkpt lat="43.942943050563414" lon="8.082454002781846"><ele>332.0</ele><time>2026-05-03T14:57:02.999Z</time></trkpt><trkpt lat="43.94284600694793" lon="8.082465270208091"><ele>332.0</ele><time>2026-05-03T14:57:04.999Z</time></trkpt><trkpt lat="43.942771867285344" lon="8.082538433775492"><ele>332.0</ele><time>2026-05-03T14:57:07.999Z</time></trkpt><trkpt lat="43.942672694254455" lon="8.08257073229833"><ele>332.0</ele><time>2026-05-03T14:57:09.999Z</time></trkpt><trkpt lat="43.94259317591388" lon="8.082531420426712"><ele>332.0</ele><time>2026-05-03T14:57:13.999Z</time></trkpt><trkpt lat="43.942527273389686" lon="8.082544459568728"><ele>332.0</ele><time>2026-05-03T14:57:16.999Z</time></trkpt><trkpt lat="43.94244716817459" lon="8.082539440827446"><ele>332.0</ele><time>2026-05-03T14:57:17.999Z</time></trkpt><trkpt lat="43.942347460426426" lon="8.082541753686165"><ele>330.33333333333337</ele><time>2026-05-03T14:57:19.999Z</time></trkpt><trkpt lat="43.94222688387022" lon="8.082530227582364"><ele>328.6666666666667</ele><time>2026-05-03T14:57:21.999Z</time></trkpt><trkpt lat="43.942160849621615" lon="8.08247203291535"><ele>327.0</ele><time>2026-05-03T14:57:23.999Z</time></trkpt><trkpt lat="43.94208238490846" lon="8.082448728191457"><ele>325.3333333333333</ele><time>2026-05-03T14:57:25.999Z</time></trkpt><trkpt lat="43.94199691384162" lon="8.082455788899445"><ele>323.66666666666663</ele><time>2026-05-03T14:57:27.999Z</time></trkpt><trkpt lat="43.9419329282358" lon="8.082441067219111"><ele>322.0</ele><time>2026-05-03T14:57:29.999Z</time></trkpt><trkpt lat="43.94187064526585" lon="8.082408438402137"><ele>321.0</ele><time>2026-05-03T14:57:32.999Z</time></trkpt><trkpt lat="43.9417931949664" lon="8.082380366682505"><ele>320.0</ele><time>2026-05-03T14:57:36.999Z</time></trkpt><trkpt lat="43.941739045127356" lon="8.082322690788175"><ele>319.0</ele><time>2026-05-03T14:57:39Z</time></trkpt><trkpt lat="43.941653388363584" lon="8.082298416182738"><ele>318.0</ele><time>2026-05-03T14:57:41Z</time></trkpt><trkpt lat="43.94157366216956" lon="8.0823272734311"><ele>317.0</ele><time>2026-05-03T14:57:43Z</time></trkpt><trkpt lat="43.941506901232295" lon="8.082301676568632"><ele>316.0</ele><time>2026-05-03T14:57:45Z</time></trkpt><trkpt lat="43.94142408810998" lon="8.082294330232665"><ele>312.66666666666663</ele><time>2026-05-03T14:57:47Z</time></trkpt><trkpt lat="43.94135199909279" lon="8.082322800376007"><ele>309.3333333333333</ele><time>2026-05-03T14:57:50Z</time></trkpt><trkpt lat="43.94129118862568" lon="8.0823545065116"><ele>306.0</ele><time>2026-05-03T14:57:52Z</time></trkpt><trkpt lat="43.941214290396715" lon="8.082354031800971"><ele>302.6666666666667</ele><time>2026-05-03T14:57:55Z</time></trkpt><trkpt lat="43.941129614950064" lon="8.082394851948521"><ele>299.33333333333337</ele><time>2026-05-03T14:57:57Z</time></trkpt><trkpt lat="43.941032588052614" lon="8.082415192503982"><ele>296.0</ele><time>2026-05-03T14:57:58Z</time></trkpt><trkpt lat="43.94076227893845" lon="8.082482412485705"><ele>294.8</ele><time>2026-05-03T14:57:59Z</time></trkpt><trkpt lat="43.9406508269526" lon="8.082522872293223"><ele>293.6</ele><time>2026-05-03T14:58:01Z</time></trkpt><trkpt lat="43.94056065156911" lon="8.0825724372067"><ele>292.4</ele><time>2026-05-03T14:58:03Z</time></trkpt><trkpt lat="43.94050393430779" lon="8.082654184600779"><ele>291.2</ele><time>2026-05-03T14:58:05Z</time></trkpt><trkpt lat="43.94044649634557" lon="8.082730259261439"><ele>290.0</ele><time>2026-05-03T14:58:07Z</time></trkpt><trkpt lat="43.940354886591635" lon="8.082731732537379"><ele>290.0</ele><time>2026-05-03T14:58:09Z</time></trkpt><trkpt lat="43.94026039591145" lon="8.082723982908465"><ele>290.0</ele><time>2026-05-03T14:58:12Z</time></trkpt><trkpt lat="43.94016370441809" lon="8.082718830028565"><ele>290.0</ele><time>2026-05-03T14:58:15Z</time></trkpt><trkpt lat="43.94006815373606" lon="8.082697574759063"><ele>290.0</ele><time>2026-05-03T14:58:17Z</time></trkpt><trkpt lat="43.93998848433848" lon="8.08264917293047"><ele>290.0</ele><time>2026-05-03T14:58:19Z</time></trkpt><trkpt lat="43.93988857606891" lon="8.082624173855407"><ele>289.2</ele><time>2026-05-03T14:58:23Z</time></trkpt><trkpt lat="43.93979923376644" lon="8.082655257512613"><ele>288.4</ele><time>2026-05-03T14:58:25Z</time></trkpt><trkpt lat="43.939706400630165" lon="8.082661344448963"><ele>287.6</ele><time>2026-05-03T14:58:26Z</time></trkpt><trkpt lat="43.9396044416634" lon="8.082644334920923"><ele>286.8</ele><time>2026-05-03T14:58:28Z</time></trkpt><trkpt lat="43.93950867909957" lon="8.082625772933048"><ele>286.0</ele><time>2026-05-03T14:58:31Z</time></trkpt><trkpt lat="43.93944469544708" lon="8.082609089105757"><ele>286.0</ele><time>2026-05-03T14:58:33Z</time></trkpt><trkpt lat="43.93934862410868" lon="8.082596568479344"><ele>286.0</ele><time>2026-05-03T14:58:34.999Z</time></trkpt><trkpt lat="43.93925154616964" lon="8.082598670227494"><ele>286.0</ele><time>2026-05-03T14:58:36.999Z</time></trkpt><trkpt lat="43.93918182088203" lon="8.08260343390923"><ele>286.0</ele><time>2026-05-03T14:58:37.999Z</time></trkpt><trkpt lat="43.939118890811145" lon="8.08261370382406"><ele>286.0</ele><time>2026-05-03T14:58:39.999Z</time></trkpt><trkpt lat="43.93901079236527" lon="8.082604228952215"><ele>286.0</ele><time>2026-05-03T14:58:41.999Z</time></trkpt><trkpt lat="43.93894225060126" lon="8.082573401580616"><ele>283.8333333333333</ele><time>2026-05-03T14:58:44.999Z</time></trkpt><trkpt lat="43.938864763387215" lon="8.082576048023336"><ele>281.66666666666663</ele><time>2026-05-03T14:58:46.999Z</time></trkpt><trkpt lat="43.93879948762467" lon="8.082523698110823"><ele>279.5</ele><time>2026-05-03T14:58:48.999Z</time></trkpt><trkpt lat="43.93869397103468" lon="8.082508803017635"><ele>277.3333333333333</ele><time>2026-05-03T14:58:50.999Z</time></trkpt><trkpt lat="43.93860630911371" lon="8.082509259787752"><ele>275.1666666666667</ele><time>2026-05-03T14:58:52.999Z</time></trkpt><trkpt lat="43.93853367735875" lon="8.082490458550124"><ele>273.0</ele><time>2026-05-03T14:58:53.999Z</time></trkpt><trkpt lat="43.93842509813332" lon="8.082432642634954"><ele>269.8</ele><time>2026-05-03T14:58:55.999Z</time></trkpt><trkpt lat="43.938328517000905" lon="8.08242873952655"><ele>266.6</ele><time>2026-05-03T14:58:57.999Z</time></trkpt><trkpt lat="43.938235065360566" lon="8.082453820772745"><ele>263.4</ele><time>2026-05-03T14:59:01.999Z</time></trkpt><trkpt lat="43.9381464088687" lon="8.082482445260407"><ele>260.2</ele><time>2026-05-03T14:59:04.999Z</time></trkpt><trkpt lat="43.938066878486275" lon="8.082491041884797"><ele>257.0</ele><time>2026-05-03T14:59:07.999Z</time></trkpt><trkpt lat="43.93796163819255" lon="8.082467611221185"><ele>257.0</ele><time>2026-05-03T14:59:10.999Z</time></trkpt><trkpt lat="43.93782864293861" lon="8.082432134890661"><ele>257.0</ele><time>2026-05-03T14:59:12.999Z</time></trkpt><trkpt lat="43.937728726942666" lon="8.082428992126152"><ele>257.0</ele><time>2026-05-03T14:59:14.999Z</time></trkpt><trkpt lat="43.93762849072805" lon="8.082465938757132"><ele>257.0</ele><time>2026-05-03T14:59:17.999Z</time></trkpt><trkpt lat="43.93755476895757" lon="8.08257394321342"><ele>257.0</ele><time>2026-05-03T14:59:19.999Z</time></trkpt><trkpt lat="43.93745245689009" lon="8.082664616034025"><ele>254.6</ele><time>2026-05-03T14:59:22.999Z</time></trkpt><trkpt lat="43.93736689332907" lon="8.08275432257552"><ele>252.2</ele><time>2026-05-03T14:59:24.999Z</time></trkpt><trkpt lat="43.937233732392734" lon="8.08285991660495"><ele>249.8</ele><time>2026-05-03T14:59:27.999Z</time></trkpt><trkpt lat="43.9371659071586" lon="8.082962642288022"><ele>247.4</ele><time>2026-05-03T14:59:29.999Z</time></trkpt><trkpt lat="43.93710876477294" lon="8.083028837133359"><ele>245.0</ele><time>2026-05-03T14:59:32.999Z</time></trkpt><trkpt lat="43.93699435548339" lon="8.083155963863636"><ele>245.0</ele><time>2026-05-03T14:59:35.999Z</time></trkpt><trkpt lat="43.93686435713933" lon="8.083191871111572"><ele>245.0</ele><time>2026-05-03T14:59:37.999Z</time></trkpt><trkpt lat="43.93678042044748" lon="8.083167648141082"><ele>245.0</ele><time>2026-05-03T14:59:39.999Z</time></trkpt><trkpt lat="43.9366929464215" lon="8.083172207416018"><ele>245.0</ele><time>2026-05-03T14:59:41.999Z</time></trkpt><trkpt lat="43.93657906514541" lon="8.083204230843442"><ele>245.0</ele><time>2026-05-03T14:59:43.999Z</time></trkpt><trkpt lat="43.936522064238744" lon="8.083262730149725"><ele>243.4</ele><time>2026-05-03T14:59:45Z</time></trkpt><trkpt lat="43.936472324818425" lon="8.08332867242001"><ele>241.8</ele><time>2026-05-03T14:59:46Z</time></trkpt><trkpt lat="43.93635250315551" lon="8.083356419493049"><ele>240.2</ele><time>2026-05-03T14:59:48Z</time></trkpt><trkpt lat="43.93624294411827" lon="8.083350359823768"><ele>238.6</ele><time>2026-05-03T14:59:50Z</time></trkpt><trkpt lat="43.93615510941215" lon="8.083318592585986"><ele>237.0</ele><time>2026-05-03T14:59:53Z</time></trkpt><trkpt lat="43.93607745640134" lon="8.083312409797854"><ele>237.0</ele><time>2026-05-03T14:59:55Z</time></trkpt><trkpt lat="43.93598821009069" lon="8.083346961411035"><ele>237.0</ele><time>2026-05-03T14:59:57Z</time></trkpt><trkpt lat="43.93588366123696" lon="8.083398958512404"><ele>237.0</ele><time>2026-05-03T14:59:59Z</time></trkpt><trkpt lat="43.9357933099001" lon="8.083438939813256"><ele>237.0</ele><time>2026-05-03T15:00:01Z</time></trkpt><trkpt lat="43.935731362349735" lon="8.083492395645456"><ele>237.0</ele><time>2026-05-03T15:00:03Z</time></trkpt><trkpt lat="43.93567505137434" lon="8.08358170737182"><ele>234.66666666666666</ele><time>2026-05-03T15:00:05Z</time></trkpt><trkpt lat="43.93564348394249" lon="8.083669525720422"><ele>232.33333333333331</ele><time>2026-05-03T15:00:07Z</time></trkpt><trkpt lat="43.935612126050195" lon="8.083783803825954"><ele>230.0</ele><time>2026-05-03T15:00:09Z</time></trkpt><trkpt lat="43.93557214629245" lon="8.083899049350697"><ele>227.66666666666666</ele><time>2026-05-03T15:00:11Z</time></trkpt><trkpt lat="43.93557405594143" lon="8.084006526427132"><ele>225.33333333333331</ele><time>2026-05-03T15:00:13Z</time></trkpt><trkpt lat="43.93556554394648" lon="8.084098901751567"><ele>223.0</ele><time>2026-05-03T15:00:15Z</time></trkpt><trkpt lat="43.93551932962998" lon="8.084189244263753"><ele>222.2</ele><time>2026-05-03T15:00:17Z</time></trkpt><trkpt lat="43.9354671771799" lon="8.084275352649042"><ele>221.4</ele><time>2026-05-03T15:00:19Z</time></trkpt><trkpt lat="43.93539324409963" lon="8.084360138021633"><ele>220.59999999999997</ele><time>2026-05-03T15:00:21Z</time></trkpt><trkpt lat="43.93532873046343" lon="8.084484434957876"><ele>219.79999999999998</ele><time>2026-05-03T15:00:23Z</time></trkpt><trkpt lat="43.93524407538276" lon="8.084596827798956"><ele>219.0</ele><time>2026-05-03T15:00:25Z</time></trkpt><trkpt lat="43.935147581740054" lon="8.084754256304432"><ele>219.0</ele><time>2026-05-03T15:00:27Z</time></trkpt><trkpt lat="43.93508604032762" lon="8.084855440697988"><ele>218.99999999999997</ele><time>2026-05-03T15:00:28Z</time></trkpt><trkpt lat="43.93498309231501" lon="8.084962859445543"><ele>218.99999999999997</ele><time>2026-05-03T15:00:30Z</time></trkpt><trkpt lat="43.934929736712185" lon="8.085038212349627"><ele>219.0</ele><time>2026-05-03T15:00:31Z</time></trkpt><trkpt lat="43.93488263435708" lon="8.08509931447174"><ele>219.0</ele><time>2026-05-03T15:00:32Z</time></trkpt><trkpt lat="43.9348188385781" lon="8.085210156287799"><ele>217.6</ele><time>2026-05-03T15:00:34Z</time></trkpt><trkpt lat="43.93478167331906" lon="8.085287969362577"><ele>216.2</ele><time>2026-05-03T15:00:35Z</time></trkpt><trkpt lat="43.934710091324774" lon="8.085361723855517"><ele>214.79999999999998</ele><time>2026-05-03T15:00:37Z</time></trkpt><trkpt lat="43.93462441464867" lon="8.08543178507939"><ele>213.39999999999998</ele><time>2026-05-03T15:00:39Z</time></trkpt><trkpt lat="43.934572665794704" lon="8.085513057259847"><ele>212.0</ele><time>2026-05-03T15:00:41Z</time></trkpt><trkpt lat="43.934423654525084" lon="8.08565233102809"><ele>212.0</ele><time>2026-05-03T15:00:43Z</time></trkpt><trkpt lat="43.93431773569304" lon="8.085702620669588"><ele>212.0</ele><time>2026-05-03T15:00:44.999Z</time></trkpt><trkpt lat="43.93423449907216" lon="8.085806402144296"><ele>212.0</ele><time>2026-05-03T15:00:46.999Z</time></trkpt><trkpt lat="43.93413982358252" lon="8.085840163452977"><ele>212.0</ele><time>2026-05-03T15:00:47.999Z</time></trkpt><trkpt lat="43.934084781420296" lon="8.085904081231385"><ele>212.0</ele><time>2026-05-03T15:00:48.999Z</time></trkpt><trkpt lat="43.934060162698465" lon="8.085999225696952"><ele>212.16666666666669</ele><time>2026-05-03T15:00:49.999Z</time></trkpt><trkpt lat="43.933936336784924" lon="8.086032571999201"><ele>212.33333333333334</ele><time>2026-05-03T15:00:51.999Z</time></trkpt><trkpt lat="43.93387337331875" lon="8.086052220800955"><ele>212.5</ele><time>2026-05-03T15:00:52.999Z</time></trkpt><trkpt lat="43.9338273153009" lon="8.086116635697909"><ele>212.66666666666669</ele><time>2026-05-03T15:00:53.999Z</time></trkpt><trkpt lat="43.93377535198834" lon="8.086174458826424"><ele>212.83333333333334</ele><time>2026-05-03T15:00:54.999Z</time></trkpt><trkpt lat="43.93366420663418" lon="8.086222352760878"><ele>213.0</ele><time>2026-05-03T15:00:56.999Z</time></trkpt><trkpt lat="43.93353919525528" lon="8.08625112046339"><ele>213.0</ele><time>2026-05-03T15:00:58.999Z</time></trkpt><trkpt lat="43.933437394692504" lon="8.086263923392735"><ele>213.0</ele><time>2026-05-03T15:01:00.999Z</time></trkpt><trkpt lat="43.93333590909672" lon="8.086343827624285"><ele>213.0</ele><time>2026-05-03T15:01:02.999Z</time></trkpt><trkpt lat="43.93325741791195" lon="8.086363434664937"><ele>213.0</ele><time>2026-05-03T15:01:03.999Z</time></trkpt><trkpt lat="43.93317753565888" lon="8.086350170144813"><ele>213.0</ele><time>2026-05-03T15:01:04.999Z</time></trkpt><trkpt lat="43.93311376541601" lon="8.086307193604489"><ele>212.5</ele><time>2026-05-03T15:01:05.999Z</time></trkpt><trkpt lat="43.93304083848854" lon="8.086327128416643"><ele>212.0</ele><time>2026-05-03T15:01:07.999Z</time></trkpt><trkpt lat="43.932973038928324" lon="8.086355693165613"><ele>211.5</ele><time>2026-05-03T15:01:09.999Z</time></trkpt><trkpt lat="43.93289085885925" lon="8.086357767960868"><ele>211.0</ele><time>2026-05-03T15:01:12.999Z</time></trkpt><trkpt lat="43.9328069423052" lon="8.086459751652521"><ele>210.5</ele><time>2026-05-03T15:01:14.999Z</time></trkpt><trkpt lat="43.93274328033002" lon="8.086490610683246"><ele>210.0</ele><time>2026-05-03T15:01:15.999Z</time></trkpt><trkpt lat="43.93268309040825" lon="8.086528732212694"><ele>210.0</ele><time>2026-05-03T15:01:16.999Z</time></trkpt><trkpt lat="43.93262091556147" lon="8.086574570052997"><ele>210.0</ele><time>2026-05-03T15:01:17.999Z</time></trkpt><trkpt lat="43.93256461193332" lon="8.086613924102508"><ele>210.0</ele><time>2026-05-03T15:01:18.999Z</time></trkpt><trkpt lat="43.932461231682694" lon="8.086708133644375"><ele>210.0</ele><time>2026-05-03T15:01:20.999Z</time></trkpt><trkpt lat="43.93237997147349" lon="8.086806621012878"><ele>210.0</ele><time>2026-05-03T15:01:22.999Z</time></trkpt><trkpt lat="43.93232125750844" lon="8.086850429389195"><ele>210.0</ele><time>2026-05-03T15:01:24.999Z</time></trkpt><trkpt lat="43.932265001052095" lon="8.086923991628721"><ele>208.8</ele><time>2026-05-03T15:01:25.999Z</time></trkpt><trkpt lat="43.93216564521865" lon="8.08707699030101"><ele>207.6</ele><time>2026-05-03T15:01:27.999Z</time></trkpt><trkpt lat="43.93210217888844" lon="8.087221278060474"><ele>206.39999999999998</ele><time>2026-05-03T15:01:29.999Z</time></trkpt><trkpt lat="43.932046042997015" lon="8.08735101190193"><ele>205.2</ele><time>2026-05-03T15:01:31.999Z</time></trkpt><trkpt lat="43.93202428124465" lon="8.087439710858582"><ele>204.0</ele><time>2026-05-03T15:01:32.999Z</time></trkpt><trkpt lat="43.931985960964745" lon="8.087535021906344"><ele>202.0</ele><time>2026-05-03T15:01:33.999Z</time></trkpt><trkpt lat="43.93194533424631" lon="8.087636619676877"><ele>200.0</ele><time>2026-05-03T15:01:34.999Z</time></trkpt><trkpt lat="43.93191309846639" lon="8.0877197868025"><ele>198.0</ele><time>2026-05-03T15:01:35.999Z</time></trkpt><trkpt lat="43.931825091012016" lon="8.087823212338494"><ele>196.0</ele><time>2026-05-03T15:01:37.999Z</time></trkpt><trkpt lat="43.93175016757418" lon="8.087869374594554"><ele>194.0</ele><time>2026-05-03T15:01:39.999Z</time></trkpt><trkpt lat="43.931695828872805" lon="8.087817405314373"><ele>192.0</ele><time>2026-05-03T15:01:41.999Z</time></trkpt><trkpt lat="43.931630114361774" lon="8.087726585948996"><ele>191.2</ele><time>2026-05-03T15:01:43.999Z</time></trkpt><trkpt lat="43.9315561261039" lon="8.087800365281465"><ele>190.39999999999998</ele><time>2026-05-03T15:01:46.999Z</time></trkpt><trkpt lat="43.93142803757113" lon="8.08786409575325"><ele>189.60000000000002</ele><time>2026-05-03T15:01:48.999Z</time></trkpt><trkpt lat="43.93130780748796" lon="8.087890337706556"><ele>188.8</ele><time>2026-05-03T15:01:49.999Z</time></trkpt><trkpt lat="43.93125676896544" lon="8.087944840658185"><ele>188.0</ele><time>2026-05-03T15:01:51Z</time></trkpt><trkpt lat="43.93115915755354" lon="8.08790446024781"><ele>188.0</ele><time>2026-05-03T15:01:53Z</time></trkpt><trkpt lat="43.93109904165209" lon="8.087778057420186"><ele>188.0</ele><time>2026-05-03T15:01:55Z</time></trkpt><trkpt lat="43.93109679226222" lon="8.087873300544999"><ele>188.0</ele><time>2026-05-03T15:01:59Z</time></trkpt><trkpt lat="43.93095449840886" lon="8.087977397628105"><ele>188.0</ele><time>2026-05-03T15:02:27Z</time></trkpt><trkpt lat="43.93088055703597" lon="8.08800084713001"><ele>188.0</ele><time>2026-05-03T15:02:28Z</time></trkpt><trkpt lat="43.930797132560365" lon="8.088039594904524"><ele>186.0</ele><time>2026-05-03T15:02:29Z</time></trkpt><trkpt lat="43.93071434784829" lon="8.088066556435686"><ele>184.0</ele><time>2026-05-03T15:02:30Z</time></trkpt><trkpt lat="43.930640414564714" lon="8.088083849182016"><ele>182.0</ele><time>2026-05-03T15:02:31Z</time></trkpt><trkpt lat="43.93057642235716" lon="8.08810642567804"><ele>180.0</ele><time>2026-05-03T15:02:32Z</time></trkpt><trkpt lat="43.93052046295823" lon="8.088156269830034"><ele>178.0</ele><time>2026-05-03T15:02:33Z</time></trkpt><trkpt lat="43.93046270987149" lon="8.088226136464575"><ele>176.0</ele><time>2026-05-03T15:02:34Z</time></trkpt><trkpt lat="43.930418373479654" lon="8.088291104218367"><ele>174.0</ele><time>2026-05-03T15:02:35Z</time></trkpt><trkpt lat="43.93037382973726" lon="8.08842073157903"><ele>173.66666666666666</ele><time>2026-05-03T15:02:37Z</time></trkpt><trkpt lat="43.930358893948586" lon="8.088524983850187"><ele>173.33333333333334</ele><time>2026-05-03T15:02:39Z</time></trkpt><trkpt lat="43.930343658319224" lon="8.088612437875149"><ele>173.0</ele><time>2026-05-03T15:02:41Z</time></trkpt><trkpt lat="43.93031833102152" lon="8.088715057407425"><ele>172.66666666666669</ele><time>2026-05-03T15:02:43Z</time></trkpt><trkpt lat="43.930380690483574" lon="8.088794135731748"><ele>172.33333333333334</ele><time>2026-05-03T15:02:46Z</time></trkpt><trkpt lat="43.93045741059019" lon="8.088739664362892"><ele>172.0</ele><time>2026-05-03T15:02:48.999Z</time></trkpt><trkpt lat="43.93069395951929" lon="8.088772177631801"><ele>172.0</ele><time>2026-05-03T15:02:49.999Z</time></trkpt><trkpt lat="43.93080658983309" lon="8.088786180097154"><ele>172.0</ele><time>2026-05-03T15:02:50.999Z</time></trkpt><trkpt lat="43.930877008300534" lon="8.088871408146728"><ele>172.0</ele><time>2026-05-03T15:02:51.999Z</time></trkpt><trkpt lat="43.93096066846664" lon="8.088935187513673"><ele>172.0</ele><time>2026-05-03T15:02:52.999Z</time></trkpt><trkpt lat="43.93103524667641" lon="8.089041287050836"><ele>172.0</ele><time>2026-05-03T15:02:53.999Z</time></trkpt><trkpt lat="43.93111316742741" lon="8.0891643753187"><ele>171.8</ele><time>2026-05-03T15:02:54.999Z</time></trkpt><trkpt lat="43.931190668475665" lon="8.08932599590157"><ele>171.6</ele><time>2026-05-03T15:02:55.999Z</time></trkpt><trkpt lat="43.9312242710787" lon="8.089472462361968"><ele>171.4</ele><time>2026-05-03T15:02:56.999Z</time></trkpt><trkpt lat="43.931252987467175" lon="8.08960910727683"><ele>171.20000000000002</ele><time>2026-05-03T15:02:57.999Z</time></trkpt><trkpt lat="43.93129213031355" lon="8.089701766395702"><ele>171.0</ele><time>2026-05-03T15:02:58.999Z</time></trkpt><trkpt lat="43.93140935502911" lon="8.08975886730103"><ele>171.0</ele><time>2026-05-03T15:03:00.999Z</time></trkpt><trkpt lat="43.93155094875008" lon="8.08974115228149"><ele>171.0</ele><time>2026-05-03T15:03:01.999Z</time></trkpt><trkpt lat="43.93168672607237" lon="8.089719614167388"><ele>171.0</ele><time>2026-05-03T15:03:02.999Z</time></trkpt><trkpt lat="43.93177391943653" lon="8.089673547562183"><ele>171.0</ele><time>2026-05-03T15:03:03.999Z</time></trkpt><trkpt lat="43.931882250848545" lon="8.08959956114904"><ele>170.20000000000002</ele><time>2026-05-03T15:03:04.999Z</time></trkpt><trkpt lat="43.93198170537308" lon="8.089576205995252"><ele>169.4</ele><time>2026-05-03T15:03:05.999Z</time></trkpt><trkpt lat="43.93204537558277" lon="8.089558372794714"><ele>168.6</ele><time>2026-05-03T15:03:06.999Z</time></trkpt><trkpt lat="43.93211521923978" lon="8.089563953463617"><ele>167.8</ele><time>2026-05-03T15:03:07.999Z</time></trkpt><trkpt lat="43.93222760988044" lon="8.089572753142182"><ele>167.0</ele><time>2026-05-03T15:03:08.999Z</time></trkpt><trkpt lat="43.93234287152629" lon="8.0895902658594"><ele>167.0</ele><time>2026-05-03T15:03:09.999Z</time></trkpt><trkpt lat="43.9324421915189" lon="8.089620845274712"><ele>167.0</ele><time>2026-05-03T15:03:10.999Z</time></trkpt><trkpt lat="43.932528048229884" lon="8.089644800500428"><ele>167.0</ele><time>2026-05-03T15:03:11.999Z</time></trkpt><trkpt lat="43.93261271919038" lon="8.089625954446348"><ele>167.0</ele><time>2026-05-03T15:03:12.999Z</time></trkpt><trkpt lat="43.932689279820984" lon="8.089628828513233"><ele>167.0</ele><time>2026-05-03T15:03:13.999Z</time></trkpt><trkpt lat="43.93277037294259" lon="8.089536198524058"><ele>166.6</ele><time>2026-05-03T15:03:14.999Z</time></trkpt><trkpt lat="43.93286224905655" lon="8.089462412044677"><ele>166.2</ele><time>2026-05-03T15:03:15.999Z</time></trkpt><trkpt lat="43.93294458566435" lon="8.08937431510728"><ele>165.8</ele><time>2026-05-03T15:03:16.999Z</time></trkpt><trkpt lat="43.93303507207672" lon="8.089265179402094"><ele>165.4</ele><time>2026-05-03T15:03:17.999Z</time></trkpt><trkpt lat="43.93311552916251" lon="8.089173813500155"><ele>165.0</ele><time>2026-05-03T15:03:18.999Z</time></trkpt><trkpt lat="43.933178268064566" lon="8.089078885230839"><ele>165.0</ele><time>2026-05-03T15:03:19.999Z</time></trkpt><trkpt lat="43.93326408948886" lon="8.089034157687479"><ele>165.0</ele><time>2026-05-03T15:03:21.999Z</time></trkpt><trkpt lat="43.93331782665794" lon="8.089099058579663"><ele>165.0</ele><time>2026-05-03T15:03:22.999Z</time></trkpt><trkpt lat="43.93334630636926" lon="8.089225953892505"><ele>165.0</ele><time>2026-05-03T15:03:23.999Z</time></trkpt><trkpt lat="43.93335844234187" lon="8.089413246851109"><ele>165.0</ele><time>2026-05-03T15:03:24.999Z</time></trkpt><trkpt lat="43.93338248829149" lon="8.089631269451088"><ele>163.6</ele><time>2026-05-03T15:03:25.999Z</time></trkpt><trkpt lat="43.93340593629942" lon="8.089815994632437"><ele>162.2</ele><time>2026-05-03T15:03:26.999Z</time></trkpt><trkpt lat="43.93342659176011" lon="8.089947495907452"><ele>160.8</ele><time>2026-05-03T15:03:27.999Z</time></trkpt><trkpt lat="43.93344167818008" lon="8.090053533319503"><ele>159.4</ele><time>2026-05-03T15:03:28.999Z</time></trkpt><trkpt lat="43.93344927624459" lon="8.090152498726013"><ele>158.0</ele><time>2026-05-03T15:03:29.999Z</time></trkpt><trkpt lat="43.93343671806206" lon="8.090285168602204"><ele>155.8</ele><time>2026-05-03T15:03:30.999Z</time></trkpt><trkpt lat="43.93340641369498" lon="8.090423616584967"><ele>153.60000000000002</ele><time>2026-05-03T15:03:31.999Z</time></trkpt><trkpt lat="43.933340045829965" lon="8.090519495203184"><ele>151.39999999999998</ele><time>2026-05-03T15:03:32.999Z</time></trkpt><trkpt lat="43.93327046304623" lon="8.090587538539948"><ele>149.2</ele><time>2026-05-03T15:03:33.999Z</time></trkpt><trkpt lat="43.933160172983165" lon="8.09063391849097"><ele>147.0</ele><time>2026-05-03T15:03:34.999Z</time></trkpt><trkpt lat="43.933049493915576" lon="8.090708523249855"><ele>146.5</ele><time>2026-05-03T15:03:35.999Z</time></trkpt><trkpt lat="43.93292417581753" lon="8.09078179483109"><ele>146.0</ele><time>2026-05-03T15:03:36.999Z</time></trkpt><trkpt lat="43.93281106568515" lon="8.090830963960068"><ele>145.5</ele><time>2026-05-03T15:03:37.999Z</time></trkpt><trkpt lat="43.93270457461835" lon="8.090887592078207"><ele>145.0</ele><time>2026-05-03T15:03:38.999Z</time></trkpt><trkpt lat="43.932595525500815" lon="8.090986515279306"><ele>143.5</ele><time>2026-05-03T15:03:39.999Z</time></trkpt><trkpt lat="43.932478230213455" lon="8.091126367430627"><ele>142.0</ele><time>2026-05-03T15:03:40.999Z</time></trkpt><trkpt lat="43.932364467137425" lon="8.09127758178848"><ele>140.5</ele><time>2026-05-03T15:03:41.999Z</time></trkpt><trkpt lat="43.932272230326404" lon="8.091414399095001"><ele>139.0</ele><time>2026-05-03T15:03:42.999Z</time></trkpt><trkpt lat="43.93215501587421" lon="8.09149897770614"><ele>139.5</ele><time>2026-05-03T15:03:43.999Z</time></trkpt><trkpt lat="43.93201720619936" lon="8.091596920609895"><ele>140.0</ele><time>2026-05-03T15:03:44.999Z</time></trkpt><trkpt lat="43.93187838939492" lon="8.091708045994949"><ele>140.5</ele><time>2026-05-03T15:03:45.999Z</time></trkpt><trkpt lat="43.931758797248065" lon="8.091792868512876"><ele>141.0</ele><time>2026-05-03T15:03:46.999Z</time></trkpt><trkpt lat="43.93165724969113" lon="8.091854831406177"><ele>138.75</ele><time>2026-05-03T15:03:47.999Z</time></trkpt><trkpt lat="43.93153695668178" lon="8.091891875014582"><ele>136.5</ele><time>2026-05-03T15:03:48.999Z</time></trkpt><trkpt lat="43.931393803580214" lon="8.091923453653937"><ele>134.25</ele><time>2026-05-03T15:03:49.999Z</time></trkpt><trkpt lat="43.93124800449147" lon="8.091945273987413"><ele>132.0</ele><time>2026-05-03T15:03:50.999Z</time></trkpt><trkpt lat="43.93110443061816" lon="8.09194471800854"><ele>132.0</ele><time>2026-05-03T15:03:51.999Z</time></trkpt><trkpt lat="43.93099054844277" lon="8.091984448152164"><ele>132.0</ele><time>2026-05-03T15:03:52.999Z</time></trkpt><trkpt lat="43.930892129948404" lon="8.091982113597146"><ele>132.0</ele><time>2026-05-03T15:03:53.999Z</time></trkpt><trkpt lat="43.930782033468255" lon="8.091946120351539"><ele>132.0</ele><time>2026-05-03T15:03:54.999Z</time></trkpt><trkpt lat="43.930660638768174" lon="8.091940732962248"><ele>131.0</ele><time>2026-05-03T15:03:55.999Z</time></trkpt><trkpt lat="43.93055483665206" lon="8.091911501842482"><ele>130.0</ele><time>2026-05-03T15:03:57Z</time></trkpt><trkpt lat="43.93044707086007" lon="8.091884198664049"><ele>129.0</ele><time>2026-05-03T15:03:58Z</time></trkpt><trkpt lat="43.930344253699595" lon="8.091874095014626"><ele>128.0</ele><time>2026-05-03T15:03:59Z</time></trkpt><trkpt lat="43.93022209086223" lon="8.091912668392556"><ele>127.0</ele><time>2026-05-03T15:04:00Z</time></trkpt><trkpt lat="43.93010094824109" lon="8.09195014318754"><ele>124.8</ele><time>2026-05-03T15:04:01Z</time></trkpt><trkpt lat="43.929992233346184" lon="8.091991516338398"><ele>122.6</ele><time>2026-05-03T15:04:02Z</time></trkpt><trkpt lat="43.92991693316474" lon="8.092037461764846"><ele>120.39999999999999</ele><time>2026-05-03T15:04:03Z</time></trkpt><trkpt lat="43.929852349153535" lon="8.092102876773014"><ele>118.19999999999999</ele><time>2026-05-03T15:04:04Z</time></trkpt><trkpt lat="43.92977349725478" lon="8.092201084199356"><ele>116.0</ele><time>2026-05-03T15:04:05Z</time></trkpt><trkpt lat="43.929690336393165" lon="8.092300330577627"><ele>116.0</ele><time>2026-05-03T15:04:06Z</time></trkpt><trkpt lat="43.929598278301185" lon="8.092365050681236"><ele>116.0</ele><time>2026-05-03T15:04:07Z</time></trkpt><trkpt lat="43.9295006206516" lon="8.092432363295936"><ele>116.0</ele><time>2026-05-03T15:04:08Z</time></trkpt><trkpt lat="43.92939460238335" lon="8.092502657427392"><ele>116.0</ele><time>2026-05-03T15:04:09Z</time></trkpt><trkpt lat="43.9293195812688" lon="8.092568977325005"><ele>116.0</ele><time>2026-05-03T15:04:10Z</time></trkpt><trkpt lat="43.92925210721471" lon="8.09258618689488"><ele>117.19999999999999</ele><time>2026-05-03T15:04:11Z</time></trkpt><trkpt lat="43.92919035310032" lon="8.092648864459935"><ele>118.39999999999999</ele><time>2026-05-03T15:04:12Z</time></trkpt><trkpt lat="43.92913563907289" lon="8.09280315588899"><ele>119.6</ele><time>2026-05-03T15:04:13Z</time></trkpt><trkpt lat="43.92908154249043" lon="8.092941785108584"><ele>120.8</ele><time>2026-05-03T15:04:14Z</time></trkpt><trkpt lat="43.929047370633405" lon="8.093055901526968"><ele>122.0</ele><time>2026-05-03T15:04:15Z</time></trkpt><trkpt lat="43.92902420665532" lon="8.093190888723768"><ele>124.6</ele><time>2026-05-03T15:04:16Z</time></trkpt><trkpt lat="43.928995137000086" lon="8.09336918953556"><ele>127.19999999999999</ele><time>2026-05-03T15:04:17Z</time></trkpt><trkpt lat="43.92896119476885" lon="8.093510676341744"><ele>129.8</ele><time>2026-05-03T15:04:18Z</time></trkpt><trkpt lat="43.928934487350666" lon="8.093617921419709"><ele>132.4</ele><time>2026-05-03T15:04:19Z</time></trkpt><trkpt lat="43.92888992037008" lon="8.093696534916214"><ele>135.0</ele><time>2026-05-03T15:04:20Z</time></trkpt><trkpt lat="43.92882961977057" lon="8.093783224650318"><ele>135.0</ele><time>2026-05-03T15:04:21Z</time></trkpt><trkpt lat="43.92872130514491" lon="8.09387066074705"><ele>135.0</ele><time>2026-05-03T15:04:22Z</time></trkpt><trkpt lat="43.9286053193579" lon="8.09395177333749"><ele>135.0</ele><time>2026-05-03T15:04:23Z</time></trkpt><trkpt lat="43.928486204963804" lon="8.094047641116713"><ele>135.0</ele><time>2026-05-03T15:04:24Z</time></trkpt><trkpt lat="43.92839056654146" lon="8.094123582694076"><ele>132.33333333333334</ele><time>2026-05-03T15:04:25Z</time></trkpt><trkpt lat="43.928303178181935" lon="8.09419814386842"><ele>129.66666666666666</ele><time>2026-05-03T15:04:26Z</time></trkpt><trkpt lat="43.92822528536111" lon="8.094276339948426"><ele>127.0</ele><time>2026-05-03T15:04:27Z</time></trkpt><trkpt lat="43.92816513930857" lon="8.09434084004983"><ele>124.33333333333333</ele><time>2026-05-03T15:04:28Z</time></trkpt><trkpt lat="43.92811914368555" lon="8.094401063726487"><ele>121.66666666666666</ele><time>2026-05-03T15:04:29Z</time></trkpt><trkpt lat="43.92809981526375" lon="8.094535046280894"><ele>119.0</ele><time>2026-05-03T15:04:31Z</time></trkpt><trkpt lat="43.92819861663937" lon="8.094651019965164"><ele>119.0</ele><time>2026-05-03T15:04:32Z</time></trkpt><trkpt lat="43.92831072045549" lon="8.094734196503726"><ele>119.0</ele><time>2026-05-03T15:04:33Z</time></trkpt><trkpt lat="43.92840062035492" lon="8.09481601787342"><ele>119.0</ele><time>2026-05-03T15:04:34Z</time></trkpt><trkpt lat="43.92845516755772" lon="8.094874963948227"><ele>119.0</ele><time>2026-05-03T15:04:35Z</time></trkpt><trkpt lat="43.928469373742" lon="8.094960907944644"><ele>119.0</ele><time>2026-05-03T15:04:37Z</time></trkpt><trkpt lat="43.92824727902081" lon="8.095046860038252"><ele>116.33333333333333</ele><time>2026-05-03T15:04:39Z</time></trkpt><trkpt lat="43.928071378529374" lon="8.095080110246272"><ele>113.66666666666666</ele><time>2026-05-03T15:04:40Z</time></trkpt><trkpt lat="43.927891209999075" lon="8.095128754396546"><ele>111.0</ele><time>2026-05-03T15:04:41Z</time></trkpt><trkpt lat="43.927733911328716" lon="8.095171090147183"><ele>111.0</ele><time>2026-05-03T15:04:42Z</time></trkpt><trkpt lat="43.92758667133858" lon="8.095237187567678"><ele>111.0</ele><time>2026-05-03T15:04:43Z</time></trkpt><trkpt lat="43.92743466504843" lon="8.095317781465294"><ele>111.0</ele><time>2026-05-03T15:04:44Z</time></trkpt><trkpt lat="43.92729492325384" lon="8.095373027891878"><ele>109.33333333333334</ele><time>2026-05-03T15:04:45Z</time></trkpt><trkpt lat="43.92715617189702" lon="8.095416780139498"><ele>107.66666666666667</ele><time>2026-05-03T15:04:46Z</time></trkpt><trkpt lat="43.9270077543036" lon="8.095444254802327"><ele>106.0</ele><time>2026-05-03T15:04:47Z</time></trkpt><trkpt lat="43.9268460280265" lon="8.095455515265485"><ele>103.6</ele><time>2026-05-03T15:04:47.999Z</time></trkpt><trkpt lat="43.92671996049012" lon="8.095457364895775"><ele>101.19999999999999</ele><time>2026-05-03T15:04:48.999Z</time></trkpt><trkpt lat="43.92661510377181" lon="8.095442979090878"><ele>98.80000000000001</ele><time>2026-05-03T15:04:49.999Z</time></trkpt><trkpt lat="43.926534975815436" lon="8.095380714325177"><ele>96.4</ele><time>2026-05-03T15:04:50.999Z</time></trkpt><trkpt lat="43.92645086297065" lon="8.09528600179205"><ele>94.0</ele><time>2026-05-03T15:04:51.999Z</time></trkpt><trkpt lat="43.92632334938679" lon="8.095185658525994"><ele>94.0</ele><time>2026-05-03T15:04:52.999Z</time></trkpt><trkpt lat="43.926203364775226" lon="8.095097263169764"><ele>94.0</ele><time>2026-05-03T15:04:53.999Z</time></trkpt><trkpt lat="43.92611134256547" lon="8.095042726045094"><ele>94.0</ele><time>2026-05-03T15:04:54.999Z</time></trkpt><trkpt lat="43.92603103373497" lon="8.095028154081804"><ele>94.0</ele><time>2026-05-03T15:04:55.999Z</time></trkpt><trkpt lat="43.92595347328671" lon="8.095042020256857"><ele>94.0</ele><time>2026-05-03T15:04:56.999Z</time></trkpt><trkpt lat="43.92587778118271" lon="8.095112772049234"><ele>91.6</ele><time>2026-05-03T15:04:57.999Z</time></trkpt><trkpt lat="43.92581794166872" lon="8.095247126216275"><ele>89.2</ele><time>2026-05-03T15:04:58.999Z</time></trkpt><trkpt lat="43.925747412985466" lon="8.095387228228665"><ele>86.8</ele><time>2026-05-03T15:04:59.999Z</time></trkpt><trkpt lat="43.92569846148332" lon="8.09549636186461"><ele>84.39999999999999</ele><time>2026-05-03T15:05:00.999Z</time></trkpt><trkpt lat="43.925679464996406" lon="8.095591736274761"><ele>82.0</ele><time>2026-05-03T15:05:01.999Z</time></trkpt><trkpt lat="43.9257229300926" lon="8.095722755277869"><ele>81.0</ele><time>2026-05-03T15:05:02.999Z</time></trkpt><trkpt lat="43.925805208116444" lon="8.095818254611162"><ele>80.0</ele><time>2026-05-03T15:05:03.999Z</time></trkpt><trkpt lat="43.92583300783116" lon="8.095902739111612"><ele>79.0</ele><time>2026-05-03T15:05:04.999Z</time></trkpt><trkpt lat="43.92574087112189" lon="8.096027099187713"><ele>78.0</ele><time>2026-05-03T15:05:06.999Z</time></trkpt><trkpt lat="43.925658422679874" lon="8.096075791240933"><ele>77.0</ele><time>2026-05-03T15:05:07.999Z</time></trkpt><trkpt lat="43.925538302030475" lon="8.096088176091484"><ele>77.0</ele><time>2026-05-03T15:05:08.999Z</time></trkpt><trkpt lat="43.925421503030186" lon="8.096110416004365"><ele>77.0</ele><time>2026-05-03T15:05:09.999Z</time></trkpt><trkpt lat="43.92532223303271" lon="8.096086509701639"><ele>77.0</ele><time>2026-05-03T15:05:10.999Z</time></trkpt><trkpt lat="43.925247115783684" lon="8.096025141592554"><ele>77.0</ele><time>2026-05-03T15:05:11.999Z</time></trkpt><trkpt lat="43.9251762774728" lon="8.09591190577971"><ele>77.0</ele><time>2026-05-03T15:05:12.999Z</time></trkpt><trkpt lat="43.92510459696544" lon="8.095799792117688"><ele>75.0</ele><time>2026-05-03T15:05:13.999Z</time></trkpt><trkpt lat="43.92505486726049" lon="8.095736202206602"><ele>73.0</ele><time>2026-05-03T15:05:14.999Z</time></trkpt><trkpt lat="43.924950947764344" lon="8.095696598083101"><ele>71.0</ele><time>2026-05-03T15:05:16.999Z</time></trkpt><trkpt lat="43.924880530415045" lon="8.095792590251687"><ele>69.0</ele><time>2026-05-03T15:05:17.999Z</time></trkpt><trkpt lat="43.92486951958355" lon="8.09596152874964"><ele>67.0</ele><time>2026-05-03T15:05:18.999Z</time></trkpt><trkpt lat="43.92496345047945" lon="8.096119037485"><ele>67.0</ele><time>2026-05-03T15:05:19.999Z</time></trkpt><trkpt lat="43.92505758142603" lon="8.096258715266709"><ele>67.0</ele><time>2026-05-03T15:05:20.999Z</time></trkpt><trkpt lat="43.92517874513748" lon="8.096358608241193"><ele>67.0</ele><time>2026-05-03T15:05:21.999Z</time></trkpt><trkpt lat="43.9253010410894" lon="8.096475648712556"><ele>67.0</ele><time>2026-05-03T15:05:22.999Z</time></trkpt><trkpt lat="43.92539428595023" lon="8.096552053817497"><ele>66.0</ele><time>2026-05-03T15:05:23.999Z</time></trkpt><trkpt lat="43.92548672542207" lon="8.096636741274645"><ele>65.0</ele><time>2026-05-03T15:05:24.999Z</time></trkpt><trkpt lat="43.92560807000117" lon="8.096708061740276"><ele>64.0</ele><time>2026-05-03T15:05:25.999Z</time></trkpt><trkpt lat="43.9257528913877" lon="8.096768463013543"><ele>63.0</ele><time>2026-05-03T15:05:26.999Z</time></trkpt><trkpt lat="43.92590237270617" lon="8.096813467148396"><ele>63.0</ele><time>2026-05-03T15:05:27.999Z</time></trkpt><trkpt lat="43.926029668992705" lon="8.09684913193936"><ele>63.0</ele><time>2026-05-03T15:05:28.999Z</time></trkpt><trkpt lat="43.92613825055305" lon="8.096877505384018"><ele>63.0</ele><time>2026-05-03T15:05:29.999Z</time></trkpt><trkpt lat="43.92624009812553" lon="8.096920659232756"><ele>63.0</ele><time>2026-05-03T15:05:30.999Z</time></trkpt><trkpt lat="43.92634083439969" lon="8.096942506842314"><ele>63.0</ele><time>2026-05-03T15:05:31.999Z</time></trkpt><trkpt lat="43.92643962863319" lon="8.096970556251376"><ele>63.0</ele><time>2026-05-03T15:05:32.999Z</time></trkpt><trkpt lat="43.92652761300039" lon="8.097007741105976"><ele>63.0</ele><time>2026-05-03T15:05:33.999Z</time></trkpt><trkpt lat="43.92660520551713" lon="8.097096850338234"><ele>63.0</ele><time>2026-05-03T15:05:34.999Z</time></trkpt><trkpt lat="43.92665127194487" lon="8.09719959863477"><ele>63.0</ele><time>2026-05-03T15:05:35.999Z</time></trkpt><trkpt lat="43.926670823295034" lon="8.097348798104608"><ele>63.0</ele><time>2026-05-03T15:05:36.999Z</time></trkpt><trkpt lat="43.92667678798542" lon="8.097509916263279"><ele>60.0</ele><time>2026-05-03T15:05:37.999Z</time></trkpt><trkpt lat="43.926685725965584" lon="8.097625188846838"><ele>57.0</ele><time>2026-05-03T15:05:38.999Z</time></trkpt><trkpt lat="43.92666545638681" lon="8.097750047545679"><ele>54.0</ele><time>2026-05-03T15:05:40.999Z</time></trkpt><trkpt lat="43.92660443112649" lon="8.097785119448599"><ele>51.0</ele><time>2026-05-03T15:05:41.999Z</time></trkpt><trkpt lat="43.92650274716459" lon="8.097800172929725"><ele>48.0</ele><time>2026-05-03T15:05:42.999Z</time></trkpt><trkpt lat="43.92640874012695" lon="8.09782077129009"><ele>45.0</ele><time>2026-05-03T15:05:43.999Z</time></trkpt><trkpt lat="43.92636613727016" lon="8.097886654321279"><ele>45.0</ele><time>2026-05-03T15:05:47.999Z</time></trkpt><trkpt lat="43.92649331860933" lon="8.097937889812743"><ele>45.0</ele><time>2026-05-03T15:05:49.999Z</time></trkpt><trkpt lat="43.92658678579244" lon="8.097922144074031"><ele>45.0</ele><time>2026-05-03T15:05:50.999Z</time></trkpt><trkpt lat="43.926671050122685" lon="8.097932860869923"><ele>45.0</ele><time>2026-05-03T15:05:51.999Z</time></trkpt><trkpt lat="43.92672859487175" lon="8.097982206596171"><ele>45.0</ele><time>2026-05-03T15:05:52.999Z</time></trkpt><trkpt lat="43.92674753447782" lon="8.098071341718178"><ele>45.0</ele><time>2026-05-03T15:05:53.999Z</time></trkpt><trkpt lat="43.926714745929544" lon="8.098215303507862"><ele>44.25</ele><time>2026-05-03T15:05:54.999Z</time></trkpt><trkpt lat="43.92667410514452" lon="8.098389465541464"><ele>43.5</ele><time>2026-05-03T15:05:55.999Z</time></trkpt><trkpt lat="43.92664089357514" lon="8.098568873142739"><ele>42.75</ele><time>2026-05-03T15:05:56.999Z</time></trkpt><trkpt lat="43.92661947655868" lon="8.098686493826055"><ele>42.0</ele><time>2026-05-03T15:05:57.999Z</time></trkpt><trkpt lat="43.926666595925965" lon="8.098807278795855"><ele>44.6</ele><time>2026-05-03T15:05:59.999Z</time></trkpt><trkpt lat="43.926737883666824" lon="8.098803890577043"><ele>47.2</ele><time>2026-05-03T15:06:00.999Z</time></trkpt><trkpt lat="43.92680121751426" lon="8.098866440068942"><ele>49.8</ele><time>2026-05-03T15:06:01.999Z</time></trkpt><trkpt lat="43.9268555908221" lon="8.098706460893661"><ele>52.4</ele><time>2026-05-03T15:06:03Z</time></trkpt><trkpt lat="43.92692499519524" lon="8.098639352206527"><ele>55.0</ele><time>2026-05-03T15:06:13Z</time></trkpt><trkpt lat="43.92703007953637" lon="8.098566269259681"><ele>54.99999999999999</ele><time>2026-05-03T15:06:15Z</time></trkpt><trkpt lat="43.92709170072515" lon="8.098510914449285"><ele>55.0</ele><time>2026-05-03T15:06:16Z</time></trkpt><trkpt lat="43.927150225860046" lon="8.098447568436502"><ele>55.0</ele><time>2026-05-03T15:06:17Z</time></trkpt><trkpt lat="43.927208790359266" lon="8.09837770576704"><ele>55.0</ele><time>2026-05-03T15:06:18Z</time></trkpt><trkpt lat="43.92726415074198" lon="8.09832326787612"><ele>54.99999999999999</ele><time>2026-05-03T15:06:19Z</time></trkpt><trkpt lat="43.92735185560472" lon="8.098330871505096"><ele>55.0</ele><time>2026-05-03T15:06:20Z</time></trkpt><trkpt lat="43.927421155543605" lon="8.09828647728533"><ele>55.0</ele><time>2026-05-03T15:06:21Z</time></trkpt><trkpt lat="43.92748752475279" lon="8.098254876319151"><ele>55.0</ele><time>2026-05-03T15:06:22Z</time></trkpt><trkpt lat="43.9275551866713" lon="8.098209767802189"><ele>55.0</ele><time>2026-05-03T15:06:23Z</time></trkpt><trkpt lat="43.927629701938706" lon="8.09827287775144"><ele>55.0</ele><time>2026-05-03T15:06:24Z</time></trkpt><trkpt lat="43.92774561339311" lon="8.098334967933667"><ele>55.0</ele><time>2026-05-03T15:06:25Z</time></trkpt><trkpt lat="43.92787081638747" lon="8.098397717472022"><ele>56.8</ele><time>2026-05-03T15:06:26Z</time></trkpt><trkpt lat="43.92798631706173" lon="8.09845761449748"><ele>58.6</ele><time>2026-05-03T15:06:27Z</time></trkpt><trkpt lat="43.92806864360706" lon="8.098551821100122"><ele>60.400000000000006</ele><time>2026-05-03T15:06:28Z</time></trkpt><trkpt lat="43.928164299890994" lon="8.098621085620856"><ele>62.2</ele><time>2026-05-03T15:06:29Z</time></trkpt><trkpt lat="43.928257918651575" lon="8.09869464319832"><ele>64.0</ele><time>2026-05-03T15:06:30Z</time></trkpt><trkpt lat="43.92836555865237" lon="8.098730916060093"><ele>65.2</ele><time>2026-05-03T15:06:31Z</time></trkpt><trkpt lat="43.92847187417496" lon="8.098795293914351"><ele>66.4</ele><time>2026-05-03T15:06:32Z</time></trkpt><trkpt lat="43.928572480757964" lon="8.098849715878064"><ele>67.6</ele><time>2026-05-03T15:06:33Z</time></trkpt><trkpt lat="43.928660922021976" lon="8.098903776575618"><ele>68.8</ele><time>2026-05-03T15:06:34Z</time></trkpt><trkpt lat="43.928745947091485" lon="8.098959920138602"><ele>70.0</ele><time>2026-05-03T15:06:35Z</time></trkpt><trkpt lat="43.928848054369205" lon="8.099013008093644"><ele>70.0</ele><time>2026-05-03T15:06:36Z</time></trkpt><trkpt lat="43.92895509520079" lon="8.099061440053003"><ele>70.0</ele><time>2026-05-03T15:06:37Z</time></trkpt><trkpt lat="43.92905078105402" lon="8.099149531138567"><ele>70.0</ele><time>2026-05-03T15:06:38Z</time></trkpt><trkpt lat="43.92915954259356" lon="8.099204445032427"><ele>70.0</ele><time>2026-05-03T15:06:39Z</time></trkpt><trkpt lat="43.92927535580887" lon="8.099256378164544"><ele>64.0</ele><time>2026-05-03T15:06:40Z</time></trkpt><trkpt lat="43.929393370293184" lon="8.09927442965085"><ele>58.0</ele><time>2026-05-03T15:06:41Z</time></trkpt><trkpt lat="43.92951347920961" lon="8.099284954674474"><ele>52.0</ele><time>2026-05-03T15:06:42Z</time></trkpt><trkpt lat="43.929631933762295" lon="8.099293988658621"><ele>46.0</ele><time>2026-05-03T15:06:43Z</time></trkpt><trkpt lat="43.92974235822484" lon="8.099317293821521"><ele>46.0</ele><time>2026-05-03T15:06:44Z</time></trkpt><trkpt lat="43.9298487306417" lon="8.09933179560665"><ele>46.0</ele><time>2026-05-03T15:06:45Z</time></trkpt><trkpt lat="43.92995379551967" lon="8.099323006148099"><ele>46.0</ele><time>2026-05-03T15:06:46Z</time></trkpt><trkpt lat="43.93004198923933" lon="8.099307664529373"><ele>46.0</ele><time>2026-05-03T15:06:47Z</time></trkpt><trkpt lat="43.93010911653683" lon="8.099282223417266"><ele>46.0</ele><time>2026-05-03T15:06:48Z</time></trkpt><trkpt lat="43.9301732872063" lon="8.099288997809415"><ele>46.0</ele><time>2026-05-03T15:06:50Z</time></trkpt><trkpt lat="43.93014603072039" lon="8.099406903103356"><ele>46.0</ele><time>2026-05-03T15:06:53.999Z</time></trkpt><trkpt lat="43.93006463871719" lon="8.099483315759807"><ele>46.0</ele><time>2026-05-03T15:06:54.999Z</time></trkpt><trkpt lat="43.92995505438107" lon="8.099580709079268"><ele>46.0</ele><time>2026-05-03T15:06:55.999Z</time></trkpt><trkpt lat="43.929842348543694" lon="8.099693333805911"><ele>46.0</ele><time>2026-05-03T15:06:56.999Z</time></trkpt><trkpt lat="43.92971203088158" lon="8.099820993937684"><ele>40.66666666666667</ele><time>2026-05-03T15:06:57.999Z</time></trkpt><trkpt lat="43.929579989026195" lon="8.099962000295715"><ele>35.333333333333336</ele><time>2026-05-03T15:06:58.999Z</time></trkpt><trkpt lat="43.9294303621423" lon="8.100108856575908"><ele>30.0</ele><time>2026-05-03T15:06:59.999Z</time></trkpt><trkpt lat="43.9292833042898" lon="8.100254241611403"><ele>30.5</ele><time>2026-05-03T15:07:00.999Z</time></trkpt><trkpt lat="43.92916226324218" lon="8.100383720091076"><ele>31.0</ele><time>2026-05-03T15:07:01.999Z</time></trkpt><trkpt lat="43.92904435745555" lon="8.100502099144945"><ele>31.5</ele><time>2026-05-03T15:07:02.999Z</time></trkpt><trkpt lat="43.928924679892944" lon="8.10060881760911"><ele>32.0</ele><time>2026-05-03T15:07:03.999Z</time></trkpt><trkpt lat="43.928774227903325" lon="8.100707267337146"><ele>29.5</ele><time>2026-05-03T15:07:04.999Z</time></trkpt><trkpt lat="43.92862757569012" lon="8.100762408821392"><ele>27.0</ele><time>2026-05-03T15:07:05.999Z</time></trkpt><trkpt lat="43.928499180411926" lon="8.100807239123768"><ele>24.5</ele><time>2026-05-03T15:07:06.999Z</time></trkpt><trkpt lat="43.92838831678422" lon="8.100887518324106"><ele>22.0</ele><time>2026-05-03T15:07:07.999Z</time></trkpt><trkpt lat="43.92830524748246" lon="8.100993846433985"><ele>22.0</ele><time>2026-05-03T15:07:08.999Z</time></trkpt><trkpt lat="43.9282528588535" lon="8.101084031522234"><ele>22.0</ele><time>2026-05-03T15:07:09.999Z</time></trkpt><trkpt lat="43.92817826818701" lon="8.101201247558242"><ele>22.0</ele><time>2026-05-03T15:07:11.999Z</time></trkpt><trkpt lat="43.92818023827968" lon="8.101342312539103"><ele>22.0</ele><time>2026-05-03T15:07:13.999Z</time></trkpt><trkpt lat="43.92829220038765" lon="8.101448893287973"><ele>22.0</ele><time>2026-05-03T15:07:14.999Z</time></trkpt><trkpt lat="43.928397591215905" lon="8.101540428341183"><ele>22.75</ele><time>2026-05-03T15:07:15.999Z</time></trkpt><trkpt lat="43.92847837599242" lon="8.101647797599401"><ele>23.5</ele><time>2026-05-03T15:07:16.999Z</time></trkpt><trkpt lat="43.928548379495496" lon="8.101794751066416"><ele>24.25</ele><time>2026-05-03T15:07:17.999Z</time></trkpt><trkpt lat="43.92863412742817" lon="8.101979963913962"><ele>25.0</ele><time>2026-05-03T15:07:18.999Z</time></trkpt><trkpt lat="43.92871911636978" lon="8.102191171285781"><ele>25.0</ele><time>2026-05-03T15:07:19.999Z</time></trkpt><trkpt lat="43.928816436452806" lon="8.102385562519203"><ele>25.0</ele><time>2026-05-03T15:07:20.999Z</time></trkpt><trkpt lat="43.92892127204467" lon="8.102481813634178"><ele>25.0</ele><time>2026-05-03T15:07:21.999Z</time></trkpt><trkpt lat="43.92905723518101" lon="8.102554604602135"><ele>25.0</ele><time>2026-05-03T15:07:22.999Z</time></trkpt><trkpt lat="43.9292230170125" lon="8.102679772127946"><ele>26.0</ele><time>2026-05-03T15:07:23.999Z</time></trkpt><trkpt lat="43.92940150154481" lon="8.102794819936092"><ele>27.0</ele><time>2026-05-03T15:07:24.999Z</time></trkpt><trkpt lat="43.929586923514925" lon="8.102894189991215"><ele>28.0</ele><time>2026-05-03T15:07:25.999Z</time></trkpt><trkpt lat="43.9297727800357" lon="8.103042518199041"><ele>28.0</ele><time>2026-05-03T15:07:26.999Z</time></trkpt><trkpt lat="43.92996713962628" lon="8.103166808035718"><ele>28.0</ele><time>2026-05-03T15:07:27.999Z</time></trkpt><trkpt lat="43.93016439530924" lon="8.103289073673878"><ele>28.0</ele><time>2026-05-03T15:07:28.999Z</time></trkpt><trkpt lat="43.930361168154384" lon="8.103403047235698"><ele>27.666666666666668</ele><time>2026-05-03T15:07:29.999Z</time></trkpt><trkpt lat="43.93055434810058" lon="8.103511902008856"><ele>27.333333333333336</ele><time>2026-05-03T15:07:30.999Z</time></trkpt><trkpt lat="43.930723905732506" lon="8.10360612124504"><ele>27.0</ele><time>2026-05-03T15:07:31.999Z</time></trkpt><trkpt lat="43.93087553827103" lon="8.1036891678579"><ele>29.6</ele><time>2026-05-03T15:07:32.999Z</time></trkpt><trkpt lat="43.930991645360976" lon="8.103751043935416"><ele>32.2</ele><time>2026-05-03T15:07:33.999Z</time></trkpt><trkpt lat="43.93107467171839" lon="8.103795040033784"><ele>34.8</ele><time>2026-05-03T15:07:34.999Z</time></trkpt><trkpt lat="43.93113557636946" lon="8.10382731380199"><ele>37.4</ele><time>2026-05-03T15:07:35.999Z</time></trkpt><trkpt lat="43.931205133971616" lon="8.103864171507148"><ele>40.0</ele><time>2026-05-03T15:07:36.999Z</time></trkpt><trkpt lat="43.93131923682954" lon="8.103831832140603"><ele>40.0</ele><time>2026-05-03T15:07:37.999Z</time></trkpt><trkpt lat="43.93141565013833" lon="8.103863362019027"><ele>40.0</ele><time>2026-05-03T15:07:38.999Z</time></trkpt><trkpt lat="43.931489343932554" lon="8.10386243771643"><ele>40.0</ele><time>2026-05-03T15:07:39.999Z</time></trkpt><trkpt lat="43.931562924536564" lon="8.103741191641271"><ele>40.0</ele><time>2026-05-03T15:07:40.999Z</time></trkpt><trkpt lat="43.93159149940393" lon="8.103577477570719"><ele>40.0</ele><time>2026-05-03T15:07:41.999Z</time></trkpt><trkpt lat="43.93161116319442" lon="8.103433869493541"><ele>40.0</ele><time>2026-05-03T15:07:42.999Z</time></trkpt><trkpt lat="43.931587779310064" lon="8.103338988966204"><ele>40.0</ele><time>2026-05-03T15:07:43.999Z</time></trkpt><trkpt lat="43.93152803355153" lon="8.103261545257475"><ele>40.0</ele><time>2026-05-03T15:07:44.999Z</time></trkpt><trkpt lat="43.931459393079216" lon="8.103125246036804"><ele>40.0</ele><time>2026-05-03T15:07:45.999Z</time></trkpt><trkpt lat="43.93139641999533" lon="8.102977310401021"><ele>40.0</ele><time>2026-05-03T15:07:46.999Z</time></trkpt><trkpt lat="43.93135933228099" lon="8.10287036150041"><ele>44.0</ele><time>2026-05-03T15:07:47.999Z</time></trkpt><trkpt lat="43.93131684442163" lon="8.10279573812996"><ele>48.0</ele><time>2026-05-03T15:07:48.999Z</time></trkpt><trkpt lat="43.93125312650448" lon="8.1027544857605"><ele>52.0</ele><time>2026-05-03T15:07:49.999Z</time></trkpt><trkpt lat="43.93117669237537" lon="8.10272389775421"><ele>56.0</ele><time>2026-05-03T15:07:50.999Z</time></trkpt><trkpt lat="43.931072546840156" lon="8.10264603314868"><ele>60.0</ele><time>2026-05-03T15:07:51.999Z</time></trkpt><trkpt lat="43.9309503727581" lon="8.102544965240606"><ele>58.4</ele><time>2026-05-03T15:07:52.999Z</time></trkpt><trkpt lat="43.93084574153033" lon="8.102462889085125"><ele>56.8</ele><time>2026-05-03T15:07:53.999Z</time></trkpt><trkpt lat="43.93074886335455" lon="8.102390024892863"><ele>55.2</ele><time>2026-05-03T15:07:54.999Z</time></trkpt><trkpt lat="43.93067247311683" lon="8.102331696669491"><ele>53.6</ele><time>2026-05-03T15:07:55.999Z</time></trkpt><trkpt lat="43.930627586602824" lon="8.102266847795386"><ele>52.0</ele><time>2026-05-03T15:07:56.999Z</time></trkpt><trkpt lat="43.93069823810864" lon="8.102240877799883"><ele>52.0</ele><time>2026-05-03T15:08:01.999Z</time></trkpt><trkpt lat="43.93075083773177" lon="8.102298028632664"><ele>52.0</ele><time>2026-05-03T15:08:02.999Z</time></trkpt><trkpt lat="43.93084108460472" lon="8.102331345446698"><ele>52.0</ele><time>2026-05-03T15:08:03.999Z</time></trkpt><trkpt lat="43.9309404841401" lon="8.102377161153552"><ele>52.0</ele><time>2026-05-03T15:08:04.999Z</time></trkpt><trkpt lat="43.931060979037355" lon="8.102383455218487"><ele>52.0</ele><time>2026-05-03T15:08:06.999Z</time></trkpt><trkpt lat="43.93109923600308" lon="8.102290050716494"><ele>54.49999999999999</ele><time>2026-05-03T15:08:09Z</time></trkpt><trkpt lat="43.93107587238039" lon="8.10220587874385"><ele>57.0</ele><time>2026-05-03T15:08:10Z</time></trkpt><trkpt lat="43.93112634173669" lon="8.102113446471336"><ele>59.5</ele><time>2026-05-03T15:08:12Z</time></trkpt><trkpt lat="43.93118456622852" lon="8.102047739389693"><ele>62.0</ele><time>2026-05-03T15:08:13Z</time></trkpt><trkpt lat="43.931248860579956" lon="8.102009787888651"><ele>64.5</ele><time>2026-05-03T15:08:15Z</time></trkpt><trkpt lat="43.93130766510274" lon="8.102068293460214"><ele>67.0</ele><time>2026-05-03T15:08:17Z</time></trkpt><trkpt lat="43.93139758285948" lon="8.102154816628577"><ele>67.0</ele><time>2026-05-03T15:08:19Z</time></trkpt><trkpt lat="43.931453281481915" lon="8.102220505308123"><ele>67.0</ele><time>2026-05-03T15:08:20Z</time></trkpt><trkpt lat="43.93155216912783" lon="8.102315337904933"><ele>67.0</ele><time>2026-05-03T15:08:22Z</time></trkpt><trkpt lat="43.9316106886596" lon="8.102358772039867"><ele>67.0</ele><time>2026-05-03T15:08:23Z</time></trkpt><trkpt lat="43.931716225960635" lon="8.10240527924553"><ele>67.0</ele><time>2026-05-03T15:08:25Z</time></trkpt><trkpt lat="43.931778276458665" lon="8.102466120508648"><ele>67.0</ele><time>2026-05-03T15:08:27Z</time></trkpt><trkpt lat="43.931733034275474" lon="8.102404411844192"><ele>75.0</ele><time>2026-05-03T15:08:44Z</time></trkpt><trkpt lat="43.93166932848886" lon="8.102399303633684"><ele>67.0</ele><time>2026-05-03T15:08:50Z</time></trkpt><trkpt lat="43.93158074163437" lon="8.102391058874483"><ele>67.0</ele><time>2026-05-03T15:08:56Z</time></trkpt><trkpt lat="43.93150413762348" lon="8.102376362111164"><ele>67.0</ele><time>2026-05-03T15:09:00.999Z</time></trkpt><trkpt lat="43.93143091045558" lon="8.10236375269061"><ele>67.0</ele><time>2026-05-03T15:09:05.999Z</time></trkpt><trkpt lat="43.9313683893798" lon="8.102338599058886"><ele>67.0</ele><time>2026-05-03T15:09:09.999Z</time></trkpt><trkpt lat="43.93130518284371" lon="8.10236994384691"><ele>67.0</ele><time>2026-05-03T15:10:16Z</time></trkpt></trkseg></trk></gpx>